<?xml version="1.0" encoding="UTF-8" standalone="no" ?>
<gpx xmlns="http://www.topografix.com/GPX/1/1" xmlns:xsi="http://www.w3.org/2001/XMLSchema-instance" xsi:schemaLocation="http://www.topografix.com/GPX/1/1 http://www.topografix.com/GPX/1/1/gpx.xsd" version="1.1" creator="VisuGPX - https://www.visugpx.com">
  <metadata>
    <name>Entraunes </name>
    <desc><![CDATA[Encore une très belle balade dans l'arrière pays, avec de magnifique paysage. Sens horaire.
Débute par une longue montée sur piste, puis sur un single. Le déjeuner se prend au sommet avec une vision à 360°.
Jolie descente dans les sous bois, attention il faut prendre à droite à la balise et continuer jusqu'à la rivière.
Après la traversée du pont poussette 20m on retombe sur un chemin prendre à gauche puis 50m plus loin à la balise à droite direction Antraunes, une longue montée qui se fera en poussage pour les musculaires et en roulant pour les VAE. 
presque en haut balise prendre à gauche toujours Antraunes. A la route prendre à droite pour revenir au point de départ.]]></desc>
  </metadata>
  <wpt lat="44.187" lon="6.74799">
    <ele>1257.5</ele>
  </wpt>
  <trk>
    <name><![CDATA[Entraunes Cyclisme]]></name>
    <trkseg>
      <trkpt lat="44.18712" lon="6.7479">
        <ele>1255.1999511719</ele>
        <time>2020-06-06T08:06:41.000Z</time>
      </trkpt>
      <trkpt lat="44.18714" lon="6.74789">
        <ele>1255.1999511719</ele>
        <time>2020-06-06T08:06:46.000Z</time>
      </trkpt>
      <trkpt lat="44.18715" lon="6.74791">
        <ele>1255.1999511719</ele>
        <time>2020-06-06T08:06:54.000Z</time>
      </trkpt>
      <trkpt lat="44.18715" lon="6.74791">
        <ele>1254.8000488281</ele>
        <time>2020-06-06T08:07:04.000Z</time>
      </trkpt>
      <trkpt lat="44.18714" lon="6.74791">
        <ele>1255.4000244141</ele>
        <time>2020-06-06T08:07:12.000Z</time>
      </trkpt>
      <trkpt lat="44.18712" lon="6.74792">
        <ele>1255.4000244141</ele>
        <time>2020-06-06T08:07:14.000Z</time>
      </trkpt>
      <trkpt lat="44.1871" lon="6.74791">
        <ele>1255.1999511719</ele>
        <time>2020-06-06T08:07:19.000Z</time>
      </trkpt>
      <trkpt lat="44.18713" lon="6.7479">
        <ele>1255</ele>
        <time>2020-06-06T08:07:24.000Z</time>
      </trkpt>
      <trkpt lat="44.18714" lon="6.7479">
        <ele>1255.1999511719</ele>
        <time>2020-06-06T08:07:32.000Z</time>
      </trkpt>
      <trkpt lat="44.18714" lon="6.74789">
        <ele>1255.1999511719</ele>
        <time>2020-06-06T08:07:45.000Z</time>
      </trkpt>
      <trkpt lat="44.18713" lon="6.74787">
        <ele>1255.1999511719</ele>
        <time>2020-06-06T08:08:04.000Z</time>
      </trkpt>
      <trkpt lat="44.18713" lon="6.74787">
        <ele>1254.8000488281</ele>
        <time>2020-06-06T08:08:11.000Z</time>
      </trkpt>
      <trkpt lat="44.18714" lon="6.74787">
        <ele>1255</ele>
        <time>2020-06-06T08:08:18.000Z</time>
      </trkpt>
      <trkpt lat="44.18716" lon="6.74786">
        <ele>1255</ele>
        <time>2020-06-06T08:08:20.000Z</time>
      </trkpt>
      <trkpt lat="44.18717" lon="6.74786">
        <ele>1254.8000488281</ele>
        <time>2020-06-06T08:08:21.000Z</time>
      </trkpt>
      <trkpt lat="44.18725" lon="6.7479">
        <ele>1255.1999511719</ele>
        <time>2020-06-06T08:08:27.000Z</time>
      </trkpt>
      <trkpt lat="44.18733" lon="6.74797">
        <ele>1255.1999511719</ele>
        <time>2020-06-06T08:08:33.000Z</time>
      </trkpt>
      <trkpt lat="44.18745" lon="6.74816">
        <ele>1256</ele>
        <time>2020-06-06T08:08:44.000Z</time>
      </trkpt>
      <trkpt lat="44.18759" lon="6.74837">
        <ele>1255.8000488281</ele>
        <time>2020-06-06T08:08:53.000Z</time>
      </trkpt>
      <trkpt lat="44.18763" lon="6.7484">
        <ele>1256</ele>
        <time>2020-06-06T08:08:56.000Z</time>
      </trkpt>
      <trkpt lat="44.18765" lon="6.74841">
        <ele>1256.1999511719</ele>
        <time>2020-06-06T08:08:58.000Z</time>
      </trkpt>
      <trkpt lat="44.18769" lon="6.74841">
        <ele>1256.8000488281</ele>
        <time>2020-06-06T08:09:04.000Z</time>
      </trkpt>
      <trkpt lat="44.18771" lon="6.74842">
        <ele>1257</ele>
        <time>2020-06-06T08:09:12.000Z</time>
      </trkpt>
      <trkpt lat="44.18772" lon="6.74842">
        <ele>1257.4000244141</ele>
        <time>2020-06-06T08:09:13.000Z</time>
      </trkpt>
      <trkpt lat="44.18773" lon="6.74843">
        <ele>1258</ele>
        <time>2020-06-06T08:09:18.000Z</time>
      </trkpt>
      <trkpt lat="44.18782" lon="6.74841">
        <ele>1258</ele>
        <time>2020-06-06T08:09:23.000Z</time>
      </trkpt>
      <trkpt lat="44.18798" lon="6.74843">
        <ele>1258.5999755859</ele>
        <time>2020-06-06T08:09:30.000Z</time>
      </trkpt>
      <trkpt lat="44.18812" lon="6.74847">
        <ele>1259.5999755859</ele>
        <time>2020-06-06T08:09:37.000Z</time>
      </trkpt>
      <trkpt lat="44.18826" lon="6.74852">
        <ele>1260.8000488281</ele>
        <time>2020-06-06T08:09:45.000Z</time>
      </trkpt>
      <trkpt lat="44.18841" lon="6.74857">
        <ele>1261.8000488281</ele>
        <time>2020-06-06T08:09:53.000Z</time>
      </trkpt>
      <trkpt lat="44.18843" lon="6.74858">
        <ele>1262</ele>
        <time>2020-06-06T08:09:54.000Z</time>
      </trkpt>
      <trkpt lat="44.18855" lon="6.74863">
        <ele>1262.8000488281</ele>
        <time>2020-06-06T08:10:01.000Z</time>
      </trkpt>
      <trkpt lat="44.18871" lon="6.74868">
        <ele>1263.4000244141</ele>
        <time>2020-06-06T08:10:10.000Z</time>
      </trkpt>
      <trkpt lat="44.18887" lon="6.74874">
        <ele>1264</ele>
        <time>2020-06-06T08:10:18.000Z</time>
      </trkpt>
      <trkpt lat="44.18893" lon="6.74877">
        <ele>1264.1999511719</ele>
        <time>2020-06-06T08:10:21.000Z</time>
      </trkpt>
      <trkpt lat="44.18906" lon="6.74887">
        <ele>1265</ele>
        <time>2020-06-06T08:10:28.000Z</time>
      </trkpt>
      <trkpt lat="44.1891" lon="6.74888">
        <ele>1265.4000244141</ele>
        <time>2020-06-06T08:10:30.000Z</time>
      </trkpt>
      <trkpt lat="44.18919" lon="6.74894">
        <ele>1266</ele>
        <time>2020-06-06T08:10:35.000Z</time>
      </trkpt>
      <trkpt lat="44.18924" lon="6.749">
        <ele>1266.5999755859</ele>
        <time>2020-06-06T08:10:38.000Z</time>
      </trkpt>
      <trkpt lat="44.18925" lon="6.74907">
        <ele>1267.1999511719</ele>
        <time>2020-06-06T08:10:41.000Z</time>
      </trkpt>
      <trkpt lat="44.18925" lon="6.7491">
        <ele>1267.4000244141</ele>
        <time>2020-06-06T08:10:42.000Z</time>
      </trkpt>
      <trkpt lat="44.18924" lon="6.74912">
        <ele>1267.4000244141</ele>
        <time>2020-06-06T08:10:43.000Z</time>
      </trkpt>
      <trkpt lat="44.18921" lon="6.74934">
        <ele>1267.5999755859</ele>
        <time>2020-06-06T08:10:50.000Z</time>
      </trkpt>
      <trkpt lat="44.18919" lon="6.74954">
        <ele>1266.8000488281</ele>
        <time>2020-06-06T08:10:56.000Z</time>
      </trkpt>
      <trkpt lat="44.18927" lon="6.74978">
        <ele>1266.1999511719</ele>
        <time>2020-06-06T08:11:03.000Z</time>
      </trkpt>
      <trkpt lat="44.1893" lon="6.75">
        <ele>1265.5999755859</ele>
        <time>2020-06-06T08:11:09.000Z</time>
      </trkpt>
      <trkpt lat="44.18925" lon="6.75011">
        <ele>1265.1999511719</ele>
        <time>2020-06-06T08:11:14.000Z</time>
      </trkpt>
      <trkpt lat="44.18918" lon="6.75017">
        <ele>1265.4000244141</ele>
        <time>2020-06-06T08:11:20.000Z</time>
      </trkpt>
      <trkpt lat="44.18908" lon="6.75025">
        <ele>1265.1999511719</ele>
        <time>2020-06-06T08:11:28.000Z</time>
      </trkpt>
      <trkpt lat="44.18907" lon="6.75025">
        <ele>1265</ele>
        <time>2020-06-06T08:11:29.000Z</time>
      </trkpt>
      <trkpt lat="44.18905" lon="6.75025">
        <ele>1264.8000488281</ele>
        <time>2020-06-06T08:11:32.000Z</time>
      </trkpt>
      <trkpt lat="44.18905" lon="6.75027">
        <ele>1264.5999755859</ele>
        <time>2020-06-06T08:11:33.000Z</time>
      </trkpt>
      <trkpt lat="44.18908" lon="6.75029">
        <ele>1264.4000244141</ele>
        <time>2020-06-06T08:11:37.000Z</time>
      </trkpt>
      <trkpt lat="44.18908" lon="6.75028">
        <ele>1264.4000244141</ele>
        <time>2020-06-06T08:11:38.000Z</time>
      </trkpt>
      <trkpt lat="44.18904" lon="6.75021">
        <ele>1264.5999755859</ele>
        <time>2020-06-06T08:11:43.000Z</time>
      </trkpt>
      <trkpt lat="44.18892" lon="6.75011">
        <ele>1264.1999511719</ele>
        <time>2020-06-06T08:11:47.000Z</time>
      </trkpt>
      <trkpt lat="44.18888" lon="6.75009">
        <ele>1263.8000488281</ele>
        <time>2020-06-06T08:11:48.000Z</time>
      </trkpt>
      <trkpt lat="44.18876" lon="6.75003">
        <ele>1262.8000488281</ele>
        <time>2020-06-06T08:11:51.000Z</time>
      </trkpt>
      <trkpt lat="44.18869" lon="6.75003">
        <ele>1262.4000244141</ele>
        <time>2020-06-06T08:11:53.000Z</time>
      </trkpt>
      <trkpt lat="44.18864" lon="6.75005">
        <ele>1262</ele>
        <time>2020-06-06T08:11:55.000Z</time>
      </trkpt>
      <trkpt lat="44.18862" lon="6.75005">
        <ele>1262.1999511719</ele>
        <time>2020-06-06T08:11:56.000Z</time>
      </trkpt>
      <trkpt lat="44.18856" lon="6.75004">
        <ele>1262.8000488281</ele>
        <time>2020-06-06T08:11:59.000Z</time>
      </trkpt>
      <trkpt lat="44.18843" lon="6.75006">
        <ele>1264</ele>
        <time>2020-06-06T08:12:05.000Z</time>
      </trkpt>
      <trkpt lat="44.18839" lon="6.75008">
        <ele>1264.5999755859</ele>
        <time>2020-06-06T08:12:07.000Z</time>
      </trkpt>
      <trkpt lat="44.18834" lon="6.7501">
        <ele>1265.1999511719</ele>
        <time>2020-06-06T08:12:10.000Z</time>
      </trkpt>
      <trkpt lat="44.18827" lon="6.75013">
        <ele>1266</ele>
        <time>2020-06-06T08:12:14.000Z</time>
      </trkpt>
      <trkpt lat="44.18823" lon="6.75014">
        <ele>1266.4000244141</ele>
        <time>2020-06-06T08:12:16.000Z</time>
      </trkpt>
      <trkpt lat="44.18815" lon="6.75016">
        <ele>1267.4000244141</ele>
        <time>2020-06-06T08:12:21.000Z</time>
      </trkpt>
      <trkpt lat="44.18813" lon="6.75017">
        <ele>1267.5999755859</ele>
        <time>2020-06-06T08:12:22.000Z</time>
      </trkpt>
      <trkpt lat="44.18805" lon="6.7502">
        <ele>1268.5999755859</ele>
        <time>2020-06-06T08:12:27.000Z</time>
      </trkpt>
      <trkpt lat="44.18801" lon="6.75021">
        <ele>1269</ele>
        <time>2020-06-06T08:12:29.000Z</time>
      </trkpt>
      <trkpt lat="44.18795" lon="6.75021">
        <ele>1269.5999755859</ele>
        <time>2020-06-06T08:12:32.000Z</time>
      </trkpt>
      <trkpt lat="44.18793" lon="6.75021">
        <ele>1270</ele>
        <time>2020-06-06T08:12:33.000Z</time>
      </trkpt>
      <trkpt lat="44.18788" lon="6.75022">
        <ele>1270.1999511719</ele>
        <time>2020-06-06T08:12:35.000Z</time>
      </trkpt>
      <trkpt lat="44.18772" lon="6.7503">
        <ele>1270.8000488281</ele>
        <time>2020-06-06T08:12:43.000Z</time>
      </trkpt>
      <trkpt lat="44.18757" lon="6.7504">
        <ele>1271</ele>
        <time>2020-06-06T08:12:50.000Z</time>
      </trkpt>
      <trkpt lat="44.18739" lon="6.75055">
        <ele>1271.4000244141</ele>
        <time>2020-06-06T08:12:58.000Z</time>
      </trkpt>
      <trkpt lat="44.18731" lon="6.7506">
        <ele>1271.8000488281</ele>
        <time>2020-06-06T08:13:02.000Z</time>
      </trkpt>
      <trkpt lat="44.18727" lon="6.75061">
        <ele>1272</ele>
        <time>2020-06-06T08:13:04.000Z</time>
      </trkpt>
      <trkpt lat="44.18712" lon="6.75065">
        <ele>1272.1999511719</ele>
        <time>2020-06-06T08:13:09.000Z</time>
      </trkpt>
      <trkpt lat="44.18701" lon="6.75068">
        <ele>1272.5999755859</ele>
        <time>2020-06-06T08:13:13.000Z</time>
      </trkpt>
      <trkpt lat="44.18698" lon="6.75069">
        <ele>1272.8000488281</ele>
        <time>2020-06-06T08:13:14.000Z</time>
      </trkpt>
      <trkpt lat="44.18685" lon="6.7507">
        <ele>1273.4000244141</ele>
        <time>2020-06-06T08:13:19.000Z</time>
      </trkpt>
      <trkpt lat="44.18671" lon="6.75072">
        <ele>1273.8000488281</ele>
        <time>2020-06-06T08:13:24.000Z</time>
      </trkpt>
      <trkpt lat="44.18658" lon="6.75073">
        <ele>1274.1999511719</ele>
        <time>2020-06-06T08:13:29.000Z</time>
      </trkpt>
      <trkpt lat="44.18638" lon="6.7508">
        <ele>1274.4000244141</ele>
        <time>2020-06-06T08:13:36.000Z</time>
      </trkpt>
      <trkpt lat="44.18623" lon="6.75084">
        <ele>1274.8000488281</ele>
        <time>2020-06-06T08:13:42.000Z</time>
      </trkpt>
      <trkpt lat="44.18618" lon="6.75087">
        <ele>1275</ele>
        <time>2020-06-06T08:13:44.000Z</time>
      </trkpt>
      <trkpt lat="44.186" lon="6.75099">
        <ele>1275</ele>
        <time>2020-06-06T08:13:51.000Z</time>
      </trkpt>
      <trkpt lat="44.18581" lon="6.75115">
        <ele>1275.1999511719</ele>
        <time>2020-06-06T08:13:59.000Z</time>
      </trkpt>
      <trkpt lat="44.18571" lon="6.75121">
        <ele>1275.4000244141</ele>
        <time>2020-06-06T08:14:04.000Z</time>
      </trkpt>
      <trkpt lat="44.18554" lon="6.75128">
        <ele>1275.5999755859</ele>
        <time>2020-06-06T08:14:10.000Z</time>
      </trkpt>
      <trkpt lat="44.1854" lon="6.75134">
        <ele>1275.8000488281</ele>
        <time>2020-06-06T08:14:15.000Z</time>
      </trkpt>
      <trkpt lat="44.18535" lon="6.75135">
        <ele>1275.8000488281</ele>
        <time>2020-06-06T08:14:17.000Z</time>
      </trkpt>
      <trkpt lat="44.18533" lon="6.75136">
        <ele>1276</ele>
        <time>2020-06-06T08:14:18.000Z</time>
      </trkpt>
      <trkpt lat="44.18515" lon="6.75143">
        <ele>1276.8000488281</ele>
        <time>2020-06-06T08:14:25.000Z</time>
      </trkpt>
      <trkpt lat="44.18508" lon="6.75147">
        <ele>1277</ele>
        <time>2020-06-06T08:14:28.000Z</time>
      </trkpt>
      <trkpt lat="44.18501" lon="6.75149">
        <ele>1277.1999511719</ele>
        <time>2020-06-06T08:14:31.000Z</time>
      </trkpt>
      <trkpt lat="44.18486" lon="6.75155">
        <ele>1278</ele>
        <time>2020-06-06T08:14:37.000Z</time>
      </trkpt>
      <trkpt lat="44.18484" lon="6.75157">
        <ele>1278.1999511719</ele>
        <time>2020-06-06T08:14:38.000Z</time>
      </trkpt>
      <trkpt lat="44.18474" lon="6.75165">
        <ele>1279.1999511719</ele>
        <time>2020-06-06T08:14:43.000Z</time>
      </trkpt>
      <trkpt lat="44.1847" lon="6.75168">
        <ele>1279.4000244141</ele>
        <time>2020-06-06T08:14:45.000Z</time>
      </trkpt>
      <trkpt lat="44.18463" lon="6.75172">
        <ele>1280.1999511719</ele>
        <time>2020-06-06T08:14:48.000Z</time>
      </trkpt>
      <trkpt lat="44.18458" lon="6.75174">
        <ele>1280.8000488281</ele>
        <time>2020-06-06T08:14:51.000Z</time>
      </trkpt>
      <trkpt lat="44.18455" lon="6.75177">
        <ele>1281.1999511719</ele>
        <time>2020-06-06T08:14:53.000Z</time>
      </trkpt>
      <trkpt lat="44.18452" lon="6.75182">
        <ele>1281.8000488281</ele>
        <time>2020-06-06T08:14:56.000Z</time>
      </trkpt>
      <trkpt lat="44.18453" lon="6.75185">
        <ele>1282</ele>
        <time>2020-06-06T08:14:57.000Z</time>
      </trkpt>
      <trkpt lat="44.18453" lon="6.75188">
        <ele>1282.4000244141</ele>
        <time>2020-06-06T08:14:58.000Z</time>
      </trkpt>
      <trkpt lat="44.18458" lon="6.75191">
        <ele>1282.8000488281</ele>
        <time>2020-06-06T08:15:01.000Z</time>
      </trkpt>
      <trkpt lat="44.18462" lon="6.75191">
        <ele>1283.1999511719</ele>
        <time>2020-06-06T08:15:03.000Z</time>
      </trkpt>
      <trkpt lat="44.18465" lon="6.75191">
        <ele>1283.5999755859</ele>
        <time>2020-06-06T08:15:05.000Z</time>
      </trkpt>
      <trkpt lat="44.18471" lon="6.75188">
        <ele>1284.1999511719</ele>
        <time>2020-06-06T08:15:08.000Z</time>
      </trkpt>
      <trkpt lat="44.18477" lon="6.75186">
        <ele>1284.5999755859</ele>
        <time>2020-06-06T08:15:12.000Z</time>
      </trkpt>
      <trkpt lat="44.18481" lon="6.75186">
        <ele>1285</ele>
        <time>2020-06-06T08:15:14.000Z</time>
      </trkpt>
      <trkpt lat="44.18485" lon="6.75187">
        <ele>1285.8000488281</ele>
        <time>2020-06-06T08:15:17.000Z</time>
      </trkpt>
      <trkpt lat="44.18488" lon="6.75188">
        <ele>1286</ele>
        <time>2020-06-06T08:15:19.000Z</time>
      </trkpt>
      <trkpt lat="44.18495" lon="6.75189">
        <ele>1286.8000488281</ele>
        <time>2020-06-06T08:15:23.000Z</time>
      </trkpt>
      <trkpt lat="44.18497" lon="6.7519">
        <ele>1287</ele>
        <time>2020-06-06T08:15:24.000Z</time>
      </trkpt>
      <trkpt lat="44.18506" lon="6.75191">
        <ele>1287.5999755859</ele>
        <time>2020-06-06T08:15:29.000Z</time>
      </trkpt>
      <trkpt lat="44.18509" lon="6.75191">
        <ele>1288</ele>
        <time>2020-06-06T08:15:31.000Z</time>
      </trkpt>
      <trkpt lat="44.18516" lon="6.75191">
        <ele>1288.5999755859</ele>
        <time>2020-06-06T08:15:35.000Z</time>
      </trkpt>
      <trkpt lat="44.18522" lon="6.75191">
        <ele>1289</ele>
        <time>2020-06-06T08:15:38.000Z</time>
      </trkpt>
      <trkpt lat="44.18524" lon="6.75191">
        <ele>1289.4000244141</ele>
        <time>2020-06-06T08:15:40.000Z</time>
      </trkpt>
      <trkpt lat="44.18529" lon="6.75191">
        <ele>1290</ele>
        <time>2020-06-06T08:15:44.000Z</time>
      </trkpt>
      <trkpt lat="44.18533" lon="6.75191">
        <ele>1290.4000244141</ele>
        <time>2020-06-06T08:15:46.000Z</time>
      </trkpt>
      <trkpt lat="44.18536" lon="6.75192">
        <ele>1290.8000488281</ele>
        <time>2020-06-06T08:15:48.000Z</time>
      </trkpt>
      <trkpt lat="44.18538" lon="6.75192">
        <ele>1291</ele>
        <time>2020-06-06T08:15:49.000Z</time>
      </trkpt>
      <trkpt lat="44.18542" lon="6.75192">
        <ele>1291.4000244141</ele>
        <time>2020-06-06T08:15:51.000Z</time>
      </trkpt>
      <trkpt lat="44.18545" lon="6.75193">
        <ele>1291.5999755859</ele>
        <time>2020-06-06T08:15:53.000Z</time>
      </trkpt>
      <trkpt lat="44.1855" lon="6.75193">
        <ele>1292.1999511719</ele>
        <time>2020-06-06T08:15:56.000Z</time>
      </trkpt>
      <trkpt lat="44.18551" lon="6.75193">
        <ele>1292.4000244141</ele>
        <time>2020-06-06T08:15:57.000Z</time>
      </trkpt>
      <trkpt lat="44.18558" lon="6.75193">
        <ele>1293.4000244141</ele>
        <time>2020-06-06T08:16:01.000Z</time>
      </trkpt>
      <trkpt lat="44.18563" lon="6.75193">
        <ele>1294</ele>
        <time>2020-06-06T08:16:04.000Z</time>
      </trkpt>
      <trkpt lat="44.18566" lon="6.75192">
        <ele>1294.4000244141</ele>
        <time>2020-06-06T08:16:06.000Z</time>
      </trkpt>
      <trkpt lat="44.18575" lon="6.7519">
        <ele>1295.1999511719</ele>
        <time>2020-06-06T08:16:10.000Z</time>
      </trkpt>
      <trkpt lat="44.18576" lon="6.75189">
        <ele>1295.4000244141</ele>
        <time>2020-06-06T08:16:11.000Z</time>
      </trkpt>
      <trkpt lat="44.18582" lon="6.75187">
        <ele>1296.4000244141</ele>
        <time>2020-06-06T08:16:14.000Z</time>
      </trkpt>
      <trkpt lat="44.18586" lon="6.75187">
        <ele>1296.8000488281</ele>
        <time>2020-06-06T08:16:16.000Z</time>
      </trkpt>
      <trkpt lat="44.18595" lon="6.75186">
        <ele>1297.4000244141</ele>
        <time>2020-06-06T08:16:21.000Z</time>
      </trkpt>
      <trkpt lat="44.18599" lon="6.75185">
        <ele>1297.8000488281</ele>
        <time>2020-06-06T08:16:23.000Z</time>
      </trkpt>
      <trkpt lat="44.18606" lon="6.75184">
        <ele>1298.5999755859</ele>
        <time>2020-06-06T08:16:27.000Z</time>
      </trkpt>
      <trkpt lat="44.18613" lon="6.75182">
        <ele>1299.8000488281</ele>
        <time>2020-06-06T08:16:31.000Z</time>
      </trkpt>
      <trkpt lat="44.18626" lon="6.75181">
        <ele>1300.8000488281</ele>
        <time>2020-06-06T08:16:38.000Z</time>
      </trkpt>
      <trkpt lat="44.18634" lon="6.75181">
        <ele>1302</ele>
        <time>2020-06-06T08:16:43.000Z</time>
      </trkpt>
      <trkpt lat="44.18635" lon="6.75181">
        <ele>1302</ele>
        <time>2020-06-06T08:16:44.000Z</time>
      </trkpt>
      <trkpt lat="44.18644" lon="6.7518">
        <ele>1303</ele>
        <time>2020-06-06T08:16:49.000Z</time>
      </trkpt>
      <trkpt lat="44.18646" lon="6.7518">
        <ele>1303.1999511719</ele>
        <time>2020-06-06T08:16:50.000Z</time>
      </trkpt>
      <trkpt lat="44.18655" lon="6.75184">
        <ele>1304.1999511719</ele>
        <time>2020-06-06T08:16:55.000Z</time>
      </trkpt>
      <trkpt lat="44.1866" lon="6.75185">
        <ele>1304.5999755859</ele>
        <time>2020-06-06T08:16:58.000Z</time>
      </trkpt>
      <trkpt lat="44.18665" lon="6.75185">
        <ele>1305.1999511719</ele>
        <time>2020-06-06T08:17:01.000Z</time>
      </trkpt>
      <trkpt lat="44.1867" lon="6.75183">
        <ele>1306</ele>
        <time>2020-06-06T08:17:04.000Z</time>
      </trkpt>
      <trkpt lat="44.18673" lon="6.75181">
        <ele>1306.4000244141</ele>
        <time>2020-06-06T08:17:06.000Z</time>
      </trkpt>
      <trkpt lat="44.18679" lon="6.75179">
        <ele>1307.4000244141</ele>
        <time>2020-06-06T08:17:10.000Z</time>
      </trkpt>
      <trkpt lat="44.18681" lon="6.75179">
        <ele>1307.5999755859</ele>
        <time>2020-06-06T08:17:11.000Z</time>
      </trkpt>
      <trkpt lat="44.18691" lon="6.75182">
        <ele>1308.5999755859</ele>
        <time>2020-06-06T08:17:17.000Z</time>
      </trkpt>
      <trkpt lat="44.18692" lon="6.75182">
        <ele>1308.8000488281</ele>
        <time>2020-06-06T08:17:18.000Z</time>
      </trkpt>
      <trkpt lat="44.18703" lon="6.75184">
        <ele>1309.8000488281</ele>
        <time>2020-06-06T08:17:25.000Z</time>
      </trkpt>
      <trkpt lat="44.18713" lon="6.75182">
        <ele>1310.8000488281</ele>
        <time>2020-06-06T08:17:31.000Z</time>
      </trkpt>
      <trkpt lat="44.18722" lon="6.7518">
        <ele>1312</ele>
        <time>2020-06-06T08:17:36.000Z</time>
      </trkpt>
      <trkpt lat="44.18727" lon="6.75178">
        <ele>1312.8000488281</ele>
        <time>2020-06-06T08:17:39.000Z</time>
      </trkpt>
      <trkpt lat="44.1873" lon="6.75176">
        <ele>1313.1999511719</ele>
        <time>2020-06-06T08:17:41.000Z</time>
      </trkpt>
      <trkpt lat="44.18739" lon="6.75173">
        <ele>1314.4000244141</ele>
        <time>2020-06-06T08:17:47.000Z</time>
      </trkpt>
      <trkpt lat="44.18751" lon="6.75171">
        <ele>1315.5999755859</ele>
        <time>2020-06-06T08:17:54.000Z</time>
      </trkpt>
      <trkpt lat="44.1876" lon="6.7517">
        <ele>1316.5999755859</ele>
        <time>2020-06-06T08:17:59.000Z</time>
      </trkpt>
      <trkpt lat="44.18765" lon="6.75169">
        <ele>1317.4000244141</ele>
        <time>2020-06-06T08:18:02.000Z</time>
      </trkpt>
      <trkpt lat="44.1877" lon="6.75169">
        <ele>1317.5999755859</ele>
        <time>2020-06-06T08:18:05.000Z</time>
      </trkpt>
      <trkpt lat="44.18778" lon="6.75167">
        <ele>1318.8000488281</ele>
        <time>2020-06-06T08:18:10.000Z</time>
      </trkpt>
      <trkpt lat="44.18786" lon="6.75165">
        <ele>1319.8000488281</ele>
        <time>2020-06-06T08:18:15.000Z</time>
      </trkpt>
      <trkpt lat="44.18792" lon="6.75163">
        <ele>1320.4000244141</ele>
        <time>2020-06-06T08:18:19.000Z</time>
      </trkpt>
      <trkpt lat="44.18797" lon="6.75162">
        <ele>1321</ele>
        <time>2020-06-06T08:18:22.000Z</time>
      </trkpt>
      <trkpt lat="44.18804" lon="6.7516">
        <ele>1322.1999511719</ele>
        <time>2020-06-06T08:18:27.000Z</time>
      </trkpt>
      <trkpt lat="44.18814" lon="6.75159">
        <ele>1323.1999511719</ele>
        <time>2020-06-06T08:18:33.000Z</time>
      </trkpt>
      <trkpt lat="44.18822" lon="6.75161">
        <ele>1324.4000244141</ele>
        <time>2020-06-06T08:18:38.000Z</time>
      </trkpt>
      <trkpt lat="44.18825" lon="6.75163">
        <ele>1324.8000488281</ele>
        <time>2020-06-06T08:18:40.000Z</time>
      </trkpt>
      <trkpt lat="44.18829" lon="6.75165">
        <ele>1325.5999755859</ele>
        <time>2020-06-06T08:18:43.000Z</time>
      </trkpt>
      <trkpt lat="44.18836" lon="6.75172">
        <ele>1326.5999755859</ele>
        <time>2020-06-06T08:18:48.000Z</time>
      </trkpt>
      <trkpt lat="44.18837" lon="6.75174">
        <ele>1326.8000488281</ele>
        <time>2020-06-06T08:18:49.000Z</time>
      </trkpt>
      <trkpt lat="44.18838" lon="6.75186">
        <ele>1327.1999511719</ele>
        <time>2020-06-06T08:18:54.000Z</time>
      </trkpt>
      <trkpt lat="44.18838" lon="6.75188">
        <ele>1327.4000244141</ele>
        <time>2020-06-06T08:18:55.000Z</time>
      </trkpt>
      <trkpt lat="44.18837" lon="6.75196">
        <ele>1327.8000488281</ele>
        <time>2020-06-06T08:18:58.000Z</time>
      </trkpt>
      <trkpt lat="44.18835" lon="6.75204">
        <ele>1328.5999755859</ele>
        <time>2020-06-06T08:19:02.000Z</time>
      </trkpt>
      <trkpt lat="44.18831" lon="6.75214">
        <ele>1329</ele>
        <time>2020-06-06T08:19:06.000Z</time>
      </trkpt>
      <trkpt lat="44.1883" lon="6.7522">
        <ele>1329.1999511719</ele>
        <time>2020-06-06T08:19:08.000Z</time>
      </trkpt>
      <trkpt lat="44.18827" lon="6.75233">
        <ele>1329.5999755859</ele>
        <time>2020-06-06T08:19:13.000Z</time>
      </trkpt>
      <trkpt lat="44.18826" lon="6.7524">
        <ele>1330</ele>
        <time>2020-06-06T08:19:16.000Z</time>
      </trkpt>
      <trkpt lat="44.18827" lon="6.75246">
        <ele>1330.1999511719</ele>
        <time>2020-06-06T08:19:18.000Z</time>
      </trkpt>
      <trkpt lat="44.1883" lon="6.75256">
        <ele>1330.4000244141</ele>
        <time>2020-06-06T08:19:21.000Z</time>
      </trkpt>
      <trkpt lat="44.18834" lon="6.75263">
        <ele>1330.4000244141</ele>
        <time>2020-06-06T08:19:24.000Z</time>
      </trkpt>
      <trkpt lat="44.18841" lon="6.75276">
        <ele>1331.1999511719</ele>
        <time>2020-06-06T08:19:29.000Z</time>
      </trkpt>
      <trkpt lat="44.18846" lon="6.75286">
        <ele>1331.5999755859</ele>
        <time>2020-06-06T08:19:33.000Z</time>
      </trkpt>
      <trkpt lat="44.18856" lon="6.75298">
        <ele>1332.1999511719</ele>
        <time>2020-06-06T08:19:39.000Z</time>
      </trkpt>
      <trkpt lat="44.18868" lon="6.75306">
        <ele>1333</ele>
        <time>2020-06-06T08:19:45.000Z</time>
      </trkpt>
      <trkpt lat="44.18871" lon="6.75307">
        <ele>1333.4000244141</ele>
        <time>2020-06-06T08:19:46.000Z</time>
      </trkpt>
      <trkpt lat="44.1888" lon="6.75314">
        <ele>1334.1999511719</ele>
        <time>2020-06-06T08:19:51.000Z</time>
      </trkpt>
      <trkpt lat="44.18886" lon="6.75318">
        <ele>1334.4000244141</ele>
        <time>2020-06-06T08:19:54.000Z</time>
      </trkpt>
      <trkpt lat="44.18895" lon="6.75324">
        <ele>1334.8000488281</ele>
        <time>2020-06-06T08:19:59.000Z</time>
      </trkpt>
      <trkpt lat="44.18901" lon="6.75329">
        <ele>1335.4000244141</ele>
        <time>2020-06-06T08:20:02.000Z</time>
      </trkpt>
      <trkpt lat="44.18907" lon="6.75333">
        <ele>1336</ele>
        <time>2020-06-06T08:20:05.000Z</time>
      </trkpt>
      <trkpt lat="44.18922" lon="6.75344">
        <ele>1336.4000244141</ele>
        <time>2020-06-06T08:20:12.000Z</time>
      </trkpt>
      <trkpt lat="44.18935" lon="6.75351">
        <ele>1337</ele>
        <time>2020-06-06T08:20:18.000Z</time>
      </trkpt>
      <trkpt lat="44.18942" lon="6.75355">
        <ele>1337.4000244141</ele>
        <time>2020-06-06T08:20:22.000Z</time>
      </trkpt>
      <trkpt lat="44.18948" lon="6.75357">
        <ele>1337.8000488281</ele>
        <time>2020-06-06T08:20:25.000Z</time>
      </trkpt>
      <trkpt lat="44.18959" lon="6.75359">
        <ele>1338.4000244141</ele>
        <time>2020-06-06T08:20:30.000Z</time>
      </trkpt>
      <trkpt lat="44.18963" lon="6.7536">
        <ele>1338.5999755859</ele>
        <time>2020-06-06T08:20:32.000Z</time>
      </trkpt>
      <trkpt lat="44.18969" lon="6.75368">
        <ele>1339.5999755859</ele>
        <time>2020-06-06T08:20:37.000Z</time>
      </trkpt>
      <trkpt lat="44.1897" lon="6.7537">
        <ele>1339.8000488281</ele>
        <time>2020-06-06T08:20:38.000Z</time>
      </trkpt>
      <trkpt lat="44.18967" lon="6.75377">
        <ele>1340.4000244141</ele>
        <time>2020-06-06T08:20:42.000Z</time>
      </trkpt>
      <trkpt lat="44.18965" lon="6.75378">
        <ele>1340.5999755859</ele>
        <time>2020-06-06T08:20:43.000Z</time>
      </trkpt>
      <trkpt lat="44.18963" lon="6.75379">
        <ele>1340.5999755859</ele>
        <time>2020-06-06T08:20:44.000Z</time>
      </trkpt>
      <trkpt lat="44.18956" lon="6.75378">
        <ele>1341.4000244141</ele>
        <time>2020-06-06T08:20:48.000Z</time>
      </trkpt>
      <trkpt lat="44.18953" lon="6.75377">
        <ele>1341.5999755859</ele>
        <time>2020-06-06T08:20:50.000Z</time>
      </trkpt>
      <trkpt lat="44.18949" lon="6.75375">
        <ele>1342</ele>
        <time>2020-06-06T08:20:52.000Z</time>
      </trkpt>
      <trkpt lat="44.18945" lon="6.75375">
        <ele>1342.1999511719</ele>
        <time>2020-06-06T08:20:54.000Z</time>
      </trkpt>
      <trkpt lat="44.18939" lon="6.75373">
        <ele>1342.8000488281</ele>
        <time>2020-06-06T08:20:57.000Z</time>
      </trkpt>
      <trkpt lat="44.1893" lon="6.75371">
        <ele>1343.4000244141</ele>
        <time>2020-06-06T08:21:02.000Z</time>
      </trkpt>
      <trkpt lat="44.18924" lon="6.75368">
        <ele>1344</ele>
        <time>2020-06-06T08:21:05.000Z</time>
      </trkpt>
      <trkpt lat="44.18917" lon="6.75364">
        <ele>1344.8000488281</ele>
        <time>2020-06-06T08:21:09.000Z</time>
      </trkpt>
      <trkpt lat="44.18914" lon="6.75362">
        <ele>1345</ele>
        <time>2020-06-06T08:21:11.000Z</time>
      </trkpt>
      <trkpt lat="44.18904" lon="6.75357">
        <ele>1346</ele>
        <time>2020-06-06T08:21:17.000Z</time>
      </trkpt>
      <trkpt lat="44.18902" lon="6.75356">
        <ele>1346</ele>
        <time>2020-06-06T08:21:18.000Z</time>
      </trkpt>
      <trkpt lat="44.18893" lon="6.75354">
        <ele>1346.5999755859</ele>
        <time>2020-06-06T08:21:23.000Z</time>
      </trkpt>
      <trkpt lat="44.18888" lon="6.75355">
        <ele>1347.4000244141</ele>
        <time>2020-06-06T08:21:26.000Z</time>
      </trkpt>
      <trkpt lat="44.18881" lon="6.75356">
        <ele>1347.8000488281</ele>
        <time>2020-06-06T08:21:30.000Z</time>
      </trkpt>
      <trkpt lat="44.18874" lon="6.75357">
        <ele>1348.4000244141</ele>
        <time>2020-06-06T08:21:34.000Z</time>
      </trkpt>
      <trkpt lat="44.18866" lon="6.75357">
        <ele>1349.1999511719</ele>
        <time>2020-06-06T08:21:38.000Z</time>
      </trkpt>
      <trkpt lat="44.18865" lon="6.75356">
        <ele>1349.4000244141</ele>
        <time>2020-06-06T08:21:39.000Z</time>
      </trkpt>
      <trkpt lat="44.18854" lon="6.75355">
        <ele>1350.1999511719</ele>
        <time>2020-06-06T08:21:45.000Z</time>
      </trkpt>
      <trkpt lat="44.18851" lon="6.75354">
        <ele>1350.5999755859</ele>
        <time>2020-06-06T08:21:47.000Z</time>
      </trkpt>
      <trkpt lat="44.18843" lon="6.75351">
        <ele>1351.4000244141</ele>
        <time>2020-06-06T08:21:52.000Z</time>
      </trkpt>
      <trkpt lat="44.18841" lon="6.75351">
        <ele>1351.5999755859</ele>
        <time>2020-06-06T08:21:53.000Z</time>
      </trkpt>
      <trkpt lat="44.18832" lon="6.75345">
        <ele>1352.8000488281</ele>
        <time>2020-06-06T08:21:59.000Z</time>
      </trkpt>
      <trkpt lat="44.1882" lon="6.75336">
        <ele>1353.8000488281</ele>
        <time>2020-06-06T08:22:07.000Z</time>
      </trkpt>
      <trkpt lat="44.18812" lon="6.75328">
        <ele>1354.8000488281</ele>
        <time>2020-06-06T08:22:12.000Z</time>
      </trkpt>
      <trkpt lat="44.1881" lon="6.75327">
        <ele>1355</ele>
        <time>2020-06-06T08:22:13.000Z</time>
      </trkpt>
      <trkpt lat="44.18799" lon="6.75316">
        <ele>1355.5999755859</ele>
        <time>2020-06-06T08:22:20.000Z</time>
      </trkpt>
      <trkpt lat="44.18796" lon="6.75314">
        <ele>1355.8000488281</ele>
        <time>2020-06-06T08:22:22.000Z</time>
      </trkpt>
      <trkpt lat="44.18789" lon="6.75306">
        <ele>1356.5999755859</ele>
        <time>2020-06-06T08:22:27.000Z</time>
      </trkpt>
      <trkpt lat="44.18786" lon="6.75304">
        <ele>1357</ele>
        <time>2020-06-06T08:22:29.000Z</time>
      </trkpt>
      <trkpt lat="44.18777" lon="6.75301">
        <ele>1357.5999755859</ele>
        <time>2020-06-06T08:22:34.000Z</time>
      </trkpt>
      <trkpt lat="44.18772" lon="6.75301">
        <ele>1358</ele>
        <time>2020-06-06T08:22:37.000Z</time>
      </trkpt>
      <trkpt lat="44.18763" lon="6.75302">
        <ele>1359</ele>
        <time>2020-06-06T08:22:42.000Z</time>
      </trkpt>
      <trkpt lat="44.18761" lon="6.75302">
        <ele>1359.1999511719</ele>
        <time>2020-06-06T08:22:43.000Z</time>
      </trkpt>
      <trkpt lat="44.18748" lon="6.75308">
        <ele>1359.8000488281</ele>
        <time>2020-06-06T08:22:50.000Z</time>
      </trkpt>
      <trkpt lat="44.1874" lon="6.75313">
        <ele>1360.1999511719</ele>
        <time>2020-06-06T08:22:55.000Z</time>
      </trkpt>
      <trkpt lat="44.18734" lon="6.75316">
        <ele>1360.8000488281</ele>
        <time>2020-06-06T08:22:58.000Z</time>
      </trkpt>
      <trkpt lat="44.18728" lon="6.75319">
        <ele>1361.4000244141</ele>
        <time>2020-06-06T08:23:01.000Z</time>
      </trkpt>
      <trkpt lat="44.18719" lon="6.75322">
        <ele>1362.1999511719</ele>
        <time>2020-06-06T08:23:06.000Z</time>
      </trkpt>
      <trkpt lat="44.18715" lon="6.75324">
        <ele>1362.4000244141</ele>
        <time>2020-06-06T08:23:08.000Z</time>
      </trkpt>
      <trkpt lat="44.18705" lon="6.75328">
        <ele>1363</ele>
        <time>2020-06-06T08:23:13.000Z</time>
      </trkpt>
      <trkpt lat="44.18694" lon="6.75334">
        <ele>1363.4000244141</ele>
        <time>2020-06-06T08:23:19.000Z</time>
      </trkpt>
      <trkpt lat="44.18688" lon="6.75336">
        <ele>1364</ele>
        <time>2020-06-06T08:23:22.000Z</time>
      </trkpt>
      <trkpt lat="44.18682" lon="6.75339">
        <ele>1364.4000244141</ele>
        <time>2020-06-06T08:23:25.000Z</time>
      </trkpt>
      <trkpt lat="44.18672" lon="6.75343">
        <ele>1365.1999511719</ele>
        <time>2020-06-06T08:23:30.000Z</time>
      </trkpt>
      <trkpt lat="44.18666" lon="6.75346">
        <ele>1365.5999755859</ele>
        <time>2020-06-06T08:23:33.000Z</time>
      </trkpt>
      <trkpt lat="44.18656" lon="6.75351">
        <ele>1366.4000244141</ele>
        <time>2020-06-06T08:23:38.000Z</time>
      </trkpt>
      <trkpt lat="44.18652" lon="6.75352">
        <ele>1366.8000488281</ele>
        <time>2020-06-06T08:23:40.000Z</time>
      </trkpt>
      <trkpt lat="44.1864" lon="6.75358">
        <ele>1367.8000488281</ele>
        <time>2020-06-06T08:23:46.000Z</time>
      </trkpt>
      <trkpt lat="44.18628" lon="6.75362">
        <ele>1369</ele>
        <time>2020-06-06T08:23:52.000Z</time>
      </trkpt>
      <trkpt lat="44.18619" lon="6.75365">
        <ele>1370</ele>
        <time>2020-06-06T08:23:57.000Z</time>
      </trkpt>
      <trkpt lat="44.18618" lon="6.75366">
        <ele>1370.1999511719</ele>
        <time>2020-06-06T08:23:58.000Z</time>
      </trkpt>
      <trkpt lat="44.18606" lon="6.75373">
        <ele>1371.1999511719</ele>
        <time>2020-06-06T08:24:04.000Z</time>
      </trkpt>
      <trkpt lat="44.18604" lon="6.75374">
        <ele>1371.1999511719</ele>
        <time>2020-06-06T08:24:05.000Z</time>
      </trkpt>
      <trkpt lat="44.18592" lon="6.75379">
        <ele>1372.1999511719</ele>
        <time>2020-06-06T08:24:11.000Z</time>
      </trkpt>
      <trkpt lat="44.18583" lon="6.75381">
        <ele>1373.1999511719</ele>
        <time>2020-06-06T08:24:15.000Z</time>
      </trkpt>
      <trkpt lat="44.1858" lon="6.75381">
        <ele>1373.5999755859</ele>
        <time>2020-06-06T08:24:17.000Z</time>
      </trkpt>
      <trkpt lat="44.1857" lon="6.75389">
        <ele>1374.4000244141</ele>
        <time>2020-06-06T08:24:23.000Z</time>
      </trkpt>
      <trkpt lat="44.1857" lon="6.75392">
        <ele>1374.5999755859</ele>
        <time>2020-06-06T08:24:24.000Z</time>
      </trkpt>
      <trkpt lat="44.18576" lon="6.75398">
        <ele>1375.1999511719</ele>
        <time>2020-06-06T08:24:28.000Z</time>
      </trkpt>
      <trkpt lat="44.1858" lon="6.75398">
        <ele>1375.4000244141</ele>
        <time>2020-06-06T08:24:30.000Z</time>
      </trkpt>
      <trkpt lat="44.18586" lon="6.75397">
        <ele>1376</ele>
        <time>2020-06-06T08:24:33.000Z</time>
      </trkpt>
      <trkpt lat="44.18589" lon="6.75397">
        <ele>1376.4000244141</ele>
        <time>2020-06-06T08:24:35.000Z</time>
      </trkpt>
      <trkpt lat="44.186" lon="6.75397">
        <ele>1377.4000244141</ele>
        <time>2020-06-06T08:24:40.000Z</time>
      </trkpt>
      <trkpt lat="44.18602" lon="6.75398">
        <ele>1377.4000244141</ele>
        <time>2020-06-06T08:24:41.000Z</time>
      </trkpt>
      <trkpt lat="44.18616" lon="6.75404">
        <ele>1378.1999511719</ele>
        <time>2020-06-06T08:24:48.000Z</time>
      </trkpt>
      <trkpt lat="44.18627" lon="6.75408">
        <ele>1378.5999755859</ele>
        <time>2020-06-06T08:24:54.000Z</time>
      </trkpt>
      <trkpt lat="44.18631" lon="6.75409">
        <ele>1379</ele>
        <time>2020-06-06T08:24:56.000Z</time>
      </trkpt>
      <trkpt lat="44.18635" lon="6.75408">
        <ele>1379.4000244141</ele>
        <time>2020-06-06T08:24:58.000Z</time>
      </trkpt>
      <trkpt lat="44.18637" lon="6.75408">
        <ele>1379.5999755859</ele>
        <time>2020-06-06T08:24:59.000Z</time>
      </trkpt>
      <trkpt lat="44.18641" lon="6.75407">
        <ele>1379.8000488281</ele>
        <time>2020-06-06T08:25:01.000Z</time>
      </trkpt>
      <trkpt lat="44.18651" lon="6.75409">
        <ele>1380.1999511719</ele>
        <time>2020-06-06T08:25:06.000Z</time>
      </trkpt>
      <trkpt lat="44.18656" lon="6.75409">
        <ele>1380.8000488281</ele>
        <time>2020-06-06T08:25:08.000Z</time>
      </trkpt>
      <trkpt lat="44.18667" lon="6.75411">
        <ele>1381.4000244141</ele>
        <time>2020-06-06T08:25:13.000Z</time>
      </trkpt>
      <trkpt lat="44.18671" lon="6.75411">
        <ele>1381.8000488281</ele>
        <time>2020-06-06T08:25:15.000Z</time>
      </trkpt>
      <trkpt lat="44.18683" lon="6.75412">
        <ele>1382.1999511719</ele>
        <time>2020-06-06T08:25:20.000Z</time>
      </trkpt>
      <trkpt lat="44.18699" lon="6.75412">
        <ele>1382.8000488281</ele>
        <time>2020-06-06T08:25:27.000Z</time>
      </trkpt>
      <trkpt lat="44.18715" lon="6.75416">
        <ele>1383.8000488281</ele>
        <time>2020-06-06T08:25:34.000Z</time>
      </trkpt>
      <trkpt lat="44.18727" lon="6.75416">
        <ele>1384.8000488281</ele>
        <time>2020-06-06T08:25:40.000Z</time>
      </trkpt>
      <trkpt lat="44.18729" lon="6.75415">
        <ele>1385</ele>
        <time>2020-06-06T08:25:41.000Z</time>
      </trkpt>
      <trkpt lat="44.18735" lon="6.75413">
        <ele>1386</ele>
        <time>2020-06-06T08:25:44.000Z</time>
      </trkpt>
      <trkpt lat="44.18746" lon="6.75409">
        <ele>1386.5999755859</ele>
        <time>2020-06-06T08:25:49.000Z</time>
      </trkpt>
      <trkpt lat="44.18751" lon="6.75407">
        <ele>1387</ele>
        <time>2020-06-06T08:25:51.000Z</time>
      </trkpt>
      <trkpt lat="44.18753" lon="6.75408">
        <ele>1387.1999511719</ele>
        <time>2020-06-06T08:25:52.000Z</time>
      </trkpt>
      <trkpt lat="44.18757" lon="6.75412">
        <ele>1387.8000488281</ele>
        <time>2020-06-06T08:25:55.000Z</time>
      </trkpt>
      <trkpt lat="44.18758" lon="6.75414">
        <ele>1388.1999511719</ele>
        <time>2020-06-06T08:25:56.000Z</time>
      </trkpt>
      <trkpt lat="44.1876" lon="6.75425">
        <ele>1388.8000488281</ele>
        <time>2020-06-06T08:26:00.000Z</time>
      </trkpt>
      <trkpt lat="44.18762" lon="6.75439">
        <ele>1389.1999511719</ele>
        <time>2020-06-06T08:26:05.000Z</time>
      </trkpt>
      <trkpt lat="44.18762" lon="6.75441">
        <ele>1389.5999755859</ele>
        <time>2020-06-06T08:26:06.000Z</time>
      </trkpt>
      <trkpt lat="44.18763" lon="6.75449">
        <ele>1390.1999511719</ele>
        <time>2020-06-06T08:26:09.000Z</time>
      </trkpt>
      <trkpt lat="44.18765" lon="6.75457">
        <ele>1390.8000488281</ele>
        <time>2020-06-06T08:26:12.000Z</time>
      </trkpt>
      <trkpt lat="44.18767" lon="6.75459">
        <ele>1390.8000488281</ele>
        <time>2020-06-06T08:26:13.000Z</time>
      </trkpt>
      <trkpt lat="44.18769" lon="6.75465">
        <ele>1391.4000244141</ele>
        <time>2020-06-06T08:26:16.000Z</time>
      </trkpt>
      <trkpt lat="44.1877" lon="6.75467">
        <ele>1391.5999755859</ele>
        <time>2020-06-06T08:26:17.000Z</time>
      </trkpt>
      <trkpt lat="44.18776" lon="6.75475">
        <ele>1392.1999511719</ele>
        <time>2020-06-06T08:26:21.000Z</time>
      </trkpt>
      <trkpt lat="44.18778" lon="6.75477">
        <ele>1392.4000244141</ele>
        <time>2020-06-06T08:26:22.000Z</time>
      </trkpt>
      <trkpt lat="44.1878" lon="6.75478">
        <ele>1392.5999755859</ele>
        <time>2020-06-06T08:26:23.000Z</time>
      </trkpt>
      <trkpt lat="44.18789" lon="6.75483">
        <ele>1393.4000244141</ele>
        <time>2020-06-06T08:26:28.000Z</time>
      </trkpt>
      <trkpt lat="44.18793" lon="6.75484">
        <ele>1393.8000488281</ele>
        <time>2020-06-06T08:26:30.000Z</time>
      </trkpt>
      <trkpt lat="44.18799" lon="6.75489">
        <ele>1394.5999755859</ele>
        <time>2020-06-06T08:26:34.000Z</time>
      </trkpt>
      <trkpt lat="44.18801" lon="6.75489">
        <ele>1394.5999755859</ele>
        <time>2020-06-06T08:26:35.000Z</time>
      </trkpt>
      <trkpt lat="44.18803" lon="6.7549">
        <ele>1394.8000488281</ele>
        <time>2020-06-06T08:26:36.000Z</time>
      </trkpt>
      <trkpt lat="44.18809" lon="6.75495">
        <ele>1395.8000488281</ele>
        <time>2020-06-06T08:26:40.000Z</time>
      </trkpt>
      <trkpt lat="44.18812" lon="6.75498">
        <ele>1396.4000244141</ele>
        <time>2020-06-06T08:26:42.000Z</time>
      </trkpt>
      <trkpt lat="44.18816" lon="6.75504">
        <ele>1396.8000488281</ele>
        <time>2020-06-06T08:26:45.000Z</time>
      </trkpt>
      <trkpt lat="44.18824" lon="6.75512">
        <ele>1397.8000488281</ele>
        <time>2020-06-06T08:26:50.000Z</time>
      </trkpt>
      <trkpt lat="44.18826" lon="6.75513">
        <ele>1397.8000488281</ele>
        <time>2020-06-06T08:26:51.000Z</time>
      </trkpt>
      <trkpt lat="44.18834" lon="6.75517">
        <ele>1398.8000488281</ele>
        <time>2020-06-06T08:26:56.000Z</time>
      </trkpt>
      <trkpt lat="44.18836" lon="6.75518">
        <ele>1399</ele>
        <time>2020-06-06T08:26:57.000Z</time>
      </trkpt>
      <trkpt lat="44.18844" lon="6.75523">
        <ele>1399.8000488281</ele>
        <time>2020-06-06T08:27:02.000Z</time>
      </trkpt>
      <trkpt lat="44.18846" lon="6.75525">
        <ele>1400</ele>
        <time>2020-06-06T08:27:03.000Z</time>
      </trkpt>
      <trkpt lat="44.18853" lon="6.75531">
        <ele>1401.4000244141</ele>
        <time>2020-06-06T08:27:07.000Z</time>
      </trkpt>
      <trkpt lat="44.18855" lon="6.75532">
        <ele>1401.5999755859</ele>
        <time>2020-06-06T08:27:08.000Z</time>
      </trkpt>
      <trkpt lat="44.18866" lon="6.75541">
        <ele>1402.4000244141</ele>
        <time>2020-06-06T08:27:14.000Z</time>
      </trkpt>
      <trkpt lat="44.18872" lon="6.75545">
        <ele>1403</ele>
        <time>2020-06-06T08:27:17.000Z</time>
      </trkpt>
      <trkpt lat="44.18877" lon="6.75548">
        <ele>1403.4000244141</ele>
        <time>2020-06-06T08:27:20.000Z</time>
      </trkpt>
      <trkpt lat="44.18887" lon="6.75553">
        <ele>1404.4000244141</ele>
        <time>2020-06-06T08:27:25.000Z</time>
      </trkpt>
      <trkpt lat="44.18889" lon="6.75553">
        <ele>1404.5999755859</ele>
        <time>2020-06-06T08:27:26.000Z</time>
      </trkpt>
      <trkpt lat="44.18904" lon="6.75557">
        <ele>1405.4000244141</ele>
        <time>2020-06-06T08:27:33.000Z</time>
      </trkpt>
      <trkpt lat="44.18908" lon="6.75559">
        <ele>1405.8000488281</ele>
        <time>2020-06-06T08:27:35.000Z</time>
      </trkpt>
      <trkpt lat="44.18919" lon="6.75561">
        <ele>1407</ele>
        <time>2020-06-06T08:27:40.000Z</time>
      </trkpt>
      <trkpt lat="44.18933" lon="6.7557">
        <ele>1407.5999755859</ele>
        <time>2020-06-06T08:27:47.000Z</time>
      </trkpt>
      <trkpt lat="44.18937" lon="6.7558">
        <ele>1408</ele>
        <time>2020-06-06T08:27:51.000Z</time>
      </trkpt>
      <trkpt lat="44.18937" lon="6.75583">
        <ele>1408</ele>
        <time>2020-06-06T08:27:52.000Z</time>
      </trkpt>
      <trkpt lat="44.18937" lon="6.75586">
        <ele>1408.1999511719</ele>
        <time>2020-06-06T08:27:53.000Z</time>
      </trkpt>
      <trkpt lat="44.18935" lon="6.75591">
        <ele>1408.5999755859</ele>
        <time>2020-06-06T08:27:56.000Z</time>
      </trkpt>
      <trkpt lat="44.18933" lon="6.75594">
        <ele>1409</ele>
        <time>2020-06-06T08:27:58.000Z</time>
      </trkpt>
      <trkpt lat="44.18932" lon="6.75595">
        <ele>1409</ele>
        <time>2020-06-06T08:27:59.000Z</time>
      </trkpt>
      <trkpt lat="44.18927" lon="6.75597">
        <ele>1410.1999511719</ele>
        <time>2020-06-06T08:28:03.000Z</time>
      </trkpt>
      <trkpt lat="44.18925" lon="6.75598">
        <ele>1410.4000244141</ele>
        <time>2020-06-06T08:28:04.000Z</time>
      </trkpt>
      <trkpt lat="44.18916" lon="6.75597">
        <ele>1411.1999511719</ele>
        <time>2020-06-06T08:28:10.000Z</time>
      </trkpt>
      <trkpt lat="44.18913" lon="6.75596">
        <ele>1411.4000244141</ele>
        <time>2020-06-06T08:28:12.000Z</time>
      </trkpt>
      <trkpt lat="44.18906" lon="6.75593">
        <ele>1412.4000244141</ele>
        <time>2020-06-06T08:28:17.000Z</time>
      </trkpt>
      <trkpt lat="44.18901" lon="6.75591">
        <ele>1412.8000488281</ele>
        <time>2020-06-06T08:28:20.000Z</time>
      </trkpt>
      <trkpt lat="44.18896" lon="6.75587">
        <ele>1413.4000244141</ele>
        <time>2020-06-06T08:28:23.000Z</time>
      </trkpt>
      <trkpt lat="44.18889" lon="6.75579">
        <ele>1414.5999755859</ele>
        <time>2020-06-06T08:28:28.000Z</time>
      </trkpt>
      <trkpt lat="44.18878" lon="6.75572">
        <ele>1415.1999511719</ele>
        <time>2020-06-06T08:28:34.000Z</time>
      </trkpt>
      <trkpt lat="44.18875" lon="6.75572">
        <ele>1415.5999755859</ele>
        <time>2020-06-06T08:28:36.000Z</time>
      </trkpt>
      <trkpt lat="44.18867" lon="6.75573">
        <ele>1416.5999755859</ele>
        <time>2020-06-06T08:28:41.000Z</time>
      </trkpt>
      <trkpt lat="44.18857" lon="6.75575">
        <ele>1417.5999755859</ele>
        <time>2020-06-06T08:28:47.000Z</time>
      </trkpt>
      <trkpt lat="44.18855" lon="6.75575">
        <ele>1417.8000488281</ele>
        <time>2020-06-06T08:28:48.000Z</time>
      </trkpt>
      <trkpt lat="44.18847" lon="6.75582">
        <ele>1419</ele>
        <time>2020-06-06T08:28:54.000Z</time>
      </trkpt>
      <trkpt lat="44.18839" lon="6.75586">
        <ele>1419.4000244141</ele>
        <time>2020-06-06T08:28:59.000Z</time>
      </trkpt>
      <trkpt lat="44.18833" lon="6.75588">
        <ele>1420.1999511719</ele>
        <time>2020-06-06T08:29:02.000Z</time>
      </trkpt>
      <trkpt lat="44.18823" lon="6.75591">
        <ele>1420.8000488281</ele>
        <time>2020-06-06T08:29:07.000Z</time>
      </trkpt>
      <trkpt lat="44.18818" lon="6.7559">
        <ele>1421.1999511719</ele>
        <time>2020-06-06T08:29:10.000Z</time>
      </trkpt>
      <trkpt lat="44.18809" lon="6.75589">
        <ele>1421.8000488281</ele>
        <time>2020-06-06T08:29:14.000Z</time>
      </trkpt>
      <trkpt lat="44.188" lon="6.75586">
        <ele>1422.4000244141</ele>
        <time>2020-06-06T08:29:19.000Z</time>
      </trkpt>
      <trkpt lat="44.18798" lon="6.75585">
        <ele>1422.4000244141</ele>
        <time>2020-06-06T08:29:20.000Z</time>
      </trkpt>
      <trkpt lat="44.18791" lon="6.7558">
        <ele>1423.4000244141</ele>
        <time>2020-06-06T08:29:24.000Z</time>
      </trkpt>
      <trkpt lat="44.18786" lon="6.75576">
        <ele>1423.5999755859</ele>
        <time>2020-06-06T08:29:27.000Z</time>
      </trkpt>
      <trkpt lat="44.18777" lon="6.7557">
        <ele>1424.4000244141</ele>
        <time>2020-06-06T08:29:32.000Z</time>
      </trkpt>
      <trkpt lat="44.18774" lon="6.75567">
        <ele>1424.8000488281</ele>
        <time>2020-06-06T08:29:34.000Z</time>
      </trkpt>
      <trkpt lat="44.18765" lon="6.75559">
        <ele>1425.4000244141</ele>
        <time>2020-06-06T08:29:40.000Z</time>
      </trkpt>
      <trkpt lat="44.18763" lon="6.75558">
        <ele>1425.5999755859</ele>
        <time>2020-06-06T08:29:41.000Z</time>
      </trkpt>
      <trkpt lat="44.18755" lon="6.75549">
        <ele>1426.5999755859</ele>
        <time>2020-06-06T08:29:47.000Z</time>
      </trkpt>
      <trkpt lat="44.18754" lon="6.75546">
        <ele>1426.8000488281</ele>
        <time>2020-06-06T08:29:48.000Z</time>
      </trkpt>
      <trkpt lat="44.18748" lon="6.75536">
        <ele>1427.5999755859</ele>
        <time>2020-06-06T08:29:53.000Z</time>
      </trkpt>
      <trkpt lat="44.18747" lon="6.75534">
        <ele>1427.8000488281</ele>
        <time>2020-06-06T08:29:54.000Z</time>
      </trkpt>
      <trkpt lat="44.18739" lon="6.75524">
        <ele>1429</ele>
        <time>2020-06-06T08:30:00.000Z</time>
      </trkpt>
      <trkpt lat="44.18736" lon="6.75522">
        <ele>1429.1999511719</ele>
        <time>2020-06-06T08:30:02.000Z</time>
      </trkpt>
      <trkpt lat="44.1873" lon="6.7552">
        <ele>1430</ele>
        <time>2020-06-06T08:30:06.000Z</time>
      </trkpt>
      <trkpt lat="44.18721" lon="6.75521">
        <ele>1430.5999755859</ele>
        <time>2020-06-06T08:30:11.000Z</time>
      </trkpt>
      <trkpt lat="44.18714" lon="6.75524">
        <ele>1431.1999511719</ele>
        <time>2020-06-06T08:30:15.000Z</time>
      </trkpt>
      <trkpt lat="44.18707" lon="6.75526">
        <ele>1431.8000488281</ele>
        <time>2020-06-06T08:30:19.000Z</time>
      </trkpt>
      <trkpt lat="44.18704" lon="6.75527">
        <ele>1432.4000244141</ele>
        <time>2020-06-06T08:30:21.000Z</time>
      </trkpt>
      <trkpt lat="44.18693" lon="6.75532">
        <ele>1432.8000488281</ele>
        <time>2020-06-06T08:30:27.000Z</time>
      </trkpt>
      <trkpt lat="44.18687" lon="6.75536">
        <ele>1433.4000244141</ele>
        <time>2020-06-06T08:30:31.000Z</time>
      </trkpt>
      <trkpt lat="44.18682" lon="6.75539">
        <ele>1433.8000488281</ele>
        <time>2020-06-06T08:30:34.000Z</time>
      </trkpt>
      <trkpt lat="44.18677" lon="6.75543">
        <ele>1434.4000244141</ele>
        <time>2020-06-06T08:30:37.000Z</time>
      </trkpt>
      <trkpt lat="44.18669" lon="6.7555">
        <ele>1435.1999511719</ele>
        <time>2020-06-06T08:30:42.000Z</time>
      </trkpt>
      <trkpt lat="44.18667" lon="6.75551">
        <ele>1435.4000244141</ele>
        <time>2020-06-06T08:30:43.000Z</time>
      </trkpt>
      <trkpt lat="44.18658" lon="6.75559">
        <ele>1436.4000244141</ele>
        <time>2020-06-06T08:30:49.000Z</time>
      </trkpt>
      <trkpt lat="44.18657" lon="6.75561">
        <ele>1436.5999755859</ele>
        <time>2020-06-06T08:30:50.000Z</time>
      </trkpt>
      <trkpt lat="44.18645" lon="6.75568">
        <ele>1437.8000488281</ele>
        <time>2020-06-06T08:30:57.000Z</time>
      </trkpt>
      <trkpt lat="44.18635" lon="6.75569">
        <ele>1438.8000488281</ele>
        <time>2020-06-06T08:31:03.000Z</time>
      </trkpt>
      <trkpt lat="44.18633" lon="6.75569">
        <ele>1439</ele>
        <time>2020-06-06T08:31:04.000Z</time>
      </trkpt>
      <trkpt lat="44.18622" lon="6.75571">
        <ele>1440</ele>
        <time>2020-06-06T08:31:11.000Z</time>
      </trkpt>
      <trkpt lat="44.18621" lon="6.75572">
        <ele>1440.1999511719</ele>
        <time>2020-06-06T08:31:12.000Z</time>
      </trkpt>
      <trkpt lat="44.18612" lon="6.75573">
        <ele>1441</ele>
        <time>2020-06-06T08:31:17.000Z</time>
      </trkpt>
      <trkpt lat="44.1861" lon="6.75574">
        <ele>1441.1999511719</ele>
        <time>2020-06-06T08:31:18.000Z</time>
      </trkpt>
      <trkpt lat="44.18599" lon="6.75576">
        <ele>1442.1999511719</ele>
        <time>2020-06-06T08:31:24.000Z</time>
      </trkpt>
      <trkpt lat="44.18598" lon="6.75576">
        <ele>1442.1999511719</ele>
        <time>2020-06-06T08:31:25.000Z</time>
      </trkpt>
      <trkpt lat="44.18592" lon="6.75583">
        <ele>1443.1999511719</ele>
        <time>2020-06-06T08:31:29.000Z</time>
      </trkpt>
      <trkpt lat="44.18592" lon="6.75585">
        <ele>1443.4000244141</ele>
        <time>2020-06-06T08:31:30.000Z</time>
      </trkpt>
      <trkpt lat="44.18596" lon="6.75595">
        <ele>1444</ele>
        <time>2020-06-06T08:31:34.000Z</time>
      </trkpt>
      <trkpt lat="44.18599" lon="6.75596">
        <ele>1444.1999511719</ele>
        <time>2020-06-06T08:31:36.000Z</time>
      </trkpt>
      <trkpt lat="44.18607" lon="6.75597">
        <ele>1444.8000488281</ele>
        <time>2020-06-06T08:31:40.000Z</time>
      </trkpt>
      <trkpt lat="44.18614" lon="6.75602">
        <ele>1445.4000244141</ele>
        <time>2020-06-06T08:31:44.000Z</time>
      </trkpt>
      <trkpt lat="44.18616" lon="6.75603">
        <ele>1445.5999755859</ele>
        <time>2020-06-06T08:31:45.000Z</time>
      </trkpt>
      <trkpt lat="44.18622" lon="6.75609">
        <ele>1446.4000244141</ele>
        <time>2020-06-06T08:31:49.000Z</time>
      </trkpt>
      <trkpt lat="44.18629" lon="6.75615">
        <ele>1446.8000488281</ele>
        <time>2020-06-06T08:31:53.000Z</time>
      </trkpt>
      <trkpt lat="44.1864" lon="6.7562">
        <ele>1447.5999755859</ele>
        <time>2020-06-06T08:31:59.000Z</time>
      </trkpt>
      <trkpt lat="44.18646" lon="6.75621">
        <ele>1448.1999511719</ele>
        <time>2020-06-06T08:32:02.000Z</time>
      </trkpt>
      <trkpt lat="44.18653" lon="6.75622">
        <ele>1448.8000488281</ele>
        <time>2020-06-06T08:32:06.000Z</time>
      </trkpt>
      <trkpt lat="44.18664" lon="6.75625">
        <ele>1449.5999755859</ele>
        <time>2020-06-06T08:32:12.000Z</time>
      </trkpt>
      <trkpt lat="44.18669" lon="6.75627">
        <ele>1449.8000488281</ele>
        <time>2020-06-06T08:32:15.000Z</time>
      </trkpt>
      <trkpt lat="44.18676" lon="6.75628">
        <ele>1450.8000488281</ele>
        <time>2020-06-06T08:32:19.000Z</time>
      </trkpt>
      <trkpt lat="44.18678" lon="6.75628">
        <ele>1451</ele>
        <time>2020-06-06T08:32:20.000Z</time>
      </trkpt>
      <trkpt lat="44.18688" lon="6.75628">
        <ele>1452</ele>
        <time>2020-06-06T08:32:26.000Z</time>
      </trkpt>
      <trkpt lat="44.18689" lon="6.75629">
        <ele>1452.1999511719</ele>
        <time>2020-06-06T08:32:27.000Z</time>
      </trkpt>
      <trkpt lat="44.18698" lon="6.75634">
        <ele>1453.1999511719</ele>
        <time>2020-06-06T08:32:32.000Z</time>
      </trkpt>
      <trkpt lat="44.187" lon="6.75634">
        <ele>1453.4000244141</ele>
        <time>2020-06-06T08:32:33.000Z</time>
      </trkpt>
      <trkpt lat="44.18709" lon="6.75632">
        <ele>1454.4000244141</ele>
        <time>2020-06-06T08:32:38.000Z</time>
      </trkpt>
      <trkpt lat="44.1871" lon="6.75631">
        <ele>1454.8000488281</ele>
        <time>2020-06-06T08:32:39.000Z</time>
      </trkpt>
      <trkpt lat="44.18716" lon="6.75629">
        <ele>1455.4000244141</ele>
        <time>2020-06-06T08:32:42.000Z</time>
      </trkpt>
      <trkpt lat="44.18719" lon="6.75629">
        <ele>1455.8000488281</ele>
        <time>2020-06-06T08:32:44.000Z</time>
      </trkpt>
      <trkpt lat="44.18724" lon="6.75629">
        <ele>1456.4000244141</ele>
        <time>2020-06-06T08:32:47.000Z</time>
      </trkpt>
      <trkpt lat="44.18731" lon="6.75631">
        <ele>1457.4000244141</ele>
        <time>2020-06-06T08:32:51.000Z</time>
      </trkpt>
      <trkpt lat="44.18735" lon="6.75632">
        <ele>1457.5999755859</ele>
        <time>2020-06-06T08:32:53.000Z</time>
      </trkpt>
      <trkpt lat="44.18741" lon="6.75636">
        <ele>1458.1999511719</ele>
        <time>2020-06-06T08:32:57.000Z</time>
      </trkpt>
      <trkpt lat="44.18742" lon="6.75638">
        <ele>1458.5999755859</ele>
        <time>2020-06-06T08:32:58.000Z</time>
      </trkpt>
      <trkpt lat="44.18745" lon="6.75644">
        <ele>1459.4000244141</ele>
        <time>2020-06-06T08:33:01.000Z</time>
      </trkpt>
      <trkpt lat="44.18745" lon="6.75648">
        <ele>1459.5999755859</ele>
        <time>2020-06-06T08:33:03.000Z</time>
      </trkpt>
      <trkpt lat="44.18744" lon="6.75654">
        <ele>1460</ele>
        <time>2020-06-06T08:33:06.000Z</time>
      </trkpt>
      <trkpt lat="44.18741" lon="6.75658">
        <ele>1460.4000244141</ele>
        <time>2020-06-06T08:33:08.000Z</time>
      </trkpt>
      <trkpt lat="44.18738" lon="6.7566">
        <ele>1460.8000488281</ele>
        <time>2020-06-06T08:33:10.000Z</time>
      </trkpt>
      <trkpt lat="44.1873" lon="6.75663">
        <ele>1461</ele>
        <time>2020-06-06T08:33:14.000Z</time>
      </trkpt>
      <trkpt lat="44.18722" lon="6.75668">
        <ele>1461.8000488281</ele>
        <time>2020-06-06T08:33:19.000Z</time>
      </trkpt>
      <trkpt lat="44.18716" lon="6.75674">
        <ele>1462.1999511719</ele>
        <time>2020-06-06T08:33:23.000Z</time>
      </trkpt>
      <trkpt lat="44.18707" lon="6.75687">
        <ele>1462.5999755859</ele>
        <time>2020-06-06T08:33:29.000Z</time>
      </trkpt>
      <trkpt lat="44.18705" lon="6.75689">
        <ele>1462.8000488281</ele>
        <time>2020-06-06T08:33:30.000Z</time>
      </trkpt>
      <trkpt lat="44.18697" lon="6.75698">
        <ele>1463.5999755859</ele>
        <time>2020-06-06T08:33:36.000Z</time>
      </trkpt>
      <trkpt lat="44.18693" lon="6.757">
        <ele>1463.8000488281</ele>
        <time>2020-06-06T08:33:38.000Z</time>
      </trkpt>
      <trkpt lat="44.18686" lon="6.75705">
        <ele>1464.1999511719</ele>
        <time>2020-06-06T08:33:42.000Z</time>
      </trkpt>
      <trkpt lat="44.18676" lon="6.75712">
        <ele>1465</ele>
        <time>2020-06-06T08:33:47.000Z</time>
      </trkpt>
      <trkpt lat="44.18671" lon="6.75716">
        <ele>1465.4000244141</ele>
        <time>2020-06-06T08:33:50.000Z</time>
      </trkpt>
      <trkpt lat="44.18661" lon="6.75725">
        <ele>1466.1999511719</ele>
        <time>2020-06-06T08:33:56.000Z</time>
      </trkpt>
      <trkpt lat="44.18651" lon="6.75732">
        <ele>1466.8000488281</ele>
        <time>2020-06-06T08:34:01.000Z</time>
      </trkpt>
      <trkpt lat="44.18645" lon="6.75735">
        <ele>1467.1999511719</ele>
        <time>2020-06-06T08:34:04.000Z</time>
      </trkpt>
      <trkpt lat="44.18641" lon="6.75737">
        <ele>1467.4000244141</ele>
        <time>2020-06-06T08:34:06.000Z</time>
      </trkpt>
      <trkpt lat="44.18628" lon="6.75744">
        <ele>1468.1999511719</ele>
        <time>2020-06-06T08:34:11.000Z</time>
      </trkpt>
      <trkpt lat="44.18624" lon="6.75747">
        <ele>1468.4000244141</ele>
        <time>2020-06-06T08:34:13.000Z</time>
      </trkpt>
      <trkpt lat="44.18611" lon="6.75754">
        <ele>1469</ele>
        <time>2020-06-06T08:34:19.000Z</time>
      </trkpt>
      <trkpt lat="44.18596" lon="6.75759">
        <ele>1469.4000244141</ele>
        <time>2020-06-06T08:34:25.000Z</time>
      </trkpt>
      <trkpt lat="44.18583" lon="6.75764">
        <ele>1470</ele>
        <time>2020-06-06T08:34:31.000Z</time>
      </trkpt>
      <trkpt lat="44.18582" lon="6.75772">
        <ele>1470.1999511719</ele>
        <time>2020-06-06T08:34:33.000Z</time>
      </trkpt>
      <trkpt lat="44.18583" lon="6.75775">
        <ele>1470.4000244141</ele>
        <time>2020-06-06T08:34:34.000Z</time>
      </trkpt>
      <trkpt lat="44.18584" lon="6.75777">
        <ele>1470.5999755859</ele>
        <time>2020-06-06T08:34:35.000Z</time>
      </trkpt>
      <trkpt lat="44.18591" lon="6.75779">
        <ele>1471.1999511719</ele>
        <time>2020-06-06T08:34:38.000Z</time>
      </trkpt>
      <trkpt lat="44.18594" lon="6.75779">
        <ele>1471.4000244141</ele>
        <time>2020-06-06T08:34:39.000Z</time>
      </trkpt>
      <trkpt lat="44.18596" lon="6.75779">
        <ele>1471.5999755859</ele>
        <time>2020-06-06T08:34:40.000Z</time>
      </trkpt>
      <trkpt lat="44.18606" lon="6.75777">
        <ele>1472.1999511719</ele>
        <time>2020-06-06T08:34:44.000Z</time>
      </trkpt>
      <trkpt lat="44.18612" lon="6.75776">
        <ele>1472.8000488281</ele>
        <time>2020-06-06T08:34:47.000Z</time>
      </trkpt>
      <trkpt lat="44.18619" lon="6.75773">
        <ele>1473.4000244141</ele>
        <time>2020-06-06T08:34:50.000Z</time>
      </trkpt>
      <trkpt lat="44.18623" lon="6.75772">
        <ele>1473.8000488281</ele>
        <time>2020-06-06T08:34:52.000Z</time>
      </trkpt>
      <trkpt lat="44.18637" lon="6.75766">
        <ele>1474.8000488281</ele>
        <time>2020-06-06T08:34:59.000Z</time>
      </trkpt>
      <trkpt lat="44.1864" lon="6.75765">
        <ele>1475.1999511719</ele>
        <time>2020-06-06T08:35:00.000Z</time>
      </trkpt>
      <trkpt lat="44.18653" lon="6.75762">
        <ele>1476</ele>
        <time>2020-06-06T08:35:06.000Z</time>
      </trkpt>
      <trkpt lat="44.18656" lon="6.75762">
        <ele>1476.1999511719</ele>
        <time>2020-06-06T08:35:07.000Z</time>
      </trkpt>
      <trkpt lat="44.1867" lon="6.75758">
        <ele>1477</ele>
        <time>2020-06-06T08:35:13.000Z</time>
      </trkpt>
      <trkpt lat="44.18673" lon="6.75757">
        <ele>1477</ele>
        <time>2020-06-06T08:35:14.000Z</time>
      </trkpt>
      <trkpt lat="44.18687" lon="6.75753">
        <ele>1478.1999511719</ele>
        <time>2020-06-06T08:35:20.000Z</time>
      </trkpt>
      <trkpt lat="44.18688" lon="6.75752">
        <ele>1478.4000244141</ele>
        <time>2020-06-06T08:35:21.000Z</time>
      </trkpt>
      <trkpt lat="44.18705" lon="6.75747">
        <ele>1479</ele>
        <time>2020-06-06T08:35:28.000Z</time>
      </trkpt>
      <trkpt lat="44.18712" lon="6.75744">
        <ele>1479.1999511719</ele>
        <time>2020-06-06T08:35:31.000Z</time>
      </trkpt>
      <trkpt lat="44.18724" lon="6.75737">
        <ele>1479.8000488281</ele>
        <time>2020-06-06T08:35:37.000Z</time>
      </trkpt>
      <trkpt lat="44.18731" lon="6.75733">
        <ele>1480.1999511719</ele>
        <time>2020-06-06T08:35:40.000Z</time>
      </trkpt>
      <trkpt lat="44.18743" lon="6.75727">
        <ele>1481.4000244141</ele>
        <time>2020-06-06T08:35:46.000Z</time>
      </trkpt>
      <trkpt lat="44.1875" lon="6.7573">
        <ele>1482</ele>
        <time>2020-06-06T08:35:50.000Z</time>
      </trkpt>
      <trkpt lat="44.18751" lon="6.75732">
        <ele>1482.1999511719</ele>
        <time>2020-06-06T08:35:51.000Z</time>
      </trkpt>
      <trkpt lat="44.18751" lon="6.75736">
        <ele>1482.4000244141</ele>
        <time>2020-06-06T08:35:53.000Z</time>
      </trkpt>
      <trkpt lat="44.18748" lon="6.7574">
        <ele>1483</ele>
        <time>2020-06-06T08:35:55.000Z</time>
      </trkpt>
      <trkpt lat="44.18744" lon="6.75743">
        <ele>1483.4000244141</ele>
        <time>2020-06-06T08:35:57.000Z</time>
      </trkpt>
      <trkpt lat="44.1874" lon="6.75745">
        <ele>1484</ele>
        <time>2020-06-06T08:35:59.000Z</time>
      </trkpt>
      <trkpt lat="44.18734" lon="6.75748">
        <ele>1484.4000244141</ele>
        <time>2020-06-06T08:36:02.000Z</time>
      </trkpt>
      <trkpt lat="44.18733" lon="6.75749">
        <ele>1484.5999755859</ele>
        <time>2020-06-06T08:36:03.000Z</time>
      </trkpt>
      <trkpt lat="44.1872" lon="6.75756">
        <ele>1485.8000488281</ele>
        <time>2020-06-06T08:36:10.000Z</time>
      </trkpt>
      <trkpt lat="44.18709" lon="6.75763">
        <ele>1487</ele>
        <time>2020-06-06T08:36:16.000Z</time>
      </trkpt>
      <trkpt lat="44.18708" lon="6.75764">
        <ele>1487</ele>
        <time>2020-06-06T08:36:17.000Z</time>
      </trkpt>
      <trkpt lat="44.187" lon="6.75768">
        <ele>1488.1999511719</ele>
        <time>2020-06-06T08:36:22.000Z</time>
      </trkpt>
      <trkpt lat="44.18697" lon="6.7577">
        <ele>1488.4000244141</ele>
        <time>2020-06-06T08:36:24.000Z</time>
      </trkpt>
      <trkpt lat="44.18689" lon="6.75774">
        <ele>1489.1999511719</ele>
        <time>2020-06-06T08:36:29.000Z</time>
      </trkpt>
      <trkpt lat="44.18687" lon="6.75775">
        <ele>1489.4000244141</ele>
        <time>2020-06-06T08:36:30.000Z</time>
      </trkpt>
      <trkpt lat="44.18673" lon="6.75784">
        <ele>1490.1999511719</ele>
        <time>2020-06-06T08:36:38.000Z</time>
      </trkpt>
      <trkpt lat="44.18665" lon="6.75791">
        <ele>1491.1999511719</ele>
        <time>2020-06-06T08:36:43.000Z</time>
      </trkpt>
      <trkpt lat="44.18663" lon="6.75793">
        <ele>1491.4000244141</ele>
        <time>2020-06-06T08:36:44.000Z</time>
      </trkpt>
      <trkpt lat="44.18653" lon="6.75801">
        <ele>1492.1999511719</ele>
        <time>2020-06-06T08:36:48.000Z</time>
      </trkpt>
      <trkpt lat="44.18651" lon="6.75803">
        <ele>1492.4000244141</ele>
        <time>2020-06-06T08:36:49.000Z</time>
      </trkpt>
      <trkpt lat="44.18639" lon="6.75814">
        <ele>1493.4000244141</ele>
        <time>2020-06-06T08:36:55.000Z</time>
      </trkpt>
      <trkpt lat="44.18635" lon="6.75818">
        <ele>1493.5999755859</ele>
        <time>2020-06-06T08:36:57.000Z</time>
      </trkpt>
      <trkpt lat="44.18624" lon="6.75827">
        <ele>1494.4000244141</ele>
        <time>2020-06-06T08:37:03.000Z</time>
      </trkpt>
      <trkpt lat="44.18623" lon="6.75829">
        <ele>1494.4000244141</ele>
        <time>2020-06-06T08:37:04.000Z</time>
      </trkpt>
      <trkpt lat="44.18614" lon="6.75836">
        <ele>1495.4000244141</ele>
        <time>2020-06-06T08:37:09.000Z</time>
      </trkpt>
      <trkpt lat="44.18612" lon="6.75838">
        <ele>1495.5999755859</ele>
        <time>2020-06-06T08:37:10.000Z</time>
      </trkpt>
      <trkpt lat="44.18602" lon="6.75845">
        <ele>1496.4000244141</ele>
        <time>2020-06-06T08:37:15.000Z</time>
      </trkpt>
      <trkpt lat="44.18599" lon="6.75847">
        <ele>1496.5999755859</ele>
        <time>2020-06-06T08:37:17.000Z</time>
      </trkpt>
      <trkpt lat="44.18593" lon="6.7585">
        <ele>1497.5999755859</ele>
        <time>2020-06-06T08:37:21.000Z</time>
      </trkpt>
      <trkpt lat="44.18588" lon="6.75853">
        <ele>1498.4000244141</ele>
        <time>2020-06-06T08:37:24.000Z</time>
      </trkpt>
      <trkpt lat="44.18586" lon="6.75853">
        <ele>1498.5999755859</ele>
        <time>2020-06-06T08:37:25.000Z</time>
      </trkpt>
      <trkpt lat="44.18574" lon="6.75857">
        <ele>1499.8000488281</ele>
        <time>2020-06-06T08:37:31.000Z</time>
      </trkpt>
      <trkpt lat="44.18572" lon="6.75857">
        <ele>1499.8000488281</ele>
        <time>2020-06-06T08:37:32.000Z</time>
      </trkpt>
      <trkpt lat="44.18562" lon="6.75858">
        <ele>1500.5999755859</ele>
        <time>2020-06-06T08:37:37.000Z</time>
      </trkpt>
      <trkpt lat="44.18561" lon="6.7586">
        <ele>1500.8000488281</ele>
        <time>2020-06-06T08:37:38.000Z</time>
      </trkpt>
      <trkpt lat="44.18563" lon="6.75872">
        <ele>1501.8000488281</ele>
        <time>2020-06-06T08:37:43.000Z</time>
      </trkpt>
      <trkpt lat="44.18566" lon="6.75873">
        <ele>1502.1999511719</ele>
        <time>2020-06-06T08:37:45.000Z</time>
      </trkpt>
      <trkpt lat="44.18573" lon="6.75874">
        <ele>1502.8000488281</ele>
        <time>2020-06-06T08:37:49.000Z</time>
      </trkpt>
      <trkpt lat="44.18574" lon="6.75874">
        <ele>1502.8000488281</ele>
        <time>2020-06-06T08:37:50.000Z</time>
      </trkpt>
      <trkpt lat="44.18585" lon="6.75874">
        <ele>1503.5999755859</ele>
        <time>2020-06-06T08:37:56.000Z</time>
      </trkpt>
      <trkpt lat="44.18587" lon="6.75874">
        <ele>1503.8000488281</ele>
        <time>2020-06-06T08:37:57.000Z</time>
      </trkpt>
      <trkpt lat="44.186" lon="6.75875">
        <ele>1504.5999755859</ele>
        <time>2020-06-06T08:38:04.000Z</time>
      </trkpt>
      <trkpt lat="44.18604" lon="6.75876">
        <ele>1505</ele>
        <time>2020-06-06T08:38:06.000Z</time>
      </trkpt>
      <trkpt lat="44.18616" lon="6.75876">
        <ele>1506</ele>
        <time>2020-06-06T08:38:11.000Z</time>
      </trkpt>
      <trkpt lat="44.18618" lon="6.75876">
        <ele>1506.4000244141</ele>
        <time>2020-06-06T08:38:12.000Z</time>
      </trkpt>
      <trkpt lat="44.18627" lon="6.75875">
        <ele>1507.4000244141</ele>
        <time>2020-06-06T08:38:17.000Z</time>
      </trkpt>
      <trkpt lat="44.18629" lon="6.75874">
        <ele>1507.5999755859</ele>
        <time>2020-06-06T08:38:18.000Z</time>
      </trkpt>
      <trkpt lat="44.18639" lon="6.7587">
        <ele>1508.5999755859</ele>
        <time>2020-06-06T08:38:24.000Z</time>
      </trkpt>
      <trkpt lat="44.18643" lon="6.7587">
        <ele>1509</ele>
        <time>2020-06-06T08:38:26.000Z</time>
      </trkpt>
      <trkpt lat="44.18645" lon="6.75876">
        <ele>1509.5999755859</ele>
        <time>2020-06-06T08:38:29.000Z</time>
      </trkpt>
      <trkpt lat="44.18645" lon="6.75878">
        <ele>1509.8000488281</ele>
        <time>2020-06-06T08:38:30.000Z</time>
      </trkpt>
      <trkpt lat="44.1864" lon="6.75885">
        <ele>1510.8000488281</ele>
        <time>2020-06-06T08:38:34.000Z</time>
      </trkpt>
      <trkpt lat="44.18638" lon="6.75886">
        <ele>1511</ele>
        <time>2020-06-06T08:38:35.000Z</time>
      </trkpt>
      <trkpt lat="44.18626" lon="6.75897">
        <ele>1512</ele>
        <time>2020-06-06T08:38:41.000Z</time>
      </trkpt>
      <trkpt lat="44.18621" lon="6.75901">
        <ele>1512.4000244141</ele>
        <time>2020-06-06T08:38:43.000Z</time>
      </trkpt>
      <trkpt lat="44.1861" lon="6.75916">
        <ele>1513</ele>
        <time>2020-06-06T08:38:49.000Z</time>
      </trkpt>
      <trkpt lat="44.18608" lon="6.75919">
        <ele>1513</ele>
        <time>2020-06-06T08:38:50.000Z</time>
      </trkpt>
      <trkpt lat="44.18594" lon="6.75936">
        <ele>1513</ele>
        <time>2020-06-06T08:38:57.000Z</time>
      </trkpt>
      <trkpt lat="44.18581" lon="6.75948">
        <ele>1513.8000488281</ele>
        <time>2020-06-06T08:39:04.000Z</time>
      </trkpt>
      <trkpt lat="44.18577" lon="6.75951">
        <ele>1514.1999511719</ele>
        <time>2020-06-06T08:39:07.000Z</time>
      </trkpt>
      <trkpt lat="44.18575" lon="6.75955">
        <ele>1514.5999755859</ele>
        <time>2020-06-06T08:39:09.000Z</time>
      </trkpt>
      <trkpt lat="44.1857" lon="6.75959">
        <ele>1515.1999511719</ele>
        <time>2020-06-06T08:39:12.000Z</time>
      </trkpt>
      <trkpt lat="44.18564" lon="6.75965">
        <ele>1516.1999511719</ele>
        <time>2020-06-06T08:39:16.000Z</time>
      </trkpt>
      <trkpt lat="44.18563" lon="6.75966">
        <ele>1516.4000244141</ele>
        <time>2020-06-06T08:39:17.000Z</time>
      </trkpt>
      <trkpt lat="44.18554" lon="6.75973">
        <ele>1517.5999755859</ele>
        <time>2020-06-06T08:39:23.000Z</time>
      </trkpt>
      <trkpt lat="44.18544" lon="6.75988">
        <ele>1518.5999755859</ele>
        <time>2020-06-06T08:39:29.000Z</time>
      </trkpt>
      <trkpt lat="44.18536" lon="6.76">
        <ele>1519.8000488281</ele>
        <time>2020-06-06T08:39:34.000Z</time>
      </trkpt>
      <trkpt lat="44.18535" lon="6.76002">
        <ele>1520</ele>
        <time>2020-06-06T08:39:35.000Z</time>
      </trkpt>
      <trkpt lat="44.18532" lon="6.76018">
        <ele>1520.1999511719</ele>
        <time>2020-06-06T08:39:39.000Z</time>
      </trkpt>
      <trkpt lat="44.18539" lon="6.76035">
        <ele>1520.4000244141</ele>
        <time>2020-06-06T08:39:44.000Z</time>
      </trkpt>
      <trkpt lat="44.18546" lon="6.76044">
        <ele>1520.8000488281</ele>
        <time>2020-06-06T08:39:48.000Z</time>
      </trkpt>
      <trkpt lat="44.18551" lon="6.76051">
        <ele>1521.1999511719</ele>
        <time>2020-06-06T08:39:51.000Z</time>
      </trkpt>
      <trkpt lat="44.18559" lon="6.76057">
        <ele>1522</ele>
        <time>2020-06-06T08:39:55.000Z</time>
      </trkpt>
      <trkpt lat="44.18567" lon="6.76064">
        <ele>1522.5999755859</ele>
        <time>2020-06-06T08:39:59.000Z</time>
      </trkpt>
      <trkpt lat="44.18571" lon="6.76067">
        <ele>1523</ele>
        <time>2020-06-06T08:40:01.000Z</time>
      </trkpt>
      <trkpt lat="44.18577" lon="6.7607">
        <ele>1523.5999755859</ele>
        <time>2020-06-06T08:40:04.000Z</time>
      </trkpt>
      <trkpt lat="44.18579" lon="6.76072">
        <ele>1523.8000488281</ele>
        <time>2020-06-06T08:40:05.000Z</time>
      </trkpt>
      <trkpt lat="44.18582" lon="6.76072">
        <ele>1524</ele>
        <time>2020-06-06T08:40:06.000Z</time>
      </trkpt>
      <trkpt lat="44.18587" lon="6.76074">
        <ele>1524.1999511719</ele>
        <time>2020-06-06T08:40:08.000Z</time>
      </trkpt>
      <trkpt lat="44.18589" lon="6.76076">
        <ele>1524.5999755859</ele>
        <time>2020-06-06T08:40:09.000Z</time>
      </trkpt>
      <trkpt lat="44.18596" lon="6.76079">
        <ele>1525.1999511719</ele>
        <time>2020-06-06T08:40:12.000Z</time>
      </trkpt>
      <trkpt lat="44.18602" lon="6.76083">
        <ele>1525.8000488281</ele>
        <time>2020-06-06T08:40:15.000Z</time>
      </trkpt>
      <trkpt lat="44.18612" lon="6.76088">
        <ele>1526.1999511719</ele>
        <time>2020-06-06T08:40:19.000Z</time>
      </trkpt>
      <trkpt lat="44.18614" lon="6.7609">
        <ele>1526.4000244141</ele>
        <time>2020-06-06T08:40:20.000Z</time>
      </trkpt>
      <trkpt lat="44.18627" lon="6.76102">
        <ele>1526.5999755859</ele>
        <time>2020-06-06T08:40:25.000Z</time>
      </trkpt>
      <trkpt lat="44.18648" lon="6.76122">
        <ele>1526.5999755859</ele>
        <time>2020-06-06T08:40:33.000Z</time>
      </trkpt>
      <trkpt lat="44.18653" lon="6.76142">
        <ele>1527</ele>
        <time>2020-06-06T08:40:38.000Z</time>
      </trkpt>
      <trkpt lat="44.18654" lon="6.76146">
        <ele>1527.4000244141</ele>
        <time>2020-06-06T08:40:39.000Z</time>
      </trkpt>
      <trkpt lat="44.18663" lon="6.76165">
        <ele>1528</ele>
        <time>2020-06-06T08:40:45.000Z</time>
      </trkpt>
      <trkpt lat="44.18667" lon="6.7617">
        <ele>1528.5999755859</ele>
        <time>2020-06-06T08:40:47.000Z</time>
      </trkpt>
      <trkpt lat="44.18673" lon="6.76181">
        <ele>1529.4000244141</ele>
        <time>2020-06-06T08:40:51.000Z</time>
      </trkpt>
      <trkpt lat="44.18674" lon="6.76185">
        <ele>1529.5999755859</ele>
        <time>2020-06-06T08:40:52.000Z</time>
      </trkpt>
      <trkpt lat="44.18677" lon="6.76197">
        <ele>1530.1999511719</ele>
        <time>2020-06-06T08:40:56.000Z</time>
      </trkpt>
      <trkpt lat="44.18677" lon="6.76206">
        <ele>1530.5999755859</ele>
        <time>2020-06-06T08:40:59.000Z</time>
      </trkpt>
      <trkpt lat="44.18677" lon="6.76214">
        <ele>1531.4000244141</ele>
        <time>2020-06-06T08:41:02.000Z</time>
      </trkpt>
      <trkpt lat="44.18677" lon="6.76217">
        <ele>1531.8000488281</ele>
        <time>2020-06-06T08:41:03.000Z</time>
      </trkpt>
      <trkpt lat="44.18676" lon="6.76229">
        <ele>1532.8000488281</ele>
        <time>2020-06-06T08:41:08.000Z</time>
      </trkpt>
      <trkpt lat="44.18676" lon="6.76231">
        <ele>1532.8000488281</ele>
        <time>2020-06-06T08:41:09.000Z</time>
      </trkpt>
      <trkpt lat="44.18674" lon="6.76243">
        <ele>1534</ele>
        <time>2020-06-06T08:41:14.000Z</time>
      </trkpt>
      <trkpt lat="44.1867" lon="6.76252">
        <ele>1535</ele>
        <time>2020-06-06T08:41:18.000Z</time>
      </trkpt>
      <trkpt lat="44.1867" lon="6.76253">
        <ele>1535.1999511719</ele>
        <time>2020-06-06T08:41:19.000Z</time>
      </trkpt>
      <trkpt lat="44.18669" lon="6.76262">
        <ele>1536.1999511719</ele>
        <time>2020-06-06T08:41:23.000Z</time>
      </trkpt>
      <trkpt lat="44.18662" lon="6.76282">
        <ele>1537.1999511719</ele>
        <time>2020-06-06T08:41:29.000Z</time>
      </trkpt>
      <trkpt lat="44.18658" lon="6.76297">
        <ele>1538.4000244141</ele>
        <time>2020-06-06T08:41:34.000Z</time>
      </trkpt>
      <trkpt lat="44.18656" lon="6.76303">
        <ele>1538.5999755859</ele>
        <time>2020-06-06T08:41:36.000Z</time>
      </trkpt>
      <trkpt lat="44.18652" lon="6.76316">
        <ele>1539.5999755859</ele>
        <time>2020-06-06T08:41:41.000Z</time>
      </trkpt>
      <trkpt lat="44.1865" lon="6.76322">
        <ele>1539.8000488281</ele>
        <time>2020-06-06T08:41:43.000Z</time>
      </trkpt>
      <trkpt lat="44.18648" lon="6.76332">
        <ele>1540.5999755859</ele>
        <time>2020-06-06T08:41:47.000Z</time>
      </trkpt>
      <trkpt lat="44.18649" lon="6.76337">
        <ele>1541</ele>
        <time>2020-06-06T08:41:49.000Z</time>
      </trkpt>
      <trkpt lat="44.18648" lon="6.76343">
        <ele>1541.5999755859</ele>
        <time>2020-06-06T08:41:52.000Z</time>
      </trkpt>
      <trkpt lat="44.18649" lon="6.76356">
        <ele>1542</ele>
        <time>2020-06-06T08:41:56.000Z</time>
      </trkpt>
      <trkpt lat="44.18651" lon="6.76365">
        <ele>1542.5999755859</ele>
        <time>2020-06-06T08:41:59.000Z</time>
      </trkpt>
      <trkpt lat="44.18653" lon="6.7637">
        <ele>1543</ele>
        <time>2020-06-06T08:42:01.000Z</time>
      </trkpt>
      <trkpt lat="44.18657" lon="6.76376">
        <ele>1543.8000488281</ele>
        <time>2020-06-06T08:42:04.000Z</time>
      </trkpt>
      <trkpt lat="44.18661" lon="6.76383">
        <ele>1544.8000488281</ele>
        <time>2020-06-06T08:42:08.000Z</time>
      </trkpt>
      <trkpt lat="44.18663" lon="6.76387">
        <ele>1545.1999511719</ele>
        <time>2020-06-06T08:42:10.000Z</time>
      </trkpt>
      <trkpt lat="44.18668" lon="6.76395">
        <ele>1546</ele>
        <time>2020-06-06T08:42:15.000Z</time>
      </trkpt>
      <trkpt lat="44.18668" lon="6.76396">
        <ele>1546.5999755859</ele>
        <time>2020-06-06T08:42:17.000Z</time>
      </trkpt>
      <trkpt lat="44.18669" lon="6.76397">
        <ele>1546.8000488281</ele>
        <time>2020-06-06T08:42:22.000Z</time>
      </trkpt>
      <trkpt lat="44.18668" lon="6.76398">
        <ele>1547</ele>
        <time>2020-06-06T08:42:26.000Z</time>
      </trkpt>
      <trkpt lat="44.18668" lon="6.76398">
        <ele>1547</ele>
        <time>2020-06-06T08:42:27.000Z</time>
      </trkpt>
      <trkpt lat="44.1867" lon="6.76399">
        <ele>1546.5999755859</ele>
        <time>2020-06-06T08:42:33.000Z</time>
      </trkpt>
      <trkpt lat="44.1867" lon="6.76399">
        <ele>1546</ele>
        <time>2020-06-06T08:42:40.000Z</time>
      </trkpt>
      <trkpt lat="44.1867" lon="6.76402">
        <ele>1547</ele>
        <time>2020-06-06T08:42:46.000Z</time>
      </trkpt>
      <trkpt lat="44.18672" lon="6.76405">
        <ele>1550.8000488281</ele>
        <time>2020-06-06T08:42:52.000Z</time>
      </trkpt>
      <trkpt lat="44.18672" lon="6.76404">
        <ele>1556.4000244141</ele>
        <time>2020-06-06T08:42:53.000Z</time>
      </trkpt>
      <trkpt lat="44.18673" lon="6.76406">
        <ele>1559.1999511719</ele>
        <time>2020-06-06T08:42:54.000Z</time>
      </trkpt>
      <trkpt lat="44.18672" lon="6.76405">
        <ele>1562.4000244141</ele>
        <time>2020-06-06T08:42:55.000Z</time>
      </trkpt>
      <trkpt lat="44.18672" lon="6.76405">
        <ele>1568.4000244141</ele>
        <time>2020-06-06T08:42:56.000Z</time>
      </trkpt>
      <trkpt lat="44.18672" lon="6.76405">
        <ele>1569.8000488281</ele>
        <time>2020-06-06T08:42:57.000Z</time>
      </trkpt>
      <trkpt lat="44.18672" lon="6.76405">
        <ele>1565.5999755859</ele>
        <time>2020-06-06T08:42:58.000Z</time>
      </trkpt>
      <trkpt lat="44.18672" lon="6.76405">
        <ele>1561</ele>
        <time>2020-06-06T08:43:00.000Z</time>
      </trkpt>
      <trkpt lat="44.18672" lon="6.76405">
        <ele>1555.4000244141</ele>
        <time>2020-06-06T08:43:01.000Z</time>
      </trkpt>
      <trkpt lat="44.18672" lon="6.76405">
        <ele>1552.5999755859</ele>
        <time>2020-06-06T08:43:02.000Z</time>
      </trkpt>
      <trkpt lat="44.18672" lon="6.76405">
        <ele>1549.1999511719</ele>
        <time>2020-06-06T08:43:03.000Z</time>
      </trkpt>
      <trkpt lat="44.18672" lon="6.76404">
        <ele>1543.5999755859</ele>
        <time>2020-06-06T08:43:04.000Z</time>
      </trkpt>
      <trkpt lat="44.18672" lon="6.76404">
        <ele>1541.1999511719</ele>
        <time>2020-06-06T08:43:05.000Z</time>
      </trkpt>
      <trkpt lat="44.18672" lon="6.76404">
        <ele>1536.5999755859</ele>
        <time>2020-06-06T08:43:06.000Z</time>
      </trkpt>
      <trkpt lat="44.18672" lon="6.76404">
        <ele>1530.4000244141</ele>
        <time>2020-06-06T08:43:07.000Z</time>
      </trkpt>
      <trkpt lat="44.18672" lon="6.76404">
        <ele>1528</ele>
        <time>2020-06-06T08:43:08.000Z</time>
      </trkpt>
      <trkpt lat="44.18672" lon="6.76404">
        <ele>1526.4000244141</ele>
        <time>2020-06-06T08:43:09.000Z</time>
      </trkpt>
      <trkpt lat="44.18672" lon="6.76404">
        <ele>1524.8000488281</ele>
        <time>2020-06-06T08:43:11.000Z</time>
      </trkpt>
      <trkpt lat="44.18673" lon="6.76404">
        <ele>1523.8000488281</ele>
        <time>2020-06-06T08:43:12.000Z</time>
      </trkpt>
      <trkpt lat="44.18673" lon="6.76404">
        <ele>1522</ele>
        <time>2020-06-06T08:43:14.000Z</time>
      </trkpt>
      <trkpt lat="44.18673" lon="6.76404">
        <ele>1520.4000244141</ele>
        <time>2020-06-06T08:43:16.000Z</time>
      </trkpt>
      <trkpt lat="44.18673" lon="6.76404">
        <ele>1519</ele>
        <time>2020-06-06T08:43:18.000Z</time>
      </trkpt>
      <trkpt lat="44.18673" lon="6.76404">
        <ele>1520.1999511719</ele>
        <time>2020-06-06T08:43:19.000Z</time>
      </trkpt>
      <trkpt lat="44.18673" lon="6.76404">
        <ele>1522.8000488281</ele>
        <time>2020-06-06T08:43:20.000Z</time>
      </trkpt>
      <trkpt lat="44.18673" lon="6.76404">
        <ele>1528.8000488281</ele>
        <time>2020-06-06T08:43:21.000Z</time>
      </trkpt>
      <trkpt lat="44.18673" lon="6.76404">
        <ele>1534.8000488281</ele>
        <time>2020-06-06T08:43:22.000Z</time>
      </trkpt>
      <trkpt lat="44.18673" lon="6.76404">
        <ele>1541.1999511719</ele>
        <time>2020-06-06T08:43:23.000Z</time>
      </trkpt>
      <trkpt lat="44.18673" lon="6.76404">
        <ele>1545.4000244141</ele>
        <time>2020-06-06T08:43:24.000Z</time>
      </trkpt>
      <trkpt lat="44.18673" lon="6.76404">
        <ele>1548.4000244141</ele>
        <time>2020-06-06T08:43:25.000Z</time>
      </trkpt>
      <trkpt lat="44.18672" lon="6.76404">
        <ele>1547.8000488281</ele>
        <time>2020-06-06T08:43:31.000Z</time>
      </trkpt>
      <trkpt lat="44.18671" lon="6.76405">
        <ele>1547.8000488281</ele>
        <time>2020-06-06T08:43:42.000Z</time>
      </trkpt>
      <trkpt lat="44.18671" lon="6.76403">
        <ele>1547.4000244141</ele>
        <time>2020-06-06T08:43:45.000Z</time>
      </trkpt>
      <trkpt lat="44.18671" lon="6.76403">
        <ele>1547.5999755859</ele>
        <time>2020-06-06T08:43:48.000Z</time>
      </trkpt>
      <trkpt lat="44.18669" lon="6.76402">
        <ele>1547.8000488281</ele>
        <time>2020-06-06T08:43:57.000Z</time>
      </trkpt>
      <trkpt lat="44.18669" lon="6.76402">
        <ele>1547.5999755859</ele>
        <time>2020-06-06T08:44:05.000Z</time>
      </trkpt>
      <trkpt lat="44.18669" lon="6.76402">
        <ele>1547.1999511719</ele>
        <time>2020-06-06T08:44:20.000Z</time>
      </trkpt>
      <trkpt lat="44.18669" lon="6.76402">
        <ele>1547.4000244141</ele>
        <time>2020-06-06T08:44:34.000Z</time>
      </trkpt>
      <trkpt lat="44.18669" lon="6.76402">
        <ele>1547.4000244141</ele>
        <time>2020-06-06T08:44:44.000Z</time>
      </trkpt>
      <trkpt lat="44.18669" lon="6.76403">
        <ele>1547.5999755859</ele>
        <time>2020-06-06T08:44:53.000Z</time>
      </trkpt>
      <trkpt lat="44.18669" lon="6.76403">
        <ele>1547.5999755859</ele>
        <time>2020-06-06T08:45:02.000Z</time>
      </trkpt>
      <trkpt lat="44.18669" lon="6.76403">
        <ele>1547.5999755859</ele>
        <time>2020-06-06T08:45:08.000Z</time>
      </trkpt>
      <trkpt lat="44.1867" lon="6.76405">
        <ele>1547.1999511719</ele>
        <time>2020-06-06T08:45:13.000Z</time>
      </trkpt>
      <trkpt lat="44.1867" lon="6.76405">
        <ele>1547.4000244141</ele>
        <time>2020-06-06T08:45:18.000Z</time>
      </trkpt>
      <trkpt lat="44.1867" lon="6.76405">
        <ele>1547.5999755859</ele>
        <time>2020-06-06T08:45:27.000Z</time>
      </trkpt>
      <trkpt lat="44.1867" lon="6.76404">
        <ele>1548</ele>
        <time>2020-06-06T08:45:34.000Z</time>
      </trkpt>
      <trkpt lat="44.1867" lon="6.76404">
        <ele>1548</ele>
        <time>2020-06-06T08:45:41.000Z</time>
      </trkpt>
      <trkpt lat="44.18669" lon="6.76404">
        <ele>1547.4000244141</ele>
        <time>2020-06-06T08:45:50.000Z</time>
      </trkpt>
      <trkpt lat="44.18668" lon="6.76401">
        <ele>1547.8000488281</ele>
        <time>2020-06-06T08:45:58.000Z</time>
      </trkpt>
      <trkpt lat="44.18667" lon="6.76399">
        <ele>1547</ele>
        <time>2020-06-06T08:46:03.000Z</time>
      </trkpt>
      <trkpt lat="44.18668" lon="6.764">
        <ele>1547.4000244141</ele>
        <time>2020-06-06T08:46:07.000Z</time>
      </trkpt>
      <trkpt lat="44.18674" lon="6.76412">
        <ele>1547.5999755859</ele>
        <time>2020-06-06T08:46:13.000Z</time>
      </trkpt>
      <trkpt lat="44.18679" lon="6.76425">
        <ele>1548.5999755859</ele>
        <time>2020-06-06T08:46:18.000Z</time>
      </trkpt>
      <trkpt lat="44.18681" lon="6.76432">
        <ele>1549.1999511719</ele>
        <time>2020-06-06T08:46:21.000Z</time>
      </trkpt>
      <trkpt lat="44.18682" lon="6.76438">
        <ele>1549.5999755859</ele>
        <time>2020-06-06T08:46:23.000Z</time>
      </trkpt>
      <trkpt lat="44.18685" lon="6.76452">
        <ele>1550.1999511719</ele>
        <time>2020-06-06T08:46:28.000Z</time>
      </trkpt>
      <trkpt lat="44.18686" lon="6.76458">
        <ele>1550.5999755859</ele>
        <time>2020-06-06T08:46:30.000Z</time>
      </trkpt>
      <trkpt lat="44.18687" lon="6.76469">
        <ele>1551</ele>
        <time>2020-06-06T08:46:34.000Z</time>
      </trkpt>
      <trkpt lat="44.18686" lon="6.76481">
        <ele>1551.8000488281</ele>
        <time>2020-06-06T08:46:38.000Z</time>
      </trkpt>
      <trkpt lat="44.18685" lon="6.76483">
        <ele>1551.8000488281</ele>
        <time>2020-06-06T08:46:39.000Z</time>
      </trkpt>
      <trkpt lat="44.18685" lon="6.76493">
        <ele>1552.8000488281</ele>
        <time>2020-06-06T08:46:43.000Z</time>
      </trkpt>
      <trkpt lat="44.18686" lon="6.765">
        <ele>1553.4000244141</ele>
        <time>2020-06-06T08:46:46.000Z</time>
      </trkpt>
      <trkpt lat="44.18687" lon="6.76507">
        <ele>1553.8000488281</ele>
        <time>2020-06-06T08:46:49.000Z</time>
      </trkpt>
      <trkpt lat="44.18689" lon="6.76513">
        <ele>1554.4000244141</ele>
        <time>2020-06-06T08:46:52.000Z</time>
      </trkpt>
      <trkpt lat="44.18691" lon="6.76518">
        <ele>1555</ele>
        <time>2020-06-06T08:46:55.000Z</time>
      </trkpt>
      <trkpt lat="44.18695" lon="6.76524">
        <ele>1555.4000244141</ele>
        <time>2020-06-06T08:46:59.000Z</time>
      </trkpt>
      <trkpt lat="44.18696" lon="6.76528">
        <ele>1556</ele>
        <time>2020-06-06T08:47:01.000Z</time>
      </trkpt>
      <trkpt lat="44.18701" lon="6.76535">
        <ele>1557</ele>
        <time>2020-06-06T08:47:06.000Z</time>
      </trkpt>
      <trkpt lat="44.18702" lon="6.76537">
        <ele>1557.1999511719</ele>
        <time>2020-06-06T08:47:07.000Z</time>
      </trkpt>
      <trkpt lat="44.18706" lon="6.76541">
        <ele>1557.8000488281</ele>
        <time>2020-06-06T08:47:11.000Z</time>
      </trkpt>
      <trkpt lat="44.18709" lon="6.76544">
        <ele>1558.4000244141</ele>
        <time>2020-06-06T08:47:14.000Z</time>
      </trkpt>
      <trkpt lat="44.18711" lon="6.76548">
        <ele>1559.1999511719</ele>
        <time>2020-06-06T08:47:17.000Z</time>
      </trkpt>
      <trkpt lat="44.18713" lon="6.76552">
        <ele>1559.5999755859</ele>
        <time>2020-06-06T08:47:19.000Z</time>
      </trkpt>
      <trkpt lat="44.18719" lon="6.76563">
        <ele>1560.5999755859</ele>
        <time>2020-06-06T08:47:25.000Z</time>
      </trkpt>
      <trkpt lat="44.18719" lon="6.76565">
        <ele>1560.8000488281</ele>
        <time>2020-06-06T08:47:26.000Z</time>
      </trkpt>
      <trkpt lat="44.18719" lon="6.76576">
        <ele>1561.8000488281</ele>
        <time>2020-06-06T08:47:31.000Z</time>
      </trkpt>
      <trkpt lat="44.18718" lon="6.7658">
        <ele>1562.1999511719</ele>
        <time>2020-06-06T08:47:33.000Z</time>
      </trkpt>
      <trkpt lat="44.18714" lon="6.76587">
        <ele>1563</ele>
        <time>2020-06-06T08:47:37.000Z</time>
      </trkpt>
      <trkpt lat="44.18712" lon="6.7659">
        <ele>1563.4000244141</ele>
        <time>2020-06-06T08:47:39.000Z</time>
      </trkpt>
      <trkpt lat="44.18709" lon="6.76603">
        <ele>1564.1999511719</ele>
        <time>2020-06-06T08:47:45.000Z</time>
      </trkpt>
      <trkpt lat="44.18709" lon="6.76607">
        <ele>1564.5999755859</ele>
        <time>2020-06-06T08:47:47.000Z</time>
      </trkpt>
      <trkpt lat="44.1871" lon="6.76614">
        <ele>1565.1999511719</ele>
        <time>2020-06-06T08:47:50.000Z</time>
      </trkpt>
      <trkpt lat="44.18711" lon="6.76618">
        <ele>1565.5999755859</ele>
        <time>2020-06-06T08:47:52.000Z</time>
      </trkpt>
      <trkpt lat="44.18711" lon="6.7662">
        <ele>1565.5999755859</ele>
        <time>2020-06-06T08:47:53.000Z</time>
      </trkpt>
      <trkpt lat="44.18712" lon="6.76627">
        <ele>1566.1999511719</ele>
        <time>2020-06-06T08:47:56.000Z</time>
      </trkpt>
      <trkpt lat="44.18713" lon="6.76629">
        <ele>1566.4000244141</ele>
        <time>2020-06-06T08:47:57.000Z</time>
      </trkpt>
      <trkpt lat="44.18715" lon="6.76635">
        <ele>1566.8000488281</ele>
        <time>2020-06-06T08:48:00.000Z</time>
      </trkpt>
      <trkpt lat="44.18715" lon="6.76642">
        <ele>1567.4000244141</ele>
        <time>2020-06-06T08:48:03.000Z</time>
      </trkpt>
      <trkpt lat="44.18716" lon="6.76656">
        <ele>1568.4000244141</ele>
        <time>2020-06-06T08:48:10.000Z</time>
      </trkpt>
      <trkpt lat="44.18716" lon="6.76659">
        <ele>1568.8000488281</ele>
        <time>2020-06-06T08:48:11.000Z</time>
      </trkpt>
      <trkpt lat="44.18715" lon="6.76671">
        <ele>1569.8000488281</ele>
        <time>2020-06-06T08:48:17.000Z</time>
      </trkpt>
      <trkpt lat="44.18714" lon="6.76673">
        <ele>1570</ele>
        <time>2020-06-06T08:48:18.000Z</time>
      </trkpt>
      <trkpt lat="44.18711" lon="6.76684">
        <ele>1570.8000488281</ele>
        <time>2020-06-06T08:48:23.000Z</time>
      </trkpt>
      <trkpt lat="44.18711" lon="6.76686">
        <ele>1571</ele>
        <time>2020-06-06T08:48:24.000Z</time>
      </trkpt>
      <trkpt lat="44.1871" lon="6.76701">
        <ele>1572</ele>
        <time>2020-06-06T08:48:30.000Z</time>
      </trkpt>
      <trkpt lat="44.18711" lon="6.76704">
        <ele>1572.4000244141</ele>
        <time>2020-06-06T08:48:31.000Z</time>
      </trkpt>
      <trkpt lat="44.18714" lon="6.76716">
        <ele>1573</ele>
        <time>2020-06-06T08:48:36.000Z</time>
      </trkpt>
      <trkpt lat="44.18715" lon="6.7672">
        <ele>1573.4000244141</ele>
        <time>2020-06-06T08:48:38.000Z</time>
      </trkpt>
      <trkpt lat="44.1872" lon="6.76732">
        <ele>1574.5999755859</ele>
        <time>2020-06-06T08:48:44.000Z</time>
      </trkpt>
      <trkpt lat="44.18721" lon="6.76734">
        <ele>1574.8000488281</ele>
        <time>2020-06-06T08:48:45.000Z</time>
      </trkpt>
      <trkpt lat="44.18724" lon="6.76743">
        <ele>1575.5999755859</ele>
        <time>2020-06-06T08:48:49.000Z</time>
      </trkpt>
      <trkpt lat="44.18728" lon="6.7675">
        <ele>1576.4000244141</ele>
        <time>2020-06-06T08:48:53.000Z</time>
      </trkpt>
      <trkpt lat="44.1873" lon="6.76754">
        <ele>1576.5999755859</ele>
        <time>2020-06-06T08:48:55.000Z</time>
      </trkpt>
      <trkpt lat="44.18734" lon="6.76763">
        <ele>1577.5999755859</ele>
        <time>2020-06-06T08:49:00.000Z</time>
      </trkpt>
      <trkpt lat="44.1874" lon="6.76775">
        <ele>1578.8000488281</ele>
        <time>2020-06-06T08:49:06.000Z</time>
      </trkpt>
      <trkpt lat="44.18741" lon="6.76776">
        <ele>1579</ele>
        <time>2020-06-06T08:49:07.000Z</time>
      </trkpt>
      <trkpt lat="44.18748" lon="6.76788">
        <ele>1580</ele>
        <time>2020-06-06T08:49:14.000Z</time>
      </trkpt>
      <trkpt lat="44.18755" lon="6.76801">
        <ele>1581</ele>
        <time>2020-06-06T08:49:21.000Z</time>
      </trkpt>
      <trkpt lat="44.18757" lon="6.76804">
        <ele>1581.4000244141</ele>
        <time>2020-06-06T08:49:23.000Z</time>
      </trkpt>
      <trkpt lat="44.18763" lon="6.76814">
        <ele>1582</ele>
        <time>2020-06-06T08:49:29.000Z</time>
      </trkpt>
      <trkpt lat="44.18766" lon="6.76818">
        <ele>1582.4000244141</ele>
        <time>2020-06-06T08:49:31.000Z</time>
      </trkpt>
      <trkpt lat="44.1877" lon="6.76824">
        <ele>1583.1999511719</ele>
        <time>2020-06-06T08:49:35.000Z</time>
      </trkpt>
      <trkpt lat="44.18773" lon="6.7683">
        <ele>1583.8000488281</ele>
        <time>2020-06-06T08:49:38.000Z</time>
      </trkpt>
      <trkpt lat="44.18775" lon="6.76832">
        <ele>1584.1999511719</ele>
        <time>2020-06-06T08:49:40.000Z</time>
      </trkpt>
      <trkpt lat="44.18779" lon="6.76841">
        <ele>1585</ele>
        <time>2020-06-06T08:49:45.000Z</time>
      </trkpt>
      <trkpt lat="44.18779" lon="6.76843">
        <ele>1585.1999511719</ele>
        <time>2020-06-06T08:49:46.000Z</time>
      </trkpt>
      <trkpt lat="44.18782" lon="6.7685">
        <ele>1586.1999511719</ele>
        <time>2020-06-06T08:49:50.000Z</time>
      </trkpt>
      <trkpt lat="44.18781" lon="6.76852">
        <ele>1586.4000244141</ele>
        <time>2020-06-06T08:49:51.000Z</time>
      </trkpt>
      <trkpt lat="44.18781" lon="6.76854">
        <ele>1586.5999755859</ele>
        <time>2020-06-06T08:49:52.000Z</time>
      </trkpt>
      <trkpt lat="44.18781" lon="6.76861">
        <ele>1587</ele>
        <time>2020-06-06T08:49:55.000Z</time>
      </trkpt>
      <trkpt lat="44.18779" lon="6.7687">
        <ele>1587.5999755859</ele>
        <time>2020-06-06T08:49:59.000Z</time>
      </trkpt>
      <trkpt lat="44.18779" lon="6.76873">
        <ele>1587.8000488281</ele>
        <time>2020-06-06T08:50:01.000Z</time>
      </trkpt>
      <trkpt lat="44.18778" lon="6.76879">
        <ele>1588.5999755859</ele>
        <time>2020-06-06T08:50:04.000Z</time>
      </trkpt>
      <trkpt lat="44.18777" lon="6.76882">
        <ele>1589</ele>
        <time>2020-06-06T08:50:06.000Z</time>
      </trkpt>
      <trkpt lat="44.18777" lon="6.76884">
        <ele>1589.1999511719</ele>
        <time>2020-06-06T08:50:07.000Z</time>
      </trkpt>
      <trkpt lat="44.18776" lon="6.7689">
        <ele>1589.5999755859</ele>
        <time>2020-06-06T08:50:10.000Z</time>
      </trkpt>
      <trkpt lat="44.18776" lon="6.76894">
        <ele>1590</ele>
        <time>2020-06-06T08:50:12.000Z</time>
      </trkpt>
      <trkpt lat="44.18775" lon="6.76903">
        <ele>1590.8000488281</ele>
        <time>2020-06-06T08:50:16.000Z</time>
      </trkpt>
      <trkpt lat="44.18775" lon="6.76904">
        <ele>1591</ele>
        <time>2020-06-06T08:50:17.000Z</time>
      </trkpt>
      <trkpt lat="44.18775" lon="6.76906">
        <ele>1591.1999511719</ele>
        <time>2020-06-06T08:50:18.000Z</time>
      </trkpt>
      <trkpt lat="44.18773" lon="6.76916">
        <ele>1591.8000488281</ele>
        <time>2020-06-06T08:50:22.000Z</time>
      </trkpt>
      <trkpt lat="44.18775" lon="6.7693">
        <ele>1592.4000244141</ele>
        <time>2020-06-06T08:50:28.000Z</time>
      </trkpt>
      <trkpt lat="44.18777" lon="6.76936">
        <ele>1593</ele>
        <time>2020-06-06T08:50:31.000Z</time>
      </trkpt>
      <trkpt lat="44.1878" lon="6.76944">
        <ele>1593.8000488281</ele>
        <time>2020-06-06T08:50:35.000Z</time>
      </trkpt>
      <trkpt lat="44.18781" lon="6.76946">
        <ele>1594</ele>
        <time>2020-06-06T08:50:36.000Z</time>
      </trkpt>
      <trkpt lat="44.18787" lon="6.76958">
        <ele>1595.1999511719</ele>
        <time>2020-06-06T08:50:42.000Z</time>
      </trkpt>
      <trkpt lat="44.18789" lon="6.76965">
        <ele>1595.8000488281</ele>
        <time>2020-06-06T08:50:45.000Z</time>
      </trkpt>
      <trkpt lat="44.18791" lon="6.7697">
        <ele>1596.1999511719</ele>
        <time>2020-06-06T08:50:47.000Z</time>
      </trkpt>
      <trkpt lat="44.18792" lon="6.76972">
        <ele>1596.4000244141</ele>
        <time>2020-06-06T08:50:48.000Z</time>
      </trkpt>
      <trkpt lat="44.18799" lon="6.76991">
        <ele>1597.4000244141</ele>
        <time>2020-06-06T08:50:56.000Z</time>
      </trkpt>
      <trkpt lat="44.18801" lon="6.76993">
        <ele>1597.4000244141</ele>
        <time>2020-06-06T08:50:57.000Z</time>
      </trkpt>
      <trkpt lat="44.18807" lon="6.77007">
        <ele>1598.4000244141</ele>
        <time>2020-06-06T08:51:03.000Z</time>
      </trkpt>
      <trkpt lat="44.18808" lon="6.7701">
        <ele>1598.5999755859</ele>
        <time>2020-06-06T08:51:04.000Z</time>
      </trkpt>
      <trkpt lat="44.18814" lon="6.77028">
        <ele>1599</ele>
        <time>2020-06-06T08:51:11.000Z</time>
      </trkpt>
      <trkpt lat="44.18816" lon="6.77034">
        <ele>1599.5999755859</ele>
        <time>2020-06-06T08:51:13.000Z</time>
      </trkpt>
      <trkpt lat="44.18817" lon="6.77042">
        <ele>1600</ele>
        <time>2020-06-06T08:51:16.000Z</time>
      </trkpt>
      <trkpt lat="44.18817" lon="6.77044">
        <ele>1600</ele>
        <time>2020-06-06T08:51:17.000Z</time>
      </trkpt>
      <trkpt lat="44.18816" lon="6.77052">
        <ele>1600.5999755859</ele>
        <time>2020-06-06T08:51:20.000Z</time>
      </trkpt>
      <trkpt lat="44.18816" lon="6.77067">
        <ele>1601.1999511719</ele>
        <time>2020-06-06T08:51:25.000Z</time>
      </trkpt>
      <trkpt lat="44.18821" lon="6.7708">
        <ele>1601.8000488281</ele>
        <time>2020-06-06T08:51:30.000Z</time>
      </trkpt>
      <trkpt lat="44.18825" lon="6.77092">
        <ele>1603</ele>
        <time>2020-06-06T08:51:35.000Z</time>
      </trkpt>
      <trkpt lat="44.18826" lon="6.77096">
        <ele>1603.4000244141</ele>
        <time>2020-06-06T08:51:37.000Z</time>
      </trkpt>
      <trkpt lat="44.18826" lon="6.77099">
        <ele>1603.5999755859</ele>
        <time>2020-06-06T08:51:38.000Z</time>
      </trkpt>
      <trkpt lat="44.18826" lon="6.77108">
        <ele>1604</ele>
        <time>2020-06-06T08:51:41.000Z</time>
      </trkpt>
      <trkpt lat="44.18825" lon="6.77112">
        <ele>1604.1999511719</ele>
        <time>2020-06-06T08:51:42.000Z</time>
      </trkpt>
      <trkpt lat="44.18823" lon="6.77117">
        <ele>1604.4000244141</ele>
        <time>2020-06-06T08:51:44.000Z</time>
      </trkpt>
      <trkpt lat="44.18824" lon="6.77119">
        <ele>1604.5999755859</ele>
        <time>2020-06-06T08:51:45.000Z</time>
      </trkpt>
      <trkpt lat="44.18824" lon="6.77125">
        <ele>1605</ele>
        <time>2020-06-06T08:51:48.000Z</time>
      </trkpt>
      <trkpt lat="44.18824" lon="6.77128">
        <ele>1605.1999511719</ele>
        <time>2020-06-06T08:51:49.000Z</time>
      </trkpt>
      <trkpt lat="44.18824" lon="6.77131">
        <ele>1605.1999511719</ele>
        <time>2020-06-06T08:51:50.000Z</time>
      </trkpt>
      <trkpt lat="44.18823" lon="6.77137">
        <ele>1605.1999511719</ele>
        <time>2020-06-06T08:51:52.000Z</time>
      </trkpt>
      <trkpt lat="44.18821" lon="6.77152">
        <ele>1605.8000488281</ele>
        <time>2020-06-06T08:51:57.000Z</time>
      </trkpt>
      <trkpt lat="44.18819" lon="6.77167">
        <ele>1606</ele>
        <time>2020-06-06T08:52:01.000Z</time>
      </trkpt>
      <trkpt lat="44.18818" lon="6.77179">
        <ele>1606.1999511719</ele>
        <time>2020-06-06T08:52:04.000Z</time>
      </trkpt>
      <trkpt lat="44.18819" lon="6.77193">
        <ele>1606</ele>
        <time>2020-06-06T08:52:07.000Z</time>
      </trkpt>
      <trkpt lat="44.18821" lon="6.77222">
        <ele>1606</ele>
        <time>2020-06-06T08:52:14.000Z</time>
      </trkpt>
      <trkpt lat="44.1882" lon="6.77241">
        <ele>1606.1999511719</ele>
        <time>2020-06-06T08:52:18.000Z</time>
      </trkpt>
      <trkpt lat="44.18821" lon="6.77266">
        <ele>1605.4000244141</ele>
        <time>2020-06-06T08:52:23.000Z</time>
      </trkpt>
      <trkpt lat="44.18821" lon="6.77272">
        <ele>1605.5999755859</ele>
        <time>2020-06-06T08:52:24.000Z</time>
      </trkpt>
      <trkpt lat="44.18821" lon="6.77286">
        <ele>1606.1999511719</ele>
        <time>2020-06-06T08:52:27.000Z</time>
      </trkpt>
      <trkpt lat="44.18821" lon="6.77295">
        <ele>1606.4000244141</ele>
        <time>2020-06-06T08:52:29.000Z</time>
      </trkpt>
      <trkpt lat="44.18821" lon="6.773">
        <ele>1606.5999755859</ele>
        <time>2020-06-06T08:52:30.000Z</time>
      </trkpt>
      <trkpt lat="44.18819" lon="6.77319">
        <ele>1606.5999755859</ele>
        <time>2020-06-06T08:52:34.000Z</time>
      </trkpt>
      <trkpt lat="44.18819" lon="6.7735">
        <ele>1606.8000488281</ele>
        <time>2020-06-06T08:52:40.000Z</time>
      </trkpt>
      <trkpt lat="44.1882" lon="6.77386">
        <ele>1606.8000488281</ele>
        <time>2020-06-06T08:52:47.000Z</time>
      </trkpt>
      <trkpt lat="44.1882" lon="6.77393">
        <ele>1606.8000488281</ele>
        <time>2020-06-06T08:52:48.000Z</time>
      </trkpt>
      <trkpt lat="44.18818" lon="6.77405">
        <ele>1607</ele>
        <time>2020-06-06T08:52:50.000Z</time>
      </trkpt>
      <trkpt lat="44.18819" lon="6.77418">
        <ele>1606.5999755859</ele>
        <time>2020-06-06T08:52:52.000Z</time>
      </trkpt>
      <trkpt lat="44.18821" lon="6.77436">
        <ele>1606.5999755859</ele>
        <time>2020-06-06T08:52:55.000Z</time>
      </trkpt>
      <trkpt lat="44.18821" lon="6.77462">
        <ele>1606.5999755859</ele>
        <time>2020-06-06T08:53:00.000Z</time>
      </trkpt>
      <trkpt lat="44.18822" lon="6.77485">
        <ele>1606.5999755859</ele>
        <time>2020-06-06T08:53:04.000Z</time>
      </trkpt>
      <trkpt lat="44.18822" lon="6.7749">
        <ele>1606.8000488281</ele>
        <time>2020-06-06T08:53:05.000Z</time>
      </trkpt>
      <trkpt lat="44.18825" lon="6.77511">
        <ele>1606.5999755859</ele>
        <time>2020-06-06T08:53:09.000Z</time>
      </trkpt>
      <trkpt lat="44.18824" lon="6.77532">
        <ele>1606.8000488281</ele>
        <time>2020-06-06T08:53:13.000Z</time>
      </trkpt>
      <trkpt lat="44.18823" lon="6.77549">
        <ele>1607.1999511719</ele>
        <time>2020-06-06T08:53:16.000Z</time>
      </trkpt>
      <trkpt lat="44.1882" lon="6.77578">
        <ele>1607</ele>
        <time>2020-06-06T08:53:21.000Z</time>
      </trkpt>
      <trkpt lat="44.18813" lon="6.77595">
        <ele>1607.1999511719</ele>
        <time>2020-06-06T08:53:25.000Z</time>
      </trkpt>
      <trkpt lat="44.188" lon="6.77608">
        <ele>1607.5999755859</ele>
        <time>2020-06-06T08:53:31.000Z</time>
      </trkpt>
      <trkpt lat="44.18794" lon="6.77613">
        <ele>1608.4000244141</ele>
        <time>2020-06-06T08:53:35.000Z</time>
      </trkpt>
      <trkpt lat="44.18791" lon="6.77616">
        <ele>1608.8000488281</ele>
        <time>2020-06-06T08:53:37.000Z</time>
      </trkpt>
      <trkpt lat="44.18786" lon="6.7762">
        <ele>1609.5999755859</ele>
        <time>2020-06-06T08:53:40.000Z</time>
      </trkpt>
      <trkpt lat="44.18782" lon="6.77625">
        <ele>1609.5999755859</ele>
        <time>2020-06-06T08:53:42.000Z</time>
      </trkpt>
      <trkpt lat="44.18775" lon="6.77631">
        <ele>1610.5999755859</ele>
        <time>2020-06-06T08:53:46.000Z</time>
      </trkpt>
      <trkpt lat="44.1877" lon="6.77635">
        <ele>1611.5999755859</ele>
        <time>2020-06-06T08:53:49.000Z</time>
      </trkpt>
      <trkpt lat="44.18767" lon="6.7764">
        <ele>1612.5999755859</ele>
        <time>2020-06-06T08:53:52.000Z</time>
      </trkpt>
      <trkpt lat="44.18764" lon="6.77644">
        <ele>1613.1999511719</ele>
        <time>2020-06-06T08:53:55.000Z</time>
      </trkpt>
      <trkpt lat="44.18761" lon="6.77647">
        <ele>1613.8000488281</ele>
        <time>2020-06-06T08:53:57.000Z</time>
      </trkpt>
      <trkpt lat="44.18759" lon="6.77653">
        <ele>1614.4000244141</ele>
        <time>2020-06-06T08:54:00.000Z</time>
      </trkpt>
      <trkpt lat="44.18758" lon="6.77656">
        <ele>1615</ele>
        <time>2020-06-06T08:54:02.000Z</time>
      </trkpt>
      <trkpt lat="44.18754" lon="6.77663">
        <ele>1616</ele>
        <time>2020-06-06T08:54:06.000Z</time>
      </trkpt>
      <trkpt lat="44.18753" lon="6.77665">
        <ele>1616.1999511719</ele>
        <time>2020-06-06T08:54:07.000Z</time>
      </trkpt>
      <trkpt lat="44.18748" lon="6.77674">
        <ele>1617</ele>
        <time>2020-06-06T08:54:12.000Z</time>
      </trkpt>
      <trkpt lat="44.18746" lon="6.77677">
        <ele>1617.1999511719</ele>
        <time>2020-06-06T08:54:14.000Z</time>
      </trkpt>
      <trkpt lat="44.18741" lon="6.77683">
        <ele>1618</ele>
        <time>2020-06-06T08:54:18.000Z</time>
      </trkpt>
      <trkpt lat="44.18738" lon="6.77687">
        <ele>1618.5999755859</ele>
        <time>2020-06-06T08:54:21.000Z</time>
      </trkpt>
      <trkpt lat="44.18736" lon="6.77691">
        <ele>1619.1999511719</ele>
        <time>2020-06-06T08:54:24.000Z</time>
      </trkpt>
      <trkpt lat="44.1873" lon="6.77694">
        <ele>1619.8000488281</ele>
        <time>2020-06-06T08:54:27.000Z</time>
      </trkpt>
      <trkpt lat="44.18727" lon="6.77695">
        <ele>1620.1999511719</ele>
        <time>2020-06-06T08:54:29.000Z</time>
      </trkpt>
      <trkpt lat="44.18721" lon="6.77695">
        <ele>1621.1999511719</ele>
        <time>2020-06-06T08:54:33.000Z</time>
      </trkpt>
      <trkpt lat="44.1872" lon="6.77695">
        <ele>1621.4000244141</ele>
        <time>2020-06-06T08:54:34.000Z</time>
      </trkpt>
      <trkpt lat="44.1871" lon="6.77696">
        <ele>1622</ele>
        <time>2020-06-06T08:54:40.000Z</time>
      </trkpt>
      <trkpt lat="44.18705" lon="6.77696">
        <ele>1622.5999755859</ele>
        <time>2020-06-06T08:54:43.000Z</time>
      </trkpt>
      <trkpt lat="44.18699" lon="6.77698">
        <ele>1623.1999511719</ele>
        <time>2020-06-06T08:54:47.000Z</time>
      </trkpt>
      <trkpt lat="44.18696" lon="6.77698">
        <ele>1623.5999755859</ele>
        <time>2020-06-06T08:54:49.000Z</time>
      </trkpt>
      <trkpt lat="44.18683" lon="6.777">
        <ele>1624.1999511719</ele>
        <time>2020-06-06T08:54:55.000Z</time>
      </trkpt>
      <trkpt lat="44.18676" lon="6.77708">
        <ele>1624.8000488281</ele>
        <time>2020-06-06T08:54:59.000Z</time>
      </trkpt>
      <trkpt lat="44.18675" lon="6.7771">
        <ele>1625</ele>
        <time>2020-06-06T08:55:00.000Z</time>
      </trkpt>
      <trkpt lat="44.18669" lon="6.77728">
        <ele>1625.4000244141</ele>
        <time>2020-06-06T08:55:07.000Z</time>
      </trkpt>
      <trkpt lat="44.18658" lon="6.77756">
        <ele>1624.8000488281</ele>
        <time>2020-06-06T08:55:16.000Z</time>
      </trkpt>
      <trkpt lat="44.18651" lon="6.7778">
        <ele>1623.8000488281</ele>
        <time>2020-06-06T08:55:23.000Z</time>
      </trkpt>
      <trkpt lat="44.1865" lon="6.77783">
        <ele>1623.5999755859</ele>
        <time>2020-06-06T08:55:24.000Z</time>
      </trkpt>
      <trkpt lat="44.18646" lon="6.77791">
        <ele>1623.1999511719</ele>
        <time>2020-06-06T08:55:28.000Z</time>
      </trkpt>
      <trkpt lat="44.18645" lon="6.77795">
        <ele>1623</ele>
        <time>2020-06-06T08:55:30.000Z</time>
      </trkpt>
      <trkpt lat="44.18642" lon="6.77801">
        <ele>1622.4000244141</ele>
        <time>2020-06-06T08:55:32.000Z</time>
      </trkpt>
      <trkpt lat="44.18639" lon="6.77811">
        <ele>1621.5999755859</ele>
        <time>2020-06-06T08:55:36.000Z</time>
      </trkpt>
      <trkpt lat="44.18638" lon="6.77814">
        <ele>1621.5999755859</ele>
        <time>2020-06-06T08:55:37.000Z</time>
      </trkpt>
      <trkpt lat="44.18633" lon="6.77826">
        <ele>1621.4000244141</ele>
        <time>2020-06-06T08:55:40.000Z</time>
      </trkpt>
      <trkpt lat="44.18631" lon="6.77833">
        <ele>1621.1999511719</ele>
        <time>2020-06-06T08:55:42.000Z</time>
      </trkpt>
      <trkpt lat="44.18631" lon="6.77835">
        <ele>1620.8000488281</ele>
        <time>2020-06-06T08:55:45.000Z</time>
      </trkpt>
      <trkpt lat="44.18632" lon="6.77838">
        <ele>1620.5999755859</ele>
        <time>2020-06-06T08:55:51.000Z</time>
      </trkpt>
      <trkpt lat="44.18634" lon="6.77839">
        <ele>1620.5999755859</ele>
        <time>2020-06-06T08:55:57.000Z</time>
      </trkpt>
      <trkpt lat="44.18635" lon="6.7784">
        <ele>1620.4000244141</ele>
        <time>2020-06-06T08:56:03.000Z</time>
      </trkpt>
      <trkpt lat="44.18636" lon="6.7784">
        <ele>1620.1999511719</ele>
        <time>2020-06-06T08:56:04.000Z</time>
      </trkpt>
      <trkpt lat="44.18635" lon="6.77841">
        <ele>1619.8000488281</ele>
        <time>2020-06-06T08:56:07.000Z</time>
      </trkpt>
      <trkpt lat="44.18635" lon="6.77843">
        <ele>1619.5999755859</ele>
        <time>2020-06-06T08:56:10.000Z</time>
      </trkpt>
      <trkpt lat="44.18637" lon="6.77843">
        <ele>1619.8000488281</ele>
        <time>2020-06-06T08:56:11.000Z</time>
      </trkpt>
      <trkpt lat="44.18639" lon="6.77843">
        <ele>1620.1999511719</ele>
        <time>2020-06-06T08:56:13.000Z</time>
      </trkpt>
      <trkpt lat="44.18641" lon="6.77844">
        <ele>1620.8000488281</ele>
        <time>2020-06-06T08:56:16.000Z</time>
      </trkpt>
      <trkpt lat="44.18646" lon="6.77848">
        <ele>1621.1999511719</ele>
        <time>2020-06-06T08:56:21.000Z</time>
      </trkpt>
      <trkpt lat="44.18647" lon="6.77849">
        <ele>1621.4000244141</ele>
        <time>2020-06-06T08:56:22.000Z</time>
      </trkpt>
      <trkpt lat="44.1865" lon="6.77852">
        <ele>1621.5999755859</ele>
        <time>2020-06-06T08:56:24.000Z</time>
      </trkpt>
      <trkpt lat="44.18654" lon="6.77859">
        <ele>1622.1999511719</ele>
        <time>2020-06-06T08:56:28.000Z</time>
      </trkpt>
      <trkpt lat="44.18662" lon="6.77867">
        <ele>1622.8000488281</ele>
        <time>2020-06-06T08:56:33.000Z</time>
      </trkpt>
      <trkpt lat="44.18676" lon="6.77882">
        <ele>1623.5999755859</ele>
        <time>2020-06-06T08:56:40.000Z</time>
      </trkpt>
      <trkpt lat="44.18681" lon="6.77889">
        <ele>1624</ele>
        <time>2020-06-06T08:56:43.000Z</time>
      </trkpt>
      <trkpt lat="44.18682" lon="6.77892">
        <ele>1624</ele>
        <time>2020-06-06T08:56:44.000Z</time>
      </trkpt>
      <trkpt lat="44.1868" lon="6.7791">
        <ele>1624.8000488281</ele>
        <time>2020-06-06T08:56:48.000Z</time>
      </trkpt>
      <trkpt lat="44.1868" lon="6.77936">
        <ele>1624.5999755859</ele>
        <time>2020-06-06T08:56:53.000Z</time>
      </trkpt>
      <trkpt lat="44.18685" lon="6.77959">
        <ele>1625.1999511719</ele>
        <time>2020-06-06T08:56:58.000Z</time>
      </trkpt>
      <trkpt lat="44.18692" lon="6.77974">
        <ele>1626</ele>
        <time>2020-06-06T08:57:02.000Z</time>
      </trkpt>
      <trkpt lat="44.18695" lon="6.77981">
        <ele>1626.4000244141</ele>
        <time>2020-06-06T08:57:04.000Z</time>
      </trkpt>
      <trkpt lat="44.18705" lon="6.77995">
        <ele>1626.8000488281</ele>
        <time>2020-06-06T08:57:09.000Z</time>
      </trkpt>
      <trkpt lat="44.18718" lon="6.78009">
        <ele>1627.4000244141</ele>
        <time>2020-06-06T08:57:15.000Z</time>
      </trkpt>
      <trkpt lat="44.18719" lon="6.78011">
        <ele>1627.5999755859</ele>
        <time>2020-06-06T08:57:16.000Z</time>
      </trkpt>
      <trkpt lat="44.18725" lon="6.7802">
        <ele>1628.5999755859</ele>
        <time>2020-06-06T08:57:20.000Z</time>
      </trkpt>
      <trkpt lat="44.18733" lon="6.78037">
        <ele>1629.5999755859</ele>
        <time>2020-06-06T08:57:26.000Z</time>
      </trkpt>
      <trkpt lat="44.18734" lon="6.7804">
        <ele>1630.1999511719</ele>
        <time>2020-06-06T08:57:27.000Z</time>
      </trkpt>
      <trkpt lat="44.18742" lon="6.78053">
        <ele>1630.8000488281</ele>
        <time>2020-06-06T08:57:32.000Z</time>
      </trkpt>
      <trkpt lat="44.18744" lon="6.78054">
        <ele>1630.8000488281</ele>
        <time>2020-06-06T08:57:33.000Z</time>
      </trkpt>
      <trkpt lat="44.18746" lon="6.78055">
        <ele>1630.8000488281</ele>
        <time>2020-06-06T08:57:34.000Z</time>
      </trkpt>
      <trkpt lat="44.18757" lon="6.78055">
        <ele>1631.8000488281</ele>
        <time>2020-06-06T08:57:40.000Z</time>
      </trkpt>
      <trkpt lat="44.18768" lon="6.78053">
        <ele>1632.5999755859</ele>
        <time>2020-06-06T08:57:47.000Z</time>
      </trkpt>
      <trkpt lat="44.1877" lon="6.78053">
        <ele>1632.8000488281</ele>
        <time>2020-06-06T08:57:48.000Z</time>
      </trkpt>
      <trkpt lat="44.18782" lon="6.78055">
        <ele>1633.8000488281</ele>
        <time>2020-06-06T08:57:54.000Z</time>
      </trkpt>
      <trkpt lat="44.18784" lon="6.78056">
        <ele>1634</ele>
        <time>2020-06-06T08:57:55.000Z</time>
      </trkpt>
      <trkpt lat="44.18797" lon="6.78052">
        <ele>1634.1999511719</ele>
        <time>2020-06-06T08:58:01.000Z</time>
      </trkpt>
      <trkpt lat="44.18807" lon="6.78044">
        <ele>1635</ele>
        <time>2020-06-06T08:58:06.000Z</time>
      </trkpt>
      <trkpt lat="44.18812" lon="6.78041">
        <ele>1635.4000244141</ele>
        <time>2020-06-06T08:58:09.000Z</time>
      </trkpt>
      <trkpt lat="44.18823" lon="6.78043">
        <ele>1636</ele>
        <time>2020-06-06T08:58:14.000Z</time>
      </trkpt>
      <trkpt lat="44.18825" lon="6.78044">
        <ele>1636</ele>
        <time>2020-06-06T08:58:15.000Z</time>
      </trkpt>
      <trkpt lat="44.18838" lon="6.78052">
        <ele>1636.1999511719</ele>
        <time>2020-06-06T08:58:21.000Z</time>
      </trkpt>
      <trkpt lat="44.18851" lon="6.78066">
        <ele>1637</ele>
        <time>2020-06-06T08:58:28.000Z</time>
      </trkpt>
      <trkpt lat="44.18853" lon="6.78068">
        <ele>1637</ele>
        <time>2020-06-06T08:58:29.000Z</time>
      </trkpt>
      <trkpt lat="44.18862" lon="6.78082">
        <ele>1637.1999511719</ele>
        <time>2020-06-06T08:58:34.000Z</time>
      </trkpt>
      <trkpt lat="44.18869" lon="6.7811">
        <ele>1637.4000244141</ele>
        <time>2020-06-06T08:58:41.000Z</time>
      </trkpt>
      <trkpt lat="44.18874" lon="6.78136">
        <ele>1637.4000244141</ele>
        <time>2020-06-06T08:58:48.000Z</time>
      </trkpt>
      <trkpt lat="44.1888" lon="6.78154">
        <ele>1636.4000244141</ele>
        <time>2020-06-06T08:58:53.000Z</time>
      </trkpt>
      <trkpt lat="44.18885" lon="6.78166">
        <ele>1636.5999755859</ele>
        <time>2020-06-06T08:58:58.000Z</time>
      </trkpt>
      <trkpt lat="44.18893" lon="6.78187">
        <ele>1637.1999511719</ele>
        <time>2020-06-06T08:59:05.000Z</time>
      </trkpt>
      <trkpt lat="44.18897" lon="6.78201">
        <ele>1637.8000488281</ele>
        <time>2020-06-06T08:59:10.000Z</time>
      </trkpt>
      <trkpt lat="44.18901" lon="6.78212">
        <ele>1638.1999511719</ele>
        <time>2020-06-06T08:59:13.000Z</time>
      </trkpt>
      <trkpt lat="44.18903" lon="6.78217">
        <ele>1638</ele>
        <time>2020-06-06T08:59:15.000Z</time>
      </trkpt>
      <trkpt lat="44.18908" lon="6.78227">
        <ele>1639.1999511719</ele>
        <time>2020-06-06T08:59:19.000Z</time>
      </trkpt>
      <trkpt lat="44.18915" lon="6.78237">
        <ele>1640</ele>
        <time>2020-06-06T08:59:24.000Z</time>
      </trkpt>
      <trkpt lat="44.18916" lon="6.7824">
        <ele>1640.1999511719</ele>
        <time>2020-06-06T08:59:25.000Z</time>
      </trkpt>
      <trkpt lat="44.18923" lon="6.78256">
        <ele>1640.4000244141</ele>
        <time>2020-06-06T08:59:31.000Z</time>
      </trkpt>
      <trkpt lat="44.18927" lon="6.78264">
        <ele>1641.4000244141</ele>
        <time>2020-06-06T08:59:35.000Z</time>
      </trkpt>
      <trkpt lat="44.1893" lon="6.78274">
        <ele>1642.1999511719</ele>
        <time>2020-06-06T08:59:39.000Z</time>
      </trkpt>
      <trkpt lat="44.18931" lon="6.78277">
        <ele>1642.4000244141</ele>
        <time>2020-06-06T08:59:40.000Z</time>
      </trkpt>
      <trkpt lat="44.18939" lon="6.78291">
        <ele>1643</ele>
        <time>2020-06-06T08:59:46.000Z</time>
      </trkpt>
      <trkpt lat="44.18946" lon="6.783">
        <ele>1643.4000244141</ele>
        <time>2020-06-06T08:59:50.000Z</time>
      </trkpt>
      <trkpt lat="44.18951" lon="6.78307">
        <ele>1643.5999755859</ele>
        <time>2020-06-06T08:59:53.000Z</time>
      </trkpt>
      <trkpt lat="44.1896" lon="6.7833">
        <ele>1643.5999755859</ele>
        <time>2020-06-06T09:00:00.000Z</time>
      </trkpt>
      <trkpt lat="44.18969" lon="6.78364">
        <ele>1642.8000488281</ele>
        <time>2020-06-06T09:00:07.000Z</time>
      </trkpt>
      <trkpt lat="44.18973" lon="6.78387">
        <ele>1642.4000244141</ele>
        <time>2020-06-06T09:00:11.000Z</time>
      </trkpt>
      <trkpt lat="44.18974" lon="6.78406">
        <ele>1642</ele>
        <time>2020-06-06T09:00:14.000Z</time>
      </trkpt>
      <trkpt lat="44.18973" lon="6.78428">
        <ele>1641.4000244141</ele>
        <time>2020-06-06T09:00:17.000Z</time>
      </trkpt>
      <trkpt lat="44.18972" lon="6.78448">
        <ele>1640.5999755859</ele>
        <time>2020-06-06T09:00:19.000Z</time>
      </trkpt>
      <trkpt lat="44.18971" lon="6.78456">
        <ele>1640</ele>
        <time>2020-06-06T09:00:20.000Z</time>
      </trkpt>
      <trkpt lat="44.18967" lon="6.78473">
        <ele>1638</ele>
        <time>2020-06-06T09:00:22.000Z</time>
      </trkpt>
      <trkpt lat="44.18965" lon="6.78482">
        <ele>1637</ele>
        <time>2020-06-06T09:00:23.000Z</time>
      </trkpt>
      <trkpt lat="44.18963" lon="6.7849">
        <ele>1635.4000244141</ele>
        <time>2020-06-06T09:00:24.000Z</time>
      </trkpt>
      <trkpt lat="44.1896" lon="6.78504">
        <ele>1634.1999511719</ele>
        <time>2020-06-06T09:00:26.000Z</time>
      </trkpt>
      <trkpt lat="44.18957" lon="6.78518">
        <ele>1634.1999511719</ele>
        <time>2020-06-06T09:00:28.000Z</time>
      </trkpt>
      <trkpt lat="44.18953" lon="6.78532">
        <ele>1634.5999755859</ele>
        <time>2020-06-06T09:00:30.000Z</time>
      </trkpt>
      <trkpt lat="44.18951" lon="6.78551">
        <ele>1634</ele>
        <time>2020-06-06T09:00:32.000Z</time>
      </trkpt>
      <trkpt lat="44.18951" lon="6.78567">
        <ele>1632.1999511719</ele>
        <time>2020-06-06T09:00:34.000Z</time>
      </trkpt>
      <trkpt lat="44.18955" lon="6.78583">
        <ele>1630.1999511719</ele>
        <time>2020-06-06T09:00:36.000Z</time>
      </trkpt>
      <trkpt lat="44.18963" lon="6.78598">
        <ele>1629</ele>
        <time>2020-06-06T09:00:38.000Z</time>
      </trkpt>
      <trkpt lat="44.18966" lon="6.78617">
        <ele>1627.5999755859</ele>
        <time>2020-06-06T09:00:40.000Z</time>
      </trkpt>
      <trkpt lat="44.18966" lon="6.78628">
        <ele>1627.4000244141</ele>
        <time>2020-06-06T09:00:41.000Z</time>
      </trkpt>
      <trkpt lat="44.18966" lon="6.78643">
        <ele>1626.1999511719</ele>
        <time>2020-06-06T09:00:43.000Z</time>
      </trkpt>
      <trkpt lat="44.18963" lon="6.78651">
        <ele>1626</ele>
        <time>2020-06-06T09:00:46.000Z</time>
      </trkpt>
      <trkpt lat="44.18962" lon="6.78654">
        <ele>1627.4000244141</ele>
        <time>2020-06-06T09:00:50.000Z</time>
      </trkpt>
      <trkpt lat="44.18962" lon="6.78659">
        <ele>1628.4000244141</ele>
        <time>2020-06-06T09:00:53.000Z</time>
      </trkpt>
      <trkpt lat="44.18961" lon="6.78659">
        <ele>1628.4000244141</ele>
        <time>2020-06-06T09:00:55.000Z</time>
      </trkpt>
      <trkpt lat="44.18961" lon="6.78662">
        <ele>1629</ele>
        <time>2020-06-06T09:01:01.000Z</time>
      </trkpt>
      <trkpt lat="44.1896" lon="6.78674">
        <ele>1629.4000244141</ele>
        <time>2020-06-06T09:01:07.000Z</time>
      </trkpt>
      <trkpt lat="44.1896" lon="6.78678">
        <ele>1629.5999755859</ele>
        <time>2020-06-06T09:01:09.000Z</time>
      </trkpt>
      <trkpt lat="44.1896" lon="6.78689">
        <ele>1630.1999511719</ele>
        <time>2020-06-06T09:01:13.000Z</time>
      </trkpt>
      <trkpt lat="44.18961" lon="6.78698">
        <ele>1630.8000488281</ele>
        <time>2020-06-06T09:01:16.000Z</time>
      </trkpt>
      <trkpt lat="44.1896" lon="6.78704">
        <ele>1631.1999511719</ele>
        <time>2020-06-06T09:01:18.000Z</time>
      </trkpt>
      <trkpt lat="44.18962" lon="6.78716">
        <ele>1631.5999755859</ele>
        <time>2020-06-06T09:01:23.000Z</time>
      </trkpt>
      <trkpt lat="44.18962" lon="6.78719">
        <ele>1631.8000488281</ele>
        <time>2020-06-06T09:01:25.000Z</time>
      </trkpt>
      <trkpt lat="44.18963" lon="6.78728">
        <ele>1632.8000488281</ele>
        <time>2020-06-06T09:01:30.000Z</time>
      </trkpt>
      <trkpt lat="44.18962" lon="6.78731">
        <ele>1633</ele>
        <time>2020-06-06T09:01:31.000Z</time>
      </trkpt>
      <trkpt lat="44.1896" lon="6.78738">
        <ele>1633.1999511719</ele>
        <time>2020-06-06T09:01:35.000Z</time>
      </trkpt>
      <trkpt lat="44.18956" lon="6.78742">
        <ele>1633.5999755859</ele>
        <time>2020-06-06T09:01:39.000Z</time>
      </trkpt>
      <trkpt lat="44.18956" lon="6.78744">
        <ele>1633.4000244141</ele>
        <time>2020-06-06T09:01:41.000Z</time>
      </trkpt>
      <trkpt lat="44.18956" lon="6.78747">
        <ele>1633.4000244141</ele>
        <time>2020-06-06T09:01:43.000Z</time>
      </trkpt>
      <trkpt lat="44.18959" lon="6.78758">
        <ele>1633.5999755859</ele>
        <time>2020-06-06T09:01:48.000Z</time>
      </trkpt>
      <trkpt lat="44.18965" lon="6.78777">
        <ele>1633.1999511719</ele>
        <time>2020-06-06T09:01:56.000Z</time>
      </trkpt>
      <trkpt lat="44.18966" lon="6.78785">
        <ele>1633.4000244141</ele>
        <time>2020-06-06T09:01:59.000Z</time>
      </trkpt>
      <trkpt lat="44.18967" lon="6.78789">
        <ele>1633.5999755859</ele>
        <time>2020-06-06T09:02:01.000Z</time>
      </trkpt>
      <trkpt lat="44.18967" lon="6.78794">
        <ele>1633.5999755859</ele>
        <time>2020-06-06T09:02:02.000Z</time>
      </trkpt>
      <trkpt lat="44.18963" lon="6.78804">
        <ele>1633.5999755859</ele>
        <time>2020-06-06T09:02:04.000Z</time>
      </trkpt>
      <trkpt lat="44.1896" lon="6.78825">
        <ele>1632.8000488281</ele>
        <time>2020-06-06T09:02:08.000Z</time>
      </trkpt>
      <trkpt lat="44.18958" lon="6.78832">
        <ele>1631.5999755859</ele>
        <time>2020-06-06T09:02:10.000Z</time>
      </trkpt>
      <trkpt lat="44.18957" lon="6.78835">
        <ele>1631.4000244141</ele>
        <time>2020-06-06T09:02:11.000Z</time>
      </trkpt>
      <trkpt lat="44.18963" lon="6.78846">
        <ele>1631.1999511719</ele>
        <time>2020-06-06T09:02:15.000Z</time>
      </trkpt>
      <trkpt lat="44.1897" lon="6.78859">
        <ele>1631.1999511719</ele>
        <time>2020-06-06T09:02:18.000Z</time>
      </trkpt>
      <trkpt lat="44.18975" lon="6.78867">
        <ele>1630.5999755859</ele>
        <time>2020-06-06T09:02:20.000Z</time>
      </trkpt>
      <trkpt lat="44.18978" lon="6.78871">
        <ele>1630</ele>
        <time>2020-06-06T09:02:21.000Z</time>
      </trkpt>
      <trkpt lat="44.18979" lon="6.78875">
        <ele>1629.4000244141</ele>
        <time>2020-06-06T09:02:22.000Z</time>
      </trkpt>
      <trkpt lat="44.18978" lon="6.78879">
        <ele>1628.5999755859</ele>
        <time>2020-06-06T09:02:23.000Z</time>
      </trkpt>
      <trkpt lat="44.18977" lon="6.78883">
        <ele>1627.5999755859</ele>
        <time>2020-06-06T09:02:25.000Z</time>
      </trkpt>
      <trkpt lat="44.18976" lon="6.78885">
        <ele>1628.4000244141</ele>
        <time>2020-06-06T09:02:29.000Z</time>
      </trkpt>
      <trkpt lat="44.18975" lon="6.78886">
        <ele>1628.8000488281</ele>
        <time>2020-06-06T09:02:30.000Z</time>
      </trkpt>
      <trkpt lat="44.18972" lon="6.78889">
        <ele>1629.5999755859</ele>
        <time>2020-06-06T09:02:34.000Z</time>
      </trkpt>
      <trkpt lat="44.18972" lon="6.78889">
        <ele>1630</ele>
        <time>2020-06-06T09:02:36.000Z</time>
      </trkpt>
      <trkpt lat="44.1897" lon="6.78892">
        <ele>1630.4000244141</ele>
        <time>2020-06-06T09:02:39.000Z</time>
      </trkpt>
      <trkpt lat="44.18969" lon="6.78894">
        <ele>1631</ele>
        <time>2020-06-06T09:02:42.000Z</time>
      </trkpt>
      <trkpt lat="44.18967" lon="6.78898">
        <ele>1632</ele>
        <time>2020-06-06T09:02:47.000Z</time>
      </trkpt>
      <trkpt lat="44.18966" lon="6.78899">
        <ele>1632</ele>
        <time>2020-06-06T09:02:48.000Z</time>
      </trkpt>
      <trkpt lat="44.18964" lon="6.78903">
        <ele>1633</ele>
        <time>2020-06-06T09:02:53.000Z</time>
      </trkpt>
      <trkpt lat="44.18964" lon="6.78903">
        <ele>1633.1999511719</ele>
        <time>2020-06-06T09:02:54.000Z</time>
      </trkpt>
      <trkpt lat="44.18964" lon="6.78906">
        <ele>1634.1999511719</ele>
        <time>2020-06-06T09:02:59.000Z</time>
      </trkpt>
      <trkpt lat="44.18964" lon="6.78907">
        <ele>1634.4000244141</ele>
        <time>2020-06-06T09:03:00.000Z</time>
      </trkpt>
      <trkpt lat="44.18963" lon="6.78911">
        <ele>1635.1999511719</ele>
        <time>2020-06-06T09:03:04.000Z</time>
      </trkpt>
      <trkpt lat="44.18963" lon="6.78913">
        <ele>1636.1999511719</ele>
        <time>2020-06-06T09:03:08.000Z</time>
      </trkpt>
      <trkpt lat="44.18963" lon="6.78915">
        <ele>1636.4000244141</ele>
        <time>2020-06-06T09:03:10.000Z</time>
      </trkpt>
      <trkpt lat="44.18962" lon="6.78916">
        <ele>1636.4000244141</ele>
        <time>2020-06-06T09:03:11.000Z</time>
      </trkpt>
      <trkpt lat="44.18961" lon="6.78917">
        <ele>1636.5999755859</ele>
        <time>2020-06-06T09:03:13.000Z</time>
      </trkpt>
      <trkpt lat="44.1896" lon="6.7892">
        <ele>1637.5999755859</ele>
        <time>2020-06-06T09:03:17.000Z</time>
      </trkpt>
      <trkpt lat="44.18958" lon="6.78924">
        <ele>1638.4000244141</ele>
        <time>2020-06-06T09:03:21.000Z</time>
      </trkpt>
      <trkpt lat="44.18958" lon="6.78925">
        <ele>1638.5999755859</ele>
        <time>2020-06-06T09:03:22.000Z</time>
      </trkpt>
      <trkpt lat="44.18957" lon="6.78932">
        <ele>1639.8000488281</ele>
        <time>2020-06-06T09:03:29.000Z</time>
      </trkpt>
      <trkpt lat="44.18957" lon="6.78932">
        <ele>1639.8000488281</ele>
        <time>2020-06-06T09:03:30.000Z</time>
      </trkpt>
      <trkpt lat="44.18958" lon="6.78938">
        <ele>1640.8000488281</ele>
        <time>2020-06-06T09:03:36.000Z</time>
      </trkpt>
      <trkpt lat="44.18958" lon="6.78942">
        <ele>1641.8000488281</ele>
        <time>2020-06-06T09:03:41.000Z</time>
      </trkpt>
      <trkpt lat="44.18957" lon="6.78944">
        <ele>1642.1999511719</ele>
        <time>2020-06-06T09:03:43.000Z</time>
      </trkpt>
      <trkpt lat="44.18957" lon="6.78947">
        <ele>1642.8000488281</ele>
        <time>2020-06-06T09:03:47.000Z</time>
      </trkpt>
      <trkpt lat="44.18957" lon="6.7895">
        <ele>1643.8000488281</ele>
        <time>2020-06-06T09:03:51.000Z</time>
      </trkpt>
      <trkpt lat="44.18957" lon="6.78951">
        <ele>1644</ele>
        <time>2020-06-06T09:03:52.000Z</time>
      </trkpt>
      <trkpt lat="44.18957" lon="6.78955">
        <ele>1645</ele>
        <time>2020-06-06T09:03:58.000Z</time>
      </trkpt>
      <trkpt lat="44.18957" lon="6.78959">
        <ele>1646</ele>
        <time>2020-06-06T09:04:03.000Z</time>
      </trkpt>
      <trkpt lat="44.18958" lon="6.78962">
        <ele>1646.4000244141</ele>
        <time>2020-06-06T09:04:05.000Z</time>
      </trkpt>
      <trkpt lat="44.18958" lon="6.78963">
        <ele>1646.5999755859</ele>
        <time>2020-06-06T09:04:06.000Z</time>
      </trkpt>
      <trkpt lat="44.18959" lon="6.78965">
        <ele>1647.1999511719</ele>
        <time>2020-06-06T09:04:09.000Z</time>
      </trkpt>
      <trkpt lat="44.18959" lon="6.78966">
        <ele>1647.1999511719</ele>
        <time>2020-06-06T09:04:10.000Z</time>
      </trkpt>
      <trkpt lat="44.18961" lon="6.78969">
        <ele>1647.1999511719</ele>
        <time>2020-06-06T09:04:12.000Z</time>
      </trkpt>
      <trkpt lat="44.18962" lon="6.78972">
        <ele>1647.4000244141</ele>
        <time>2020-06-06T09:04:14.000Z</time>
      </trkpt>
      <trkpt lat="44.18963" lon="6.78973">
        <ele>1647.1999511719</ele>
        <time>2020-06-06T09:04:15.000Z</time>
      </trkpt>
      <trkpt lat="44.18963" lon="6.7898">
        <ele>1647.4000244141</ele>
        <time>2020-06-06T09:04:18.000Z</time>
      </trkpt>
      <trkpt lat="44.18963" lon="6.78983">
        <ele>1647.8000488281</ele>
        <time>2020-06-06T09:04:20.000Z</time>
      </trkpt>
      <trkpt lat="44.18962" lon="6.78987">
        <ele>1648.1999511719</ele>
        <time>2020-06-06T09:04:22.000Z</time>
      </trkpt>
      <trkpt lat="44.1896" lon="6.78993">
        <ele>1649.1999511719</ele>
        <time>2020-06-06T09:04:26.000Z</time>
      </trkpt>
      <trkpt lat="44.1896" lon="6.78995">
        <ele>1649.1999511719</ele>
        <time>2020-06-06T09:04:27.000Z</time>
      </trkpt>
      <trkpt lat="44.1896" lon="6.78997">
        <ele>1649.4000244141</ele>
        <time>2020-06-06T09:04:28.000Z</time>
      </trkpt>
      <trkpt lat="44.1896" lon="6.79003">
        <ele>1649.8000488281</ele>
        <time>2020-06-06T09:04:31.000Z</time>
      </trkpt>
      <trkpt lat="44.18961" lon="6.7901">
        <ele>1650.5999755859</ele>
        <time>2020-06-06T09:04:34.000Z</time>
      </trkpt>
      <trkpt lat="44.18962" lon="6.79016">
        <ele>1651</ele>
        <time>2020-06-06T09:04:37.000Z</time>
      </trkpt>
      <trkpt lat="44.18963" lon="6.79024">
        <ele>1651.4000244141</ele>
        <time>2020-06-06T09:04:40.000Z</time>
      </trkpt>
      <trkpt lat="44.18964" lon="6.79034">
        <ele>1651.1999511719</ele>
        <time>2020-06-06T09:04:42.000Z</time>
      </trkpt>
      <trkpt lat="44.18964" lon="6.7905">
        <ele>1650.1999511719</ele>
        <time>2020-06-06T09:04:47.000Z</time>
      </trkpt>
      <trkpt lat="44.18964" lon="6.79065">
        <ele>1651.5999755859</ele>
        <time>2020-06-06T09:04:53.000Z</time>
      </trkpt>
      <trkpt lat="44.18963" lon="6.7907">
        <ele>1651.8000488281</ele>
        <time>2020-06-06T09:04:55.000Z</time>
      </trkpt>
      <trkpt lat="44.18961" lon="6.79075">
        <ele>1652.5999755859</ele>
        <time>2020-06-06T09:04:58.000Z</time>
      </trkpt>
      <trkpt lat="44.18961" lon="6.79077">
        <ele>1652.8000488281</ele>
        <time>2020-06-06T09:04:59.000Z</time>
      </trkpt>
      <trkpt lat="44.1896" lon="6.79084">
        <ele>1653.8000488281</ele>
        <time>2020-06-06T09:05:03.000Z</time>
      </trkpt>
      <trkpt lat="44.18959" lon="6.79085">
        <ele>1654</ele>
        <time>2020-06-06T09:05:04.000Z</time>
      </trkpt>
      <trkpt lat="44.18955" lon="6.79094">
        <ele>1654.1999511719</ele>
        <time>2020-06-06T09:05:08.000Z</time>
      </trkpt>
      <trkpt lat="44.18951" lon="6.79108">
        <ele>1654</ele>
        <time>2020-06-06T09:05:11.000Z</time>
      </trkpt>
      <trkpt lat="44.18946" lon="6.79127">
        <ele>1653.1999511719</ele>
        <time>2020-06-06T09:05:16.000Z</time>
      </trkpt>
      <trkpt lat="44.18946" lon="6.7913">
        <ele>1653.4000244141</ele>
        <time>2020-06-06T09:05:17.000Z</time>
      </trkpt>
      <trkpt lat="44.18946" lon="6.79143">
        <ele>1654.5999755859</ele>
        <time>2020-06-06T09:05:21.000Z</time>
      </trkpt>
      <trkpt lat="44.18947" lon="6.79148">
        <ele>1655.1999511719</ele>
        <time>2020-06-06T09:05:23.000Z</time>
      </trkpt>
      <trkpt lat="44.1895" lon="6.79154">
        <ele>1656</ele>
        <time>2020-06-06T09:05:26.000Z</time>
      </trkpt>
      <trkpt lat="44.1895" lon="6.79156">
        <ele>1656.4000244141</ele>
        <time>2020-06-06T09:05:27.000Z</time>
      </trkpt>
      <trkpt lat="44.18948" lon="6.79163">
        <ele>1657.4000244141</ele>
        <time>2020-06-06T09:05:31.000Z</time>
      </trkpt>
      <trkpt lat="44.18948" lon="6.79165">
        <ele>1657.5999755859</ele>
        <time>2020-06-06T09:05:32.000Z</time>
      </trkpt>
      <trkpt lat="44.18945" lon="6.7917">
        <ele>1658.1999511719</ele>
        <time>2020-06-06T09:05:36.000Z</time>
      </trkpt>
      <trkpt lat="44.18943" lon="6.79174">
        <ele>1658.4000244141</ele>
        <time>2020-06-06T09:05:39.000Z</time>
      </trkpt>
      <trkpt lat="44.18941" lon="6.79176">
        <ele>1658.5999755859</ele>
        <time>2020-06-06T09:05:41.000Z</time>
      </trkpt>
      <trkpt lat="44.1894" lon="6.79177">
        <ele>1658.8000488281</ele>
        <time>2020-06-06T09:05:42.000Z</time>
      </trkpt>
      <trkpt lat="44.18937" lon="6.79185">
        <ele>1659.5999755859</ele>
        <time>2020-06-06T09:05:48.000Z</time>
      </trkpt>
      <trkpt lat="44.18939" lon="6.79186">
        <ele>1660</ele>
        <time>2020-06-06T09:05:53.000Z</time>
      </trkpt>
      <trkpt lat="44.18938" lon="6.79192">
        <ele>1660.5999755859</ele>
        <time>2020-06-06T09:05:58.000Z</time>
      </trkpt>
      <trkpt lat="44.18938" lon="6.79191">
        <ele>1660.8000488281</ele>
        <time>2020-06-06T09:05:59.000Z</time>
      </trkpt>
      <trkpt lat="44.18938" lon="6.79193">
        <ele>1661.1999511719</ele>
        <time>2020-06-06T09:06:02.000Z</time>
      </trkpt>
      <trkpt lat="44.18938" lon="6.79193">
        <ele>1661.4000244141</ele>
        <time>2020-06-06T09:06:03.000Z</time>
      </trkpt>
      <trkpt lat="44.18938" lon="6.79194">
        <ele>1661.1999511719</ele>
        <time>2020-06-06T09:06:09.000Z</time>
      </trkpt>
      <trkpt lat="44.18938" lon="6.79196">
        <ele>1661</ele>
        <time>2020-06-06T09:06:17.000Z</time>
      </trkpt>
      <trkpt lat="44.18938" lon="6.79197">
        <ele>1661.1999511719</ele>
        <time>2020-06-06T09:06:26.000Z</time>
      </trkpt>
      <trkpt lat="44.18937" lon="6.79198">
        <ele>1661.1999511719</ele>
        <time>2020-06-06T09:06:40.000Z</time>
      </trkpt>
      <trkpt lat="44.18936" lon="6.79198">
        <ele>1661.1999511719</ele>
        <time>2020-06-06T09:06:53.000Z</time>
      </trkpt>
      <trkpt lat="44.18935" lon="6.792">
        <ele>1661.1999511719</ele>
        <time>2020-06-06T09:07:10.000Z</time>
      </trkpt>
      <trkpt lat="44.18934" lon="6.79201">
        <ele>1661</ele>
        <time>2020-06-06T09:07:15.000Z</time>
      </trkpt>
      <trkpt lat="44.18935" lon="6.79201">
        <ele>1661</ele>
        <time>2020-06-06T09:07:16.000Z</time>
      </trkpt>
      <trkpt lat="44.18934" lon="6.79203">
        <ele>1661.4000244141</ele>
        <time>2020-06-06T09:07:23.000Z</time>
      </trkpt>
      <trkpt lat="44.18933" lon="6.79202">
        <ele>1661.4000244141</ele>
        <time>2020-06-06T09:07:24.000Z</time>
      </trkpt>
      <trkpt lat="44.18933" lon="6.79204">
        <ele>1661.1999511719</ele>
        <time>2020-06-06T09:07:26.000Z</time>
      </trkpt>
      <trkpt lat="44.18933" lon="6.7921">
        <ele>1661.5999755859</ele>
        <time>2020-06-06T09:07:32.000Z</time>
      </trkpt>
      <trkpt lat="44.18933" lon="6.79212">
        <ele>1662</ele>
        <time>2020-06-06T09:07:34.000Z</time>
      </trkpt>
      <trkpt lat="44.18932" lon="6.79215">
        <ele>1662.8000488281</ele>
        <time>2020-06-06T09:07:38.000Z</time>
      </trkpt>
      <trkpt lat="44.18933" lon="6.79217">
        <ele>1663</ele>
        <time>2020-06-06T09:07:40.000Z</time>
      </trkpt>
      <trkpt lat="44.18933" lon="6.79219">
        <ele>1664</ele>
        <time>2020-06-06T09:07:45.000Z</time>
      </trkpt>
      <trkpt lat="44.18933" lon="6.79219">
        <ele>1664.1999511719</ele>
        <time>2020-06-06T09:07:46.000Z</time>
      </trkpt>
      <trkpt lat="44.18935" lon="6.79223">
        <ele>1664.5999755859</ele>
        <time>2020-06-06T09:07:51.000Z</time>
      </trkpt>
      <trkpt lat="44.18937" lon="6.79229">
        <ele>1665.1999511719</ele>
        <time>2020-06-06T09:07:56.000Z</time>
      </trkpt>
      <trkpt lat="44.18939" lon="6.79232">
        <ele>1665.4000244141</ele>
        <time>2020-06-06T09:07:59.000Z</time>
      </trkpt>
      <trkpt lat="44.1894" lon="6.79239">
        <ele>1665</ele>
        <time>2020-06-06T09:08:03.000Z</time>
      </trkpt>
      <trkpt lat="44.18937" lon="6.79246">
        <ele>1665.4000244141</ele>
        <time>2020-06-06T09:08:08.000Z</time>
      </trkpt>
      <trkpt lat="44.18937" lon="6.7925">
        <ele>1665.5999755859</ele>
        <time>2020-06-06T09:08:10.000Z</time>
      </trkpt>
      <trkpt lat="44.18937" lon="6.79252">
        <ele>1665.8000488281</ele>
        <time>2020-06-06T09:08:12.000Z</time>
      </trkpt>
      <trkpt lat="44.1894" lon="6.79259">
        <ele>1665.5999755859</ele>
        <time>2020-06-06T09:08:16.000Z</time>
      </trkpt>
      <trkpt lat="44.18939" lon="6.79263">
        <ele>1664.5999755859</ele>
        <time>2020-06-06T09:08:19.000Z</time>
      </trkpt>
      <trkpt lat="44.18939" lon="6.79265">
        <ele>1664.1999511719</ele>
        <time>2020-06-06T09:08:20.000Z</time>
      </trkpt>
      <trkpt lat="44.1894" lon="6.79266">
        <ele>1664.1999511719</ele>
        <time>2020-06-06T09:08:21.000Z</time>
      </trkpt>
      <trkpt lat="44.18942" lon="6.79272">
        <ele>1662.8000488281</ele>
        <time>2020-06-06T09:08:25.000Z</time>
      </trkpt>
      <trkpt lat="44.18944" lon="6.79275">
        <ele>1662.1999511719</ele>
        <time>2020-06-06T09:08:29.000Z</time>
      </trkpt>
      <trkpt lat="44.18945" lon="6.79277">
        <ele>1662.1999511719</ele>
        <time>2020-06-06T09:08:31.000Z</time>
      </trkpt>
      <trkpt lat="44.18947" lon="6.79277">
        <ele>1663.4000244141</ele>
        <time>2020-06-06T09:08:38.000Z</time>
      </trkpt>
      <trkpt lat="44.18948" lon="6.79277">
        <ele>1664</ele>
        <time>2020-06-06T09:08:41.000Z</time>
      </trkpt>
      <trkpt lat="44.18951" lon="6.79278">
        <ele>1664.5999755859</ele>
        <time>2020-06-06T09:08:45.000Z</time>
      </trkpt>
      <trkpt lat="44.18952" lon="6.7928">
        <ele>1665</ele>
        <time>2020-06-06T09:08:48.000Z</time>
      </trkpt>
      <trkpt lat="44.18955" lon="6.79282">
        <ele>1665.4000244141</ele>
        <time>2020-06-06T09:08:52.000Z</time>
      </trkpt>
      <trkpt lat="44.18959" lon="6.79288">
        <ele>1664.8000488281</ele>
        <time>2020-06-06T09:08:59.000Z</time>
      </trkpt>
      <trkpt lat="44.18961" lon="6.79292">
        <ele>1665.1999511719</ele>
        <time>2020-06-06T09:09:05.000Z</time>
      </trkpt>
      <trkpt lat="44.18962" lon="6.79294">
        <ele>1666.1999511719</ele>
        <time>2020-06-06T09:09:10.000Z</time>
      </trkpt>
      <trkpt lat="44.18963" lon="6.79295">
        <ele>1667.4000244141</ele>
        <time>2020-06-06T09:09:14.000Z</time>
      </trkpt>
      <trkpt lat="44.18965" lon="6.79296">
        <ele>1668.4000244141</ele>
        <time>2020-06-06T09:09:18.000Z</time>
      </trkpt>
      <trkpt lat="44.18966" lon="6.79297">
        <ele>1668.8000488281</ele>
        <time>2020-06-06T09:09:20.000Z</time>
      </trkpt>
      <trkpt lat="44.18969" lon="6.79297">
        <ele>1669.4000244141</ele>
        <time>2020-06-06T09:09:24.000Z</time>
      </trkpt>
      <trkpt lat="44.18973" lon="6.79298">
        <ele>1670.4000244141</ele>
        <time>2020-06-06T09:09:28.000Z</time>
      </trkpt>
      <trkpt lat="44.18973" lon="6.79299">
        <ele>1670.5999755859</ele>
        <time>2020-06-06T09:09:29.000Z</time>
      </trkpt>
      <trkpt lat="44.18977" lon="6.79302">
        <ele>1671.5999755859</ele>
        <time>2020-06-06T09:09:34.000Z</time>
      </trkpt>
      <trkpt lat="44.18978" lon="6.79302">
        <ele>1671.8000488281</ele>
        <time>2020-06-06T09:09:35.000Z</time>
      </trkpt>
      <trkpt lat="44.18983" lon="6.79304">
        <ele>1672.1999511719</ele>
        <time>2020-06-06T09:09:41.000Z</time>
      </trkpt>
      <trkpt lat="44.18985" lon="6.79304">
        <ele>1672.8000488281</ele>
        <time>2020-06-06T09:09:44.000Z</time>
      </trkpt>
      <trkpt lat="44.18989" lon="6.79306">
        <ele>1673.8000488281</ele>
        <time>2020-06-06T09:09:49.000Z</time>
      </trkpt>
      <trkpt lat="44.18993" lon="6.79309">
        <ele>1674.8000488281</ele>
        <time>2020-06-06T09:09:55.000Z</time>
      </trkpt>
      <trkpt lat="44.18994" lon="6.79309">
        <ele>1675</ele>
        <time>2020-06-06T09:09:56.000Z</time>
      </trkpt>
      <trkpt lat="44.18999" lon="6.79311">
        <ele>1676</ele>
        <time>2020-06-06T09:10:01.000Z</time>
      </trkpt>
      <trkpt lat="44.19001" lon="6.79311">
        <ele>1676.1999511719</ele>
        <time>2020-06-06T09:10:03.000Z</time>
      </trkpt>
      <trkpt lat="44.19001" lon="6.79312">
        <ele>1677</ele>
        <time>2020-06-06T09:10:07.000Z</time>
      </trkpt>
      <trkpt lat="44.19001" lon="6.79311">
        <ele>1677</ele>
        <time>2020-06-06T09:10:10.000Z</time>
      </trkpt>
      <trkpt lat="44.19007" lon="6.79311">
        <ele>1677</ele>
        <time>2020-06-06T09:10:16.000Z</time>
      </trkpt>
      <trkpt lat="44.19016" lon="6.79311">
        <ele>1678</ele>
        <time>2020-06-06T09:10:23.000Z</time>
      </trkpt>
      <trkpt lat="44.19017" lon="6.79312">
        <ele>1678.1999511719</ele>
        <time>2020-06-06T09:10:24.000Z</time>
      </trkpt>
      <trkpt lat="44.1902" lon="6.79318">
        <ele>1679</ele>
        <time>2020-06-06T09:10:28.000Z</time>
      </trkpt>
      <trkpt lat="44.19021" lon="6.79319">
        <ele>1679.1999511719</ele>
        <time>2020-06-06T09:10:29.000Z</time>
      </trkpt>
      <trkpt lat="44.19023" lon="6.79331">
        <ele>1680.1999511719</ele>
        <time>2020-06-06T09:10:35.000Z</time>
      </trkpt>
      <trkpt lat="44.19023" lon="6.79332">
        <ele>1680.5999755859</ele>
        <time>2020-06-06T09:10:36.000Z</time>
      </trkpt>
      <trkpt lat="44.19024" lon="6.79335">
        <ele>1681.1999511719</ele>
        <time>2020-06-06T09:10:39.000Z</time>
      </trkpt>
      <trkpt lat="44.19025" lon="6.79339">
        <ele>1681.5999755859</ele>
        <time>2020-06-06T09:10:41.000Z</time>
      </trkpt>
      <trkpt lat="44.19026" lon="6.79341">
        <ele>1681.5999755859</ele>
        <time>2020-06-06T09:10:42.000Z</time>
      </trkpt>
      <trkpt lat="44.19027" lon="6.79343">
        <ele>1682</ele>
        <time>2020-06-06T09:10:44.000Z</time>
      </trkpt>
      <trkpt lat="44.19028" lon="6.79344">
        <ele>1682.4000244141</ele>
        <time>2020-06-06T09:10:45.000Z</time>
      </trkpt>
      <trkpt lat="44.1903" lon="6.79349">
        <ele>1682.8000488281</ele>
        <time>2020-06-06T09:10:48.000Z</time>
      </trkpt>
      <trkpt lat="44.1903" lon="6.7935">
        <ele>1682.8000488281</ele>
        <time>2020-06-06T09:10:49.000Z</time>
      </trkpt>
      <trkpt lat="44.1903" lon="6.7935">
        <ele>1683.4000244141</ele>
        <time>2020-06-06T09:10:51.000Z</time>
      </trkpt>
      <trkpt lat="44.19032" lon="6.79354">
        <ele>1683.8000488281</ele>
        <time>2020-06-06T09:10:55.000Z</time>
      </trkpt>
      <trkpt lat="44.19034" lon="6.79357">
        <ele>1684.4000244141</ele>
        <time>2020-06-06T09:10:59.000Z</time>
      </trkpt>
      <trkpt lat="44.19035" lon="6.79359">
        <ele>1685</ele>
        <time>2020-06-06T09:11:02.000Z</time>
      </trkpt>
      <trkpt lat="44.19037" lon="6.7936">
        <ele>1685.4000244141</ele>
        <time>2020-06-06T09:11:07.000Z</time>
      </trkpt>
      <trkpt lat="44.19038" lon="6.79361">
        <ele>1685.4000244141</ele>
        <time>2020-06-06T09:11:08.000Z</time>
      </trkpt>
      <trkpt lat="44.1904" lon="6.79362">
        <ele>1685.4000244141</ele>
        <time>2020-06-06T09:11:09.000Z</time>
      </trkpt>
      <trkpt lat="44.19046" lon="6.7936">
        <ele>1685.1999511719</ele>
        <time>2020-06-06T09:11:12.000Z</time>
      </trkpt>
      <trkpt lat="44.19053" lon="6.79361">
        <ele>1684.4000244141</ele>
        <time>2020-06-06T09:11:14.000Z</time>
      </trkpt>
      <trkpt lat="44.19055" lon="6.79362">
        <ele>1683.5999755859</ele>
        <time>2020-06-06T09:11:15.000Z</time>
      </trkpt>
      <trkpt lat="44.19056" lon="6.79362">
        <ele>1683.1999511719</ele>
        <time>2020-06-06T09:11:16.000Z</time>
      </trkpt>
      <trkpt lat="44.19057" lon="6.79362">
        <ele>1682.5999755859</ele>
        <time>2020-06-06T09:11:18.000Z</time>
      </trkpt>
      <trkpt lat="44.19061" lon="6.79363">
        <ele>1682.8000488281</ele>
        <time>2020-06-06T09:11:23.000Z</time>
      </trkpt>
      <trkpt lat="44.19062" lon="6.79364">
        <ele>1682.5999755859</ele>
        <time>2020-06-06T09:11:27.000Z</time>
      </trkpt>
      <trkpt lat="44.19067" lon="6.79367">
        <ele>1682.8000488281</ele>
        <time>2020-06-06T09:11:34.000Z</time>
      </trkpt>
      <trkpt lat="44.19069" lon="6.79369">
        <ele>1683.5999755859</ele>
        <time>2020-06-06T09:11:40.000Z</time>
      </trkpt>
      <trkpt lat="44.19071" lon="6.79373">
        <ele>1684.4000244141</ele>
        <time>2020-06-06T09:11:45.000Z</time>
      </trkpt>
      <trkpt lat="44.19071" lon="6.79373">
        <ele>1684.5999755859</ele>
        <time>2020-06-06T09:11:46.000Z</time>
      </trkpt>
      <trkpt lat="44.19072" lon="6.79378">
        <ele>1685.5999755859</ele>
        <time>2020-06-06T09:11:52.000Z</time>
      </trkpt>
      <trkpt lat="44.19072" lon="6.79377">
        <ele>1685.5999755859</ele>
        <time>2020-06-06T09:11:53.000Z</time>
      </trkpt>
      <trkpt lat="44.19074" lon="6.79381">
        <ele>1686.5999755859</ele>
        <time>2020-06-06T09:11:58.000Z</time>
      </trkpt>
      <trkpt lat="44.19075" lon="6.79384">
        <ele>1687.1999511719</ele>
        <time>2020-06-06T09:12:04.000Z</time>
      </trkpt>
      <trkpt lat="44.19075" lon="6.79387">
        <ele>1687.8000488281</ele>
        <time>2020-06-06T09:12:09.000Z</time>
      </trkpt>
      <trkpt lat="44.19075" lon="6.7939">
        <ele>1688.1999511719</ele>
        <time>2020-06-06T09:12:12.000Z</time>
      </trkpt>
      <trkpt lat="44.19076" lon="6.79392">
        <ele>1688.8000488281</ele>
        <time>2020-06-06T09:12:15.000Z</time>
      </trkpt>
      <trkpt lat="44.19076" lon="6.79393">
        <ele>1689</ele>
        <time>2020-06-06T09:12:17.000Z</time>
      </trkpt>
      <trkpt lat="44.19077" lon="6.794">
        <ele>1689.1999511719</ele>
        <time>2020-06-06T09:12:24.000Z</time>
      </trkpt>
      <trkpt lat="44.19078" lon="6.79407">
        <ele>1689.5999755859</ele>
        <time>2020-06-06T09:12:31.000Z</time>
      </trkpt>
      <trkpt lat="44.19078" lon="6.79407">
        <ele>1689.8000488281</ele>
        <time>2020-06-06T09:12:32.000Z</time>
      </trkpt>
      <trkpt lat="44.19079" lon="6.79413">
        <ele>1690</ele>
        <time>2020-06-06T09:12:37.000Z</time>
      </trkpt>
      <trkpt lat="44.19083" lon="6.79419">
        <ele>1690.1999511719</ele>
        <time>2020-06-06T09:12:43.000Z</time>
      </trkpt>
      <trkpt lat="44.19086" lon="6.79421">
        <ele>1690</ele>
        <time>2020-06-06T09:12:47.000Z</time>
      </trkpt>
      <trkpt lat="44.19091" lon="6.79424">
        <ele>1690.4000244141</ele>
        <time>2020-06-06T09:12:52.000Z</time>
      </trkpt>
      <trkpt lat="44.19097" lon="6.79426">
        <ele>1690.8000488281</ele>
        <time>2020-06-06T09:12:58.000Z</time>
      </trkpt>
      <trkpt lat="44.19098" lon="6.79427">
        <ele>1691</ele>
        <time>2020-06-06T09:13:00.000Z</time>
      </trkpt>
      <trkpt lat="44.19101" lon="6.7943">
        <ele>1692</ele>
        <time>2020-06-06T09:13:04.000Z</time>
      </trkpt>
      <trkpt lat="44.19103" lon="6.79431">
        <ele>1692.1999511719</ele>
        <time>2020-06-06T09:13:06.000Z</time>
      </trkpt>
      <trkpt lat="44.19103" lon="6.79432">
        <ele>1692.4000244141</ele>
        <time>2020-06-06T09:13:07.000Z</time>
      </trkpt>
      <trkpt lat="44.19106" lon="6.79436">
        <ele>1693</ele>
        <time>2020-06-06T09:13:12.000Z</time>
      </trkpt>
      <trkpt lat="44.19107" lon="6.79437">
        <ele>1693.1999511719</ele>
        <time>2020-06-06T09:13:13.000Z</time>
      </trkpt>
      <trkpt lat="44.19108" lon="6.79438">
        <ele>1694</ele>
        <time>2020-06-06T09:13:17.000Z</time>
      </trkpt>
      <trkpt lat="44.19109" lon="6.79439">
        <ele>1694.1999511719</ele>
        <time>2020-06-06T09:13:19.000Z</time>
      </trkpt>
      <trkpt lat="44.19111" lon="6.79441">
        <ele>1694.4000244141</ele>
        <time>2020-06-06T09:13:23.000Z</time>
      </trkpt>
      <trkpt lat="44.19111" lon="6.79443">
        <ele>1694.5999755859</ele>
        <time>2020-06-06T09:13:25.000Z</time>
      </trkpt>
      <trkpt lat="44.19111" lon="6.79445">
        <ele>1695</ele>
        <time>2020-06-06T09:13:27.000Z</time>
      </trkpt>
      <trkpt lat="44.19112" lon="6.79448">
        <ele>1695.4000244141</ele>
        <time>2020-06-06T09:13:31.000Z</time>
      </trkpt>
      <trkpt lat="44.19115" lon="6.79449">
        <ele>1695.8000488281</ele>
        <time>2020-06-06T09:13:35.000Z</time>
      </trkpt>
      <trkpt lat="44.19116" lon="6.79451">
        <ele>1696.1999511719</ele>
        <time>2020-06-06T09:13:37.000Z</time>
      </trkpt>
      <trkpt lat="44.1912" lon="6.79456">
        <ele>1696.1999511719</ele>
        <time>2020-06-06T09:13:44.000Z</time>
      </trkpt>
      <trkpt lat="44.19123" lon="6.79459">
        <ele>1696.5999755859</ele>
        <time>2020-06-06T09:13:50.000Z</time>
      </trkpt>
      <trkpt lat="44.19126" lon="6.79461">
        <ele>1697.1999511719</ele>
        <time>2020-06-06T09:13:55.000Z</time>
      </trkpt>
      <trkpt lat="44.1913" lon="6.79463">
        <ele>1697.8000488281</ele>
        <time>2020-06-06T09:13:59.000Z</time>
      </trkpt>
      <trkpt lat="44.19131" lon="6.79463">
        <ele>1698.1999511719</ele>
        <time>2020-06-06T09:14:01.000Z</time>
      </trkpt>
      <trkpt lat="44.19135" lon="6.79466">
        <ele>1699</ele>
        <time>2020-06-06T09:14:07.000Z</time>
      </trkpt>
      <trkpt lat="44.19136" lon="6.79466">
        <ele>1699.1999511719</ele>
        <time>2020-06-06T09:14:08.000Z</time>
      </trkpt>
      <trkpt lat="44.19138" lon="6.79473">
        <ele>1700.1999511719</ele>
        <time>2020-06-06T09:14:14.000Z</time>
      </trkpt>
      <trkpt lat="44.19138" lon="6.79475">
        <ele>1700.4000244141</ele>
        <time>2020-06-06T09:14:16.000Z</time>
      </trkpt>
      <trkpt lat="44.19137" lon="6.79479">
        <ele>1700.8000488281</ele>
        <time>2020-06-06T09:14:21.000Z</time>
      </trkpt>
      <trkpt lat="44.19137" lon="6.79482">
        <ele>1701.1999511719</ele>
        <time>2020-06-06T09:14:26.000Z</time>
      </trkpt>
      <trkpt lat="44.19138" lon="6.79484">
        <ele>1701.5999755859</ele>
        <time>2020-06-06T09:14:29.000Z</time>
      </trkpt>
      <trkpt lat="44.19138" lon="6.79484">
        <ele>1701.8000488281</ele>
        <time>2020-06-06T09:14:30.000Z</time>
      </trkpt>
      <trkpt lat="44.19138" lon="6.79487">
        <ele>1701.8000488281</ele>
        <time>2020-06-06T09:14:35.000Z</time>
      </trkpt>
      <trkpt lat="44.19138" lon="6.79489">
        <ele>1702.8000488281</ele>
        <time>2020-06-06T09:14:39.000Z</time>
      </trkpt>
      <trkpt lat="44.19138" lon="6.79489">
        <ele>1703</ele>
        <time>2020-06-06T09:14:40.000Z</time>
      </trkpt>
      <trkpt lat="44.19139" lon="6.7949">
        <ele>1703.1999511719</ele>
        <time>2020-06-06T09:14:41.000Z</time>
      </trkpt>
      <trkpt lat="44.19139" lon="6.79491">
        <ele>1703.4000244141</ele>
        <time>2020-06-06T09:14:43.000Z</time>
      </trkpt>
      <trkpt lat="44.19138" lon="6.79491">
        <ele>1703.5999755859</ele>
        <time>2020-06-06T09:14:45.000Z</time>
      </trkpt>
      <trkpt lat="44.19137" lon="6.79492">
        <ele>1703.8000488281</ele>
        <time>2020-06-06T09:14:48.000Z</time>
      </trkpt>
      <trkpt lat="44.19136" lon="6.79492">
        <ele>1704</ele>
        <time>2020-06-06T09:14:50.000Z</time>
      </trkpt>
      <trkpt lat="44.19136" lon="6.79494">
        <ele>1704.8000488281</ele>
        <time>2020-06-06T09:14:56.000Z</time>
      </trkpt>
      <trkpt lat="44.19135" lon="6.79495">
        <ele>1705.5999755859</ele>
        <time>2020-06-06T09:15:01.000Z</time>
      </trkpt>
      <trkpt lat="44.19135" lon="6.79495">
        <ele>1705.5999755859</ele>
        <time>2020-06-06T09:15:02.000Z</time>
      </trkpt>
      <trkpt lat="44.19135" lon="6.79497">
        <ele>1706</ele>
        <time>2020-06-06T09:15:05.000Z</time>
      </trkpt>
      <trkpt lat="44.19136" lon="6.79498">
        <ele>1706.1999511719</ele>
        <time>2020-06-06T09:15:07.000Z</time>
      </trkpt>
      <trkpt lat="44.19136" lon="6.79499">
        <ele>1706.8000488281</ele>
        <time>2020-06-06T09:15:11.000Z</time>
      </trkpt>
      <trkpt lat="44.19135" lon="6.795">
        <ele>1707</ele>
        <time>2020-06-06T09:15:14.000Z</time>
      </trkpt>
      <trkpt lat="44.19136" lon="6.79501">
        <ele>1707.1999511719</ele>
        <time>2020-06-06T09:15:16.000Z</time>
      </trkpt>
      <trkpt lat="44.19137" lon="6.79503">
        <ele>1708</ele>
        <time>2020-06-06T09:15:20.000Z</time>
      </trkpt>
      <trkpt lat="44.19138" lon="6.79503">
        <ele>1708.1999511719</ele>
        <time>2020-06-06T09:15:21.000Z</time>
      </trkpt>
      <trkpt lat="44.1914" lon="6.79504">
        <ele>1708.5999755859</ele>
        <time>2020-06-06T09:15:24.000Z</time>
      </trkpt>
      <trkpt lat="44.19141" lon="6.79505">
        <ele>1709.1999511719</ele>
        <time>2020-06-06T09:15:27.000Z</time>
      </trkpt>
      <trkpt lat="44.19143" lon="6.79505">
        <ele>1709.8000488281</ele>
        <time>2020-06-06T09:15:30.000Z</time>
      </trkpt>
      <trkpt lat="44.19144" lon="6.79506">
        <ele>1710.1999511719</ele>
        <time>2020-06-06T09:15:33.000Z</time>
      </trkpt>
      <trkpt lat="44.19145" lon="6.79505">
        <ele>1711</ele>
        <time>2020-06-06T09:15:38.000Z</time>
      </trkpt>
      <trkpt lat="44.19146" lon="6.79503">
        <ele>1711.4000244141</ele>
        <time>2020-06-06T09:15:41.000Z</time>
      </trkpt>
      <trkpt lat="44.19145" lon="6.79498">
        <ele>1711.1999511719</ele>
        <time>2020-06-06T09:15:54.000Z</time>
      </trkpt>
      <trkpt lat="44.19145" lon="6.79496">
        <ele>1711.1999511719</ele>
        <time>2020-06-06T09:16:01.000Z</time>
      </trkpt>
      <trkpt lat="44.19154" lon="6.79498">
        <ele>1711.8000488281</ele>
        <time>2020-06-06T09:16:10.000Z</time>
      </trkpt>
      <trkpt lat="44.19159" lon="6.795">
        <ele>1712.4000244141</ele>
        <time>2020-06-06T09:16:15.000Z</time>
      </trkpt>
      <trkpt lat="44.19163" lon="6.79502">
        <ele>1713</ele>
        <time>2020-06-06T09:16:18.000Z</time>
      </trkpt>
      <trkpt lat="44.19167" lon="6.79503">
        <ele>1713.4000244141</ele>
        <time>2020-06-06T09:16:23.000Z</time>
      </trkpt>
      <trkpt lat="44.19171" lon="6.79502">
        <ele>1714.5999755859</ele>
        <time>2020-06-06T09:16:27.000Z</time>
      </trkpt>
      <trkpt lat="44.19175" lon="6.79502">
        <ele>1715.1999511719</ele>
        <time>2020-06-06T09:16:32.000Z</time>
      </trkpt>
      <trkpt lat="44.19178" lon="6.79502">
        <ele>1715.5999755859</ele>
        <time>2020-06-06T09:16:35.000Z</time>
      </trkpt>
      <trkpt lat="44.19178" lon="6.79502">
        <ele>1715.8000488281</ele>
        <time>2020-06-06T09:16:36.000Z</time>
      </trkpt>
      <trkpt lat="44.19181" lon="6.79498">
        <ele>1716.8000488281</ele>
        <time>2020-06-06T09:16:41.000Z</time>
      </trkpt>
      <trkpt lat="44.19182" lon="6.79491">
        <ele>1717.1999511719</ele>
        <time>2020-06-06T09:16:43.000Z</time>
      </trkpt>
      <trkpt lat="44.19186" lon="6.79478">
        <ele>1718</ele>
        <time>2020-06-06T09:16:49.000Z</time>
      </trkpt>
      <trkpt lat="44.19186" lon="6.79478">
        <ele>1718.1999511719</ele>
        <time>2020-06-06T09:16:50.000Z</time>
      </trkpt>
      <trkpt lat="44.19192" lon="6.79476">
        <ele>1719</ele>
        <time>2020-06-06T09:16:57.000Z</time>
      </trkpt>
      <trkpt lat="44.19194" lon="6.79478">
        <ele>1719.4000244141</ele>
        <time>2020-06-06T09:17:00.000Z</time>
      </trkpt>
      <trkpt lat="44.19197" lon="6.79483">
        <ele>1720.1999511719</ele>
        <time>2020-06-06T09:17:05.000Z</time>
      </trkpt>
      <trkpt lat="44.192" lon="6.79488">
        <ele>1720.8000488281</ele>
        <time>2020-06-06T09:17:09.000Z</time>
      </trkpt>
      <trkpt lat="44.19201" lon="6.79489">
        <ele>1721.4000244141</ele>
        <time>2020-06-06T09:17:11.000Z</time>
      </trkpt>
      <trkpt lat="44.19206" lon="6.79492">
        <ele>1722.1999511719</ele>
        <time>2020-06-06T09:17:16.000Z</time>
      </trkpt>
      <trkpt lat="44.19207" lon="6.79492">
        <ele>1722.4000244141</ele>
        <time>2020-06-06T09:17:17.000Z</time>
      </trkpt>
      <trkpt lat="44.19212" lon="6.79494">
        <ele>1723.1999511719</ele>
        <time>2020-06-06T09:17:23.000Z</time>
      </trkpt>
      <trkpt lat="44.19213" lon="6.79494">
        <ele>1723.4000244141</ele>
        <time>2020-06-06T09:17:24.000Z</time>
      </trkpt>
      <trkpt lat="44.19217" lon="6.79496">
        <ele>1724.5999755859</ele>
        <time>2020-06-06T09:17:29.000Z</time>
      </trkpt>
      <trkpt lat="44.19219" lon="6.79497">
        <ele>1725</ele>
        <time>2020-06-06T09:17:31.000Z</time>
      </trkpt>
      <trkpt lat="44.19224" lon="6.79501">
        <ele>1725.5999755859</ele>
        <time>2020-06-06T09:17:38.000Z</time>
      </trkpt>
      <trkpt lat="44.19225" lon="6.79502">
        <ele>1725.8000488281</ele>
        <time>2020-06-06T09:17:40.000Z</time>
      </trkpt>
      <trkpt lat="44.19229" lon="6.79504">
        <ele>1726.8000488281</ele>
        <time>2020-06-06T09:17:45.000Z</time>
      </trkpt>
      <trkpt lat="44.19232" lon="6.79505">
        <ele>1727.5999755859</ele>
        <time>2020-06-06T09:17:49.000Z</time>
      </trkpt>
      <trkpt lat="44.19233" lon="6.79505">
        <ele>1727.8000488281</ele>
        <time>2020-06-06T09:17:51.000Z</time>
      </trkpt>
      <trkpt lat="44.19237" lon="6.79504">
        <ele>1728.8000488281</ele>
        <time>2020-06-06T09:17:58.000Z</time>
      </trkpt>
      <trkpt lat="44.19242" lon="6.79504">
        <ele>1729.8000488281</ele>
        <time>2020-06-06T09:18:05.000Z</time>
      </trkpt>
      <trkpt lat="44.19244" lon="6.79507">
        <ele>1730</ele>
        <time>2020-06-06T09:18:07.000Z</time>
      </trkpt>
      <trkpt lat="44.19248" lon="6.79514">
        <ele>1731</ele>
        <time>2020-06-06T09:18:12.000Z</time>
      </trkpt>
      <trkpt lat="44.19249" lon="6.79516">
        <ele>1731.1999511719</ele>
        <time>2020-06-06T09:18:13.000Z</time>
      </trkpt>
      <trkpt lat="44.19252" lon="6.79524">
        <ele>1732</ele>
        <time>2020-06-06T09:18:20.000Z</time>
      </trkpt>
      <trkpt lat="44.19254" lon="6.79525">
        <ele>1732.1999511719</ele>
        <time>2020-06-06T09:18:22.000Z</time>
      </trkpt>
      <trkpt lat="44.19258" lon="6.79531">
        <ele>1733</ele>
        <time>2020-06-06T09:18:28.000Z</time>
      </trkpt>
      <trkpt lat="44.1926" lon="6.79533">
        <ele>1733.4000244141</ele>
        <time>2020-06-06T09:18:30.000Z</time>
      </trkpt>
      <trkpt lat="44.19265" lon="6.7954">
        <ele>1734</ele>
        <time>2020-06-06T09:18:37.000Z</time>
      </trkpt>
      <trkpt lat="44.19266" lon="6.79541">
        <ele>1734.4000244141</ele>
        <time>2020-06-06T09:18:40.000Z</time>
      </trkpt>
      <trkpt lat="44.1927" lon="6.79547">
        <ele>1735</ele>
        <time>2020-06-06T09:18:45.000Z</time>
      </trkpt>
      <trkpt lat="44.19276" lon="6.79552">
        <ele>1736.1999511719</ele>
        <time>2020-06-06T09:18:52.000Z</time>
      </trkpt>
      <trkpt lat="44.1928" lon="6.79555">
        <ele>1737.4000244141</ele>
        <time>2020-06-06T09:18:57.000Z</time>
      </trkpt>
      <trkpt lat="44.19283" lon="6.79559">
        <ele>1738.4000244141</ele>
        <time>2020-06-06T09:19:03.000Z</time>
      </trkpt>
      <trkpt lat="44.19286" lon="6.79562">
        <ele>1739.1999511719</ele>
        <time>2020-06-06T09:19:07.000Z</time>
      </trkpt>
      <trkpt lat="44.19288" lon="6.79564">
        <ele>1739.5999755859</ele>
        <time>2020-06-06T09:19:10.000Z</time>
      </trkpt>
      <trkpt lat="44.19291" lon="6.7957">
        <ele>1740.5999755859</ele>
        <time>2020-06-06T09:19:16.000Z</time>
      </trkpt>
      <trkpt lat="44.19292" lon="6.79571">
        <ele>1741</ele>
        <time>2020-06-06T09:19:18.000Z</time>
      </trkpt>
      <trkpt lat="44.19296" lon="6.79578">
        <ele>1741.5999755859</ele>
        <time>2020-06-06T09:19:26.000Z</time>
      </trkpt>
      <trkpt lat="44.19296" lon="6.79579">
        <ele>1741.8000488281</ele>
        <time>2020-06-06T09:19:27.000Z</time>
      </trkpt>
      <trkpt lat="44.19299" lon="6.79587">
        <ele>1742.8000488281</ele>
        <time>2020-06-06T09:19:35.000Z</time>
      </trkpt>
      <trkpt lat="44.19299" lon="6.79588">
        <ele>1743</ele>
        <time>2020-06-06T09:19:36.000Z</time>
      </trkpt>
      <trkpt lat="44.19303" lon="6.79595">
        <ele>1744</ele>
        <time>2020-06-06T09:19:44.000Z</time>
      </trkpt>
      <trkpt lat="44.19303" lon="6.79596">
        <ele>1744.1999511719</ele>
        <time>2020-06-06T09:19:45.000Z</time>
      </trkpt>
      <trkpt lat="44.19304" lon="6.79603">
        <ele>1745</ele>
        <time>2020-06-06T09:19:52.000Z</time>
      </trkpt>
      <trkpt lat="44.19305" lon="6.79604">
        <ele>1745.1999511719</ele>
        <time>2020-06-06T09:19:53.000Z</time>
      </trkpt>
      <trkpt lat="44.19307" lon="6.79607">
        <ele>1746</ele>
        <time>2020-06-06T09:19:57.000Z</time>
      </trkpt>
      <trkpt lat="44.19308" lon="6.7961">
        <ele>1746.8000488281</ele>
        <time>2020-06-06T09:20:02.000Z</time>
      </trkpt>
      <trkpt lat="44.19309" lon="6.79613">
        <ele>1747.1999511719</ele>
        <time>2020-06-06T09:20:04.000Z</time>
      </trkpt>
      <trkpt lat="44.19311" lon="6.79618">
        <ele>1748</ele>
        <time>2020-06-06T09:20:09.000Z</time>
      </trkpt>
      <trkpt lat="44.19311" lon="6.7962">
        <ele>1748.1999511719</ele>
        <time>2020-06-06T09:20:11.000Z</time>
      </trkpt>
      <trkpt lat="44.19313" lon="6.79625">
        <ele>1749.4000244141</ele>
        <time>2020-06-06T09:20:17.000Z</time>
      </trkpt>
      <trkpt lat="44.19312" lon="6.79628">
        <ele>1750</ele>
        <time>2020-06-06T09:20:20.000Z</time>
      </trkpt>
      <trkpt lat="44.19313" lon="6.7963">
        <ele>1750.5999755859</ele>
        <time>2020-06-06T09:20:23.000Z</time>
      </trkpt>
      <trkpt lat="44.19316" lon="6.79635">
        <ele>1751.5999755859</ele>
        <time>2020-06-06T09:20:27.000Z</time>
      </trkpt>
      <trkpt lat="44.19316" lon="6.79636">
        <ele>1751.8000488281</ele>
        <time>2020-06-06T09:20:28.000Z</time>
      </trkpt>
      <trkpt lat="44.19319" lon="6.7964">
        <ele>1752.4000244141</ele>
        <time>2020-06-06T09:20:33.000Z</time>
      </trkpt>
      <trkpt lat="44.19319" lon="6.79641">
        <ele>1752.5999755859</ele>
        <time>2020-06-06T09:20:35.000Z</time>
      </trkpt>
      <trkpt lat="44.19318" lon="6.79643">
        <ele>1752.8000488281</ele>
        <time>2020-06-06T09:20:36.000Z</time>
      </trkpt>
      <trkpt lat="44.19319" lon="6.79645">
        <ele>1753</ele>
        <time>2020-06-06T09:20:38.000Z</time>
      </trkpt>
      <trkpt lat="44.19324" lon="6.79654">
        <ele>1754.8000488281</ele>
        <time>2020-06-06T09:20:47.000Z</time>
      </trkpt>
      <trkpt lat="44.19325" lon="6.79656">
        <ele>1755</ele>
        <time>2020-06-06T09:20:49.000Z</time>
      </trkpt>
      <trkpt lat="44.19325" lon="6.79657">
        <ele>1755.1999511719</ele>
        <time>2020-06-06T09:20:50.000Z</time>
      </trkpt>
      <trkpt lat="44.19326" lon="6.79661">
        <ele>1755.8000488281</ele>
        <time>2020-06-06T09:20:54.000Z</time>
      </trkpt>
      <trkpt lat="44.19326" lon="6.79663">
        <ele>1756.1999511719</ele>
        <time>2020-06-06T09:20:56.000Z</time>
      </trkpt>
      <trkpt lat="44.19326" lon="6.79666">
        <ele>1757</ele>
        <time>2020-06-06T09:21:00.000Z</time>
      </trkpt>
      <trkpt lat="44.19327" lon="6.79669">
        <ele>1757.5999755859</ele>
        <time>2020-06-06T09:21:04.000Z</time>
      </trkpt>
      <trkpt lat="44.19328" lon="6.79671">
        <ele>1758</ele>
        <time>2020-06-06T09:21:06.000Z</time>
      </trkpt>
      <trkpt lat="44.19329" lon="6.79675">
        <ele>1758.8000488281</ele>
        <time>2020-06-06T09:21:11.000Z</time>
      </trkpt>
      <trkpt lat="44.19329" lon="6.79675">
        <ele>1759</ele>
        <time>2020-06-06T09:21:12.000Z</time>
      </trkpt>
      <trkpt lat="44.1933" lon="6.79681">
        <ele>1760</ele>
        <time>2020-06-06T09:21:18.000Z</time>
      </trkpt>
      <trkpt lat="44.1933" lon="6.79687">
        <ele>1761</ele>
        <time>2020-06-06T09:21:25.000Z</time>
      </trkpt>
      <trkpt lat="44.19331" lon="6.79688">
        <ele>1761.1999511719</ele>
        <time>2020-06-06T09:21:26.000Z</time>
      </trkpt>
      <trkpt lat="44.19331" lon="6.79694">
        <ele>1762.1999511719</ele>
        <time>2020-06-06T09:21:32.000Z</time>
      </trkpt>
      <trkpt lat="44.19332" lon="6.797">
        <ele>1763.1999511719</ele>
        <time>2020-06-06T09:21:38.000Z</time>
      </trkpt>
      <trkpt lat="44.19332" lon="6.79701">
        <ele>1763.4000244141</ele>
        <time>2020-06-06T09:21:40.000Z</time>
      </trkpt>
      <trkpt lat="44.19333" lon="6.79706">
        <ele>1764.1999511719</ele>
        <time>2020-06-06T09:21:46.000Z</time>
      </trkpt>
      <trkpt lat="44.19332" lon="6.79707">
        <ele>1764.4000244141</ele>
        <time>2020-06-06T09:21:47.000Z</time>
      </trkpt>
      <trkpt lat="44.19332" lon="6.79712">
        <ele>1765.4000244141</ele>
        <time>2020-06-06T09:21:53.000Z</time>
      </trkpt>
      <trkpt lat="44.19333" lon="6.79714">
        <ele>1765.5999755859</ele>
        <time>2020-06-06T09:21:55.000Z</time>
      </trkpt>
      <trkpt lat="44.19333" lon="6.79719">
        <ele>1766.4000244141</ele>
        <time>2020-06-06T09:22:01.000Z</time>
      </trkpt>
      <trkpt lat="44.19332" lon="6.79721">
        <ele>1766.5999755859</ele>
        <time>2020-06-06T09:22:03.000Z</time>
      </trkpt>
      <trkpt lat="44.19331" lon="6.79724">
        <ele>1767.4000244141</ele>
        <time>2020-06-06T09:22:07.000Z</time>
      </trkpt>
      <trkpt lat="44.19331" lon="6.79726">
        <ele>1767.8000488281</ele>
        <time>2020-06-06T09:22:09.000Z</time>
      </trkpt>
      <trkpt lat="44.1933" lon="6.79729">
        <ele>1768.5999755859</ele>
        <time>2020-06-06T09:22:13.000Z</time>
      </trkpt>
      <trkpt lat="44.19328" lon="6.79733">
        <ele>1769.1999511719</ele>
        <time>2020-06-06T09:22:17.000Z</time>
      </trkpt>
      <trkpt lat="44.19329" lon="6.79733">
        <ele>1769.5999755859</ele>
        <time>2020-06-06T09:22:20.000Z</time>
      </trkpt>
      <trkpt lat="44.19329" lon="6.79734">
        <ele>1770</ele>
        <time>2020-06-06T09:22:23.000Z</time>
      </trkpt>
      <trkpt lat="44.19332" lon="6.79737">
        <ele>1769.8000488281</ele>
        <time>2020-06-06T09:22:26.000Z</time>
      </trkpt>
      <trkpt lat="44.19333" lon="6.79739">
        <ele>1769.8000488281</ele>
        <time>2020-06-06T09:22:28.000Z</time>
      </trkpt>
      <trkpt lat="44.19332" lon="6.79742">
        <ele>1770</ele>
        <time>2020-06-06T09:22:30.000Z</time>
      </trkpt>
      <trkpt lat="44.19333" lon="6.79744">
        <ele>1770.1999511719</ele>
        <time>2020-06-06T09:22:32.000Z</time>
      </trkpt>
      <trkpt lat="44.19332" lon="6.79745">
        <ele>1770.5999755859</ele>
        <time>2020-06-06T09:22:33.000Z</time>
      </trkpt>
      <trkpt lat="44.19332" lon="6.79746">
        <ele>1770.5999755859</ele>
        <time>2020-06-06T09:22:34.000Z</time>
      </trkpt>
      <trkpt lat="44.19332" lon="6.79751">
        <ele>1771.4000244141</ele>
        <time>2020-06-06T09:22:37.000Z</time>
      </trkpt>
      <trkpt lat="44.19331" lon="6.79754">
        <ele>1771.8000488281</ele>
        <time>2020-06-06T09:22:39.000Z</time>
      </trkpt>
      <trkpt lat="44.19331" lon="6.79759">
        <ele>1772.1999511719</ele>
        <time>2020-06-06T09:22:42.000Z</time>
      </trkpt>
      <trkpt lat="44.1933" lon="6.79763">
        <ele>1772.8000488281</ele>
        <time>2020-06-06T09:22:44.000Z</time>
      </trkpt>
      <trkpt lat="44.19329" lon="6.79771">
        <ele>1774</ele>
        <time>2020-06-06T09:22:49.000Z</time>
      </trkpt>
      <trkpt lat="44.19328" lon="6.79773">
        <ele>1774.4000244141</ele>
        <time>2020-06-06T09:22:51.000Z</time>
      </trkpt>
      <trkpt lat="44.19326" lon="6.79778">
        <ele>1775</ele>
        <time>2020-06-06T09:22:54.000Z</time>
      </trkpt>
      <trkpt lat="44.19325" lon="6.7978">
        <ele>1775</ele>
        <time>2020-06-06T09:22:55.000Z</time>
      </trkpt>
      <trkpt lat="44.19324" lon="6.79782">
        <ele>1775.5999755859</ele>
        <time>2020-06-06T09:22:57.000Z</time>
      </trkpt>
      <trkpt lat="44.19323" lon="6.79785">
        <ele>1776.1999511719</ele>
        <time>2020-06-06T09:22:59.000Z</time>
      </trkpt>
      <trkpt lat="44.19322" lon="6.7979">
        <ele>1777.1999511719</ele>
        <time>2020-06-06T09:23:02.000Z</time>
      </trkpt>
      <trkpt lat="44.19321" lon="6.79792">
        <ele>1777.4000244141</ele>
        <time>2020-06-06T09:23:03.000Z</time>
      </trkpt>
      <trkpt lat="44.19321" lon="6.79793">
        <ele>1777.5999755859</ele>
        <time>2020-06-06T09:23:04.000Z</time>
      </trkpt>
      <trkpt lat="44.19323" lon="6.79796">
        <ele>1778</ele>
        <time>2020-06-06T09:23:06.000Z</time>
      </trkpt>
      <trkpt lat="44.19324" lon="6.79799">
        <ele>1778.4000244141</ele>
        <time>2020-06-06T09:23:08.000Z</time>
      </trkpt>
      <trkpt lat="44.19325" lon="6.79801">
        <ele>1778.4000244141</ele>
        <time>2020-06-06T09:23:09.000Z</time>
      </trkpt>
      <trkpt lat="44.19326" lon="6.79804">
        <ele>1777.8000488281</ele>
        <time>2020-06-06T09:23:12.000Z</time>
      </trkpt>
      <trkpt lat="44.19326" lon="6.79808">
        <ele>1777.1999511719</ele>
        <time>2020-06-06T09:23:15.000Z</time>
      </trkpt>
      <trkpt lat="44.19326" lon="6.79811">
        <ele>1777.4000244141</ele>
        <time>2020-06-06T09:23:17.000Z</time>
      </trkpt>
      <trkpt lat="44.19326" lon="6.79814">
        <ele>1777.4000244141</ele>
        <time>2020-06-06T09:23:20.000Z</time>
      </trkpt>
      <trkpt lat="44.19326" lon="6.79813">
        <ele>1777.4000244141</ele>
        <time>2020-06-06T09:23:21.000Z</time>
      </trkpt>
      <trkpt lat="44.19327" lon="6.79818">
        <ele>1778.1999511719</ele>
        <time>2020-06-06T09:23:27.000Z</time>
      </trkpt>
      <trkpt lat="44.19327" lon="6.79819">
        <ele>1778.4000244141</ele>
        <time>2020-06-06T09:23:28.000Z</time>
      </trkpt>
      <trkpt lat="44.19327" lon="6.79826">
        <ele>1779.1999511719</ele>
        <time>2020-06-06T09:23:34.000Z</time>
      </trkpt>
      <trkpt lat="44.19328" lon="6.79827">
        <ele>1779.4000244141</ele>
        <time>2020-06-06T09:23:35.000Z</time>
      </trkpt>
      <trkpt lat="44.19328" lon="6.79828">
        <ele>1780.1999511719</ele>
        <time>2020-06-06T09:23:39.000Z</time>
      </trkpt>
      <trkpt lat="44.19329" lon="6.79831">
        <ele>1780</ele>
        <time>2020-06-06T09:23:43.000Z</time>
      </trkpt>
      <trkpt lat="44.19331" lon="6.7984">
        <ele>1780.5999755859</ele>
        <time>2020-06-06T09:23:49.000Z</time>
      </trkpt>
      <trkpt lat="44.19333" lon="6.79842">
        <ele>1780.5999755859</ele>
        <time>2020-06-06T09:23:50.000Z</time>
      </trkpt>
      <trkpt lat="44.19334" lon="6.79849">
        <ele>1780.5999755859</ele>
        <time>2020-06-06T09:23:53.000Z</time>
      </trkpt>
      <trkpt lat="44.19335" lon="6.79852">
        <ele>1781.1999511719</ele>
        <time>2020-06-06T09:23:55.000Z</time>
      </trkpt>
      <trkpt lat="44.19335" lon="6.79856">
        <ele>1781.5999755859</ele>
        <time>2020-06-06T09:23:57.000Z</time>
      </trkpt>
      <trkpt lat="44.19335" lon="6.79864">
        <ele>1782.5999755859</ele>
        <time>2020-06-06T09:24:02.000Z</time>
      </trkpt>
      <trkpt lat="44.19335" lon="6.79866">
        <ele>1782.8000488281</ele>
        <time>2020-06-06T09:24:03.000Z</time>
      </trkpt>
      <trkpt lat="44.19336" lon="6.79869">
        <ele>1783.4000244141</ele>
        <time>2020-06-06T09:24:05.000Z</time>
      </trkpt>
      <trkpt lat="44.19336" lon="6.79873">
        <ele>1783.5999755859</ele>
        <time>2020-06-06T09:24:07.000Z</time>
      </trkpt>
      <trkpt lat="44.19337" lon="6.79875">
        <ele>1783.8000488281</ele>
        <time>2020-06-06T09:24:08.000Z</time>
      </trkpt>
      <trkpt lat="44.19337" lon="6.79876">
        <ele>1783.8000488281</ele>
        <time>2020-06-06T09:24:09.000Z</time>
      </trkpt>
      <trkpt lat="44.19337" lon="6.79878">
        <ele>1783.8000488281</ele>
        <time>2020-06-06T09:24:10.000Z</time>
      </trkpt>
      <trkpt lat="44.19339" lon="6.7988">
        <ele>1784.4000244141</ele>
        <time>2020-06-06T09:24:14.000Z</time>
      </trkpt>
      <trkpt lat="44.19343" lon="6.79882">
        <ele>1784.4000244141</ele>
        <time>2020-06-06T09:24:22.000Z</time>
      </trkpt>
      <trkpt lat="44.19344" lon="6.79878">
        <ele>1784.1999511719</ele>
        <time>2020-06-06T09:24:25.000Z</time>
      </trkpt>
      <trkpt lat="44.19343" lon="6.79877">
        <ele>1784.5999755859</ele>
        <time>2020-06-06T09:24:26.000Z</time>
      </trkpt>
      <trkpt lat="44.19342" lon="6.79876">
        <ele>1784.8000488281</ele>
        <time>2020-06-06T09:24:27.000Z</time>
      </trkpt>
      <trkpt lat="44.19342" lon="6.79875">
        <ele>1785.8000488281</ele>
        <time>2020-06-06T09:24:31.000Z</time>
      </trkpt>
      <trkpt lat="44.19342" lon="6.79873">
        <ele>1786</ele>
        <time>2020-06-06T09:24:32.000Z</time>
      </trkpt>
      <trkpt lat="44.19339" lon="6.7987">
        <ele>1786</ele>
        <time>2020-06-06T09:24:34.000Z</time>
      </trkpt>
      <trkpt lat="44.19339" lon="6.79869">
        <ele>1786.1999511719</ele>
        <time>2020-06-06T09:24:35.000Z</time>
      </trkpt>
      <trkpt lat="44.19336" lon="6.79865">
        <ele>1786</ele>
        <time>2020-06-06T09:24:38.000Z</time>
      </trkpt>
      <trkpt lat="44.19336" lon="6.7986">
        <ele>1786</ele>
        <time>2020-06-06T09:24:42.000Z</time>
      </trkpt>
      <trkpt lat="44.19335" lon="6.79855">
        <ele>1785.8000488281</ele>
        <time>2020-06-06T09:24:47.000Z</time>
      </trkpt>
      <trkpt lat="44.19335" lon="6.79854">
        <ele>1786.5999755859</ele>
        <time>2020-06-06T09:24:53.000Z</time>
      </trkpt>
      <trkpt lat="44.19333" lon="6.79853">
        <ele>1786.8000488281</ele>
        <time>2020-06-06T09:24:55.000Z</time>
      </trkpt>
      <trkpt lat="44.19334" lon="6.7985">
        <ele>1787.1999511719</ele>
        <time>2020-06-06T09:24:58.000Z</time>
      </trkpt>
      <trkpt lat="44.19331" lon="6.79848">
        <ele>1787.4000244141</ele>
        <time>2020-06-06T09:25:00.000Z</time>
      </trkpt>
      <trkpt lat="44.19329" lon="6.79845">
        <ele>1787.5999755859</ele>
        <time>2020-06-06T09:25:05.000Z</time>
      </trkpt>
      <trkpt lat="44.19328" lon="6.79844">
        <ele>1787.8000488281</ele>
        <time>2020-06-06T09:25:06.000Z</time>
      </trkpt>
      <trkpt lat="44.19323" lon="6.79841">
        <ele>1788.4000244141</ele>
        <time>2020-06-06T09:25:11.000Z</time>
      </trkpt>
      <trkpt lat="44.1932" lon="6.7984">
        <ele>1789</ele>
        <time>2020-06-06T09:25:14.000Z</time>
      </trkpt>
      <trkpt lat="44.19316" lon="6.79839">
        <ele>1789.5999755859</ele>
        <time>2020-06-06T09:25:19.000Z</time>
      </trkpt>
      <trkpt lat="44.19314" lon="6.79839">
        <ele>1790</ele>
        <time>2020-06-06T09:25:21.000Z</time>
      </trkpt>
      <trkpt lat="44.19311" lon="6.7984">
        <ele>1790.8000488281</ele>
        <time>2020-06-06T09:25:24.000Z</time>
      </trkpt>
      <trkpt lat="44.19307" lon="6.79841">
        <ele>1791.1999511719</ele>
        <time>2020-06-06T09:25:27.000Z</time>
      </trkpt>
      <trkpt lat="44.19304" lon="6.79843">
        <ele>1791.4000244141</ele>
        <time>2020-06-06T09:25:30.000Z</time>
      </trkpt>
      <trkpt lat="44.193" lon="6.79846">
        <ele>1792.1999511719</ele>
        <time>2020-06-06T09:25:36.000Z</time>
      </trkpt>
      <trkpt lat="44.19299" lon="6.79846">
        <ele>1792.4000244141</ele>
        <time>2020-06-06T09:25:37.000Z</time>
      </trkpt>
      <trkpt lat="44.19296" lon="6.79847">
        <ele>1793</ele>
        <time>2020-06-06T09:25:40.000Z</time>
      </trkpt>
      <trkpt lat="44.19295" lon="6.79848">
        <ele>1793.4000244141</ele>
        <time>2020-06-06T09:25:42.000Z</time>
      </trkpt>
      <trkpt lat="44.19294" lon="6.79848">
        <ele>1793.5999755859</ele>
        <time>2020-06-06T09:25:43.000Z</time>
      </trkpt>
      <trkpt lat="44.19292" lon="6.79849">
        <ele>1794</ele>
        <time>2020-06-06T09:25:45.000Z</time>
      </trkpt>
      <trkpt lat="44.19292" lon="6.7985">
        <ele>1794.1999511719</ele>
        <time>2020-06-06T09:25:47.000Z</time>
      </trkpt>
      <trkpt lat="44.19292" lon="6.7985">
        <ele>1794.4000244141</ele>
        <time>2020-06-06T09:25:48.000Z</time>
      </trkpt>
      <trkpt lat="44.19288" lon="6.79853">
        <ele>1795.5999755859</ele>
        <time>2020-06-06T09:25:55.000Z</time>
      </trkpt>
      <trkpt lat="44.19286" lon="6.79859">
        <ele>1796.8000488281</ele>
        <time>2020-06-06T09:26:01.000Z</time>
      </trkpt>
      <trkpt lat="44.19285" lon="6.79861">
        <ele>1797.1999511719</ele>
        <time>2020-06-06T09:26:03.000Z</time>
      </trkpt>
      <trkpt lat="44.19282" lon="6.79863">
        <ele>1797.8000488281</ele>
        <time>2020-06-06T09:26:07.000Z</time>
      </trkpt>
      <trkpt lat="44.19281" lon="6.79864">
        <ele>1798</ele>
        <time>2020-06-06T09:26:08.000Z</time>
      </trkpt>
      <trkpt lat="44.19277" lon="6.79867">
        <ele>1798.8000488281</ele>
        <time>2020-06-06T09:26:13.000Z</time>
      </trkpt>
      <trkpt lat="44.19276" lon="6.79868">
        <ele>1799</ele>
        <time>2020-06-06T09:26:14.000Z</time>
      </trkpt>
      <trkpt lat="44.19276" lon="6.79868">
        <ele>1799.1999511719</ele>
        <time>2020-06-06T09:26:15.000Z</time>
      </trkpt>
      <trkpt lat="44.19274" lon="6.7987">
        <ele>1800</ele>
        <time>2020-06-06T09:26:19.000Z</time>
      </trkpt>
      <trkpt lat="44.19273" lon="6.79871">
        <ele>1800.4000244141</ele>
        <time>2020-06-06T09:26:21.000Z</time>
      </trkpt>
      <trkpt lat="44.19271" lon="6.79873">
        <ele>1801.1999511719</ele>
        <time>2020-06-06T09:26:25.000Z</time>
      </trkpt>
      <trkpt lat="44.19268" lon="6.79875">
        <ele>1801.8000488281</ele>
        <time>2020-06-06T09:26:30.000Z</time>
      </trkpt>
      <trkpt lat="44.19266" lon="6.79876">
        <ele>1802.4000244141</ele>
        <time>2020-06-06T09:26:33.000Z</time>
      </trkpt>
      <trkpt lat="44.19264" lon="6.79877">
        <ele>1803</ele>
        <time>2020-06-06T09:26:37.000Z</time>
      </trkpt>
      <trkpt lat="44.19263" lon="6.79878">
        <ele>1803.4000244141</ele>
        <time>2020-06-06T09:26:39.000Z</time>
      </trkpt>
      <trkpt lat="44.19259" lon="6.79881">
        <ele>1804.4000244141</ele>
        <time>2020-06-06T09:26:45.000Z</time>
      </trkpt>
      <trkpt lat="44.1926" lon="6.79886">
        <ele>1805.4000244141</ele>
        <time>2020-06-06T09:26:52.000Z</time>
      </trkpt>
      <trkpt lat="44.19258" lon="6.79889">
        <ele>1806.4000244141</ele>
        <time>2020-06-06T09:26:58.000Z</time>
      </trkpt>
      <trkpt lat="44.19257" lon="6.79889">
        <ele>1806.5999755859</ele>
        <time>2020-06-06T09:26:59.000Z</time>
      </trkpt>
      <trkpt lat="44.19256" lon="6.7989">
        <ele>1807.5999755859</ele>
        <time>2020-06-06T09:27:04.000Z</time>
      </trkpt>
      <trkpt lat="44.19256" lon="6.7989">
        <ele>1807.8000488281</ele>
        <time>2020-06-06T09:27:05.000Z</time>
      </trkpt>
      <trkpt lat="44.19256" lon="6.79894">
        <ele>1808.8000488281</ele>
        <time>2020-06-06T09:27:11.000Z</time>
      </trkpt>
      <trkpt lat="44.19254" lon="6.79899">
        <ele>1809.8000488281</ele>
        <time>2020-06-06T09:27:18.000Z</time>
      </trkpt>
      <trkpt lat="44.19254" lon="6.799">
        <ele>1810.1999511719</ele>
        <time>2020-06-06T09:27:23.000Z</time>
      </trkpt>
      <trkpt lat="44.19254" lon="6.79901">
        <ele>1810.1999511719</ele>
        <time>2020-06-06T09:27:24.000Z</time>
      </trkpt>
      <trkpt lat="44.19252" lon="6.79905">
        <ele>1810.1999511719</ele>
        <time>2020-06-06T09:27:27.000Z</time>
      </trkpt>
      <trkpt lat="44.19249" lon="6.79915">
        <ele>1810.4000244141</ele>
        <time>2020-06-06T09:27:31.000Z</time>
      </trkpt>
      <trkpt lat="44.19249" lon="6.79922">
        <ele>1810.8000488281</ele>
        <time>2020-06-06T09:27:35.000Z</time>
      </trkpt>
      <trkpt lat="44.1925" lon="6.79925">
        <ele>1811</ele>
        <time>2020-06-06T09:27:36.000Z</time>
      </trkpt>
      <trkpt lat="44.1925" lon="6.7993">
        <ele>1811.8000488281</ele>
        <time>2020-06-06T09:27:39.000Z</time>
      </trkpt>
      <trkpt lat="44.19249" lon="6.79936">
        <ele>1812.1999511719</ele>
        <time>2020-06-06T09:27:42.000Z</time>
      </trkpt>
      <trkpt lat="44.1925" lon="6.7994">
        <ele>1812.8000488281</ele>
        <time>2020-06-06T09:27:45.000Z</time>
      </trkpt>
      <trkpt lat="44.1925" lon="6.79943">
        <ele>1813.1999511719</ele>
        <time>2020-06-06T09:27:47.000Z</time>
      </trkpt>
      <trkpt lat="44.19248" lon="6.79946">
        <ele>1813.8000488281</ele>
        <time>2020-06-06T09:27:49.000Z</time>
      </trkpt>
      <trkpt lat="44.19247" lon="6.79948">
        <ele>1814.4000244141</ele>
        <time>2020-06-06T09:27:51.000Z</time>
      </trkpt>
      <trkpt lat="44.19248" lon="6.79952">
        <ele>1815.1999511719</ele>
        <time>2020-06-06T09:27:54.000Z</time>
      </trkpt>
      <trkpt lat="44.19248" lon="6.79953">
        <ele>1815.4000244141</ele>
        <time>2020-06-06T09:27:55.000Z</time>
      </trkpt>
      <trkpt lat="44.19251" lon="6.79958">
        <ele>1815.8000488281</ele>
        <time>2020-06-06T09:27:58.000Z</time>
      </trkpt>
      <trkpt lat="44.19251" lon="6.79965">
        <ele>1816.5999755859</ele>
        <time>2020-06-06T09:28:02.000Z</time>
      </trkpt>
      <trkpt lat="44.19251" lon="6.79966">
        <ele>1816.8000488281</ele>
        <time>2020-06-06T09:28:03.000Z</time>
      </trkpt>
      <trkpt lat="44.19249" lon="6.79973">
        <ele>1817.8000488281</ele>
        <time>2020-06-06T09:28:08.000Z</time>
      </trkpt>
      <trkpt lat="44.19249" lon="6.79977">
        <ele>1818.5999755859</ele>
        <time>2020-06-06T09:28:11.000Z</time>
      </trkpt>
      <trkpt lat="44.19248" lon="6.7998">
        <ele>1819</ele>
        <time>2020-06-06T09:28:13.000Z</time>
      </trkpt>
      <trkpt lat="44.19248" lon="6.79982">
        <ele>1819.1999511719</ele>
        <time>2020-06-06T09:28:14.000Z</time>
      </trkpt>
      <trkpt lat="44.19248" lon="6.79985">
        <ele>1819.5999755859</ele>
        <time>2020-06-06T09:28:16.000Z</time>
      </trkpt>
      <trkpt lat="44.19248" lon="6.79988">
        <ele>1820</ele>
        <time>2020-06-06T09:28:18.000Z</time>
      </trkpt>
      <trkpt lat="44.19248" lon="6.79989">
        <ele>1820.4000244141</ele>
        <time>2020-06-06T09:28:19.000Z</time>
      </trkpt>
      <trkpt lat="44.19248" lon="6.7999">
        <ele>1820.5999755859</ele>
        <time>2020-06-06T09:28:20.000Z</time>
      </trkpt>
      <trkpt lat="44.19248" lon="6.79994">
        <ele>1821.1999511719</ele>
        <time>2020-06-06T09:28:23.000Z</time>
      </trkpt>
      <trkpt lat="44.19248" lon="6.79997">
        <ele>1821.1999511719</ele>
        <time>2020-06-06T09:28:25.000Z</time>
      </trkpt>
      <trkpt lat="44.19247" lon="6.79999">
        <ele>1821.4000244141</ele>
        <time>2020-06-06T09:28:30.000Z</time>
      </trkpt>
      <trkpt lat="44.19247" lon="6.79998">
        <ele>1821.4000244141</ele>
        <time>2020-06-06T09:28:31.000Z</time>
      </trkpt>
      <trkpt lat="44.19246" lon="6.79998">
        <ele>1821.5999755859</ele>
        <time>2020-06-06T09:28:35.000Z</time>
      </trkpt>
      <trkpt lat="44.19246" lon="6.79997">
        <ele>1822.4000244141</ele>
        <time>2020-06-06T09:28:38.000Z</time>
      </trkpt>
      <trkpt lat="44.19246" lon="6.79997">
        <ele>1822.5999755859</ele>
        <time>2020-06-06T09:28:39.000Z</time>
      </trkpt>
      <trkpt lat="44.19246" lon="6.79997">
        <ele>1823.4000244141</ele>
        <time>2020-06-06T09:28:42.000Z</time>
      </trkpt>
      <trkpt lat="44.19246" lon="6.79998">
        <ele>1823.8000488281</ele>
        <time>2020-06-06T09:28:44.000Z</time>
      </trkpt>
      <trkpt lat="44.19245" lon="6.79998">
        <ele>1824.4000244141</ele>
        <time>2020-06-06T09:28:48.000Z</time>
      </trkpt>
      <trkpt lat="44.19245" lon="6.79998">
        <ele>1824.8000488281</ele>
        <time>2020-06-06T09:28:50.000Z</time>
      </trkpt>
      <trkpt lat="44.19244" lon="6.79999">
        <ele>1825.5999755859</ele>
        <time>2020-06-06T09:28:55.000Z</time>
      </trkpt>
      <trkpt lat="44.19244" lon="6.8">
        <ele>1825.8000488281</ele>
        <time>2020-06-06T09:28:56.000Z</time>
      </trkpt>
      <trkpt lat="44.19243" lon="6.80005">
        <ele>1826.5999755859</ele>
        <time>2020-06-06T09:29:01.000Z</time>
      </trkpt>
      <trkpt lat="44.19242" lon="6.80005">
        <ele>1826.8000488281</ele>
        <time>2020-06-06T09:29:02.000Z</time>
      </trkpt>
      <trkpt lat="44.1924" lon="6.8001">
        <ele>1827.5999755859</ele>
        <time>2020-06-06T09:29:08.000Z</time>
      </trkpt>
      <trkpt lat="44.19239" lon="6.80011">
        <ele>1827.8000488281</ele>
        <time>2020-06-06T09:29:09.000Z</time>
      </trkpt>
      <trkpt lat="44.19237" lon="6.80015">
        <ele>1828.4000244141</ele>
        <time>2020-06-06T09:29:15.000Z</time>
      </trkpt>
      <trkpt lat="44.19231" lon="6.80026">
        <ele>1828.5999755859</ele>
        <time>2020-06-06T09:29:21.000Z</time>
      </trkpt>
      <trkpt lat="44.19231" lon="6.80027">
        <ele>1828.8000488281</ele>
        <time>2020-06-06T09:29:22.000Z</time>
      </trkpt>
      <trkpt lat="44.19231" lon="6.80028">
        <ele>1829.1999511719</ele>
        <time>2020-06-06T09:29:23.000Z</time>
      </trkpt>
      <trkpt lat="44.19229" lon="6.80031">
        <ele>1829.8000488281</ele>
        <time>2020-06-06T09:29:25.000Z</time>
      </trkpt>
      <trkpt lat="44.19228" lon="6.80032">
        <ele>1830</ele>
        <time>2020-06-06T09:29:26.000Z</time>
      </trkpt>
      <trkpt lat="44.19226" lon="6.80034">
        <ele>1830.1999511719</ele>
        <time>2020-06-06T09:29:27.000Z</time>
      </trkpt>
      <trkpt lat="44.19225" lon="6.80036">
        <ele>1830.4000244141</ele>
        <time>2020-06-06T09:29:29.000Z</time>
      </trkpt>
      <trkpt lat="44.19224" lon="6.80041">
        <ele>1830.5999755859</ele>
        <time>2020-06-06T09:29:32.000Z</time>
      </trkpt>
      <trkpt lat="44.19225" lon="6.80042">
        <ele>1830.4000244141</ele>
        <time>2020-06-06T09:29:34.000Z</time>
      </trkpt>
      <trkpt lat="44.19224" lon="6.80045">
        <ele>1831</ele>
        <time>2020-06-06T09:29:38.000Z</time>
      </trkpt>
      <trkpt lat="44.19223" lon="6.80046">
        <ele>1831.4000244141</ele>
        <time>2020-06-06T09:29:39.000Z</time>
      </trkpt>
      <trkpt lat="44.19219" lon="6.8005">
        <ele>1832</ele>
        <time>2020-06-06T09:29:43.000Z</time>
      </trkpt>
      <trkpt lat="44.1922" lon="6.8005">
        <ele>1832.1999511719</ele>
        <time>2020-06-06T09:29:44.000Z</time>
      </trkpt>
      <trkpt lat="44.19218" lon="6.80053">
        <ele>1832.5999755859</ele>
        <time>2020-06-06T09:29:48.000Z</time>
      </trkpt>
      <trkpt lat="44.19214" lon="6.8005">
        <ele>1832.4000244141</ele>
        <time>2020-06-06T09:29:52.000Z</time>
      </trkpt>
      <trkpt lat="44.19214" lon="6.8005">
        <ele>1832.5999755859</ele>
        <time>2020-06-06T09:29:53.000Z</time>
      </trkpt>
      <trkpt lat="44.19213" lon="6.8005">
        <ele>1833.1999511719</ele>
        <time>2020-06-06T09:29:55.000Z</time>
      </trkpt>
      <trkpt lat="44.19211" lon="6.8005">
        <ele>1833.8000488281</ele>
        <time>2020-06-06T09:29:58.000Z</time>
      </trkpt>
      <trkpt lat="44.19211" lon="6.80049">
        <ele>1833.8000488281</ele>
        <time>2020-06-06T09:30:00.000Z</time>
      </trkpt>
      <trkpt lat="44.19214" lon="6.80048">
        <ele>1833.8000488281</ele>
        <time>2020-06-06T09:30:02.000Z</time>
      </trkpt>
      <trkpt lat="44.19215" lon="6.80047">
        <ele>1833.8000488281</ele>
        <time>2020-06-06T09:30:03.000Z</time>
      </trkpt>
      <trkpt lat="44.19218" lon="6.80044">
        <ele>1833.8000488281</ele>
        <time>2020-06-06T09:30:06.000Z</time>
      </trkpt>
      <trkpt lat="44.19218" lon="6.80039">
        <ele>1834</ele>
        <time>2020-06-06T09:30:09.000Z</time>
      </trkpt>
      <trkpt lat="44.19219" lon="6.80036">
        <ele>1834</ele>
        <time>2020-06-06T09:30:11.000Z</time>
      </trkpt>
      <trkpt lat="44.19218" lon="6.80027">
        <ele>1834.4000244141</ele>
        <time>2020-06-06T09:30:15.000Z</time>
      </trkpt>
      <trkpt lat="44.19218" lon="6.80025">
        <ele>1834.4000244141</ele>
        <time>2020-06-06T09:30:16.000Z</time>
      </trkpt>
      <trkpt lat="44.19218" lon="6.80019">
        <ele>1834.5999755859</ele>
        <time>2020-06-06T09:30:19.000Z</time>
      </trkpt>
      <trkpt lat="44.19218" lon="6.80016">
        <ele>1835</ele>
        <time>2020-06-06T09:30:21.000Z</time>
      </trkpt>
      <trkpt lat="44.19218" lon="6.80012">
        <ele>1835.4000244141</ele>
        <time>2020-06-06T09:30:23.000Z</time>
      </trkpt>
      <trkpt lat="44.19217" lon="6.8001">
        <ele>1835.4000244141</ele>
        <time>2020-06-06T09:30:24.000Z</time>
      </trkpt>
      <trkpt lat="44.19214" lon="6.80005">
        <ele>1835.5999755859</ele>
        <time>2020-06-06T09:30:27.000Z</time>
      </trkpt>
      <trkpt lat="44.1921" lon="6.79999">
        <ele>1835.8000488281</ele>
        <time>2020-06-06T09:30:30.000Z</time>
      </trkpt>
      <trkpt lat="44.19209" lon="6.79998">
        <ele>1835.8000488281</ele>
        <time>2020-06-06T09:30:31.000Z</time>
      </trkpt>
      <trkpt lat="44.19209" lon="6.79997">
        <ele>1836</ele>
        <time>2020-06-06T09:30:32.000Z</time>
      </trkpt>
      <trkpt lat="44.19208" lon="6.79987">
        <ele>1836.1999511719</ele>
        <time>2020-06-06T09:30:37.000Z</time>
      </trkpt>
      <trkpt lat="44.19203" lon="6.79985">
        <ele>1836.4000244141</ele>
        <time>2020-06-06T09:30:41.000Z</time>
      </trkpt>
      <trkpt lat="44.19201" lon="6.79984">
        <ele>1836.5999755859</ele>
        <time>2020-06-06T09:30:42.000Z</time>
      </trkpt>
      <trkpt lat="44.19199" lon="6.79979">
        <ele>1837</ele>
        <time>2020-06-06T09:30:45.000Z</time>
      </trkpt>
      <trkpt lat="44.19199" lon="6.79977">
        <ele>1837.1999511719</ele>
        <time>2020-06-06T09:30:46.000Z</time>
      </trkpt>
      <trkpt lat="44.19198" lon="6.79973">
        <ele>1837.5999755859</ele>
        <time>2020-06-06T09:30:49.000Z</time>
      </trkpt>
      <trkpt lat="44.19197" lon="6.79968">
        <ele>1838</ele>
        <time>2020-06-06T09:30:52.000Z</time>
      </trkpt>
      <trkpt lat="44.19197" lon="6.79965">
        <ele>1838.1999511719</ele>
        <time>2020-06-06T09:30:54.000Z</time>
      </trkpt>
      <trkpt lat="44.19197" lon="6.79959">
        <ele>1838.8000488281</ele>
        <time>2020-06-06T09:30:57.000Z</time>
      </trkpt>
      <trkpt lat="44.19196" lon="6.79957">
        <ele>1839</ele>
        <time>2020-06-06T09:30:58.000Z</time>
      </trkpt>
      <trkpt lat="44.19197" lon="6.79953">
        <ele>1839.4000244141</ele>
        <time>2020-06-06T09:31:00.000Z</time>
      </trkpt>
      <trkpt lat="44.19196" lon="6.79949">
        <ele>1839.8000488281</ele>
        <time>2020-06-06T09:31:02.000Z</time>
      </trkpt>
      <trkpt lat="44.19197" lon="6.79946">
        <ele>1840.1999511719</ele>
        <time>2020-06-06T09:31:04.000Z</time>
      </trkpt>
      <trkpt lat="44.192" lon="6.79938">
        <ele>1840.8000488281</ele>
        <time>2020-06-06T09:31:09.000Z</time>
      </trkpt>
      <trkpt lat="44.192" lon="6.79937">
        <ele>1841.1999511719</ele>
        <time>2020-06-06T09:31:10.000Z</time>
      </trkpt>
      <trkpt lat="44.19204" lon="6.79929">
        <ele>1842</ele>
        <time>2020-06-06T09:31:16.000Z</time>
      </trkpt>
      <trkpt lat="44.19206" lon="6.79921">
        <ele>1843</ele>
        <time>2020-06-06T09:31:22.000Z</time>
      </trkpt>
      <trkpt lat="44.19206" lon="6.7992">
        <ele>1843</ele>
        <time>2020-06-06T09:31:23.000Z</time>
      </trkpt>
      <trkpt lat="44.19202" lon="6.79911">
        <ele>1844</ele>
        <time>2020-06-06T09:31:28.000Z</time>
      </trkpt>
      <trkpt lat="44.19201" lon="6.7991">
        <ele>1844.1999511719</ele>
        <time>2020-06-06T09:31:29.000Z</time>
      </trkpt>
      <trkpt lat="44.192" lon="6.79909">
        <ele>1844.4000244141</ele>
        <time>2020-06-06T09:31:30.000Z</time>
      </trkpt>
      <trkpt lat="44.19197" lon="6.79905">
        <ele>1845</ele>
        <time>2020-06-06T09:31:33.000Z</time>
      </trkpt>
      <trkpt lat="44.19196" lon="6.79904">
        <ele>1845.1999511719</ele>
        <time>2020-06-06T09:31:34.000Z</time>
      </trkpt>
      <trkpt lat="44.19192" lon="6.79899">
        <ele>1846</ele>
        <time>2020-06-06T09:31:38.000Z</time>
      </trkpt>
      <trkpt lat="44.19192" lon="6.79898">
        <ele>1846.1999511719</ele>
        <time>2020-06-06T09:31:39.000Z</time>
      </trkpt>
      <trkpt lat="44.19191" lon="6.79897">
        <ele>1846.4000244141</ele>
        <time>2020-06-06T09:31:40.000Z</time>
      </trkpt>
      <trkpt lat="44.19191" lon="6.79896">
        <ele>1846.5999755859</ele>
        <time>2020-06-06T09:31:41.000Z</time>
      </trkpt>
      <trkpt lat="44.19191" lon="6.79893">
        <ele>1847</ele>
        <time>2020-06-06T09:31:43.000Z</time>
      </trkpt>
      <trkpt lat="44.19191" lon="6.79889">
        <ele>1847.5999755859</ele>
        <time>2020-06-06T09:31:47.000Z</time>
      </trkpt>
      <trkpt lat="44.19191" lon="6.79886">
        <ele>1847.8000488281</ele>
        <time>2020-06-06T09:31:49.000Z</time>
      </trkpt>
      <trkpt lat="44.1919" lon="6.79883">
        <ele>1848.1999511719</ele>
        <time>2020-06-06T09:31:51.000Z</time>
      </trkpt>
      <trkpt lat="44.19189" lon="6.79881">
        <ele>1848.4000244141</ele>
        <time>2020-06-06T09:31:53.000Z</time>
      </trkpt>
      <trkpt lat="44.19188" lon="6.79879">
        <ele>1848.5999755859</ele>
        <time>2020-06-06T09:31:54.000Z</time>
      </trkpt>
      <trkpt lat="44.19187" lon="6.79875">
        <ele>1849.1999511719</ele>
        <time>2020-06-06T09:31:57.000Z</time>
      </trkpt>
      <trkpt lat="44.19187" lon="6.79874">
        <ele>1849.4000244141</ele>
        <time>2020-06-06T09:31:58.000Z</time>
      </trkpt>
      <trkpt lat="44.19187" lon="6.79871">
        <ele>1849.8000488281</ele>
        <time>2020-06-06T09:32:00.000Z</time>
      </trkpt>
      <trkpt lat="44.19186" lon="6.79869">
        <ele>1849.8000488281</ele>
        <time>2020-06-06T09:32:01.000Z</time>
      </trkpt>
      <trkpt lat="44.19184" lon="6.79867">
        <ele>1850.1999511719</ele>
        <time>2020-06-06T09:32:03.000Z</time>
      </trkpt>
      <trkpt lat="44.19181" lon="6.7986">
        <ele>1850.5999755859</ele>
        <time>2020-06-06T09:32:08.000Z</time>
      </trkpt>
      <trkpt lat="44.1918" lon="6.79859">
        <ele>1851</ele>
        <time>2020-06-06T09:32:09.000Z</time>
      </trkpt>
      <trkpt lat="44.19178" lon="6.79852">
        <ele>1851.5999755859</ele>
        <time>2020-06-06T09:32:13.000Z</time>
      </trkpt>
      <trkpt lat="44.19178" lon="6.79848">
        <ele>1852</ele>
        <time>2020-06-06T09:32:16.000Z</time>
      </trkpt>
      <trkpt lat="44.19176" lon="6.79845">
        <ele>1852.1999511719</ele>
        <time>2020-06-06T09:32:18.000Z</time>
      </trkpt>
      <trkpt lat="44.19173" lon="6.79841">
        <ele>1853</ele>
        <time>2020-06-06T09:32:21.000Z</time>
      </trkpt>
      <trkpt lat="44.19172" lon="6.7984">
        <ele>1853.1999511719</ele>
        <time>2020-06-06T09:32:22.000Z</time>
      </trkpt>
      <trkpt lat="44.19169" lon="6.79837">
        <ele>1853.5999755859</ele>
        <time>2020-06-06T09:32:24.000Z</time>
      </trkpt>
      <trkpt lat="44.19166" lon="6.79832">
        <ele>1854.1999511719</ele>
        <time>2020-06-06T09:32:28.000Z</time>
      </trkpt>
      <trkpt lat="44.19166" lon="6.7983">
        <ele>1854.4000244141</ele>
        <time>2020-06-06T09:32:29.000Z</time>
      </trkpt>
      <trkpt lat="44.19164" lon="6.79826">
        <ele>1855</ele>
        <time>2020-06-06T09:32:32.000Z</time>
      </trkpt>
      <trkpt lat="44.19163" lon="6.79824">
        <ele>1855.1999511719</ele>
        <time>2020-06-06T09:32:33.000Z</time>
      </trkpt>
      <trkpt lat="44.19161" lon="6.79822">
        <ele>1855.4000244141</ele>
        <time>2020-06-06T09:32:35.000Z</time>
      </trkpt>
      <trkpt lat="44.19159" lon="6.79821">
        <ele>1855.8000488281</ele>
        <time>2020-06-06T09:32:37.000Z</time>
      </trkpt>
      <trkpt lat="44.19156" lon="6.7982">
        <ele>1856.4000244141</ele>
        <time>2020-06-06T09:32:39.000Z</time>
      </trkpt>
      <trkpt lat="44.19152" lon="6.79818">
        <ele>1857.1999511719</ele>
        <time>2020-06-06T09:32:42.000Z</time>
      </trkpt>
      <trkpt lat="44.19151" lon="6.79818">
        <ele>1857.4000244141</ele>
        <time>2020-06-06T09:32:43.000Z</time>
      </trkpt>
      <trkpt lat="44.19148" lon="6.79815">
        <ele>1858</ele>
        <time>2020-06-06T09:32:46.000Z</time>
      </trkpt>
      <trkpt lat="44.19147" lon="6.79814">
        <ele>1858.1999511719</ele>
        <time>2020-06-06T09:32:47.000Z</time>
      </trkpt>
      <trkpt lat="44.19147" lon="6.79813">
        <ele>1858.4000244141</ele>
        <time>2020-06-06T09:32:48.000Z</time>
      </trkpt>
      <trkpt lat="44.19147" lon="6.79811">
        <ele>1858.4000244141</ele>
        <time>2020-06-06T09:32:49.000Z</time>
      </trkpt>
      <trkpt lat="44.19145" lon="6.79807">
        <ele>1858.8000488281</ele>
        <time>2020-06-06T09:32:52.000Z</time>
      </trkpt>
      <trkpt lat="44.19145" lon="6.79802">
        <ele>1859.5999755859</ele>
        <time>2020-06-06T09:32:56.000Z</time>
      </trkpt>
      <trkpt lat="44.19145" lon="6.79801">
        <ele>1859.8000488281</ele>
        <time>2020-06-06T09:32:58.000Z</time>
      </trkpt>
      <trkpt lat="44.19144" lon="6.79795">
        <ele>1860.4000244141</ele>
        <time>2020-06-06T09:33:03.000Z</time>
      </trkpt>
      <trkpt lat="44.19143" lon="6.79794">
        <ele>1860.5999755859</ele>
        <time>2020-06-06T09:33:04.000Z</time>
      </trkpt>
      <trkpt lat="44.19141" lon="6.79797">
        <ele>1861.1999511719</ele>
        <time>2020-06-06T09:33:08.000Z</time>
      </trkpt>
      <trkpt lat="44.19141" lon="6.79799">
        <ele>1861.5999755859</ele>
        <time>2020-06-06T09:33:10.000Z</time>
      </trkpt>
      <trkpt lat="44.19141" lon="6.79803">
        <ele>1862.4000244141</ele>
        <time>2020-06-06T09:33:14.000Z</time>
      </trkpt>
      <trkpt lat="44.19141" lon="6.79805">
        <ele>1862.5999755859</ele>
        <time>2020-06-06T09:33:16.000Z</time>
      </trkpt>
      <trkpt lat="44.1914" lon="6.79808">
        <ele>1862.8000488281</ele>
        <time>2020-06-06T09:33:18.000Z</time>
      </trkpt>
      <trkpt lat="44.19139" lon="6.79811">
        <ele>1863.1999511719</ele>
        <time>2020-06-06T09:33:20.000Z</time>
      </trkpt>
      <trkpt lat="44.19139" lon="6.79814">
        <ele>1863.5999755859</ele>
        <time>2020-06-06T09:33:22.000Z</time>
      </trkpt>
      <trkpt lat="44.19139" lon="6.79821">
        <ele>1864.4000244141</ele>
        <time>2020-06-06T09:33:27.000Z</time>
      </trkpt>
      <trkpt lat="44.1914" lon="6.79825">
        <ele>1864.5999755859</ele>
        <time>2020-06-06T09:33:29.000Z</time>
      </trkpt>
      <trkpt lat="44.1914" lon="6.79828">
        <ele>1865</ele>
        <time>2020-06-06T09:33:31.000Z</time>
      </trkpt>
      <trkpt lat="44.1914" lon="6.79828">
        <ele>1865.4000244141</ele>
        <time>2020-06-06T09:33:33.000Z</time>
      </trkpt>
      <trkpt lat="44.1914" lon="6.79829">
        <ele>1865.5999755859</ele>
        <time>2020-06-06T09:33:35.000Z</time>
      </trkpt>
      <trkpt lat="44.19142" lon="6.79828">
        <ele>1866</ele>
        <time>2020-06-06T09:33:41.000Z</time>
      </trkpt>
      <trkpt lat="44.19143" lon="6.79829">
        <ele>1866.1999511719</ele>
        <time>2020-06-06T09:33:54.000Z</time>
      </trkpt>
      <trkpt lat="44.19143" lon="6.7983">
        <ele>1866.1999511719</ele>
        <time>2020-06-06T09:33:59.000Z</time>
      </trkpt>
      <trkpt lat="44.19142" lon="6.79832">
        <ele>1866.1999511719</ele>
        <time>2020-06-06T09:34:00.000Z</time>
      </trkpt>
      <trkpt lat="44.1914" lon="6.79837">
        <ele>1866.8000488281</ele>
        <time>2020-06-06T09:34:05.000Z</time>
      </trkpt>
      <trkpt lat="44.1914" lon="6.79839">
        <ele>1867</ele>
        <time>2020-06-06T09:34:06.000Z</time>
      </trkpt>
      <trkpt lat="44.19141" lon="6.79841">
        <ele>1867.1999511719</ele>
        <time>2020-06-06T09:34:08.000Z</time>
      </trkpt>
      <trkpt lat="44.1914" lon="6.79845">
        <ele>1867.5999755859</ele>
        <time>2020-06-06T09:34:11.000Z</time>
      </trkpt>
      <trkpt lat="44.1914" lon="6.79847">
        <ele>1867.8000488281</ele>
        <time>2020-06-06T09:34:13.000Z</time>
      </trkpt>
      <trkpt lat="44.1914" lon="6.79848">
        <ele>1868</ele>
        <time>2020-06-06T09:34:14.000Z</time>
      </trkpt>
      <trkpt lat="44.1914" lon="6.7985">
        <ele>1868.1999511719</ele>
        <time>2020-06-06T09:34:15.000Z</time>
      </trkpt>
      <trkpt lat="44.1914" lon="6.79854">
        <ele>1869</ele>
        <time>2020-06-06T09:34:18.000Z</time>
      </trkpt>
      <trkpt lat="44.19139" lon="6.79856">
        <ele>1869</ele>
        <time>2020-06-06T09:34:19.000Z</time>
      </trkpt>
      <trkpt lat="44.19137" lon="6.79862">
        <ele>1870</ele>
        <time>2020-06-06T09:34:24.000Z</time>
      </trkpt>
      <trkpt lat="44.19137" lon="6.79863">
        <ele>1870.1999511719</ele>
        <time>2020-06-06T09:34:25.000Z</time>
      </trkpt>
      <trkpt lat="44.19135" lon="6.79863">
        <ele>1870.4000244141</ele>
        <time>2020-06-06T09:34:26.000Z</time>
      </trkpt>
      <trkpt lat="44.19133" lon="6.79865">
        <ele>1871</ele>
        <time>2020-06-06T09:34:29.000Z</time>
      </trkpt>
      <trkpt lat="44.19133" lon="6.79866">
        <ele>1871.1999511719</ele>
        <time>2020-06-06T09:34:30.000Z</time>
      </trkpt>
      <trkpt lat="44.19133" lon="6.79869">
        <ele>1871.8000488281</ele>
        <time>2020-06-06T09:34:33.000Z</time>
      </trkpt>
      <trkpt lat="44.19132" lon="6.79872">
        <ele>1872.1999511719</ele>
        <time>2020-06-06T09:34:35.000Z</time>
      </trkpt>
      <trkpt lat="44.19131" lon="6.79873">
        <ele>1872.4000244141</ele>
        <time>2020-06-06T09:34:36.000Z</time>
      </trkpt>
      <trkpt lat="44.19128" lon="6.79881">
        <ele>1873.4000244141</ele>
        <time>2020-06-06T09:34:43.000Z</time>
      </trkpt>
      <trkpt lat="44.19127" lon="6.79883">
        <ele>1874</ele>
        <time>2020-06-06T09:34:45.000Z</time>
      </trkpt>
      <trkpt lat="44.19125" lon="6.79886">
        <ele>1874.4000244141</ele>
        <time>2020-06-06T09:34:48.000Z</time>
      </trkpt>
      <trkpt lat="44.19125" lon="6.79887">
        <ele>1874.4000244141</ele>
        <time>2020-06-06T09:34:49.000Z</time>
      </trkpt>
      <trkpt lat="44.19124" lon="6.79888">
        <ele>1874.5999755859</ele>
        <time>2020-06-06T09:34:50.000Z</time>
      </trkpt>
      <trkpt lat="44.19122" lon="6.79891">
        <ele>1875.1999511719</ele>
        <time>2020-06-06T09:34:53.000Z</time>
      </trkpt>
      <trkpt lat="44.19121" lon="6.79895">
        <ele>1875.5999755859</ele>
        <time>2020-06-06T09:34:56.000Z</time>
      </trkpt>
      <trkpt lat="44.1912" lon="6.79899">
        <ele>1876.1999511719</ele>
        <time>2020-06-06T09:34:59.000Z</time>
      </trkpt>
      <trkpt lat="44.1912" lon="6.799">
        <ele>1876.4000244141</ele>
        <time>2020-06-06T09:35:00.000Z</time>
      </trkpt>
      <trkpt lat="44.19119" lon="6.79906">
        <ele>1876.8000488281</ele>
        <time>2020-06-06T09:35:03.000Z</time>
      </trkpt>
      <trkpt lat="44.1912" lon="6.79906">
        <ele>1877</ele>
        <time>2020-06-06T09:35:04.000Z</time>
      </trkpt>
      <trkpt lat="44.1912" lon="6.79908">
        <ele>1877.1999511719</ele>
        <time>2020-06-06T09:35:05.000Z</time>
      </trkpt>
      <trkpt lat="44.19121" lon="6.79914">
        <ele>1877.5999755859</ele>
        <time>2020-06-06T09:35:08.000Z</time>
      </trkpt>
      <trkpt lat="44.19121" lon="6.79915">
        <ele>1877.8000488281</ele>
        <time>2020-06-06T09:35:09.000Z</time>
      </trkpt>
      <trkpt lat="44.19119" lon="6.79921">
        <ele>1878.4000244141</ele>
        <time>2020-06-06T09:35:12.000Z</time>
      </trkpt>
      <trkpt lat="44.19118" lon="6.79925">
        <ele>1878.8000488281</ele>
        <time>2020-06-06T09:35:14.000Z</time>
      </trkpt>
      <trkpt lat="44.19117" lon="6.79928">
        <ele>1879.1999511719</ele>
        <time>2020-06-06T09:35:16.000Z</time>
      </trkpt>
      <trkpt lat="44.19115" lon="6.79931">
        <ele>1879.8000488281</ele>
        <time>2020-06-06T09:35:18.000Z</time>
      </trkpt>
      <trkpt lat="44.19116" lon="6.79931">
        <ele>1880</ele>
        <time>2020-06-06T09:35:19.000Z</time>
      </trkpt>
      <trkpt lat="44.19116" lon="6.79933">
        <ele>1880.1999511719</ele>
        <time>2020-06-06T09:35:20.000Z</time>
      </trkpt>
      <trkpt lat="44.19114" lon="6.79935">
        <ele>1880.5999755859</ele>
        <time>2020-06-06T09:35:22.000Z</time>
      </trkpt>
      <trkpt lat="44.19113" lon="6.79939">
        <ele>1881</ele>
        <time>2020-06-06T09:35:25.000Z</time>
      </trkpt>
      <trkpt lat="44.19113" lon="6.7994">
        <ele>1881.1999511719</ele>
        <time>2020-06-06T09:35:26.000Z</time>
      </trkpt>
      <trkpt lat="44.19112" lon="6.79942">
        <ele>1881.4000244141</ele>
        <time>2020-06-06T09:35:28.000Z</time>
      </trkpt>
      <trkpt lat="44.1911" lon="6.79945">
        <ele>1882</ele>
        <time>2020-06-06T09:35:33.000Z</time>
      </trkpt>
      <trkpt lat="44.19108" lon="6.79946">
        <ele>1882.1999511719</ele>
        <time>2020-06-06T09:35:34.000Z</time>
      </trkpt>
      <trkpt lat="44.19107" lon="6.79949">
        <ele>1882.5999755859</ele>
        <time>2020-06-06T09:35:38.000Z</time>
      </trkpt>
      <trkpt lat="44.19109" lon="6.79951">
        <ele>1882.8000488281</ele>
        <time>2020-06-06T09:35:39.000Z</time>
      </trkpt>
      <trkpt lat="44.19108" lon="6.79955">
        <ele>1883.1999511719</ele>
        <time>2020-06-06T09:35:42.000Z</time>
      </trkpt>
      <trkpt lat="44.19105" lon="6.79961">
        <ele>1884</ele>
        <time>2020-06-06T09:35:47.000Z</time>
      </trkpt>
      <trkpt lat="44.19105" lon="6.79961">
        <ele>1884.1999511719</ele>
        <time>2020-06-06T09:35:48.000Z</time>
      </trkpt>
      <trkpt lat="44.19104" lon="6.79962">
        <ele>1884.4000244141</ele>
        <time>2020-06-06T09:35:49.000Z</time>
      </trkpt>
      <trkpt lat="44.19101" lon="6.79968">
        <ele>1885.1999511719</ele>
        <time>2020-06-06T09:35:54.000Z</time>
      </trkpt>
      <trkpt lat="44.19101" lon="6.79969">
        <ele>1885.4000244141</ele>
        <time>2020-06-06T09:35:55.000Z</time>
      </trkpt>
      <trkpt lat="44.19101" lon="6.79967">
        <ele>1885.8000488281</ele>
        <time>2020-06-06T09:35:58.000Z</time>
      </trkpt>
      <trkpt lat="44.19098" lon="6.79962">
        <ele>1886.4000244141</ele>
        <time>2020-06-06T09:36:03.000Z</time>
      </trkpt>
      <trkpt lat="44.19098" lon="6.79961">
        <ele>1886.4000244141</ele>
        <time>2020-06-06T09:36:04.000Z</time>
      </trkpt>
      <trkpt lat="44.19098" lon="6.7996">
        <ele>1886.5999755859</ele>
        <time>2020-06-06T09:36:05.000Z</time>
      </trkpt>
      <trkpt lat="44.19097" lon="6.79955">
        <ele>1887.4000244141</ele>
        <time>2020-06-06T09:36:09.000Z</time>
      </trkpt>
      <trkpt lat="44.19096" lon="6.79953">
        <ele>1887.4000244141</ele>
        <time>2020-06-06T09:36:10.000Z</time>
      </trkpt>
      <trkpt lat="44.19096" lon="6.79947">
        <ele>1888.5999755859</ele>
        <time>2020-06-06T09:36:16.000Z</time>
      </trkpt>
      <trkpt lat="44.19097" lon="6.79941">
        <ele>1889.4000244141</ele>
        <time>2020-06-06T09:36:21.000Z</time>
      </trkpt>
      <trkpt lat="44.19097" lon="6.7994">
        <ele>1889.5999755859</ele>
        <time>2020-06-06T09:36:22.000Z</time>
      </trkpt>
      <trkpt lat="44.19097" lon="6.79938">
        <ele>1889.5999755859</ele>
        <time>2020-06-06T09:36:23.000Z</time>
      </trkpt>
      <trkpt lat="44.19096" lon="6.79937">
        <ele>1889.8000488281</ele>
        <time>2020-06-06T09:36:24.000Z</time>
      </trkpt>
      <trkpt lat="44.19094" lon="6.79934">
        <ele>1890.1999511719</ele>
        <time>2020-06-06T09:36:26.000Z</time>
      </trkpt>
      <trkpt lat="44.19093" lon="6.79933">
        <ele>1890.4000244141</ele>
        <time>2020-06-06T09:36:27.000Z</time>
      </trkpt>
      <trkpt lat="44.19092" lon="6.79929">
        <ele>1890.5999755859</ele>
        <time>2020-06-06T09:36:30.000Z</time>
      </trkpt>
      <trkpt lat="44.19091" lon="6.79927">
        <ele>1891</ele>
        <time>2020-06-06T09:36:32.000Z</time>
      </trkpt>
      <trkpt lat="44.1909" lon="6.79925">
        <ele>1891.1999511719</ele>
        <time>2020-06-06T09:36:33.000Z</time>
      </trkpt>
      <trkpt lat="44.19087" lon="6.79918">
        <ele>1891.8000488281</ele>
        <time>2020-06-06T09:36:39.000Z</time>
      </trkpt>
      <trkpt lat="44.19086" lon="6.79916">
        <ele>1892.1999511719</ele>
        <time>2020-06-06T09:36:41.000Z</time>
      </trkpt>
      <trkpt lat="44.19083" lon="6.79908">
        <ele>1893</ele>
        <time>2020-06-06T09:36:46.000Z</time>
      </trkpt>
      <trkpt lat="44.19082" lon="6.79903">
        <ele>1893.8000488281</ele>
        <time>2020-06-06T09:36:49.000Z</time>
      </trkpt>
      <trkpt lat="44.19081" lon="6.79902">
        <ele>1894</ele>
        <time>2020-06-06T09:36:50.000Z</time>
      </trkpt>
      <trkpt lat="44.1908" lon="6.79901">
        <ele>1894.1999511719</ele>
        <time>2020-06-06T09:36:51.000Z</time>
      </trkpt>
      <trkpt lat="44.19076" lon="6.79895">
        <ele>1895</ele>
        <time>2020-06-06T09:36:56.000Z</time>
      </trkpt>
      <trkpt lat="44.19074" lon="6.79893">
        <ele>1895.4000244141</ele>
        <time>2020-06-06T09:36:58.000Z</time>
      </trkpt>
      <trkpt lat="44.19068" lon="6.79887">
        <ele>1896.1999511719</ele>
        <time>2020-06-06T09:37:04.000Z</time>
      </trkpt>
      <trkpt lat="44.19067" lon="6.79886">
        <ele>1896.4000244141</ele>
        <time>2020-06-06T09:37:05.000Z</time>
      </trkpt>
      <trkpt lat="44.19061" lon="6.79879">
        <ele>1897.1999511719</ele>
        <time>2020-06-06T09:37:11.000Z</time>
      </trkpt>
      <trkpt lat="44.1906" lon="6.79877">
        <ele>1897.4000244141</ele>
        <time>2020-06-06T09:37:13.000Z</time>
      </trkpt>
      <trkpt lat="44.19055" lon="6.79869">
        <ele>1898.1999511719</ele>
        <time>2020-06-06T09:37:19.000Z</time>
      </trkpt>
      <trkpt lat="44.19054" lon="6.79867">
        <ele>1898.5999755859</ele>
        <time>2020-06-06T09:37:21.000Z</time>
      </trkpt>
      <trkpt lat="44.19051" lon="6.79862">
        <ele>1899.5999755859</ele>
        <time>2020-06-06T09:37:26.000Z</time>
      </trkpt>
      <trkpt lat="44.19048" lon="6.79854">
        <ele>1900.8000488281</ele>
        <time>2020-06-06T09:37:33.000Z</time>
      </trkpt>
      <trkpt lat="44.19048" lon="6.79853">
        <ele>1901</ele>
        <time>2020-06-06T09:37:34.000Z</time>
      </trkpt>
      <trkpt lat="44.19044" lon="6.79845">
        <ele>1901.8000488281</ele>
        <time>2020-06-06T09:37:41.000Z</time>
      </trkpt>
      <trkpt lat="44.19043" lon="6.79843">
        <ele>1901.8000488281</ele>
        <time>2020-06-06T09:37:42.000Z</time>
      </trkpt>
      <trkpt lat="44.19042" lon="6.79842">
        <ele>1902.1999511719</ele>
        <time>2020-06-06T09:37:44.000Z</time>
      </trkpt>
      <trkpt lat="44.1904" lon="6.79837">
        <ele>1902.8000488281</ele>
        <time>2020-06-06T09:37:48.000Z</time>
      </trkpt>
      <trkpt lat="44.19039" lon="6.79835">
        <ele>1903</ele>
        <time>2020-06-06T09:37:49.000Z</time>
      </trkpt>
      <trkpt lat="44.19039" lon="6.79827">
        <ele>1904.1999511719</ele>
        <time>2020-06-06T09:37:55.000Z</time>
      </trkpt>
      <trkpt lat="44.19038" lon="6.79826">
        <ele>1904.1999511719</ele>
        <time>2020-06-06T09:37:56.000Z</time>
      </trkpt>
      <trkpt lat="44.19034" lon="6.79817">
        <ele>1905.1999511719</ele>
        <time>2020-06-06T09:38:03.000Z</time>
      </trkpt>
      <trkpt lat="44.19029" lon="6.79809">
        <ele>1905.8000488281</ele>
        <time>2020-06-06T09:38:08.000Z</time>
      </trkpt>
      <trkpt lat="44.19027" lon="6.79807">
        <ele>1906.1999511719</ele>
        <time>2020-06-06T09:38:10.000Z</time>
      </trkpt>
      <trkpt lat="44.19024" lon="6.79801">
        <ele>1907</ele>
        <time>2020-06-06T09:38:15.000Z</time>
      </trkpt>
      <trkpt lat="44.19023" lon="6.79799">
        <ele>1907.1999511719</ele>
        <time>2020-06-06T09:38:17.000Z</time>
      </trkpt>
      <trkpt lat="44.19019" lon="6.79795">
        <ele>1907.1999511719</ele>
        <time>2020-06-06T09:38:20.000Z</time>
      </trkpt>
      <trkpt lat="44.19018" lon="6.79794">
        <ele>1907.1999511719</ele>
        <time>2020-06-06T09:38:21.000Z</time>
      </trkpt>
      <trkpt lat="44.19015" lon="6.79789">
        <ele>1907.1999511719</ele>
        <time>2020-06-06T09:38:25.000Z</time>
      </trkpt>
      <trkpt lat="44.19014" lon="6.79787">
        <ele>1907.4000244141</ele>
        <time>2020-06-06T09:38:27.000Z</time>
      </trkpt>
      <trkpt lat="44.19011" lon="6.79783">
        <ele>1908</ele>
        <time>2020-06-06T09:38:31.000Z</time>
      </trkpt>
      <trkpt lat="44.19004" lon="6.79776">
        <ele>1908.5999755859</ele>
        <time>2020-06-06T09:38:37.000Z</time>
      </trkpt>
      <trkpt lat="44.19004" lon="6.79776">
        <ele>1908.8000488281</ele>
        <time>2020-06-06T09:38:38.000Z</time>
      </trkpt>
      <trkpt lat="44.19003" lon="6.79775">
        <ele>1909.5999755859</ele>
        <time>2020-06-06T09:38:41.000Z</time>
      </trkpt>
      <trkpt lat="44.19002" lon="6.79772">
        <ele>1909.8000488281</ele>
        <time>2020-06-06T09:38:44.000Z</time>
      </trkpt>
      <trkpt lat="44.19001" lon="6.79769">
        <ele>1910.1999511719</ele>
        <time>2020-06-06T09:38:49.000Z</time>
      </trkpt>
      <trkpt lat="44.19001" lon="6.79769">
        <ele>1910.5999755859</ele>
        <time>2020-06-06T09:38:52.000Z</time>
      </trkpt>
      <trkpt lat="44.18999" lon="6.79768">
        <ele>1910.8000488281</ele>
        <time>2020-06-06T09:38:54.000Z</time>
      </trkpt>
      <trkpt lat="44.18997" lon="6.79767">
        <ele>1911.4000244141</ele>
        <time>2020-06-06T09:39:00.000Z</time>
      </trkpt>
      <trkpt lat="44.18996" lon="6.79766">
        <ele>1911.5999755859</ele>
        <time>2020-06-06T09:39:02.000Z</time>
      </trkpt>
      <trkpt lat="44.18994" lon="6.79764">
        <ele>1912.5999755859</ele>
        <time>2020-06-06T09:39:07.000Z</time>
      </trkpt>
      <trkpt lat="44.18994" lon="6.79764">
        <ele>1912.8000488281</ele>
        <time>2020-06-06T09:39:08.000Z</time>
      </trkpt>
      <trkpt lat="44.18992" lon="6.7976">
        <ele>1913.4000244141</ele>
        <time>2020-06-06T09:39:13.000Z</time>
      </trkpt>
      <trkpt lat="44.18989" lon="6.79757">
        <ele>1913.8000488281</ele>
        <time>2020-06-06T09:39:18.000Z</time>
      </trkpt>
      <trkpt lat="44.18988" lon="6.79755">
        <ele>1914.1999511719</ele>
        <time>2020-06-06T09:39:20.000Z</time>
      </trkpt>
      <trkpt lat="44.18986" lon="6.79752">
        <ele>1914.8000488281</ele>
        <time>2020-06-06T09:39:24.000Z</time>
      </trkpt>
      <trkpt lat="44.18984" lon="6.7975">
        <ele>1915.4000244141</ele>
        <time>2020-06-06T09:39:27.000Z</time>
      </trkpt>
      <trkpt lat="44.18983" lon="6.79748">
        <ele>1916</ele>
        <time>2020-06-06T09:39:30.000Z</time>
      </trkpt>
      <trkpt lat="44.18979" lon="6.79744">
        <ele>1916.5999755859</ele>
        <time>2020-06-06T09:39:34.000Z</time>
      </trkpt>
      <trkpt lat="44.18978" lon="6.79742">
        <ele>1917</ele>
        <time>2020-06-06T09:39:37.000Z</time>
      </trkpt>
      <trkpt lat="44.18975" lon="6.79739">
        <ele>1917.5999755859</ele>
        <time>2020-06-06T09:39:42.000Z</time>
      </trkpt>
      <trkpt lat="44.18975" lon="6.79737">
        <ele>1918</ele>
        <time>2020-06-06T09:39:45.000Z</time>
      </trkpt>
      <trkpt lat="44.18974" lon="6.79734">
        <ele>1918.8000488281</ele>
        <time>2020-06-06T09:39:49.000Z</time>
      </trkpt>
      <trkpt lat="44.18973" lon="6.79734">
        <ele>1919.1999511719</ele>
        <time>2020-06-06T09:39:51.000Z</time>
      </trkpt>
      <trkpt lat="44.1897" lon="6.7973">
        <ele>1920.1999511719</ele>
        <time>2020-06-06T09:39:58.000Z</time>
      </trkpt>
      <trkpt lat="44.18966" lon="6.79727">
        <ele>1921.4000244141</ele>
        <time>2020-06-06T09:40:04.000Z</time>
      </trkpt>
      <trkpt lat="44.18966" lon="6.79727">
        <ele>1921.4000244141</ele>
        <time>2020-06-06T09:40:05.000Z</time>
      </trkpt>
      <trkpt lat="44.18961" lon="6.79725">
        <ele>1922.4000244141</ele>
        <time>2020-06-06T09:40:10.000Z</time>
      </trkpt>
      <trkpt lat="44.18959" lon="6.79723">
        <ele>1923</ele>
        <time>2020-06-06T09:40:13.000Z</time>
      </trkpt>
      <trkpt lat="44.18958" lon="6.79722">
        <ele>1923.4000244141</ele>
        <time>2020-06-06T09:40:16.000Z</time>
      </trkpt>
      <trkpt lat="44.18957" lon="6.7972">
        <ele>1924</ele>
        <time>2020-06-06T09:40:20.000Z</time>
      </trkpt>
      <trkpt lat="44.18955" lon="6.79719">
        <ele>1924.4000244141</ele>
        <time>2020-06-06T09:40:22.000Z</time>
      </trkpt>
      <trkpt lat="44.18953" lon="6.7972">
        <ele>1925.1999511719</ele>
        <time>2020-06-06T09:40:27.000Z</time>
      </trkpt>
      <trkpt lat="44.18953" lon="6.7972">
        <ele>1925.4000244141</ele>
        <time>2020-06-06T09:40:28.000Z</time>
      </trkpt>
      <trkpt lat="44.18953" lon="6.79721">
        <ele>1925.5999755859</ele>
        <time>2020-06-06T09:40:30.000Z</time>
      </trkpt>
      <trkpt lat="44.18953" lon="6.7972">
        <ele>1925.5999755859</ele>
        <time>2020-06-06T09:40:32.000Z</time>
      </trkpt>
      <trkpt lat="44.18952" lon="6.79724">
        <ele>1925.5999755859</ele>
        <time>2020-06-06T09:40:37.000Z</time>
      </trkpt>
      <trkpt lat="44.18952" lon="6.79726">
        <ele>1925.8000488281</ele>
        <time>2020-06-06T09:40:38.000Z</time>
      </trkpt>
      <trkpt lat="44.18952" lon="6.79731">
        <ele>1926.1999511719</ele>
        <time>2020-06-06T09:40:42.000Z</time>
      </trkpt>
      <trkpt lat="44.18952" lon="6.79736">
        <ele>1926.4000244141</ele>
        <time>2020-06-06T09:40:45.000Z</time>
      </trkpt>
      <trkpt lat="44.18952" lon="6.79737">
        <ele>1926.5999755859</ele>
        <time>2020-06-06T09:40:46.000Z</time>
      </trkpt>
      <trkpt lat="44.18955" lon="6.7974">
        <ele>1926.8000488281</ele>
        <time>2020-06-06T09:40:49.000Z</time>
      </trkpt>
      <trkpt lat="44.18955" lon="6.79744">
        <ele>1927.1999511719</ele>
        <time>2020-06-06T09:40:52.000Z</time>
      </trkpt>
      <trkpt lat="44.18955" lon="6.79748">
        <ele>1927.5999755859</ele>
        <time>2020-06-06T09:40:54.000Z</time>
      </trkpt>
      <trkpt lat="44.18956" lon="6.79749">
        <ele>1927.8000488281</ele>
        <time>2020-06-06T09:40:55.000Z</time>
      </trkpt>
      <trkpt lat="44.18955" lon="6.79754">
        <ele>1928.1999511719</ele>
        <time>2020-06-06T09:40:58.000Z</time>
      </trkpt>
      <trkpt lat="44.18954" lon="6.7976">
        <ele>1928.5999755859</ele>
        <time>2020-06-06T09:41:02.000Z</time>
      </trkpt>
      <trkpt lat="44.18953" lon="6.7977">
        <ele>1929.4000244141</ele>
        <time>2020-06-06T09:41:08.000Z</time>
      </trkpt>
      <trkpt lat="44.18951" lon="6.79774">
        <ele>1929.8000488281</ele>
        <time>2020-06-06T09:41:11.000Z</time>
      </trkpt>
      <trkpt lat="44.18951" lon="6.79775">
        <ele>1930</ele>
        <time>2020-06-06T09:41:12.000Z</time>
      </trkpt>
      <trkpt lat="44.18952" lon="6.79778">
        <ele>1930.1999511719</ele>
        <time>2020-06-06T09:41:14.000Z</time>
      </trkpt>
      <trkpt lat="44.18955" lon="6.79787">
        <ele>1930.8000488281</ele>
        <time>2020-06-06T09:41:19.000Z</time>
      </trkpt>
      <trkpt lat="44.18956" lon="6.79789">
        <ele>1931</ele>
        <time>2020-06-06T09:41:20.000Z</time>
      </trkpt>
      <trkpt lat="44.18958" lon="6.79799">
        <ele>1932</ele>
        <time>2020-06-06T09:41:26.000Z</time>
      </trkpt>
      <trkpt lat="44.18958" lon="6.79807">
        <ele>1933.1999511719</ele>
        <time>2020-06-06T09:41:31.000Z</time>
      </trkpt>
      <trkpt lat="44.18958" lon="6.79809">
        <ele>1933.4000244141</ele>
        <time>2020-06-06T09:41:32.000Z</time>
      </trkpt>
      <trkpt lat="44.18957" lon="6.79814">
        <ele>1934</ele>
        <time>2020-06-06T09:41:36.000Z</time>
      </trkpt>
      <trkpt lat="44.18956" lon="6.79816">
        <ele>1934</ele>
        <time>2020-06-06T09:41:37.000Z</time>
      </trkpt>
      <trkpt lat="44.18955" lon="6.7982">
        <ele>1934.4000244141</ele>
        <time>2020-06-06T09:41:39.000Z</time>
      </trkpt>
      <trkpt lat="44.18953" lon="6.79827">
        <ele>1935</ele>
        <time>2020-06-06T09:41:44.000Z</time>
      </trkpt>
      <trkpt lat="44.18952" lon="6.79832">
        <ele>1935.4000244141</ele>
        <time>2020-06-06T09:41:47.000Z</time>
      </trkpt>
      <trkpt lat="44.18952" lon="6.79839">
        <ele>1936.1999511719</ele>
        <time>2020-06-06T09:41:52.000Z</time>
      </trkpt>
      <trkpt lat="44.18952" lon="6.79842">
        <ele>1936.5999755859</ele>
        <time>2020-06-06T09:41:54.000Z</time>
      </trkpt>
      <trkpt lat="44.18951" lon="6.7985">
        <ele>1937.1999511719</ele>
        <time>2020-06-06T09:41:59.000Z</time>
      </trkpt>
      <trkpt lat="44.18951" lon="6.79854">
        <ele>1937.5999755859</ele>
        <time>2020-06-06T09:42:02.000Z</time>
      </trkpt>
      <trkpt lat="44.18953" lon="6.79861">
        <ele>1938.1999511719</ele>
        <time>2020-06-06T09:42:06.000Z</time>
      </trkpt>
      <trkpt lat="44.18954" lon="6.79867">
        <ele>1938.8000488281</ele>
        <time>2020-06-06T09:42:10.000Z</time>
      </trkpt>
      <trkpt lat="44.18954" lon="6.79871">
        <ele>1939.1999511719</ele>
        <time>2020-06-06T09:42:12.000Z</time>
      </trkpt>
      <trkpt lat="44.18955" lon="6.79872">
        <ele>1939.4000244141</ele>
        <time>2020-06-06T09:42:13.000Z</time>
      </trkpt>
      <trkpt lat="44.18956" lon="6.79877">
        <ele>1939.8000488281</ele>
        <time>2020-06-06T09:42:16.000Z</time>
      </trkpt>
      <trkpt lat="44.18956" lon="6.79879">
        <ele>1940</ele>
        <time>2020-06-06T09:42:17.000Z</time>
      </trkpt>
      <trkpt lat="44.18957" lon="6.79885">
        <ele>1940.4000244141</ele>
        <time>2020-06-06T09:42:21.000Z</time>
      </trkpt>
      <trkpt lat="44.18958" lon="6.79893">
        <ele>1940.8000488281</ele>
        <time>2020-06-06T09:42:25.000Z</time>
      </trkpt>
      <trkpt lat="44.18958" lon="6.79899">
        <ele>1941.5999755859</ele>
        <time>2020-06-06T09:42:29.000Z</time>
      </trkpt>
      <trkpt lat="44.18958" lon="6.799">
        <ele>1941.8000488281</ele>
        <time>2020-06-06T09:42:30.000Z</time>
      </trkpt>
      <trkpt lat="44.18958" lon="6.79907">
        <ele>1942.5999755859</ele>
        <time>2020-06-06T09:42:34.000Z</time>
      </trkpt>
      <trkpt lat="44.18958" lon="6.79912">
        <ele>1943</ele>
        <time>2020-06-06T09:42:37.000Z</time>
      </trkpt>
      <trkpt lat="44.18958" lon="6.79918">
        <ele>1943.4000244141</ele>
        <time>2020-06-06T09:42:40.000Z</time>
      </trkpt>
      <trkpt lat="44.18957" lon="6.79924">
        <ele>1944</ele>
        <time>2020-06-06T09:42:44.000Z</time>
      </trkpt>
      <trkpt lat="44.18956" lon="6.79927">
        <ele>1944.5999755859</ele>
        <time>2020-06-06T09:42:46.000Z</time>
      </trkpt>
      <trkpt lat="44.18955" lon="6.79931">
        <ele>1945</ele>
        <time>2020-06-06T09:42:49.000Z</time>
      </trkpt>
      <trkpt lat="44.18955" lon="6.79933">
        <ele>1945.1999511719</ele>
        <time>2020-06-06T09:42:50.000Z</time>
      </trkpt>
      <trkpt lat="44.18954" lon="6.79936">
        <ele>1945.4000244141</ele>
        <time>2020-06-06T09:42:52.000Z</time>
      </trkpt>
      <trkpt lat="44.18954" lon="6.79939">
        <ele>1945.8000488281</ele>
        <time>2020-06-06T09:42:54.000Z</time>
      </trkpt>
      <trkpt lat="44.18953" lon="6.79943">
        <ele>1946</ele>
        <time>2020-06-06T09:42:57.000Z</time>
      </trkpt>
      <trkpt lat="44.18952" lon="6.79946">
        <ele>1946.5999755859</ele>
        <time>2020-06-06T09:43:00.000Z</time>
      </trkpt>
      <trkpt lat="44.18952" lon="6.79952">
        <ele>1947</ele>
        <time>2020-06-06T09:43:04.000Z</time>
      </trkpt>
      <trkpt lat="44.18951" lon="6.79955">
        <ele>1947.4000244141</ele>
        <time>2020-06-06T09:43:06.000Z</time>
      </trkpt>
      <trkpt lat="44.1895" lon="6.79964">
        <ele>1948</ele>
        <time>2020-06-06T09:43:12.000Z</time>
      </trkpt>
      <trkpt lat="44.18948" lon="6.79965">
        <ele>1948.1999511719</ele>
        <time>2020-06-06T09:43:13.000Z</time>
      </trkpt>
      <trkpt lat="44.18947" lon="6.79969">
        <ele>1948.5999755859</ele>
        <time>2020-06-06T09:43:16.000Z</time>
      </trkpt>
      <trkpt lat="44.18946" lon="6.79971">
        <ele>1948.8000488281</ele>
        <time>2020-06-06T09:43:18.000Z</time>
      </trkpt>
      <trkpt lat="44.18945" lon="6.79976">
        <ele>1949.1999511719</ele>
        <time>2020-06-06T09:43:21.000Z</time>
      </trkpt>
      <trkpt lat="44.18945" lon="6.79982">
        <ele>1950</ele>
        <time>2020-06-06T09:43:26.000Z</time>
      </trkpt>
      <trkpt lat="44.18945" lon="6.79985">
        <ele>1950.1999511719</ele>
        <time>2020-06-06T09:43:28.000Z</time>
      </trkpt>
      <trkpt lat="44.18946" lon="6.79988">
        <ele>1950.4000244141</ele>
        <time>2020-06-06T09:43:30.000Z</time>
      </trkpt>
      <trkpt lat="44.18945" lon="6.79992">
        <ele>1950.8000488281</ele>
        <time>2020-06-06T09:43:33.000Z</time>
      </trkpt>
      <trkpt lat="44.18946" lon="6.79993">
        <ele>1951</ele>
        <time>2020-06-06T09:43:34.000Z</time>
      </trkpt>
      <trkpt lat="44.18946" lon="6.79998">
        <ele>1951.4000244141</ele>
        <time>2020-06-06T09:43:38.000Z</time>
      </trkpt>
      <trkpt lat="44.18946" lon="6.79999">
        <ele>1951.5999755859</ele>
        <time>2020-06-06T09:43:39.000Z</time>
      </trkpt>
      <trkpt lat="44.18944" lon="6.80006">
        <ele>1952.4000244141</ele>
        <time>2020-06-06T09:43:44.000Z</time>
      </trkpt>
      <trkpt lat="44.18944" lon="6.80007">
        <ele>1952.4000244141</ele>
        <time>2020-06-06T09:43:45.000Z</time>
      </trkpt>
      <trkpt lat="44.18946" lon="6.80014">
        <ele>1953</ele>
        <time>2020-06-06T09:43:49.000Z</time>
      </trkpt>
      <trkpt lat="44.18945" lon="6.80015">
        <ele>1953.1999511719</ele>
        <time>2020-06-06T09:43:50.000Z</time>
      </trkpt>
      <trkpt lat="44.18945" lon="6.80018">
        <ele>1953.4000244141</ele>
        <time>2020-06-06T09:43:52.000Z</time>
      </trkpt>
      <trkpt lat="44.18946" lon="6.80026">
        <ele>1953.8000488281</ele>
        <time>2020-06-06T09:43:56.000Z</time>
      </trkpt>
      <trkpt lat="44.18951" lon="6.8004">
        <ele>1954.4000244141</ele>
        <time>2020-06-06T09:44:03.000Z</time>
      </trkpt>
      <trkpt lat="44.18951" lon="6.80042">
        <ele>1954.4000244141</ele>
        <time>2020-06-06T09:44:05.000Z</time>
      </trkpt>
      <trkpt lat="44.18951" lon="6.80044">
        <ele>1954.5999755859</ele>
        <time>2020-06-06T09:44:06.000Z</time>
      </trkpt>
      <trkpt lat="44.18953" lon="6.80047">
        <ele>1954.8000488281</ele>
        <time>2020-06-06T09:44:08.000Z</time>
      </trkpt>
      <trkpt lat="44.18954" lon="6.80063">
        <ele>1955.4000244141</ele>
        <time>2020-06-06T09:44:16.000Z</time>
      </trkpt>
      <trkpt lat="44.18953" lon="6.80066">
        <ele>1955.5999755859</ele>
        <time>2020-06-06T09:44:18.000Z</time>
      </trkpt>
      <trkpt lat="44.18953" lon="6.80066">
        <ele>1956.1999511719</ele>
        <time>2020-06-06T09:44:21.000Z</time>
      </trkpt>
      <trkpt lat="44.1895" lon="6.8007">
        <ele>1956.5999755859</ele>
        <time>2020-06-06T09:44:26.000Z</time>
      </trkpt>
      <trkpt lat="44.18949" lon="6.80072">
        <ele>1957.8000488281</ele>
        <time>2020-06-06T09:44:32.000Z</time>
      </trkpt>
      <trkpt lat="44.18948" lon="6.80073">
        <ele>1958.1999511719</ele>
        <time>2020-06-06T09:44:34.000Z</time>
      </trkpt>
      <trkpt lat="44.18948" lon="6.80077">
        <ele>1958.1999511719</ele>
        <time>2020-06-06T09:44:36.000Z</time>
      </trkpt>
      <trkpt lat="44.1895" lon="6.80084">
        <ele>1958.1999511719</ele>
        <time>2020-06-06T09:44:41.000Z</time>
      </trkpt>
      <trkpt lat="44.18952" lon="6.80085">
        <ele>1958.1999511719</ele>
        <time>2020-06-06T09:44:42.000Z</time>
      </trkpt>
      <trkpt lat="44.18953" lon="6.80087">
        <ele>1958.4000244141</ele>
        <time>2020-06-06T09:44:46.000Z</time>
      </trkpt>
      <trkpt lat="44.18957" lon="6.8009">
        <ele>1958.4000244141</ele>
        <time>2020-06-06T09:44:54.000Z</time>
      </trkpt>
      <trkpt lat="44.18959" lon="6.80091">
        <ele>1958.4000244141</ele>
        <time>2020-06-06T09:44:59.000Z</time>
      </trkpt>
      <trkpt lat="44.18961" lon="6.80095">
        <ele>1958.5999755859</ele>
        <time>2020-06-06T09:45:03.000Z</time>
      </trkpt>
      <trkpt lat="44.18961" lon="6.80097">
        <ele>1958.5999755859</ele>
        <time>2020-06-06T09:45:04.000Z</time>
      </trkpt>
      <trkpt lat="44.18965" lon="6.80101">
        <ele>1958.8000488281</ele>
        <time>2020-06-06T09:45:07.000Z</time>
      </trkpt>
      <trkpt lat="44.18966" lon="6.80105">
        <ele>1959</ele>
        <time>2020-06-06T09:45:09.000Z</time>
      </trkpt>
      <trkpt lat="44.18969" lon="6.80111">
        <ele>1959.4000244141</ele>
        <time>2020-06-06T09:45:13.000Z</time>
      </trkpt>
      <trkpt lat="44.1897" lon="6.80113">
        <ele>1959.4000244141</ele>
        <time>2020-06-06T09:45:14.000Z</time>
      </trkpt>
      <trkpt lat="44.1897" lon="6.80115">
        <ele>1959.5999755859</ele>
        <time>2020-06-06T09:45:15.000Z</time>
      </trkpt>
      <trkpt lat="44.1897" lon="6.80116">
        <ele>1960</ele>
        <time>2020-06-06T09:45:16.000Z</time>
      </trkpt>
      <trkpt lat="44.18971" lon="6.80117">
        <ele>1960.1999511719</ele>
        <time>2020-06-06T09:45:17.000Z</time>
      </trkpt>
      <trkpt lat="44.18973" lon="6.80118">
        <ele>1960.4000244141</ele>
        <time>2020-06-06T09:45:18.000Z</time>
      </trkpt>
      <trkpt lat="44.18975" lon="6.80123">
        <ele>1961</ele>
        <time>2020-06-06T09:45:21.000Z</time>
      </trkpt>
      <trkpt lat="44.18977" lon="6.80126">
        <ele>1961.1999511719</ele>
        <time>2020-06-06T09:45:23.000Z</time>
      </trkpt>
      <trkpt lat="44.18981" lon="6.80139">
        <ele>1961.8000488281</ele>
        <time>2020-06-06T09:45:29.000Z</time>
      </trkpt>
      <trkpt lat="44.18982" lon="6.80145">
        <ele>1962</ele>
        <time>2020-06-06T09:45:32.000Z</time>
      </trkpt>
      <trkpt lat="44.18983" lon="6.80146">
        <ele>1962.1999511719</ele>
        <time>2020-06-06T09:45:33.000Z</time>
      </trkpt>
      <trkpt lat="44.18984" lon="6.8015">
        <ele>1962.4000244141</ele>
        <time>2020-06-06T09:45:35.000Z</time>
      </trkpt>
      <trkpt lat="44.18986" lon="6.80159">
        <ele>1962.5999755859</ele>
        <time>2020-06-06T09:45:39.000Z</time>
      </trkpt>
      <trkpt lat="44.18986" lon="6.80163">
        <ele>1962.8000488281</ele>
        <time>2020-06-06T09:45:41.000Z</time>
      </trkpt>
      <trkpt lat="44.18987" lon="6.80171">
        <ele>1963.1999511719</ele>
        <time>2020-06-06T09:45:45.000Z</time>
      </trkpt>
      <trkpt lat="44.18988" lon="6.80175">
        <ele>1963.1999511719</ele>
        <time>2020-06-06T09:45:47.000Z</time>
      </trkpt>
      <trkpt lat="44.18989" lon="6.80183">
        <ele>1963.8000488281</ele>
        <time>2020-06-06T09:45:51.000Z</time>
      </trkpt>
      <trkpt lat="44.18989" lon="6.80188">
        <ele>1963.8000488281</ele>
        <time>2020-06-06T09:45:53.000Z</time>
      </trkpt>
      <trkpt lat="44.18989" lon="6.80197">
        <ele>1964.1999511719</ele>
        <time>2020-06-06T09:45:57.000Z</time>
      </trkpt>
      <trkpt lat="44.18988" lon="6.802">
        <ele>1964.5999755859</ele>
        <time>2020-06-06T09:45:59.000Z</time>
      </trkpt>
      <trkpt lat="44.18991" lon="6.80211">
        <ele>1965.1999511719</ele>
        <time>2020-06-06T09:46:04.000Z</time>
      </trkpt>
      <trkpt lat="44.18992" lon="6.80213">
        <ele>1965.4000244141</ele>
        <time>2020-06-06T09:46:05.000Z</time>
      </trkpt>
      <trkpt lat="44.18993" lon="6.80226">
        <ele>1965.8000488281</ele>
        <time>2020-06-06T09:46:10.000Z</time>
      </trkpt>
      <trkpt lat="44.18996" lon="6.80237">
        <ele>1966.4000244141</ele>
        <time>2020-06-06T09:46:14.000Z</time>
      </trkpt>
      <trkpt lat="44.18995" lon="6.80239">
        <ele>1966.4000244141</ele>
        <time>2020-06-06T09:46:15.000Z</time>
      </trkpt>
      <trkpt lat="44.18996" lon="6.80248">
        <ele>1966.5999755859</ele>
        <time>2020-06-06T09:46:19.000Z</time>
      </trkpt>
      <trkpt lat="44.18997" lon="6.80253">
        <ele>1967</ele>
        <time>2020-06-06T09:46:21.000Z</time>
      </trkpt>
      <trkpt lat="44.18999" lon="6.80261">
        <ele>1967.4000244141</ele>
        <time>2020-06-06T09:46:24.000Z</time>
      </trkpt>
      <trkpt lat="44.18999" lon="6.80264">
        <ele>1967.5999755859</ele>
        <time>2020-06-06T09:46:25.000Z</time>
      </trkpt>
      <trkpt lat="44.19" lon="6.80271">
        <ele>1968</ele>
        <time>2020-06-06T09:46:28.000Z</time>
      </trkpt>
      <trkpt lat="44.19003" lon="6.8028">
        <ele>1968.5999755859</ele>
        <time>2020-06-06T09:46:32.000Z</time>
      </trkpt>
      <trkpt lat="44.19004" lon="6.80289">
        <ele>1968.5999755859</ele>
        <time>2020-06-06T09:46:35.000Z</time>
      </trkpt>
      <trkpt lat="44.19008" lon="6.80314">
        <ele>1968</ele>
        <time>2020-06-06T09:46:43.000Z</time>
      </trkpt>
      <trkpt lat="44.1901" lon="6.80337">
        <ele>1967.8000488281</ele>
        <time>2020-06-06T09:46:50.000Z</time>
      </trkpt>
      <trkpt lat="44.19013" lon="6.80347">
        <ele>1967.4000244141</ele>
        <time>2020-06-06T09:46:53.000Z</time>
      </trkpt>
      <trkpt lat="44.19014" lon="6.80354">
        <ele>1967.1999511719</ele>
        <time>2020-06-06T09:46:55.000Z</time>
      </trkpt>
      <trkpt lat="44.19018" lon="6.80373">
        <ele>1966.5999755859</ele>
        <time>2020-06-06T09:47:01.000Z</time>
      </trkpt>
      <trkpt lat="44.19019" lon="6.8039">
        <ele>1966.5999755859</ele>
        <time>2020-06-06T09:47:06.000Z</time>
      </trkpt>
      <trkpt lat="44.19017" lon="6.80411">
        <ele>1966.8000488281</ele>
        <time>2020-06-06T09:47:12.000Z</time>
      </trkpt>
      <trkpt lat="44.19013" lon="6.80426">
        <ele>1966.8000488281</ele>
        <time>2020-06-06T09:47:18.000Z</time>
      </trkpt>
      <trkpt lat="44.19013" lon="6.80429">
        <ele>1966.5999755859</ele>
        <time>2020-06-06T09:47:21.000Z</time>
      </trkpt>
      <trkpt lat="44.19013" lon="6.80431">
        <ele>1966.8000488281</ele>
        <time>2020-06-06T09:47:23.000Z</time>
      </trkpt>
      <trkpt lat="44.19009" lon="6.80438">
        <ele>1966.8000488281</ele>
        <time>2020-06-06T09:47:29.000Z</time>
      </trkpt>
      <trkpt lat="44.19004" lon="6.80451">
        <ele>1966.5999755859</ele>
        <time>2020-06-06T09:47:34.000Z</time>
      </trkpt>
      <trkpt lat="44.18997" lon="6.80462">
        <ele>1967.4000244141</ele>
        <time>2020-06-06T09:47:39.000Z</time>
      </trkpt>
      <trkpt lat="44.18997" lon="6.80464">
        <ele>1967.4000244141</ele>
        <time>2020-06-06T09:47:40.000Z</time>
      </trkpt>
      <trkpt lat="44.1899" lon="6.80471">
        <ele>1968</ele>
        <time>2020-06-06T09:47:44.000Z</time>
      </trkpt>
      <trkpt lat="44.18985" lon="6.80481">
        <ele>1968.4000244141</ele>
        <time>2020-06-06T09:47:49.000Z</time>
      </trkpt>
      <trkpt lat="44.18982" lon="6.80485">
        <ele>1968.5999755859</ele>
        <time>2020-06-06T09:47:51.000Z</time>
      </trkpt>
      <trkpt lat="44.18981" lon="6.80486">
        <ele>1968.8000488281</ele>
        <time>2020-06-06T09:47:52.000Z</time>
      </trkpt>
      <trkpt lat="44.1898" lon="6.80488">
        <ele>1968.8000488281</ele>
        <time>2020-06-06T09:47:53.000Z</time>
      </trkpt>
      <trkpt lat="44.18976" lon="6.80492">
        <ele>1969.1999511719</ele>
        <time>2020-06-06T09:47:56.000Z</time>
      </trkpt>
      <trkpt lat="44.18971" lon="6.80496">
        <ele>1969.4000244141</ele>
        <time>2020-06-06T09:47:59.000Z</time>
      </trkpt>
      <trkpt lat="44.18966" lon="6.80505">
        <ele>1969.5999755859</ele>
        <time>2020-06-06T09:48:05.000Z</time>
      </trkpt>
      <trkpt lat="44.1897" lon="6.8051">
        <ele>1970.1999511719</ele>
        <time>2020-06-06T09:48:08.000Z</time>
      </trkpt>
      <trkpt lat="44.18968" lon="6.80514">
        <ele>1970.4000244141</ele>
        <time>2020-06-06T09:48:10.000Z</time>
      </trkpt>
      <trkpt lat="44.18966" lon="6.80516">
        <ele>1970.8000488281</ele>
        <time>2020-06-06T09:48:12.000Z</time>
      </trkpt>
      <trkpt lat="44.18959" lon="6.80527">
        <ele>1970.8000488281</ele>
        <time>2020-06-06T09:48:15.000Z</time>
      </trkpt>
      <trkpt lat="44.18951" lon="6.80538">
        <ele>1969.8000488281</ele>
        <time>2020-06-06T09:48:19.000Z</time>
      </trkpt>
      <trkpt lat="44.18946" lon="6.80546">
        <ele>1969.5999755859</ele>
        <time>2020-06-06T09:48:23.000Z</time>
      </trkpt>
      <trkpt lat="44.18945" lon="6.8055">
        <ele>1969.5999755859</ele>
        <time>2020-06-06T09:48:24.000Z</time>
      </trkpt>
      <trkpt lat="44.18944" lon="6.80554">
        <ele>1969</ele>
        <time>2020-06-06T09:48:27.000Z</time>
      </trkpt>
      <trkpt lat="44.18945" lon="6.80555">
        <ele>1968.5999755859</ele>
        <time>2020-06-06T09:48:29.000Z</time>
      </trkpt>
      <trkpt lat="44.18946" lon="6.80558">
        <ele>1968.5999755859</ele>
        <time>2020-06-06T09:48:33.000Z</time>
      </trkpt>
      <trkpt lat="44.18951" lon="6.80562">
        <ele>1968.8000488281</ele>
        <time>2020-06-06T09:48:39.000Z</time>
      </trkpt>
      <trkpt lat="44.18953" lon="6.80566">
        <ele>1967.8000488281</ele>
        <time>2020-06-06T09:48:45.000Z</time>
      </trkpt>
      <trkpt lat="44.18953" lon="6.80565">
        <ele>1967.5999755859</ele>
        <time>2020-06-06T09:48:46.000Z</time>
      </trkpt>
      <trkpt lat="44.18953" lon="6.80569">
        <ele>1966.5999755859</ele>
        <time>2020-06-06T09:48:50.000Z</time>
      </trkpt>
      <trkpt lat="44.18953" lon="6.80569">
        <ele>1966.1999511719</ele>
        <time>2020-06-06T09:48:51.000Z</time>
      </trkpt>
      <trkpt lat="44.18955" lon="6.80572">
        <ele>1965.4000244141</ele>
        <time>2020-06-06T09:48:57.000Z</time>
      </trkpt>
      <trkpt lat="44.18958" lon="6.80578">
        <ele>1966.8000488281</ele>
        <time>2020-06-06T09:49:05.000Z</time>
      </trkpt>
      <trkpt lat="44.18958" lon="6.80579">
        <ele>1967.1999511719</ele>
        <time>2020-06-06T09:49:06.000Z</time>
      </trkpt>
      <trkpt lat="44.18958" lon="6.8058">
        <ele>1967.4000244141</ele>
        <time>2020-06-06T09:49:07.000Z</time>
      </trkpt>
      <trkpt lat="44.18958" lon="6.80586">
        <ele>1968</ele>
        <time>2020-06-06T09:49:12.000Z</time>
      </trkpt>
      <trkpt lat="44.18956" lon="6.80588">
        <ele>1968.5999755859</ele>
        <time>2020-06-06T09:49:15.000Z</time>
      </trkpt>
      <trkpt lat="44.18956" lon="6.80589">
        <ele>1969.8000488281</ele>
        <time>2020-06-06T09:49:19.000Z</time>
      </trkpt>
      <trkpt lat="44.18956" lon="6.80592">
        <ele>1970</ele>
        <time>2020-06-06T09:49:20.000Z</time>
      </trkpt>
      <trkpt lat="44.18951" lon="6.80598">
        <ele>1970.5999755859</ele>
        <time>2020-06-06T09:49:25.000Z</time>
      </trkpt>
      <trkpt lat="44.18946" lon="6.80604">
        <ele>1970.5999755859</ele>
        <time>2020-06-06T09:49:29.000Z</time>
      </trkpt>
      <trkpt lat="44.18941" lon="6.80613">
        <ele>1970.1999511719</ele>
        <time>2020-06-06T09:49:33.000Z</time>
      </trkpt>
      <trkpt lat="44.18941" lon="6.80619">
        <ele>1970</ele>
        <time>2020-06-06T09:49:38.000Z</time>
      </trkpt>
      <trkpt lat="44.18941" lon="6.8062">
        <ele>1970</ele>
        <time>2020-06-06T09:49:39.000Z</time>
      </trkpt>
      <trkpt lat="44.1894" lon="6.8062">
        <ele>1970</ele>
        <time>2020-06-06T09:49:40.000Z</time>
      </trkpt>
      <trkpt lat="44.18942" lon="6.80624">
        <ele>1970</ele>
        <time>2020-06-06T09:49:43.000Z</time>
      </trkpt>
      <trkpt lat="44.18941" lon="6.80625">
        <ele>1970.4000244141</ele>
        <time>2020-06-06T09:49:45.000Z</time>
      </trkpt>
      <trkpt lat="44.18941" lon="6.80627">
        <ele>1971</ele>
        <time>2020-06-06T09:49:47.000Z</time>
      </trkpt>
      <trkpt lat="44.18941" lon="6.80628">
        <ele>1971</ele>
        <time>2020-06-06T09:49:48.000Z</time>
      </trkpt>
      <trkpt lat="44.18944" lon="6.80634">
        <ele>1972</ele>
        <time>2020-06-06T09:49:53.000Z</time>
      </trkpt>
      <trkpt lat="44.18943" lon="6.80639">
        <ele>1973.1999511719</ele>
        <time>2020-06-06T09:49:58.000Z</time>
      </trkpt>
      <trkpt lat="44.18943" lon="6.80641">
        <ele>1973.1999511719</ele>
        <time>2020-06-06T09:49:59.000Z</time>
      </trkpt>
      <trkpt lat="44.18943" lon="6.80642">
        <ele>1973.4000244141</ele>
        <time>2020-06-06T09:50:00.000Z</time>
      </trkpt>
      <trkpt lat="44.18943" lon="6.80646">
        <ele>1974.1999511719</ele>
        <time>2020-06-06T09:50:06.000Z</time>
      </trkpt>
      <trkpt lat="44.18945" lon="6.80654">
        <ele>1974.4000244141</ele>
        <time>2020-06-06T09:50:10.000Z</time>
      </trkpt>
      <trkpt lat="44.18944" lon="6.80656">
        <ele>1974.1999511719</ele>
        <time>2020-06-06T09:50:11.000Z</time>
      </trkpt>
      <trkpt lat="44.18944" lon="6.8066">
        <ele>1974</ele>
        <time>2020-06-06T09:50:13.000Z</time>
      </trkpt>
      <trkpt lat="44.18946" lon="6.80664">
        <ele>1973.8000488281</ele>
        <time>2020-06-06T09:50:15.000Z</time>
      </trkpt>
      <trkpt lat="44.18949" lon="6.80669">
        <ele>1973.8000488281</ele>
        <time>2020-06-06T09:50:17.000Z</time>
      </trkpt>
      <trkpt lat="44.18952" lon="6.80672">
        <ele>1973.5999755859</ele>
        <time>2020-06-06T09:50:18.000Z</time>
      </trkpt>
      <trkpt lat="44.18952" lon="6.80675">
        <ele>1973.1999511719</ele>
        <time>2020-06-06T09:50:20.000Z</time>
      </trkpt>
      <trkpt lat="44.18951" lon="6.80678">
        <ele>1973.1999511719</ele>
        <time>2020-06-06T09:50:22.000Z</time>
      </trkpt>
      <trkpt lat="44.18951" lon="6.8068">
        <ele>1973.1999511719</ele>
        <time>2020-06-06T09:50:23.000Z</time>
      </trkpt>
      <trkpt lat="44.18953" lon="6.80684">
        <ele>1973.8000488281</ele>
        <time>2020-06-06T09:50:25.000Z</time>
      </trkpt>
      <trkpt lat="44.18959" lon="6.80694">
        <ele>1974.1999511719</ele>
        <time>2020-06-06T09:50:30.000Z</time>
      </trkpt>
      <trkpt lat="44.18962" lon="6.80701">
        <ele>1974.4000244141</ele>
        <time>2020-06-06T09:50:33.000Z</time>
      </trkpt>
      <trkpt lat="44.18963" lon="6.80706">
        <ele>1974.5999755859</ele>
        <time>2020-06-06T09:50:35.000Z</time>
      </trkpt>
      <trkpt lat="44.18969" lon="6.80723">
        <ele>1974</ele>
        <time>2020-06-06T09:50:41.000Z</time>
      </trkpt>
      <trkpt lat="44.18972" lon="6.80728">
        <ele>1974</ele>
        <time>2020-06-06T09:50:43.000Z</time>
      </trkpt>
      <trkpt lat="44.18973" lon="6.80731">
        <ele>1974</ele>
        <time>2020-06-06T09:50:45.000Z</time>
      </trkpt>
      <trkpt lat="44.18976" lon="6.80739">
        <ele>1974.5999755859</ele>
        <time>2020-06-06T09:50:48.000Z</time>
      </trkpt>
      <trkpt lat="44.18978" lon="6.80742">
        <ele>1974.8000488281</ele>
        <time>2020-06-06T09:50:49.000Z</time>
      </trkpt>
      <trkpt lat="44.18983" lon="6.8075">
        <ele>1974.8000488281</ele>
        <time>2020-06-06T09:50:51.000Z</time>
      </trkpt>
      <trkpt lat="44.18983" lon="6.80756">
        <ele>1974.8000488281</ele>
        <time>2020-06-06T09:50:53.000Z</time>
      </trkpt>
      <trkpt lat="44.18981" lon="6.80766">
        <ele>1974.4000244141</ele>
        <time>2020-06-06T09:50:57.000Z</time>
      </trkpt>
      <trkpt lat="44.18984" lon="6.80771">
        <ele>1973.4000244141</ele>
        <time>2020-06-06T09:51:01.000Z</time>
      </trkpt>
      <trkpt lat="44.18993" lon="6.80778">
        <ele>1973.5999755859</ele>
        <time>2020-06-06T09:51:05.000Z</time>
      </trkpt>
      <trkpt lat="44.18999" lon="6.80785">
        <ele>1973.1999511719</ele>
        <time>2020-06-06T09:51:07.000Z</time>
      </trkpt>
      <trkpt lat="44.19001" lon="6.80794">
        <ele>1972.5999755859</ele>
        <time>2020-06-06T09:51:09.000Z</time>
      </trkpt>
      <trkpt lat="44.19005" lon="6.80804">
        <ele>1971.8000488281</ele>
        <time>2020-06-06T09:51:11.000Z</time>
      </trkpt>
      <trkpt lat="44.19007" lon="6.80815">
        <ele>1970.5999755859</ele>
        <time>2020-06-06T09:51:13.000Z</time>
      </trkpt>
      <trkpt lat="44.19007" lon="6.8083">
        <ele>1969.4000244141</ele>
        <time>2020-06-06T09:51:16.000Z</time>
      </trkpt>
      <trkpt lat="44.1901" lon="6.80835">
        <ele>1969.4000244141</ele>
        <time>2020-06-06T09:51:17.000Z</time>
      </trkpt>
      <trkpt lat="44.19015" lon="6.80844">
        <ele>1968.5999755859</ele>
        <time>2020-06-06T09:51:19.000Z</time>
      </trkpt>
      <trkpt lat="44.19017" lon="6.80848">
        <ele>1968.1999511719</ele>
        <time>2020-06-06T09:51:20.000Z</time>
      </trkpt>
      <trkpt lat="44.19019" lon="6.80852">
        <ele>1968</ele>
        <time>2020-06-06T09:51:21.000Z</time>
      </trkpt>
      <trkpt lat="44.1902" lon="6.80859">
        <ele>1967.4000244141</ele>
        <time>2020-06-06T09:51:23.000Z</time>
      </trkpt>
      <trkpt lat="44.19018" lon="6.80865">
        <ele>1967</ele>
        <time>2020-06-06T09:51:25.000Z</time>
      </trkpt>
      <trkpt lat="44.19016" lon="6.80873">
        <ele>1966.5999755859</ele>
        <time>2020-06-06T09:51:28.000Z</time>
      </trkpt>
      <trkpt lat="44.1902" lon="6.80877">
        <ele>1965.8000488281</ele>
        <time>2020-06-06T09:51:32.000Z</time>
      </trkpt>
      <trkpt lat="44.1902" lon="6.80877">
        <ele>1965.4000244141</ele>
        <time>2020-06-06T09:51:33.000Z</time>
      </trkpt>
      <trkpt lat="44.19025" lon="6.80883">
        <ele>1965.1999511719</ele>
        <time>2020-06-06T09:51:40.000Z</time>
      </trkpt>
      <trkpt lat="44.19026" lon="6.80887">
        <ele>1964.8000488281</ele>
        <time>2020-06-06T09:51:43.000Z</time>
      </trkpt>
      <trkpt lat="44.19027" lon="6.80889">
        <ele>1964.4000244141</ele>
        <time>2020-06-06T09:51:46.000Z</time>
      </trkpt>
      <trkpt lat="44.1903" lon="6.8089">
        <ele>1964.5999755859</ele>
        <time>2020-06-06T09:51:52.000Z</time>
      </trkpt>
      <trkpt lat="44.19031" lon="6.80898">
        <ele>1965.8000488281</ele>
        <time>2020-06-06T09:51:59.000Z</time>
      </trkpt>
      <trkpt lat="44.19031" lon="6.809">
        <ele>1966</ele>
        <time>2020-06-06T09:52:00.000Z</time>
      </trkpt>
      <trkpt lat="44.19032" lon="6.80904">
        <ele>1966.4000244141</ele>
        <time>2020-06-06T09:52:05.000Z</time>
      </trkpt>
      <trkpt lat="44.19035" lon="6.80909">
        <ele>1966.8000488281</ele>
        <time>2020-06-06T09:52:11.000Z</time>
      </trkpt>
      <trkpt lat="44.19036" lon="6.8091">
        <ele>1967</ele>
        <time>2020-06-06T09:52:12.000Z</time>
      </trkpt>
      <trkpt lat="44.19037" lon="6.80913">
        <ele>1968.1999511719</ele>
        <time>2020-06-06T09:52:18.000Z</time>
      </trkpt>
      <trkpt lat="44.19039" lon="6.80914">
        <ele>1969.4000244141</ele>
        <time>2020-06-06T09:52:24.000Z</time>
      </trkpt>
      <trkpt lat="44.19038" lon="6.80915">
        <ele>1969.5999755859</ele>
        <time>2020-06-06T09:52:25.000Z</time>
      </trkpt>
      <trkpt lat="44.19039" lon="6.80917">
        <ele>1970.5999755859</ele>
        <time>2020-06-06T09:52:30.000Z</time>
      </trkpt>
      <trkpt lat="44.19039" lon="6.80918">
        <ele>1970.5999755859</ele>
        <time>2020-06-06T09:52:31.000Z</time>
      </trkpt>
      <trkpt lat="44.1904" lon="6.80919">
        <ele>1971.5999755859</ele>
        <time>2020-06-06T09:52:35.000Z</time>
      </trkpt>
      <trkpt lat="44.19039" lon="6.80921">
        <ele>1972.1999511719</ele>
        <time>2020-06-06T09:52:39.000Z</time>
      </trkpt>
      <trkpt lat="44.19039" lon="6.80923">
        <ele>1972.5999755859</ele>
        <time>2020-06-06T09:52:41.000Z</time>
      </trkpt>
      <trkpt lat="44.19039" lon="6.80925">
        <ele>1973.1999511719</ele>
        <time>2020-06-06T09:52:45.000Z</time>
      </trkpt>
      <trkpt lat="44.19039" lon="6.80928">
        <ele>1973.5999755859</ele>
        <time>2020-06-06T09:52:48.000Z</time>
      </trkpt>
      <trkpt lat="44.19039" lon="6.80928">
        <ele>1973.8000488281</ele>
        <time>2020-06-06T09:52:51.000Z</time>
      </trkpt>
      <trkpt lat="44.1904" lon="6.80928">
        <ele>1973.4000244141</ele>
        <time>2020-06-06T09:52:56.000Z</time>
      </trkpt>
      <trkpt lat="44.19038" lon="6.80929">
        <ele>1973.4000244141</ele>
        <time>2020-06-06T09:53:00.000Z</time>
      </trkpt>
      <trkpt lat="44.19038" lon="6.8093">
        <ele>1973.8000488281</ele>
        <time>2020-06-06T09:53:05.000Z</time>
      </trkpt>
      <trkpt lat="44.19038" lon="6.80929">
        <ele>1972.5999755859</ele>
        <time>2020-06-06T09:53:10.000Z</time>
      </trkpt>
      <trkpt lat="44.19038" lon="6.80929">
        <ele>1973.4000244141</ele>
        <time>2020-06-06T09:53:13.000Z</time>
      </trkpt>
      <trkpt lat="44.19039" lon="6.80928">
        <ele>1973.1999511719</ele>
        <time>2020-06-06T09:53:19.000Z</time>
      </trkpt>
      <trkpt lat="44.19039" lon="6.80929">
        <ele>1973.4000244141</ele>
        <time>2020-06-06T09:53:21.000Z</time>
      </trkpt>
      <trkpt lat="44.19039" lon="6.80929">
        <ele>1973.1999511719</ele>
        <time>2020-06-06T09:53:25.000Z</time>
      </trkpt>
      <trkpt lat="44.1904" lon="6.8093">
        <ele>1973</ele>
        <time>2020-06-06T09:53:38.000Z</time>
      </trkpt>
      <trkpt lat="44.19038" lon="6.8093">
        <ele>1973.1999511719</ele>
        <time>2020-06-06T09:53:48.000Z</time>
      </trkpt>
      <trkpt lat="44.19039" lon="6.80928">
        <ele>1973</ele>
        <time>2020-06-06T09:53:51.000Z</time>
      </trkpt>
      <trkpt lat="44.19039" lon="6.80928">
        <ele>1973</ele>
        <time>2020-06-06T09:53:53.000Z</time>
      </trkpt>
      <trkpt lat="44.1904" lon="6.80929">
        <ele>1973.8000488281</ele>
        <time>2020-06-06T09:53:58.000Z</time>
      </trkpt>
      <trkpt lat="44.1904" lon="6.80929">
        <ele>1973.8000488281</ele>
        <time>2020-06-06T09:54:00.000Z</time>
      </trkpt>
      <trkpt lat="44.1904" lon="6.80929">
        <ele>1973.8000488281</ele>
        <time>2020-06-06T09:54:11.000Z</time>
      </trkpt>
      <trkpt lat="44.19039" lon="6.80929">
        <ele>1974.4000244141</ele>
        <time>2020-06-06T09:54:21.000Z</time>
      </trkpt>
      <trkpt lat="44.19039" lon="6.80928">
        <ele>1974</ele>
        <time>2020-06-06T09:54:27.000Z</time>
      </trkpt>
      <trkpt lat="44.19039" lon="6.80928">
        <ele>1974.4000244141</ele>
        <time>2020-06-06T09:54:34.000Z</time>
      </trkpt>
      <trkpt lat="44.19039" lon="6.80927">
        <ele>1974.1999511719</ele>
        <time>2020-06-06T09:54:41.000Z</time>
      </trkpt>
      <trkpt lat="44.19038" lon="6.80927">
        <ele>1974.1999511719</ele>
        <time>2020-06-06T09:54:47.000Z</time>
      </trkpt>
      <trkpt lat="44.19038" lon="6.80927">
        <ele>1974.1999511719</ele>
        <time>2020-06-06T09:54:53.000Z</time>
      </trkpt>
      <trkpt lat="44.19035" lon="6.80926">
        <ele>1973.4000244141</ele>
        <time>2020-06-06T09:54:58.000Z</time>
      </trkpt>
      <trkpt lat="44.19036" lon="6.80926">
        <ele>1974</ele>
        <time>2020-06-06T09:55:05.000Z</time>
      </trkpt>
      <trkpt lat="44.19037" lon="6.80927">
        <ele>1973.4000244141</ele>
        <time>2020-06-06T09:55:18.000Z</time>
      </trkpt>
      <trkpt lat="44.19037" lon="6.80928">
        <ele>1973.5999755859</ele>
        <time>2020-06-06T09:55:26.000Z</time>
      </trkpt>
      <trkpt lat="44.19038" lon="6.80928">
        <ele>1973.5999755859</ele>
        <time>2020-06-06T09:55:36.000Z</time>
      </trkpt>
      <trkpt lat="44.19038" lon="6.80928">
        <ele>1974.4000244141</ele>
        <time>2020-06-06T09:55:43.000Z</time>
      </trkpt>
      <trkpt lat="44.19037" lon="6.80928">
        <ele>1974.5999755859</ele>
        <time>2020-06-06T09:55:49.000Z</time>
      </trkpt>
      <trkpt lat="44.19037" lon="6.80927">
        <ele>1974.1999511719</ele>
        <time>2020-06-06T09:55:58.000Z</time>
      </trkpt>
      <trkpt lat="44.19036" lon="6.80926">
        <ele>1974.5999755859</ele>
        <time>2020-06-06T09:56:05.000Z</time>
      </trkpt>
      <trkpt lat="44.19037" lon="6.80927">
        <ele>1974.4000244141</ele>
        <time>2020-06-06T09:56:07.000Z</time>
      </trkpt>
      <trkpt lat="44.19039" lon="6.80928">
        <ele>1974</ele>
        <time>2020-06-06T09:56:09.000Z</time>
      </trkpt>
      <trkpt lat="44.1904" lon="6.8093">
        <ele>1973.8000488281</ele>
        <time>2020-06-06T09:56:14.000Z</time>
      </trkpt>
      <trkpt lat="44.1904" lon="6.80931">
        <ele>1974</ele>
        <time>2020-06-06T09:56:19.000Z</time>
      </trkpt>
      <trkpt lat="44.19042" lon="6.80932">
        <ele>1974.1999511719</ele>
        <time>2020-06-06T09:56:29.000Z</time>
      </trkpt>
      <trkpt lat="44.19044" lon="6.80934">
        <ele>1974.1999511719</ele>
        <time>2020-06-06T09:56:38.000Z</time>
      </trkpt>
      <trkpt lat="44.19046" lon="6.80936">
        <ele>1974.1999511719</ele>
        <time>2020-06-06T09:56:52.000Z</time>
      </trkpt>
      <trkpt lat="44.19045" lon="6.80938">
        <ele>1974.1999511719</ele>
        <time>2020-06-06T09:56:54.000Z</time>
      </trkpt>
      <trkpt lat="44.19043" lon="6.80949">
        <ele>1974.4000244141</ele>
        <time>2020-06-06T09:57:00.000Z</time>
      </trkpt>
      <trkpt lat="44.19043" lon="6.80956">
        <ele>1974.8000488281</ele>
        <time>2020-06-06T09:57:03.000Z</time>
      </trkpt>
      <trkpt lat="44.19043" lon="6.80966">
        <ele>1975</ele>
        <time>2020-06-06T09:57:08.000Z</time>
      </trkpt>
      <trkpt lat="44.19048" lon="6.80979">
        <ele>1975.8000488281</ele>
        <time>2020-06-06T09:57:15.000Z</time>
      </trkpt>
      <trkpt lat="44.19049" lon="6.80981">
        <ele>1976</ele>
        <time>2020-06-06T09:57:16.000Z</time>
      </trkpt>
      <trkpt lat="44.19054" lon="6.80986">
        <ele>1976.8000488281</ele>
        <time>2020-06-06T09:57:20.000Z</time>
      </trkpt>
      <trkpt lat="44.19057" lon="6.80989">
        <ele>1977.4000244141</ele>
        <time>2020-06-06T09:57:23.000Z</time>
      </trkpt>
      <trkpt lat="44.19059" lon="6.80991">
        <ele>1978</ele>
        <time>2020-06-06T09:57:25.000Z</time>
      </trkpt>
      <trkpt lat="44.19064" lon="6.80993">
        <ele>1979.1999511719</ele>
        <time>2020-06-06T09:57:29.000Z</time>
      </trkpt>
      <trkpt lat="44.19066" lon="6.80993">
        <ele>1979.1999511719</ele>
        <time>2020-06-06T09:57:30.000Z</time>
      </trkpt>
      <trkpt lat="44.19074" lon="6.80995">
        <ele>1980.1999511719</ele>
        <time>2020-06-06T09:57:36.000Z</time>
      </trkpt>
      <trkpt lat="44.19078" lon="6.80996">
        <ele>1981</ele>
        <time>2020-06-06T09:57:39.000Z</time>
      </trkpt>
      <trkpt lat="44.19081" lon="6.80997">
        <ele>1981.4000244141</ele>
        <time>2020-06-06T09:57:41.000Z</time>
      </trkpt>
      <trkpt lat="44.19085" lon="6.81">
        <ele>1982.5999755859</ele>
        <time>2020-06-06T09:57:45.000Z</time>
      </trkpt>
      <trkpt lat="44.19086" lon="6.81002">
        <ele>1982.8000488281</ele>
        <time>2020-06-06T09:57:46.000Z</time>
      </trkpt>
      <trkpt lat="44.19087" lon="6.81016">
        <ele>1983.4000244141</ele>
        <time>2020-06-06T09:57:52.000Z</time>
      </trkpt>
      <trkpt lat="44.19087" lon="6.81019">
        <ele>1983.5999755859</ele>
        <time>2020-06-06T09:57:53.000Z</time>
      </trkpt>
      <trkpt lat="44.19089" lon="6.81028">
        <ele>1983.5999755859</ele>
        <time>2020-06-06T09:57:57.000Z</time>
      </trkpt>
      <trkpt lat="44.19093" lon="6.81035">
        <ele>1984.8000488281</ele>
        <time>2020-06-06T09:58:02.000Z</time>
      </trkpt>
      <trkpt lat="44.19094" lon="6.81038">
        <ele>1985.4000244141</ele>
        <time>2020-06-06T09:58:05.000Z</time>
      </trkpt>
      <trkpt lat="44.19095" lon="6.81043">
        <ele>1985.8000488281</ele>
        <time>2020-06-06T09:58:08.000Z</time>
      </trkpt>
      <trkpt lat="44.19097" lon="6.8105">
        <ele>1986.1999511719</ele>
        <time>2020-06-06T09:58:12.000Z</time>
      </trkpt>
      <trkpt lat="44.19099" lon="6.81062">
        <ele>1986.8000488281</ele>
        <time>2020-06-06T09:58:18.000Z</time>
      </trkpt>
      <trkpt lat="44.191" lon="6.81064">
        <ele>1987</ele>
        <time>2020-06-06T09:58:19.000Z</time>
      </trkpt>
      <trkpt lat="44.191" lon="6.81074">
        <ele>1988</ele>
        <time>2020-06-06T09:58:24.000Z</time>
      </trkpt>
      <trkpt lat="44.191" lon="6.81081">
        <ele>1988.4000244141</ele>
        <time>2020-06-06T09:58:27.000Z</time>
      </trkpt>
      <trkpt lat="44.19097" lon="6.81088">
        <ele>1989</ele>
        <time>2020-06-06T09:58:31.000Z</time>
      </trkpt>
      <trkpt lat="44.19097" lon="6.8109">
        <ele>1989.1999511719</ele>
        <time>2020-06-06T09:58:32.000Z</time>
      </trkpt>
      <trkpt lat="44.19092" lon="6.81104">
        <ele>1990</ele>
        <time>2020-06-06T09:58:40.000Z</time>
      </trkpt>
      <trkpt lat="44.19091" lon="6.81106">
        <ele>1990.1999511719</ele>
        <time>2020-06-06T09:58:41.000Z</time>
      </trkpt>
      <trkpt lat="44.1909" lon="6.81114">
        <ele>1990.4000244141</ele>
        <time>2020-06-06T09:58:45.000Z</time>
      </trkpt>
      <trkpt lat="44.1909" lon="6.81116">
        <ele>1990.4000244141</ele>
        <time>2020-06-06T09:58:46.000Z</time>
      </trkpt>
      <trkpt lat="44.19092" lon="6.81121">
        <ele>1990.5999755859</ele>
        <time>2020-06-06T09:58:49.000Z</time>
      </trkpt>
      <trkpt lat="44.19095" lon="6.81125">
        <ele>1991.1999511719</ele>
        <time>2020-06-06T09:58:52.000Z</time>
      </trkpt>
      <trkpt lat="44.19096" lon="6.81126">
        <ele>1991.4000244141</ele>
        <time>2020-06-06T09:58:53.000Z</time>
      </trkpt>
      <trkpt lat="44.191" lon="6.81128">
        <ele>1992.1999511719</ele>
        <time>2020-06-06T09:58:56.000Z</time>
      </trkpt>
      <trkpt lat="44.19101" lon="6.8113">
        <ele>1992.4000244141</ele>
        <time>2020-06-06T09:58:57.000Z</time>
      </trkpt>
      <trkpt lat="44.19102" lon="6.81132">
        <ele>1992.5999755859</ele>
        <time>2020-06-06T09:58:58.000Z</time>
      </trkpt>
      <trkpt lat="44.19101" lon="6.81141">
        <ele>1992.8000488281</ele>
        <time>2020-06-06T09:59:01.000Z</time>
      </trkpt>
      <trkpt lat="44.19102" lon="6.81145">
        <ele>1992.5999755859</ele>
        <time>2020-06-06T09:59:03.000Z</time>
      </trkpt>
      <trkpt lat="44.19105" lon="6.81153">
        <ele>1993.1999511719</ele>
        <time>2020-06-06T09:59:08.000Z</time>
      </trkpt>
      <trkpt lat="44.19106" lon="6.81155">
        <ele>1993.4000244141</ele>
        <time>2020-06-06T09:59:09.000Z</time>
      </trkpt>
      <trkpt lat="44.19108" lon="6.8116">
        <ele>1994.4000244141</ele>
        <time>2020-06-06T09:59:12.000Z</time>
      </trkpt>
      <trkpt lat="44.19109" lon="6.81163">
        <ele>1994.8000488281</ele>
        <time>2020-06-06T09:59:14.000Z</time>
      </trkpt>
      <trkpt lat="44.19111" lon="6.81167">
        <ele>1995.1999511719</ele>
        <time>2020-06-06T09:59:17.000Z</time>
      </trkpt>
      <trkpt lat="44.19113" lon="6.81172">
        <ele>1995.4000244141</ele>
        <time>2020-06-06T09:59:19.000Z</time>
      </trkpt>
      <trkpt lat="44.19115" lon="6.81177">
        <ele>1995.5999755859</ele>
        <time>2020-06-06T09:59:23.000Z</time>
      </trkpt>
      <trkpt lat="44.19121" lon="6.8119">
        <ele>1996.4000244141</ele>
        <time>2020-06-06T09:59:31.000Z</time>
      </trkpt>
      <trkpt lat="44.19122" lon="6.81192">
        <ele>1996.4000244141</ele>
        <time>2020-06-06T09:59:32.000Z</time>
      </trkpt>
      <trkpt lat="44.19127" lon="6.81199">
        <ele>1996.4000244141</ele>
        <time>2020-06-06T09:59:37.000Z</time>
      </trkpt>
      <trkpt lat="44.19127" lon="6.81201">
        <ele>1996.5999755859</ele>
        <time>2020-06-06T09:59:38.000Z</time>
      </trkpt>
      <trkpt lat="44.19125" lon="6.81206">
        <ele>1996.8000488281</ele>
        <time>2020-06-06T09:59:41.000Z</time>
      </trkpt>
      <trkpt lat="44.19117" lon="6.81211">
        <ele>1997.4000244141</ele>
        <time>2020-06-06T09:59:47.000Z</time>
      </trkpt>
      <trkpt lat="44.19108" lon="6.81221">
        <ele>1996.8000488281</ele>
        <time>2020-06-06T09:59:54.000Z</time>
      </trkpt>
      <trkpt lat="44.19101" lon="6.8123">
        <ele>1997.1999511719</ele>
        <time>2020-06-06T10:00:00.000Z</time>
      </trkpt>
      <trkpt lat="44.19098" lon="6.81231">
        <ele>1997.5999755859</ele>
        <time>2020-06-06T10:00:02.000Z</time>
      </trkpt>
      <trkpt lat="44.19091" lon="6.81232">
        <ele>1998</ele>
        <time>2020-06-06T10:00:06.000Z</time>
      </trkpt>
      <trkpt lat="44.19082" lon="6.81234">
        <ele>1998.5999755859</ele>
        <time>2020-06-06T10:00:12.000Z</time>
      </trkpt>
      <trkpt lat="44.19081" lon="6.81235">
        <ele>1998.8000488281</ele>
        <time>2020-06-06T10:00:13.000Z</time>
      </trkpt>
      <trkpt lat="44.19072" lon="6.81243">
        <ele>1998.5999755859</ele>
        <time>2020-06-06T10:00:20.000Z</time>
      </trkpt>
      <trkpt lat="44.19066" lon="6.81255">
        <ele>1997.8000488281</ele>
        <time>2020-06-06T10:00:26.000Z</time>
      </trkpt>
      <trkpt lat="44.19064" lon="6.8126">
        <ele>1997.5999755859</ele>
        <time>2020-06-06T10:00:28.000Z</time>
      </trkpt>
      <trkpt lat="44.19055" lon="6.81275">
        <ele>1996.4000244141</ele>
        <time>2020-06-06T10:00:33.000Z</time>
      </trkpt>
      <trkpt lat="44.19042" lon="6.81301">
        <ele>1995.4000244141</ele>
        <time>2020-06-06T10:00:40.000Z</time>
      </trkpt>
      <trkpt lat="44.1904" lon="6.81304">
        <ele>1995.1999511719</ele>
        <time>2020-06-06T10:00:41.000Z</time>
      </trkpt>
      <trkpt lat="44.19025" lon="6.8131">
        <ele>1994</ele>
        <time>2020-06-06T10:00:46.000Z</time>
      </trkpt>
      <trkpt lat="44.19001" lon="6.81315">
        <ele>1993.1999511719</ele>
        <time>2020-06-06T10:00:52.000Z</time>
      </trkpt>
      <trkpt lat="44.18997" lon="6.81316">
        <ele>1993</ele>
        <time>2020-06-06T10:00:53.000Z</time>
      </trkpt>
      <trkpt lat="44.18982" lon="6.81319">
        <ele>1992.4000244141</ele>
        <time>2020-06-06T10:00:58.000Z</time>
      </trkpt>
      <trkpt lat="44.18971" lon="6.81326">
        <ele>1992.8000488281</ele>
        <time>2020-06-06T10:01:04.000Z</time>
      </trkpt>
      <trkpt lat="44.18958" lon="6.8133">
        <ele>1994</ele>
        <time>2020-06-06T10:01:11.000Z</time>
      </trkpt>
      <trkpt lat="44.18948" lon="6.81337">
        <ele>1995</ele>
        <time>2020-06-06T10:01:17.000Z</time>
      </trkpt>
      <trkpt lat="44.18946" lon="6.81338">
        <ele>1995.1999511719</ele>
        <time>2020-06-06T10:01:18.000Z</time>
      </trkpt>
      <trkpt lat="44.18939" lon="6.81341">
        <ele>1995.4000244141</ele>
        <time>2020-06-06T10:01:23.000Z</time>
      </trkpt>
      <trkpt lat="44.18939" lon="6.8134">
        <ele>1995.5999755859</ele>
        <time>2020-06-06T10:01:28.000Z</time>
      </trkpt>
      <trkpt lat="44.1894" lon="6.8134">
        <ele>1996</ele>
        <time>2020-06-06T10:01:41.000Z</time>
      </trkpt>
      <trkpt lat="44.1894" lon="6.8134">
        <ele>1995.5999755859</ele>
        <time>2020-06-06T10:01:58.000Z</time>
      </trkpt>
      <trkpt lat="44.1894" lon="6.8134">
        <ele>1995.5999755859</ele>
        <time>2020-06-06T10:02:05.000Z</time>
      </trkpt>
      <trkpt lat="44.1894" lon="6.8134">
        <ele>1995.4000244141</ele>
        <time>2020-06-06T10:02:15.000Z</time>
      </trkpt>
      <trkpt lat="44.1894" lon="6.8134">
        <ele>1995.1999511719</ele>
        <time>2020-06-06T10:02:20.000Z</time>
      </trkpt>
      <trkpt lat="44.18939" lon="6.81339">
        <ele>1995.8000488281</ele>
        <time>2020-06-06T10:02:26.000Z</time>
      </trkpt>
      <trkpt lat="44.18939" lon="6.81339">
        <ele>1996.1999511719</ele>
        <time>2020-06-06T10:02:33.000Z</time>
      </trkpt>
      <trkpt lat="44.18939" lon="6.81339">
        <ele>1996.1999511719</ele>
        <time>2020-06-06T10:02:37.000Z</time>
      </trkpt>
      <trkpt lat="44.18939" lon="6.81339">
        <ele>1996</ele>
        <time>2020-06-06T10:02:53.000Z</time>
      </trkpt>
      <trkpt lat="44.18939" lon="6.81339">
        <ele>1996</ele>
        <time>2020-06-06T10:03:06.000Z</time>
      </trkpt>
      <trkpt lat="44.18939" lon="6.81339">
        <ele>1995.8000488281</ele>
        <time>2020-06-06T10:03:17.000Z</time>
      </trkpt>
      <trkpt lat="44.1894" lon="6.81339">
        <ele>1995.8000488281</ele>
        <time>2020-06-06T10:03:33.000Z</time>
      </trkpt>
      <trkpt lat="44.18939" lon="6.8134">
        <ele>1995.8000488281</ele>
        <time>2020-06-06T10:03:34.000Z</time>
      </trkpt>
      <trkpt lat="44.18937" lon="6.81341">
        <ele>1995.5999755859</ele>
        <time>2020-06-06T10:03:38.000Z</time>
      </trkpt>
      <trkpt lat="44.18933" lon="6.81342">
        <ele>1995.4000244141</ele>
        <time>2020-06-06T10:03:43.000Z</time>
      </trkpt>
      <trkpt lat="44.18924" lon="6.81341">
        <ele>1995.4000244141</ele>
        <time>2020-06-06T10:03:48.000Z</time>
      </trkpt>
      <trkpt lat="44.18914" lon="6.81342">
        <ele>1996.1999511719</ele>
        <time>2020-06-06T10:03:55.000Z</time>
      </trkpt>
      <trkpt lat="44.18907" lon="6.81346">
        <ele>1997</ele>
        <time>2020-06-06T10:04:00.000Z</time>
      </trkpt>
      <trkpt lat="44.18904" lon="6.81347">
        <ele>1997.1999511719</ele>
        <time>2020-06-06T10:04:02.000Z</time>
      </trkpt>
      <trkpt lat="44.18897" lon="6.81348">
        <ele>1998.4000244141</ele>
        <time>2020-06-06T10:04:08.000Z</time>
      </trkpt>
      <trkpt lat="44.18896" lon="6.81348">
        <ele>1998.5999755859</ele>
        <time>2020-06-06T10:04:09.000Z</time>
      </trkpt>
      <trkpt lat="44.18889" lon="6.81348">
        <ele>1999.4000244141</ele>
        <time>2020-06-06T10:04:14.000Z</time>
      </trkpt>
      <trkpt lat="44.18886" lon="6.81347">
        <ele>2000</ele>
        <time>2020-06-06T10:04:17.000Z</time>
      </trkpt>
      <trkpt lat="44.18884" lon="6.81346">
        <ele>2000.1999511719</ele>
        <time>2020-06-06T10:04:22.000Z</time>
      </trkpt>
      <trkpt lat="44.18885" lon="6.81344">
        <ele>2000.1999511719</ele>
        <time>2020-06-06T10:04:32.000Z</time>
      </trkpt>
      <trkpt lat="44.18885" lon="6.81345">
        <ele>2000.4000244141</ele>
        <time>2020-06-06T10:04:36.000Z</time>
      </trkpt>
      <trkpt lat="44.18885" lon="6.81345">
        <ele>2000.4000244141</ele>
        <time>2020-06-06T10:04:37.000Z</time>
      </trkpt>
      <trkpt lat="44.18885" lon="6.81345">
        <ele>2000.8000488281</ele>
        <time>2020-06-06T10:04:44.000Z</time>
      </trkpt>
      <trkpt lat="44.18883" lon="6.81344">
        <ele>2000.5999755859</ele>
        <time>2020-06-06T10:04:50.000Z</time>
      </trkpt>
      <trkpt lat="44.18883" lon="6.81344">
        <ele>2001.1999511719</ele>
        <time>2020-06-06T10:05:00.000Z</time>
      </trkpt>
      <trkpt lat="44.18884" lon="6.81344">
        <ele>2001.4000244141</ele>
        <time>2020-06-06T10:05:07.000Z</time>
      </trkpt>
      <trkpt lat="44.18885" lon="6.81344">
        <ele>2001.4000244141</ele>
        <time>2020-06-06T10:05:08.000Z</time>
      </trkpt>
      <trkpt lat="44.18887" lon="6.81344">
        <ele>2001</ele>
        <time>2020-06-06T10:05:15.000Z</time>
      </trkpt>
      <trkpt lat="44.18884" lon="6.81345">
        <ele>2000.8000488281</ele>
        <time>2020-06-06T10:05:21.000Z</time>
      </trkpt>
      <trkpt lat="44.18884" lon="6.81345">
        <ele>2000.5999755859</ele>
        <time>2020-06-06T10:05:31.000Z</time>
      </trkpt>
      <trkpt lat="44.18884" lon="6.81345">
        <ele>2001</ele>
        <time>2020-06-06T10:05:38.000Z</time>
      </trkpt>
      <trkpt lat="44.18884" lon="6.81346">
        <ele>2000.5999755859</ele>
        <time>2020-06-06T10:05:44.000Z</time>
      </trkpt>
      <trkpt lat="44.18883" lon="6.81346">
        <ele>2000.8000488281</ele>
        <time>2020-06-06T10:05:46.000Z</time>
      </trkpt>
      <trkpt lat="44.18882" lon="6.81346">
        <ele>2000.5999755859</ele>
        <time>2020-06-06T10:05:49.000Z</time>
      </trkpt>
      <trkpt lat="44.18874" lon="6.81344">
        <ele>2001</ele>
        <time>2020-06-06T10:05:54.000Z</time>
      </trkpt>
      <trkpt lat="44.18863" lon="6.81342">
        <ele>2001</ele>
        <time>2020-06-06T10:06:00.000Z</time>
      </trkpt>
      <trkpt lat="44.18856" lon="6.8134">
        <ele>2001.5999755859</ele>
        <time>2020-06-06T10:06:04.000Z</time>
      </trkpt>
      <trkpt lat="44.18849" lon="6.81334">
        <ele>2002.5999755859</ele>
        <time>2020-06-06T10:06:08.000Z</time>
      </trkpt>
      <trkpt lat="44.18835" lon="6.81326">
        <ele>2001.1999511719</ele>
        <time>2020-06-06T10:06:13.000Z</time>
      </trkpt>
      <trkpt lat="44.18829" lon="6.8132">
        <ele>1999.8000488281</ele>
        <time>2020-06-06T10:06:16.000Z</time>
      </trkpt>
      <trkpt lat="44.18828" lon="6.81321">
        <ele>1999.4000244141</ele>
        <time>2020-06-06T10:06:17.000Z</time>
      </trkpt>
      <trkpt lat="44.18823" lon="6.8132">
        <ele>1999.8000488281</ele>
        <time>2020-06-06T10:06:21.000Z</time>
      </trkpt>
      <trkpt lat="44.18816" lon="6.81327">
        <ele>2000</ele>
        <time>2020-06-06T10:06:26.000Z</time>
      </trkpt>
      <trkpt lat="44.18813" lon="6.81331">
        <ele>1999.8000488281</ele>
        <time>2020-06-06T10:06:28.000Z</time>
      </trkpt>
      <trkpt lat="44.18807" lon="6.81335">
        <ele>1999.8000488281</ele>
        <time>2020-06-06T10:06:32.000Z</time>
      </trkpt>
      <trkpt lat="44.18796" lon="6.81336">
        <ele>1999.8000488281</ele>
        <time>2020-06-06T10:06:37.000Z</time>
      </trkpt>
      <trkpt lat="44.18785" lon="6.81342">
        <ele>1999</ele>
        <time>2020-06-06T10:06:42.000Z</time>
      </trkpt>
      <trkpt lat="44.18772" lon="6.81347">
        <ele>1999</ele>
        <time>2020-06-06T10:06:48.000Z</time>
      </trkpt>
      <trkpt lat="44.18768" lon="6.81351">
        <ele>1998.5999755859</ele>
        <time>2020-06-06T10:06:51.000Z</time>
      </trkpt>
      <trkpt lat="44.18767" lon="6.81351">
        <ele>1998.5999755859</ele>
        <time>2020-06-06T10:06:52.000Z</time>
      </trkpt>
      <trkpt lat="44.18757" lon="6.81354">
        <ele>1999.1999511719</ele>
        <time>2020-06-06T10:06:58.000Z</time>
      </trkpt>
      <trkpt lat="44.18752" lon="6.81363">
        <ele>1999.1999511719</ele>
        <time>2020-06-06T10:07:02.000Z</time>
      </trkpt>
      <trkpt lat="44.18749" lon="6.81365">
        <ele>1999.1999511719</ele>
        <time>2020-06-06T10:07:04.000Z</time>
      </trkpt>
      <trkpt lat="44.18741" lon="6.81368">
        <ele>1999.5999755859</ele>
        <time>2020-06-06T10:07:09.000Z</time>
      </trkpt>
      <trkpt lat="44.18737" lon="6.81367">
        <ele>1999.8000488281</ele>
        <time>2020-06-06T10:07:11.000Z</time>
      </trkpt>
      <trkpt lat="44.18731" lon="6.81368">
        <ele>2000</ele>
        <time>2020-06-06T10:07:14.000Z</time>
      </trkpt>
      <trkpt lat="44.18726" lon="6.81372">
        <ele>2000.4000244141</ele>
        <time>2020-06-06T10:07:19.000Z</time>
      </trkpt>
      <trkpt lat="44.18724" lon="6.81374">
        <ele>2001</ele>
        <time>2020-06-06T10:07:22.000Z</time>
      </trkpt>
      <trkpt lat="44.18721" lon="6.81377">
        <ele>2001.4000244141</ele>
        <time>2020-06-06T10:07:26.000Z</time>
      </trkpt>
      <trkpt lat="44.1872" lon="6.81377">
        <ele>2002</ele>
        <time>2020-06-06T10:07:29.000Z</time>
      </trkpt>
      <trkpt lat="44.18717" lon="6.81379">
        <ele>2002.4000244141</ele>
        <time>2020-06-06T10:07:31.000Z</time>
      </trkpt>
      <trkpt lat="44.18717" lon="6.81378">
        <ele>2002.8000488281</ele>
        <time>2020-06-06T10:07:36.000Z</time>
      </trkpt>
      <trkpt lat="44.18717" lon="6.81379">
        <ele>2003.1999511719</ele>
        <time>2020-06-06T10:07:42.000Z</time>
      </trkpt>
      <trkpt lat="44.18717" lon="6.81379">
        <ele>2003.4000244141</ele>
        <time>2020-06-06T10:07:43.000Z</time>
      </trkpt>
      <trkpt lat="44.1871" lon="6.81381">
        <ele>2003</ele>
        <time>2020-06-06T10:07:49.000Z</time>
      </trkpt>
      <trkpt lat="44.187" lon="6.81387">
        <ele>2003.8000488281</ele>
        <time>2020-06-06T10:07:56.000Z</time>
      </trkpt>
      <trkpt lat="44.18692" lon="6.81391">
        <ele>2004.1999511719</ele>
        <time>2020-06-06T10:08:01.000Z</time>
      </trkpt>
      <trkpt lat="44.18691" lon="6.81391">
        <ele>2004.1999511719</ele>
        <time>2020-06-06T10:08:02.000Z</time>
      </trkpt>
      <trkpt lat="44.18676" lon="6.81391">
        <ele>2005.1999511719</ele>
        <time>2020-06-06T10:08:09.000Z</time>
      </trkpt>
      <trkpt lat="44.18664" lon="6.81398">
        <ele>2005.8000488281</ele>
        <time>2020-06-06T10:08:16.000Z</time>
      </trkpt>
      <trkpt lat="44.18658" lon="6.81404">
        <ele>2006.1999511719</ele>
        <time>2020-06-06T10:08:20.000Z</time>
      </trkpt>
      <trkpt lat="44.18655" lon="6.81406">
        <ele>2006.5999755859</ele>
        <time>2020-06-06T10:08:22.000Z</time>
      </trkpt>
      <trkpt lat="44.1864" lon="6.81415">
        <ele>2007</ele>
        <time>2020-06-06T10:08:30.000Z</time>
      </trkpt>
      <trkpt lat="44.18629" lon="6.8142">
        <ele>2006.5999755859</ele>
        <time>2020-06-06T10:08:35.000Z</time>
      </trkpt>
      <trkpt lat="44.18623" lon="6.81428">
        <ele>2006.5999755859</ele>
        <time>2020-06-06T10:08:39.000Z</time>
      </trkpt>
      <trkpt lat="44.18625" lon="6.81437">
        <ele>2006.5999755859</ele>
        <time>2020-06-06T10:08:43.000Z</time>
      </trkpt>
      <trkpt lat="44.18626" lon="6.81446">
        <ele>2007.4000244141</ele>
        <time>2020-06-06T10:08:47.000Z</time>
      </trkpt>
      <trkpt lat="44.18626" lon="6.8145">
        <ele>2007.5999755859</ele>
        <time>2020-06-06T10:08:48.000Z</time>
      </trkpt>
      <trkpt lat="44.18622" lon="6.81465">
        <ele>2007</ele>
        <time>2020-06-06T10:08:52.000Z</time>
      </trkpt>
      <trkpt lat="44.1861" lon="6.81486">
        <ele>2006.5999755859</ele>
        <time>2020-06-06T10:08:58.000Z</time>
      </trkpt>
      <trkpt lat="44.186" lon="6.81505">
        <ele>2006.1999511719</ele>
        <time>2020-06-06T10:09:03.000Z</time>
      </trkpt>
      <trkpt lat="44.18596" lon="6.81513">
        <ele>2006.1999511719</ele>
        <time>2020-06-06T10:09:05.000Z</time>
      </trkpt>
      <trkpt lat="44.18585" lon="6.8154">
        <ele>2005.5999755859</ele>
        <time>2020-06-06T10:09:11.000Z</time>
      </trkpt>
      <trkpt lat="44.18564" lon="6.81569">
        <ele>2005.1999511719</ele>
        <time>2020-06-06T10:09:19.000Z</time>
      </trkpt>
      <trkpt lat="44.18556" lon="6.81587">
        <ele>2004</ele>
        <time>2020-06-06T10:09:23.000Z</time>
      </trkpt>
      <trkpt lat="44.18554" lon="6.81593">
        <ele>2003.8000488281</ele>
        <time>2020-06-06T10:09:24.000Z</time>
      </trkpt>
      <trkpt lat="44.18551" lon="6.81597">
        <ele>2003.5999755859</ele>
        <time>2020-06-06T10:09:25.000Z</time>
      </trkpt>
      <trkpt lat="44.1854" lon="6.8162">
        <ele>2003.8000488281</ele>
        <time>2020-06-06T10:09:30.000Z</time>
      </trkpt>
      <trkpt lat="44.18529" lon="6.81639">
        <ele>2003</ele>
        <time>2020-06-06T10:09:34.000Z</time>
      </trkpt>
      <trkpt lat="44.18527" lon="6.81644">
        <ele>2002.8000488281</ele>
        <time>2020-06-06T10:09:35.000Z</time>
      </trkpt>
      <trkpt lat="44.1852" lon="6.81657">
        <ele>2002.1999511719</ele>
        <time>2020-06-06T10:09:38.000Z</time>
      </trkpt>
      <trkpt lat="44.18517" lon="6.8166">
        <ele>2001.8000488281</ele>
        <time>2020-06-06T10:09:39.000Z</time>
      </trkpt>
      <trkpt lat="44.18514" lon="6.81663">
        <ele>2001.8000488281</ele>
        <time>2020-06-06T10:09:40.000Z</time>
      </trkpt>
      <trkpt lat="44.18504" lon="6.81666">
        <ele>2001.4000244141</ele>
        <time>2020-06-06T10:09:42.000Z</time>
      </trkpt>
      <trkpt lat="44.18494" lon="6.81671">
        <ele>2001.1999511719</ele>
        <time>2020-06-06T10:09:44.000Z</time>
      </trkpt>
      <trkpt lat="44.18484" lon="6.81674">
        <ele>2000.1999511719</ele>
        <time>2020-06-06T10:09:47.000Z</time>
      </trkpt>
      <trkpt lat="44.18471" lon="6.81676">
        <ele>2000</ele>
        <time>2020-06-06T10:09:51.000Z</time>
      </trkpt>
      <trkpt lat="44.18468" lon="6.81683">
        <ele>1998.5999755859</ele>
        <time>2020-06-06T10:09:53.000Z</time>
      </trkpt>
      <trkpt lat="44.18463" lon="6.81686">
        <ele>1997.1999511719</ele>
        <time>2020-06-06T10:09:55.000Z</time>
      </trkpt>
      <trkpt lat="44.1846" lon="6.81685">
        <ele>1996.1999511719</ele>
        <time>2020-06-06T10:09:56.000Z</time>
      </trkpt>
      <trkpt lat="44.18457" lon="6.81684">
        <ele>1995.1999511719</ele>
        <time>2020-06-06T10:09:57.000Z</time>
      </trkpt>
      <trkpt lat="44.18452" lon="6.81678">
        <ele>1994.4000244141</ele>
        <time>2020-06-06T10:09:59.000Z</time>
      </trkpt>
      <trkpt lat="44.1845" lon="6.81674">
        <ele>1994</ele>
        <time>2020-06-06T10:10:00.000Z</time>
      </trkpt>
      <trkpt lat="44.18441" lon="6.81665">
        <ele>1993</ele>
        <time>2020-06-06T10:10:03.000Z</time>
      </trkpt>
      <trkpt lat="44.18437" lon="6.81664">
        <ele>1992.8000488281</ele>
        <time>2020-06-06T10:10:04.000Z</time>
      </trkpt>
      <trkpt lat="44.18433" lon="6.81664">
        <ele>1992.1999511719</ele>
        <time>2020-06-06T10:10:05.000Z</time>
      </trkpt>
      <trkpt lat="44.18431" lon="6.81666">
        <ele>1991.8000488281</ele>
        <time>2020-06-06T10:10:06.000Z</time>
      </trkpt>
      <trkpt lat="44.18431" lon="6.81666">
        <ele>1991</ele>
        <time>2020-06-06T10:10:07.000Z</time>
      </trkpt>
      <trkpt lat="44.1843" lon="6.81669">
        <ele>1991</ele>
        <time>2020-06-06T10:10:09.000Z</time>
      </trkpt>
      <trkpt lat="44.18429" lon="6.81672">
        <ele>1991.4000244141</ele>
        <time>2020-06-06T10:10:12.000Z</time>
      </trkpt>
      <trkpt lat="44.18424" lon="6.81681">
        <ele>1992.5999755859</ele>
        <time>2020-06-06T10:10:18.000Z</time>
      </trkpt>
      <trkpt lat="44.18422" lon="6.81683">
        <ele>1992.8000488281</ele>
        <time>2020-06-06T10:10:20.000Z</time>
      </trkpt>
      <trkpt lat="44.1842" lon="6.81687">
        <ele>1993</ele>
        <time>2020-06-06T10:10:22.000Z</time>
      </trkpt>
      <trkpt lat="44.1842" lon="6.81688">
        <ele>1993.1999511719</ele>
        <time>2020-06-06T10:10:23.000Z</time>
      </trkpt>
      <trkpt lat="44.18421" lon="6.81692">
        <ele>1993.1999511719</ele>
        <time>2020-06-06T10:10:27.000Z</time>
      </trkpt>
      <trkpt lat="44.18421" lon="6.81693">
        <ele>1993.5999755859</ele>
        <time>2020-06-06T10:10:35.000Z</time>
      </trkpt>
      <trkpt lat="44.18422" lon="6.81693">
        <ele>1993.5999755859</ele>
        <time>2020-06-06T10:10:43.000Z</time>
      </trkpt>
      <trkpt lat="44.18423" lon="6.81698">
        <ele>1993.8000488281</ele>
        <time>2020-06-06T10:10:48.000Z</time>
      </trkpt>
      <trkpt lat="44.18423" lon="6.81699">
        <ele>1994</ele>
        <time>2020-06-06T10:10:49.000Z</time>
      </trkpt>
      <trkpt lat="44.18424" lon="6.81703">
        <ele>1994.1999511719</ele>
        <time>2020-06-06T10:10:51.000Z</time>
      </trkpt>
      <trkpt lat="44.18424" lon="6.8171">
        <ele>1995</ele>
        <time>2020-06-06T10:10:55.000Z</time>
      </trkpt>
      <trkpt lat="44.18423" lon="6.81725">
        <ele>1995.5999755859</ele>
        <time>2020-06-06T10:11:01.000Z</time>
      </trkpt>
      <trkpt lat="44.18423" lon="6.81745">
        <ele>1995.5999755859</ele>
        <time>2020-06-06T10:11:07.000Z</time>
      </trkpt>
      <trkpt lat="44.18422" lon="6.81753">
        <ele>1996</ele>
        <time>2020-06-06T10:11:09.000Z</time>
      </trkpt>
      <trkpt lat="44.18419" lon="6.81775">
        <ele>1995.8000488281</ele>
        <time>2020-06-06T10:11:15.000Z</time>
      </trkpt>
      <trkpt lat="44.18419" lon="6.81782">
        <ele>1995.8000488281</ele>
        <time>2020-06-06T10:11:19.000Z</time>
      </trkpt>
      <trkpt lat="44.18419" lon="6.81782">
        <ele>1995.8000488281</ele>
        <time>2020-06-06T10:11:27.000Z</time>
      </trkpt>
      <trkpt lat="44.1842" lon="6.81783">
        <ele>1995.8000488281</ele>
        <time>2020-06-06T10:11:37.000Z</time>
      </trkpt>
      <trkpt lat="44.18421" lon="6.81785">
        <ele>1996</ele>
        <time>2020-06-06T10:11:45.000Z</time>
      </trkpt>
      <trkpt lat="44.18421" lon="6.81788">
        <ele>1996</ele>
        <time>2020-06-06T10:11:46.000Z</time>
      </trkpt>
      <trkpt lat="44.18421" lon="6.81795">
        <ele>1995.8000488281</ele>
        <time>2020-06-06T10:11:49.000Z</time>
      </trkpt>
      <trkpt lat="44.1842" lon="6.81804">
        <ele>1996</ele>
        <time>2020-06-06T10:11:52.000Z</time>
      </trkpt>
      <trkpt lat="44.18412" lon="6.8182">
        <ele>1996.8000488281</ele>
        <time>2020-06-06T10:11:58.000Z</time>
      </trkpt>
      <trkpt lat="44.18407" lon="6.81829">
        <ele>1997.1999511719</ele>
        <time>2020-06-06T10:12:01.000Z</time>
      </trkpt>
      <trkpt lat="44.18404" lon="6.8184">
        <ele>1997.4000244141</ele>
        <time>2020-06-06T10:12:04.000Z</time>
      </trkpt>
      <trkpt lat="44.18399" lon="6.81867">
        <ele>1998</ele>
        <time>2020-06-06T10:12:12.000Z</time>
      </trkpt>
      <trkpt lat="44.18398" lon="6.81877">
        <ele>1998.5999755859</ele>
        <time>2020-06-06T10:12:15.000Z</time>
      </trkpt>
      <trkpt lat="44.18393" lon="6.81889">
        <ele>1999.4000244141</ele>
        <time>2020-06-06T10:12:19.000Z</time>
      </trkpt>
      <trkpt lat="44.18388" lon="6.81897">
        <ele>1999.5999755859</ele>
        <time>2020-06-06T10:12:22.000Z</time>
      </trkpt>
      <trkpt lat="44.18381" lon="6.81908">
        <ele>1999.5999755859</ele>
        <time>2020-06-06T10:12:26.000Z</time>
      </trkpt>
      <trkpt lat="44.18376" lon="6.81923">
        <ele>1998.8000488281</ele>
        <time>2020-06-06T10:12:31.000Z</time>
      </trkpt>
      <trkpt lat="44.18373" lon="6.81927">
        <ele>1998.4000244141</ele>
        <time>2020-06-06T10:12:33.000Z</time>
      </trkpt>
      <trkpt lat="44.18369" lon="6.81931">
        <ele>1998</ele>
        <time>2020-06-06T10:12:36.000Z</time>
      </trkpt>
      <trkpt lat="44.18365" lon="6.81936">
        <ele>1998</ele>
        <time>2020-06-06T10:12:39.000Z</time>
      </trkpt>
      <trkpt lat="44.18363" lon="6.81938">
        <ele>1998</ele>
        <time>2020-06-06T10:12:40.000Z</time>
      </trkpt>
      <trkpt lat="44.1836" lon="6.81957">
        <ele>1998.1999511719</ele>
        <time>2020-06-06T10:12:45.000Z</time>
      </trkpt>
      <trkpt lat="44.18355" lon="6.8197">
        <ele>1997.8000488281</ele>
        <time>2020-06-06T10:12:49.000Z</time>
      </trkpt>
      <trkpt lat="44.18344" lon="6.81978">
        <ele>1998.8000488281</ele>
        <time>2020-06-06T10:12:55.000Z</time>
      </trkpt>
      <trkpt lat="44.18341" lon="6.81983">
        <ele>1999.5999755859</ele>
        <time>2020-06-06T10:12:59.000Z</time>
      </trkpt>
      <trkpt lat="44.1834" lon="6.81986">
        <ele>2000.4000244141</ele>
        <time>2020-06-06T10:13:01.000Z</time>
      </trkpt>
      <trkpt lat="44.18339" lon="6.81988">
        <ele>2000.5999755859</ele>
        <time>2020-06-06T10:13:02.000Z</time>
      </trkpt>
      <trkpt lat="44.18338" lon="6.81988">
        <ele>2001</ele>
        <time>2020-06-06T10:13:03.000Z</time>
      </trkpt>
      <trkpt lat="44.18336" lon="6.81992">
        <ele>2001.4000244141</ele>
        <time>2020-06-06T10:13:06.000Z</time>
      </trkpt>
      <trkpt lat="44.18327" lon="6.81998">
        <ele>2001.5999755859</ele>
        <time>2020-06-06T10:13:11.000Z</time>
      </trkpt>
      <trkpt lat="44.1832" lon="6.82013">
        <ele>2000.5999755859</ele>
        <time>2020-06-06T10:13:17.000Z</time>
      </trkpt>
      <trkpt lat="44.18315" lon="6.82024">
        <ele>2000.5999755859</ele>
        <time>2020-06-06T10:13:22.000Z</time>
      </trkpt>
      <trkpt lat="44.1831" lon="6.82039">
        <ele>2000.1999511719</ele>
        <time>2020-06-06T10:13:27.000Z</time>
      </trkpt>
      <trkpt lat="44.18308" lon="6.82044">
        <ele>2000.1999511719</ele>
        <time>2020-06-06T10:13:28.000Z</time>
      </trkpt>
      <trkpt lat="44.18306" lon="6.82049">
        <ele>1999.8000488281</ele>
        <time>2020-06-06T10:13:29.000Z</time>
      </trkpt>
      <trkpt lat="44.18299" lon="6.82061">
        <ele>1998.8000488281</ele>
        <time>2020-06-06T10:13:32.000Z</time>
      </trkpt>
      <trkpt lat="44.18297" lon="6.82063">
        <ele>1998.5999755859</ele>
        <time>2020-06-06T10:13:33.000Z</time>
      </trkpt>
      <trkpt lat="44.18297" lon="6.82065">
        <ele>1998.4000244141</ele>
        <time>2020-06-06T10:13:34.000Z</time>
      </trkpt>
      <trkpt lat="44.18296" lon="6.82066">
        <ele>1998.1999511719</ele>
        <time>2020-06-06T10:13:35.000Z</time>
      </trkpt>
      <trkpt lat="44.18296" lon="6.82068">
        <ele>1998.1999511719</ele>
        <time>2020-06-06T10:13:39.000Z</time>
      </trkpt>
      <trkpt lat="44.18296" lon="6.82076">
        <ele>1998</ele>
        <time>2020-06-06T10:13:44.000Z</time>
      </trkpt>
      <trkpt lat="44.18295" lon="6.82079">
        <ele>1998.4000244141</ele>
        <time>2020-06-06T10:13:51.000Z</time>
      </trkpt>
      <trkpt lat="44.18295" lon="6.82086">
        <ele>1998.4000244141</ele>
        <time>2020-06-06T10:13:57.000Z</time>
      </trkpt>
      <trkpt lat="44.18294" lon="6.82098">
        <ele>1999.4000244141</ele>
        <time>2020-06-06T10:14:03.000Z</time>
      </trkpt>
      <trkpt lat="44.18293" lon="6.82101">
        <ele>1999.8000488281</ele>
        <time>2020-06-06T10:14:05.000Z</time>
      </trkpt>
      <trkpt lat="44.18289" lon="6.82107">
        <ele>2000.8000488281</ele>
        <time>2020-06-06T10:14:09.000Z</time>
      </trkpt>
      <trkpt lat="44.18289" lon="6.82109">
        <ele>2001</ele>
        <time>2020-06-06T10:14:10.000Z</time>
      </trkpt>
      <trkpt lat="44.18283" lon="6.82118">
        <ele>2002</ele>
        <time>2020-06-06T10:14:16.000Z</time>
      </trkpt>
      <trkpt lat="44.18283" lon="6.8212">
        <ele>2002</ele>
        <time>2020-06-06T10:14:17.000Z</time>
      </trkpt>
      <trkpt lat="44.18279" lon="6.82133">
        <ele>2003.4000244141</ele>
        <time>2020-06-06T10:14:23.000Z</time>
      </trkpt>
      <trkpt lat="44.18275" lon="6.82144">
        <ele>2004.4000244141</ele>
        <time>2020-06-06T10:14:29.000Z</time>
      </trkpt>
      <trkpt lat="44.18268" lon="6.82159">
        <ele>2005.4000244141</ele>
        <time>2020-06-06T10:14:37.000Z</time>
      </trkpt>
      <trkpt lat="44.18258" lon="6.82173">
        <ele>2006.1999511719</ele>
        <time>2020-06-06T10:14:45.000Z</time>
      </trkpt>
      <trkpt lat="44.18244" lon="6.82184">
        <ele>2006.1999511719</ele>
        <time>2020-06-06T10:14:53.000Z</time>
      </trkpt>
      <trkpt lat="44.18236" lon="6.82184">
        <ele>2006.5999755859</ele>
        <time>2020-06-06T10:14:58.000Z</time>
      </trkpt>
      <trkpt lat="44.18234" lon="6.82184">
        <ele>2006.8000488281</ele>
        <time>2020-06-06T10:14:59.000Z</time>
      </trkpt>
      <trkpt lat="44.1822" lon="6.82188">
        <ele>2006.8000488281</ele>
        <time>2020-06-06T10:15:04.000Z</time>
      </trkpt>
      <trkpt lat="44.1821" lon="6.82195">
        <ele>2006.1999511719</ele>
        <time>2020-06-06T10:15:09.000Z</time>
      </trkpt>
      <trkpt lat="44.18206" lon="6.82202">
        <ele>2006</ele>
        <time>2020-06-06T10:15:13.000Z</time>
      </trkpt>
      <trkpt lat="44.18206" lon="6.82204">
        <ele>2006.1999511719</ele>
        <time>2020-06-06T10:15:14.000Z</time>
      </trkpt>
      <trkpt lat="44.18207" lon="6.82214">
        <ele>2007</ele>
        <time>2020-06-06T10:15:19.000Z</time>
      </trkpt>
      <trkpt lat="44.18205" lon="6.82226">
        <ele>2006.5999755859</ele>
        <time>2020-06-06T10:15:22.000Z</time>
      </trkpt>
      <trkpt lat="44.18204" lon="6.82229">
        <ele>2006.4000244141</ele>
        <time>2020-06-06T10:15:23.000Z</time>
      </trkpt>
      <trkpt lat="44.18198" lon="6.82242">
        <ele>2005.5999755859</ele>
        <time>2020-06-06T10:15:26.000Z</time>
      </trkpt>
      <trkpt lat="44.18192" lon="6.82255">
        <ele>2005.1999511719</ele>
        <time>2020-06-06T10:15:29.000Z</time>
      </trkpt>
      <trkpt lat="44.18188" lon="6.82265">
        <ele>2004.5999755859</ele>
        <time>2020-06-06T10:15:33.000Z</time>
      </trkpt>
      <trkpt lat="44.18186" lon="6.82277">
        <ele>2005.5999755859</ele>
        <time>2020-06-06T10:15:38.000Z</time>
      </trkpt>
      <trkpt lat="44.18186" lon="6.82279">
        <ele>2005.8000488281</ele>
        <time>2020-06-06T10:15:39.000Z</time>
      </trkpt>
      <trkpt lat="44.18182" lon="6.82291">
        <ele>2006.1999511719</ele>
        <time>2020-06-06T10:15:44.000Z</time>
      </trkpt>
      <trkpt lat="44.18178" lon="6.82299">
        <ele>2006.8000488281</ele>
        <time>2020-06-06T10:15:48.000Z</time>
      </trkpt>
      <trkpt lat="44.18177" lon="6.82302">
        <ele>2006.8000488281</ele>
        <time>2020-06-06T10:15:50.000Z</time>
      </trkpt>
      <trkpt lat="44.18176" lon="6.82317">
        <ele>2007.4000244141</ele>
        <time>2020-06-06T10:15:56.000Z</time>
      </trkpt>
      <trkpt lat="44.18176" lon="6.82321">
        <ele>2007.5999755859</ele>
        <time>2020-06-06T10:16:00.000Z</time>
      </trkpt>
      <trkpt lat="44.18176" lon="6.82322">
        <ele>2007.8000488281</ele>
        <time>2020-06-06T10:16:01.000Z</time>
      </trkpt>
      <trkpt lat="44.18173" lon="6.82329">
        <ele>2008.1999511719</ele>
        <time>2020-06-06T10:16:08.000Z</time>
      </trkpt>
      <trkpt lat="44.18171" lon="6.82333">
        <ele>2008.8000488281</ele>
        <time>2020-06-06T10:16:12.000Z</time>
      </trkpt>
      <trkpt lat="44.1817" lon="6.82334">
        <ele>2009.1999511719</ele>
        <time>2020-06-06T10:16:16.000Z</time>
      </trkpt>
      <trkpt lat="44.18168" lon="6.8234">
        <ele>2009.4000244141</ele>
        <time>2020-06-06T10:16:22.000Z</time>
      </trkpt>
      <trkpt lat="44.18165" lon="6.82345">
        <ele>2010</ele>
        <time>2020-06-06T10:16:25.000Z</time>
      </trkpt>
      <trkpt lat="44.18162" lon="6.82348">
        <ele>2010.1999511719</ele>
        <time>2020-06-06T10:16:28.000Z</time>
      </trkpt>
      <trkpt lat="44.18157" lon="6.82357">
        <ele>2011</ele>
        <time>2020-06-06T10:16:34.000Z</time>
      </trkpt>
      <trkpt lat="44.18153" lon="6.82362">
        <ele>2012.1999511719</ele>
        <time>2020-06-06T10:16:38.000Z</time>
      </trkpt>
      <trkpt lat="44.1815" lon="6.82364">
        <ele>2012.1999511719</ele>
        <time>2020-06-06T10:16:40.000Z</time>
      </trkpt>
      <trkpt lat="44.1814" lon="6.82372">
        <ele>2013</ele>
        <time>2020-06-06T10:16:48.000Z</time>
      </trkpt>
      <trkpt lat="44.18139" lon="6.82373">
        <ele>2013.1999511719</ele>
        <time>2020-06-06T10:16:49.000Z</time>
      </trkpt>
      <trkpt lat="44.18132" lon="6.82379">
        <ele>2013.5999755859</ele>
        <time>2020-06-06T10:16:55.000Z</time>
      </trkpt>
      <trkpt lat="44.18126" lon="6.82383">
        <ele>2014.1999511719</ele>
        <time>2020-06-06T10:17:00.000Z</time>
      </trkpt>
      <trkpt lat="44.18123" lon="6.82385">
        <ele>2014.5999755859</ele>
        <time>2020-06-06T10:17:02.000Z</time>
      </trkpt>
      <trkpt lat="44.18116" lon="6.82388">
        <ele>2015.1999511719</ele>
        <time>2020-06-06T10:17:08.000Z</time>
      </trkpt>
      <trkpt lat="44.18113" lon="6.8239">
        <ele>2015.4000244141</ele>
        <time>2020-06-06T10:17:10.000Z</time>
      </trkpt>
      <trkpt lat="44.18107" lon="6.82394">
        <ele>2015.5999755859</ele>
        <time>2020-06-06T10:17:15.000Z</time>
      </trkpt>
      <trkpt lat="44.18097" lon="6.824">
        <ele>2016</ele>
        <time>2020-06-06T10:17:21.000Z</time>
      </trkpt>
      <trkpt lat="44.18094" lon="6.82402">
        <ele>2016.4000244141</ele>
        <time>2020-06-06T10:17:23.000Z</time>
      </trkpt>
      <trkpt lat="44.18085" lon="6.82406">
        <ele>2017.4000244141</ele>
        <time>2020-06-06T10:17:29.000Z</time>
      </trkpt>
      <trkpt lat="44.18075" lon="6.82406">
        <ele>2017.8000488281</ele>
        <time>2020-06-06T10:17:35.000Z</time>
      </trkpt>
      <trkpt lat="44.18061" lon="6.82418">
        <ele>2017.4000244141</ele>
        <time>2020-06-06T10:17:42.000Z</time>
      </trkpt>
      <trkpt lat="44.18044" lon="6.82435">
        <ele>2016.4000244141</ele>
        <time>2020-06-06T10:17:50.000Z</time>
      </trkpt>
      <trkpt lat="44.18034" lon="6.82444">
        <ele>2016.4000244141</ele>
        <time>2020-06-06T10:17:57.000Z</time>
      </trkpt>
      <trkpt lat="44.1803" lon="6.82446">
        <ele>2016.4000244141</ele>
        <time>2020-06-06T10:18:01.000Z</time>
      </trkpt>
      <trkpt lat="44.18028" lon="6.82449">
        <ele>2016.1999511719</ele>
        <time>2020-06-06T10:18:06.000Z</time>
      </trkpt>
      <trkpt lat="44.18028" lon="6.82449">
        <ele>2016.4000244141</ele>
        <time>2020-06-06T10:18:14.000Z</time>
      </trkpt>
      <trkpt lat="44.18028" lon="6.82449">
        <ele>2015.5999755859</ele>
        <time>2020-06-06T10:18:27.000Z</time>
      </trkpt>
      <trkpt lat="44.18028" lon="6.82449">
        <ele>2015.8000488281</ele>
        <time>2020-06-06T10:18:40.000Z</time>
      </trkpt>
      <trkpt lat="44.18028" lon="6.82452">
        <ele>2016.1999511719</ele>
        <time>2020-06-06T10:18:52.000Z</time>
      </trkpt>
      <trkpt lat="44.18027" lon="6.82453">
        <ele>2016</ele>
        <time>2020-06-06T10:18:53.000Z</time>
      </trkpt>
      <trkpt lat="44.18024" lon="6.82458">
        <ele>2015.5999755859</ele>
        <time>2020-06-06T10:18:56.000Z</time>
      </trkpt>
      <trkpt lat="44.1802" lon="6.82462">
        <ele>2015.5999755859</ele>
        <time>2020-06-06T10:18:59.000Z</time>
      </trkpt>
      <trkpt lat="44.18011" lon="6.82475">
        <ele>2015.4000244141</ele>
        <time>2020-06-06T10:19:04.000Z</time>
      </trkpt>
      <trkpt lat="44.18008" lon="6.82479">
        <ele>2015.1999511719</ele>
        <time>2020-06-06T10:19:05.000Z</time>
      </trkpt>
      <trkpt lat="44.17992" lon="6.82498">
        <ele>2013.8000488281</ele>
        <time>2020-06-06T10:19:08.000Z</time>
      </trkpt>
      <trkpt lat="44.17981" lon="6.82513">
        <ele>2011.4000244141</ele>
        <time>2020-06-06T10:19:10.000Z</time>
      </trkpt>
      <trkpt lat="44.17975" lon="6.82521">
        <ele>2009.5999755859</ele>
        <time>2020-06-06T10:19:11.000Z</time>
      </trkpt>
      <trkpt lat="44.17969" lon="6.82529">
        <ele>2008</ele>
        <time>2020-06-06T10:19:12.000Z</time>
      </trkpt>
      <trkpt lat="44.17962" lon="6.82536">
        <ele>2006.1999511719</ele>
        <time>2020-06-06T10:19:13.000Z</time>
      </trkpt>
      <trkpt lat="44.17955" lon="6.82542">
        <ele>2005.4000244141</ele>
        <time>2020-06-06T10:19:14.000Z</time>
      </trkpt>
      <trkpt lat="44.17949" lon="6.82549">
        <ele>2004.5999755859</ele>
        <time>2020-06-06T10:19:15.000Z</time>
      </trkpt>
      <trkpt lat="44.17935" lon="6.82562">
        <ele>2003.1999511719</ele>
        <time>2020-06-06T10:19:17.000Z</time>
      </trkpt>
      <trkpt lat="44.17918" lon="6.82576">
        <ele>2002.4000244141</ele>
        <time>2020-06-06T10:19:19.000Z</time>
      </trkpt>
      <trkpt lat="44.17912" lon="6.82581">
        <ele>2001</ele>
        <time>2020-06-06T10:19:20.000Z</time>
      </trkpt>
      <trkpt lat="44.17907" lon="6.82588">
        <ele>1999.5999755859</ele>
        <time>2020-06-06T10:19:21.000Z</time>
      </trkpt>
      <trkpt lat="44.17904" lon="6.82596">
        <ele>1997.8000488281</ele>
        <time>2020-06-06T10:19:22.000Z</time>
      </trkpt>
      <trkpt lat="44.17903" lon="6.82602">
        <ele>1996.1999511719</ele>
        <time>2020-06-06T10:19:23.000Z</time>
      </trkpt>
      <trkpt lat="44.17901" lon="6.82607">
        <ele>1995</ele>
        <time>2020-06-06T10:19:24.000Z</time>
      </trkpt>
      <trkpt lat="44.17899" lon="6.82611">
        <ele>1994</ele>
        <time>2020-06-06T10:19:25.000Z</time>
      </trkpt>
      <trkpt lat="44.17898" lon="6.82613">
        <ele>1993.8000488281</ele>
        <time>2020-06-06T10:19:26.000Z</time>
      </trkpt>
      <trkpt lat="44.17894" lon="6.82617">
        <ele>1994.8000488281</ele>
        <time>2020-06-06T10:19:28.000Z</time>
      </trkpt>
      <trkpt lat="44.17893" lon="6.82618">
        <ele>1995.1999511719</ele>
        <time>2020-06-06T10:19:29.000Z</time>
      </trkpt>
      <trkpt lat="44.17891" lon="6.82619">
        <ele>1995.5999755859</ele>
        <time>2020-06-06T10:19:30.000Z</time>
      </trkpt>
      <trkpt lat="44.17888" lon="6.82621">
        <ele>1996.5999755859</ele>
        <time>2020-06-06T10:19:32.000Z</time>
      </trkpt>
      <trkpt lat="44.17885" lon="6.82623">
        <ele>1997.1999511719</ele>
        <time>2020-06-06T10:19:35.000Z</time>
      </trkpt>
      <trkpt lat="44.17877" lon="6.82628">
        <ele>1997.8000488281</ele>
        <time>2020-06-06T10:19:41.000Z</time>
      </trkpt>
      <trkpt lat="44.17875" lon="6.82629">
        <ele>1998</ele>
        <time>2020-06-06T10:19:42.000Z</time>
      </trkpt>
      <trkpt lat="44.17869" lon="6.82632">
        <ele>1998.8000488281</ele>
        <time>2020-06-06T10:19:47.000Z</time>
      </trkpt>
      <trkpt lat="44.17855" lon="6.82641">
        <ele>1998.8000488281</ele>
        <time>2020-06-06T10:19:54.000Z</time>
      </trkpt>
      <trkpt lat="44.17842" lon="6.82655">
        <ele>1998.4000244141</ele>
        <time>2020-06-06T10:19:57.000Z</time>
      </trkpt>
      <trkpt lat="44.17835" lon="6.82668">
        <ele>1997.1999511719</ele>
        <time>2020-06-06T10:19:59.000Z</time>
      </trkpt>
      <trkpt lat="44.17832" lon="6.82674">
        <ele>1996</ele>
        <time>2020-06-06T10:20:00.000Z</time>
      </trkpt>
      <trkpt lat="44.17828" lon="6.82678">
        <ele>1995</ele>
        <time>2020-06-06T10:20:01.000Z</time>
      </trkpt>
      <trkpt lat="44.17826" lon="6.82681">
        <ele>1993.8000488281</ele>
        <time>2020-06-06T10:20:02.000Z</time>
      </trkpt>
      <trkpt lat="44.17821" lon="6.82689">
        <ele>1992.8000488281</ele>
        <time>2020-06-06T10:20:05.000Z</time>
      </trkpt>
      <trkpt lat="44.17814" lon="6.82707">
        <ele>1993.1999511719</ele>
        <time>2020-06-06T10:20:11.000Z</time>
      </trkpt>
      <trkpt lat="44.17805" lon="6.82724">
        <ele>1992.8000488281</ele>
        <time>2020-06-06T10:20:17.000Z</time>
      </trkpt>
      <trkpt lat="44.17794" lon="6.82737">
        <ele>1991.4000244141</ele>
        <time>2020-06-06T10:20:22.000Z</time>
      </trkpt>
      <trkpt lat="44.17792" lon="6.82739">
        <ele>1991.1999511719</ele>
        <time>2020-06-06T10:20:23.000Z</time>
      </trkpt>
      <trkpt lat="44.17785" lon="6.82743">
        <ele>1990.4000244141</ele>
        <time>2020-06-06T10:20:26.000Z</time>
      </trkpt>
      <trkpt lat="44.17775" lon="6.8275">
        <ele>1989.5999755859</ele>
        <time>2020-06-06T10:20:30.000Z</time>
      </trkpt>
      <trkpt lat="44.1777" lon="6.82753">
        <ele>1989</ele>
        <time>2020-06-06T10:20:32.000Z</time>
      </trkpt>
      <trkpt lat="44.17762" lon="6.82759">
        <ele>1987.8000488281</ele>
        <time>2020-06-06T10:20:35.000Z</time>
      </trkpt>
      <trkpt lat="44.17758" lon="6.82763">
        <ele>1987.4000244141</ele>
        <time>2020-06-06T10:20:36.000Z</time>
      </trkpt>
      <trkpt lat="44.1775" lon="6.8277">
        <ele>1986.4000244141</ele>
        <time>2020-06-06T10:20:38.000Z</time>
      </trkpt>
      <trkpt lat="44.17744" lon="6.82775">
        <ele>1985.1999511719</ele>
        <time>2020-06-06T10:20:40.000Z</time>
      </trkpt>
      <trkpt lat="44.17741" lon="6.82776">
        <ele>1984.4000244141</ele>
        <time>2020-06-06T10:20:41.000Z</time>
      </trkpt>
      <trkpt lat="44.17739" lon="6.82777">
        <ele>1983.8000488281</ele>
        <time>2020-06-06T10:20:42.000Z</time>
      </trkpt>
      <trkpt lat="44.17735" lon="6.82777">
        <ele>1983.8000488281</ele>
        <time>2020-06-06T10:20:45.000Z</time>
      </trkpt>
      <trkpt lat="44.17734" lon="6.82776">
        <ele>1983.8000488281</ele>
        <time>2020-06-06T10:20:46.000Z</time>
      </trkpt>
      <trkpt lat="44.17734" lon="6.82777">
        <ele>1984.4000244141</ele>
        <time>2020-06-06T10:20:49.000Z</time>
      </trkpt>
      <trkpt lat="44.17733" lon="6.82777">
        <ele>1984.4000244141</ele>
        <time>2020-06-06T10:20:50.000Z</time>
      </trkpt>
      <trkpt lat="44.1773" lon="6.82779">
        <ele>1984.5999755859</ele>
        <time>2020-06-06T10:20:53.000Z</time>
      </trkpt>
      <trkpt lat="44.17731" lon="6.82782">
        <ele>1984.8000488281</ele>
        <time>2020-06-06T10:20:55.000Z</time>
      </trkpt>
      <trkpt lat="44.1773" lon="6.82784">
        <ele>1985</ele>
        <time>2020-06-06T10:20:56.000Z</time>
      </trkpt>
      <trkpt lat="44.17729" lon="6.82785">
        <ele>1985.1999511719</ele>
        <time>2020-06-06T10:20:57.000Z</time>
      </trkpt>
      <trkpt lat="44.17724" lon="6.82786">
        <ele>1986</ele>
        <time>2020-06-06T10:21:02.000Z</time>
      </trkpt>
      <trkpt lat="44.1772" lon="6.8278">
        <ele>1987</ele>
        <time>2020-06-06T10:21:08.000Z</time>
      </trkpt>
      <trkpt lat="44.17719" lon="6.8278">
        <ele>1987.1999511719</ele>
        <time>2020-06-06T10:21:09.000Z</time>
      </trkpt>
      <trkpt lat="44.17716" lon="6.82779">
        <ele>1987.8000488281</ele>
        <time>2020-06-06T10:21:12.000Z</time>
      </trkpt>
      <trkpt lat="44.17714" lon="6.82778">
        <ele>1988.1999511719</ele>
        <time>2020-06-06T10:21:14.000Z</time>
      </trkpt>
      <trkpt lat="44.17714" lon="6.82777">
        <ele>1988.4000244141</ele>
        <time>2020-06-06T10:21:15.000Z</time>
      </trkpt>
      <trkpt lat="44.17711" lon="6.82776">
        <ele>1989.1999511719</ele>
        <time>2020-06-06T10:21:18.000Z</time>
      </trkpt>
      <trkpt lat="44.17709" lon="6.82774">
        <ele>1989.8000488281</ele>
        <time>2020-06-06T10:21:21.000Z</time>
      </trkpt>
      <trkpt lat="44.17705" lon="6.82771">
        <ele>1990.4000244141</ele>
        <time>2020-06-06T10:21:26.000Z</time>
      </trkpt>
      <trkpt lat="44.17703" lon="6.8277">
        <ele>1990.8000488281</ele>
        <time>2020-06-06T10:21:28.000Z</time>
      </trkpt>
      <trkpt lat="44.17701" lon="6.82768">
        <ele>1991.4000244141</ele>
        <time>2020-06-06T10:21:31.000Z</time>
      </trkpt>
      <trkpt lat="44.17699" lon="6.82768">
        <ele>1991.8000488281</ele>
        <time>2020-06-06T10:21:33.000Z</time>
      </trkpt>
      <trkpt lat="44.17695" lon="6.82765">
        <ele>1992.5999755859</ele>
        <time>2020-06-06T10:21:37.000Z</time>
      </trkpt>
      <trkpt lat="44.17694" lon="6.82763">
        <ele>1993</ele>
        <time>2020-06-06T10:21:39.000Z</time>
      </trkpt>
      <trkpt lat="44.17691" lon="6.82762">
        <ele>1993.4000244141</ele>
        <time>2020-06-06T10:21:42.000Z</time>
      </trkpt>
      <trkpt lat="44.17688" lon="6.82759">
        <ele>1993.8000488281</ele>
        <time>2020-06-06T10:21:45.000Z</time>
      </trkpt>
      <trkpt lat="44.17685" lon="6.82756">
        <ele>1994.8000488281</ele>
        <time>2020-06-06T10:21:49.000Z</time>
      </trkpt>
      <trkpt lat="44.17684" lon="6.82756">
        <ele>1995</ele>
        <time>2020-06-06T10:21:50.000Z</time>
      </trkpt>
      <trkpt lat="44.17679" lon="6.82753">
        <ele>1996</ele>
        <time>2020-06-06T10:21:56.000Z</time>
      </trkpt>
      <trkpt lat="44.17676" lon="6.82751">
        <ele>1996.4000244141</ele>
        <time>2020-06-06T10:21:59.000Z</time>
      </trkpt>
      <trkpt lat="44.17672" lon="6.82749">
        <ele>1997.1999511719</ele>
        <time>2020-06-06T10:22:03.000Z</time>
      </trkpt>
      <trkpt lat="44.1767" lon="6.82746">
        <ele>1997.5999755859</ele>
        <time>2020-06-06T10:22:06.000Z</time>
      </trkpt>
      <trkpt lat="44.17666" lon="6.82744">
        <ele>1998.1999511719</ele>
        <time>2020-06-06T10:22:11.000Z</time>
      </trkpt>
      <trkpt lat="44.17665" lon="6.82743">
        <ele>1998.1999511719</ele>
        <time>2020-06-06T10:22:12.000Z</time>
      </trkpt>
      <trkpt lat="44.17658" lon="6.82741">
        <ele>1998.8000488281</ele>
        <time>2020-06-06T10:22:18.000Z</time>
      </trkpt>
      <trkpt lat="44.17657" lon="6.82739">
        <ele>1999.4000244141</ele>
        <time>2020-06-06T10:22:20.000Z</time>
      </trkpt>
      <trkpt lat="44.17656" lon="6.82739">
        <ele>1999.5999755859</ele>
        <time>2020-06-06T10:22:21.000Z</time>
      </trkpt>
      <trkpt lat="44.17653" lon="6.82736">
        <ele>2000.5999755859</ele>
        <time>2020-06-06T10:22:24.000Z</time>
      </trkpt>
      <trkpt lat="44.17652" lon="6.82735">
        <ele>2001.1999511719</ele>
        <time>2020-06-06T10:22:26.000Z</time>
      </trkpt>
      <trkpt lat="44.1765" lon="6.82734">
        <ele>2001.5999755859</ele>
        <time>2020-06-06T10:22:28.000Z</time>
      </trkpt>
      <trkpt lat="44.17646" lon="6.82732">
        <ele>2002.1999511719</ele>
        <time>2020-06-06T10:22:32.000Z</time>
      </trkpt>
      <trkpt lat="44.17643" lon="6.8273">
        <ele>2002.8000488281</ele>
        <time>2020-06-06T10:22:36.000Z</time>
      </trkpt>
      <trkpt lat="44.1764" lon="6.82728">
        <ele>2003.1999511719</ele>
        <time>2020-06-06T10:22:39.000Z</time>
      </trkpt>
      <trkpt lat="44.17637" lon="6.82726">
        <ele>2004</ele>
        <time>2020-06-06T10:22:42.000Z</time>
      </trkpt>
      <trkpt lat="44.17635" lon="6.82724">
        <ele>2004.4000244141</ele>
        <time>2020-06-06T10:22:45.000Z</time>
      </trkpt>
      <trkpt lat="44.1763" lon="6.82722">
        <ele>2005</ele>
        <time>2020-06-06T10:22:50.000Z</time>
      </trkpt>
      <trkpt lat="44.17628" lon="6.8272">
        <ele>2005</ele>
        <time>2020-06-06T10:22:52.000Z</time>
      </trkpt>
      <trkpt lat="44.17623" lon="6.82717">
        <ele>2006</ele>
        <time>2020-06-06T10:22:57.000Z</time>
      </trkpt>
      <trkpt lat="44.17622" lon="6.82716">
        <ele>2006.1999511719</ele>
        <time>2020-06-06T10:22:58.000Z</time>
      </trkpt>
      <trkpt lat="44.17621" lon="6.82716">
        <ele>2006.5999755859</ele>
        <time>2020-06-06T10:22:59.000Z</time>
      </trkpt>
      <trkpt lat="44.17619" lon="6.82714">
        <ele>2007.1999511719</ele>
        <time>2020-06-06T10:23:01.000Z</time>
      </trkpt>
      <trkpt lat="44.17617" lon="6.82712">
        <ele>2007.8000488281</ele>
        <time>2020-06-06T10:23:04.000Z</time>
      </trkpt>
      <trkpt lat="44.17615" lon="6.82711">
        <ele>2008.1999511719</ele>
        <time>2020-06-06T10:23:06.000Z</time>
      </trkpt>
      <trkpt lat="44.17612" lon="6.82707">
        <ele>2009</ele>
        <time>2020-06-06T10:23:11.000Z</time>
      </trkpt>
      <trkpt lat="44.17611" lon="6.82707">
        <ele>2009.1999511719</ele>
        <time>2020-06-06T10:23:12.000Z</time>
      </trkpt>
      <trkpt lat="44.17608" lon="6.82705">
        <ele>2009.8000488281</ele>
        <time>2020-06-06T10:23:15.000Z</time>
      </trkpt>
      <trkpt lat="44.17606" lon="6.82704">
        <ele>2010.1999511719</ele>
        <time>2020-06-06T10:23:17.000Z</time>
      </trkpt>
      <trkpt lat="44.176" lon="6.827">
        <ele>2011.4000244141</ele>
        <time>2020-06-06T10:23:24.000Z</time>
      </trkpt>
      <trkpt lat="44.17594" lon="6.82694">
        <ele>2012.4000244141</ele>
        <time>2020-06-06T10:23:31.000Z</time>
      </trkpt>
      <trkpt lat="44.17592" lon="6.82693">
        <ele>2012.8000488281</ele>
        <time>2020-06-06T10:23:33.000Z</time>
      </trkpt>
      <trkpt lat="44.17591" lon="6.82692">
        <ele>2013.4000244141</ele>
        <time>2020-06-06T10:23:35.000Z</time>
      </trkpt>
      <trkpt lat="44.17587" lon="6.82689">
        <ele>2014.1999511719</ele>
        <time>2020-06-06T10:23:40.000Z</time>
      </trkpt>
      <trkpt lat="44.17586" lon="6.82688">
        <ele>2014.4000244141</ele>
        <time>2020-06-06T10:23:41.000Z</time>
      </trkpt>
      <trkpt lat="44.1758" lon="6.82684">
        <ele>2015.1999511719</ele>
        <time>2020-06-06T10:23:47.000Z</time>
      </trkpt>
      <trkpt lat="44.17579" lon="6.82683">
        <ele>2015.4000244141</ele>
        <time>2020-06-06T10:23:48.000Z</time>
      </trkpt>
      <trkpt lat="44.17575" lon="6.82681">
        <ele>2016.5999755859</ele>
        <time>2020-06-06T10:23:53.000Z</time>
      </trkpt>
      <trkpt lat="44.17569" lon="6.82676">
        <ele>2017.8000488281</ele>
        <time>2020-06-06T10:24:00.000Z</time>
      </trkpt>
      <trkpt lat="44.17563" lon="6.82673">
        <ele>2018.5999755859</ele>
        <time>2020-06-06T10:24:07.000Z</time>
      </trkpt>
      <trkpt lat="44.17562" lon="6.82672">
        <ele>2018.8000488281</ele>
        <time>2020-06-06T10:24:08.000Z</time>
      </trkpt>
      <trkpt lat="44.17556" lon="6.82669">
        <ele>2019</ele>
        <time>2020-06-06T10:24:13.000Z</time>
      </trkpt>
      <trkpt lat="44.17545" lon="6.82662">
        <ele>2019.4000244141</ele>
        <time>2020-06-06T10:24:21.000Z</time>
      </trkpt>
      <trkpt lat="44.17529" lon="6.82654">
        <ele>2019.4000244141</ele>
        <time>2020-06-06T10:24:28.000Z</time>
      </trkpt>
      <trkpt lat="44.17515" lon="6.82645">
        <ele>2018.1999511719</ele>
        <time>2020-06-06T10:24:33.000Z</time>
      </trkpt>
      <trkpt lat="44.17499" lon="6.82633">
        <ele>2017.8000488281</ele>
        <time>2020-06-06T10:24:40.000Z</time>
      </trkpt>
      <trkpt lat="44.17492" lon="6.82627">
        <ele>2017.5999755859</ele>
        <time>2020-06-06T10:24:43.000Z</time>
      </trkpt>
      <trkpt lat="44.17481" lon="6.82615">
        <ele>2018.1999511719</ele>
        <time>2020-06-06T10:24:48.000Z</time>
      </trkpt>
      <trkpt lat="44.17461" lon="6.82592">
        <ele>2017.5999755859</ele>
        <time>2020-06-06T10:24:57.000Z</time>
      </trkpt>
      <trkpt lat="44.17459" lon="6.8259">
        <ele>2018.8000488281</ele>
        <time>2020-06-06T10:25:02.000Z</time>
      </trkpt>
      <trkpt lat="44.17459" lon="6.82589">
        <ele>2018.4000244141</ele>
        <time>2020-06-06T10:25:10.000Z</time>
      </trkpt>
      <trkpt lat="44.17458" lon="6.82588">
        <ele>2018.4000244141</ele>
        <time>2020-06-06T10:25:14.000Z</time>
      </trkpt>
      <trkpt lat="44.17456" lon="6.82587">
        <ele>2018.4000244141</ele>
        <time>2020-06-06T10:25:15.000Z</time>
      </trkpt>
      <trkpt lat="44.17452" lon="6.8258">
        <ele>2018.5999755859</ele>
        <time>2020-06-06T10:25:18.000Z</time>
      </trkpt>
      <trkpt lat="44.17447" lon="6.82575">
        <ele>2018.8000488281</ele>
        <time>2020-06-06T10:25:20.000Z</time>
      </trkpt>
      <trkpt lat="44.17439" lon="6.82564">
        <ele>2017.5999755859</ele>
        <time>2020-06-06T10:25:23.000Z</time>
      </trkpt>
      <trkpt lat="44.17427" lon="6.82552">
        <ele>2016.8000488281</ele>
        <time>2020-06-06T10:25:27.000Z</time>
      </trkpt>
      <trkpt lat="44.17425" lon="6.8255">
        <ele>2016.5999755859</ele>
        <time>2020-06-06T10:25:28.000Z</time>
      </trkpt>
      <trkpt lat="44.17401" lon="6.82532">
        <ele>2016.5999755859</ele>
        <time>2020-06-06T10:25:37.000Z</time>
      </trkpt>
      <trkpt lat="44.17386" lon="6.8252">
        <ele>2017.4000244141</ele>
        <time>2020-06-06T10:25:44.000Z</time>
      </trkpt>
      <trkpt lat="44.17382" lon="6.82518">
        <ele>2017.5999755859</ele>
        <time>2020-06-06T10:25:46.000Z</time>
      </trkpt>
      <trkpt lat="44.17375" lon="6.82511">
        <ele>2018.1999511719</ele>
        <time>2020-06-06T10:25:51.000Z</time>
      </trkpt>
      <trkpt lat="44.1737" lon="6.82507">
        <ele>2018.8000488281</ele>
        <time>2020-06-06T10:25:54.000Z</time>
      </trkpt>
      <trkpt lat="44.17364" lon="6.82501">
        <ele>2019.8000488281</ele>
        <time>2020-06-06T10:25:59.000Z</time>
      </trkpt>
      <trkpt lat="44.17362" lon="6.825">
        <ele>2020</ele>
        <time>2020-06-06T10:26:00.000Z</time>
      </trkpt>
      <trkpt lat="44.17352" lon="6.82491">
        <ele>2021</ele>
        <time>2020-06-06T10:26:07.000Z</time>
      </trkpt>
      <trkpt lat="44.17348" lon="6.82488">
        <ele>2021.1999511719</ele>
        <time>2020-06-06T10:26:10.000Z</time>
      </trkpt>
      <trkpt lat="44.17341" lon="6.82482">
        <ele>2022</ele>
        <time>2020-06-06T10:26:15.000Z</time>
      </trkpt>
      <trkpt lat="44.17336" lon="6.82477">
        <ele>2022.5999755859</ele>
        <time>2020-06-06T10:26:19.000Z</time>
      </trkpt>
      <trkpt lat="44.17331" lon="6.82471">
        <ele>2023.1999511719</ele>
        <time>2020-06-06T10:26:23.000Z</time>
      </trkpt>
      <trkpt lat="44.17327" lon="6.82468">
        <ele>2023.8000488281</ele>
        <time>2020-06-06T10:26:26.000Z</time>
      </trkpt>
      <trkpt lat="44.17324" lon="6.82465">
        <ele>2024.1999511719</ele>
        <time>2020-06-06T10:26:29.000Z</time>
      </trkpt>
      <trkpt lat="44.1732" lon="6.82461">
        <ele>2025.4000244141</ele>
        <time>2020-06-06T10:26:33.000Z</time>
      </trkpt>
      <trkpt lat="44.17318" lon="6.82459">
        <ele>2026.1999511719</ele>
        <time>2020-06-06T10:26:35.000Z</time>
      </trkpt>
      <trkpt lat="44.17316" lon="6.82457">
        <ele>2026.5999755859</ele>
        <time>2020-06-06T10:26:37.000Z</time>
      </trkpt>
      <trkpt lat="44.1731" lon="6.82451">
        <ele>2027.5999755859</ele>
        <time>2020-06-06T10:26:43.000Z</time>
      </trkpt>
      <trkpt lat="44.17305" lon="6.82448">
        <ele>2028.8000488281</ele>
        <time>2020-06-06T10:26:48.000Z</time>
      </trkpt>
      <trkpt lat="44.17303" lon="6.82445">
        <ele>2029.1999511719</ele>
        <time>2020-06-06T10:26:51.000Z</time>
      </trkpt>
      <trkpt lat="44.17301" lon="6.82444">
        <ele>2029.8000488281</ele>
        <time>2020-06-06T10:26:53.000Z</time>
      </trkpt>
      <trkpt lat="44.17298" lon="6.82441">
        <ele>2030.8000488281</ele>
        <time>2020-06-06T10:26:57.000Z</time>
      </trkpt>
      <trkpt lat="44.17297" lon="6.82441">
        <ele>2031</ele>
        <time>2020-06-06T10:26:58.000Z</time>
      </trkpt>
      <trkpt lat="44.17292" lon="6.82437">
        <ele>2032.4000244141</ele>
        <time>2020-06-06T10:27:04.000Z</time>
      </trkpt>
      <trkpt lat="44.17288" lon="6.82432">
        <ele>2033.4000244141</ele>
        <time>2020-06-06T10:27:10.000Z</time>
      </trkpt>
      <trkpt lat="44.17286" lon="6.82432">
        <ele>2033.8000488281</ele>
        <time>2020-06-06T10:27:12.000Z</time>
      </trkpt>
      <trkpt lat="44.17284" lon="6.82429">
        <ele>2034.4000244141</ele>
        <time>2020-06-06T10:27:15.000Z</time>
      </trkpt>
      <trkpt lat="44.17283" lon="6.82428">
        <ele>2034.5999755859</ele>
        <time>2020-06-06T10:27:16.000Z</time>
      </trkpt>
      <trkpt lat="44.17282" lon="6.82427">
        <ele>2035.1999511719</ele>
        <time>2020-06-06T10:27:18.000Z</time>
      </trkpt>
      <trkpt lat="44.1728" lon="6.82425">
        <ele>2035.8000488281</ele>
        <time>2020-06-06T10:27:21.000Z</time>
      </trkpt>
      <trkpt lat="44.17278" lon="6.82425">
        <ele>2036</ele>
        <time>2020-06-06T10:27:23.000Z</time>
      </trkpt>
      <trkpt lat="44.17276" lon="6.82422">
        <ele>2036.8000488281</ele>
        <time>2020-06-06T10:27:26.000Z</time>
      </trkpt>
      <trkpt lat="44.17274" lon="6.82419">
        <ele>2037.8000488281</ele>
        <time>2020-06-06T10:27:30.000Z</time>
      </trkpt>
      <trkpt lat="44.17273" lon="6.82419">
        <ele>2037.8000488281</ele>
        <time>2020-06-06T10:27:31.000Z</time>
      </trkpt>
      <trkpt lat="44.17272" lon="6.82419">
        <ele>2038</ele>
        <time>2020-06-06T10:27:32.000Z</time>
      </trkpt>
      <trkpt lat="44.17268" lon="6.82414">
        <ele>2038.5999755859</ele>
        <time>2020-06-06T10:27:37.000Z</time>
      </trkpt>
      <trkpt lat="44.17264" lon="6.82411">
        <ele>2039</ele>
        <time>2020-06-06T10:27:42.000Z</time>
      </trkpt>
      <trkpt lat="44.17266" lon="6.82411">
        <ele>2039.1999511719</ele>
        <time>2020-06-06T10:27:43.000Z</time>
      </trkpt>
      <trkpt lat="44.17262" lon="6.82409">
        <ele>2039.8000488281</ele>
        <time>2020-06-06T10:27:48.000Z</time>
      </trkpt>
      <trkpt lat="44.17262" lon="6.8241">
        <ele>2040.1999511719</ele>
        <time>2020-06-06T10:27:50.000Z</time>
      </trkpt>
      <trkpt lat="44.17261" lon="6.82407">
        <ele>2040.1999511719</ele>
        <time>2020-06-06T10:27:51.000Z</time>
      </trkpt>
      <trkpt lat="44.1726" lon="6.82407">
        <ele>2040.4000244141</ele>
        <time>2020-06-06T10:27:52.000Z</time>
      </trkpt>
      <trkpt lat="44.17257" lon="6.82403">
        <ele>2041.1999511719</ele>
        <time>2020-06-06T10:27:57.000Z</time>
      </trkpt>
      <trkpt lat="44.17255" lon="6.82403">
        <ele>2041.4000244141</ele>
        <time>2020-06-06T10:27:59.000Z</time>
      </trkpt>
      <trkpt lat="44.17251" lon="6.82399">
        <ele>2042.1999511719</ele>
        <time>2020-06-06T10:28:05.000Z</time>
      </trkpt>
      <trkpt lat="44.17251" lon="6.82399">
        <ele>2042.4000244141</ele>
        <time>2020-06-06T10:28:06.000Z</time>
      </trkpt>
      <trkpt lat="44.17246" lon="6.82396">
        <ele>2043.4000244141</ele>
        <time>2020-06-06T10:28:13.000Z</time>
      </trkpt>
      <trkpt lat="44.17244" lon="6.82394">
        <ele>2044.4000244141</ele>
        <time>2020-06-06T10:28:17.000Z</time>
      </trkpt>
      <trkpt lat="44.17241" lon="6.82393">
        <ele>2045.5999755859</ele>
        <time>2020-06-06T10:28:23.000Z</time>
      </trkpt>
      <trkpt lat="44.1724" lon="6.82392">
        <ele>2045.8000488281</ele>
        <time>2020-06-06T10:28:24.000Z</time>
      </trkpt>
      <trkpt lat="44.17237" lon="6.82391">
        <ele>2046.5999755859</ele>
        <time>2020-06-06T10:28:29.000Z</time>
      </trkpt>
      <trkpt lat="44.17235" lon="6.82389">
        <ele>2047.5999755859</ele>
        <time>2020-06-06T10:28:34.000Z</time>
      </trkpt>
      <trkpt lat="44.17234" lon="6.82389">
        <ele>2047.5999755859</ele>
        <time>2020-06-06T10:28:35.000Z</time>
      </trkpt>
      <trkpt lat="44.17231" lon="6.82388">
        <ele>2048.8000488281</ele>
        <time>2020-06-06T10:28:41.000Z</time>
      </trkpt>
      <trkpt lat="44.17229" lon="6.82387">
        <ele>2049.3999023438</ele>
        <time>2020-06-06T10:28:45.000Z</time>
      </trkpt>
      <trkpt lat="44.17228" lon="6.82386">
        <ele>2049.8000488281</ele>
        <time>2020-06-06T10:28:48.000Z</time>
      </trkpt>
      <trkpt lat="44.17225" lon="6.82384">
        <ele>2050.8000488281</ele>
        <time>2020-06-06T10:28:54.000Z</time>
      </trkpt>
      <trkpt lat="44.17224" lon="6.82384">
        <ele>2050.8000488281</ele>
        <time>2020-06-06T10:28:55.000Z</time>
      </trkpt>
      <trkpt lat="44.17221" lon="6.82382">
        <ele>2052</ele>
        <time>2020-06-06T10:29:02.000Z</time>
      </trkpt>
      <trkpt lat="44.1722" lon="6.82382">
        <ele>2052.1999511719</ele>
        <time>2020-06-06T10:29:03.000Z</time>
      </trkpt>
      <trkpt lat="44.17217" lon="6.8238">
        <ele>2053.1999511719</ele>
        <time>2020-06-06T10:29:09.000Z</time>
      </trkpt>
      <trkpt lat="44.17215" lon="6.8238">
        <ele>2053.6000976562</ele>
        <time>2020-06-06T10:29:12.000Z</time>
      </trkpt>
      <trkpt lat="44.17211" lon="6.82378">
        <ele>2054.1999511719</ele>
        <time>2020-06-06T10:29:17.000Z</time>
      </trkpt>
      <trkpt lat="44.17206" lon="6.82376">
        <ele>2055.1999511719</ele>
        <time>2020-06-06T10:29:23.000Z</time>
      </trkpt>
      <trkpt lat="44.17205" lon="6.82376">
        <ele>2055.3999023438</ele>
        <time>2020-06-06T10:29:24.000Z</time>
      </trkpt>
      <trkpt lat="44.17201" lon="6.82374">
        <ele>2056</ele>
        <time>2020-06-06T10:29:30.000Z</time>
      </trkpt>
      <trkpt lat="44.172" lon="6.82374">
        <ele>2056.3999023438</ele>
        <time>2020-06-06T10:29:32.000Z</time>
      </trkpt>
      <trkpt lat="44.172" lon="6.82374">
        <ele>2056.6000976562</ele>
        <time>2020-06-06T10:29:36.000Z</time>
      </trkpt>
      <trkpt lat="44.17195" lon="6.82372">
        <ele>2056.6000976562</ele>
        <time>2020-06-06T10:29:40.000Z</time>
      </trkpt>
      <trkpt lat="44.17192" lon="6.82372">
        <ele>2056.6000976562</ele>
        <time>2020-06-06T10:29:42.000Z</time>
      </trkpt>
      <trkpt lat="44.17187" lon="6.82371">
        <ele>2056.8000488281</ele>
        <time>2020-06-06T10:29:46.000Z</time>
      </trkpt>
      <trkpt lat="44.17181" lon="6.82369">
        <ele>2057.3999023438</ele>
        <time>2020-06-06T10:29:51.000Z</time>
      </trkpt>
      <trkpt lat="44.17179" lon="6.82368">
        <ele>2057.6000976562</ele>
        <time>2020-06-06T10:29:53.000Z</time>
      </trkpt>
      <trkpt lat="44.17169" lon="6.82365">
        <ele>2058.1999511719</ele>
        <time>2020-06-06T10:30:00.000Z</time>
      </trkpt>
      <trkpt lat="44.17161" lon="6.82363">
        <ele>2058.6000976562</ele>
        <time>2020-06-06T10:30:06.000Z</time>
      </trkpt>
      <trkpt lat="44.17158" lon="6.82362">
        <ele>2059</ele>
        <time>2020-06-06T10:30:08.000Z</time>
      </trkpt>
      <trkpt lat="44.17147" lon="6.82358">
        <ele>2059.6000976562</ele>
        <time>2020-06-06T10:30:16.000Z</time>
      </trkpt>
      <trkpt lat="44.17146" lon="6.82357">
        <ele>2059.8000488281</ele>
        <time>2020-06-06T10:30:17.000Z</time>
      </trkpt>
      <trkpt lat="44.17136" lon="6.82353">
        <ele>2060.3999023438</ele>
        <time>2020-06-06T10:30:25.000Z</time>
      </trkpt>
      <trkpt lat="44.17134" lon="6.82352">
        <ele>2060.6000976562</ele>
        <time>2020-06-06T10:30:26.000Z</time>
      </trkpt>
      <trkpt lat="44.17127" lon="6.82347">
        <ele>2061.6000976562</ele>
        <time>2020-06-06T10:30:32.000Z</time>
      </trkpt>
      <trkpt lat="44.17125" lon="6.82347">
        <ele>2061.8000488281</ele>
        <time>2020-06-06T10:30:33.000Z</time>
      </trkpt>
      <trkpt lat="44.17116" lon="6.82342">
        <ele>2062.1999511719</ele>
        <time>2020-06-06T10:30:39.000Z</time>
      </trkpt>
      <trkpt lat="44.17106" lon="6.82333">
        <ele>2062.3999023438</ele>
        <time>2020-06-06T10:30:46.000Z</time>
      </trkpt>
      <trkpt lat="44.17097" lon="6.82325">
        <ele>2062.8000488281</ele>
        <time>2020-06-06T10:30:53.000Z</time>
      </trkpt>
      <trkpt lat="44.17091" lon="6.82317">
        <ele>2063.3999023438</ele>
        <time>2020-06-06T10:30:58.000Z</time>
      </trkpt>
      <trkpt lat="44.17087" lon="6.82314">
        <ele>2063.8000488281</ele>
        <time>2020-06-06T10:31:01.000Z</time>
      </trkpt>
      <trkpt lat="44.17083" lon="6.82309">
        <ele>2064.3999023438</ele>
        <time>2020-06-06T10:31:05.000Z</time>
      </trkpt>
      <trkpt lat="44.17081" lon="6.82306">
        <ele>2065</ele>
        <time>2020-06-06T10:31:07.000Z</time>
      </trkpt>
      <trkpt lat="44.17073" lon="6.823">
        <ele>2065.8000488281</ele>
        <time>2020-06-06T10:31:13.000Z</time>
      </trkpt>
      <trkpt lat="44.17069" lon="6.82297">
        <ele>2066</ele>
        <time>2020-06-06T10:31:16.000Z</time>
      </trkpt>
      <trkpt lat="44.17063" lon="6.82292">
        <ele>2066.8000488281</ele>
        <time>2020-06-06T10:31:21.000Z</time>
      </trkpt>
      <trkpt lat="44.17059" lon="6.82289">
        <ele>2067</ele>
        <time>2020-06-06T10:31:24.000Z</time>
      </trkpt>
      <trkpt lat="44.17053" lon="6.82284">
        <ele>2067.8000488281</ele>
        <time>2020-06-06T10:31:29.000Z</time>
      </trkpt>
      <trkpt lat="44.17051" lon="6.82282">
        <ele>2068.1999511719</ele>
        <time>2020-06-06T10:31:31.000Z</time>
      </trkpt>
      <trkpt lat="44.17046" lon="6.82278">
        <ele>2069.3999023438</ele>
        <time>2020-06-06T10:31:36.000Z</time>
      </trkpt>
      <trkpt lat="44.17042" lon="6.82272">
        <ele>2070.3999023438</ele>
        <time>2020-06-06T10:31:42.000Z</time>
      </trkpt>
      <trkpt lat="44.17041" lon="6.82271">
        <ele>2070.6000976562</ele>
        <time>2020-06-06T10:31:44.000Z</time>
      </trkpt>
      <trkpt lat="44.17037" lon="6.82265">
        <ele>2071.1999511719</ele>
        <time>2020-06-06T10:31:49.000Z</time>
      </trkpt>
      <trkpt lat="44.17036" lon="6.82264">
        <ele>2071.3999023438</ele>
        <time>2020-06-06T10:31:50.000Z</time>
      </trkpt>
      <trkpt lat="44.17035" lon="6.82262">
        <ele>2071.6000976562</ele>
        <time>2020-06-06T10:31:52.000Z</time>
      </trkpt>
      <trkpt lat="44.17033" lon="6.8226">
        <ele>2071.8000488281</ele>
        <time>2020-06-06T10:31:54.000Z</time>
      </trkpt>
      <trkpt lat="44.17028" lon="6.82251">
        <ele>2072.6000976562</ele>
        <time>2020-06-06T10:32:01.000Z</time>
      </trkpt>
      <trkpt lat="44.17021" lon="6.82242">
        <ele>2073.8000488281</ele>
        <time>2020-06-06T10:32:08.000Z</time>
      </trkpt>
      <trkpt lat="44.17016" lon="6.82237">
        <ele>2074.3999023438</ele>
        <time>2020-06-06T10:32:13.000Z</time>
      </trkpt>
      <trkpt lat="44.17015" lon="6.82236">
        <ele>2074.6000976562</ele>
        <time>2020-06-06T10:32:14.000Z</time>
      </trkpt>
      <trkpt lat="44.17009" lon="6.82231">
        <ele>2074.8000488281</ele>
        <time>2020-06-06T10:32:17.000Z</time>
      </trkpt>
      <trkpt lat="44.17007" lon="6.82227">
        <ele>2074.8000488281</ele>
        <time>2020-06-06T10:32:18.000Z</time>
      </trkpt>
      <trkpt lat="44.16997" lon="6.82213">
        <ele>2073.8000488281</ele>
        <time>2020-06-06T10:32:22.000Z</time>
      </trkpt>
      <trkpt lat="44.16995" lon="6.82211">
        <ele>2073.3999023438</ele>
        <time>2020-06-06T10:32:23.000Z</time>
      </trkpt>
      <trkpt lat="44.16986" lon="6.82202">
        <ele>2072.1999511719</ele>
        <time>2020-06-06T10:32:26.000Z</time>
      </trkpt>
      <trkpt lat="44.16982" lon="6.82197">
        <ele>2072</ele>
        <time>2020-06-06T10:32:27.000Z</time>
      </trkpt>
      <trkpt lat="44.16964" lon="6.82172">
        <ele>2071.3999023438</ele>
        <time>2020-06-06T10:32:32.000Z</time>
      </trkpt>
      <trkpt lat="44.1696" lon="6.82168">
        <ele>2071</ele>
        <time>2020-06-06T10:32:33.000Z</time>
      </trkpt>
      <trkpt lat="44.16952" lon="6.82161">
        <ele>2069.8000488281</ele>
        <time>2020-06-06T10:32:35.000Z</time>
      </trkpt>
      <trkpt lat="44.1694" lon="6.82152">
        <ele>2068.8000488281</ele>
        <time>2020-06-06T10:32:38.000Z</time>
      </trkpt>
      <trkpt lat="44.16936" lon="6.8215">
        <ele>2068.8000488281</ele>
        <time>2020-06-06T10:32:39.000Z</time>
      </trkpt>
      <trkpt lat="44.16923" lon="6.82143">
        <ele>2068</ele>
        <time>2020-06-06T10:32:43.000Z</time>
      </trkpt>
      <trkpt lat="44.16904" lon="6.8214">
        <ele>2067.6000976562</ele>
        <time>2020-06-06T10:32:48.000Z</time>
      </trkpt>
      <trkpt lat="44.16895" lon="6.8213">
        <ele>2066.8000488281</ele>
        <time>2020-06-06T10:32:52.000Z</time>
      </trkpt>
      <trkpt lat="44.16878" lon="6.82112">
        <ele>2066.8000488281</ele>
        <time>2020-06-06T10:32:59.000Z</time>
      </trkpt>
      <trkpt lat="44.16867" lon="6.82102">
        <ele>2066.6000976562</ele>
        <time>2020-06-06T10:33:03.000Z</time>
      </trkpt>
      <trkpt lat="44.16855" lon="6.82097">
        <ele>2066.6000976562</ele>
        <time>2020-06-06T10:33:07.000Z</time>
      </trkpt>
      <trkpt lat="44.16838" lon="6.82086">
        <ele>2065.8000488281</ele>
        <time>2020-06-06T10:33:13.000Z</time>
      </trkpt>
      <trkpt lat="44.16825" lon="6.82083">
        <ele>2067.3999023438</ele>
        <time>2020-06-06T10:33:19.000Z</time>
      </trkpt>
      <trkpt lat="44.16822" lon="6.82083">
        <ele>2067.6000976562</ele>
        <time>2020-06-06T10:33:20.000Z</time>
      </trkpt>
      <trkpt lat="44.16806" lon="6.82082">
        <ele>2067.8000488281</ele>
        <time>2020-06-06T10:33:27.000Z</time>
      </trkpt>
      <trkpt lat="44.16797" lon="6.82082">
        <ele>2068.8000488281</ele>
        <time>2020-06-06T10:33:32.000Z</time>
      </trkpt>
      <trkpt lat="44.16793" lon="6.82081">
        <ele>2069.1999511719</ele>
        <time>2020-06-06T10:33:35.000Z</time>
      </trkpt>
      <trkpt lat="44.16785" lon="6.82077">
        <ele>2069.8000488281</ele>
        <time>2020-06-06T10:33:41.000Z</time>
      </trkpt>
      <trkpt lat="44.16784" lon="6.82076">
        <ele>2070.1999511719</ele>
        <time>2020-06-06T10:33:42.000Z</time>
      </trkpt>
      <trkpt lat="44.16779" lon="6.82072">
        <ele>2071</ele>
        <time>2020-06-06T10:33:47.000Z</time>
      </trkpt>
      <trkpt lat="44.16777" lon="6.82068">
        <ele>2071.1999511719</ele>
        <time>2020-06-06T10:33:49.000Z</time>
      </trkpt>
      <trkpt lat="44.16773" lon="6.82064">
        <ele>2071.8000488281</ele>
        <time>2020-06-06T10:33:53.000Z</time>
      </trkpt>
      <trkpt lat="44.16772" lon="6.82062">
        <ele>2071.8000488281</ele>
        <time>2020-06-06T10:33:54.000Z</time>
      </trkpt>
      <trkpt lat="44.1677" lon="6.82057">
        <ele>2072</ele>
        <time>2020-06-06T10:33:57.000Z</time>
      </trkpt>
      <trkpt lat="44.16765" lon="6.82046">
        <ele>2072.3999023438</ele>
        <time>2020-06-06T10:34:02.000Z</time>
      </trkpt>
      <trkpt lat="44.16753" lon="6.82023">
        <ele>2071.1999511719</ele>
        <time>2020-06-06T10:34:09.000Z</time>
      </trkpt>
      <trkpt lat="44.16746" lon="6.82015">
        <ele>2070.8000488281</ele>
        <time>2020-06-06T10:34:11.000Z</time>
      </trkpt>
      <trkpt lat="44.16734" lon="6.82003">
        <ele>2069</ele>
        <time>2020-06-06T10:34:14.000Z</time>
      </trkpt>
      <trkpt lat="44.16718" lon="6.81987">
        <ele>2068.1999511719</ele>
        <time>2020-06-06T10:34:19.000Z</time>
      </trkpt>
      <trkpt lat="44.16715" lon="6.81984">
        <ele>2068</ele>
        <time>2020-06-06T10:34:20.000Z</time>
      </trkpt>
      <trkpt lat="44.16707" lon="6.81977">
        <ele>2067</ele>
        <time>2020-06-06T10:34:23.000Z</time>
      </trkpt>
      <trkpt lat="44.16703" lon="6.81973">
        <ele>2067.3999023438</ele>
        <time>2020-06-06T10:34:25.000Z</time>
      </trkpt>
      <trkpt lat="44.16684" lon="6.81958">
        <ele>2067.8000488281</ele>
        <time>2020-06-06T10:34:32.000Z</time>
      </trkpt>
      <trkpt lat="44.1667" lon="6.81945">
        <ele>2068</ele>
        <time>2020-06-06T10:34:38.000Z</time>
      </trkpt>
      <trkpt lat="44.16668" lon="6.81943">
        <ele>2068.3999023438</ele>
        <time>2020-06-06T10:34:39.000Z</time>
      </trkpt>
      <trkpt lat="44.16657" lon="6.8193">
        <ele>2068.3999023438</ele>
        <time>2020-06-06T10:34:46.000Z</time>
      </trkpt>
      <trkpt lat="44.16652" lon="6.81921">
        <ele>2069</ele>
        <time>2020-06-06T10:34:51.000Z</time>
      </trkpt>
      <trkpt lat="44.16646" lon="6.81905">
        <ele>2069.8000488281</ele>
        <time>2020-06-06T10:34:57.000Z</time>
      </trkpt>
      <trkpt lat="44.16644" lon="6.81901">
        <ele>2070</ele>
        <time>2020-06-06T10:34:59.000Z</time>
      </trkpt>
      <trkpt lat="44.16639" lon="6.8189">
        <ele>2071</ele>
        <time>2020-06-06T10:35:04.000Z</time>
      </trkpt>
      <trkpt lat="44.16635" lon="6.81871">
        <ele>2070.6000976562</ele>
        <time>2020-06-06T10:35:10.000Z</time>
      </trkpt>
      <trkpt lat="44.16626" lon="6.81854">
        <ele>2070</ele>
        <time>2020-06-06T10:35:16.000Z</time>
      </trkpt>
      <trkpt lat="44.16616" lon="6.81849">
        <ele>2070.8000488281</ele>
        <time>2020-06-06T10:35:22.000Z</time>
      </trkpt>
      <trkpt lat="44.16615" lon="6.81848">
        <ele>2071.1999511719</ele>
        <time>2020-06-06T10:35:23.000Z</time>
      </trkpt>
      <trkpt lat="44.16607" lon="6.81841">
        <ele>2072</ele>
        <time>2020-06-06T10:35:29.000Z</time>
      </trkpt>
      <trkpt lat="44.16606" lon="6.81839">
        <ele>2072.1999511719</ele>
        <time>2020-06-06T10:35:30.000Z</time>
      </trkpt>
      <trkpt lat="44.16597" lon="6.81827">
        <ele>2072.6000976562</ele>
        <time>2020-06-06T10:35:34.000Z</time>
      </trkpt>
      <trkpt lat="44.16583" lon="6.81811">
        <ele>2070.8000488281</ele>
        <time>2020-06-06T10:35:38.000Z</time>
      </trkpt>
      <trkpt lat="44.16578" lon="6.81806">
        <ele>2069.6000976562</ele>
        <time>2020-06-06T10:35:40.000Z</time>
      </trkpt>
      <trkpt lat="44.16568" lon="6.81795">
        <ele>2068.8000488281</ele>
        <time>2020-06-06T10:35:43.000Z</time>
      </trkpt>
      <trkpt lat="44.16562" lon="6.8179">
        <ele>2068.8000488281</ele>
        <time>2020-06-06T10:35:45.000Z</time>
      </trkpt>
      <trkpt lat="44.16557" lon="6.81788">
        <ele>2068.3999023438</ele>
        <time>2020-06-06T10:35:47.000Z</time>
      </trkpt>
      <trkpt lat="44.16552" lon="6.81787">
        <ele>2068</ele>
        <time>2020-06-06T10:35:49.000Z</time>
      </trkpt>
      <trkpt lat="44.16547" lon="6.81785">
        <ele>2068.3999023438</ele>
        <time>2020-06-06T10:35:51.000Z</time>
      </trkpt>
      <trkpt lat="44.16536" lon="6.81782">
        <ele>2069.3999023438</ele>
        <time>2020-06-06T10:35:56.000Z</time>
      </trkpt>
      <trkpt lat="44.16533" lon="6.81781">
        <ele>2069.3999023438</ele>
        <time>2020-06-06T10:35:57.000Z</time>
      </trkpt>
      <trkpt lat="44.16521" lon="6.81772">
        <ele>2070.3999023438</ele>
        <time>2020-06-06T10:36:03.000Z</time>
      </trkpt>
      <trkpt lat="44.16517" lon="6.8177">
        <ele>2070.3999023438</ele>
        <time>2020-06-06T10:36:05.000Z</time>
      </trkpt>
      <trkpt lat="44.16505" lon="6.81765">
        <ele>2071</ele>
        <time>2020-06-06T10:36:10.000Z</time>
      </trkpt>
      <trkpt lat="44.165" lon="6.81762">
        <ele>2071.8000488281</ele>
        <time>2020-06-06T10:36:13.000Z</time>
      </trkpt>
      <trkpt lat="44.16496" lon="6.81761">
        <ele>2072.1999511719</ele>
        <time>2020-06-06T10:36:15.000Z</time>
      </trkpt>
      <trkpt lat="44.16491" lon="6.81758">
        <ele>2072.8000488281</ele>
        <time>2020-06-06T10:36:19.000Z</time>
      </trkpt>
      <trkpt lat="44.16488" lon="6.81756">
        <ele>2073.1999511719</ele>
        <time>2020-06-06T10:36:21.000Z</time>
      </trkpt>
      <trkpt lat="44.16484" lon="6.81752">
        <ele>2073.8000488281</ele>
        <time>2020-06-06T10:36:25.000Z</time>
      </trkpt>
      <trkpt lat="44.16481" lon="6.8175">
        <ele>2073.8000488281</ele>
        <time>2020-06-06T10:36:27.000Z</time>
      </trkpt>
      <trkpt lat="44.16469" lon="6.81741">
        <ele>2074.1999511719</ele>
        <time>2020-06-06T10:36:35.000Z</time>
      </trkpt>
      <trkpt lat="44.16458" lon="6.81728">
        <ele>2074.1999511719</ele>
        <time>2020-06-06T10:36:42.000Z</time>
      </trkpt>
      <trkpt lat="44.16442" lon="6.81714">
        <ele>2074.1999511719</ele>
        <time>2020-06-06T10:36:51.000Z</time>
      </trkpt>
      <trkpt lat="44.16425" lon="6.81704">
        <ele>2074.3999023438</ele>
        <time>2020-06-06T10:36:59.000Z</time>
      </trkpt>
      <trkpt lat="44.16414" lon="6.81698">
        <ele>2074.8000488281</ele>
        <time>2020-06-06T10:37:05.000Z</time>
      </trkpt>
      <trkpt lat="44.16411" lon="6.81697">
        <ele>2075</ele>
        <time>2020-06-06T10:37:06.000Z</time>
      </trkpt>
      <trkpt lat="44.16398" lon="6.81694">
        <ele>2075.3999023438</ele>
        <time>2020-06-06T10:37:13.000Z</time>
      </trkpt>
      <trkpt lat="44.16387" lon="6.81694">
        <ele>2076</ele>
        <time>2020-06-06T10:37:18.000Z</time>
      </trkpt>
      <trkpt lat="44.1638" lon="6.81692">
        <ele>2076.3999023438</ele>
        <time>2020-06-06T10:37:22.000Z</time>
      </trkpt>
      <trkpt lat="44.16372" lon="6.81686">
        <ele>2077</ele>
        <time>2020-06-06T10:37:27.000Z</time>
      </trkpt>
      <trkpt lat="44.16371" lon="6.81685">
        <ele>2077.1999511719</ele>
        <time>2020-06-06T10:37:28.000Z</time>
      </trkpt>
      <trkpt lat="44.16364" lon="6.8168">
        <ele>2078</ele>
        <time>2020-06-06T10:37:33.000Z</time>
      </trkpt>
      <trkpt lat="44.16361" lon="6.81679">
        <ele>2078.1999511719</ele>
        <time>2020-06-06T10:37:35.000Z</time>
      </trkpt>
      <trkpt lat="44.16354" lon="6.81677">
        <ele>2078.8000488281</ele>
        <time>2020-06-06T10:37:40.000Z</time>
      </trkpt>
      <trkpt lat="44.16344" lon="6.81673">
        <ele>2079.3999023438</ele>
        <time>2020-06-06T10:37:46.000Z</time>
      </trkpt>
      <trkpt lat="44.16344" lon="6.81673">
        <ele>2079.6000976562</ele>
        <time>2020-06-06T10:37:47.000Z</time>
      </trkpt>
      <trkpt lat="44.16342" lon="6.81673">
        <ele>2079.8000488281</ele>
        <time>2020-06-06T10:37:48.000Z</time>
      </trkpt>
      <trkpt lat="44.16337" lon="6.81671">
        <ele>2080.3999023438</ele>
        <time>2020-06-06T10:37:52.000Z</time>
      </trkpt>
      <trkpt lat="44.16332" lon="6.8167">
        <ele>2081.3999023438</ele>
        <time>2020-06-06T10:37:57.000Z</time>
      </trkpt>
      <trkpt lat="44.1633" lon="6.81668">
        <ele>2081.8000488281</ele>
        <time>2020-06-06T10:38:00.000Z</time>
      </trkpt>
      <trkpt lat="44.16325" lon="6.81664">
        <ele>2082.6000976562</ele>
        <time>2020-06-06T10:38:06.000Z</time>
      </trkpt>
      <trkpt lat="44.16319" lon="6.8166">
        <ele>2083.3999023438</ele>
        <time>2020-06-06T10:38:12.000Z</time>
      </trkpt>
      <trkpt lat="44.16318" lon="6.81659">
        <ele>2083.6000976562</ele>
        <time>2020-06-06T10:38:14.000Z</time>
      </trkpt>
      <trkpt lat="44.16313" lon="6.81655">
        <ele>2084</ele>
        <time>2020-06-06T10:38:19.000Z</time>
      </trkpt>
      <trkpt lat="44.16309" lon="6.81647">
        <ele>2084.6000976562</ele>
        <time>2020-06-06T10:38:25.000Z</time>
      </trkpt>
      <trkpt lat="44.16309" lon="6.81646">
        <ele>2084.6000976562</ele>
        <time>2020-06-06T10:38:26.000Z</time>
      </trkpt>
      <trkpt lat="44.16309" lon="6.81644">
        <ele>2084.6000976562</ele>
        <time>2020-06-06T10:38:27.000Z</time>
      </trkpt>
      <trkpt lat="44.16309" lon="6.81642">
        <ele>2085.3999023438</ele>
        <time>2020-06-06T10:38:29.000Z</time>
      </trkpt>
      <trkpt lat="44.16307" lon="6.8164">
        <ele>2085.8000488281</ele>
        <time>2020-06-06T10:38:31.000Z</time>
      </trkpt>
      <trkpt lat="44.16301" lon="6.81633">
        <ele>2086.6000976562</ele>
        <time>2020-06-06T10:38:38.000Z</time>
      </trkpt>
      <trkpt lat="44.16297" lon="6.81629">
        <ele>2086.8000488281</ele>
        <time>2020-06-06T10:38:42.000Z</time>
      </trkpt>
      <trkpt lat="44.16295" lon="6.81628">
        <ele>2087</ele>
        <time>2020-06-06T10:38:44.000Z</time>
      </trkpt>
      <trkpt lat="44.16288" lon="6.8162">
        <ele>2087.8000488281</ele>
        <time>2020-06-06T10:38:51.000Z</time>
      </trkpt>
      <trkpt lat="44.16287" lon="6.81619">
        <ele>2088</ele>
        <time>2020-06-06T10:38:52.000Z</time>
      </trkpt>
      <trkpt lat="44.16277" lon="6.81613">
        <ele>2088.6000976562</ele>
        <time>2020-06-06T10:39:00.000Z</time>
      </trkpt>
      <trkpt lat="44.16274" lon="6.81611">
        <ele>2089</ele>
        <time>2020-06-06T10:39:03.000Z</time>
      </trkpt>
      <trkpt lat="44.16268" lon="6.81608">
        <ele>2089.3999023438</ele>
        <time>2020-06-06T10:39:07.000Z</time>
      </trkpt>
      <trkpt lat="44.16262" lon="6.81605">
        <ele>2090</ele>
        <time>2020-06-06T10:39:11.000Z</time>
      </trkpt>
      <trkpt lat="44.16253" lon="6.816">
        <ele>2090.6000976562</ele>
        <time>2020-06-06T10:39:17.000Z</time>
      </trkpt>
      <trkpt lat="44.16249" lon="6.81599">
        <ele>2091</ele>
        <time>2020-06-06T10:39:20.000Z</time>
      </trkpt>
      <trkpt lat="44.16246" lon="6.81598">
        <ele>2091.3999023438</ele>
        <time>2020-06-06T10:39:22.000Z</time>
      </trkpt>
      <trkpt lat="44.16241" lon="6.81597">
        <ele>2092</ele>
        <time>2020-06-06T10:39:25.000Z</time>
      </trkpt>
      <trkpt lat="44.16233" lon="6.81595">
        <ele>2092.8000488281</ele>
        <time>2020-06-06T10:39:30.000Z</time>
      </trkpt>
      <trkpt lat="44.16224" lon="6.81592">
        <ele>2093.1999511719</ele>
        <time>2020-06-06T10:39:36.000Z</time>
      </trkpt>
      <trkpt lat="44.16216" lon="6.8159">
        <ele>2093.8000488281</ele>
        <time>2020-06-06T10:39:42.000Z</time>
      </trkpt>
      <trkpt lat="44.16209" lon="6.81589">
        <ele>2094.1999511719</ele>
        <time>2020-06-06T10:39:47.000Z</time>
      </trkpt>
      <trkpt lat="44.16205" lon="6.81588">
        <ele>2094.8000488281</ele>
        <time>2020-06-06T10:39:50.000Z</time>
      </trkpt>
      <trkpt lat="44.16199" lon="6.81586">
        <ele>2095.3999023438</ele>
        <time>2020-06-06T10:39:54.000Z</time>
      </trkpt>
      <trkpt lat="44.16196" lon="6.81585">
        <ele>2096</ele>
        <time>2020-06-06T10:39:57.000Z</time>
      </trkpt>
      <trkpt lat="44.1619" lon="6.81586">
        <ele>2096.3999023438</ele>
        <time>2020-06-06T10:40:01.000Z</time>
      </trkpt>
      <trkpt lat="44.16184" lon="6.81586">
        <ele>2096.3999023438</ele>
        <time>2020-06-06T10:40:04.000Z</time>
      </trkpt>
      <trkpt lat="44.16166" lon="6.81579">
        <ele>2096.3999023438</ele>
        <time>2020-06-06T10:40:12.000Z</time>
      </trkpt>
      <trkpt lat="44.16148" lon="6.81573">
        <ele>2096</ele>
        <time>2020-06-06T10:40:19.000Z</time>
      </trkpt>
      <trkpt lat="44.16127" lon="6.81566">
        <ele>2096.1999511719</ele>
        <time>2020-06-06T10:40:28.000Z</time>
      </trkpt>
      <trkpt lat="44.16103" lon="6.81555">
        <ele>2095.8000488281</ele>
        <time>2020-06-06T10:40:36.000Z</time>
      </trkpt>
      <trkpt lat="44.16099" lon="6.81553">
        <ele>2095.1999511719</ele>
        <time>2020-06-06T10:40:37.000Z</time>
      </trkpt>
      <trkpt lat="44.16088" lon="6.81547">
        <ele>2094.1999511719</ele>
        <time>2020-06-06T10:40:40.000Z</time>
      </trkpt>
      <trkpt lat="44.16081" lon="6.81545">
        <ele>2094.1999511719</ele>
        <time>2020-06-06T10:40:42.000Z</time>
      </trkpt>
      <trkpt lat="44.16078" lon="6.81543">
        <ele>2094.1999511719</ele>
        <time>2020-06-06T10:40:43.000Z</time>
      </trkpt>
      <trkpt lat="44.16052" lon="6.81534">
        <ele>2094</ele>
        <time>2020-06-06T10:40:51.000Z</time>
      </trkpt>
      <trkpt lat="44.16029" lon="6.8153">
        <ele>2094.6000976562</ele>
        <time>2020-06-06T10:40:59.000Z</time>
      </trkpt>
      <trkpt lat="44.16012" lon="6.81528">
        <ele>2095.1999511719</ele>
        <time>2020-06-06T10:41:05.000Z</time>
      </trkpt>
      <trkpt lat="44.16007" lon="6.81525">
        <ele>2095.1999511719</ele>
        <time>2020-06-06T10:41:07.000Z</time>
      </trkpt>
      <trkpt lat="44.15994" lon="6.81519">
        <ele>2095.6000976562</ele>
        <time>2020-06-06T10:41:13.000Z</time>
      </trkpt>
      <trkpt lat="44.15989" lon="6.81518">
        <ele>2096.3999023438</ele>
        <time>2020-06-06T10:41:16.000Z</time>
      </trkpt>
      <trkpt lat="44.15981" lon="6.81517">
        <ele>2097.6000976562</ele>
        <time>2020-06-06T10:41:20.000Z</time>
      </trkpt>
      <trkpt lat="44.1598" lon="6.81517">
        <ele>2097.6000976562</ele>
        <time>2020-06-06T10:41:21.000Z</time>
      </trkpt>
      <trkpt lat="44.15967" lon="6.81513">
        <ele>2098.3999023438</ele>
        <time>2020-06-06T10:41:28.000Z</time>
      </trkpt>
      <trkpt lat="44.15959" lon="6.81512">
        <ele>2098.6000976562</ele>
        <time>2020-06-06T10:41:33.000Z</time>
      </trkpt>
      <trkpt lat="44.15956" lon="6.81513">
        <ele>2098.8000488281</ele>
        <time>2020-06-06T10:41:35.000Z</time>
      </trkpt>
      <trkpt lat="44.15947" lon="6.81512">
        <ele>2099.6000976562</ele>
        <time>2020-06-06T10:41:41.000Z</time>
      </trkpt>
      <trkpt lat="44.15944" lon="6.81512">
        <ele>2099.6000976562</ele>
        <time>2020-06-06T10:41:43.000Z</time>
      </trkpt>
      <trkpt lat="44.15936" lon="6.81509">
        <ele>2100.6000976562</ele>
        <time>2020-06-06T10:41:49.000Z</time>
      </trkpt>
      <trkpt lat="44.15935" lon="6.81509">
        <ele>2100.8000488281</ele>
        <time>2020-06-06T10:41:50.000Z</time>
      </trkpt>
      <trkpt lat="44.15927" lon="6.81508">
        <ele>2101.8000488281</ele>
        <time>2020-06-06T10:41:55.000Z</time>
      </trkpt>
      <trkpt lat="44.15925" lon="6.81508">
        <ele>2102</ele>
        <time>2020-06-06T10:41:56.000Z</time>
      </trkpt>
      <trkpt lat="44.15911" lon="6.81508">
        <ele>2102.8000488281</ele>
        <time>2020-06-06T10:42:05.000Z</time>
      </trkpt>
      <trkpt lat="44.15899" lon="6.81508">
        <ele>2103.8000488281</ele>
        <time>2020-06-06T10:42:12.000Z</time>
      </trkpt>
      <trkpt lat="44.15898" lon="6.81508">
        <ele>2104</ele>
        <time>2020-06-06T10:42:13.000Z</time>
      </trkpt>
      <trkpt lat="44.15884" lon="6.81507">
        <ele>2104.6000976562</ele>
        <time>2020-06-06T10:42:21.000Z</time>
      </trkpt>
      <trkpt lat="44.15879" lon="6.81508">
        <ele>2104.8000488281</ele>
        <time>2020-06-06T10:42:25.000Z</time>
      </trkpt>
      <trkpt lat="44.1588" lon="6.81507">
        <ele>2104.8000488281</ele>
        <time>2020-06-06T10:42:28.000Z</time>
      </trkpt>
      <trkpt lat="44.15879" lon="6.81508">
        <ele>2105</ele>
        <time>2020-06-06T10:42:36.000Z</time>
      </trkpt>
      <trkpt lat="44.15877" lon="6.81509">
        <ele>2105</ele>
        <time>2020-06-06T10:42:43.000Z</time>
      </trkpt>
      <trkpt lat="44.15877" lon="6.81509">
        <ele>2104.6000976562</ele>
        <time>2020-06-06T10:42:49.000Z</time>
      </trkpt>
      <trkpt lat="44.15877" lon="6.81509">
        <ele>2103.8000488281</ele>
        <time>2020-06-06T10:42:55.000Z</time>
      </trkpt>
      <trkpt lat="44.15876" lon="6.81509">
        <ele>2104</ele>
        <time>2020-06-06T10:43:01.000Z</time>
      </trkpt>
      <trkpt lat="44.15877" lon="6.81509">
        <ele>2105</ele>
        <time>2020-06-06T10:43:06.000Z</time>
      </trkpt>
      <trkpt lat="44.15877" lon="6.81509">
        <ele>2105</ele>
        <time>2020-06-06T10:43:08.000Z</time>
      </trkpt>
      <trkpt lat="44.15877" lon="6.81508">
        <ele>2104.6000976562</ele>
        <time>2020-06-06T10:43:15.000Z</time>
      </trkpt>
      <trkpt lat="44.15877" lon="6.81508">
        <ele>2105.1999511719</ele>
        <time>2020-06-06T10:43:25.000Z</time>
      </trkpt>
      <trkpt lat="44.15877" lon="6.81508">
        <ele>2105.6000976562</ele>
        <time>2020-06-06T10:43:33.000Z</time>
      </trkpt>
      <trkpt lat="44.15877" lon="6.81509">
        <ele>2104.8000488281</ele>
        <time>2020-06-06T10:43:41.000Z</time>
      </trkpt>
      <trkpt lat="44.15877" lon="6.81509">
        <ele>2105.6000976562</ele>
        <time>2020-06-06T10:43:48.000Z</time>
      </trkpt>
      <trkpt lat="44.15878" lon="6.81509">
        <ele>2105.3999023438</ele>
        <time>2020-06-06T10:43:54.000Z</time>
      </trkpt>
      <trkpt lat="44.15878" lon="6.81509">
        <ele>2105.1999511719</ele>
        <time>2020-06-06T10:44:00.000Z</time>
      </trkpt>
      <trkpt lat="44.15877" lon="6.81509">
        <ele>2105.1999511719</ele>
        <time>2020-06-06T10:44:12.000Z</time>
      </trkpt>
      <trkpt lat="44.15877" lon="6.8151">
        <ele>2105</ele>
        <time>2020-06-06T10:44:16.000Z</time>
      </trkpt>
      <trkpt lat="44.15877" lon="6.8151">
        <ele>2105</ele>
        <time>2020-06-06T10:44:30.000Z</time>
      </trkpt>
      <trkpt lat="44.15877" lon="6.8151">
        <ele>2104.8000488281</ele>
        <time>2020-06-06T10:44:38.000Z</time>
      </trkpt>
      <trkpt lat="44.15877" lon="6.8151">
        <ele>2104.6000976562</ele>
        <time>2020-06-06T10:44:50.000Z</time>
      </trkpt>
      <trkpt lat="44.15877" lon="6.8151">
        <ele>2104.1999511719</ele>
        <time>2020-06-06T10:45:01.000Z</time>
      </trkpt>
      <trkpt lat="44.15878" lon="6.8151">
        <ele>2104.3999023438</ele>
        <time>2020-06-06T10:45:13.000Z</time>
      </trkpt>
      <trkpt lat="44.15878" lon="6.8151">
        <ele>2104.1999511719</ele>
        <time>2020-06-06T10:45:27.000Z</time>
      </trkpt>
      <trkpt lat="44.15878" lon="6.8151">
        <ele>2104.6000976562</ele>
        <time>2020-06-06T10:45:36.000Z</time>
      </trkpt>
      <trkpt lat="44.15878" lon="6.8151">
        <ele>2104.3999023438</ele>
        <time>2020-06-06T10:45:45.000Z</time>
      </trkpt>
      <trkpt lat="44.15878" lon="6.8151">
        <ele>2104</ele>
        <time>2020-06-06T10:45:53.000Z</time>
      </trkpt>
      <trkpt lat="44.15879" lon="6.8151">
        <ele>2104.1999511719</ele>
        <time>2020-06-06T10:46:00.000Z</time>
      </trkpt>
      <trkpt lat="44.15879" lon="6.8151">
        <ele>2104.3999023438</ele>
        <time>2020-06-06T10:46:15.000Z</time>
      </trkpt>
      <trkpt lat="44.15879" lon="6.8151">
        <ele>2104.3999023438</ele>
        <time>2020-06-06T10:46:23.000Z</time>
      </trkpt>
      <trkpt lat="44.15879" lon="6.8151">
        <ele>2104.6000976562</ele>
        <time>2020-06-06T10:46:37.000Z</time>
      </trkpt>
      <trkpt lat="44.15879" lon="6.8151">
        <ele>2104.6000976562</ele>
        <time>2020-06-06T10:46:49.000Z</time>
      </trkpt>
      <trkpt lat="44.1588" lon="6.81509">
        <ele>2104.3999023438</ele>
        <time>2020-06-06T10:46:56.000Z</time>
      </trkpt>
      <trkpt lat="44.15879" lon="6.8151">
        <ele>2104.1999511719</ele>
        <time>2020-06-06T10:47:12.000Z</time>
      </trkpt>
      <trkpt lat="44.15879" lon="6.8151">
        <ele>2105</ele>
        <time>2020-06-06T10:47:17.000Z</time>
      </trkpt>
      <trkpt lat="44.1588" lon="6.81509">
        <ele>2104.8000488281</ele>
        <time>2020-06-06T10:47:25.000Z</time>
      </trkpt>
      <trkpt lat="44.15879" lon="6.8151">
        <ele>2104.6000976562</ele>
        <time>2020-06-06T10:47:39.000Z</time>
      </trkpt>
      <trkpt lat="44.1588" lon="6.8151">
        <ele>2104.1999511719</ele>
        <time>2020-06-06T10:47:52.000Z</time>
      </trkpt>
      <trkpt lat="44.15879" lon="6.81511">
        <ele>2104.1999511719</ele>
        <time>2020-06-06T10:48:16.000Z</time>
      </trkpt>
      <trkpt lat="44.15879" lon="6.8151">
        <ele>2103.8000488281</ele>
        <time>2020-06-06T10:48:30.000Z</time>
      </trkpt>
      <trkpt lat="44.15879" lon="6.81511">
        <ele>2103.6000976562</ele>
        <time>2020-06-06T10:48:48.000Z</time>
      </trkpt>
      <trkpt lat="44.15879" lon="6.81511">
        <ele>2103.6000976562</ele>
        <time>2020-06-06T10:48:58.000Z</time>
      </trkpt>
      <trkpt lat="44.15879" lon="6.81512">
        <ele>2103.3999023438</ele>
        <time>2020-06-06T10:49:14.000Z</time>
      </trkpt>
      <trkpt lat="44.15879" lon="6.8151">
        <ele>2103.8000488281</ele>
        <time>2020-06-06T10:49:29.000Z</time>
      </trkpt>
      <trkpt lat="44.1588" lon="6.81509">
        <ele>2103.3999023438</ele>
        <time>2020-06-06T10:49:50.000Z</time>
      </trkpt>
      <trkpt lat="44.1588" lon="6.81509">
        <ele>2103.1999511719</ele>
        <time>2020-06-06T10:50:03.000Z</time>
      </trkpt>
      <trkpt lat="44.1588" lon="6.81509">
        <ele>2103.3999023438</ele>
        <time>2020-06-06T10:50:27.000Z</time>
      </trkpt>
      <trkpt lat="44.1588" lon="6.81509">
        <ele>2103</ele>
        <time>2020-06-06T10:50:34.000Z</time>
      </trkpt>
      <trkpt lat="44.1588" lon="6.81509">
        <ele>2102.8000488281</ele>
        <time>2020-06-06T10:50:48.000Z</time>
      </trkpt>
      <trkpt lat="44.1588" lon="6.81509">
        <ele>2103</ele>
        <time>2020-06-06T10:51:07.000Z</time>
      </trkpt>
      <trkpt lat="44.1588" lon="6.81508">
        <ele>2102.3999023438</ele>
        <time>2020-06-06T10:51:30.000Z</time>
      </trkpt>
      <trkpt lat="44.1588" lon="6.81509">
        <ele>2102.8000488281</ele>
        <time>2020-06-06T10:51:52.000Z</time>
      </trkpt>
      <trkpt lat="44.1588" lon="6.8151">
        <ele>2103</ele>
        <time>2020-06-06T10:52:07.000Z</time>
      </trkpt>
      <trkpt lat="44.1588" lon="6.81509">
        <ele>2102.6000976562</ele>
        <time>2020-06-06T10:52:23.000Z</time>
      </trkpt>
      <trkpt lat="44.1588" lon="6.8151">
        <ele>2102.6000976562</ele>
        <time>2020-06-06T10:52:44.000Z</time>
      </trkpt>
      <trkpt lat="44.1588" lon="6.81509">
        <ele>2102.6000976562</ele>
        <time>2020-06-06T10:53:07.000Z</time>
      </trkpt>
      <trkpt lat="44.1588" lon="6.81509">
        <ele>2102.8000488281</ele>
        <time>2020-06-06T10:53:20.000Z</time>
      </trkpt>
      <trkpt lat="44.15879" lon="6.8151">
        <ele>2102.6000976562</ele>
        <time>2020-06-06T10:53:36.000Z</time>
      </trkpt>
      <trkpt lat="44.15879" lon="6.81509">
        <ele>2102.8000488281</ele>
        <time>2020-06-06T10:53:45.000Z</time>
      </trkpt>
      <trkpt lat="44.15879" lon="6.81509">
        <ele>2102.6000976562</ele>
        <time>2020-06-06T10:54:00.000Z</time>
      </trkpt>
      <trkpt lat="44.15879" lon="6.8151">
        <ele>2102</ele>
        <time>2020-06-06T10:54:13.000Z</time>
      </trkpt>
      <trkpt lat="44.15879" lon="6.8151">
        <ele>2102</ele>
        <time>2020-06-06T10:54:18.000Z</time>
      </trkpt>
      <trkpt lat="44.15879" lon="6.8151">
        <ele>2102.3999023438</ele>
        <time>2020-06-06T10:54:24.000Z</time>
      </trkpt>
      <trkpt lat="44.15879" lon="6.8151">
        <ele>2102.1999511719</ele>
        <time>2020-06-06T10:54:41.000Z</time>
      </trkpt>
      <trkpt lat="44.15879" lon="6.8151">
        <ele>2102.3999023438</ele>
        <time>2020-06-06T10:54:58.000Z</time>
      </trkpt>
      <trkpt lat="44.15879" lon="6.81511">
        <ele>2102.3999023438</ele>
        <time>2020-06-06T10:55:19.000Z</time>
      </trkpt>
      <trkpt lat="44.15879" lon="6.81511">
        <ele>2103</ele>
        <time>2020-06-06T10:55:24.000Z</time>
      </trkpt>
      <trkpt lat="44.15879" lon="6.81511">
        <ele>2102.8000488281</ele>
        <time>2020-06-06T10:55:30.000Z</time>
      </trkpt>
      <trkpt lat="44.15879" lon="6.81511">
        <ele>2102.8000488281</ele>
        <time>2020-06-06T10:55:39.000Z</time>
      </trkpt>
      <trkpt lat="44.15879" lon="6.81511">
        <ele>2102.8000488281</ele>
        <time>2020-06-06T10:55:46.000Z</time>
      </trkpt>
      <trkpt lat="44.15879" lon="6.81511">
        <ele>2102.6000976562</ele>
        <time>2020-06-06T10:56:01.000Z</time>
      </trkpt>
      <trkpt lat="44.15879" lon="6.81511">
        <ele>2102</ele>
        <time>2020-06-06T10:56:22.000Z</time>
      </trkpt>
      <trkpt lat="44.15879" lon="6.81511">
        <ele>2102.3999023438</ele>
        <time>2020-06-06T10:56:43.000Z</time>
      </trkpt>
      <trkpt lat="44.15879" lon="6.81511">
        <ele>2102.8000488281</ele>
        <time>2020-06-06T10:56:52.000Z</time>
      </trkpt>
      <trkpt lat="44.15879" lon="6.81511">
        <ele>2102.3999023438</ele>
        <time>2020-06-06T10:57:05.000Z</time>
      </trkpt>
      <trkpt lat="44.15879" lon="6.8151">
        <ele>2102.8000488281</ele>
        <time>2020-06-06T10:57:15.000Z</time>
      </trkpt>
      <trkpt lat="44.15879" lon="6.8151">
        <ele>2102.3999023438</ele>
        <time>2020-06-06T10:57:25.000Z</time>
      </trkpt>
      <trkpt lat="44.15879" lon="6.8151">
        <ele>2103.1999511719</ele>
        <time>2020-06-06T10:57:30.000Z</time>
      </trkpt>
      <trkpt lat="44.15878" lon="6.8151">
        <ele>2103</ele>
        <time>2020-06-06T10:57:33.000Z</time>
      </trkpt>
      <trkpt lat="44.15878" lon="6.81511">
        <ele>2102.3999023438</ele>
        <time>2020-06-06T10:57:46.000Z</time>
      </trkpt>
      <trkpt lat="44.15878" lon="6.81511">
        <ele>2102.8000488281</ele>
        <time>2020-06-06T10:57:55.000Z</time>
      </trkpt>
      <trkpt lat="44.15878" lon="6.81511">
        <ele>2103</ele>
        <time>2020-06-06T10:58:05.000Z</time>
      </trkpt>
      <trkpt lat="44.15878" lon="6.81511">
        <ele>2102.6000976562</ele>
        <time>2020-06-06T10:58:21.000Z</time>
      </trkpt>
      <trkpt lat="44.15878" lon="6.81511">
        <ele>2102.6000976562</ele>
        <time>2020-06-06T10:58:28.000Z</time>
      </trkpt>
      <trkpt lat="44.15878" lon="6.81511">
        <ele>2103.1999511719</ele>
        <time>2020-06-06T10:58:48.000Z</time>
      </trkpt>
      <trkpt lat="44.15878" lon="6.81511">
        <ele>2103</ele>
        <time>2020-06-06T10:59:00.000Z</time>
      </trkpt>
      <trkpt lat="44.15879" lon="6.81512">
        <ele>2102.8000488281</ele>
        <time>2020-06-06T10:59:19.000Z</time>
      </trkpt>
      <trkpt lat="44.15879" lon="6.81511">
        <ele>2103</ele>
        <time>2020-06-06T10:59:32.000Z</time>
      </trkpt>
      <trkpt lat="44.15879" lon="6.81512">
        <ele>2102.8000488281</ele>
        <time>2020-06-06T11:00:01.000Z</time>
      </trkpt>
      <trkpt lat="44.1588" lon="6.81513">
        <ele>2103.3999023438</ele>
        <time>2020-06-06T11:00:24.000Z</time>
      </trkpt>
      <trkpt lat="44.1588" lon="6.81513">
        <ele>2103</ele>
        <time>2020-06-06T11:00:49.000Z</time>
      </trkpt>
      <trkpt lat="44.1588" lon="6.81513">
        <ele>2103.3999023438</ele>
        <time>2020-06-06T11:01:22.000Z</time>
      </trkpt>
      <trkpt lat="44.1588" lon="6.81514">
        <ele>2103.3999023438</ele>
        <time>2020-06-06T11:01:50.000Z</time>
      </trkpt>
      <trkpt lat="44.1588" lon="6.81514">
        <ele>2103</ele>
        <time>2020-06-06T11:02:07.000Z</time>
      </trkpt>
      <trkpt lat="44.1588" lon="6.81514">
        <ele>2103.3999023438</ele>
        <time>2020-06-06T11:02:30.000Z</time>
      </trkpt>
      <trkpt lat="44.1588" lon="6.81514">
        <ele>2103.6000976562</ele>
        <time>2020-06-06T11:02:42.000Z</time>
      </trkpt>
      <trkpt lat="44.1588" lon="6.81513">
        <ele>2103.6000976562</ele>
        <time>2020-06-06T11:03:01.000Z</time>
      </trkpt>
      <trkpt lat="44.1588" lon="6.81513">
        <ele>2104.1999511719</ele>
        <time>2020-06-06T11:03:13.000Z</time>
      </trkpt>
      <trkpt lat="44.15879" lon="6.81513">
        <ele>2104.1999511719</ele>
        <time>2020-06-06T11:03:20.000Z</time>
      </trkpt>
      <trkpt lat="44.1588" lon="6.81513">
        <ele>2103.8000488281</ele>
        <time>2020-06-06T11:03:40.000Z</time>
      </trkpt>
      <trkpt lat="44.1588" lon="6.81513">
        <ele>2103.8000488281</ele>
        <time>2020-06-06T11:04:00.000Z</time>
      </trkpt>
      <trkpt lat="44.15879" lon="6.81512">
        <ele>2103.3999023438</ele>
        <time>2020-06-06T11:04:10.000Z</time>
      </trkpt>
      <trkpt lat="44.15879" lon="6.81511">
        <ele>2103.8000488281</ele>
        <time>2020-06-06T11:04:31.000Z</time>
      </trkpt>
      <trkpt lat="44.15879" lon="6.81511">
        <ele>2103.6000976562</ele>
        <time>2020-06-06T11:04:43.000Z</time>
      </trkpt>
      <trkpt lat="44.15878" lon="6.81511">
        <ele>2103.3999023438</ele>
        <time>2020-06-06T11:04:54.000Z</time>
      </trkpt>
      <trkpt lat="44.15879" lon="6.81511">
        <ele>2103.8000488281</ele>
        <time>2020-06-06T11:05:01.000Z</time>
      </trkpt>
      <trkpt lat="44.15879" lon="6.8151">
        <ele>2104</ele>
        <time>2020-06-06T11:05:11.000Z</time>
      </trkpt>
      <trkpt lat="44.15879" lon="6.8151">
        <ele>2104.1999511719</ele>
        <time>2020-06-06T11:05:26.000Z</time>
      </trkpt>
      <trkpt lat="44.15879" lon="6.81511">
        <ele>2104</ele>
        <time>2020-06-06T11:05:34.000Z</time>
      </trkpt>
      <trkpt lat="44.15879" lon="6.81512">
        <ele>2104.3999023438</ele>
        <time>2020-06-06T11:05:40.000Z</time>
      </trkpt>
      <trkpt lat="44.15879" lon="6.81511">
        <ele>2104</ele>
        <time>2020-06-06T11:05:53.000Z</time>
      </trkpt>
      <trkpt lat="44.15881" lon="6.8151">
        <ele>2104</ele>
        <time>2020-06-06T11:06:07.000Z</time>
      </trkpt>
      <trkpt lat="44.15882" lon="6.8151">
        <ele>2104.3999023438</ele>
        <time>2020-06-06T11:06:14.000Z</time>
      </trkpt>
      <trkpt lat="44.15879" lon="6.8151">
        <ele>2103.6000976562</ele>
        <time>2020-06-06T11:06:22.000Z</time>
      </trkpt>
      <trkpt lat="44.15879" lon="6.8151">
        <ele>2103.6000976562</ele>
        <time>2020-06-06T11:06:30.000Z</time>
      </trkpt>
      <trkpt lat="44.15878" lon="6.8151">
        <ele>2103.6000976562</ele>
        <time>2020-06-06T11:06:36.000Z</time>
      </trkpt>
      <trkpt lat="44.15877" lon="6.81509">
        <ele>2104.1999511719</ele>
        <time>2020-06-06T11:06:44.000Z</time>
      </trkpt>
      <trkpt lat="44.15877" lon="6.81509">
        <ele>2103.6000976562</ele>
        <time>2020-06-06T11:06:53.000Z</time>
      </trkpt>
      <trkpt lat="44.15877" lon="6.81509">
        <ele>2104.8000488281</ele>
        <time>2020-06-06T11:07:00.000Z</time>
      </trkpt>
      <trkpt lat="44.15876" lon="6.81509">
        <ele>2104.3999023438</ele>
        <time>2020-06-06T11:07:07.000Z</time>
      </trkpt>
      <trkpt lat="44.15876" lon="6.81509">
        <ele>2104.1999511719</ele>
        <time>2020-06-06T11:07:14.000Z</time>
      </trkpt>
      <trkpt lat="44.15876" lon="6.8151">
        <ele>2104</ele>
        <time>2020-06-06T11:07:22.000Z</time>
      </trkpt>
      <trkpt lat="44.15876" lon="6.81509">
        <ele>2103.8000488281</ele>
        <time>2020-06-06T11:07:31.000Z</time>
      </trkpt>
      <trkpt lat="44.15875" lon="6.81508">
        <ele>2103.8000488281</ele>
        <time>2020-06-06T11:07:38.000Z</time>
      </trkpt>
      <trkpt lat="44.15876" lon="6.81508">
        <ele>2104.1999511719</ele>
        <time>2020-06-06T11:07:50.000Z</time>
      </trkpt>
      <trkpt lat="44.15877" lon="6.8151">
        <ele>2104.1999511719</ele>
        <time>2020-06-06T11:07:57.000Z</time>
      </trkpt>
      <trkpt lat="44.15878" lon="6.8151">
        <ele>2104</ele>
        <time>2020-06-06T11:08:03.000Z</time>
      </trkpt>
      <trkpt lat="44.15878" lon="6.8151">
        <ele>2104</ele>
        <time>2020-06-06T11:08:15.000Z</time>
      </trkpt>
      <trkpt lat="44.15878" lon="6.8151">
        <ele>2104</ele>
        <time>2020-06-06T11:08:23.000Z</time>
      </trkpt>
      <trkpt lat="44.15879" lon="6.8151">
        <ele>2103.6000976562</ele>
        <time>2020-06-06T11:08:45.000Z</time>
      </trkpt>
      <trkpt lat="44.15879" lon="6.8151">
        <ele>2103.1999511719</ele>
        <time>2020-06-06T11:08:51.000Z</time>
      </trkpt>
      <trkpt lat="44.15878" lon="6.81509">
        <ele>2103.6000976562</ele>
        <time>2020-06-06T11:09:03.000Z</time>
      </trkpt>
      <trkpt lat="44.15878" lon="6.81508">
        <ele>2103.6000976562</ele>
        <time>2020-06-06T11:09:11.000Z</time>
      </trkpt>
      <trkpt lat="44.15878" lon="6.81508">
        <ele>2103</ele>
        <time>2020-06-06T11:09:37.000Z</time>
      </trkpt>
      <trkpt lat="44.15878" lon="6.81509">
        <ele>2103</ele>
        <time>2020-06-06T11:09:57.000Z</time>
      </trkpt>
      <trkpt lat="44.15878" lon="6.81509">
        <ele>2103</ele>
        <time>2020-06-06T11:10:23.000Z</time>
      </trkpt>
      <trkpt lat="44.15879" lon="6.8151">
        <ele>2103</ele>
        <time>2020-06-06T11:10:53.000Z</time>
      </trkpt>
      <trkpt lat="44.15878" lon="6.8151">
        <ele>2103.1999511719</ele>
        <time>2020-06-06T11:11:09.000Z</time>
      </trkpt>
      <trkpt lat="44.15878" lon="6.8151">
        <ele>2103.3999023438</ele>
        <time>2020-06-06T11:11:36.000Z</time>
      </trkpt>
      <trkpt lat="44.15878" lon="6.8151">
        <ele>2103.1999511719</ele>
        <time>2020-06-06T11:11:50.000Z</time>
      </trkpt>
      <trkpt lat="44.15878" lon="6.81511">
        <ele>2103.8000488281</ele>
        <time>2020-06-06T11:12:02.000Z</time>
      </trkpt>
      <trkpt lat="44.15878" lon="6.81511">
        <ele>2104</ele>
        <time>2020-06-06T11:12:12.000Z</time>
      </trkpt>
      <trkpt lat="44.15878" lon="6.8151">
        <ele>2104.1999511719</ele>
        <time>2020-06-06T11:12:14.000Z</time>
      </trkpt>
      <trkpt lat="44.15882" lon="6.81507">
        <ele>2104.1999511719</ele>
        <time>2020-06-06T11:12:16.000Z</time>
      </trkpt>
      <trkpt lat="44.1588" lon="6.81509">
        <ele>2104.1999511719</ele>
        <time>2020-06-06T11:12:17.000Z</time>
      </trkpt>
      <trkpt lat="44.1588" lon="6.81508">
        <ele>2103.8000488281</ele>
        <time>2020-06-06T11:12:25.000Z</time>
      </trkpt>
      <trkpt lat="44.1588" lon="6.81509">
        <ele>2103.3999023438</ele>
        <time>2020-06-06T11:12:33.000Z</time>
      </trkpt>
      <trkpt lat="44.1588" lon="6.81508">
        <ele>2103.8000488281</ele>
        <time>2020-06-06T11:12:42.000Z</time>
      </trkpt>
      <trkpt lat="44.1588" lon="6.81508">
        <ele>2103.1999511719</ele>
        <time>2020-06-06T11:12:48.000Z</time>
      </trkpt>
      <trkpt lat="44.15879" lon="6.81508">
        <ele>2102.8000488281</ele>
        <time>2020-06-06T11:13:06.000Z</time>
      </trkpt>
      <trkpt lat="44.15879" lon="6.81508">
        <ele>2103</ele>
        <time>2020-06-06T11:13:29.000Z</time>
      </trkpt>
      <trkpt lat="44.15879" lon="6.81509">
        <ele>2103.6000976562</ele>
        <time>2020-06-06T11:13:40.000Z</time>
      </trkpt>
      <trkpt lat="44.15879" lon="6.8151">
        <ele>2104.1999511719</ele>
        <time>2020-06-06T11:13:49.000Z</time>
      </trkpt>
      <trkpt lat="44.15878" lon="6.8151">
        <ele>2104.1999511719</ele>
        <time>2020-06-06T11:13:50.000Z</time>
      </trkpt>
      <trkpt lat="44.15878" lon="6.8151">
        <ele>2104.8000488281</ele>
        <time>2020-06-06T11:13:57.000Z</time>
      </trkpt>
      <trkpt lat="44.15878" lon="6.8151">
        <ele>2105.1999511719</ele>
        <time>2020-06-06T11:14:00.000Z</time>
      </trkpt>
      <trkpt lat="44.15879" lon="6.81509">
        <ele>2105.3999023438</ele>
        <time>2020-06-06T11:14:01.000Z</time>
      </trkpt>
      <trkpt lat="44.15879" lon="6.81509">
        <ele>2105.3999023438</ele>
        <time>2020-06-06T11:14:02.000Z</time>
      </trkpt>
      <trkpt lat="44.15879" lon="6.81508">
        <ele>2104.8000488281</ele>
        <time>2020-06-06T11:14:10.000Z</time>
      </trkpt>
      <trkpt lat="44.15879" lon="6.81508">
        <ele>2104.1999511719</ele>
        <time>2020-06-06T11:14:14.000Z</time>
      </trkpt>
      <trkpt lat="44.15879" lon="6.81508">
        <ele>2104</ele>
        <time>2020-06-06T11:14:18.000Z</time>
      </trkpt>
      <trkpt lat="44.15879" lon="6.81509">
        <ele>2104.3999023438</ele>
        <time>2020-06-06T11:14:30.000Z</time>
      </trkpt>
      <trkpt lat="44.15879" lon="6.81509">
        <ele>2103.8000488281</ele>
        <time>2020-06-06T11:14:51.000Z</time>
      </trkpt>
      <trkpt lat="44.15878" lon="6.8151">
        <ele>2104.8000488281</ele>
        <time>2020-06-06T11:15:16.000Z</time>
      </trkpt>
      <trkpt lat="44.15878" lon="6.81509">
        <ele>2104</ele>
        <time>2020-06-06T11:15:28.000Z</time>
      </trkpt>
      <trkpt lat="44.15878" lon="6.8151">
        <ele>2103.8000488281</ele>
        <time>2020-06-06T11:15:47.000Z</time>
      </trkpt>
      <trkpt lat="44.15879" lon="6.8151">
        <ele>2104.6000976562</ele>
        <time>2020-06-06T11:15:59.000Z</time>
      </trkpt>
      <trkpt lat="44.15879" lon="6.8151">
        <ele>2104.8000488281</ele>
        <time>2020-06-06T11:16:26.000Z</time>
      </trkpt>
      <trkpt lat="44.15879" lon="6.8151">
        <ele>2105</ele>
        <time>2020-06-06T11:16:37.000Z</time>
      </trkpt>
      <trkpt lat="44.15879" lon="6.8151">
        <ele>2105</ele>
        <time>2020-06-06T11:16:55.000Z</time>
      </trkpt>
      <trkpt lat="44.15879" lon="6.8151">
        <ele>2104.3999023438</ele>
        <time>2020-06-06T11:17:08.000Z</time>
      </trkpt>
      <trkpt lat="44.15879" lon="6.8151">
        <ele>2104.6000976562</ele>
        <time>2020-06-06T11:17:21.000Z</time>
      </trkpt>
      <trkpt lat="44.15879" lon="6.8151">
        <ele>2104.6000976562</ele>
        <time>2020-06-06T11:17:37.000Z</time>
      </trkpt>
      <trkpt lat="44.15879" lon="6.8151">
        <ele>2104</ele>
        <time>2020-06-06T11:17:48.000Z</time>
      </trkpt>
      <trkpt lat="44.15879" lon="6.8151">
        <ele>2104.3999023438</ele>
        <time>2020-06-06T11:17:56.000Z</time>
      </trkpt>
      <trkpt lat="44.15878" lon="6.81509">
        <ele>2104.1999511719</ele>
        <time>2020-06-06T11:18:08.000Z</time>
      </trkpt>
      <trkpt lat="44.15878" lon="6.81509">
        <ele>2103.1999511719</ele>
        <time>2020-06-06T11:18:23.000Z</time>
      </trkpt>
      <trkpt lat="44.15878" lon="6.8151">
        <ele>2103.1999511719</ele>
        <time>2020-06-06T11:18:31.000Z</time>
      </trkpt>
      <trkpt lat="44.15879" lon="6.8151">
        <ele>2103.6000976562</ele>
        <time>2020-06-06T11:18:45.000Z</time>
      </trkpt>
      <trkpt lat="44.15879" lon="6.81511">
        <ele>2104.1999511719</ele>
        <time>2020-06-06T11:18:55.000Z</time>
      </trkpt>
      <trkpt lat="44.15879" lon="6.81511">
        <ele>2104.3999023438</ele>
        <time>2020-06-06T11:19:03.000Z</time>
      </trkpt>
      <trkpt lat="44.15879" lon="6.8151">
        <ele>2104</ele>
        <time>2020-06-06T11:19:24.000Z</time>
      </trkpt>
      <trkpt lat="44.15878" lon="6.8151">
        <ele>2104.1999511719</ele>
        <time>2020-06-06T11:19:37.000Z</time>
      </trkpt>
      <trkpt lat="44.15878" lon="6.8151">
        <ele>2104</ele>
        <time>2020-06-06T11:19:47.000Z</time>
      </trkpt>
      <trkpt lat="44.15878" lon="6.8151">
        <ele>2104.1999511719</ele>
        <time>2020-06-06T11:20:13.000Z</time>
      </trkpt>
      <trkpt lat="44.15879" lon="6.81509">
        <ele>2104.6000976562</ele>
        <time>2020-06-06T11:20:39.000Z</time>
      </trkpt>
      <trkpt lat="44.15879" lon="6.81509">
        <ele>2103.3999023438</ele>
        <time>2020-06-06T11:21:05.000Z</time>
      </trkpt>
      <trkpt lat="44.15878" lon="6.8151">
        <ele>2103.8000488281</ele>
        <time>2020-06-06T11:21:15.000Z</time>
      </trkpt>
      <trkpt lat="44.15878" lon="6.8151">
        <ele>2104.1999511719</ele>
        <time>2020-06-06T11:21:39.000Z</time>
      </trkpt>
      <trkpt lat="44.15879" lon="6.8151">
        <ele>2104.1999511719</ele>
        <time>2020-06-06T11:22:12.000Z</time>
      </trkpt>
      <trkpt lat="44.15879" lon="6.8151">
        <ele>2104.6000976562</ele>
        <time>2020-06-06T11:22:24.000Z</time>
      </trkpt>
      <trkpt lat="44.15879" lon="6.81511">
        <ele>2104</ele>
        <time>2020-06-06T11:22:30.000Z</time>
      </trkpt>
      <trkpt lat="44.15879" lon="6.81512">
        <ele>2104.6000976562</ele>
        <time>2020-06-06T11:22:35.000Z</time>
      </trkpt>
      <trkpt lat="44.15879" lon="6.81511">
        <ele>2104.6000976562</ele>
        <time>2020-06-06T11:22:40.000Z</time>
      </trkpt>
      <trkpt lat="44.15879" lon="6.81511">
        <ele>2104.8000488281</ele>
        <time>2020-06-06T11:22:55.000Z</time>
      </trkpt>
      <trkpt lat="44.15879" lon="6.8151">
        <ele>2104.6000976562</ele>
        <time>2020-06-06T11:23:04.000Z</time>
      </trkpt>
      <trkpt lat="44.15879" lon="6.8151">
        <ele>2105.1999511719</ele>
        <time>2020-06-06T11:23:10.000Z</time>
      </trkpt>
      <trkpt lat="44.15878" lon="6.8151">
        <ele>2105.1999511719</ele>
        <time>2020-06-06T11:23:14.000Z</time>
      </trkpt>
      <trkpt lat="44.15878" lon="6.8151">
        <ele>2105.1999511719</ele>
        <time>2020-06-06T11:23:30.000Z</time>
      </trkpt>
      <trkpt lat="44.15878" lon="6.81509">
        <ele>2105.3999023438</ele>
        <time>2020-06-06T11:23:38.000Z</time>
      </trkpt>
      <trkpt lat="44.15878" lon="6.81509">
        <ele>2104.1999511719</ele>
        <time>2020-06-06T11:23:47.000Z</time>
      </trkpt>
      <trkpt lat="44.15878" lon="6.81509">
        <ele>2104</ele>
        <time>2020-06-06T11:23:48.000Z</time>
      </trkpt>
      <trkpt lat="44.15878" lon="6.81509">
        <ele>2103.3999023438</ele>
        <time>2020-06-06T11:23:58.000Z</time>
      </trkpt>
      <trkpt lat="44.15878" lon="6.81509">
        <ele>2104.1999511719</ele>
        <time>2020-06-06T11:24:05.000Z</time>
      </trkpt>
      <trkpt lat="44.15878" lon="6.81509">
        <ele>2104.6000976562</ele>
        <time>2020-06-06T11:24:11.000Z</time>
      </trkpt>
      <trkpt lat="44.15878" lon="6.81509">
        <ele>2104.1999511719</ele>
        <time>2020-06-06T11:24:16.000Z</time>
      </trkpt>
      <trkpt lat="44.15878" lon="6.81508">
        <ele>2104.8000488281</ele>
        <time>2020-06-06T11:24:28.000Z</time>
      </trkpt>
      <trkpt lat="44.15877" lon="6.81508">
        <ele>2104.6000976562</ele>
        <time>2020-06-06T11:24:35.000Z</time>
      </trkpt>
      <trkpt lat="44.15877" lon="6.81508">
        <ele>2104.3999023438</ele>
        <time>2020-06-06T11:24:46.000Z</time>
      </trkpt>
      <trkpt lat="44.15877" lon="6.81509">
        <ele>2104.8000488281</ele>
        <time>2020-06-06T11:24:55.000Z</time>
      </trkpt>
      <trkpt lat="44.15878" lon="6.81509">
        <ele>2105.1999511719</ele>
        <time>2020-06-06T11:25:05.000Z</time>
      </trkpt>
      <trkpt lat="44.15878" lon="6.81509">
        <ele>2105.3999023438</ele>
        <time>2020-06-06T11:25:06.000Z</time>
      </trkpt>
      <trkpt lat="44.15878" lon="6.8151">
        <ele>2105.3999023438</ele>
        <time>2020-06-06T11:25:18.000Z</time>
      </trkpt>
      <trkpt lat="44.15878" lon="6.81509">
        <ele>2104.8000488281</ele>
        <time>2020-06-06T11:25:25.000Z</time>
      </trkpt>
      <trkpt lat="44.15878" lon="6.81509">
        <ele>2105</ele>
        <time>2020-06-06T11:25:33.000Z</time>
      </trkpt>
      <trkpt lat="44.15878" lon="6.81509">
        <ele>2104.3999023438</ele>
        <time>2020-06-06T11:25:37.000Z</time>
      </trkpt>
      <trkpt lat="44.15878" lon="6.81509">
        <ele>2104.6000976562</ele>
        <time>2020-06-06T11:25:43.000Z</time>
      </trkpt>
      <trkpt lat="44.15878" lon="6.8151">
        <ele>2105</ele>
        <time>2020-06-06T11:25:47.000Z</time>
      </trkpt>
      <trkpt lat="44.15877" lon="6.81509">
        <ele>2104.8000488281</ele>
        <time>2020-06-06T11:25:58.000Z</time>
      </trkpt>
      <trkpt lat="44.15877" lon="6.81509">
        <ele>2104.3999023438</ele>
        <time>2020-06-06T11:26:07.000Z</time>
      </trkpt>
      <trkpt lat="44.15877" lon="6.81509">
        <ele>2104.6000976562</ele>
        <time>2020-06-06T11:26:14.000Z</time>
      </trkpt>
      <trkpt lat="44.15877" lon="6.81509">
        <ele>2105.1999511719</ele>
        <time>2020-06-06T11:26:23.000Z</time>
      </trkpt>
      <trkpt lat="44.15877" lon="6.81509">
        <ele>2105.1999511719</ele>
        <time>2020-06-06T11:26:31.000Z</time>
      </trkpt>
      <trkpt lat="44.15877" lon="6.8151">
        <ele>2104.8000488281</ele>
        <time>2020-06-06T11:26:38.000Z</time>
      </trkpt>
      <trkpt lat="44.15877" lon="6.81509">
        <ele>2105.3999023438</ele>
        <time>2020-06-06T11:26:42.000Z</time>
      </trkpt>
      <trkpt lat="44.15877" lon="6.8151">
        <ele>2105.3999023438</ele>
        <time>2020-06-06T11:26:44.000Z</time>
      </trkpt>
      <trkpt lat="44.15877" lon="6.81509">
        <ele>2105.1999511719</ele>
        <time>2020-06-06T11:26:53.000Z</time>
      </trkpt>
      <trkpt lat="44.15875" lon="6.81509">
        <ele>2105.6000976562</ele>
        <time>2020-06-06T11:27:02.000Z</time>
      </trkpt>
      <trkpt lat="44.15875" lon="6.81508">
        <ele>2106</ele>
        <time>2020-06-06T11:27:09.000Z</time>
      </trkpt>
      <trkpt lat="44.15875" lon="6.81509">
        <ele>2105.8000488281</ele>
        <time>2020-06-06T11:27:16.000Z</time>
      </trkpt>
      <trkpt lat="44.15875" lon="6.81509">
        <ele>2105.6000976562</ele>
        <time>2020-06-06T11:27:21.000Z</time>
      </trkpt>
      <trkpt lat="44.15876" lon="6.81509">
        <ele>2106</ele>
        <time>2020-06-06T11:27:31.000Z</time>
      </trkpt>
      <trkpt lat="44.15876" lon="6.81509">
        <ele>2105.1999511719</ele>
        <time>2020-06-06T11:27:38.000Z</time>
      </trkpt>
      <trkpt lat="44.15876" lon="6.81509">
        <ele>2105.6000976562</ele>
        <time>2020-06-06T11:27:53.000Z</time>
      </trkpt>
      <trkpt lat="44.15876" lon="6.81508">
        <ele>2105.6000976562</ele>
        <time>2020-06-06T11:28:10.000Z</time>
      </trkpt>
      <trkpt lat="44.15878" lon="6.81508">
        <ele>2105.1999511719</ele>
        <time>2020-06-06T11:28:17.000Z</time>
      </trkpt>
      <trkpt lat="44.1588" lon="6.81507">
        <ele>2105.3999023438</ele>
        <time>2020-06-06T11:28:24.000Z</time>
      </trkpt>
      <trkpt lat="44.15878" lon="6.81508">
        <ele>2105.6000976562</ele>
        <time>2020-06-06T11:28:30.000Z</time>
      </trkpt>
      <trkpt lat="44.15875" lon="6.81509">
        <ele>2105.6000976562</ele>
        <time>2020-06-06T11:28:38.000Z</time>
      </trkpt>
      <trkpt lat="44.15874" lon="6.81509">
        <ele>2106.1999511719</ele>
        <time>2020-06-06T11:28:48.000Z</time>
      </trkpt>
      <trkpt lat="44.15874" lon="6.81509">
        <ele>2105.8000488281</ele>
        <time>2020-06-06T11:29:01.000Z</time>
      </trkpt>
      <trkpt lat="44.15872" lon="6.81508">
        <ele>2105.8000488281</ele>
        <time>2020-06-06T11:29:10.000Z</time>
      </trkpt>
      <trkpt lat="44.15871" lon="6.81508">
        <ele>2106</ele>
        <time>2020-06-06T11:29:19.000Z</time>
      </trkpt>
      <trkpt lat="44.15867" lon="6.81505">
        <ele>2105.8000488281</ele>
        <time>2020-06-06T11:29:25.000Z</time>
      </trkpt>
      <trkpt lat="44.15859" lon="6.81503">
        <ele>2104.8000488281</ele>
        <time>2020-06-06T11:29:29.000Z</time>
      </trkpt>
      <trkpt lat="44.1586" lon="6.81504">
        <ele>2104.1999511719</ele>
        <time>2020-06-06T11:29:31.000Z</time>
      </trkpt>
      <trkpt lat="44.15859" lon="6.81503">
        <ele>2103.8000488281</ele>
        <time>2020-06-06T11:29:32.000Z</time>
      </trkpt>
      <trkpt lat="44.15853" lon="6.815">
        <ele>2103</ele>
        <time>2020-06-06T11:29:35.000Z</time>
      </trkpt>
      <trkpt lat="44.15849" lon="6.81498">
        <ele>2102.8000488281</ele>
        <time>2020-06-06T11:29:36.000Z</time>
      </trkpt>
      <trkpt lat="44.15846" lon="6.81496">
        <ele>2102.6000976562</ele>
        <time>2020-06-06T11:29:37.000Z</time>
      </trkpt>
      <trkpt lat="44.15839" lon="6.81493">
        <ele>2101.3999023438</ele>
        <time>2020-06-06T11:29:39.000Z</time>
      </trkpt>
      <trkpt lat="44.15834" lon="6.81492">
        <ele>2100.6000976562</ele>
        <time>2020-06-06T11:29:40.000Z</time>
      </trkpt>
      <trkpt lat="44.15831" lon="6.81491">
        <ele>2099.6000976562</ele>
        <time>2020-06-06T11:29:41.000Z</time>
      </trkpt>
      <trkpt lat="44.1582" lon="6.81485">
        <ele>2098.6000976562</ele>
        <time>2020-06-06T11:29:44.000Z</time>
      </trkpt>
      <trkpt lat="44.15813" lon="6.8148">
        <ele>2097.6000976562</ele>
        <time>2020-06-06T11:29:46.000Z</time>
      </trkpt>
      <trkpt lat="44.15807" lon="6.81475">
        <ele>2096.3999023438</ele>
        <time>2020-06-06T11:29:48.000Z</time>
      </trkpt>
      <trkpt lat="44.15804" lon="6.81472">
        <ele>2095.3999023438</ele>
        <time>2020-06-06T11:29:49.000Z</time>
      </trkpt>
      <trkpt lat="44.15792" lon="6.81464">
        <ele>2093.1999511719</ele>
        <time>2020-06-06T11:29:52.000Z</time>
      </trkpt>
      <trkpt lat="44.15788" lon="6.81461">
        <ele>2092.6000976562</ele>
        <time>2020-06-06T11:29:53.000Z</time>
      </trkpt>
      <trkpt lat="44.15784" lon="6.81457">
        <ele>2091.6000976562</ele>
        <time>2020-06-06T11:29:54.000Z</time>
      </trkpt>
      <trkpt lat="44.15782" lon="6.81453">
        <ele>2090.6000976562</ele>
        <time>2020-06-06T11:29:55.000Z</time>
      </trkpt>
      <trkpt lat="44.1578" lon="6.81448">
        <ele>2089.3999023438</ele>
        <time>2020-06-06T11:29:56.000Z</time>
      </trkpt>
      <trkpt lat="44.15778" lon="6.81444">
        <ele>2088.8000488281</ele>
        <time>2020-06-06T11:29:57.000Z</time>
      </trkpt>
      <trkpt lat="44.15775" lon="6.8144">
        <ele>2088.1999511719</ele>
        <time>2020-06-06T11:29:58.000Z</time>
      </trkpt>
      <trkpt lat="44.15773" lon="6.81435">
        <ele>2086.8000488281</ele>
        <time>2020-06-06T11:30:00.000Z</time>
      </trkpt>
      <trkpt lat="44.15774" lon="6.81429">
        <ele>2085.3999023438</ele>
        <time>2020-06-06T11:30:02.000Z</time>
      </trkpt>
      <trkpt lat="44.15775" lon="6.81425">
        <ele>2084.6000976562</ele>
        <time>2020-06-06T11:30:04.000Z</time>
      </trkpt>
      <trkpt lat="44.15775" lon="6.81424">
        <ele>2084.3999023438</ele>
        <time>2020-06-06T11:30:05.000Z</time>
      </trkpt>
      <trkpt lat="44.15782" lon="6.81416">
        <ele>2083</ele>
        <time>2020-06-06T11:30:09.000Z</time>
      </trkpt>
      <trkpt lat="44.15786" lon="6.81413">
        <ele>2082.1999511719</ele>
        <time>2020-06-06T11:30:12.000Z</time>
      </trkpt>
      <trkpt lat="44.15788" lon="6.81413">
        <ele>2081.8000488281</ele>
        <time>2020-06-06T11:30:13.000Z</time>
      </trkpt>
      <trkpt lat="44.1579" lon="6.81416">
        <ele>2080.6000976562</ele>
        <time>2020-06-06T11:30:15.000Z</time>
      </trkpt>
      <trkpt lat="44.15792" lon="6.81416">
        <ele>2079.3999023438</ele>
        <time>2020-06-06T11:30:17.000Z</time>
      </trkpt>
      <trkpt lat="44.15793" lon="6.81415">
        <ele>2079</ele>
        <time>2020-06-06T11:30:18.000Z</time>
      </trkpt>
      <trkpt lat="44.15794" lon="6.81413">
        <ele>2078.3999023438</ele>
        <time>2020-06-06T11:30:19.000Z</time>
      </trkpt>
      <trkpt lat="44.15798" lon="6.81408">
        <ele>2077.1999511719</ele>
        <time>2020-06-06T11:30:22.000Z</time>
      </trkpt>
      <trkpt lat="44.15799" lon="6.81407">
        <ele>2076.6000976562</ele>
        <time>2020-06-06T11:30:23.000Z</time>
      </trkpt>
      <trkpt lat="44.158" lon="6.81404">
        <ele>2076.1999511719</ele>
        <time>2020-06-06T11:30:24.000Z</time>
      </trkpt>
      <trkpt lat="44.15803" lon="6.81399">
        <ele>2074.3999023438</ele>
        <time>2020-06-06T11:30:26.000Z</time>
      </trkpt>
      <trkpt lat="44.15805" lon="6.81396">
        <ele>2073.6000976562</ele>
        <time>2020-06-06T11:30:27.000Z</time>
      </trkpt>
      <trkpt lat="44.15807" lon="6.81393">
        <ele>2072.6000976562</ele>
        <time>2020-06-06T11:30:28.000Z</time>
      </trkpt>
      <trkpt lat="44.1581" lon="6.81386">
        <ele>2071</ele>
        <time>2020-06-06T11:30:30.000Z</time>
      </trkpt>
      <trkpt lat="44.1581" lon="6.81378">
        <ele>2069.1999511719</ele>
        <time>2020-06-06T11:30:32.000Z</time>
      </trkpt>
      <trkpt lat="44.15809" lon="6.81373">
        <ele>2068.3999023438</ele>
        <time>2020-06-06T11:30:33.000Z</time>
      </trkpt>
      <trkpt lat="44.15808" lon="6.81369">
        <ele>2067.3999023438</ele>
        <time>2020-06-06T11:30:34.000Z</time>
      </trkpt>
      <trkpt lat="44.15808" lon="6.81365">
        <ele>2066.3999023438</ele>
        <time>2020-06-06T11:30:35.000Z</time>
      </trkpt>
      <trkpt lat="44.15805" lon="6.81356">
        <ele>2064.3999023438</ele>
        <time>2020-06-06T11:30:37.000Z</time>
      </trkpt>
      <trkpt lat="44.15803" lon="6.81354">
        <ele>2063.6000976562</ele>
        <time>2020-06-06T11:30:38.000Z</time>
      </trkpt>
      <trkpt lat="44.15801" lon="6.81351">
        <ele>2062.8000488281</ele>
        <time>2020-06-06T11:30:39.000Z</time>
      </trkpt>
      <trkpt lat="44.158" lon="6.8135">
        <ele>2062.6000976562</ele>
        <time>2020-06-06T11:30:40.000Z</time>
      </trkpt>
      <trkpt lat="44.15793" lon="6.81349">
        <ele>2062</ele>
        <time>2020-06-06T11:30:42.000Z</time>
      </trkpt>
      <trkpt lat="44.15789" lon="6.81347">
        <ele>2061.6000976562</ele>
        <time>2020-06-06T11:30:43.000Z</time>
      </trkpt>
      <trkpt lat="44.15786" lon="6.81344">
        <ele>2060.6000976562</ele>
        <time>2020-06-06T11:30:44.000Z</time>
      </trkpt>
      <trkpt lat="44.15782" lon="6.81341">
        <ele>2059.8000488281</ele>
        <time>2020-06-06T11:30:45.000Z</time>
      </trkpt>
      <trkpt lat="44.15778" lon="6.81338">
        <ele>2059</ele>
        <time>2020-06-06T11:30:46.000Z</time>
      </trkpt>
      <trkpt lat="44.15774" lon="6.81334">
        <ele>2058.6000976562</ele>
        <time>2020-06-06T11:30:47.000Z</time>
      </trkpt>
      <trkpt lat="44.15766" lon="6.81326">
        <ele>2057.3999023438</ele>
        <time>2020-06-06T11:30:49.000Z</time>
      </trkpt>
      <trkpt lat="44.15764" lon="6.81324">
        <ele>2056.6000976562</ele>
        <time>2020-06-06T11:30:50.000Z</time>
      </trkpt>
      <trkpt lat="44.15762" lon="6.81322">
        <ele>2056.1999511719</ele>
        <time>2020-06-06T11:30:51.000Z</time>
      </trkpt>
      <trkpt lat="44.15757" lon="6.81315">
        <ele>2056.1999511719</ele>
        <time>2020-06-06T11:30:55.000Z</time>
      </trkpt>
      <trkpt lat="44.15752" lon="6.81309">
        <ele>2057.6000976562</ele>
        <time>2020-06-06T11:30:59.000Z</time>
      </trkpt>
      <trkpt lat="44.15751" lon="6.81305">
        <ele>2057.6000976562</ele>
        <time>2020-06-06T11:31:01.000Z</time>
      </trkpt>
      <trkpt lat="44.15744" lon="6.81293">
        <ele>2057.1999511719</ele>
        <time>2020-06-06T11:31:07.000Z</time>
      </trkpt>
      <trkpt lat="44.1574" lon="6.81292">
        <ele>2056.3999023438</ele>
        <time>2020-06-06T11:31:09.000Z</time>
      </trkpt>
      <trkpt lat="44.15738" lon="6.81291">
        <ele>2055.3999023438</ele>
        <time>2020-06-06T11:31:10.000Z</time>
      </trkpt>
      <trkpt lat="44.15732" lon="6.81287">
        <ele>2054</ele>
        <time>2020-06-06T11:31:12.000Z</time>
      </trkpt>
      <trkpt lat="44.15731" lon="6.81286">
        <ele>2052.6000976562</ele>
        <time>2020-06-06T11:31:13.000Z</time>
      </trkpt>
      <trkpt lat="44.15731" lon="6.81284">
        <ele>2051.6000976562</ele>
        <time>2020-06-06T11:31:15.000Z</time>
      </trkpt>
      <trkpt lat="44.1573" lon="6.81283">
        <ele>2051.1999511719</ele>
        <time>2020-06-06T11:31:16.000Z</time>
      </trkpt>
      <trkpt lat="44.15727" lon="6.81271">
        <ele>2050.3999023438</ele>
        <time>2020-06-06T11:31:20.000Z</time>
      </trkpt>
      <trkpt lat="44.15726" lon="6.81269">
        <ele>2049.1999511719</ele>
        <time>2020-06-06T11:31:21.000Z</time>
      </trkpt>
      <trkpt lat="44.15723" lon="6.81265">
        <ele>2048</ele>
        <time>2020-06-06T11:31:23.000Z</time>
      </trkpt>
      <trkpt lat="44.15722" lon="6.81264">
        <ele>2047.1999511719</ele>
        <time>2020-06-06T11:31:24.000Z</time>
      </trkpt>
      <trkpt lat="44.1572" lon="6.81262">
        <ele>2046.5999755859</ele>
        <time>2020-06-06T11:31:25.000Z</time>
      </trkpt>
      <trkpt lat="44.15716" lon="6.81257">
        <ele>2045.4000244141</ele>
        <time>2020-06-06T11:31:27.000Z</time>
      </trkpt>
      <trkpt lat="44.15715" lon="6.81257">
        <ele>2044.4000244141</ele>
        <time>2020-06-06T11:31:29.000Z</time>
      </trkpt>
      <trkpt lat="44.15711" lon="6.8125">
        <ele>2043.5999755859</ele>
        <time>2020-06-06T11:31:33.000Z</time>
      </trkpt>
      <trkpt lat="44.1571" lon="6.81248">
        <ele>2044</ele>
        <time>2020-06-06T11:31:34.000Z</time>
      </trkpt>
      <trkpt lat="44.15701" lon="6.81236">
        <ele>2045.1999511719</ele>
        <time>2020-06-06T11:31:41.000Z</time>
      </trkpt>
      <trkpt lat="44.15699" lon="6.81233">
        <ele>2045.4000244141</ele>
        <time>2020-06-06T11:31:42.000Z</time>
      </trkpt>
      <trkpt lat="44.15696" lon="6.81229">
        <ele>2045.4000244141</ele>
        <time>2020-06-06T11:31:43.000Z</time>
      </trkpt>
      <trkpt lat="44.15692" lon="6.81225">
        <ele>2045.1999511719</ele>
        <time>2020-06-06T11:31:44.000Z</time>
      </trkpt>
      <trkpt lat="44.15688" lon="6.81221">
        <ele>2044.4000244141</ele>
        <time>2020-06-06T11:31:45.000Z</time>
      </trkpt>
      <trkpt lat="44.15685" lon="6.81216">
        <ele>2043</ele>
        <time>2020-06-06T11:31:47.000Z</time>
      </trkpt>
      <trkpt lat="44.15684" lon="6.81214">
        <ele>2042.8000488281</ele>
        <time>2020-06-06T11:31:48.000Z</time>
      </trkpt>
      <trkpt lat="44.15671" lon="6.81196">
        <ele>2043.8000488281</ele>
        <time>2020-06-06T11:31:55.000Z</time>
      </trkpt>
      <trkpt lat="44.15666" lon="6.81188">
        <ele>2043.8000488281</ele>
        <time>2020-06-06T11:31:58.000Z</time>
      </trkpt>
      <trkpt lat="44.1566" lon="6.81177">
        <ele>2043.4000244141</ele>
        <time>2020-06-06T11:32:03.000Z</time>
      </trkpt>
      <trkpt lat="44.15654" lon="6.81169">
        <ele>2041.4000244141</ele>
        <time>2020-06-06T11:32:06.000Z</time>
      </trkpt>
      <trkpt lat="44.15649" lon="6.81164">
        <ele>2039.5999755859</ele>
        <time>2020-06-06T11:32:08.000Z</time>
      </trkpt>
      <trkpt lat="44.15647" lon="6.81162">
        <ele>2039</ele>
        <time>2020-06-06T11:32:09.000Z</time>
      </trkpt>
      <trkpt lat="44.15646" lon="6.8116">
        <ele>2038.5999755859</ele>
        <time>2020-06-06T11:32:10.000Z</time>
      </trkpt>
      <trkpt lat="44.15642" lon="6.81153">
        <ele>2037.1999511719</ele>
        <time>2020-06-06T11:32:12.000Z</time>
      </trkpt>
      <trkpt lat="44.1564" lon="6.81149">
        <ele>2036.5999755859</ele>
        <time>2020-06-06T11:32:13.000Z</time>
      </trkpt>
      <trkpt lat="44.15637" lon="6.81143">
        <ele>2036</ele>
        <time>2020-06-06T11:32:14.000Z</time>
      </trkpt>
      <trkpt lat="44.15632" lon="6.81133">
        <ele>2034.5999755859</ele>
        <time>2020-06-06T11:32:16.000Z</time>
      </trkpt>
      <trkpt lat="44.15627" lon="6.81125">
        <ele>2032.8000488281</ele>
        <time>2020-06-06T11:32:18.000Z</time>
      </trkpt>
      <trkpt lat="44.15625" lon="6.81122">
        <ele>2031.4000244141</ele>
        <time>2020-06-06T11:32:19.000Z</time>
      </trkpt>
      <trkpt lat="44.15621" lon="6.81117">
        <ele>2030.1999511719</ele>
        <time>2020-06-06T11:32:21.000Z</time>
      </trkpt>
      <trkpt lat="44.15618" lon="6.81112">
        <ele>2029.1999511719</ele>
        <time>2020-06-06T11:32:23.000Z</time>
      </trkpt>
      <trkpt lat="44.15612" lon="6.81099">
        <ele>2027.4000244141</ele>
        <time>2020-06-06T11:32:26.000Z</time>
      </trkpt>
      <trkpt lat="44.1561" lon="6.81093">
        <ele>2025.8000488281</ele>
        <time>2020-06-06T11:32:27.000Z</time>
      </trkpt>
      <trkpt lat="44.15608" lon="6.81086">
        <ele>2024.1999511719</ele>
        <time>2020-06-06T11:32:28.000Z</time>
      </trkpt>
      <trkpt lat="44.15606" lon="6.81081">
        <ele>2023</ele>
        <time>2020-06-06T11:32:29.000Z</time>
      </trkpt>
      <trkpt lat="44.15605" lon="6.81077">
        <ele>2020.4000244141</ele>
        <time>2020-06-06T11:32:31.000Z</time>
      </trkpt>
      <trkpt lat="44.15605" lon="6.81076">
        <ele>2019.1999511719</ele>
        <time>2020-06-06T11:32:32.000Z</time>
      </trkpt>
      <trkpt lat="44.15604" lon="6.81071">
        <ele>2019.4000244141</ele>
        <time>2020-06-06T11:32:36.000Z</time>
      </trkpt>
      <trkpt lat="44.15603" lon="6.81067">
        <ele>2020.4000244141</ele>
        <time>2020-06-06T11:32:38.000Z</time>
      </trkpt>
      <trkpt lat="44.15597" lon="6.81047">
        <ele>2020.5999755859</ele>
        <time>2020-06-06T11:32:44.000Z</time>
      </trkpt>
      <trkpt lat="44.15592" lon="6.81028">
        <ele>2020.1999511719</ele>
        <time>2020-06-06T11:32:48.000Z</time>
      </trkpt>
      <trkpt lat="44.1559" lon="6.81022">
        <ele>2020</ele>
        <time>2020-06-06T11:32:49.000Z</time>
      </trkpt>
      <trkpt lat="44.15589" lon="6.81015">
        <ele>2019.8000488281</ele>
        <time>2020-06-06T11:32:50.000Z</time>
      </trkpt>
      <trkpt lat="44.15587" lon="6.81007">
        <ele>2019</ele>
        <time>2020-06-06T11:32:52.000Z</time>
      </trkpt>
      <trkpt lat="44.15586" lon="6.81003">
        <ele>2020.4000244141</ele>
        <time>2020-06-06T11:32:56.000Z</time>
      </trkpt>
      <trkpt lat="44.15586" lon="6.81001">
        <ele>2021</ele>
        <time>2020-06-06T11:32:57.000Z</time>
      </trkpt>
      <trkpt lat="44.15584" lon="6.80989">
        <ele>2020.5999755859</ele>
        <time>2020-06-06T11:33:01.000Z</time>
      </trkpt>
      <trkpt lat="44.15583" lon="6.8097">
        <ele>2019.4000244141</ele>
        <time>2020-06-06T11:33:05.000Z</time>
      </trkpt>
      <trkpt lat="44.15583" lon="6.80964">
        <ele>2018.8000488281</ele>
        <time>2020-06-06T11:33:06.000Z</time>
      </trkpt>
      <trkpt lat="44.15582" lon="6.80953">
        <ele>2017.5999755859</ele>
        <time>2020-06-06T11:33:08.000Z</time>
      </trkpt>
      <trkpt lat="44.15581" lon="6.80939">
        <ele>2015.5999755859</ele>
        <time>2020-06-06T11:33:10.000Z</time>
      </trkpt>
      <trkpt lat="44.1558" lon="6.80932">
        <ele>2014.4000244141</ele>
        <time>2020-06-06T11:33:11.000Z</time>
      </trkpt>
      <trkpt lat="44.15579" lon="6.80925">
        <ele>2013</ele>
        <time>2020-06-06T11:33:12.000Z</time>
      </trkpt>
      <trkpt lat="44.15578" lon="6.80919">
        <ele>2011</ele>
        <time>2020-06-06T11:33:13.000Z</time>
      </trkpt>
      <trkpt lat="44.15576" lon="6.80914">
        <ele>2009.4000244141</ele>
        <time>2020-06-06T11:33:14.000Z</time>
      </trkpt>
      <trkpt lat="44.15573" lon="6.80909">
        <ele>2007.8000488281</ele>
        <time>2020-06-06T11:33:15.000Z</time>
      </trkpt>
      <trkpt lat="44.15568" lon="6.809">
        <ele>2006.1999511719</ele>
        <time>2020-06-06T11:33:17.000Z</time>
      </trkpt>
      <trkpt lat="44.15566" lon="6.80895">
        <ele>2004.8000488281</ele>
        <time>2020-06-06T11:33:18.000Z</time>
      </trkpt>
      <trkpt lat="44.15563" lon="6.80888">
        <ele>2003.1999511719</ele>
        <time>2020-06-06T11:33:20.000Z</time>
      </trkpt>
      <trkpt lat="44.1556" lon="6.80876">
        <ele>2001.1999511719</ele>
        <time>2020-06-06T11:33:22.000Z</time>
      </trkpt>
      <trkpt lat="44.15555" lon="6.80861">
        <ele>2001.8000488281</ele>
        <time>2020-06-06T11:33:24.000Z</time>
      </trkpt>
      <trkpt lat="44.15551" lon="6.80853">
        <ele>1999.8000488281</ele>
        <time>2020-06-06T11:33:25.000Z</time>
      </trkpt>
      <trkpt lat="44.15547" lon="6.80846">
        <ele>1998</ele>
        <time>2020-06-06T11:33:26.000Z</time>
      </trkpt>
      <trkpt lat="44.15544" lon="6.8084">
        <ele>1995.1999511719</ele>
        <time>2020-06-06T11:33:27.000Z</time>
      </trkpt>
      <trkpt lat="44.15542" lon="6.80835">
        <ele>1994.4000244141</ele>
        <time>2020-06-06T11:33:28.000Z</time>
      </trkpt>
      <trkpt lat="44.15541" lon="6.80826">
        <ele>1995.5999755859</ele>
        <time>2020-06-06T11:33:30.000Z</time>
      </trkpt>
      <trkpt lat="44.15537" lon="6.80812">
        <ele>1996.4000244141</ele>
        <time>2020-06-06T11:33:34.000Z</time>
      </trkpt>
      <trkpt lat="44.15537" lon="6.8081">
        <ele>1996.5999755859</ele>
        <time>2020-06-06T11:33:35.000Z</time>
      </trkpt>
      <trkpt lat="44.15536" lon="6.808">
        <ele>1996.1999511719</ele>
        <time>2020-06-06T11:33:40.000Z</time>
      </trkpt>
      <trkpt lat="44.15535" lon="6.80795">
        <ele>1995.4000244141</ele>
        <time>2020-06-06T11:33:42.000Z</time>
      </trkpt>
      <trkpt lat="44.15534" lon="6.80792">
        <ele>1994.8000488281</ele>
        <time>2020-06-06T11:33:43.000Z</time>
      </trkpt>
      <trkpt lat="44.15532" lon="6.80787">
        <ele>1993.1999511719</ele>
        <time>2020-06-06T11:33:45.000Z</time>
      </trkpt>
      <trkpt lat="44.15529" lon="6.80781">
        <ele>1991.4000244141</ele>
        <time>2020-06-06T11:33:47.000Z</time>
      </trkpt>
      <trkpt lat="44.15527" lon="6.80776">
        <ele>1990.5999755859</ele>
        <time>2020-06-06T11:33:48.000Z</time>
      </trkpt>
      <trkpt lat="44.15526" lon="6.80772">
        <ele>1989.1999511719</ele>
        <time>2020-06-06T11:33:49.000Z</time>
      </trkpt>
      <trkpt lat="44.15524" lon="6.80769">
        <ele>1987.8000488281</ele>
        <time>2020-06-06T11:33:50.000Z</time>
      </trkpt>
      <trkpt lat="44.15521" lon="6.80763">
        <ele>1986.1999511719</ele>
        <time>2020-06-06T11:33:51.000Z</time>
      </trkpt>
      <trkpt lat="44.15517" lon="6.80757">
        <ele>1984.4000244141</ele>
        <time>2020-06-06T11:33:52.000Z</time>
      </trkpt>
      <trkpt lat="44.15514" lon="6.8075">
        <ele>1983</ele>
        <time>2020-06-06T11:33:53.000Z</time>
      </trkpt>
      <trkpt lat="44.15511" lon="6.80744">
        <ele>1981.8000488281</ele>
        <time>2020-06-06T11:33:54.000Z</time>
      </trkpt>
      <trkpt lat="44.1551" lon="6.80742">
        <ele>1980.1999511719</ele>
        <time>2020-06-06T11:33:56.000Z</time>
      </trkpt>
      <trkpt lat="44.1551" lon="6.80741">
        <ele>1982</ele>
        <time>2020-06-06T11:33:58.000Z</time>
      </trkpt>
      <trkpt lat="44.15509" lon="6.80738">
        <ele>1982.8000488281</ele>
        <time>2020-06-06T11:34:03.000Z</time>
      </trkpt>
      <trkpt lat="44.15508" lon="6.80738">
        <ele>1983.1999511719</ele>
        <time>2020-06-06T11:34:04.000Z</time>
      </trkpt>
      <trkpt lat="44.15507" lon="6.80734">
        <ele>1984</ele>
        <time>2020-06-06T11:34:10.000Z</time>
      </trkpt>
      <trkpt lat="44.15507" lon="6.80734">
        <ele>1984.1999511719</ele>
        <time>2020-06-06T11:34:13.000Z</time>
      </trkpt>
      <trkpt lat="44.15508" lon="6.80735">
        <ele>1983.4000244141</ele>
        <time>2020-06-06T11:34:21.000Z</time>
      </trkpt>
      <trkpt lat="44.15507" lon="6.80729">
        <ele>1983</ele>
        <time>2020-06-06T11:34:26.000Z</time>
      </trkpt>
      <trkpt lat="44.15506" lon="6.80725">
        <ele>1982.8000488281</ele>
        <time>2020-06-06T11:34:27.000Z</time>
      </trkpt>
      <trkpt lat="44.15504" lon="6.80719">
        <ele>1982.4000244141</ele>
        <time>2020-06-06T11:34:28.000Z</time>
      </trkpt>
      <trkpt lat="44.15502" lon="6.80713">
        <ele>1981.8000488281</ele>
        <time>2020-06-06T11:34:29.000Z</time>
      </trkpt>
      <trkpt lat="44.15499" lon="6.80706">
        <ele>1981.1999511719</ele>
        <time>2020-06-06T11:34:30.000Z</time>
      </trkpt>
      <trkpt lat="44.15497" lon="6.80699">
        <ele>1980.1999511719</ele>
        <time>2020-06-06T11:34:31.000Z</time>
      </trkpt>
      <trkpt lat="44.15494" lon="6.80688">
        <ele>1978.1999511719</ele>
        <time>2020-06-06T11:34:33.000Z</time>
      </trkpt>
      <trkpt lat="44.15493" lon="6.80685">
        <ele>1977.8000488281</ele>
        <time>2020-06-06T11:34:34.000Z</time>
      </trkpt>
      <trkpt lat="44.15493" lon="6.80683">
        <ele>1977</ele>
        <time>2020-06-06T11:34:35.000Z</time>
      </trkpt>
      <trkpt lat="44.1549" lon="6.80679">
        <ele>1975.8000488281</ele>
        <time>2020-06-06T11:34:37.000Z</time>
      </trkpt>
      <trkpt lat="44.15487" lon="6.80676">
        <ele>1974.4000244141</ele>
        <time>2020-06-06T11:34:39.000Z</time>
      </trkpt>
      <trkpt lat="44.15482" lon="6.80669">
        <ele>1973.4000244141</ele>
        <time>2020-06-06T11:34:41.000Z</time>
      </trkpt>
      <trkpt lat="44.15479" lon="6.80663">
        <ele>1973</ele>
        <time>2020-06-06T11:34:42.000Z</time>
      </trkpt>
      <trkpt lat="44.15476" lon="6.80658">
        <ele>1972.5999755859</ele>
        <time>2020-06-06T11:34:43.000Z</time>
      </trkpt>
      <trkpt lat="44.15473" lon="6.80654">
        <ele>1971.5999755859</ele>
        <time>2020-06-06T11:34:44.000Z</time>
      </trkpt>
      <trkpt lat="44.1547" lon="6.80651">
        <ele>1970.4000244141</ele>
        <time>2020-06-06T11:34:45.000Z</time>
      </trkpt>
      <trkpt lat="44.15466" lon="6.80647">
        <ele>1969.4000244141</ele>
        <time>2020-06-06T11:34:47.000Z</time>
      </trkpt>
      <trkpt lat="44.15464" lon="6.80643">
        <ele>1969.1999511719</ele>
        <time>2020-06-06T11:34:48.000Z</time>
      </trkpt>
      <trkpt lat="44.15461" lon="6.80632">
        <ele>1970.1999511719</ele>
        <time>2020-06-06T11:34:50.000Z</time>
      </trkpt>
      <trkpt lat="44.15459" lon="6.80626">
        <ele>1969.5999755859</ele>
        <time>2020-06-06T11:34:51.000Z</time>
      </trkpt>
      <trkpt lat="44.15448" lon="6.80606">
        <ele>1968.8000488281</ele>
        <time>2020-06-06T11:34:54.000Z</time>
      </trkpt>
      <trkpt lat="44.15446" lon="6.80601">
        <ele>1968.1999511719</ele>
        <time>2020-06-06T11:34:55.000Z</time>
      </trkpt>
      <trkpt lat="44.15443" lon="6.80595">
        <ele>1968</ele>
        <time>2020-06-06T11:34:56.000Z</time>
      </trkpt>
      <trkpt lat="44.1544" lon="6.80591">
        <ele>1967.1999511719</ele>
        <time>2020-06-06T11:34:57.000Z</time>
      </trkpt>
      <trkpt lat="44.15439" lon="6.8059">
        <ele>1967</ele>
        <time>2020-06-06T11:34:58.000Z</time>
      </trkpt>
      <trkpt lat="44.15435" lon="6.80592">
        <ele>1966.1999511719</ele>
        <time>2020-06-06T11:35:00.000Z</time>
      </trkpt>
      <trkpt lat="44.15432" lon="6.80591">
        <ele>1965.5999755859</ele>
        <time>2020-06-06T11:35:01.000Z</time>
      </trkpt>
      <trkpt lat="44.15429" lon="6.80591">
        <ele>1965.1999511719</ele>
        <time>2020-06-06T11:35:02.000Z</time>
      </trkpt>
      <trkpt lat="44.1542" lon="6.80589">
        <ele>1964.4000244141</ele>
        <time>2020-06-06T11:35:05.000Z</time>
      </trkpt>
      <trkpt lat="44.15418" lon="6.80588">
        <ele>1964.1999511719</ele>
        <time>2020-06-06T11:35:06.000Z</time>
      </trkpt>
      <trkpt lat="44.15418" lon="6.80587">
        <ele>1964</ele>
        <time>2020-06-06T11:35:09.000Z</time>
      </trkpt>
      <trkpt lat="44.15418" lon="6.80587">
        <ele>1964.8000488281</ele>
        <time>2020-06-06T11:35:24.000Z</time>
      </trkpt>
      <trkpt lat="44.15418" lon="6.80587">
        <ele>1964.1999511719</ele>
        <time>2020-06-06T11:35:42.000Z</time>
      </trkpt>
      <trkpt lat="44.15412" lon="6.80584">
        <ele>1964.1999511719</ele>
        <time>2020-06-06T11:35:52.000Z</time>
      </trkpt>
      <trkpt lat="44.15404" lon="6.80583">
        <ele>1963.5999755859</ele>
        <time>2020-06-06T11:35:56.000Z</time>
      </trkpt>
      <trkpt lat="44.15397" lon="6.80575">
        <ele>1963.1999511719</ele>
        <time>2020-06-06T11:36:00.000Z</time>
      </trkpt>
      <trkpt lat="44.1539" lon="6.80562">
        <ele>1963.1999511719</ele>
        <time>2020-06-06T11:36:05.000Z</time>
      </trkpt>
      <trkpt lat="44.15374" lon="6.80553">
        <ele>1962.1999511719</ele>
        <time>2020-06-06T11:36:10.000Z</time>
      </trkpt>
      <trkpt lat="44.15372" lon="6.80551">
        <ele>1961.8000488281</ele>
        <time>2020-06-06T11:36:11.000Z</time>
      </trkpt>
      <trkpt lat="44.15368" lon="6.80544">
        <ele>1960.8000488281</ele>
        <time>2020-06-06T11:36:13.000Z</time>
      </trkpt>
      <trkpt lat="44.15366" lon="6.80539">
        <ele>1961.1999511719</ele>
        <time>2020-06-06T11:36:14.000Z</time>
      </trkpt>
      <trkpt lat="44.15363" lon="6.80535">
        <ele>1961.1999511719</ele>
        <time>2020-06-06T11:36:15.000Z</time>
      </trkpt>
      <trkpt lat="44.15352" lon="6.80525">
        <ele>1960.8000488281</ele>
        <time>2020-06-06T11:36:18.000Z</time>
      </trkpt>
      <trkpt lat="44.15344" lon="6.80519">
        <ele>1959.8000488281</ele>
        <time>2020-06-06T11:36:20.000Z</time>
      </trkpt>
      <trkpt lat="44.1534" lon="6.80516">
        <ele>1959.5999755859</ele>
        <time>2020-06-06T11:36:21.000Z</time>
      </trkpt>
      <trkpt lat="44.15333" lon="6.80513">
        <ele>1959.1999511719</ele>
        <time>2020-06-06T11:36:23.000Z</time>
      </trkpt>
      <trkpt lat="44.15327" lon="6.80512">
        <ele>1959.1999511719</ele>
        <time>2020-06-06T11:36:26.000Z</time>
      </trkpt>
      <trkpt lat="44.15317" lon="6.80509">
        <ele>1958.5999755859</ele>
        <time>2020-06-06T11:36:31.000Z</time>
      </trkpt>
      <trkpt lat="44.15306" lon="6.80508">
        <ele>1958.1999511719</ele>
        <time>2020-06-06T11:36:34.000Z</time>
      </trkpt>
      <trkpt lat="44.15298" lon="6.80507">
        <ele>1956.8000488281</ele>
        <time>2020-06-06T11:36:36.000Z</time>
      </trkpt>
      <trkpt lat="44.15291" lon="6.80506">
        <ele>1955</ele>
        <time>2020-06-06T11:36:38.000Z</time>
      </trkpt>
      <trkpt lat="44.15286" lon="6.80505">
        <ele>1953.8000488281</ele>
        <time>2020-06-06T11:36:40.000Z</time>
      </trkpt>
      <trkpt lat="44.1528" lon="6.80507">
        <ele>1953.1999511719</ele>
        <time>2020-06-06T11:36:44.000Z</time>
      </trkpt>
      <trkpt lat="44.15279" lon="6.80508">
        <ele>1953</ele>
        <time>2020-06-06T11:36:45.000Z</time>
      </trkpt>
      <trkpt lat="44.15276" lon="6.8051">
        <ele>1953</ele>
        <time>2020-06-06T11:36:48.000Z</time>
      </trkpt>
      <trkpt lat="44.15265" lon="6.80518">
        <ele>1953.1999511719</ele>
        <time>2020-06-06T11:36:53.000Z</time>
      </trkpt>
      <trkpt lat="44.1525" lon="6.80529">
        <ele>1952.8000488281</ele>
        <time>2020-06-06T11:36:57.000Z</time>
      </trkpt>
      <trkpt lat="44.15247" lon="6.80531">
        <ele>1952.5999755859</ele>
        <time>2020-06-06T11:36:58.000Z</time>
      </trkpt>
      <trkpt lat="44.1523" lon="6.80538">
        <ele>1951.8000488281</ele>
        <time>2020-06-06T11:37:03.000Z</time>
      </trkpt>
      <trkpt lat="44.15223" lon="6.8054">
        <ele>1951.1999511719</ele>
        <time>2020-06-06T11:37:05.000Z</time>
      </trkpt>
      <trkpt lat="44.15212" lon="6.80542">
        <ele>1950.5999755859</ele>
        <time>2020-06-06T11:37:08.000Z</time>
      </trkpt>
      <trkpt lat="44.15202" lon="6.80541">
        <ele>1949.5999755859</ele>
        <time>2020-06-06T11:37:11.000Z</time>
      </trkpt>
      <trkpt lat="44.15198" lon="6.80542">
        <ele>1949.1999511719</ele>
        <time>2020-06-06T11:37:12.000Z</time>
      </trkpt>
      <trkpt lat="44.1519" lon="6.80542">
        <ele>1948.4000244141</ele>
        <time>2020-06-06T11:37:14.000Z</time>
      </trkpt>
      <trkpt lat="44.15186" lon="6.80542">
        <ele>1948</ele>
        <time>2020-06-06T11:37:15.000Z</time>
      </trkpt>
      <trkpt lat="44.15182" lon="6.80542">
        <ele>1947.1999511719</ele>
        <time>2020-06-06T11:37:16.000Z</time>
      </trkpt>
      <trkpt lat="44.15178" lon="6.80541">
        <ele>1946.1999511719</ele>
        <time>2020-06-06T11:37:17.000Z</time>
      </trkpt>
      <trkpt lat="44.15172" lon="6.8054">
        <ele>1945.8000488281</ele>
        <time>2020-06-06T11:37:18.000Z</time>
      </trkpt>
      <trkpt lat="44.1516" lon="6.80538">
        <ele>1944.5999755859</ele>
        <time>2020-06-06T11:37:21.000Z</time>
      </trkpt>
      <trkpt lat="44.15152" lon="6.80538">
        <ele>1944</ele>
        <time>2020-06-06T11:37:24.000Z</time>
      </trkpt>
      <trkpt lat="44.15146" lon="6.80537">
        <ele>1944.4000244141</ele>
        <time>2020-06-06T11:37:26.000Z</time>
      </trkpt>
      <trkpt lat="44.15135" lon="6.80538">
        <ele>1945.4000244141</ele>
        <time>2020-06-06T11:37:31.000Z</time>
      </trkpt>
      <trkpt lat="44.15134" lon="6.80538">
        <ele>1945.5999755859</ele>
        <time>2020-06-06T11:37:32.000Z</time>
      </trkpt>
      <trkpt lat="44.15129" lon="6.80537">
        <ele>1946.8000488281</ele>
        <time>2020-06-06T11:37:35.000Z</time>
      </trkpt>
      <trkpt lat="44.15127" lon="6.80537">
        <ele>1947</ele>
        <time>2020-06-06T11:37:36.000Z</time>
      </trkpt>
      <trkpt lat="44.15113" lon="6.80529">
        <ele>1947</ele>
        <time>2020-06-06T11:37:43.000Z</time>
      </trkpt>
      <trkpt lat="44.15107" lon="6.80524">
        <ele>1945.5999755859</ele>
        <time>2020-06-06T11:37:46.000Z</time>
      </trkpt>
      <trkpt lat="44.15102" lon="6.80519">
        <ele>1944.4000244141</ele>
        <time>2020-06-06T11:37:48.000Z</time>
      </trkpt>
      <trkpt lat="44.15095" lon="6.80515">
        <ele>1943</ele>
        <time>2020-06-06T11:37:50.000Z</time>
      </trkpt>
      <trkpt lat="44.15091" lon="6.80513">
        <ele>1942</ele>
        <time>2020-06-06T11:37:51.000Z</time>
      </trkpt>
      <trkpt lat="44.15088" lon="6.80511">
        <ele>1941.4000244141</ele>
        <time>2020-06-06T11:37:52.000Z</time>
      </trkpt>
      <trkpt lat="44.15084" lon="6.80509">
        <ele>1940.5999755859</ele>
        <time>2020-06-06T11:37:53.000Z</time>
      </trkpt>
      <trkpt lat="44.15079" lon="6.80506">
        <ele>1939.5999755859</ele>
        <time>2020-06-06T11:37:54.000Z</time>
      </trkpt>
      <trkpt lat="44.15077" lon="6.80504">
        <ele>1938.8000488281</ele>
        <time>2020-06-06T11:37:55.000Z</time>
      </trkpt>
      <trkpt lat="44.15073" lon="6.80502">
        <ele>1937.5999755859</ele>
        <time>2020-06-06T11:37:57.000Z</time>
      </trkpt>
      <trkpt lat="44.15068" lon="6.805">
        <ele>1937.4000244141</ele>
        <time>2020-06-06T11:37:59.000Z</time>
      </trkpt>
      <trkpt lat="44.15066" lon="6.80501">
        <ele>1937</ele>
        <time>2020-06-06T11:38:00.000Z</time>
      </trkpt>
      <trkpt lat="44.15061" lon="6.80503">
        <ele>1936.8000488281</ele>
        <time>2020-06-06T11:38:03.000Z</time>
      </trkpt>
      <trkpt lat="44.15049" lon="6.805">
        <ele>1937.8000488281</ele>
        <time>2020-06-06T11:38:09.000Z</time>
      </trkpt>
      <trkpt lat="44.15036" lon="6.80491">
        <ele>1937.4000244141</ele>
        <time>2020-06-06T11:38:14.000Z</time>
      </trkpt>
      <trkpt lat="44.15023" lon="6.80484">
        <ele>1937.5999755859</ele>
        <time>2020-06-06T11:38:20.000Z</time>
      </trkpt>
      <trkpt lat="44.15007" lon="6.80479">
        <ele>1937.1999511719</ele>
        <time>2020-06-06T11:38:26.000Z</time>
      </trkpt>
      <trkpt lat="44.14992" lon="6.80476">
        <ele>1937</ele>
        <time>2020-06-06T11:38:32.000Z</time>
      </trkpt>
      <trkpt lat="44.14979" lon="6.80472">
        <ele>1937.8000488281</ele>
        <time>2020-06-06T11:38:38.000Z</time>
      </trkpt>
      <trkpt lat="44.14972" lon="6.80462">
        <ele>1937.8000488281</ele>
        <time>2020-06-06T11:38:43.000Z</time>
      </trkpt>
      <trkpt lat="44.14972" lon="6.80462">
        <ele>1936.5999755859</ele>
        <time>2020-06-06T11:38:48.000Z</time>
      </trkpt>
      <trkpt lat="44.14972" lon="6.80463">
        <ele>1936.5999755859</ele>
        <time>2020-06-06T11:39:07.000Z</time>
      </trkpt>
      <trkpt lat="44.14972" lon="6.80463">
        <ele>1936.4000244141</ele>
        <time>2020-06-06T11:39:08.000Z</time>
      </trkpt>
      <trkpt lat="44.14972" lon="6.80462">
        <ele>1936.5999755859</ele>
        <time>2020-06-06T11:39:28.000Z</time>
      </trkpt>
      <trkpt lat="44.14972" lon="6.80462">
        <ele>1936.5999755859</ele>
        <time>2020-06-06T11:39:49.000Z</time>
      </trkpt>
      <trkpt lat="44.14971" lon="6.80462">
        <ele>1936.8000488281</ele>
        <time>2020-06-06T11:40:10.000Z</time>
      </trkpt>
      <trkpt lat="44.14967" lon="6.80454">
        <ele>1936.8000488281</ele>
        <time>2020-06-06T11:40:14.000Z</time>
      </trkpt>
      <trkpt lat="44.14955" lon="6.80431">
        <ele>1935.4000244141</ele>
        <time>2020-06-06T11:40:19.000Z</time>
      </trkpt>
      <trkpt lat="44.14946" lon="6.80418">
        <ele>1934</ele>
        <time>2020-06-06T11:40:22.000Z</time>
      </trkpt>
      <trkpt lat="44.14932" lon="6.80394">
        <ele>1934.5999755859</ele>
        <time>2020-06-06T11:40:27.000Z</time>
      </trkpt>
      <trkpt lat="44.14929" lon="6.80384">
        <ele>1934.4000244141</ele>
        <time>2020-06-06T11:40:29.000Z</time>
      </trkpt>
      <trkpt lat="44.14927" lon="6.80371">
        <ele>1934.1999511719</ele>
        <time>2020-06-06T11:40:31.000Z</time>
      </trkpt>
      <trkpt lat="44.14923" lon="6.80358">
        <ele>1934</ele>
        <time>2020-06-06T11:40:33.000Z</time>
      </trkpt>
      <trkpt lat="44.14919" lon="6.80335">
        <ele>1932.4000244141</ele>
        <time>2020-06-06T11:40:36.000Z</time>
      </trkpt>
      <trkpt lat="44.14914" lon="6.80319">
        <ele>1931.1999511719</ele>
        <time>2020-06-06T11:40:38.000Z</time>
      </trkpt>
      <trkpt lat="44.1491" lon="6.80302">
        <ele>1930.1999511719</ele>
        <time>2020-06-06T11:40:40.000Z</time>
      </trkpt>
      <trkpt lat="44.14909" lon="6.80293">
        <ele>1929.1999511719</ele>
        <time>2020-06-06T11:40:41.000Z</time>
      </trkpt>
      <trkpt lat="44.14905" lon="6.80277">
        <ele>1928.1999511719</ele>
        <time>2020-06-06T11:40:43.000Z</time>
      </trkpt>
      <trkpt lat="44.14903" lon="6.80264">
        <ele>1926.5999755859</ele>
        <time>2020-06-06T11:40:45.000Z</time>
      </trkpt>
      <trkpt lat="44.14899" lon="6.80252">
        <ele>1925.4000244141</ele>
        <time>2020-06-06T11:40:47.000Z</time>
      </trkpt>
      <trkpt lat="44.14897" lon="6.80245">
        <ele>1922.5999755859</ele>
        <time>2020-06-06T11:40:48.000Z</time>
      </trkpt>
      <trkpt lat="44.14892" lon="6.8023">
        <ele>1921.1999511719</ele>
        <time>2020-06-06T11:40:50.000Z</time>
      </trkpt>
      <trkpt lat="44.14889" lon="6.80224">
        <ele>1919.1999511719</ele>
        <time>2020-06-06T11:40:51.000Z</time>
      </trkpt>
      <trkpt lat="44.14888" lon="6.80218">
        <ele>1918</ele>
        <time>2020-06-06T11:40:52.000Z</time>
      </trkpt>
      <trkpt lat="44.14882" lon="6.80208">
        <ele>1916.8000488281</ele>
        <time>2020-06-06T11:40:54.000Z</time>
      </trkpt>
      <trkpt lat="44.14878" lon="6.80204">
        <ele>1915.4000244141</ele>
        <time>2020-06-06T11:40:55.000Z</time>
      </trkpt>
      <trkpt lat="44.1487" lon="6.80198">
        <ele>1913.5999755859</ele>
        <time>2020-06-06T11:40:57.000Z</time>
      </trkpt>
      <trkpt lat="44.14867" lon="6.80195">
        <ele>1912.8000488281</ele>
        <time>2020-06-06T11:40:58.000Z</time>
      </trkpt>
      <trkpt lat="44.14864" lon="6.80194">
        <ele>1911.1999511719</ele>
        <time>2020-06-06T11:40:59.000Z</time>
      </trkpt>
      <trkpt lat="44.14858" lon="6.80192">
        <ele>1910</ele>
        <time>2020-06-06T11:41:01.000Z</time>
      </trkpt>
      <trkpt lat="44.14853" lon="6.80191">
        <ele>1909</ele>
        <time>2020-06-06T11:41:03.000Z</time>
      </trkpt>
      <trkpt lat="44.1485" lon="6.80191">
        <ele>1908.8000488281</ele>
        <time>2020-06-06T11:41:04.000Z</time>
      </trkpt>
      <trkpt lat="44.14844" lon="6.80192">
        <ele>1907.8000488281</ele>
        <time>2020-06-06T11:41:06.000Z</time>
      </trkpt>
      <trkpt lat="44.14839" lon="6.80194">
        <ele>1905.4000244141</ele>
        <time>2020-06-06T11:41:08.000Z</time>
      </trkpt>
      <trkpt lat="44.14836" lon="6.80194">
        <ele>1904.4000244141</ele>
        <time>2020-06-06T11:41:09.000Z</time>
      </trkpt>
      <trkpt lat="44.14827" lon="6.80194">
        <ele>1903.1999511719</ele>
        <time>2020-06-06T11:41:12.000Z</time>
      </trkpt>
      <trkpt lat="44.1482" lon="6.80195">
        <ele>1901.4000244141</ele>
        <time>2020-06-06T11:41:14.000Z</time>
      </trkpt>
      <trkpt lat="44.14818" lon="6.80194">
        <ele>1900.1999511719</ele>
        <time>2020-06-06T11:41:15.000Z</time>
      </trkpt>
      <trkpt lat="44.14814" lon="6.80194">
        <ele>1899</ele>
        <time>2020-06-06T11:41:16.000Z</time>
      </trkpt>
      <trkpt lat="44.14804" lon="6.80193">
        <ele>1898</ele>
        <time>2020-06-06T11:41:18.000Z</time>
      </trkpt>
      <trkpt lat="44.14799" lon="6.80192">
        <ele>1897.4000244141</ele>
        <time>2020-06-06T11:41:19.000Z</time>
      </trkpt>
      <trkpt lat="44.14794" lon="6.80192">
        <ele>1897</ele>
        <time>2020-06-06T11:41:20.000Z</time>
      </trkpt>
      <trkpt lat="44.14789" lon="6.80192">
        <ele>1896</ele>
        <time>2020-06-06T11:41:21.000Z</time>
      </trkpt>
      <trkpt lat="44.14783" lon="6.80193">
        <ele>1895</ele>
        <time>2020-06-06T11:41:22.000Z</time>
      </trkpt>
      <trkpt lat="44.14779" lon="6.80194">
        <ele>1894.1999511719</ele>
        <time>2020-06-06T11:41:23.000Z</time>
      </trkpt>
      <trkpt lat="44.1477" lon="6.80194">
        <ele>1892</ele>
        <time>2020-06-06T11:41:25.000Z</time>
      </trkpt>
      <trkpt lat="44.14758" lon="6.80197">
        <ele>1890.5999755859</ele>
        <time>2020-06-06T11:41:28.000Z</time>
      </trkpt>
      <trkpt lat="44.14753" lon="6.80198">
        <ele>1889.4000244141</ele>
        <time>2020-06-06T11:41:29.000Z</time>
      </trkpt>
      <trkpt lat="44.14743" lon="6.80197">
        <ele>1888.1999511719</ele>
        <time>2020-06-06T11:41:31.000Z</time>
      </trkpt>
      <trkpt lat="44.1474" lon="6.80195">
        <ele>1887</ele>
        <time>2020-06-06T11:41:32.000Z</time>
      </trkpt>
      <trkpt lat="44.14734" lon="6.8019">
        <ele>1885.5999755859</ele>
        <time>2020-06-06T11:41:34.000Z</time>
      </trkpt>
      <trkpt lat="44.14732" lon="6.80188">
        <ele>1884.8000488281</ele>
        <time>2020-06-06T11:41:35.000Z</time>
      </trkpt>
      <trkpt lat="44.14728" lon="6.80186">
        <ele>1883.8000488281</ele>
        <time>2020-06-06T11:41:36.000Z</time>
      </trkpt>
      <trkpt lat="44.14719" lon="6.80177">
        <ele>1882.5999755859</ele>
        <time>2020-06-06T11:41:39.000Z</time>
      </trkpt>
      <trkpt lat="44.14714" lon="6.80169">
        <ele>1882</ele>
        <time>2020-06-06T11:41:41.000Z</time>
      </trkpt>
      <trkpt lat="44.14713" lon="6.80165">
        <ele>1881.5999755859</ele>
        <time>2020-06-06T11:41:42.000Z</time>
      </trkpt>
      <trkpt lat="44.14708" lon="6.80152">
        <ele>1880.8000488281</ele>
        <time>2020-06-06T11:41:45.000Z</time>
      </trkpt>
      <trkpt lat="44.14702" lon="6.80143">
        <ele>1880.1999511719</ele>
        <time>2020-06-06T11:41:47.000Z</time>
      </trkpt>
      <trkpt lat="44.14698" lon="6.80138">
        <ele>1880</ele>
        <time>2020-06-06T11:41:48.000Z</time>
      </trkpt>
      <trkpt lat="44.14695" lon="6.80133">
        <ele>1879.8000488281</ele>
        <time>2020-06-06T11:41:49.000Z</time>
      </trkpt>
      <trkpt lat="44.14689" lon="6.80116">
        <ele>1878.5999755859</ele>
        <time>2020-06-06T11:41:53.000Z</time>
      </trkpt>
      <trkpt lat="44.14685" lon="6.80103">
        <ele>1877.5999755859</ele>
        <time>2020-06-06T11:41:56.000Z</time>
      </trkpt>
      <trkpt lat="44.14682" lon="6.80098">
        <ele>1876.8000488281</ele>
        <time>2020-06-06T11:41:57.000Z</time>
      </trkpt>
      <trkpt lat="44.14679" lon="6.80094">
        <ele>1876.1999511719</ele>
        <time>2020-06-06T11:41:58.000Z</time>
      </trkpt>
      <trkpt lat="44.14672" lon="6.80086">
        <ele>1875.8000488281</ele>
        <time>2020-06-06T11:42:00.000Z</time>
      </trkpt>
      <trkpt lat="44.14669" lon="6.80081">
        <ele>1875.5999755859</ele>
        <time>2020-06-06T11:42:01.000Z</time>
      </trkpt>
      <trkpt lat="44.14665" lon="6.80077">
        <ele>1875.1999511719</ele>
        <time>2020-06-06T11:42:04.000Z</time>
      </trkpt>
      <trkpt lat="44.14664" lon="6.80074">
        <ele>1875.5999755859</ele>
        <time>2020-06-06T11:42:09.000Z</time>
      </trkpt>
      <trkpt lat="44.14662" lon="6.80072">
        <ele>1876</ele>
        <time>2020-06-06T11:42:10.000Z</time>
      </trkpt>
      <trkpt lat="44.14655" lon="6.80064">
        <ele>1875.8000488281</ele>
        <time>2020-06-06T11:42:13.000Z</time>
      </trkpt>
      <trkpt lat="44.14641" lon="6.80044">
        <ele>1874.8000488281</ele>
        <time>2020-06-06T11:42:17.000Z</time>
      </trkpt>
      <trkpt lat="44.14631" lon="6.80032">
        <ele>1874</ele>
        <time>2020-06-06T11:42:19.000Z</time>
      </trkpt>
      <trkpt lat="44.14621" lon="6.8002">
        <ele>1873</ele>
        <time>2020-06-06T11:42:21.000Z</time>
      </trkpt>
      <trkpt lat="44.14616" lon="6.80014">
        <ele>1872.4000244141</ele>
        <time>2020-06-06T11:42:22.000Z</time>
      </trkpt>
      <trkpt lat="44.14613" lon="6.80009">
        <ele>1872</ele>
        <time>2020-06-06T11:42:23.000Z</time>
      </trkpt>
      <trkpt lat="44.14601" lon="6.79992">
        <ele>1871</ele>
        <time>2020-06-06T11:42:26.000Z</time>
      </trkpt>
      <trkpt lat="44.14594" lon="6.79982">
        <ele>1870.4000244141</ele>
        <time>2020-06-06T11:42:28.000Z</time>
      </trkpt>
      <trkpt lat="44.14587" lon="6.79972">
        <ele>1869.1999511719</ele>
        <time>2020-06-06T11:42:30.000Z</time>
      </trkpt>
      <trkpt lat="44.14583" lon="6.79966">
        <ele>1868.5999755859</ele>
        <time>2020-06-06T11:42:31.000Z</time>
      </trkpt>
      <trkpt lat="44.14581" lon="6.7996">
        <ele>1867.4000244141</ele>
        <time>2020-06-06T11:42:32.000Z</time>
      </trkpt>
      <trkpt lat="44.14575" lon="6.79942">
        <ele>1866.1999511719</ele>
        <time>2020-06-06T11:42:35.000Z</time>
      </trkpt>
      <trkpt lat="44.14568" lon="6.79925">
        <ele>1864.5999755859</ele>
        <time>2020-06-06T11:42:37.000Z</time>
      </trkpt>
      <trkpt lat="44.14567" lon="6.79916">
        <ele>1862.8000488281</ele>
        <time>2020-06-06T11:42:38.000Z</time>
      </trkpt>
      <trkpt lat="44.14568" lon="6.79908">
        <ele>1861.8000488281</ele>
        <time>2020-06-06T11:42:39.000Z</time>
      </trkpt>
      <trkpt lat="44.1457" lon="6.79903">
        <ele>1860.5999755859</ele>
        <time>2020-06-06T11:42:40.000Z</time>
      </trkpt>
      <trkpt lat="44.14571" lon="6.79896">
        <ele>1859.8000488281</ele>
        <time>2020-06-06T11:42:41.000Z</time>
      </trkpt>
      <trkpt lat="44.14571" lon="6.79889">
        <ele>1858.5999755859</ele>
        <time>2020-06-06T11:42:42.000Z</time>
      </trkpt>
      <trkpt lat="44.14568" lon="6.79873">
        <ele>1857</ele>
        <time>2020-06-06T11:42:44.000Z</time>
      </trkpt>
      <trkpt lat="44.14567" lon="6.79857">
        <ele>1854.8000488281</ele>
        <time>2020-06-06T11:42:46.000Z</time>
      </trkpt>
      <trkpt lat="44.14566" lon="6.7985">
        <ele>1854</ele>
        <time>2020-06-06T11:42:47.000Z</time>
      </trkpt>
      <trkpt lat="44.14565" lon="6.79842">
        <ele>1852.5999755859</ele>
        <time>2020-06-06T11:42:48.000Z</time>
      </trkpt>
      <trkpt lat="44.14565" lon="6.79837">
        <ele>1851</ele>
        <time>2020-06-06T11:42:49.000Z</time>
      </trkpt>
      <trkpt lat="44.14564" lon="6.79832">
        <ele>1849.8000488281</ele>
        <time>2020-06-06T11:42:50.000Z</time>
      </trkpt>
      <trkpt lat="44.14562" lon="6.79825">
        <ele>1848.1999511719</ele>
        <time>2020-06-06T11:42:51.000Z</time>
      </trkpt>
      <trkpt lat="44.1456" lon="6.7982">
        <ele>1846.8000488281</ele>
        <time>2020-06-06T11:42:52.000Z</time>
      </trkpt>
      <trkpt lat="44.14557" lon="6.79815">
        <ele>1846.1999511719</ele>
        <time>2020-06-06T11:42:53.000Z</time>
      </trkpt>
      <trkpt lat="44.14554" lon="6.7981">
        <ele>1845.4000244141</ele>
        <time>2020-06-06T11:42:54.000Z</time>
      </trkpt>
      <trkpt lat="44.14551" lon="6.79805">
        <ele>1844.4000244141</ele>
        <time>2020-06-06T11:42:55.000Z</time>
      </trkpt>
      <trkpt lat="44.14548" lon="6.79799">
        <ele>1843.4000244141</ele>
        <time>2020-06-06T11:42:56.000Z</time>
      </trkpt>
      <trkpt lat="44.14546" lon="6.79793">
        <ele>1842.4000244141</ele>
        <time>2020-06-06T11:42:57.000Z</time>
      </trkpt>
      <trkpt lat="44.14542" lon="6.79787">
        <ele>1841.5999755859</ele>
        <time>2020-06-06T11:42:58.000Z</time>
      </trkpt>
      <trkpt lat="44.14539" lon="6.79781">
        <ele>1840.5999755859</ele>
        <time>2020-06-06T11:42:59.000Z</time>
      </trkpt>
      <trkpt lat="44.14537" lon="6.79774">
        <ele>1839.8000488281</ele>
        <time>2020-06-06T11:43:00.000Z</time>
      </trkpt>
      <trkpt lat="44.14536" lon="6.79766">
        <ele>1838.5999755859</ele>
        <time>2020-06-06T11:43:01.000Z</time>
      </trkpt>
      <trkpt lat="44.14535" lon="6.79758">
        <ele>1837.8000488281</ele>
        <time>2020-06-06T11:43:02.000Z</time>
      </trkpt>
      <trkpt lat="44.14534" lon="6.79749">
        <ele>1836.5999755859</ele>
        <time>2020-06-06T11:43:03.000Z</time>
      </trkpt>
      <trkpt lat="44.14533" lon="6.79739">
        <ele>1835.1999511719</ele>
        <time>2020-06-06T11:43:04.000Z</time>
      </trkpt>
      <trkpt lat="44.14533" lon="6.7973">
        <ele>1833.4000244141</ele>
        <time>2020-06-06T11:43:05.000Z</time>
      </trkpt>
      <trkpt lat="44.14533" lon="6.7972">
        <ele>1831.5999755859</ele>
        <time>2020-06-06T11:43:06.000Z</time>
      </trkpt>
      <trkpt lat="44.14532" lon="6.79713">
        <ele>1830</ele>
        <time>2020-06-06T11:43:07.000Z</time>
      </trkpt>
      <trkpt lat="44.14531" lon="6.79705">
        <ele>1828.5999755859</ele>
        <time>2020-06-06T11:43:08.000Z</time>
      </trkpt>
      <trkpt lat="44.14531" lon="6.79699">
        <ele>1827.1999511719</ele>
        <time>2020-06-06T11:43:09.000Z</time>
      </trkpt>
      <trkpt lat="44.14533" lon="6.79684">
        <ele>1826.1999511719</ele>
        <time>2020-06-06T11:43:11.000Z</time>
      </trkpt>
      <trkpt lat="44.14534" lon="6.79675">
        <ele>1825</ele>
        <time>2020-06-06T11:43:12.000Z</time>
      </trkpt>
      <trkpt lat="44.14534" lon="6.79666">
        <ele>1823.5999755859</ele>
        <time>2020-06-06T11:43:13.000Z</time>
      </trkpt>
      <trkpt lat="44.14533" lon="6.79657">
        <ele>1822.1999511719</ele>
        <time>2020-06-06T11:43:14.000Z</time>
      </trkpt>
      <trkpt lat="44.14533" lon="6.79648">
        <ele>1820.1999511719</ele>
        <time>2020-06-06T11:43:15.000Z</time>
      </trkpt>
      <trkpt lat="44.14533" lon="6.79639">
        <ele>1819</ele>
        <time>2020-06-06T11:43:16.000Z</time>
      </trkpt>
      <trkpt lat="44.14532" lon="6.79631">
        <ele>1817.1999511719</ele>
        <time>2020-06-06T11:43:17.000Z</time>
      </trkpt>
      <trkpt lat="44.14532" lon="6.79622">
        <ele>1816</ele>
        <time>2020-06-06T11:43:18.000Z</time>
      </trkpt>
      <trkpt lat="44.14531" lon="6.79614">
        <ele>1815.1999511719</ele>
        <time>2020-06-06T11:43:19.000Z</time>
      </trkpt>
      <trkpt lat="44.1453" lon="6.79605">
        <ele>1814</ele>
        <time>2020-06-06T11:43:20.000Z</time>
      </trkpt>
      <trkpt lat="44.14531" lon="6.79597">
        <ele>1812.4000244141</ele>
        <time>2020-06-06T11:43:21.000Z</time>
      </trkpt>
      <trkpt lat="44.14533" lon="6.79588">
        <ele>1810.1999511719</ele>
        <time>2020-06-06T11:43:22.000Z</time>
      </trkpt>
      <trkpt lat="44.14535" lon="6.79581">
        <ele>1809.4000244141</ele>
        <time>2020-06-06T11:43:23.000Z</time>
      </trkpt>
      <trkpt lat="44.14537" lon="6.79572">
        <ele>1807</ele>
        <time>2020-06-06T11:43:24.000Z</time>
      </trkpt>
      <trkpt lat="44.14539" lon="6.79563">
        <ele>1805.5999755859</ele>
        <time>2020-06-06T11:43:25.000Z</time>
      </trkpt>
      <trkpt lat="44.14541" lon="6.79554">
        <ele>1803.8000488281</ele>
        <time>2020-06-06T11:43:26.000Z</time>
      </trkpt>
      <trkpt lat="44.14546" lon="6.7954">
        <ele>1801</ele>
        <time>2020-06-06T11:43:28.000Z</time>
      </trkpt>
      <trkpt lat="44.14548" lon="6.79534">
        <ele>1799.1999511719</ele>
        <time>2020-06-06T11:43:29.000Z</time>
      </trkpt>
      <trkpt lat="44.1455" lon="6.79527">
        <ele>1797.8000488281</ele>
        <time>2020-06-06T11:43:30.000Z</time>
      </trkpt>
      <trkpt lat="44.14551" lon="6.79518">
        <ele>1795.5999755859</ele>
        <time>2020-06-06T11:43:31.000Z</time>
      </trkpt>
      <trkpt lat="44.14552" lon="6.79509">
        <ele>1793.8000488281</ele>
        <time>2020-06-06T11:43:32.000Z</time>
      </trkpt>
      <trkpt lat="44.14553" lon="6.795">
        <ele>1792.5999755859</ele>
        <time>2020-06-06T11:43:33.000Z</time>
      </trkpt>
      <trkpt lat="44.14554" lon="6.7949">
        <ele>1791.5999755859</ele>
        <time>2020-06-06T11:43:34.000Z</time>
      </trkpt>
      <trkpt lat="44.14555" lon="6.79483">
        <ele>1790.4000244141</ele>
        <time>2020-06-06T11:43:35.000Z</time>
      </trkpt>
      <trkpt lat="44.14558" lon="6.79461">
        <ele>1787.5999755859</ele>
        <time>2020-06-06T11:43:37.000Z</time>
      </trkpt>
      <trkpt lat="44.14559" lon="6.79451">
        <ele>1786</ele>
        <time>2020-06-06T11:43:38.000Z</time>
      </trkpt>
      <trkpt lat="44.1456" lon="6.79442">
        <ele>1784.5999755859</ele>
        <time>2020-06-06T11:43:39.000Z</time>
      </trkpt>
      <trkpt lat="44.1456" lon="6.79434">
        <ele>1783</ele>
        <time>2020-06-06T11:43:40.000Z</time>
      </trkpt>
      <trkpt lat="44.1456" lon="6.79427">
        <ele>1781.8000488281</ele>
        <time>2020-06-06T11:43:41.000Z</time>
      </trkpt>
      <trkpt lat="44.14559" lon="6.79419">
        <ele>1781</ele>
        <time>2020-06-06T11:43:42.000Z</time>
      </trkpt>
      <trkpt lat="44.14558" lon="6.79413">
        <ele>1779.8000488281</ele>
        <time>2020-06-06T11:43:43.000Z</time>
      </trkpt>
      <trkpt lat="44.14556" lon="6.79406">
        <ele>1778.8000488281</ele>
        <time>2020-06-06T11:43:44.000Z</time>
      </trkpt>
      <trkpt lat="44.1455" lon="6.79392">
        <ele>1777</ele>
        <time>2020-06-06T11:43:46.000Z</time>
      </trkpt>
      <trkpt lat="44.14545" lon="6.79374">
        <ele>1775.4000244141</ele>
        <time>2020-06-06T11:43:48.000Z</time>
      </trkpt>
      <trkpt lat="44.14542" lon="6.79365">
        <ele>1774.1999511719</ele>
        <time>2020-06-06T11:43:49.000Z</time>
      </trkpt>
      <trkpt lat="44.14541" lon="6.79357">
        <ele>1773.1999511719</ele>
        <time>2020-06-06T11:43:50.000Z</time>
      </trkpt>
      <trkpt lat="44.14541" lon="6.7935">
        <ele>1772.5999755859</ele>
        <time>2020-06-06T11:43:51.000Z</time>
      </trkpt>
      <trkpt lat="44.1454" lon="6.79342">
        <ele>1771.4000244141</ele>
        <time>2020-06-06T11:43:52.000Z</time>
      </trkpt>
      <trkpt lat="44.14538" lon="6.79327">
        <ele>1770</ele>
        <time>2020-06-06T11:43:54.000Z</time>
      </trkpt>
      <trkpt lat="44.14532" lon="6.79312">
        <ele>1768.1999511719</ele>
        <time>2020-06-06T11:43:56.000Z</time>
      </trkpt>
      <trkpt lat="44.14526" lon="6.79295">
        <ele>1766.4000244141</ele>
        <time>2020-06-06T11:43:58.000Z</time>
      </trkpt>
      <trkpt lat="44.14522" lon="6.79279">
        <ele>1764.5999755859</ele>
        <time>2020-06-06T11:44:00.000Z</time>
      </trkpt>
      <trkpt lat="44.14522" lon="6.79271">
        <ele>1764</ele>
        <time>2020-06-06T11:44:01.000Z</time>
      </trkpt>
      <trkpt lat="44.14522" lon="6.79264">
        <ele>1763.1999511719</ele>
        <time>2020-06-06T11:44:02.000Z</time>
      </trkpt>
      <trkpt lat="44.14523" lon="6.79245">
        <ele>1761.8000488281</ele>
        <time>2020-06-06T11:44:04.000Z</time>
      </trkpt>
      <trkpt lat="44.14525" lon="6.79237">
        <ele>1761</ele>
        <time>2020-06-06T11:44:05.000Z</time>
      </trkpt>
      <trkpt lat="44.14526" lon="6.79228">
        <ele>1759.5999755859</ele>
        <time>2020-06-06T11:44:06.000Z</time>
      </trkpt>
      <trkpt lat="44.14526" lon="6.7922">
        <ele>1758.1999511719</ele>
        <time>2020-06-06T11:44:07.000Z</time>
      </trkpt>
      <trkpt lat="44.14527" lon="6.79203">
        <ele>1756.5999755859</ele>
        <time>2020-06-06T11:44:09.000Z</time>
      </trkpt>
      <trkpt lat="44.14527" lon="6.79195">
        <ele>1756</ele>
        <time>2020-06-06T11:44:10.000Z</time>
      </trkpt>
      <trkpt lat="44.14529" lon="6.7918">
        <ele>1754.8000488281</ele>
        <time>2020-06-06T11:44:12.000Z</time>
      </trkpt>
      <trkpt lat="44.14529" lon="6.7917">
        <ele>1753.4000244141</ele>
        <time>2020-06-06T11:44:14.000Z</time>
      </trkpt>
      <trkpt lat="44.14527" lon="6.79158">
        <ele>1752.4000244141</ele>
        <time>2020-06-06T11:44:15.000Z</time>
      </trkpt>
      <trkpt lat="44.14525" lon="6.79141">
        <ele>1751.4000244141</ele>
        <time>2020-06-06T11:44:17.000Z</time>
      </trkpt>
      <trkpt lat="44.14523" lon="6.79122">
        <ele>1749.4000244141</ele>
        <time>2020-06-06T11:44:19.000Z</time>
      </trkpt>
      <trkpt lat="44.14522" lon="6.79114">
        <ele>1748.5999755859</ele>
        <time>2020-06-06T11:44:20.000Z</time>
      </trkpt>
      <trkpt lat="44.14521" lon="6.79106">
        <ele>1747.5999755859</ele>
        <time>2020-06-06T11:44:21.000Z</time>
      </trkpt>
      <trkpt lat="44.1452" lon="6.79098">
        <ele>1745.5999755859</ele>
        <time>2020-06-06T11:44:22.000Z</time>
      </trkpt>
      <trkpt lat="44.14518" lon="6.7908">
        <ele>1744</ele>
        <time>2020-06-06T11:44:24.000Z</time>
      </trkpt>
      <trkpt lat="44.14514" lon="6.7905">
        <ele>1742.1999511719</ele>
        <time>2020-06-06T11:44:27.000Z</time>
      </trkpt>
      <trkpt lat="44.14513" lon="6.79041">
        <ele>1741</ele>
        <time>2020-06-06T11:44:28.000Z</time>
      </trkpt>
      <trkpt lat="44.14513" lon="6.79033">
        <ele>1739.5999755859</ele>
        <time>2020-06-06T11:44:29.000Z</time>
      </trkpt>
      <trkpt lat="44.14512" lon="6.79026">
        <ele>1738.1999511719</ele>
        <time>2020-06-06T11:44:30.000Z</time>
      </trkpt>
      <trkpt lat="44.14511" lon="6.79018">
        <ele>1736.8000488281</ele>
        <time>2020-06-06T11:44:31.000Z</time>
      </trkpt>
      <trkpt lat="44.1451" lon="6.79003">
        <ele>1735.5999755859</ele>
        <time>2020-06-06T11:44:33.000Z</time>
      </trkpt>
      <trkpt lat="44.1451" lon="6.78996">
        <ele>1735.1999511719</ele>
        <time>2020-06-06T11:44:34.000Z</time>
      </trkpt>
      <trkpt lat="44.14511" lon="6.7899">
        <ele>1734.4000244141</ele>
        <time>2020-06-06T11:44:35.000Z</time>
      </trkpt>
      <trkpt lat="44.14512" lon="6.78976">
        <ele>1733.4000244141</ele>
        <time>2020-06-06T11:44:37.000Z</time>
      </trkpt>
      <trkpt lat="44.1451" lon="6.78969">
        <ele>1732.8000488281</ele>
        <time>2020-06-06T11:44:38.000Z</time>
      </trkpt>
      <trkpt lat="44.14508" lon="6.78962">
        <ele>1732</ele>
        <time>2020-06-06T11:44:39.000Z</time>
      </trkpt>
      <trkpt lat="44.14502" lon="6.78939">
        <ele>1731.1999511719</ele>
        <time>2020-06-06T11:44:43.000Z</time>
      </trkpt>
      <trkpt lat="44.14499" lon="6.78935">
        <ele>1729.5999755859</ele>
        <time>2020-06-06T11:44:44.000Z</time>
      </trkpt>
      <trkpt lat="44.14491" lon="6.78926">
        <ele>1728</ele>
        <time>2020-06-06T11:44:46.000Z</time>
      </trkpt>
      <trkpt lat="44.14488" lon="6.78921">
        <ele>1727</ele>
        <time>2020-06-06T11:44:47.000Z</time>
      </trkpt>
      <trkpt lat="44.14484" lon="6.78916">
        <ele>1725.5999755859</ele>
        <time>2020-06-06T11:44:48.000Z</time>
      </trkpt>
      <trkpt lat="44.14478" lon="6.78905">
        <ele>1724</ele>
        <time>2020-06-06T11:44:50.000Z</time>
      </trkpt>
      <trkpt lat="44.14475" lon="6.78898">
        <ele>1723.1999511719</ele>
        <time>2020-06-06T11:44:51.000Z</time>
      </trkpt>
      <trkpt lat="44.14473" lon="6.78891">
        <ele>1722.4000244141</ele>
        <time>2020-06-06T11:44:52.000Z</time>
      </trkpt>
      <trkpt lat="44.14471" lon="6.78882">
        <ele>1721.1999511719</ele>
        <time>2020-06-06T11:44:53.000Z</time>
      </trkpt>
      <trkpt lat="44.1447" lon="6.78875">
        <ele>1720.1999511719</ele>
        <time>2020-06-06T11:44:54.000Z</time>
      </trkpt>
      <trkpt lat="44.14469" lon="6.78868">
        <ele>1718.8000488281</ele>
        <time>2020-06-06T11:44:55.000Z</time>
      </trkpt>
      <trkpt lat="44.14467" lon="6.78863">
        <ele>1718</ele>
        <time>2020-06-06T11:44:56.000Z</time>
      </trkpt>
      <trkpt lat="44.14465" lon="6.78858">
        <ele>1716.8000488281</ele>
        <time>2020-06-06T11:44:57.000Z</time>
      </trkpt>
      <trkpt lat="44.14462" lon="6.78853">
        <ele>1715.1999511719</ele>
        <time>2020-06-06T11:44:58.000Z</time>
      </trkpt>
      <trkpt lat="44.14458" lon="6.78846">
        <ele>1713.8000488281</ele>
        <time>2020-06-06T11:44:59.000Z</time>
      </trkpt>
      <trkpt lat="44.14455" lon="6.78839">
        <ele>1712.5999755859</ele>
        <time>2020-06-06T11:45:00.000Z</time>
      </trkpt>
      <trkpt lat="44.14449" lon="6.78824">
        <ele>1711</ele>
        <time>2020-06-06T11:45:02.000Z</time>
      </trkpt>
      <trkpt lat="44.14446" lon="6.78817">
        <ele>1709.8000488281</ele>
        <time>2020-06-06T11:45:03.000Z</time>
      </trkpt>
      <trkpt lat="44.14445" lon="6.788">
        <ele>1708.4000244141</ele>
        <time>2020-06-06T11:45:05.000Z</time>
      </trkpt>
      <trkpt lat="44.14443" lon="6.78781">
        <ele>1706</ele>
        <time>2020-06-06T11:45:07.000Z</time>
      </trkpt>
      <trkpt lat="44.14441" lon="6.78773">
        <ele>1705</ele>
        <time>2020-06-06T11:45:08.000Z</time>
      </trkpt>
      <trkpt lat="44.14441" lon="6.78765">
        <ele>1704.1999511719</ele>
        <time>2020-06-06T11:45:09.000Z</time>
      </trkpt>
      <trkpt lat="44.14442" lon="6.78759">
        <ele>1703.5999755859</ele>
        <time>2020-06-06T11:45:10.000Z</time>
      </trkpt>
      <trkpt lat="44.14446" lon="6.78744">
        <ele>1702.5999755859</ele>
        <time>2020-06-06T11:45:12.000Z</time>
      </trkpt>
      <trkpt lat="44.14449" lon="6.78739">
        <ele>1701.4000244141</ele>
        <time>2020-06-06T11:45:13.000Z</time>
      </trkpt>
      <trkpt lat="44.14449" lon="6.78734">
        <ele>1700.4000244141</ele>
        <time>2020-06-06T11:45:14.000Z</time>
      </trkpt>
      <trkpt lat="44.14447" lon="6.78728">
        <ele>1699.4000244141</ele>
        <time>2020-06-06T11:45:15.000Z</time>
      </trkpt>
      <trkpt lat="44.14439" lon="6.78716">
        <ele>1698</ele>
        <time>2020-06-06T11:45:17.000Z</time>
      </trkpt>
      <trkpt lat="44.14436" lon="6.78708">
        <ele>1697.1999511719</ele>
        <time>2020-06-06T11:45:18.000Z</time>
      </trkpt>
      <trkpt lat="44.14433" lon="6.78692">
        <ele>1695.4000244141</ele>
        <time>2020-06-06T11:45:20.000Z</time>
      </trkpt>
      <trkpt lat="44.14433" lon="6.78684">
        <ele>1695.1999511719</ele>
        <time>2020-06-06T11:45:21.000Z</time>
      </trkpt>
      <trkpt lat="44.14433" lon="6.78678">
        <ele>1694.4000244141</ele>
        <time>2020-06-06T11:45:22.000Z</time>
      </trkpt>
      <trkpt lat="44.14433" lon="6.78674">
        <ele>1692.8000488281</ele>
        <time>2020-06-06T11:45:24.000Z</time>
      </trkpt>
      <trkpt lat="44.14433" lon="6.78674">
        <ele>1691.8000488281</ele>
        <time>2020-06-06T11:45:25.000Z</time>
      </trkpt>
      <trkpt lat="44.14433" lon="6.78673">
        <ele>1690.5999755859</ele>
        <time>2020-06-06T11:45:27.000Z</time>
      </trkpt>
      <trkpt lat="44.14432" lon="6.78672">
        <ele>1689.5999755859</ele>
        <time>2020-06-06T11:45:29.000Z</time>
      </trkpt>
      <trkpt lat="44.14432" lon="6.78671">
        <ele>1689.4000244141</ele>
        <time>2020-06-06T11:45:30.000Z</time>
      </trkpt>
      <trkpt lat="44.14433" lon="6.78668">
        <ele>1688.4000244141</ele>
        <time>2020-06-06T11:45:38.000Z</time>
      </trkpt>
      <trkpt lat="44.14434" lon="6.78667">
        <ele>1688.4000244141</ele>
        <time>2020-06-06T11:45:41.000Z</time>
      </trkpt>
      <trkpt lat="44.14436" lon="6.7867">
        <ele>1688.1999511719</ele>
        <time>2020-06-06T11:45:51.000Z</time>
      </trkpt>
      <trkpt lat="44.14436" lon="6.7867">
        <ele>1687.8000488281</ele>
        <time>2020-06-06T11:46:01.000Z</time>
      </trkpt>
      <trkpt lat="44.14437" lon="6.78668">
        <ele>1688</ele>
        <time>2020-06-06T11:46:04.000Z</time>
      </trkpt>
      <trkpt lat="44.14437" lon="6.78668">
        <ele>1688.1999511719</ele>
        <time>2020-06-06T11:46:06.000Z</time>
      </trkpt>
      <trkpt lat="44.14437" lon="6.78665">
        <ele>1688.1999511719</ele>
        <time>2020-06-06T11:46:08.000Z</time>
      </trkpt>
      <trkpt lat="44.14437" lon="6.78657">
        <ele>1687.5999755859</ele>
        <time>2020-06-06T11:46:10.000Z</time>
      </trkpt>
      <trkpt lat="44.14437" lon="6.78651">
        <ele>1687.4000244141</ele>
        <time>2020-06-06T11:46:11.000Z</time>
      </trkpt>
      <trkpt lat="44.14436" lon="6.78636">
        <ele>1687</ele>
        <time>2020-06-06T11:46:13.000Z</time>
      </trkpt>
      <trkpt lat="44.14435" lon="6.78627">
        <ele>1686.4000244141</ele>
        <time>2020-06-06T11:46:14.000Z</time>
      </trkpt>
      <trkpt lat="44.14434" lon="6.78611">
        <ele>1684.1999511719</ele>
        <time>2020-06-06T11:46:16.000Z</time>
      </trkpt>
      <trkpt lat="44.14435" lon="6.78603">
        <ele>1683</ele>
        <time>2020-06-06T11:46:17.000Z</time>
      </trkpt>
      <trkpt lat="44.14436" lon="6.78597">
        <ele>1682</ele>
        <time>2020-06-06T11:46:18.000Z</time>
      </trkpt>
      <trkpt lat="44.1444" lon="6.78591">
        <ele>1680.4000244141</ele>
        <time>2020-06-06T11:46:19.000Z</time>
      </trkpt>
      <trkpt lat="44.14445" lon="6.78589">
        <ele>1679.8000488281</ele>
        <time>2020-06-06T11:46:20.000Z</time>
      </trkpt>
      <trkpt lat="44.14456" lon="6.78591">
        <ele>1679</ele>
        <time>2020-06-06T11:46:22.000Z</time>
      </trkpt>
      <trkpt lat="44.14459" lon="6.78593">
        <ele>1678.4000244141</ele>
        <time>2020-06-06T11:46:23.000Z</time>
      </trkpt>
      <trkpt lat="44.14463" lon="6.7859">
        <ele>1678.5999755859</ele>
        <time>2020-06-06T11:46:24.000Z</time>
      </trkpt>
      <trkpt lat="44.14466" lon="6.78587">
        <ele>1677.5999755859</ele>
        <time>2020-06-06T11:46:25.000Z</time>
      </trkpt>
      <trkpt lat="44.14467" lon="6.78584">
        <ele>1676.8000488281</ele>
        <time>2020-06-06T11:46:26.000Z</time>
      </trkpt>
      <trkpt lat="44.14466" lon="6.78581">
        <ele>1675.5999755859</ele>
        <time>2020-06-06T11:46:27.000Z</time>
      </trkpt>
      <trkpt lat="44.14461" lon="6.78574">
        <ele>1674</ele>
        <time>2020-06-06T11:46:29.000Z</time>
      </trkpt>
      <trkpt lat="44.14455" lon="6.78561">
        <ele>1672.5999755859</ele>
        <time>2020-06-06T11:46:31.000Z</time>
      </trkpt>
      <trkpt lat="44.1445" lon="6.78552">
        <ele>1671</ele>
        <time>2020-06-06T11:46:33.000Z</time>
      </trkpt>
      <trkpt lat="44.14445" lon="6.78548">
        <ele>1670</ele>
        <time>2020-06-06T11:46:34.000Z</time>
      </trkpt>
      <trkpt lat="44.14433" lon="6.78538">
        <ele>1667.8000488281</ele>
        <time>2020-06-06T11:46:36.000Z</time>
      </trkpt>
      <trkpt lat="44.14423" lon="6.78523">
        <ele>1665.5999755859</ele>
        <time>2020-06-06T11:46:38.000Z</time>
      </trkpt>
      <trkpt lat="44.1442" lon="6.78515">
        <ele>1664.8000488281</ele>
        <time>2020-06-06T11:46:39.000Z</time>
      </trkpt>
      <trkpt lat="44.14417" lon="6.78509">
        <ele>1663.5999755859</ele>
        <time>2020-06-06T11:46:40.000Z</time>
      </trkpt>
      <trkpt lat="44.14409" lon="6.785">
        <ele>1662.4000244141</ele>
        <time>2020-06-06T11:46:42.000Z</time>
      </trkpt>
      <trkpt lat="44.14401" lon="6.78496">
        <ele>1660.8000488281</ele>
        <time>2020-06-06T11:46:44.000Z</time>
      </trkpt>
      <trkpt lat="44.14395" lon="6.7849">
        <ele>1659.8000488281</ele>
        <time>2020-06-06T11:46:46.000Z</time>
      </trkpt>
      <trkpt lat="44.1439" lon="6.78484">
        <ele>1658.1999511719</ele>
        <time>2020-06-06T11:46:48.000Z</time>
      </trkpt>
      <trkpt lat="44.14387" lon="6.78482">
        <ele>1657.1999511719</ele>
        <time>2020-06-06T11:46:49.000Z</time>
      </trkpt>
      <trkpt lat="44.14383" lon="6.78482">
        <ele>1656</ele>
        <time>2020-06-06T11:46:50.000Z</time>
      </trkpt>
      <trkpt lat="44.14378" lon="6.78481">
        <ele>1654.4000244141</ele>
        <time>2020-06-06T11:46:51.000Z</time>
      </trkpt>
      <trkpt lat="44.14373" lon="6.78478">
        <ele>1653</ele>
        <time>2020-06-06T11:46:52.000Z</time>
      </trkpt>
      <trkpt lat="44.14369" lon="6.78474">
        <ele>1651.8000488281</ele>
        <time>2020-06-06T11:46:53.000Z</time>
      </trkpt>
      <trkpt lat="44.14365" lon="6.7847">
        <ele>1650.8000488281</ele>
        <time>2020-06-06T11:46:54.000Z</time>
      </trkpt>
      <trkpt lat="44.14361" lon="6.78465">
        <ele>1649.5999755859</ele>
        <time>2020-06-06T11:46:55.000Z</time>
      </trkpt>
      <trkpt lat="44.14357" lon="6.78461">
        <ele>1648.5999755859</ele>
        <time>2020-06-06T11:46:56.000Z</time>
      </trkpt>
      <trkpt lat="44.14344" lon="6.78454">
        <ele>1647</ele>
        <time>2020-06-06T11:46:59.000Z</time>
      </trkpt>
      <trkpt lat="44.14333" lon="6.78449">
        <ele>1644.4000244141</ele>
        <time>2020-06-06T11:47:01.000Z</time>
      </trkpt>
      <trkpt lat="44.14328" lon="6.78447">
        <ele>1643</ele>
        <time>2020-06-06T11:47:02.000Z</time>
      </trkpt>
      <trkpt lat="44.14323" lon="6.78443">
        <ele>1641.5999755859</ele>
        <time>2020-06-06T11:47:03.000Z</time>
      </trkpt>
      <trkpt lat="44.1432" lon="6.7844">
        <ele>1640</ele>
        <time>2020-06-06T11:47:04.000Z</time>
      </trkpt>
      <trkpt lat="44.14317" lon="6.78438">
        <ele>1638.1999511719</ele>
        <time>2020-06-06T11:47:05.000Z</time>
      </trkpt>
      <trkpt lat="44.14313" lon="6.78436">
        <ele>1636.8000488281</ele>
        <time>2020-06-06T11:47:06.000Z</time>
      </trkpt>
      <trkpt lat="44.14309" lon="6.78435">
        <ele>1635.4000244141</ele>
        <time>2020-06-06T11:47:07.000Z</time>
      </trkpt>
      <trkpt lat="44.14306" lon="6.78434">
        <ele>1634</ele>
        <time>2020-06-06T11:47:08.000Z</time>
      </trkpt>
      <trkpt lat="44.14302" lon="6.78433">
        <ele>1633</ele>
        <time>2020-06-06T11:47:09.000Z</time>
      </trkpt>
      <trkpt lat="44.14299" lon="6.78433">
        <ele>1631.8000488281</ele>
        <time>2020-06-06T11:47:10.000Z</time>
      </trkpt>
      <trkpt lat="44.14296" lon="6.78433">
        <ele>1630.5999755859</ele>
        <time>2020-06-06T11:47:11.000Z</time>
      </trkpt>
      <trkpt lat="44.14291" lon="6.78435">
        <ele>1629.4000244141</ele>
        <time>2020-06-06T11:47:12.000Z</time>
      </trkpt>
      <trkpt lat="44.14279" lon="6.78438">
        <ele>1626.8000488281</ele>
        <time>2020-06-06T11:47:14.000Z</time>
      </trkpt>
      <trkpt lat="44.14273" lon="6.78439">
        <ele>1625.4000244141</ele>
        <time>2020-06-06T11:47:15.000Z</time>
      </trkpt>
      <trkpt lat="44.14266" lon="6.78437">
        <ele>1623.8000488281</ele>
        <time>2020-06-06T11:47:16.000Z</time>
      </trkpt>
      <trkpt lat="44.14256" lon="6.78435">
        <ele>1621.4000244141</ele>
        <time>2020-06-06T11:47:18.000Z</time>
      </trkpt>
      <trkpt lat="44.1425" lon="6.78436">
        <ele>1619.1999511719</ele>
        <time>2020-06-06T11:47:19.000Z</time>
      </trkpt>
      <trkpt lat="44.14245" lon="6.78437">
        <ele>1617.8000488281</ele>
        <time>2020-06-06T11:47:20.000Z</time>
      </trkpt>
      <trkpt lat="44.14238" lon="6.78438">
        <ele>1616.5999755859</ele>
        <time>2020-06-06T11:47:21.000Z</time>
      </trkpt>
      <trkpt lat="44.14232" lon="6.78437">
        <ele>1615.4000244141</ele>
        <time>2020-06-06T11:47:22.000Z</time>
      </trkpt>
      <trkpt lat="44.14225" lon="6.78436">
        <ele>1614.4000244141</ele>
        <time>2020-06-06T11:47:23.000Z</time>
      </trkpt>
      <trkpt lat="44.1422" lon="6.78434">
        <ele>1613.4000244141</ele>
        <time>2020-06-06T11:47:24.000Z</time>
      </trkpt>
      <trkpt lat="44.14216" lon="6.78432">
        <ele>1612.4000244141</ele>
        <time>2020-06-06T11:47:25.000Z</time>
      </trkpt>
      <trkpt lat="44.14208" lon="6.78429">
        <ele>1610.4000244141</ele>
        <time>2020-06-06T11:47:27.000Z</time>
      </trkpt>
      <trkpt lat="44.14204" lon="6.78428">
        <ele>1609.1999511719</ele>
        <time>2020-06-06T11:47:28.000Z</time>
      </trkpt>
      <trkpt lat="44.142" lon="6.78428">
        <ele>1608</ele>
        <time>2020-06-06T11:47:29.000Z</time>
      </trkpt>
      <trkpt lat="44.14192" lon="6.78431">
        <ele>1607</ele>
        <time>2020-06-06T11:47:31.000Z</time>
      </trkpt>
      <trkpt lat="44.14189" lon="6.78433">
        <ele>1605.8000488281</ele>
        <time>2020-06-06T11:47:32.000Z</time>
      </trkpt>
      <trkpt lat="44.14185" lon="6.78436">
        <ele>1603.5999755859</ele>
        <time>2020-06-06T11:47:33.000Z</time>
      </trkpt>
      <trkpt lat="44.14181" lon="6.78437">
        <ele>1602.4000244141</ele>
        <time>2020-06-06T11:47:34.000Z</time>
      </trkpt>
      <trkpt lat="44.14174" lon="6.78441">
        <ele>1600.8000488281</ele>
        <time>2020-06-06T11:47:36.000Z</time>
      </trkpt>
      <trkpt lat="44.14171" lon="6.78443">
        <ele>1598.8000488281</ele>
        <time>2020-06-06T11:47:37.000Z</time>
      </trkpt>
      <trkpt lat="44.14162" lon="6.78447">
        <ele>1597.4000244141</ele>
        <time>2020-06-06T11:47:39.000Z</time>
      </trkpt>
      <trkpt lat="44.14154" lon="6.78448">
        <ele>1595.5999755859</ele>
        <time>2020-06-06T11:47:41.000Z</time>
      </trkpt>
      <trkpt lat="44.14145" lon="6.78451">
        <ele>1593.5999755859</ele>
        <time>2020-06-06T11:47:43.000Z</time>
      </trkpt>
      <trkpt lat="44.14142" lon="6.7845">
        <ele>1592.5999755859</ele>
        <time>2020-06-06T11:47:44.000Z</time>
      </trkpt>
      <trkpt lat="44.14134" lon="6.78448">
        <ele>1590.5999755859</ele>
        <time>2020-06-06T11:47:46.000Z</time>
      </trkpt>
      <trkpt lat="44.1413" lon="6.78449">
        <ele>1589.4000244141</ele>
        <time>2020-06-06T11:47:47.000Z</time>
      </trkpt>
      <trkpt lat="44.14126" lon="6.7845">
        <ele>1588.4000244141</ele>
        <time>2020-06-06T11:47:48.000Z</time>
      </trkpt>
      <trkpt lat="44.14115" lon="6.78451">
        <ele>1587.1999511719</ele>
        <time>2020-06-06T11:47:50.000Z</time>
      </trkpt>
      <trkpt lat="44.14106" lon="6.78453">
        <ele>1585.5999755859</ele>
        <time>2020-06-06T11:47:52.000Z</time>
      </trkpt>
      <trkpt lat="44.14102" lon="6.78454">
        <ele>1585</ele>
        <time>2020-06-06T11:47:53.000Z</time>
      </trkpt>
      <trkpt lat="44.14093" lon="6.78455">
        <ele>1584.1999511719</ele>
        <time>2020-06-06T11:47:55.000Z</time>
      </trkpt>
      <trkpt lat="44.14081" lon="6.78456">
        <ele>1583.5999755859</ele>
        <time>2020-06-06T11:47:57.000Z</time>
      </trkpt>
      <trkpt lat="44.14077" lon="6.78456">
        <ele>1582.8000488281</ele>
        <time>2020-06-06T11:47:58.000Z</time>
      </trkpt>
      <trkpt lat="44.14061" lon="6.78455">
        <ele>1582.1999511719</ele>
        <time>2020-06-06T11:48:01.000Z</time>
      </trkpt>
      <trkpt lat="44.14056" lon="6.78455">
        <ele>1581.5999755859</ele>
        <time>2020-06-06T11:48:02.000Z</time>
      </trkpt>
      <trkpt lat="44.14043" lon="6.78456">
        <ele>1581</ele>
        <time>2020-06-06T11:48:05.000Z</time>
      </trkpt>
      <trkpt lat="44.14038" lon="6.78456">
        <ele>1580.8000488281</ele>
        <time>2020-06-06T11:48:06.000Z</time>
      </trkpt>
      <trkpt lat="44.14014" lon="6.78455">
        <ele>1582.4000244141</ele>
        <time>2020-06-06T11:48:12.000Z</time>
      </trkpt>
      <trkpt lat="44.14003" lon="6.78455">
        <ele>1582.8000488281</ele>
        <time>2020-06-06T11:48:15.000Z</time>
      </trkpt>
      <trkpt lat="44.13995" lon="6.78456">
        <ele>1582.8000488281</ele>
        <time>2020-06-06T11:48:18.000Z</time>
      </trkpt>
      <trkpt lat="44.13993" lon="6.78456">
        <ele>1583</ele>
        <time>2020-06-06T11:48:22.000Z</time>
      </trkpt>
      <trkpt lat="44.13993" lon="6.78456">
        <ele>1583.8000488281</ele>
        <time>2020-06-06T11:48:27.000Z</time>
      </trkpt>
      <trkpt lat="44.13994" lon="6.78456">
        <ele>1583.5999755859</ele>
        <time>2020-06-06T11:48:44.000Z</time>
      </trkpt>
      <trkpt lat="44.1399" lon="6.78454">
        <ele>1583.5999755859</ele>
        <time>2020-06-06T11:48:49.000Z</time>
      </trkpt>
      <trkpt lat="44.13988" lon="6.78455">
        <ele>1583.4000244141</ele>
        <time>2020-06-06T11:48:51.000Z</time>
      </trkpt>
      <trkpt lat="44.13989" lon="6.78455">
        <ele>1583.4000244141</ele>
        <time>2020-06-06T11:48:52.000Z</time>
      </trkpt>
      <trkpt lat="44.13988" lon="6.78454">
        <ele>1583</ele>
        <time>2020-06-06T11:48:57.000Z</time>
      </trkpt>
      <trkpt lat="44.13988" lon="6.78454">
        <ele>1582.8000488281</ele>
        <time>2020-06-06T11:49:17.000Z</time>
      </trkpt>
      <trkpt lat="44.13988" lon="6.78454">
        <ele>1583</ele>
        <time>2020-06-06T11:49:36.000Z</time>
      </trkpt>
      <trkpt lat="44.13987" lon="6.78453">
        <ele>1583</ele>
        <time>2020-06-06T11:49:47.000Z</time>
      </trkpt>
      <trkpt lat="44.13988" lon="6.78454">
        <ele>1583.5999755859</ele>
        <time>2020-06-06T11:49:54.000Z</time>
      </trkpt>
      <trkpt lat="44.13989" lon="6.78455">
        <ele>1583.8000488281</ele>
        <time>2020-06-06T11:50:03.000Z</time>
      </trkpt>
      <trkpt lat="44.1399" lon="6.78455">
        <ele>1584</ele>
        <time>2020-06-06T11:50:12.000Z</time>
      </trkpt>
      <trkpt lat="44.13991" lon="6.78456">
        <ele>1583.1999511719</ele>
        <time>2020-06-06T11:50:24.000Z</time>
      </trkpt>
      <trkpt lat="44.13992" lon="6.78457">
        <ele>1583.4000244141</ele>
        <time>2020-06-06T11:50:39.000Z</time>
      </trkpt>
      <trkpt lat="44.13992" lon="6.78457">
        <ele>1583.4000244141</ele>
        <time>2020-06-06T11:50:45.000Z</time>
      </trkpt>
      <trkpt lat="44.13992" lon="6.78457">
        <ele>1583.4000244141</ele>
        <time>2020-06-06T11:50:55.000Z</time>
      </trkpt>
      <trkpt lat="44.13994" lon="6.78459">
        <ele>1583.5999755859</ele>
        <time>2020-06-06T11:51:11.000Z</time>
      </trkpt>
      <trkpt lat="44.13994" lon="6.78459">
        <ele>1583</ele>
        <time>2020-06-06T11:51:21.000Z</time>
      </trkpt>
      <trkpt lat="44.13994" lon="6.78459">
        <ele>1583.1999511719</ele>
        <time>2020-06-06T11:51:31.000Z</time>
      </trkpt>
      <trkpt lat="44.13994" lon="6.78459">
        <ele>1583.1999511719</ele>
        <time>2020-06-06T11:51:42.000Z</time>
      </trkpt>
      <trkpt lat="44.13994" lon="6.78458">
        <ele>1583.4000244141</ele>
        <time>2020-06-06T11:51:56.000Z</time>
      </trkpt>
      <trkpt lat="44.13991" lon="6.78455">
        <ele>1583.1999511719</ele>
        <time>2020-06-06T11:52:09.000Z</time>
      </trkpt>
      <trkpt lat="44.13991" lon="6.78455">
        <ele>1583.5999755859</ele>
        <time>2020-06-06T11:52:22.000Z</time>
      </trkpt>
      <trkpt lat="44.13992" lon="6.78457">
        <ele>1583.8000488281</ele>
        <time>2020-06-06T11:52:31.000Z</time>
      </trkpt>
      <trkpt lat="44.13992" lon="6.78458">
        <ele>1583.5999755859</ele>
        <time>2020-06-06T11:52:38.000Z</time>
      </trkpt>
      <trkpt lat="44.13992" lon="6.78458">
        <ele>1584.5999755859</ele>
        <time>2020-06-06T11:52:49.000Z</time>
      </trkpt>
      <trkpt lat="44.13992" lon="6.78458">
        <ele>1584</ele>
        <time>2020-06-06T11:52:55.000Z</time>
      </trkpt>
      <trkpt lat="44.13992" lon="6.7846">
        <ele>1583.8000488281</ele>
        <time>2020-06-06T11:53:05.000Z</time>
      </trkpt>
      <trkpt lat="44.13992" lon="6.78462">
        <ele>1584.8000488281</ele>
        <time>2020-06-06T11:53:11.000Z</time>
      </trkpt>
      <trkpt lat="44.13991" lon="6.78462">
        <ele>1585</ele>
        <time>2020-06-06T11:53:12.000Z</time>
      </trkpt>
      <trkpt lat="44.13991" lon="6.78461">
        <ele>1584.8000488281</ele>
        <time>2020-06-06T11:53:23.000Z</time>
      </trkpt>
      <trkpt lat="44.1399" lon="6.78461">
        <ele>1584.4000244141</ele>
        <time>2020-06-06T11:53:42.000Z</time>
      </trkpt>
      <trkpt lat="44.13989" lon="6.78459">
        <ele>1584.1999511719</ele>
        <time>2020-06-06T11:54:07.000Z</time>
      </trkpt>
      <trkpt lat="44.13989" lon="6.78458">
        <ele>1584.4000244141</ele>
        <time>2020-06-06T11:54:22.000Z</time>
      </trkpt>
      <trkpt lat="44.13989" lon="6.78457">
        <ele>1584.4000244141</ele>
        <time>2020-06-06T11:54:40.000Z</time>
      </trkpt>
      <trkpt lat="44.13989" lon="6.78457">
        <ele>1584.4000244141</ele>
        <time>2020-06-06T11:54:49.000Z</time>
      </trkpt>
      <trkpt lat="44.13988" lon="6.78456">
        <ele>1584.4000244141</ele>
        <time>2020-06-06T11:55:04.000Z</time>
      </trkpt>
      <trkpt lat="44.13988" lon="6.78455">
        <ele>1584</ele>
        <time>2020-06-06T11:55:19.000Z</time>
      </trkpt>
      <trkpt lat="44.13988" lon="6.78455">
        <ele>1584.5999755859</ele>
        <time>2020-06-06T11:55:29.000Z</time>
      </trkpt>
      <trkpt lat="44.13988" lon="6.78456">
        <ele>1584</ele>
        <time>2020-06-06T11:55:48.000Z</time>
      </trkpt>
      <trkpt lat="44.13989" lon="6.78457">
        <ele>1583.8000488281</ele>
        <time>2020-06-06T11:56:03.000Z</time>
      </trkpt>
      <trkpt lat="44.13989" lon="6.78457">
        <ele>1583.8000488281</ele>
        <time>2020-06-06T11:56:04.000Z</time>
      </trkpt>
      <trkpt lat="44.13989" lon="6.78457">
        <ele>1584</ele>
        <time>2020-06-06T11:56:12.000Z</time>
      </trkpt>
      <trkpt lat="44.13989" lon="6.78455">
        <ele>1584.1999511719</ele>
        <time>2020-06-06T11:56:18.000Z</time>
      </trkpt>
      <trkpt lat="44.13988" lon="6.78455">
        <ele>1584</ele>
        <time>2020-06-06T11:56:29.000Z</time>
      </trkpt>
      <trkpt lat="44.13988" lon="6.78455">
        <ele>1584</ele>
        <time>2020-06-06T11:56:35.000Z</time>
      </trkpt>
      <trkpt lat="44.13988" lon="6.78454">
        <ele>1584</ele>
        <time>2020-06-06T11:56:45.000Z</time>
      </trkpt>
      <trkpt lat="44.13988" lon="6.78455">
        <ele>1584.4000244141</ele>
        <time>2020-06-06T11:57:03.000Z</time>
      </trkpt>
      <trkpt lat="44.13989" lon="6.78456">
        <ele>1583.8000488281</ele>
        <time>2020-06-06T11:57:16.000Z</time>
      </trkpt>
      <trkpt lat="44.13988" lon="6.78455">
        <ele>1583.5999755859</ele>
        <time>2020-06-06T11:57:29.000Z</time>
      </trkpt>
      <trkpt lat="44.13987" lon="6.78453">
        <ele>1584</ele>
        <time>2020-06-06T11:57:37.000Z</time>
      </trkpt>
      <trkpt lat="44.13987" lon="6.78453">
        <ele>1583.5999755859</ele>
        <time>2020-06-06T11:57:42.000Z</time>
      </trkpt>
      <trkpt lat="44.13986" lon="6.78451">
        <ele>1583.8000488281</ele>
        <time>2020-06-06T11:57:52.000Z</time>
      </trkpt>
      <trkpt lat="44.13985" lon="6.7845">
        <ele>1583.5999755859</ele>
        <time>2020-06-06T11:58:05.000Z</time>
      </trkpt>
      <trkpt lat="44.13985" lon="6.78451">
        <ele>1583.4000244141</ele>
        <time>2020-06-06T11:58:14.000Z</time>
      </trkpt>
      <trkpt lat="44.13985" lon="6.78451">
        <ele>1583.1999511719</ele>
        <time>2020-06-06T11:58:28.000Z</time>
      </trkpt>
      <trkpt lat="44.13985" lon="6.78451">
        <ele>1583.1999511719</ele>
        <time>2020-06-06T11:58:47.000Z</time>
      </trkpt>
      <trkpt lat="44.13985" lon="6.78452">
        <ele>1583.1999511719</ele>
        <time>2020-06-06T11:58:55.000Z</time>
      </trkpt>
      <trkpt lat="44.13986" lon="6.78452">
        <ele>1583.1999511719</ele>
        <time>2020-06-06T11:59:11.000Z</time>
      </trkpt>
      <trkpt lat="44.13987" lon="6.78453">
        <ele>1583</ele>
        <time>2020-06-06T11:59:31.000Z</time>
      </trkpt>
      <trkpt lat="44.13987" lon="6.78453">
        <ele>1583.5999755859</ele>
        <time>2020-06-06T11:59:48.000Z</time>
      </trkpt>
      <trkpt lat="44.1399" lon="6.78454">
        <ele>1583.5999755859</ele>
        <time>2020-06-06T11:59:56.000Z</time>
      </trkpt>
      <trkpt lat="44.1399" lon="6.78454">
        <ele>1583.5999755859</ele>
        <time>2020-06-06T12:00:07.000Z</time>
      </trkpt>
      <trkpt lat="44.1399" lon="6.78455">
        <ele>1583.5999755859</ele>
        <time>2020-06-06T12:00:29.000Z</time>
      </trkpt>
      <trkpt lat="44.1399" lon="6.78455">
        <ele>1584.1999511719</ele>
        <time>2020-06-06T12:00:45.000Z</time>
      </trkpt>
      <trkpt lat="44.13991" lon="6.78456">
        <ele>1583.4000244141</ele>
        <time>2020-06-06T12:00:53.000Z</time>
      </trkpt>
      <trkpt lat="44.13991" lon="6.78456">
        <ele>1583.4000244141</ele>
        <time>2020-06-06T12:01:03.000Z</time>
      </trkpt>
      <trkpt lat="44.1399" lon="6.78455">
        <ele>1583.4000244141</ele>
        <time>2020-06-06T12:01:12.000Z</time>
      </trkpt>
      <trkpt lat="44.1399" lon="6.78456">
        <ele>1583.5999755859</ele>
        <time>2020-06-06T12:01:21.000Z</time>
      </trkpt>
      <trkpt lat="44.1399" lon="6.78456">
        <ele>1583.5999755859</ele>
        <time>2020-06-06T12:01:31.000Z</time>
      </trkpt>
      <trkpt lat="44.1399" lon="6.78456">
        <ele>1583.8000488281</ele>
        <time>2020-06-06T12:01:45.000Z</time>
      </trkpt>
      <trkpt lat="44.1399" lon="6.78456">
        <ele>1583.5999755859</ele>
        <time>2020-06-06T12:01:50.000Z</time>
      </trkpt>
      <trkpt lat="44.13989" lon="6.78456">
        <ele>1583.1999511719</ele>
        <time>2020-06-06T12:02:01.000Z</time>
      </trkpt>
      <trkpt lat="44.13989" lon="6.78457">
        <ele>1583.1999511719</ele>
        <time>2020-06-06T12:02:13.000Z</time>
      </trkpt>
      <trkpt lat="44.13991" lon="6.78459">
        <ele>1583.5999755859</ele>
        <time>2020-06-06T12:02:28.000Z</time>
      </trkpt>
      <trkpt lat="44.13991" lon="6.7846">
        <ele>1583.8000488281</ele>
        <time>2020-06-06T12:02:36.000Z</time>
      </trkpt>
      <trkpt lat="44.13991" lon="6.7846">
        <ele>1583.8000488281</ele>
        <time>2020-06-06T12:02:46.000Z</time>
      </trkpt>
      <trkpt lat="44.13991" lon="6.78456">
        <ele>1583.5999755859</ele>
        <time>2020-06-06T12:02:52.000Z</time>
      </trkpt>
      <trkpt lat="44.1399" lon="6.78454">
        <ele>1583.4000244141</ele>
        <time>2020-06-06T12:02:58.000Z</time>
      </trkpt>
      <trkpt lat="44.1399" lon="6.7845">
        <ele>1583.5999755859</ele>
        <time>2020-06-06T12:03:02.000Z</time>
      </trkpt>
      <trkpt lat="44.13991" lon="6.78447">
        <ele>1583.4000244141</ele>
        <time>2020-06-06T12:03:03.000Z</time>
      </trkpt>
      <trkpt lat="44.13997" lon="6.7843">
        <ele>1582.8000488281</ele>
        <time>2020-06-06T12:03:06.000Z</time>
      </trkpt>
      <trkpt lat="44.13999" lon="6.78416">
        <ele>1581.1999511719</ele>
        <time>2020-06-06T12:03:08.000Z</time>
      </trkpt>
      <trkpt lat="44.14001" lon="6.78409">
        <ele>1579.8000488281</ele>
        <time>2020-06-06T12:03:09.000Z</time>
      </trkpt>
      <trkpt lat="44.14004" lon="6.78404">
        <ele>1578.8000488281</ele>
        <time>2020-06-06T12:03:10.000Z</time>
      </trkpt>
      <trkpt lat="44.1401" lon="6.78403">
        <ele>1577.5999755859</ele>
        <time>2020-06-06T12:03:11.000Z</time>
      </trkpt>
      <trkpt lat="44.14015" lon="6.78402">
        <ele>1576.4000244141</ele>
        <time>2020-06-06T12:03:12.000Z</time>
      </trkpt>
      <trkpt lat="44.14021" lon="6.78401">
        <ele>1575.8000488281</ele>
        <time>2020-06-06T12:03:13.000Z</time>
      </trkpt>
      <trkpt lat="44.14026" lon="6.78399">
        <ele>1575</ele>
        <time>2020-06-06T12:03:14.000Z</time>
      </trkpt>
      <trkpt lat="44.14033" lon="6.78387">
        <ele>1574</ele>
        <time>2020-06-06T12:03:16.000Z</time>
      </trkpt>
      <trkpt lat="44.14035" lon="6.78379">
        <ele>1572.8000488281</ele>
        <time>2020-06-06T12:03:17.000Z</time>
      </trkpt>
      <trkpt lat="44.14038" lon="6.7837">
        <ele>1572.4000244141</ele>
        <time>2020-06-06T12:03:18.000Z</time>
      </trkpt>
      <trkpt lat="44.1404" lon="6.78361">
        <ele>1570.8000488281</ele>
        <time>2020-06-06T12:03:19.000Z</time>
      </trkpt>
      <trkpt lat="44.14042" lon="6.78353">
        <ele>1569.8000488281</ele>
        <time>2020-06-06T12:03:20.000Z</time>
      </trkpt>
      <trkpt lat="44.14045" lon="6.78347">
        <ele>1568</ele>
        <time>2020-06-06T12:03:21.000Z</time>
      </trkpt>
      <trkpt lat="44.14046" lon="6.78343">
        <ele>1566.1999511719</ele>
        <time>2020-06-06T12:03:22.000Z</time>
      </trkpt>
      <trkpt lat="44.14048" lon="6.78341">
        <ele>1564.1999511719</ele>
        <time>2020-06-06T12:03:23.000Z</time>
      </trkpt>
      <trkpt lat="44.14047" lon="6.78343">
        <ele>1562.8000488281</ele>
        <time>2020-06-06T12:03:25.000Z</time>
      </trkpt>
      <trkpt lat="44.14047" lon="6.78343">
        <ele>1562.4000244141</ele>
        <time>2020-06-06T12:03:26.000Z</time>
      </trkpt>
      <trkpt lat="44.1405" lon="6.78344">
        <ele>1562.4000244141</ele>
        <time>2020-06-06T12:03:35.000Z</time>
      </trkpt>
      <trkpt lat="44.14051" lon="6.78342">
        <ele>1562.4000244141</ele>
        <time>2020-06-06T12:03:47.000Z</time>
      </trkpt>
      <trkpt lat="44.14051" lon="6.78345">
        <ele>1562</ele>
        <time>2020-06-06T12:04:06.000Z</time>
      </trkpt>
      <trkpt lat="44.14051" lon="6.78346">
        <ele>1562.1999511719</ele>
        <time>2020-06-06T12:04:25.000Z</time>
      </trkpt>
      <trkpt lat="44.14051" lon="6.78345">
        <ele>1562.1999511719</ele>
        <time>2020-06-06T12:04:33.000Z</time>
      </trkpt>
      <trkpt lat="44.14052" lon="6.78345">
        <ele>1562.1999511719</ele>
        <time>2020-06-06T12:04:51.000Z</time>
      </trkpt>
      <trkpt lat="44.14054" lon="6.78344">
        <ele>1562.4000244141</ele>
        <time>2020-06-06T12:05:05.000Z</time>
      </trkpt>
      <trkpt lat="44.14056" lon="6.78345">
        <ele>1562.4000244141</ele>
        <time>2020-06-06T12:05:09.000Z</time>
      </trkpt>
      <trkpt lat="44.14056" lon="6.78347">
        <ele>1562.1999511719</ele>
        <time>2020-06-06T12:05:10.000Z</time>
      </trkpt>
      <trkpt lat="44.1406" lon="6.78358">
        <ele>1561.8000488281</ele>
        <time>2020-06-06T12:05:13.000Z</time>
      </trkpt>
      <trkpt lat="44.14063" lon="6.7836">
        <ele>1561.5999755859</ele>
        <time>2020-06-06T12:05:14.000Z</time>
      </trkpt>
      <trkpt lat="44.14067" lon="6.78357">
        <ele>1560.5999755859</ele>
        <time>2020-06-06T12:05:16.000Z</time>
      </trkpt>
      <trkpt lat="44.14068" lon="6.78356">
        <ele>1560.1999511719</ele>
        <time>2020-06-06T12:05:17.000Z</time>
      </trkpt>
      <trkpt lat="44.14075" lon="6.78354">
        <ele>1561.4000244141</ele>
        <time>2020-06-06T12:05:22.000Z</time>
      </trkpt>
      <trkpt lat="44.14081" lon="6.78352">
        <ele>1561.8000488281</ele>
        <time>2020-06-06T12:05:24.000Z</time>
      </trkpt>
      <trkpt lat="44.14088" lon="6.78351">
        <ele>1562</ele>
        <time>2020-06-06T12:05:26.000Z</time>
      </trkpt>
      <trkpt lat="44.14099" lon="6.78351">
        <ele>1561.8000488281</ele>
        <time>2020-06-06T12:05:31.000Z</time>
      </trkpt>
      <trkpt lat="44.14105" lon="6.78349">
        <ele>1562.4000244141</ele>
        <time>2020-06-06T12:05:37.000Z</time>
      </trkpt>
      <trkpt lat="44.14105" lon="6.78349">
        <ele>1562.5999755859</ele>
        <time>2020-06-06T12:05:48.000Z</time>
      </trkpt>
      <trkpt lat="44.14105" lon="6.78348">
        <ele>1562.8000488281</ele>
        <time>2020-06-06T12:06:16.000Z</time>
      </trkpt>
      <trkpt lat="44.14105" lon="6.78349">
        <ele>1563.1999511719</ele>
        <time>2020-06-06T12:06:23.000Z</time>
      </trkpt>
      <trkpt lat="44.14105" lon="6.78348">
        <ele>1563.1999511719</ele>
        <time>2020-06-06T12:06:44.000Z</time>
      </trkpt>
      <trkpt lat="44.14105" lon="6.78348">
        <ele>1563</ele>
        <time>2020-06-06T12:06:56.000Z</time>
      </trkpt>
      <trkpt lat="44.14106" lon="6.7835">
        <ele>1563</ele>
        <time>2020-06-06T12:07:15.000Z</time>
      </trkpt>
      <trkpt lat="44.14107" lon="6.78349">
        <ele>1562.8000488281</ele>
        <time>2020-06-06T12:07:39.000Z</time>
      </trkpt>
      <trkpt lat="44.14108" lon="6.7835">
        <ele>1562.5999755859</ele>
        <time>2020-06-06T12:07:47.000Z</time>
      </trkpt>
      <trkpt lat="44.14108" lon="6.7835">
        <ele>1562.8000488281</ele>
        <time>2020-06-06T12:08:07.000Z</time>
      </trkpt>
      <trkpt lat="44.14108" lon="6.78349">
        <ele>1563</ele>
        <time>2020-06-06T12:08:30.000Z</time>
      </trkpt>
      <trkpt lat="44.14108" lon="6.78348">
        <ele>1563</ele>
        <time>2020-06-06T12:08:53.000Z</time>
      </trkpt>
      <trkpt lat="44.14108" lon="6.78347">
        <ele>1562.8000488281</ele>
        <time>2020-06-06T12:09:11.000Z</time>
      </trkpt>
      <trkpt lat="44.14108" lon="6.78348">
        <ele>1563.1999511719</ele>
        <time>2020-06-06T12:09:35.000Z</time>
      </trkpt>
      <trkpt lat="44.14111" lon="6.78349">
        <ele>1562.5999755859</ele>
        <time>2020-06-06T12:09:55.000Z</time>
      </trkpt>
      <trkpt lat="44.14112" lon="6.78348">
        <ele>1562.8000488281</ele>
        <time>2020-06-06T12:09:57.000Z</time>
      </trkpt>
      <trkpt lat="44.14115" lon="6.78347">
        <ele>1563</ele>
        <time>2020-06-06T12:09:59.000Z</time>
      </trkpt>
      <trkpt lat="44.14122" lon="6.78344">
        <ele>1563.8000488281</ele>
        <time>2020-06-06T12:10:05.000Z</time>
      </trkpt>
      <trkpt lat="44.14131" lon="6.78345">
        <ele>1564.1999511719</ele>
        <time>2020-06-06T12:10:10.000Z</time>
      </trkpt>
      <trkpt lat="44.14138" lon="6.78349">
        <ele>1564.1999511719</ele>
        <time>2020-06-06T12:10:15.000Z</time>
      </trkpt>
      <trkpt lat="44.14147" lon="6.78356">
        <ele>1564.8000488281</ele>
        <time>2020-06-06T12:10:21.000Z</time>
      </trkpt>
      <trkpt lat="44.14148" lon="6.78356">
        <ele>1564.8000488281</ele>
        <time>2020-06-06T12:10:22.000Z</time>
      </trkpt>
      <trkpt lat="44.14149" lon="6.78355">
        <ele>1565</ele>
        <time>2020-06-06T12:10:23.000Z</time>
      </trkpt>
      <trkpt lat="44.14153" lon="6.78352">
        <ele>1565</ele>
        <time>2020-06-06T12:10:25.000Z</time>
      </trkpt>
      <trkpt lat="44.14157" lon="6.7835">
        <ele>1565</ele>
        <time>2020-06-06T12:10:26.000Z</time>
      </trkpt>
      <trkpt lat="44.14167" lon="6.78347">
        <ele>1564.8000488281</ele>
        <time>2020-06-06T12:10:28.000Z</time>
      </trkpt>
      <trkpt lat="44.14179" lon="6.7834">
        <ele>1563.4000244141</ele>
        <time>2020-06-06T12:10:31.000Z</time>
      </trkpt>
      <trkpt lat="44.14187" lon="6.78332">
        <ele>1562.4000244141</ele>
        <time>2020-06-06T12:10:34.000Z</time>
      </trkpt>
      <trkpt lat="44.14189" lon="6.7833">
        <ele>1562.4000244141</ele>
        <time>2020-06-06T12:10:35.000Z</time>
      </trkpt>
      <trkpt lat="44.142" lon="6.7832">
        <ele>1562.8000488281</ele>
        <time>2020-06-06T12:10:39.000Z</time>
      </trkpt>
      <trkpt lat="44.14219" lon="6.78307">
        <ele>1561.5999755859</ele>
        <time>2020-06-06T12:10:45.000Z</time>
      </trkpt>
      <trkpt lat="44.14222" lon="6.78307">
        <ele>1561.1999511719</ele>
        <time>2020-06-06T12:10:46.000Z</time>
      </trkpt>
      <trkpt lat="44.14233" lon="6.78303">
        <ele>1561.5999755859</ele>
        <time>2020-06-06T12:10:50.000Z</time>
      </trkpt>
      <trkpt lat="44.14241" lon="6.78299">
        <ele>1561.4000244141</ele>
        <time>2020-06-06T12:10:53.000Z</time>
      </trkpt>
      <trkpt lat="44.14248" lon="6.78293">
        <ele>1560.8000488281</ele>
        <time>2020-06-06T12:10:55.000Z</time>
      </trkpt>
      <trkpt lat="44.14253" lon="6.7829">
        <ele>1560.1999511719</ele>
        <time>2020-06-06T12:10:56.000Z</time>
      </trkpt>
      <trkpt lat="44.14258" lon="6.78288">
        <ele>1559.8000488281</ele>
        <time>2020-06-06T12:10:57.000Z</time>
      </trkpt>
      <trkpt lat="44.14263" lon="6.78285">
        <ele>1559.4000244141</ele>
        <time>2020-06-06T12:10:58.000Z</time>
      </trkpt>
      <trkpt lat="44.14273" lon="6.78277">
        <ele>1559</ele>
        <time>2020-06-06T12:11:00.000Z</time>
      </trkpt>
      <trkpt lat="44.14285" lon="6.78269">
        <ele>1558.4000244141</ele>
        <time>2020-06-06T12:11:02.000Z</time>
      </trkpt>
      <trkpt lat="44.14291" lon="6.78267">
        <ele>1557.8000488281</ele>
        <time>2020-06-06T12:11:03.000Z</time>
      </trkpt>
      <trkpt lat="44.143" lon="6.78262">
        <ele>1556.5999755859</ele>
        <time>2020-06-06T12:11:05.000Z</time>
      </trkpt>
      <trkpt lat="44.1431" lon="6.78256">
        <ele>1555.8000488281</ele>
        <time>2020-06-06T12:11:07.000Z</time>
      </trkpt>
      <trkpt lat="44.14315" lon="6.78254">
        <ele>1555.8000488281</ele>
        <time>2020-06-06T12:11:08.000Z</time>
      </trkpt>
      <trkpt lat="44.14321" lon="6.7825">
        <ele>1555.5999755859</ele>
        <time>2020-06-06T12:11:10.000Z</time>
      </trkpt>
      <trkpt lat="44.14324" lon="6.78248">
        <ele>1555.5999755859</ele>
        <time>2020-06-06T12:11:11.000Z</time>
      </trkpt>
      <trkpt lat="44.14342" lon="6.78235">
        <ele>1556</ele>
        <time>2020-06-06T12:11:16.000Z</time>
      </trkpt>
      <trkpt lat="44.14355" lon="6.78225">
        <ele>1556.8000488281</ele>
        <time>2020-06-06T12:11:21.000Z</time>
      </trkpt>
      <trkpt lat="44.14357" lon="6.78225">
        <ele>1556.8000488281</ele>
        <time>2020-06-06T12:11:22.000Z</time>
      </trkpt>
      <trkpt lat="44.14364" lon="6.7822">
        <ele>1558</ele>
        <time>2020-06-06T12:11:27.000Z</time>
      </trkpt>
      <trkpt lat="44.14372" lon="6.78217">
        <ele>1559</ele>
        <time>2020-06-06T12:11:32.000Z</time>
      </trkpt>
      <trkpt lat="44.14374" lon="6.78216">
        <ele>1559.5999755859</ele>
        <time>2020-06-06T12:11:34.000Z</time>
      </trkpt>
      <trkpt lat="44.14379" lon="6.78213">
        <ele>1560.1999511719</ele>
        <time>2020-06-06T12:11:38.000Z</time>
      </trkpt>
      <trkpt lat="44.14383" lon="6.7821">
        <ele>1561.4000244141</ele>
        <time>2020-06-06T12:11:41.000Z</time>
      </trkpt>
      <trkpt lat="44.14387" lon="6.78207">
        <ele>1562.5999755859</ele>
        <time>2020-06-06T12:11:45.000Z</time>
      </trkpt>
      <trkpt lat="44.14392" lon="6.78203">
        <ele>1563.5999755859</ele>
        <time>2020-06-06T12:11:49.000Z</time>
      </trkpt>
      <trkpt lat="44.14393" lon="6.78202">
        <ele>1563.8000488281</ele>
        <time>2020-06-06T12:11:50.000Z</time>
      </trkpt>
      <trkpt lat="44.14398" lon="6.782">
        <ele>1565</ele>
        <time>2020-06-06T12:11:54.000Z</time>
      </trkpt>
      <trkpt lat="44.14401" lon="6.78198">
        <ele>1565.4000244141</ele>
        <time>2020-06-06T12:11:56.000Z</time>
      </trkpt>
      <trkpt lat="44.1441" lon="6.78193">
        <ele>1565.8000488281</ele>
        <time>2020-06-06T12:12:01.000Z</time>
      </trkpt>
      <trkpt lat="44.14416" lon="6.78188">
        <ele>1565.4000244141</ele>
        <time>2020-06-06T12:12:04.000Z</time>
      </trkpt>
      <trkpt lat="44.14422" lon="6.78185">
        <ele>1564.8000488281</ele>
        <time>2020-06-06T12:12:06.000Z</time>
      </trkpt>
      <trkpt lat="44.14428" lon="6.78184">
        <ele>1564.5999755859</ele>
        <time>2020-06-06T12:12:08.000Z</time>
      </trkpt>
      <trkpt lat="44.14441" lon="6.78182">
        <ele>1564.4000244141</ele>
        <time>2020-06-06T12:12:13.000Z</time>
      </trkpt>
      <trkpt lat="44.14457" lon="6.78179">
        <ele>1565</ele>
        <time>2020-06-06T12:12:18.000Z</time>
      </trkpt>
      <trkpt lat="44.14468" lon="6.78173">
        <ele>1565.5999755859</ele>
        <time>2020-06-06T12:12:23.000Z</time>
      </trkpt>
      <trkpt lat="44.14471" lon="6.78173">
        <ele>1566</ele>
        <time>2020-06-06T12:12:24.000Z</time>
      </trkpt>
      <trkpt lat="44.14473" lon="6.78173">
        <ele>1566</ele>
        <time>2020-06-06T12:12:25.000Z</time>
      </trkpt>
      <trkpt lat="44.14487" lon="6.78178">
        <ele>1566.8000488281</ele>
        <time>2020-06-06T12:12:31.000Z</time>
      </trkpt>
      <trkpt lat="44.14491" lon="6.78183">
        <ele>1567.1999511719</ele>
        <time>2020-06-06T12:12:33.000Z</time>
      </trkpt>
      <trkpt lat="44.14496" lon="6.7819">
        <ele>1567.5999755859</ele>
        <time>2020-06-06T12:12:36.000Z</time>
      </trkpt>
      <trkpt lat="44.14507" lon="6.78204">
        <ele>1567</ele>
        <time>2020-06-06T12:12:40.000Z</time>
      </trkpt>
      <trkpt lat="44.1451" lon="6.78207">
        <ele>1566.8000488281</ele>
        <time>2020-06-06T12:12:41.000Z</time>
      </trkpt>
      <trkpt lat="44.1453" lon="6.78223">
        <ele>1566.1999511719</ele>
        <time>2020-06-06T12:12:47.000Z</time>
      </trkpt>
      <trkpt lat="44.14544" lon="6.78235">
        <ele>1566</ele>
        <time>2020-06-06T12:12:51.000Z</time>
      </trkpt>
      <trkpt lat="44.14555" lon="6.78243">
        <ele>1565</ele>
        <time>2020-06-06T12:12:54.000Z</time>
      </trkpt>
      <trkpt lat="44.14559" lon="6.78245">
        <ele>1564.8000488281</ele>
        <time>2020-06-06T12:12:55.000Z</time>
      </trkpt>
      <trkpt lat="44.14567" lon="6.7825">
        <ele>1564.8000488281</ele>
        <time>2020-06-06T12:12:57.000Z</time>
      </trkpt>
      <trkpt lat="44.1458" lon="6.78262">
        <ele>1565.1999511719</ele>
        <time>2020-06-06T12:13:02.000Z</time>
      </trkpt>
      <trkpt lat="44.14586" lon="6.78271">
        <ele>1566</ele>
        <time>2020-06-06T12:13:06.000Z</time>
      </trkpt>
      <trkpt lat="44.14592" lon="6.78281">
        <ele>1567</ele>
        <time>2020-06-06T12:13:10.000Z</time>
      </trkpt>
      <trkpt lat="44.14593" lon="6.78284">
        <ele>1567</ele>
        <time>2020-06-06T12:13:11.000Z</time>
      </trkpt>
      <trkpt lat="44.14595" lon="6.78288">
        <ele>1567</ele>
        <time>2020-06-06T12:13:12.000Z</time>
      </trkpt>
      <trkpt lat="44.146" lon="6.78298">
        <ele>1567.5999755859</ele>
        <time>2020-06-06T12:13:16.000Z</time>
      </trkpt>
      <trkpt lat="44.14603" lon="6.78304">
        <ele>1568</ele>
        <time>2020-06-06T12:13:19.000Z</time>
      </trkpt>
      <trkpt lat="44.14604" lon="6.78308">
        <ele>1568.4000244141</ele>
        <time>2020-06-06T12:13:21.000Z</time>
      </trkpt>
      <trkpt lat="44.14609" lon="6.78316">
        <ele>1569.1999511719</ele>
        <time>2020-06-06T12:13:25.000Z</time>
      </trkpt>
      <trkpt lat="44.1461" lon="6.7832">
        <ele>1569.5999755859</ele>
        <time>2020-06-06T12:13:27.000Z</time>
      </trkpt>
      <trkpt lat="44.1461" lon="6.78322">
        <ele>1569.5999755859</ele>
        <time>2020-06-06T12:13:28.000Z</time>
      </trkpt>
      <trkpt lat="44.14613" lon="6.78327">
        <ele>1570.4000244141</ele>
        <time>2020-06-06T12:13:31.000Z</time>
      </trkpt>
      <trkpt lat="44.14613" lon="6.78329">
        <ele>1570.8000488281</ele>
        <time>2020-06-06T12:13:32.000Z</time>
      </trkpt>
      <trkpt lat="44.14614" lon="6.78331">
        <ele>1571</ele>
        <time>2020-06-06T12:13:33.000Z</time>
      </trkpt>
      <trkpt lat="44.14615" lon="6.78336">
        <ele>1571.5999755859</ele>
        <time>2020-06-06T12:13:36.000Z</time>
      </trkpt>
      <trkpt lat="44.14618" lon="6.78343">
        <ele>1572</ele>
        <time>2020-06-06T12:13:39.000Z</time>
      </trkpt>
      <trkpt lat="44.14621" lon="6.78351">
        <ele>1572.5999755859</ele>
        <time>2020-06-06T12:13:43.000Z</time>
      </trkpt>
      <trkpt lat="44.14621" lon="6.78355">
        <ele>1573</ele>
        <time>2020-06-06T12:13:45.000Z</time>
      </trkpt>
      <trkpt lat="44.14622" lon="6.7836">
        <ele>1573.5999755859</ele>
        <time>2020-06-06T12:13:48.000Z</time>
      </trkpt>
      <trkpt lat="44.14623" lon="6.78363">
        <ele>1574.1999511719</ele>
        <time>2020-06-06T12:13:50.000Z</time>
      </trkpt>
      <trkpt lat="44.14624" lon="6.78369">
        <ele>1574.8000488281</ele>
        <time>2020-06-06T12:13:53.000Z</time>
      </trkpt>
      <trkpt lat="44.14624" lon="6.78373">
        <ele>1574.8000488281</ele>
        <time>2020-06-06T12:13:54.000Z</time>
      </trkpt>
      <trkpt lat="44.14624" lon="6.78375">
        <ele>1574.8000488281</ele>
        <time>2020-06-06T12:13:55.000Z</time>
      </trkpt>
      <trkpt lat="44.14624" lon="6.78388">
        <ele>1574.5999755859</ele>
        <time>2020-06-06T12:14:00.000Z</time>
      </trkpt>
      <trkpt lat="44.14626" lon="6.78397">
        <ele>1574.1999511719</ele>
        <time>2020-06-06T12:14:05.000Z</time>
      </trkpt>
      <trkpt lat="44.14631" lon="6.78403">
        <ele>1575</ele>
        <time>2020-06-06T12:14:10.000Z</time>
      </trkpt>
      <trkpt lat="44.14634" lon="6.78407">
        <ele>1576</ele>
        <time>2020-06-06T12:14:13.000Z</time>
      </trkpt>
      <trkpt lat="44.14639" lon="6.78413">
        <ele>1577</ele>
        <time>2020-06-06T12:14:17.000Z</time>
      </trkpt>
      <trkpt lat="44.14649" lon="6.78424">
        <ele>1577.8000488281</ele>
        <time>2020-06-06T12:14:22.000Z</time>
      </trkpt>
      <trkpt lat="44.14658" lon="6.78437">
        <ele>1578.1999511719</ele>
        <time>2020-06-06T12:14:28.000Z</time>
      </trkpt>
      <trkpt lat="44.14666" lon="6.78449">
        <ele>1579</ele>
        <time>2020-06-06T12:14:33.000Z</time>
      </trkpt>
      <trkpt lat="44.14674" lon="6.7846">
        <ele>1579.4000244141</ele>
        <time>2020-06-06T12:14:39.000Z</time>
      </trkpt>
      <trkpt lat="44.14683" lon="6.78473">
        <ele>1580.4000244141</ele>
        <time>2020-06-06T12:14:46.000Z</time>
      </trkpt>
      <trkpt lat="44.14692" lon="6.78493">
        <ele>1580.5999755859</ele>
        <time>2020-06-06T12:14:54.000Z</time>
      </trkpt>
      <trkpt lat="44.14698" lon="6.78508">
        <ele>1581</ele>
        <time>2020-06-06T12:15:00.000Z</time>
      </trkpt>
      <trkpt lat="44.14706" lon="6.78526">
        <ele>1581</ele>
        <time>2020-06-06T12:15:06.000Z</time>
      </trkpt>
      <trkpt lat="44.14713" lon="6.78539">
        <ele>1581</ele>
        <time>2020-06-06T12:15:11.000Z</time>
      </trkpt>
      <trkpt lat="44.14725" lon="6.78544">
        <ele>1581.1999511719</ele>
        <time>2020-06-06T12:15:16.000Z</time>
      </trkpt>
      <trkpt lat="44.14742" lon="6.78549">
        <ele>1581.1999511719</ele>
        <time>2020-06-06T12:15:21.000Z</time>
      </trkpt>
      <trkpt lat="44.14763" lon="6.78555">
        <ele>1579.8000488281</ele>
        <time>2020-06-06T12:15:26.000Z</time>
      </trkpt>
      <trkpt lat="44.14766" lon="6.78557">
        <ele>1579.1999511719</ele>
        <time>2020-06-06T12:15:27.000Z</time>
      </trkpt>
      <trkpt lat="44.14775" lon="6.7856">
        <ele>1578.8000488281</ele>
        <time>2020-06-06T12:15:30.000Z</time>
      </trkpt>
      <trkpt lat="44.1479" lon="6.78574">
        <ele>1578.8000488281</ele>
        <time>2020-06-06T12:15:34.000Z</time>
      </trkpt>
      <trkpt lat="44.148" lon="6.78581">
        <ele>1577.8000488281</ele>
        <time>2020-06-06T12:15:36.000Z</time>
      </trkpt>
      <trkpt lat="44.14804" lon="6.78583">
        <ele>1577.1999511719</ele>
        <time>2020-06-06T12:15:37.000Z</time>
      </trkpt>
      <trkpt lat="44.14807" lon="6.78585">
        <ele>1576.1999511719</ele>
        <time>2020-06-06T12:15:38.000Z</time>
      </trkpt>
      <trkpt lat="44.14816" lon="6.78588">
        <ele>1575</ele>
        <time>2020-06-06T12:15:41.000Z</time>
      </trkpt>
      <trkpt lat="44.14827" lon="6.78597">
        <ele>1575.8000488281</ele>
        <time>2020-06-06T12:15:45.000Z</time>
      </trkpt>
      <trkpt lat="44.14842" lon="6.7861">
        <ele>1575.8000488281</ele>
        <time>2020-06-06T12:15:50.000Z</time>
      </trkpt>
      <trkpt lat="44.14846" lon="6.78613">
        <ele>1575.8000488281</ele>
        <time>2020-06-06T12:15:51.000Z</time>
      </trkpt>
      <trkpt lat="44.14854" lon="6.78622">
        <ele>1575.8000488281</ele>
        <time>2020-06-06T12:15:54.000Z</time>
      </trkpt>
      <trkpt lat="44.14857" lon="6.78626">
        <ele>1575.5999755859</ele>
        <time>2020-06-06T12:15:55.000Z</time>
      </trkpt>
      <trkpt lat="44.14868" lon="6.78641">
        <ele>1574.8000488281</ele>
        <time>2020-06-06T12:15:58.000Z</time>
      </trkpt>
      <trkpt lat="44.14871" lon="6.78647">
        <ele>1574.4000244141</ele>
        <time>2020-06-06T12:15:59.000Z</time>
      </trkpt>
      <trkpt lat="44.14881" lon="6.78658">
        <ele>1573.5999755859</ele>
        <time>2020-06-06T12:16:01.000Z</time>
      </trkpt>
      <trkpt lat="44.14886" lon="6.78663">
        <ele>1573.1999511719</ele>
        <time>2020-06-06T12:16:02.000Z</time>
      </trkpt>
      <trkpt lat="44.14897" lon="6.78674">
        <ele>1572.4000244141</ele>
        <time>2020-06-06T12:16:04.000Z</time>
      </trkpt>
      <trkpt lat="44.149" lon="6.78679">
        <ele>1571.5999755859</ele>
        <time>2020-06-06T12:16:05.000Z</time>
      </trkpt>
      <trkpt lat="44.14904" lon="6.78687">
        <ele>1570.4000244141</ele>
        <time>2020-06-06T12:16:06.000Z</time>
      </trkpt>
      <trkpt lat="44.14907" lon="6.78693">
        <ele>1569.8000488281</ele>
        <time>2020-06-06T12:16:07.000Z</time>
      </trkpt>
      <trkpt lat="44.1491" lon="6.78701">
        <ele>1569</ele>
        <time>2020-06-06T12:16:08.000Z</time>
      </trkpt>
      <trkpt lat="44.14917" lon="6.7872">
        <ele>1567.5999755859</ele>
        <time>2020-06-06T12:16:11.000Z</time>
      </trkpt>
      <trkpt lat="44.14924" lon="6.78731">
        <ele>1566.1999511719</ele>
        <time>2020-06-06T12:16:13.000Z</time>
      </trkpt>
      <trkpt lat="44.14932" lon="6.78754">
        <ele>1564.8000488281</ele>
        <time>2020-06-06T12:16:16.000Z</time>
      </trkpt>
      <trkpt lat="44.14936" lon="6.78759">
        <ele>1565</ele>
        <time>2020-06-06T12:16:19.000Z</time>
      </trkpt>
      <trkpt lat="44.14947" lon="6.78758">
        <ele>1564</ele>
        <time>2020-06-06T12:16:22.000Z</time>
      </trkpt>
      <trkpt lat="44.14949" lon="6.78755">
        <ele>1563.4000244141</ele>
        <time>2020-06-06T12:16:23.000Z</time>
      </trkpt>
      <trkpt lat="44.14954" lon="6.78755">
        <ele>1561.4000244141</ele>
        <time>2020-06-06T12:16:25.000Z</time>
      </trkpt>
      <trkpt lat="44.14956" lon="6.78758">
        <ele>1560.4000244141</ele>
        <time>2020-06-06T12:16:26.000Z</time>
      </trkpt>
      <trkpt lat="44.14959" lon="6.78764">
        <ele>1558.5999755859</ele>
        <time>2020-06-06T12:16:28.000Z</time>
      </trkpt>
      <trkpt lat="44.14963" lon="6.78764">
        <ele>1557.4000244141</ele>
        <time>2020-06-06T12:16:30.000Z</time>
      </trkpt>
      <trkpt lat="44.14965" lon="6.78762">
        <ele>1557</ele>
        <time>2020-06-06T12:16:31.000Z</time>
      </trkpt>
      <trkpt lat="44.1497" lon="6.78759">
        <ele>1556.4000244141</ele>
        <time>2020-06-06T12:16:33.000Z</time>
      </trkpt>
      <trkpt lat="44.14975" lon="6.78757">
        <ele>1555.4000244141</ele>
        <time>2020-06-06T12:16:35.000Z</time>
      </trkpt>
      <trkpt lat="44.14979" lon="6.78755">
        <ele>1554.8000488281</ele>
        <time>2020-06-06T12:16:36.000Z</time>
      </trkpt>
      <trkpt lat="44.14989" lon="6.78749">
        <ele>1553.8000488281</ele>
        <time>2020-06-06T12:16:38.000Z</time>
      </trkpt>
      <trkpt lat="44.14998" lon="6.78743">
        <ele>1552</ele>
        <time>2020-06-06T12:16:40.000Z</time>
      </trkpt>
      <trkpt lat="44.15" lon="6.78738">
        <ele>1551.1999511719</ele>
        <time>2020-06-06T12:16:41.000Z</time>
      </trkpt>
      <trkpt lat="44.15002" lon="6.78732">
        <ele>1549.5999755859</ele>
        <time>2020-06-06T12:16:42.000Z</time>
      </trkpt>
      <trkpt lat="44.15003" lon="6.78726">
        <ele>1548.1999511719</ele>
        <time>2020-06-06T12:16:43.000Z</time>
      </trkpt>
      <trkpt lat="44.15003" lon="6.7872">
        <ele>1547.5999755859</ele>
        <time>2020-06-06T12:16:44.000Z</time>
      </trkpt>
      <trkpt lat="44.15004" lon="6.78716">
        <ele>1547</ele>
        <time>2020-06-06T12:16:45.000Z</time>
      </trkpt>
      <trkpt lat="44.15007" lon="6.78712">
        <ele>1546.1999511719</ele>
        <time>2020-06-06T12:16:47.000Z</time>
      </trkpt>
      <trkpt lat="44.15009" lon="6.7871">
        <ele>1545.5999755859</ele>
        <time>2020-06-06T12:16:48.000Z</time>
      </trkpt>
      <trkpt lat="44.15007" lon="6.78705">
        <ele>1544.4000244141</ele>
        <time>2020-06-06T12:16:50.000Z</time>
      </trkpt>
      <trkpt lat="44.15006" lon="6.78695">
        <ele>1543.4000244141</ele>
        <time>2020-06-06T12:16:52.000Z</time>
      </trkpt>
      <trkpt lat="44.15005" lon="6.78688">
        <ele>1542</ele>
        <time>2020-06-06T12:16:54.000Z</time>
      </trkpt>
      <trkpt lat="44.15003" lon="6.78679">
        <ele>1540.4000244141</ele>
        <time>2020-06-06T12:16:56.000Z</time>
      </trkpt>
      <trkpt lat="44.15001" lon="6.78675">
        <ele>1539.4000244141</ele>
        <time>2020-06-06T12:16:57.000Z</time>
      </trkpt>
      <trkpt lat="44.14999" lon="6.78671">
        <ele>1538.4000244141</ele>
        <time>2020-06-06T12:16:58.000Z</time>
      </trkpt>
      <trkpt lat="44.14998" lon="6.78668">
        <ele>1537.5999755859</ele>
        <time>2020-06-06T12:16:59.000Z</time>
      </trkpt>
      <trkpt lat="44.14997" lon="6.78662">
        <ele>1535.4000244141</ele>
        <time>2020-06-06T12:17:01.000Z</time>
      </trkpt>
      <trkpt lat="44.14997" lon="6.78657">
        <ele>1535</ele>
        <time>2020-06-06T12:17:02.000Z</time>
      </trkpt>
      <trkpt lat="44.14996" lon="6.78653">
        <ele>1534.4000244141</ele>
        <time>2020-06-06T12:17:03.000Z</time>
      </trkpt>
      <trkpt lat="44.14997" lon="6.78646">
        <ele>1532.5999755859</ele>
        <time>2020-06-06T12:17:05.000Z</time>
      </trkpt>
      <trkpt lat="44.14997" lon="6.78642">
        <ele>1531.8000488281</ele>
        <time>2020-06-06T12:17:06.000Z</time>
      </trkpt>
      <trkpt lat="44.14996" lon="6.7864">
        <ele>1531</ele>
        <time>2020-06-06T12:17:07.000Z</time>
      </trkpt>
      <trkpt lat="44.14993" lon="6.78629">
        <ele>1529.8000488281</ele>
        <time>2020-06-06T12:17:09.000Z</time>
      </trkpt>
      <trkpt lat="44.14987" lon="6.78621">
        <ele>1528.4000244141</ele>
        <time>2020-06-06T12:17:12.000Z</time>
      </trkpt>
      <trkpt lat="44.14986" lon="6.78617">
        <ele>1527.5999755859</ele>
        <time>2020-06-06T12:17:13.000Z</time>
      </trkpt>
      <trkpt lat="44.14985" lon="6.78614">
        <ele>1527</ele>
        <time>2020-06-06T12:17:14.000Z</time>
      </trkpt>
      <trkpt lat="44.14983" lon="6.78606">
        <ele>1525.5999755859</ele>
        <time>2020-06-06T12:17:16.000Z</time>
      </trkpt>
      <trkpt lat="44.14982" lon="6.78602">
        <ele>1525</ele>
        <time>2020-06-06T12:17:17.000Z</time>
      </trkpt>
      <trkpt lat="44.14982" lon="6.78598">
        <ele>1524.4000244141</ele>
        <time>2020-06-06T12:17:18.000Z</time>
      </trkpt>
      <trkpt lat="44.14982" lon="6.78595">
        <ele>1523.1999511719</ele>
        <time>2020-06-06T12:17:19.000Z</time>
      </trkpt>
      <trkpt lat="44.14984" lon="6.78591">
        <ele>1522</ele>
        <time>2020-06-06T12:17:21.000Z</time>
      </trkpt>
      <trkpt lat="44.14986" lon="6.78595">
        <ele>1520.8000488281</ele>
        <time>2020-06-06T12:17:23.000Z</time>
      </trkpt>
      <trkpt lat="44.14987" lon="6.78597">
        <ele>1520.1999511719</ele>
        <time>2020-06-06T12:17:24.000Z</time>
      </trkpt>
      <trkpt lat="44.1499" lon="6.786">
        <ele>1519.5999755859</ele>
        <time>2020-06-06T12:17:26.000Z</time>
      </trkpt>
      <trkpt lat="44.14994" lon="6.78601">
        <ele>1519.1999511719</ele>
        <time>2020-06-06T12:17:28.000Z</time>
      </trkpt>
      <trkpt lat="44.14999" lon="6.78598">
        <ele>1518.1999511719</ele>
        <time>2020-06-06T12:17:31.000Z</time>
      </trkpt>
      <trkpt lat="44.14998" lon="6.78595">
        <ele>1517.4000244141</ele>
        <time>2020-06-06T12:17:32.000Z</time>
      </trkpt>
      <trkpt lat="44.14997" lon="6.78591">
        <ele>1516.8000488281</ele>
        <time>2020-06-06T12:17:33.000Z</time>
      </trkpt>
      <trkpt lat="44.14995" lon="6.78586">
        <ele>1516.1999511719</ele>
        <time>2020-06-06T12:17:34.000Z</time>
      </trkpt>
      <trkpt lat="44.14993" lon="6.78581">
        <ele>1515.4000244141</ele>
        <time>2020-06-06T12:17:35.000Z</time>
      </trkpt>
      <trkpt lat="44.14989" lon="6.7857">
        <ele>1514</ele>
        <time>2020-06-06T12:17:37.000Z</time>
      </trkpt>
      <trkpt lat="44.1499" lon="6.78566">
        <ele>1513.4000244141</ele>
        <time>2020-06-06T12:17:38.000Z</time>
      </trkpt>
      <trkpt lat="44.14992" lon="6.78564">
        <ele>1512.8000488281</ele>
        <time>2020-06-06T12:17:39.000Z</time>
      </trkpt>
      <trkpt lat="44.14994" lon="6.78558">
        <ele>1512</ele>
        <time>2020-06-06T12:17:41.000Z</time>
      </trkpt>
      <trkpt lat="44.14994" lon="6.78554">
        <ele>1511.4000244141</ele>
        <time>2020-06-06T12:17:42.000Z</time>
      </trkpt>
      <trkpt lat="44.14994" lon="6.78552">
        <ele>1510.8000488281</ele>
        <time>2020-06-06T12:17:43.000Z</time>
      </trkpt>
      <trkpt lat="44.14994" lon="6.78552">
        <ele>1510.4000244141</ele>
        <time>2020-06-06T12:17:45.000Z</time>
      </trkpt>
      <trkpt lat="44.14995" lon="6.78551">
        <ele>1509.5999755859</ele>
        <time>2020-06-06T12:17:47.000Z</time>
      </trkpt>
      <trkpt lat="44.14995" lon="6.7855">
        <ele>1509.4000244141</ele>
        <time>2020-06-06T12:17:54.000Z</time>
      </trkpt>
      <trkpt lat="44.14995" lon="6.7855">
        <ele>1509.4000244141</ele>
        <time>2020-06-06T12:17:56.000Z</time>
      </trkpt>
      <trkpt lat="44.14993" lon="6.78548">
        <ele>1509.1999511719</ele>
        <time>2020-06-06T12:18:08.000Z</time>
      </trkpt>
      <trkpt lat="44.14994" lon="6.78547">
        <ele>1509</ele>
        <time>2020-06-06T12:18:15.000Z</time>
      </trkpt>
      <trkpt lat="44.14995" lon="6.78548">
        <ele>1508.4000244141</ele>
        <time>2020-06-06T12:18:20.000Z</time>
      </trkpt>
      <trkpt lat="44.14995" lon="6.78548">
        <ele>1508.1999511719</ele>
        <time>2020-06-06T12:18:22.000Z</time>
      </trkpt>
      <trkpt lat="44.14996" lon="6.78549">
        <ele>1508.1999511719</ele>
        <time>2020-06-06T12:18:30.000Z</time>
      </trkpt>
      <trkpt lat="44.14998" lon="6.7855">
        <ele>1508</ele>
        <time>2020-06-06T12:18:38.000Z</time>
      </trkpt>
      <trkpt lat="44.14998" lon="6.78549">
        <ele>1508.1999511719</ele>
        <time>2020-06-06T12:18:44.000Z</time>
      </trkpt>
      <trkpt lat="44.14998" lon="6.78548">
        <ele>1507.5999755859</ele>
        <time>2020-06-06T12:18:50.000Z</time>
      </trkpt>
      <trkpt lat="44.14996" lon="6.78544">
        <ele>1508</ele>
        <time>2020-06-06T12:18:56.000Z</time>
      </trkpt>
      <trkpt lat="44.14995" lon="6.78543">
        <ele>1507.8000488281</ele>
        <time>2020-06-06T12:18:57.000Z</time>
      </trkpt>
      <trkpt lat="44.14993" lon="6.78539">
        <ele>1509.4000244141</ele>
        <time>2020-06-06T12:19:05.000Z</time>
      </trkpt>
      <trkpt lat="44.14993" lon="6.78536">
        <ele>1510</ele>
        <time>2020-06-06T12:19:11.000Z</time>
      </trkpt>
      <trkpt lat="44.14992" lon="6.78536">
        <ele>1510</ele>
        <time>2020-06-06T12:19:19.000Z</time>
      </trkpt>
      <trkpt lat="44.14994" lon="6.78529">
        <ele>1510.1999511719</ele>
        <time>2020-06-06T12:19:25.000Z</time>
      </trkpt>
      <trkpt lat="44.14994" lon="6.78526">
        <ele>1510.4000244141</ele>
        <time>2020-06-06T12:19:28.000Z</time>
      </trkpt>
      <trkpt lat="44.14993" lon="6.78524">
        <ele>1510.5999755859</ele>
        <time>2020-06-06T12:19:29.000Z</time>
      </trkpt>
      <trkpt lat="44.14995" lon="6.78508">
        <ele>1510.5999755859</ele>
        <time>2020-06-06T12:19:34.000Z</time>
      </trkpt>
      <trkpt lat="44.14997" lon="6.78497">
        <ele>1510.1999511719</ele>
        <time>2020-06-06T12:19:38.000Z</time>
      </trkpt>
      <trkpt lat="44.14992" lon="6.78485">
        <ele>1509.4000244141</ele>
        <time>2020-06-06T12:19:42.000Z</time>
      </trkpt>
      <trkpt lat="44.14991" lon="6.78477">
        <ele>1509</ele>
        <time>2020-06-06T12:19:46.000Z</time>
      </trkpt>
      <trkpt lat="44.14991" lon="6.78475">
        <ele>1509.1999511719</ele>
        <time>2020-06-06T12:19:50.000Z</time>
      </trkpt>
      <trkpt lat="44.14988" lon="6.78466">
        <ele>1509.8000488281</ele>
        <time>2020-06-06T12:19:55.000Z</time>
      </trkpt>
      <trkpt lat="44.14978" lon="6.78444">
        <ele>1509.1999511719</ele>
        <time>2020-06-06T12:20:01.000Z</time>
      </trkpt>
      <trkpt lat="44.14969" lon="6.78428">
        <ele>1508.1999511719</ele>
        <time>2020-06-06T12:20:06.000Z</time>
      </trkpt>
      <trkpt lat="44.14964" lon="6.78415">
        <ele>1508.8000488281</ele>
        <time>2020-06-06T12:20:12.000Z</time>
      </trkpt>
      <trkpt lat="44.14959" lon="6.78402">
        <ele>1508.5999755859</ele>
        <time>2020-06-06T12:20:17.000Z</time>
      </trkpt>
      <trkpt lat="44.14956" lon="6.78399">
        <ele>1509</ele>
        <time>2020-06-06T12:20:20.000Z</time>
      </trkpt>
      <trkpt lat="44.14954" lon="6.78397">
        <ele>1509.4000244141</ele>
        <time>2020-06-06T12:20:21.000Z</time>
      </trkpt>
      <trkpt lat="44.14952" lon="6.78395">
        <ele>1510.1999511719</ele>
        <time>2020-06-06T12:20:23.000Z</time>
      </trkpt>
      <trkpt lat="44.14951" lon="6.78394">
        <ele>1510.8000488281</ele>
        <time>2020-06-06T12:20:24.000Z</time>
      </trkpt>
      <trkpt lat="44.14949" lon="6.78392">
        <ele>1511.4000244141</ele>
        <time>2020-06-06T12:20:26.000Z</time>
      </trkpt>
      <trkpt lat="44.14946" lon="6.78391">
        <ele>1511.8000488281</ele>
        <time>2020-06-06T12:20:28.000Z</time>
      </trkpt>
      <trkpt lat="44.14944" lon="6.7839">
        <ele>1512</ele>
        <time>2020-06-06T12:20:29.000Z</time>
      </trkpt>
      <trkpt lat="44.14941" lon="6.78386">
        <ele>1513</ele>
        <time>2020-06-06T12:20:32.000Z</time>
      </trkpt>
      <trkpt lat="44.14937" lon="6.78384">
        <ele>1513.8000488281</ele>
        <time>2020-06-06T12:20:35.000Z</time>
      </trkpt>
      <trkpt lat="44.14935" lon="6.78383">
        <ele>1514</ele>
        <time>2020-06-06T12:20:36.000Z</time>
      </trkpt>
      <trkpt lat="44.14928" lon="6.78375">
        <ele>1514.8000488281</ele>
        <time>2020-06-06T12:20:42.000Z</time>
      </trkpt>
      <trkpt lat="44.14926" lon="6.78374">
        <ele>1515</ele>
        <time>2020-06-06T12:20:43.000Z</time>
      </trkpt>
      <trkpt lat="44.1492" lon="6.78368">
        <ele>1516.1999511719</ele>
        <time>2020-06-06T12:20:48.000Z</time>
      </trkpt>
      <trkpt lat="44.14919" lon="6.78368">
        <ele>1516.4000244141</ele>
        <time>2020-06-06T12:20:49.000Z</time>
      </trkpt>
      <trkpt lat="44.14916" lon="6.78366">
        <ele>1517</ele>
        <time>2020-06-06T12:20:52.000Z</time>
      </trkpt>
      <trkpt lat="44.14913" lon="6.78365">
        <ele>1517.1999511719</ele>
        <time>2020-06-06T12:20:54.000Z</time>
      </trkpt>
      <trkpt lat="44.14912" lon="6.78365">
        <ele>1517.1999511719</ele>
        <time>2020-06-06T12:20:55.000Z</time>
      </trkpt>
      <trkpt lat="44.14906" lon="6.7836">
        <ele>1517.8000488281</ele>
        <time>2020-06-06T12:21:00.000Z</time>
      </trkpt>
      <trkpt lat="44.14905" lon="6.78359">
        <ele>1518.1999511719</ele>
        <time>2020-06-06T12:21:03.000Z</time>
      </trkpt>
      <trkpt lat="44.14904" lon="6.78358">
        <ele>1518.8000488281</ele>
        <time>2020-06-06T12:21:05.000Z</time>
      </trkpt>
      <trkpt lat="44.149" lon="6.78355">
        <ele>1519.5999755859</ele>
        <time>2020-06-06T12:21:11.000Z</time>
      </trkpt>
      <trkpt lat="44.14899" lon="6.78353">
        <ele>1520</ele>
        <time>2020-06-06T12:21:13.000Z</time>
      </trkpt>
      <trkpt lat="44.14897" lon="6.78352">
        <ele>1520.5999755859</ele>
        <time>2020-06-06T12:21:18.000Z</time>
      </trkpt>
      <trkpt lat="44.14897" lon="6.78352">
        <ele>1520.5999755859</ele>
        <time>2020-06-06T12:21:19.000Z</time>
      </trkpt>
      <trkpt lat="44.14895" lon="6.78351">
        <ele>1520.5999755859</ele>
        <time>2020-06-06T12:21:20.000Z</time>
      </trkpt>
      <trkpt lat="44.1489" lon="6.78346">
        <ele>1521</ele>
        <time>2020-06-06T12:21:24.000Z</time>
      </trkpt>
      <trkpt lat="44.14881" lon="6.78337">
        <ele>1521.4000244141</ele>
        <time>2020-06-06T12:21:30.000Z</time>
      </trkpt>
      <trkpt lat="44.14877" lon="6.78332">
        <ele>1521.5999755859</ele>
        <time>2020-06-06T12:21:32.000Z</time>
      </trkpt>
      <trkpt lat="44.1487" lon="6.78322">
        <ele>1521.8000488281</ele>
        <time>2020-06-06T12:21:36.000Z</time>
      </trkpt>
      <trkpt lat="44.14867" lon="6.78312">
        <ele>1522.8000488281</ele>
        <time>2020-06-06T12:21:41.000Z</time>
      </trkpt>
      <trkpt lat="44.14864" lon="6.78302">
        <ele>1524.1999511719</ele>
        <time>2020-06-06T12:21:46.000Z</time>
      </trkpt>
      <trkpt lat="44.14862" lon="6.78299">
        <ele>1524.8000488281</ele>
        <time>2020-06-06T12:21:48.000Z</time>
      </trkpt>
      <trkpt lat="44.1486" lon="6.78295">
        <ele>1525.1999511719</ele>
        <time>2020-06-06T12:21:50.000Z</time>
      </trkpt>
      <trkpt lat="44.1486" lon="6.78285">
        <ele>1525.8000488281</ele>
        <time>2020-06-06T12:21:54.000Z</time>
      </trkpt>
      <trkpt lat="44.1486" lon="6.78282">
        <ele>1525.8000488281</ele>
        <time>2020-06-06T12:21:56.000Z</time>
      </trkpt>
      <trkpt lat="44.1486" lon="6.78279">
        <ele>1526</ele>
        <time>2020-06-06T12:21:58.000Z</time>
      </trkpt>
      <trkpt lat="44.1486" lon="6.78275">
        <ele>1526.5999755859</ele>
        <time>2020-06-06T12:22:00.000Z</time>
      </trkpt>
      <trkpt lat="44.14861" lon="6.7827">
        <ele>1527.1999511719</ele>
        <time>2020-06-06T12:22:03.000Z</time>
      </trkpt>
      <trkpt lat="44.14862" lon="6.78262">
        <ele>1527.5999755859</ele>
        <time>2020-06-06T12:22:06.000Z</time>
      </trkpt>
      <trkpt lat="44.14862" lon="6.78257">
        <ele>1527.8000488281</ele>
        <time>2020-06-06T12:22:08.000Z</time>
      </trkpt>
      <trkpt lat="44.14864" lon="6.78233">
        <ele>1527.8000488281</ele>
        <time>2020-06-06T12:22:15.000Z</time>
      </trkpt>
      <trkpt lat="44.14864" lon="6.78216">
        <ele>1527.8000488281</ele>
        <time>2020-06-06T12:22:20.000Z</time>
      </trkpt>
      <trkpt lat="44.14863" lon="6.78197">
        <ele>1527.4000244141</ele>
        <time>2020-06-06T12:22:25.000Z</time>
      </trkpt>
      <trkpt lat="44.14861" lon="6.78177">
        <ele>1527.5999755859</ele>
        <time>2020-06-06T12:22:30.000Z</time>
      </trkpt>
      <trkpt lat="44.14851" lon="6.78143">
        <ele>1527.5999755859</ele>
        <time>2020-06-06T12:22:38.000Z</time>
      </trkpt>
      <trkpt lat="44.14845" lon="6.7812">
        <ele>1527.8000488281</ele>
        <time>2020-06-06T12:22:43.000Z</time>
      </trkpt>
      <trkpt lat="44.14846" lon="6.78101">
        <ele>1527.4000244141</ele>
        <time>2020-06-06T12:22:47.000Z</time>
      </trkpt>
      <trkpt lat="44.14848" lon="6.78097">
        <ele>1527.4000244141</ele>
        <time>2020-06-06T12:22:48.000Z</time>
      </trkpt>
      <trkpt lat="44.14856" lon="6.78085">
        <ele>1527</ele>
        <time>2020-06-06T12:22:51.000Z</time>
      </trkpt>
      <trkpt lat="44.1487" lon="6.78056">
        <ele>1527</ele>
        <time>2020-06-06T12:22:57.000Z</time>
      </trkpt>
      <trkpt lat="44.14877" lon="6.78039">
        <ele>1526.1999511719</ele>
        <time>2020-06-06T12:23:00.000Z</time>
      </trkpt>
      <trkpt lat="44.14878" lon="6.78025">
        <ele>1525.8000488281</ele>
        <time>2020-06-06T12:23:02.000Z</time>
      </trkpt>
      <trkpt lat="44.14877" lon="6.78012">
        <ele>1525.1999511719</ele>
        <time>2020-06-06T12:23:04.000Z</time>
      </trkpt>
      <trkpt lat="44.14873" lon="6.78">
        <ele>1525.5999755859</ele>
        <time>2020-06-06T12:23:06.000Z</time>
      </trkpt>
      <trkpt lat="44.14861" lon="6.77975">
        <ele>1525.5999755859</ele>
        <time>2020-06-06T12:23:11.000Z</time>
      </trkpt>
      <trkpt lat="44.14858" lon="6.7797">
        <ele>1525.8000488281</ele>
        <time>2020-06-06T12:23:12.000Z</time>
      </trkpt>
      <trkpt lat="44.14849" lon="6.77956">
        <ele>1526.4000244141</ele>
        <time>2020-06-06T12:23:15.000Z</time>
      </trkpt>
      <trkpt lat="44.14846" lon="6.7795">
        <ele>1526.4000244141</ele>
        <time>2020-06-06T12:23:16.000Z</time>
      </trkpt>
      <trkpt lat="44.14841" lon="6.77941">
        <ele>1526.1999511719</ele>
        <time>2020-06-06T12:23:18.000Z</time>
      </trkpt>
      <trkpt lat="44.14839" lon="6.77922">
        <ele>1526.1999511719</ele>
        <time>2020-06-06T12:23:21.000Z</time>
      </trkpt>
      <trkpt lat="44.1484" lon="6.77916">
        <ele>1526.1999511719</ele>
        <time>2020-06-06T12:23:22.000Z</time>
      </trkpt>
      <trkpt lat="44.14845" lon="6.77886">
        <ele>1525.4000244141</ele>
        <time>2020-06-06T12:23:27.000Z</time>
      </trkpt>
      <trkpt lat="44.14846" lon="6.77881">
        <ele>1525.1999511719</ele>
        <time>2020-06-06T12:23:28.000Z</time>
      </trkpt>
      <trkpt lat="44.14846" lon="6.77863">
        <ele>1525</ele>
        <time>2020-06-06T12:23:31.000Z</time>
      </trkpt>
      <trkpt lat="44.14845" lon="6.7785">
        <ele>1525.4000244141</ele>
        <time>2020-06-06T12:23:33.000Z</time>
      </trkpt>
      <trkpt lat="44.14843" lon="6.77831">
        <ele>1525.4000244141</ele>
        <time>2020-06-06T12:23:36.000Z</time>
      </trkpt>
      <trkpt lat="44.14842" lon="6.77825">
        <ele>1525.1999511719</ele>
        <time>2020-06-06T12:23:37.000Z</time>
      </trkpt>
      <trkpt lat="44.1483" lon="6.77804">
        <ele>1525</ele>
        <time>2020-06-06T12:23:41.000Z</time>
      </trkpt>
      <trkpt lat="44.14827" lon="6.77799">
        <ele>1525</ele>
        <time>2020-06-06T12:23:42.000Z</time>
      </trkpt>
      <trkpt lat="44.14822" lon="6.77789">
        <ele>1524.5999755859</ele>
        <time>2020-06-06T12:23:45.000Z</time>
      </trkpt>
      <trkpt lat="44.14816" lon="6.77769">
        <ele>1526.4000244141</ele>
        <time>2020-06-06T12:23:50.000Z</time>
      </trkpt>
      <trkpt lat="44.14815" lon="6.77764">
        <ele>1526.4000244141</ele>
        <time>2020-06-06T12:23:51.000Z</time>
      </trkpt>
      <trkpt lat="44.14815" lon="6.77753">
        <ele>1526.1999511719</ele>
        <time>2020-06-06T12:23:53.000Z</time>
      </trkpt>
      <trkpt lat="44.14818" lon="6.77738">
        <ele>1526</ele>
        <time>2020-06-06T12:23:56.000Z</time>
      </trkpt>
      <trkpt lat="44.1482" lon="6.77729">
        <ele>1526.1999511719</ele>
        <time>2020-06-06T12:23:58.000Z</time>
      </trkpt>
      <trkpt lat="44.14824" lon="6.77712">
        <ele>1526.8000488281</ele>
        <time>2020-06-06T12:24:02.000Z</time>
      </trkpt>
      <trkpt lat="44.14825" lon="6.77697">
        <ele>1527.4000244141</ele>
        <time>2020-06-06T12:24:05.000Z</time>
      </trkpt>
      <trkpt lat="44.14827" lon="6.77689">
        <ele>1527.1999511719</ele>
        <time>2020-06-06T12:24:06.000Z</time>
      </trkpt>
      <trkpt lat="44.14832" lon="6.77674">
        <ele>1526.1999511719</ele>
        <time>2020-06-06T12:24:08.000Z</time>
      </trkpt>
      <trkpt lat="44.14834" lon="6.7766">
        <ele>1525</ele>
        <time>2020-06-06T12:24:10.000Z</time>
      </trkpt>
      <trkpt lat="44.14832" lon="6.7764">
        <ele>1525</ele>
        <time>2020-06-06T12:24:14.000Z</time>
      </trkpt>
      <trkpt lat="44.14831" lon="6.77635">
        <ele>1524.8000488281</ele>
        <time>2020-06-06T12:24:15.000Z</time>
      </trkpt>
      <trkpt lat="44.14826" lon="6.77615">
        <ele>1525</ele>
        <time>2020-06-06T12:24:19.000Z</time>
      </trkpt>
      <trkpt lat="44.14826" lon="6.77591">
        <ele>1526</ele>
        <time>2020-06-06T12:24:24.000Z</time>
      </trkpt>
      <trkpt lat="44.14827" lon="6.77587">
        <ele>1526.1999511719</ele>
        <time>2020-06-06T12:24:25.000Z</time>
      </trkpt>
      <trkpt lat="44.14833" lon="6.7758">
        <ele>1526.8000488281</ele>
        <time>2020-06-06T12:24:27.000Z</time>
      </trkpt>
      <trkpt lat="44.14836" lon="6.77577">
        <ele>1526.8000488281</ele>
        <time>2020-06-06T12:24:28.000Z</time>
      </trkpt>
      <trkpt lat="44.14839" lon="6.77573">
        <ele>1527</ele>
        <time>2020-06-06T12:24:29.000Z</time>
      </trkpt>
      <trkpt lat="44.1485" lon="6.77563">
        <ele>1526.8000488281</ele>
        <time>2020-06-06T12:24:32.000Z</time>
      </trkpt>
      <trkpt lat="44.14863" lon="6.77556">
        <ele>1526.8000488281</ele>
        <time>2020-06-06T12:24:36.000Z</time>
      </trkpt>
      <trkpt lat="44.14872" lon="6.7755">
        <ele>1527.5999755859</ele>
        <time>2020-06-06T12:24:39.000Z</time>
      </trkpt>
      <trkpt lat="44.14875" lon="6.77547">
        <ele>1527.5999755859</ele>
        <time>2020-06-06T12:24:40.000Z</time>
      </trkpt>
      <trkpt lat="44.14878" lon="6.77544">
        <ele>1527.4000244141</ele>
        <time>2020-06-06T12:24:41.000Z</time>
      </trkpt>
      <trkpt lat="44.14885" lon="6.77539">
        <ele>1527.4000244141</ele>
        <time>2020-06-06T12:24:43.000Z</time>
      </trkpt>
      <trkpt lat="44.14897" lon="6.77528">
        <ele>1527</ele>
        <time>2020-06-06T12:24:46.000Z</time>
      </trkpt>
      <trkpt lat="44.14909" lon="6.77514">
        <ele>1526.1999511719</ele>
        <time>2020-06-06T12:24:49.000Z</time>
      </trkpt>
      <trkpt lat="44.14915" lon="6.77511">
        <ele>1526</ele>
        <time>2020-06-06T12:24:50.000Z</time>
      </trkpt>
      <trkpt lat="44.14924" lon="6.77504">
        <ele>1524.8000488281</ele>
        <time>2020-06-06T12:24:52.000Z</time>
      </trkpt>
      <trkpt lat="44.14935" lon="6.77498">
        <ele>1523.8000488281</ele>
        <time>2020-06-06T12:24:55.000Z</time>
      </trkpt>
      <trkpt lat="44.14942" lon="6.77493">
        <ele>1523.5999755859</ele>
        <time>2020-06-06T12:24:57.000Z</time>
      </trkpt>
      <trkpt lat="44.14955" lon="6.77485">
        <ele>1522.8000488281</ele>
        <time>2020-06-06T12:25:01.000Z</time>
      </trkpt>
      <trkpt lat="44.14957" lon="6.77481">
        <ele>1523</ele>
        <time>2020-06-06T12:25:02.000Z</time>
      </trkpt>
      <trkpt lat="44.14959" lon="6.77477">
        <ele>1522.5999755859</ele>
        <time>2020-06-06T12:25:03.000Z</time>
      </trkpt>
      <trkpt lat="44.14963" lon="6.77471">
        <ele>1522.4000244141</ele>
        <time>2020-06-06T12:25:05.000Z</time>
      </trkpt>
      <trkpt lat="44.14966" lon="6.77468">
        <ele>1522.4000244141</ele>
        <time>2020-06-06T12:25:06.000Z</time>
      </trkpt>
      <trkpt lat="44.14977" lon="6.7746">
        <ele>1522.1999511719</ele>
        <time>2020-06-06T12:25:10.000Z</time>
      </trkpt>
      <trkpt lat="44.14991" lon="6.77455">
        <ele>1522.5999755859</ele>
        <time>2020-06-06T12:25:15.000Z</time>
      </trkpt>
      <trkpt lat="44.15001" lon="6.77449">
        <ele>1521.5999755859</ele>
        <time>2020-06-06T12:25:18.000Z</time>
      </trkpt>
      <trkpt lat="44.15004" lon="6.77444">
        <ele>1521.4000244141</ele>
        <time>2020-06-06T12:25:19.000Z</time>
      </trkpt>
      <trkpt lat="44.15016" lon="6.77431">
        <ele>1520.1999511719</ele>
        <time>2020-06-06T12:25:22.000Z</time>
      </trkpt>
      <trkpt lat="44.1502" lon="6.77429">
        <ele>1520</ele>
        <time>2020-06-06T12:25:23.000Z</time>
      </trkpt>
      <trkpt lat="44.15025" lon="6.77427">
        <ele>1519.4000244141</ele>
        <time>2020-06-06T12:25:24.000Z</time>
      </trkpt>
      <trkpt lat="44.1503" lon="6.77425">
        <ele>1518.8000488281</ele>
        <time>2020-06-06T12:25:25.000Z</time>
      </trkpt>
      <trkpt lat="44.15042" lon="6.77422">
        <ele>1518.1999511719</ele>
        <time>2020-06-06T12:25:28.000Z</time>
      </trkpt>
      <trkpt lat="44.15046" lon="6.77422">
        <ele>1518</ele>
        <time>2020-06-06T12:25:29.000Z</time>
      </trkpt>
      <trkpt lat="44.1505" lon="6.77421">
        <ele>1517.8000488281</ele>
        <time>2020-06-06T12:25:30.000Z</time>
      </trkpt>
      <trkpt lat="44.15062" lon="6.77417">
        <ele>1517.5999755859</ele>
        <time>2020-06-06T12:25:33.000Z</time>
      </trkpt>
      <trkpt lat="44.15073" lon="6.77409">
        <ele>1517.1999511719</ele>
        <time>2020-06-06T12:25:35.000Z</time>
      </trkpt>
      <trkpt lat="44.1508" lon="6.77405">
        <ele>1516.5999755859</ele>
        <time>2020-06-06T12:25:36.000Z</time>
      </trkpt>
      <trkpt lat="44.15087" lon="6.77404">
        <ele>1515.5999755859</ele>
        <time>2020-06-06T12:25:37.000Z</time>
      </trkpt>
      <trkpt lat="44.15093" lon="6.77402">
        <ele>1514.8000488281</ele>
        <time>2020-06-06T12:25:38.000Z</time>
      </trkpt>
      <trkpt lat="44.15098" lon="6.77399">
        <ele>1514</ele>
        <time>2020-06-06T12:25:39.000Z</time>
      </trkpt>
      <trkpt lat="44.15104" lon="6.77397">
        <ele>1513.1999511719</ele>
        <time>2020-06-06T12:25:40.000Z</time>
      </trkpt>
      <trkpt lat="44.15112" lon="6.77394">
        <ele>1512</ele>
        <time>2020-06-06T12:25:42.000Z</time>
      </trkpt>
      <trkpt lat="44.15117" lon="6.7739">
        <ele>1511.1999511719</ele>
        <time>2020-06-06T12:25:43.000Z</time>
      </trkpt>
      <trkpt lat="44.15124" lon="6.77386">
        <ele>1510.5999755859</ele>
        <time>2020-06-06T12:25:44.000Z</time>
      </trkpt>
      <trkpt lat="44.15128" lon="6.7738">
        <ele>1509.8000488281</ele>
        <time>2020-06-06T12:25:45.000Z</time>
      </trkpt>
      <trkpt lat="44.15133" lon="6.77373">
        <ele>1509.1999511719</ele>
        <time>2020-06-06T12:25:46.000Z</time>
      </trkpt>
      <trkpt lat="44.15142" lon="6.77365">
        <ele>1507</ele>
        <time>2020-06-06T12:25:48.000Z</time>
      </trkpt>
      <trkpt lat="44.15148" lon="6.77362">
        <ele>1505.8000488281</ele>
        <time>2020-06-06T12:25:49.000Z</time>
      </trkpt>
      <trkpt lat="44.15153" lon="6.7736">
        <ele>1504.1999511719</ele>
        <time>2020-06-06T12:25:50.000Z</time>
      </trkpt>
      <trkpt lat="44.1516" lon="6.77355">
        <ele>1502.5999755859</ele>
        <time>2020-06-06T12:25:51.000Z</time>
      </trkpt>
      <trkpt lat="44.15164" lon="6.77348">
        <ele>1501.4000244141</ele>
        <time>2020-06-06T12:25:52.000Z</time>
      </trkpt>
      <trkpt lat="44.15168" lon="6.77341">
        <ele>1500.4000244141</ele>
        <time>2020-06-06T12:25:53.000Z</time>
      </trkpt>
      <trkpt lat="44.15173" lon="6.77332">
        <ele>1499</ele>
        <time>2020-06-06T12:25:54.000Z</time>
      </trkpt>
      <trkpt lat="44.15179" lon="6.77326">
        <ele>1497.8000488281</ele>
        <time>2020-06-06T12:25:55.000Z</time>
      </trkpt>
      <trkpt lat="44.15186" lon="6.7732">
        <ele>1496.1999511719</ele>
        <time>2020-06-06T12:25:56.000Z</time>
      </trkpt>
      <trkpt lat="44.15193" lon="6.77315">
        <ele>1495</ele>
        <time>2020-06-06T12:25:57.000Z</time>
      </trkpt>
      <trkpt lat="44.15199" lon="6.77313">
        <ele>1493.4000244141</ele>
        <time>2020-06-06T12:25:58.000Z</time>
      </trkpt>
      <trkpt lat="44.15204" lon="6.7731">
        <ele>1492.4000244141</ele>
        <time>2020-06-06T12:25:59.000Z</time>
      </trkpt>
      <trkpt lat="44.1521" lon="6.77306">
        <ele>1491.4000244141</ele>
        <time>2020-06-06T12:26:00.000Z</time>
      </trkpt>
      <trkpt lat="44.15223" lon="6.77303">
        <ele>1489</ele>
        <time>2020-06-06T12:26:02.000Z</time>
      </trkpt>
      <trkpt lat="44.1523" lon="6.77303">
        <ele>1487.8000488281</ele>
        <time>2020-06-06T12:26:03.000Z</time>
      </trkpt>
      <trkpt lat="44.15238" lon="6.77303">
        <ele>1486.8000488281</ele>
        <time>2020-06-06T12:26:04.000Z</time>
      </trkpt>
      <trkpt lat="44.15244" lon="6.77301">
        <ele>1485.4000244141</ele>
        <time>2020-06-06T12:26:05.000Z</time>
      </trkpt>
      <trkpt lat="44.15252" lon="6.77301">
        <ele>1484.1999511719</ele>
        <time>2020-06-06T12:26:06.000Z</time>
      </trkpt>
      <trkpt lat="44.15259" lon="6.77301">
        <ele>1483.5999755859</ele>
        <time>2020-06-06T12:26:07.000Z</time>
      </trkpt>
      <trkpt lat="44.15268" lon="6.77301">
        <ele>1482.5999755859</ele>
        <time>2020-06-06T12:26:08.000Z</time>
      </trkpt>
      <trkpt lat="44.15276" lon="6.773">
        <ele>1481.8000488281</ele>
        <time>2020-06-06T12:26:09.000Z</time>
      </trkpt>
      <trkpt lat="44.15283" lon="6.77297">
        <ele>1481.1999511719</ele>
        <time>2020-06-06T12:26:10.000Z</time>
      </trkpt>
      <trkpt lat="44.15291" lon="6.77296">
        <ele>1480</ele>
        <time>2020-06-06T12:26:11.000Z</time>
      </trkpt>
      <trkpt lat="44.15301" lon="6.77293">
        <ele>1478.8000488281</ele>
        <time>2020-06-06T12:26:12.000Z</time>
      </trkpt>
      <trkpt lat="44.15311" lon="6.77291">
        <ele>1477.5999755859</ele>
        <time>2020-06-06T12:26:13.000Z</time>
      </trkpt>
      <trkpt lat="44.15318" lon="6.77287">
        <ele>1476.5999755859</ele>
        <time>2020-06-06T12:26:14.000Z</time>
      </trkpt>
      <trkpt lat="44.15323" lon="6.77281">
        <ele>1475.5999755859</ele>
        <time>2020-06-06T12:26:15.000Z</time>
      </trkpt>
      <trkpt lat="44.15329" lon="6.77273">
        <ele>1474.8000488281</ele>
        <time>2020-06-06T12:26:16.000Z</time>
      </trkpt>
      <trkpt lat="44.15335" lon="6.77265">
        <ele>1473.8000488281</ele>
        <time>2020-06-06T12:26:17.000Z</time>
      </trkpt>
      <trkpt lat="44.1534" lon="6.7726">
        <ele>1472.5999755859</ele>
        <time>2020-06-06T12:26:18.000Z</time>
      </trkpt>
      <trkpt lat="44.15345" lon="6.77257">
        <ele>1470.8000488281</ele>
        <time>2020-06-06T12:26:19.000Z</time>
      </trkpt>
      <trkpt lat="44.15351" lon="6.77256">
        <ele>1469.1999511719</ele>
        <time>2020-06-06T12:26:20.000Z</time>
      </trkpt>
      <trkpt lat="44.15359" lon="6.77256">
        <ele>1467.5999755859</ele>
        <time>2020-06-06T12:26:21.000Z</time>
      </trkpt>
      <trkpt lat="44.15368" lon="6.77256">
        <ele>1469</ele>
        <time>2020-06-06T12:26:22.000Z</time>
      </trkpt>
      <trkpt lat="44.15387" lon="6.77254">
        <ele>1467.1999511719</ele>
        <time>2020-06-06T12:26:24.000Z</time>
      </trkpt>
      <trkpt lat="44.15393" lon="6.7725">
        <ele>1465.5999755859</ele>
        <time>2020-06-06T12:26:25.000Z</time>
      </trkpt>
      <trkpt lat="44.154" lon="6.77247">
        <ele>1463.5999755859</ele>
        <time>2020-06-06T12:26:26.000Z</time>
      </trkpt>
      <trkpt lat="44.15405" lon="6.77244">
        <ele>1462</ele>
        <time>2020-06-06T12:26:27.000Z</time>
      </trkpt>
      <trkpt lat="44.15409" lon="6.77241">
        <ele>1460.1999511719</ele>
        <time>2020-06-06T12:26:28.000Z</time>
      </trkpt>
      <trkpt lat="44.15412" lon="6.77237">
        <ele>1458.8000488281</ele>
        <time>2020-06-06T12:26:29.000Z</time>
      </trkpt>
      <trkpt lat="44.15413" lon="6.77236">
        <ele>1456.5999755859</ele>
        <time>2020-06-06T12:26:30.000Z</time>
      </trkpt>
      <trkpt lat="44.15414" lon="6.77235">
        <ele>1455.1999511719</ele>
        <time>2020-06-06T12:26:31.000Z</time>
      </trkpt>
      <trkpt lat="44.15414" lon="6.77234">
        <ele>1453</ele>
        <time>2020-06-06T12:26:32.000Z</time>
      </trkpt>
      <trkpt lat="44.15413" lon="6.77232">
        <ele>1451.1999511719</ele>
        <time>2020-06-06T12:26:33.000Z</time>
      </trkpt>
      <trkpt lat="44.15414" lon="6.7723">
        <ele>1449.8000488281</ele>
        <time>2020-06-06T12:26:34.000Z</time>
      </trkpt>
      <trkpt lat="44.15413" lon="6.7723">
        <ele>1447.4000244141</ele>
        <time>2020-06-06T12:26:36.000Z</time>
      </trkpt>
      <trkpt lat="44.15413" lon="6.77229">
        <ele>1446</ele>
        <time>2020-06-06T12:26:37.000Z</time>
      </trkpt>
      <trkpt lat="44.15413" lon="6.77229">
        <ele>1444</ele>
        <time>2020-06-06T12:26:38.000Z</time>
      </trkpt>
      <trkpt lat="44.15412" lon="6.77227">
        <ele>1443</ele>
        <time>2020-06-06T12:26:41.000Z</time>
      </trkpt>
      <trkpt lat="44.15412" lon="6.77225">
        <ele>1443</ele>
        <time>2020-06-06T12:26:46.000Z</time>
      </trkpt>
      <trkpt lat="44.15414" lon="6.77224">
        <ele>1441.8000488281</ele>
        <time>2020-06-06T12:26:52.000Z</time>
      </trkpt>
      <trkpt lat="44.15418" lon="6.77221">
        <ele>1441.4000244141</ele>
        <time>2020-06-06T12:26:54.000Z</time>
      </trkpt>
      <trkpt lat="44.15422" lon="6.77219">
        <ele>1440.8000488281</ele>
        <time>2020-06-06T12:26:56.000Z</time>
      </trkpt>
      <trkpt lat="44.15424" lon="6.77213">
        <ele>1439.8000488281</ele>
        <time>2020-06-06T12:26:58.000Z</time>
      </trkpt>
      <trkpt lat="44.15424" lon="6.77209">
        <ele>1439.1999511719</ele>
        <time>2020-06-06T12:26:59.000Z</time>
      </trkpt>
      <trkpt lat="44.15423" lon="6.77193">
        <ele>1437.1999511719</ele>
        <time>2020-06-06T12:27:02.000Z</time>
      </trkpt>
      <trkpt lat="44.15421" lon="6.77187">
        <ele>1436.8000488281</ele>
        <time>2020-06-06T12:27:03.000Z</time>
      </trkpt>
      <trkpt lat="44.1542" lon="6.7718">
        <ele>1436</ele>
        <time>2020-06-06T12:27:04.000Z</time>
      </trkpt>
      <trkpt lat="44.15416" lon="6.77168">
        <ele>1434.4000244141</ele>
        <time>2020-06-06T12:27:06.000Z</time>
      </trkpt>
      <trkpt lat="44.15412" lon="6.77163">
        <ele>1433</ele>
        <time>2020-06-06T12:27:07.000Z</time>
      </trkpt>
      <trkpt lat="44.1541" lon="6.77155">
        <ele>1432.1999511719</ele>
        <time>2020-06-06T12:27:09.000Z</time>
      </trkpt>
      <trkpt lat="44.15415" lon="6.77148">
        <ele>1431.8000488281</ele>
        <time>2020-06-06T12:27:11.000Z</time>
      </trkpt>
      <trkpt lat="44.15419" lon="6.77147">
        <ele>1432</ele>
        <time>2020-06-06T12:27:12.000Z</time>
      </trkpt>
      <trkpt lat="44.15428" lon="6.77147">
        <ele>1431.4000244141</ele>
        <time>2020-06-06T12:27:14.000Z</time>
      </trkpt>
      <trkpt lat="44.15431" lon="6.77146">
        <ele>1430.1999511719</ele>
        <time>2020-06-06T12:27:15.000Z</time>
      </trkpt>
      <trkpt lat="44.15434" lon="6.77141">
        <ele>1429</ele>
        <time>2020-06-06T12:27:16.000Z</time>
      </trkpt>
      <trkpt lat="44.15434" lon="6.77136">
        <ele>1427.8000488281</ele>
        <time>2020-06-06T12:27:17.000Z</time>
      </trkpt>
      <trkpt lat="44.15432" lon="6.7712">
        <ele>1425</ele>
        <time>2020-06-06T12:27:19.000Z</time>
      </trkpt>
      <trkpt lat="44.1543" lon="6.77104">
        <ele>1423.5999755859</ele>
        <time>2020-06-06T12:27:21.000Z</time>
      </trkpt>
      <trkpt lat="44.1543" lon="6.77095">
        <ele>1422.4000244141</ele>
        <time>2020-06-06T12:27:22.000Z</time>
      </trkpt>
      <trkpt lat="44.15431" lon="6.77086">
        <ele>1421.1999511719</ele>
        <time>2020-06-06T12:27:23.000Z</time>
      </trkpt>
      <trkpt lat="44.1543" lon="6.77077">
        <ele>1420.4000244141</ele>
        <time>2020-06-06T12:27:24.000Z</time>
      </trkpt>
      <trkpt lat="44.15429" lon="6.77067">
        <ele>1419.1999511719</ele>
        <time>2020-06-06T12:27:25.000Z</time>
      </trkpt>
      <trkpt lat="44.15428" lon="6.77059">
        <ele>1418.4000244141</ele>
        <time>2020-06-06T12:27:26.000Z</time>
      </trkpt>
      <trkpt lat="44.15429" lon="6.77051">
        <ele>1417.4000244141</ele>
        <time>2020-06-06T12:27:27.000Z</time>
      </trkpt>
      <trkpt lat="44.1543" lon="6.77043">
        <ele>1416.4000244141</ele>
        <time>2020-06-06T12:27:28.000Z</time>
      </trkpt>
      <trkpt lat="44.15432" lon="6.77037">
        <ele>1415.4000244141</ele>
        <time>2020-06-06T12:27:29.000Z</time>
      </trkpt>
      <trkpt lat="44.15432" lon="6.77029">
        <ele>1414.5999755859</ele>
        <time>2020-06-06T12:27:30.000Z</time>
      </trkpt>
      <trkpt lat="44.15431" lon="6.77017">
        <ele>1414.8000488281</ele>
        <time>2020-06-06T12:27:32.000Z</time>
      </trkpt>
      <trkpt lat="44.15433" lon="6.77012">
        <ele>1412.8000488281</ele>
        <time>2020-06-06T12:27:33.000Z</time>
      </trkpt>
      <trkpt lat="44.15438" lon="6.77004">
        <ele>1410.8000488281</ele>
        <time>2020-06-06T12:27:35.000Z</time>
      </trkpt>
      <trkpt lat="44.15441" lon="6.76999">
        <ele>1409.8000488281</ele>
        <time>2020-06-06T12:27:36.000Z</time>
      </trkpt>
      <trkpt lat="44.15443" lon="6.76995">
        <ele>1407</ele>
        <time>2020-06-06T12:27:38.000Z</time>
      </trkpt>
      <trkpt lat="44.15445" lon="6.76994">
        <ele>1406.1999511719</ele>
        <time>2020-06-06T12:27:39.000Z</time>
      </trkpt>
      <trkpt lat="44.15446" lon="6.76993">
        <ele>1405.5999755859</ele>
        <time>2020-06-06T12:27:40.000Z</time>
      </trkpt>
      <trkpt lat="44.15446" lon="6.76992">
        <ele>1404.8000488281</ele>
        <time>2020-06-06T12:27:41.000Z</time>
      </trkpt>
      <trkpt lat="44.15446" lon="6.76991">
        <ele>1404.4000244141</ele>
        <time>2020-06-06T12:27:42.000Z</time>
      </trkpt>
      <trkpt lat="44.15446" lon="6.76984">
        <ele>1403.8000488281</ele>
        <time>2020-06-06T12:27:44.000Z</time>
      </trkpt>
      <trkpt lat="44.15448" lon="6.76979">
        <ele>1403</ele>
        <time>2020-06-06T12:27:46.000Z</time>
      </trkpt>
      <trkpt lat="44.15449" lon="6.76976">
        <ele>1402.1999511719</ele>
        <time>2020-06-06T12:27:47.000Z</time>
      </trkpt>
      <trkpt lat="44.15449" lon="6.76973">
        <ele>1401.5999755859</ele>
        <time>2020-06-06T12:27:48.000Z</time>
      </trkpt>
      <trkpt lat="44.15451" lon="6.7697">
        <ele>1400.5999755859</ele>
        <time>2020-06-06T12:27:49.000Z</time>
      </trkpt>
      <trkpt lat="44.15457" lon="6.76965">
        <ele>1399.1999511719</ele>
        <time>2020-06-06T12:27:51.000Z</time>
      </trkpt>
      <trkpt lat="44.15462" lon="6.76954">
        <ele>1397</ele>
        <time>2020-06-06T12:27:54.000Z</time>
      </trkpt>
      <trkpt lat="44.15463" lon="6.7695">
        <ele>1395</ele>
        <time>2020-06-06T12:27:55.000Z</time>
      </trkpt>
      <trkpt lat="44.15465" lon="6.76944">
        <ele>1393.8000488281</ele>
        <time>2020-06-06T12:27:56.000Z</time>
      </trkpt>
      <trkpt lat="44.15467" lon="6.76939">
        <ele>1392.5999755859</ele>
        <time>2020-06-06T12:27:57.000Z</time>
      </trkpt>
      <trkpt lat="44.15469" lon="6.76934">
        <ele>1391.4000244141</ele>
        <time>2020-06-06T12:27:58.000Z</time>
      </trkpt>
      <trkpt lat="44.15471" lon="6.76932">
        <ele>1389.8000488281</ele>
        <time>2020-06-06T12:27:59.000Z</time>
      </trkpt>
      <trkpt lat="44.15474" lon="6.76931">
        <ele>1388.5999755859</ele>
        <time>2020-06-06T12:28:00.000Z</time>
      </trkpt>
      <trkpt lat="44.15479" lon="6.76932">
        <ele>1387.5999755859</ele>
        <time>2020-06-06T12:28:01.000Z</time>
      </trkpt>
      <trkpt lat="44.15482" lon="6.76933">
        <ele>1386.5999755859</ele>
        <time>2020-06-06T12:28:02.000Z</time>
      </trkpt>
      <trkpt lat="44.15485" lon="6.76934">
        <ele>1385.5999755859</ele>
        <time>2020-06-06T12:28:03.000Z</time>
      </trkpt>
      <trkpt lat="44.15487" lon="6.76937">
        <ele>1384.8000488281</ele>
        <time>2020-06-06T12:28:04.000Z</time>
      </trkpt>
      <trkpt lat="44.15488" lon="6.76937">
        <ele>1383.5999755859</ele>
        <time>2020-06-06T12:28:05.000Z</time>
      </trkpt>
      <trkpt lat="44.15489" lon="6.76936">
        <ele>1383.1999511719</ele>
        <time>2020-06-06T12:28:06.000Z</time>
      </trkpt>
      <trkpt lat="44.1549" lon="6.76934">
        <ele>1382.1999511719</ele>
        <time>2020-06-06T12:28:07.000Z</time>
      </trkpt>
      <trkpt lat="44.1549" lon="6.76924">
        <ele>1379.8000488281</ele>
        <time>2020-06-06T12:28:09.000Z</time>
      </trkpt>
      <trkpt lat="44.15489" lon="6.76914">
        <ele>1378.8000488281</ele>
        <time>2020-06-06T12:28:11.000Z</time>
      </trkpt>
      <trkpt lat="44.1549" lon="6.76908">
        <ele>1377.8000488281</ele>
        <time>2020-06-06T12:28:12.000Z</time>
      </trkpt>
      <trkpt lat="44.15489" lon="6.769">
        <ele>1377</ele>
        <time>2020-06-06T12:28:13.000Z</time>
      </trkpt>
      <trkpt lat="44.15489" lon="6.76881">
        <ele>1375</ele>
        <time>2020-06-06T12:28:15.000Z</time>
      </trkpt>
      <trkpt lat="44.15491" lon="6.76869">
        <ele>1374.1999511719</ele>
        <time>2020-06-06T12:28:16.000Z</time>
      </trkpt>
      <trkpt lat="44.15492" lon="6.7686">
        <ele>1373.4000244141</ele>
        <time>2020-06-06T12:28:17.000Z</time>
      </trkpt>
      <trkpt lat="44.15493" lon="6.7685">
        <ele>1372.1999511719</ele>
        <time>2020-06-06T12:28:18.000Z</time>
      </trkpt>
      <trkpt lat="44.15492" lon="6.76836">
        <ele>1370.5999755859</ele>
        <time>2020-06-06T12:28:20.000Z</time>
      </trkpt>
      <trkpt lat="44.1549" lon="6.76828">
        <ele>1369.1999511719</ele>
        <time>2020-06-06T12:28:22.000Z</time>
      </trkpt>
      <trkpt lat="44.15489" lon="6.76826">
        <ele>1369</ele>
        <time>2020-06-06T12:28:23.000Z</time>
      </trkpt>
      <trkpt lat="44.15487" lon="6.7682">
        <ele>1368.5999755859</ele>
        <time>2020-06-06T12:28:28.000Z</time>
      </trkpt>
      <trkpt lat="44.15487" lon="6.76821">
        <ele>1369.1999511719</ele>
        <time>2020-06-06T12:28:37.000Z</time>
      </trkpt>
      <trkpt lat="44.15487" lon="6.7682">
        <ele>1370.1999511719</ele>
        <time>2020-06-06T12:28:46.000Z</time>
      </trkpt>
      <trkpt lat="44.15487" lon="6.7682">
        <ele>1370.4000244141</ele>
        <time>2020-06-06T12:28:47.000Z</time>
      </trkpt>
      <trkpt lat="44.15487" lon="6.76819">
        <ele>1371</ele>
        <time>2020-06-06T12:28:54.000Z</time>
      </trkpt>
      <trkpt lat="44.15486" lon="6.76819">
        <ele>1371.1999511719</ele>
        <time>2020-06-06T12:28:57.000Z</time>
      </trkpt>
      <trkpt lat="44.15486" lon="6.76818">
        <ele>1371</ele>
        <time>2020-06-06T12:29:01.000Z</time>
      </trkpt>
      <trkpt lat="44.15485" lon="6.76815">
        <ele>1371.1999511719</ele>
        <time>2020-06-06T12:29:11.000Z</time>
      </trkpt>
      <trkpt lat="44.15484" lon="6.76814">
        <ele>1370.8000488281</ele>
        <time>2020-06-06T12:29:17.000Z</time>
      </trkpt>
      <trkpt lat="44.15485" lon="6.76817">
        <ele>1370.5999755859</ele>
        <time>2020-06-06T12:29:27.000Z</time>
      </trkpt>
      <trkpt lat="44.15485" lon="6.76819">
        <ele>1371.4000244141</ele>
        <time>2020-06-06T12:29:32.000Z</time>
      </trkpt>
      <trkpt lat="44.15486" lon="6.76818">
        <ele>1371.8000488281</ele>
        <time>2020-06-06T12:29:38.000Z</time>
      </trkpt>
      <trkpt lat="44.15485" lon="6.76817">
        <ele>1371.5999755859</ele>
        <time>2020-06-06T12:29:41.000Z</time>
      </trkpt>
      <trkpt lat="44.15485" lon="6.76816">
        <ele>1371.4000244141</ele>
        <time>2020-06-06T12:29:43.000Z</time>
      </trkpt>
      <trkpt lat="44.15485" lon="6.76814">
        <ele>1371.1999511719</ele>
        <time>2020-06-06T12:29:50.000Z</time>
      </trkpt>
      <trkpt lat="44.15486" lon="6.76817">
        <ele>1371.5999755859</ele>
        <time>2020-06-06T12:29:55.000Z</time>
      </trkpt>
      <trkpt lat="44.15486" lon="6.76819">
        <ele>1371.5999755859</ele>
        <time>2020-06-06T12:29:58.000Z</time>
      </trkpt>
      <trkpt lat="44.15487" lon="6.76819">
        <ele>1371.5999755859</ele>
        <time>2020-06-06T12:30:00.000Z</time>
      </trkpt>
      <trkpt lat="44.15488" lon="6.76819">
        <ele>1372</ele>
        <time>2020-06-06T12:30:08.000Z</time>
      </trkpt>
      <trkpt lat="44.15487" lon="6.76819">
        <ele>1371.8000488281</ele>
        <time>2020-06-06T12:30:12.000Z</time>
      </trkpt>
      <trkpt lat="44.15487" lon="6.76819">
        <ele>1372.1999511719</ele>
        <time>2020-06-06T12:30:17.000Z</time>
      </trkpt>
      <trkpt lat="44.15487" lon="6.76819">
        <ele>1372.1999511719</ele>
        <time>2020-06-06T12:30:23.000Z</time>
      </trkpt>
      <trkpt lat="44.15487" lon="6.76819">
        <ele>1372</ele>
        <time>2020-06-06T12:30:33.000Z</time>
      </trkpt>
      <trkpt lat="44.15487" lon="6.76818">
        <ele>1372.1999511719</ele>
        <time>2020-06-06T12:30:40.000Z</time>
      </trkpt>
      <trkpt lat="44.15488" lon="6.76819">
        <ele>1372.1999511719</ele>
        <time>2020-06-06T12:30:55.000Z</time>
      </trkpt>
      <trkpt lat="44.15488" lon="6.7682">
        <ele>1372</ele>
        <time>2020-06-06T12:31:07.000Z</time>
      </trkpt>
      <trkpt lat="44.15488" lon="6.7682">
        <ele>1372</ele>
        <time>2020-06-06T12:31:14.000Z</time>
      </trkpt>
      <trkpt lat="44.15488" lon="6.76816">
        <ele>1371.5999755859</ele>
        <time>2020-06-06T12:31:27.000Z</time>
      </trkpt>
      <trkpt lat="44.15488" lon="6.76815">
        <ele>1371.1999511719</ele>
        <time>2020-06-06T12:31:30.000Z</time>
      </trkpt>
      <trkpt lat="44.15487" lon="6.76812">
        <ele>1370.8000488281</ele>
        <time>2020-06-06T12:31:33.000Z</time>
      </trkpt>
      <trkpt lat="44.15486" lon="6.7681">
        <ele>1370.1999511719</ele>
        <time>2020-06-06T12:31:39.000Z</time>
      </trkpt>
      <trkpt lat="44.15486" lon="6.7681">
        <ele>1370.1999511719</ele>
        <time>2020-06-06T12:31:41.000Z</time>
      </trkpt>
      <trkpt lat="44.15486" lon="6.76811">
        <ele>1370.1999511719</ele>
        <time>2020-06-06T12:31:51.000Z</time>
      </trkpt>
      <trkpt lat="44.15486" lon="6.76811">
        <ele>1370.1999511719</ele>
        <time>2020-06-06T12:32:02.000Z</time>
      </trkpt>
      <trkpt lat="44.15487" lon="6.7681">
        <ele>1370.1999511719</ele>
        <time>2020-06-06T12:32:14.000Z</time>
      </trkpt>
      <trkpt lat="44.15489" lon="6.7681">
        <ele>1370</ele>
        <time>2020-06-06T12:32:26.000Z</time>
      </trkpt>
      <trkpt lat="44.1549" lon="6.76811">
        <ele>1369.8000488281</ele>
        <time>2020-06-06T12:32:36.000Z</time>
      </trkpt>
      <trkpt lat="44.1549" lon="6.76811">
        <ele>1369.8000488281</ele>
        <time>2020-06-06T12:32:48.000Z</time>
      </trkpt>
      <trkpt lat="44.1549" lon="6.76811">
        <ele>1370</ele>
        <time>2020-06-06T12:33:00.000Z</time>
      </trkpt>
      <trkpt lat="44.15489" lon="6.76811">
        <ele>1370.1999511719</ele>
        <time>2020-06-06T12:33:09.000Z</time>
      </trkpt>
      <trkpt lat="44.15489" lon="6.76811">
        <ele>1370</ele>
        <time>2020-06-06T12:33:18.000Z</time>
      </trkpt>
      <trkpt lat="44.15489" lon="6.76811">
        <ele>1369.8000488281</ele>
        <time>2020-06-06T12:33:35.000Z</time>
      </trkpt>
      <trkpt lat="44.15489" lon="6.76811">
        <ele>1369.5999755859</ele>
        <time>2020-06-06T12:33:49.000Z</time>
      </trkpt>
      <trkpt lat="44.15489" lon="6.76811">
        <ele>1369.8000488281</ele>
        <time>2020-06-06T12:34:00.000Z</time>
      </trkpt>
      <trkpt lat="44.1549" lon="6.76811">
        <ele>1369.5999755859</ele>
        <time>2020-06-06T12:34:17.000Z</time>
      </trkpt>
      <trkpt lat="44.15488" lon="6.76811">
        <ele>1369.4000244141</ele>
        <time>2020-06-06T12:34:29.000Z</time>
      </trkpt>
      <trkpt lat="44.15486" lon="6.7681">
        <ele>1369.4000244141</ele>
        <time>2020-06-06T12:34:49.000Z</time>
      </trkpt>
      <trkpt lat="44.15486" lon="6.7681">
        <ele>1369.4000244141</ele>
        <time>2020-06-06T12:35:10.000Z</time>
      </trkpt>
      <trkpt lat="44.15487" lon="6.7681">
        <ele>1369.4000244141</ele>
        <time>2020-06-06T12:35:25.000Z</time>
      </trkpt>
      <trkpt lat="44.15487" lon="6.7681">
        <ele>1369.1999511719</ele>
        <time>2020-06-06T12:35:38.000Z</time>
      </trkpt>
      <trkpt lat="44.15487" lon="6.7681">
        <ele>1369</ele>
        <time>2020-06-06T12:35:42.000Z</time>
      </trkpt>
      <trkpt lat="44.15488" lon="6.7681">
        <ele>1369</ele>
        <time>2020-06-06T12:36:02.000Z</time>
      </trkpt>
      <trkpt lat="44.15489" lon="6.76811">
        <ele>1369</ele>
        <time>2020-06-06T12:36:20.000Z</time>
      </trkpt>
      <trkpt lat="44.15489" lon="6.76812">
        <ele>1368.8000488281</ele>
        <time>2020-06-06T12:36:34.000Z</time>
      </trkpt>
      <trkpt lat="44.15489" lon="6.76811">
        <ele>1368.8000488281</ele>
        <time>2020-06-06T12:36:54.000Z</time>
      </trkpt>
      <trkpt lat="44.15488" lon="6.76811">
        <ele>1368.8000488281</ele>
        <time>2020-06-06T12:37:16.000Z</time>
      </trkpt>
      <trkpt lat="44.1549" lon="6.76812">
        <ele>1369</ele>
        <time>2020-06-06T12:37:31.000Z</time>
      </trkpt>
      <trkpt lat="44.1549" lon="6.76812">
        <ele>1368.8000488281</ele>
        <time>2020-06-06T12:37:52.000Z</time>
      </trkpt>
      <trkpt lat="44.1549" lon="6.76812">
        <ele>1368.8000488281</ele>
        <time>2020-06-06T12:38:13.000Z</time>
      </trkpt>
      <trkpt lat="44.15491" lon="6.76813">
        <ele>1369</ele>
        <time>2020-06-06T12:38:28.000Z</time>
      </trkpt>
      <trkpt lat="44.15492" lon="6.76817">
        <ele>1368.8000488281</ele>
        <time>2020-06-06T12:38:32.000Z</time>
      </trkpt>
      <trkpt lat="44.15491" lon="6.76818">
        <ele>1369</ele>
        <time>2020-06-06T12:38:35.000Z</time>
      </trkpt>
      <trkpt lat="44.15492" lon="6.7682">
        <ele>1369.5999755859</ele>
        <time>2020-06-06T12:38:43.000Z</time>
      </trkpt>
      <trkpt lat="44.15491" lon="6.7682">
        <ele>1370.1999511719</ele>
        <time>2020-06-06T12:38:48.000Z</time>
      </trkpt>
      <trkpt lat="44.15491" lon="6.76819">
        <ele>1370.4000244141</ele>
        <time>2020-06-06T12:38:52.000Z</time>
      </trkpt>
      <trkpt lat="44.15491" lon="6.76817">
        <ele>1370.1999511719</ele>
        <time>2020-06-06T12:38:56.000Z</time>
      </trkpt>
      <trkpt lat="44.15492" lon="6.76813">
        <ele>1370.1999511719</ele>
        <time>2020-06-06T12:38:58.000Z</time>
      </trkpt>
      <trkpt lat="44.15493" lon="6.76805">
        <ele>1370</ele>
        <time>2020-06-06T12:39:00.000Z</time>
      </trkpt>
      <trkpt lat="44.15495" lon="6.76791">
        <ele>1369.5999755859</ele>
        <time>2020-06-06T12:39:02.000Z</time>
      </trkpt>
      <trkpt lat="44.15497" lon="6.76783">
        <ele>1369.1999511719</ele>
        <time>2020-06-06T12:39:03.000Z</time>
      </trkpt>
      <trkpt lat="44.155" lon="6.76767">
        <ele>1367.5999755859</ele>
        <time>2020-06-06T12:39:05.000Z</time>
      </trkpt>
      <trkpt lat="44.15503" lon="6.76758">
        <ele>1366.4000244141</ele>
        <time>2020-06-06T12:39:06.000Z</time>
      </trkpt>
      <trkpt lat="44.15505" lon="6.76749">
        <ele>1365.4000244141</ele>
        <time>2020-06-06T12:39:07.000Z</time>
      </trkpt>
      <trkpt lat="44.15508" lon="6.76739">
        <ele>1364.1999511719</ele>
        <time>2020-06-06T12:39:08.000Z</time>
      </trkpt>
      <trkpt lat="44.15511" lon="6.76729">
        <ele>1363</ele>
        <time>2020-06-06T12:39:09.000Z</time>
      </trkpt>
      <trkpt lat="44.15515" lon="6.76715">
        <ele>1361.4000244141</ele>
        <time>2020-06-06T12:39:11.000Z</time>
      </trkpt>
      <trkpt lat="44.15517" lon="6.7671">
        <ele>1358.8000488281</ele>
        <time>2020-06-06T12:39:12.000Z</time>
      </trkpt>
      <trkpt lat="44.15517" lon="6.76704">
        <ele>1357.4000244141</ele>
        <time>2020-06-06T12:39:13.000Z</time>
      </trkpt>
      <trkpt lat="44.15516" lon="6.76697">
        <ele>1357</ele>
        <time>2020-06-06T12:39:14.000Z</time>
      </trkpt>
      <trkpt lat="44.15516" lon="6.7669">
        <ele>1355.1999511719</ele>
        <time>2020-06-06T12:39:15.000Z</time>
      </trkpt>
      <trkpt lat="44.15517" lon="6.76682">
        <ele>1354.5999755859</ele>
        <time>2020-06-06T12:39:16.000Z</time>
      </trkpt>
      <trkpt lat="44.15518" lon="6.76675">
        <ele>1354</ele>
        <time>2020-06-06T12:39:17.000Z</time>
      </trkpt>
      <trkpt lat="44.15521" lon="6.76668">
        <ele>1352.8000488281</ele>
        <time>2020-06-06T12:39:18.000Z</time>
      </trkpt>
      <trkpt lat="44.15523" lon="6.7666">
        <ele>1351.4000244141</ele>
        <time>2020-06-06T12:39:19.000Z</time>
      </trkpt>
      <trkpt lat="44.15529" lon="6.76642">
        <ele>1350.1999511719</ele>
        <time>2020-06-06T12:39:21.000Z</time>
      </trkpt>
      <trkpt lat="44.15533" lon="6.76635">
        <ele>1349.1999511719</ele>
        <time>2020-06-06T12:39:22.000Z</time>
      </trkpt>
      <trkpt lat="44.15537" lon="6.76627">
        <ele>1348.1999511719</ele>
        <time>2020-06-06T12:39:23.000Z</time>
      </trkpt>
      <trkpt lat="44.15539" lon="6.76619">
        <ele>1347.5999755859</ele>
        <time>2020-06-06T12:39:24.000Z</time>
      </trkpt>
      <trkpt lat="44.15541" lon="6.7661">
        <ele>1345.8000488281</ele>
        <time>2020-06-06T12:39:25.000Z</time>
      </trkpt>
      <trkpt lat="44.15544" lon="6.76601">
        <ele>1344.4000244141</ele>
        <time>2020-06-06T12:39:26.000Z</time>
      </trkpt>
      <trkpt lat="44.15547" lon="6.76593">
        <ele>1342.4000244141</ele>
        <time>2020-06-06T12:39:27.000Z</time>
      </trkpt>
      <trkpt lat="44.1555" lon="6.76586">
        <ele>1340.8000488281</ele>
        <time>2020-06-06T12:39:28.000Z</time>
      </trkpt>
      <trkpt lat="44.15552" lon="6.76578">
        <ele>1339</ele>
        <time>2020-06-06T12:39:29.000Z</time>
      </trkpt>
      <trkpt lat="44.15554" lon="6.76572">
        <ele>1337.5999755859</ele>
        <time>2020-06-06T12:39:30.000Z</time>
      </trkpt>
      <trkpt lat="44.15554" lon="6.76566">
        <ele>1336.8000488281</ele>
        <time>2020-06-06T12:39:31.000Z</time>
      </trkpt>
      <trkpt lat="44.15553" lon="6.76561">
        <ele>1335.4000244141</ele>
        <time>2020-06-06T12:39:32.000Z</time>
      </trkpt>
      <trkpt lat="44.15552" lon="6.76555">
        <ele>1334.8000488281</ele>
        <time>2020-06-06T12:39:33.000Z</time>
      </trkpt>
      <trkpt lat="44.1555" lon="6.76552">
        <ele>1334</ele>
        <time>2020-06-06T12:39:34.000Z</time>
      </trkpt>
      <trkpt lat="44.15549" lon="6.7655">
        <ele>1332.8000488281</ele>
        <time>2020-06-06T12:39:36.000Z</time>
      </trkpt>
      <trkpt lat="44.15549" lon="6.76549">
        <ele>1332.8000488281</ele>
        <time>2020-06-06T12:39:37.000Z</time>
      </trkpt>
      <trkpt lat="44.15549" lon="6.76547">
        <ele>1332.4000244141</ele>
        <time>2020-06-06T12:39:38.000Z</time>
      </trkpt>
      <trkpt lat="44.15553" lon="6.76547">
        <ele>1331.5999755859</ele>
        <time>2020-06-06T12:39:41.000Z</time>
      </trkpt>
      <trkpt lat="44.15558" lon="6.76547">
        <ele>1330.8000488281</ele>
        <time>2020-06-06T12:39:45.000Z</time>
      </trkpt>
      <trkpt lat="44.1556" lon="6.76546">
        <ele>1330.4000244141</ele>
        <time>2020-06-06T12:39:46.000Z</time>
      </trkpt>
      <trkpt lat="44.15558" lon="6.76538">
        <ele>1329.5999755859</ele>
        <time>2020-06-06T12:39:48.000Z</time>
      </trkpt>
      <trkpt lat="44.15558" lon="6.76533">
        <ele>1329.1999511719</ele>
        <time>2020-06-06T12:39:49.000Z</time>
      </trkpt>
      <trkpt lat="44.15558" lon="6.7652">
        <ele>1328</ele>
        <time>2020-06-06T12:39:51.000Z</time>
      </trkpt>
      <trkpt lat="44.15557" lon="6.76504">
        <ele>1326.1999511719</ele>
        <time>2020-06-06T12:39:53.000Z</time>
      </trkpt>
      <trkpt lat="44.15557" lon="6.76495">
        <ele>1325</ele>
        <time>2020-06-06T12:39:54.000Z</time>
      </trkpt>
      <trkpt lat="44.15559" lon="6.76489">
        <ele>1323.4000244141</ele>
        <time>2020-06-06T12:39:55.000Z</time>
      </trkpt>
      <trkpt lat="44.15561" lon="6.76482">
        <ele>1322</ele>
        <time>2020-06-06T12:39:56.000Z</time>
      </trkpt>
      <trkpt lat="44.15563" lon="6.76475">
        <ele>1320.5999755859</ele>
        <time>2020-06-06T12:39:57.000Z</time>
      </trkpt>
      <trkpt lat="44.15569" lon="6.76464">
        <ele>1318.1999511719</ele>
        <time>2020-06-06T12:39:59.000Z</time>
      </trkpt>
      <trkpt lat="44.15569" lon="6.76458">
        <ele>1316.8000488281</ele>
        <time>2020-06-06T12:40:00.000Z</time>
      </trkpt>
      <trkpt lat="44.1557" lon="6.76451">
        <ele>1315.1999511719</ele>
        <time>2020-06-06T12:40:01.000Z</time>
      </trkpt>
      <trkpt lat="44.15571" lon="6.76446">
        <ele>1313.5999755859</ele>
        <time>2020-06-06T12:40:02.000Z</time>
      </trkpt>
      <trkpt lat="44.15575" lon="6.76445">
        <ele>1311</ele>
        <time>2020-06-06T12:40:03.000Z</time>
      </trkpt>
      <trkpt lat="44.15582" lon="6.76443">
        <ele>1309.5999755859</ele>
        <time>2020-06-06T12:40:04.000Z</time>
      </trkpt>
      <trkpt lat="44.15588" lon="6.76444">
        <ele>1307.8000488281</ele>
        <time>2020-06-06T12:40:05.000Z</time>
      </trkpt>
      <trkpt lat="44.15597" lon="6.76445">
        <ele>1306.8000488281</ele>
        <time>2020-06-06T12:40:06.000Z</time>
      </trkpt>
      <trkpt lat="44.15604" lon="6.76445">
        <ele>1305.1999511719</ele>
        <time>2020-06-06T12:40:07.000Z</time>
      </trkpt>
      <trkpt lat="44.15611" lon="6.76446">
        <ele>1303.8000488281</ele>
        <time>2020-06-06T12:40:08.000Z</time>
      </trkpt>
      <trkpt lat="44.15617" lon="6.76448">
        <ele>1302.8000488281</ele>
        <time>2020-06-06T12:40:09.000Z</time>
      </trkpt>
      <trkpt lat="44.15622" lon="6.7645">
        <ele>1301.1999511719</ele>
        <time>2020-06-06T12:40:10.000Z</time>
      </trkpt>
      <trkpt lat="44.15628" lon="6.76452">
        <ele>1299.4000244141</ele>
        <time>2020-06-06T12:40:11.000Z</time>
      </trkpt>
      <trkpt lat="44.15633" lon="6.76455">
        <ele>1298.4000244141</ele>
        <time>2020-06-06T12:40:12.000Z</time>
      </trkpt>
      <trkpt lat="44.15638" lon="6.76458">
        <ele>1297.4000244141</ele>
        <time>2020-06-06T12:40:13.000Z</time>
      </trkpt>
      <trkpt lat="44.15643" lon="6.76462">
        <ele>1295.8000488281</ele>
        <time>2020-06-06T12:40:14.000Z</time>
      </trkpt>
      <trkpt lat="44.15647" lon="6.76468">
        <ele>1294.4000244141</ele>
        <time>2020-06-06T12:40:15.000Z</time>
      </trkpt>
      <trkpt lat="44.15651" lon="6.76474">
        <ele>1293.1999511719</ele>
        <time>2020-06-06T12:40:16.000Z</time>
      </trkpt>
      <trkpt lat="44.15654" lon="6.76483">
        <ele>1291.8000488281</ele>
        <time>2020-06-06T12:40:17.000Z</time>
      </trkpt>
      <trkpt lat="44.15662" lon="6.765">
        <ele>1289.8000488281</ele>
        <time>2020-06-06T12:40:19.000Z</time>
      </trkpt>
      <trkpt lat="44.15665" lon="6.76504">
        <ele>1289</ele>
        <time>2020-06-06T12:40:20.000Z</time>
      </trkpt>
      <trkpt lat="44.15669" lon="6.76507">
        <ele>1288</ele>
        <time>2020-06-06T12:40:21.000Z</time>
      </trkpt>
      <trkpt lat="44.15674" lon="6.76509">
        <ele>1287</ele>
        <time>2020-06-06T12:40:22.000Z</time>
      </trkpt>
      <trkpt lat="44.15678" lon="6.76507">
        <ele>1285.5999755859</ele>
        <time>2020-06-06T12:40:23.000Z</time>
      </trkpt>
      <trkpt lat="44.1568" lon="6.76504">
        <ele>1284.4000244141</ele>
        <time>2020-06-06T12:40:24.000Z</time>
      </trkpt>
      <trkpt lat="44.15683" lon="6.765">
        <ele>1283.8000488281</ele>
        <time>2020-06-06T12:40:25.000Z</time>
      </trkpt>
      <trkpt lat="44.15684" lon="6.76495">
        <ele>1283.4000244141</ele>
        <time>2020-06-06T12:40:26.000Z</time>
      </trkpt>
      <trkpt lat="44.15691" lon="6.76484">
        <ele>1282.8000488281</ele>
        <time>2020-06-06T12:40:28.000Z</time>
      </trkpt>
      <trkpt lat="44.15704" lon="6.76482">
        <ele>1282.1999511719</ele>
        <time>2020-06-06T12:40:31.000Z</time>
      </trkpt>
      <trkpt lat="44.15709" lon="6.7648">
        <ele>1281.8000488281</ele>
        <time>2020-06-06T12:40:32.000Z</time>
      </trkpt>
      <trkpt lat="44.15719" lon="6.76477">
        <ele>1280.4000244141</ele>
        <time>2020-06-06T12:40:34.000Z</time>
      </trkpt>
      <trkpt lat="44.15723" lon="6.76477">
        <ele>1279.8000488281</ele>
        <time>2020-06-06T12:40:35.000Z</time>
      </trkpt>
      <trkpt lat="44.15729" lon="6.7648">
        <ele>1278.8000488281</ele>
        <time>2020-06-06T12:40:36.000Z</time>
      </trkpt>
      <trkpt lat="44.15741" lon="6.76482">
        <ele>1277.4000244141</ele>
        <time>2020-06-06T12:40:38.000Z</time>
      </trkpt>
      <trkpt lat="44.1575" lon="6.76488">
        <ele>1275.4000244141</ele>
        <time>2020-06-06T12:40:40.000Z</time>
      </trkpt>
      <trkpt lat="44.15755" lon="6.76489">
        <ele>1273.4000244141</ele>
        <time>2020-06-06T12:40:41.000Z</time>
      </trkpt>
      <trkpt lat="44.15759" lon="6.7649">
        <ele>1271.5999755859</ele>
        <time>2020-06-06T12:40:42.000Z</time>
      </trkpt>
      <trkpt lat="44.15764" lon="6.76493">
        <ele>1270.4000244141</ele>
        <time>2020-06-06T12:40:43.000Z</time>
      </trkpt>
      <trkpt lat="44.15768" lon="6.76498">
        <ele>1269.1999511719</ele>
        <time>2020-06-06T12:40:44.000Z</time>
      </trkpt>
      <trkpt lat="44.1577" lon="6.76504">
        <ele>1268</ele>
        <time>2020-06-06T12:40:45.000Z</time>
      </trkpt>
      <trkpt lat="44.15774" lon="6.76513">
        <ele>1266.8000488281</ele>
        <time>2020-06-06T12:40:46.000Z</time>
      </trkpt>
      <trkpt lat="44.15777" lon="6.7652">
        <ele>1266</ele>
        <time>2020-06-06T12:40:47.000Z</time>
      </trkpt>
      <trkpt lat="44.1578" lon="6.76527">
        <ele>1265</ele>
        <time>2020-06-06T12:40:48.000Z</time>
      </trkpt>
      <trkpt lat="44.15783" lon="6.76534">
        <ele>1264</ele>
        <time>2020-06-06T12:40:49.000Z</time>
      </trkpt>
      <trkpt lat="44.15787" lon="6.76551">
        <ele>1262.4000244141</ele>
        <time>2020-06-06T12:40:51.000Z</time>
      </trkpt>
      <trkpt lat="44.1579" lon="6.7656">
        <ele>1261.1999511719</ele>
        <time>2020-06-06T12:40:52.000Z</time>
      </trkpt>
      <trkpt lat="44.15793" lon="6.76567">
        <ele>1260.1999511719</ele>
        <time>2020-06-06T12:40:53.000Z</time>
      </trkpt>
      <trkpt lat="44.15798" lon="6.76574">
        <ele>1258.5999755859</ele>
        <time>2020-06-06T12:40:54.000Z</time>
      </trkpt>
      <trkpt lat="44.15801" lon="6.7658">
        <ele>1257.4000244141</ele>
        <time>2020-06-06T12:40:55.000Z</time>
      </trkpt>
      <trkpt lat="44.15806" lon="6.76584">
        <ele>1256</ele>
        <time>2020-06-06T12:40:56.000Z</time>
      </trkpt>
      <trkpt lat="44.15814" lon="6.76592">
        <ele>1254.1999511719</ele>
        <time>2020-06-06T12:40:58.000Z</time>
      </trkpt>
      <trkpt lat="44.15818" lon="6.76594">
        <ele>1252.8000488281</ele>
        <time>2020-06-06T12:41:00.000Z</time>
      </trkpt>
      <trkpt lat="44.15821" lon="6.76598">
        <ele>1252.4000244141</ele>
        <time>2020-06-06T12:41:01.000Z</time>
      </trkpt>
      <trkpt lat="44.15822" lon="6.76603">
        <ele>1251.5999755859</ele>
        <time>2020-06-06T12:41:02.000Z</time>
      </trkpt>
      <trkpt lat="44.1583" lon="6.76606">
        <ele>1250.5999755859</ele>
        <time>2020-06-06T12:41:04.000Z</time>
      </trkpt>
      <trkpt lat="44.15833" lon="6.76608">
        <ele>1249.4000244141</ele>
        <time>2020-06-06T12:41:05.000Z</time>
      </trkpt>
      <trkpt lat="44.15837" lon="6.76611">
        <ele>1248.4000244141</ele>
        <time>2020-06-06T12:41:06.000Z</time>
      </trkpt>
      <trkpt lat="44.15839" lon="6.76611">
        <ele>1247</ele>
        <time>2020-06-06T12:41:07.000Z</time>
      </trkpt>
      <trkpt lat="44.15839" lon="6.7661">
        <ele>1245.8000488281</ele>
        <time>2020-06-06T12:41:08.000Z</time>
      </trkpt>
      <trkpt lat="44.15839" lon="6.76608">
        <ele>1244.5999755859</ele>
        <time>2020-06-06T12:41:09.000Z</time>
      </trkpt>
      <trkpt lat="44.15837" lon="6.76603">
        <ele>1243</ele>
        <time>2020-06-06T12:41:11.000Z</time>
      </trkpt>
      <trkpt lat="44.15836" lon="6.76599">
        <ele>1242.5999755859</ele>
        <time>2020-06-06T12:41:12.000Z</time>
      </trkpt>
      <trkpt lat="44.1583" lon="6.76583">
        <ele>1242.1999511719</ele>
        <time>2020-06-06T12:41:16.000Z</time>
      </trkpt>
      <trkpt lat="44.1583" lon="6.76581">
        <ele>1242</ele>
        <time>2020-06-06T12:41:17.000Z</time>
      </trkpt>
      <trkpt lat="44.15829" lon="6.7658">
        <ele>1241.8000488281</ele>
        <time>2020-06-06T12:41:18.000Z</time>
      </trkpt>
      <trkpt lat="44.15829" lon="6.7658">
        <ele>1241.1999511719</ele>
        <time>2020-06-06T12:41:21.000Z</time>
      </trkpt>
      <trkpt lat="44.15829" lon="6.76576">
        <ele>1241</ele>
        <time>2020-06-06T12:41:25.000Z</time>
      </trkpt>
      <trkpt lat="44.15832" lon="6.76572">
        <ele>1241.1999511719</ele>
        <time>2020-06-06T12:41:27.000Z</time>
      </trkpt>
      <trkpt lat="44.1584" lon="6.76573">
        <ele>1240.4000244141</ele>
        <time>2020-06-06T12:41:30.000Z</time>
      </trkpt>
      <trkpt lat="44.15844" lon="6.76565">
        <ele>1239.4000244141</ele>
        <time>2020-06-06T12:41:32.000Z</time>
      </trkpt>
      <trkpt lat="44.15845" lon="6.76558">
        <ele>1238.8000488281</ele>
        <time>2020-06-06T12:41:33.000Z</time>
      </trkpt>
      <trkpt lat="44.15844" lon="6.76549">
        <ele>1237.8000488281</ele>
        <time>2020-06-06T12:41:34.000Z</time>
      </trkpt>
      <trkpt lat="44.15842" lon="6.76529">
        <ele>1235.8000488281</ele>
        <time>2020-06-06T12:41:36.000Z</time>
      </trkpt>
      <trkpt lat="44.15842" lon="6.76519">
        <ele>1234.4000244141</ele>
        <time>2020-06-06T12:41:37.000Z</time>
      </trkpt>
      <trkpt lat="44.15841" lon="6.7651">
        <ele>1232.8000488281</ele>
        <time>2020-06-06T12:41:38.000Z</time>
      </trkpt>
      <trkpt lat="44.15839" lon="6.76501">
        <ele>1230.8000488281</ele>
        <time>2020-06-06T12:41:39.000Z</time>
      </trkpt>
      <trkpt lat="44.15838" lon="6.76495">
        <ele>1228.8000488281</ele>
        <time>2020-06-06T12:41:40.000Z</time>
      </trkpt>
      <trkpt lat="44.15836" lon="6.76487">
        <ele>1227.1999511719</ele>
        <time>2020-06-06T12:41:41.000Z</time>
      </trkpt>
      <trkpt lat="44.15836" lon="6.7648">
        <ele>1226</ele>
        <time>2020-06-06T12:41:42.000Z</time>
      </trkpt>
      <trkpt lat="44.15837" lon="6.76472">
        <ele>1225</ele>
        <time>2020-06-06T12:41:43.000Z</time>
      </trkpt>
      <trkpt lat="44.15837" lon="6.76465">
        <ele>1224.8000488281</ele>
        <time>2020-06-06T12:41:44.000Z</time>
      </trkpt>
      <trkpt lat="44.15838" lon="6.76451">
        <ele>1224.8000488281</ele>
        <time>2020-06-06T12:41:46.000Z</time>
      </trkpt>
      <trkpt lat="44.15839" lon="6.76434">
        <ele>1224.4000244141</ele>
        <time>2020-06-06T12:41:48.000Z</time>
      </trkpt>
      <trkpt lat="44.15838" lon="6.76425">
        <ele>1223.5999755859</ele>
        <time>2020-06-06T12:41:49.000Z</time>
      </trkpt>
      <trkpt lat="44.15835" lon="6.76402">
        <ele>1222.4000244141</ele>
        <time>2020-06-06T12:41:51.000Z</time>
      </trkpt>
      <trkpt lat="44.15833" lon="6.76391">
        <ele>1221.4000244141</ele>
        <time>2020-06-06T12:41:52.000Z</time>
      </trkpt>
      <trkpt lat="44.15828" lon="6.76376">
        <ele>1220.4000244141</ele>
        <time>2020-06-06T12:41:54.000Z</time>
      </trkpt>
      <trkpt lat="44.15823" lon="6.76363">
        <ele>1219.1999511719</ele>
        <time>2020-06-06T12:41:56.000Z</time>
      </trkpt>
      <trkpt lat="44.15817" lon="6.76357">
        <ele>1218.1999511719</ele>
        <time>2020-06-06T12:41:58.000Z</time>
      </trkpt>
      <trkpt lat="44.15812" lon="6.76354">
        <ele>1217.1999511719</ele>
        <time>2020-06-06T12:41:59.000Z</time>
      </trkpt>
      <trkpt lat="44.15808" lon="6.76349">
        <ele>1216.1999511719</ele>
        <time>2020-06-06T12:42:00.000Z</time>
      </trkpt>
      <trkpt lat="44.15806" lon="6.76345">
        <ele>1214.8000488281</ele>
        <time>2020-06-06T12:42:01.000Z</time>
      </trkpt>
      <trkpt lat="44.15811" lon="6.76341">
        <ele>1212.5999755859</ele>
        <time>2020-06-06T12:42:03.000Z</time>
      </trkpt>
      <trkpt lat="44.15821" lon="6.7634">
        <ele>1211.4000244141</ele>
        <time>2020-06-06T12:42:05.000Z</time>
      </trkpt>
      <trkpt lat="44.15827" lon="6.76337">
        <ele>1211</ele>
        <time>2020-06-06T12:42:06.000Z</time>
      </trkpt>
      <trkpt lat="44.15833" lon="6.76335">
        <ele>1210</ele>
        <time>2020-06-06T12:42:07.000Z</time>
      </trkpt>
      <trkpt lat="44.15849" lon="6.76333">
        <ele>1208.5999755859</ele>
        <time>2020-06-06T12:42:09.000Z</time>
      </trkpt>
      <trkpt lat="44.15855" lon="6.76331">
        <ele>1206.8000488281</ele>
        <time>2020-06-06T12:42:10.000Z</time>
      </trkpt>
      <trkpt lat="44.15863" lon="6.76324">
        <ele>1203.5999755859</ele>
        <time>2020-06-06T12:42:12.000Z</time>
      </trkpt>
      <trkpt lat="44.15868" lon="6.76323">
        <ele>1201.4000244141</ele>
        <time>2020-06-06T12:42:13.000Z</time>
      </trkpt>
      <trkpt lat="44.15872" lon="6.76324">
        <ele>1199.5999755859</ele>
        <time>2020-06-06T12:42:14.000Z</time>
      </trkpt>
      <trkpt lat="44.15876" lon="6.76324">
        <ele>1199.1999511719</ele>
        <time>2020-06-06T12:42:15.000Z</time>
      </trkpt>
      <trkpt lat="44.1588" lon="6.76325">
        <ele>1197</ele>
        <time>2020-06-06T12:42:16.000Z</time>
      </trkpt>
      <trkpt lat="44.15883" lon="6.76325">
        <ele>1196.4000244141</ele>
        <time>2020-06-06T12:42:18.000Z</time>
      </trkpt>
      <trkpt lat="44.15882" lon="6.76324">
        <ele>1195.8000488281</ele>
        <time>2020-06-06T12:42:19.000Z</time>
      </trkpt>
      <trkpt lat="44.1588" lon="6.76322">
        <ele>1194.4000244141</ele>
        <time>2020-06-06T12:42:20.000Z</time>
      </trkpt>
      <trkpt lat="44.15876" lon="6.76317">
        <ele>1194</ele>
        <time>2020-06-06T12:42:21.000Z</time>
      </trkpt>
      <trkpt lat="44.15869" lon="6.76308">
        <ele>1192.5999755859</ele>
        <time>2020-06-06T12:42:23.000Z</time>
      </trkpt>
      <trkpt lat="44.15865" lon="6.76305">
        <ele>1191.8000488281</ele>
        <time>2020-06-06T12:42:24.000Z</time>
      </trkpt>
      <trkpt lat="44.15863" lon="6.76304">
        <ele>1191.1999511719</ele>
        <time>2020-06-06T12:42:25.000Z</time>
      </trkpt>
      <trkpt lat="44.15862" lon="6.763">
        <ele>1189.1999511719</ele>
        <time>2020-06-06T12:42:27.000Z</time>
      </trkpt>
      <trkpt lat="44.15864" lon="6.76298">
        <ele>1188</ele>
        <time>2020-06-06T12:42:28.000Z</time>
      </trkpt>
      <trkpt lat="44.15868" lon="6.76297">
        <ele>1186.4000244141</ele>
        <time>2020-06-06T12:42:30.000Z</time>
      </trkpt>
      <trkpt lat="44.15865" lon="6.76294">
        <ele>1185</ele>
        <time>2020-06-06T12:42:33.000Z</time>
      </trkpt>
      <trkpt lat="44.15862" lon="6.76291">
        <ele>1184.4000244141</ele>
        <time>2020-06-06T12:42:34.000Z</time>
      </trkpt>
      <trkpt lat="44.1586" lon="6.76289">
        <ele>1183.8000488281</ele>
        <time>2020-06-06T12:42:35.000Z</time>
      </trkpt>
      <trkpt lat="44.15856" lon="6.76287">
        <ele>1182.8000488281</ele>
        <time>2020-06-06T12:42:37.000Z</time>
      </trkpt>
      <trkpt lat="44.15861" lon="6.7628">
        <ele>1181.4000244141</ele>
        <time>2020-06-06T12:42:40.000Z</time>
      </trkpt>
      <trkpt lat="44.15869" lon="6.76276">
        <ele>1180.1999511719</ele>
        <time>2020-06-06T12:42:42.000Z</time>
      </trkpt>
      <trkpt lat="44.15873" lon="6.76277">
        <ele>1179</ele>
        <time>2020-06-06T12:42:43.000Z</time>
      </trkpt>
      <trkpt lat="44.15877" lon="6.76276">
        <ele>1177.8000488281</ele>
        <time>2020-06-06T12:42:44.000Z</time>
      </trkpt>
      <trkpt lat="44.15883" lon="6.76276">
        <ele>1177</ele>
        <time>2020-06-06T12:42:45.000Z</time>
      </trkpt>
      <trkpt lat="44.15887" lon="6.76274">
        <ele>1175.4000244141</ele>
        <time>2020-06-06T12:42:46.000Z</time>
      </trkpt>
      <trkpt lat="44.15892" lon="6.7627">
        <ele>1174.5999755859</ele>
        <time>2020-06-06T12:42:47.000Z</time>
      </trkpt>
      <trkpt lat="44.15896" lon="6.76265">
        <ele>1174</ele>
        <time>2020-06-06T12:42:48.000Z</time>
      </trkpt>
      <trkpt lat="44.15903" lon="6.76257">
        <ele>1171.5999755859</ele>
        <time>2020-06-06T12:42:50.000Z</time>
      </trkpt>
      <trkpt lat="44.15905" lon="6.76253">
        <ele>1170.4000244141</ele>
        <time>2020-06-06T12:42:51.000Z</time>
      </trkpt>
      <trkpt lat="44.15906" lon="6.76251">
        <ele>1168.8000488281</ele>
        <time>2020-06-06T12:42:52.000Z</time>
      </trkpt>
      <trkpt lat="44.15909" lon="6.7625">
        <ele>1166.8000488281</ele>
        <time>2020-06-06T12:42:53.000Z</time>
      </trkpt>
      <trkpt lat="44.15911" lon="6.76249">
        <ele>1165</ele>
        <time>2020-06-06T12:42:54.000Z</time>
      </trkpt>
      <trkpt lat="44.15913" lon="6.76251">
        <ele>1163.8000488281</ele>
        <time>2020-06-06T12:42:55.000Z</time>
      </trkpt>
      <trkpt lat="44.15913" lon="6.76253">
        <ele>1162.5999755859</ele>
        <time>2020-06-06T12:42:56.000Z</time>
      </trkpt>
      <trkpt lat="44.15913" lon="6.76258">
        <ele>1160.5999755859</ele>
        <time>2020-06-06T12:42:58.000Z</time>
      </trkpt>
      <trkpt lat="44.15914" lon="6.76256">
        <ele>1158.8000488281</ele>
        <time>2020-06-06T12:43:00.000Z</time>
      </trkpt>
      <trkpt lat="44.15915" lon="6.76251">
        <ele>1158.1999511719</ele>
        <time>2020-06-06T12:43:01.000Z</time>
      </trkpt>
      <trkpt lat="44.15916" lon="6.76246">
        <ele>1157.5999755859</ele>
        <time>2020-06-06T12:43:02.000Z</time>
      </trkpt>
      <trkpt lat="44.15919" lon="6.76237">
        <ele>1156.4000244141</ele>
        <time>2020-06-06T12:43:04.000Z</time>
      </trkpt>
      <trkpt lat="44.15919" lon="6.76235">
        <ele>1155.5999755859</ele>
        <time>2020-06-06T12:43:05.000Z</time>
      </trkpt>
      <trkpt lat="44.1592" lon="6.76235">
        <ele>1155</ele>
        <time>2020-06-06T12:43:06.000Z</time>
      </trkpt>
      <trkpt lat="44.15921" lon="6.76236">
        <ele>1154</ele>
        <time>2020-06-06T12:43:10.000Z</time>
      </trkpt>
      <trkpt lat="44.15922" lon="6.76237">
        <ele>1153.8000488281</ele>
        <time>2020-06-06T12:43:13.000Z</time>
      </trkpt>
      <trkpt lat="44.15922" lon="6.76239">
        <ele>1153.8000488281</ele>
        <time>2020-06-06T12:43:19.000Z</time>
      </trkpt>
      <trkpt lat="44.15922" lon="6.7624">
        <ele>1154</ele>
        <time>2020-06-06T12:43:26.000Z</time>
      </trkpt>
      <trkpt lat="44.15922" lon="6.76242">
        <ele>1153.8000488281</ele>
        <time>2020-06-06T12:43:32.000Z</time>
      </trkpt>
      <trkpt lat="44.15922" lon="6.76243">
        <ele>1153.5999755859</ele>
        <time>2020-06-06T12:43:36.000Z</time>
      </trkpt>
      <trkpt lat="44.1592" lon="6.76245">
        <ele>1153.5999755859</ele>
        <time>2020-06-06T12:43:49.000Z</time>
      </trkpt>
      <trkpt lat="44.1592" lon="6.76246">
        <ele>1154</ele>
        <time>2020-06-06T12:44:04.000Z</time>
      </trkpt>
      <trkpt lat="44.15919" lon="6.76245">
        <ele>1154</ele>
        <time>2020-06-06T12:44:16.000Z</time>
      </trkpt>
      <trkpt lat="44.1592" lon="6.76247">
        <ele>1153.5999755859</ele>
        <time>2020-06-06T12:44:23.000Z</time>
      </trkpt>
      <trkpt lat="44.1592" lon="6.76247">
        <ele>1154</ele>
        <time>2020-06-06T12:44:29.000Z</time>
      </trkpt>
      <trkpt lat="44.1592" lon="6.76243">
        <ele>1154</ele>
        <time>2020-06-06T12:44:36.000Z</time>
      </trkpt>
      <trkpt lat="44.15921" lon="6.76241">
        <ele>1154</ele>
        <time>2020-06-06T12:44:42.000Z</time>
      </trkpt>
      <trkpt lat="44.15922" lon="6.76237">
        <ele>1155</ele>
        <time>2020-06-06T12:44:50.000Z</time>
      </trkpt>
      <trkpt lat="44.15924" lon="6.76237">
        <ele>1156</ele>
        <time>2020-06-06T12:44:57.000Z</time>
      </trkpt>
      <trkpt lat="44.15925" lon="6.76237">
        <ele>1156.1999511719</ele>
        <time>2020-06-06T12:44:58.000Z</time>
      </trkpt>
      <trkpt lat="44.15927" lon="6.76235">
        <ele>1157.1999511719</ele>
        <time>2020-06-06T12:45:03.000Z</time>
      </trkpt>
      <trkpt lat="44.15927" lon="6.76236">
        <ele>1157.4000244141</ele>
        <time>2020-06-06T12:45:04.000Z</time>
      </trkpt>
      <trkpt lat="44.15928" lon="6.76235">
        <ele>1158.1999511719</ele>
        <time>2020-06-06T12:45:07.000Z</time>
      </trkpt>
      <trkpt lat="44.15926" lon="6.76234">
        <ele>1159.1999511719</ele>
        <time>2020-06-06T12:45:11.000Z</time>
      </trkpt>
      <trkpt lat="44.15925" lon="6.76234">
        <ele>1159.1999511719</ele>
        <time>2020-06-06T12:45:12.000Z</time>
      </trkpt>
      <trkpt lat="44.15923" lon="6.76234">
        <ele>1159.5999755859</ele>
        <time>2020-06-06T12:45:17.000Z</time>
      </trkpt>
      <trkpt lat="44.15921" lon="6.76233">
        <ele>1159.5999755859</ele>
        <time>2020-06-06T12:45:19.000Z</time>
      </trkpt>
      <trkpt lat="44.15919" lon="6.76231">
        <ele>1159.5999755859</ele>
        <time>2020-06-06T12:45:21.000Z</time>
      </trkpt>
      <trkpt lat="44.15914" lon="6.76225">
        <ele>1159.4000244141</ele>
        <time>2020-06-06T12:45:26.000Z</time>
      </trkpt>
      <trkpt lat="44.15908" lon="6.76218">
        <ele>1160.1999511719</ele>
        <time>2020-06-06T12:45:32.000Z</time>
      </trkpt>
      <trkpt lat="44.15905" lon="6.7621">
        <ele>1160.1999511719</ele>
        <time>2020-06-06T12:45:36.000Z</time>
      </trkpt>
      <trkpt lat="44.15903" lon="6.76201">
        <ele>1160.5999755859</ele>
        <time>2020-06-06T12:45:39.000Z</time>
      </trkpt>
      <trkpt lat="44.15896" lon="6.76182">
        <ele>1160.4000244141</ele>
        <time>2020-06-06T12:45:45.000Z</time>
      </trkpt>
      <trkpt lat="44.15895" lon="6.76175">
        <ele>1160.4000244141</ele>
        <time>2020-06-06T12:45:48.000Z</time>
      </trkpt>
      <trkpt lat="44.15896" lon="6.76172">
        <ele>1160.1999511719</ele>
        <time>2020-06-06T12:45:50.000Z</time>
      </trkpt>
      <trkpt lat="44.15897" lon="6.76169">
        <ele>1160.4000244141</ele>
        <time>2020-06-06T12:45:55.000Z</time>
      </trkpt>
      <trkpt lat="44.15898" lon="6.76161">
        <ele>1161.4000244141</ele>
        <time>2020-06-06T12:46:02.000Z</time>
      </trkpt>
      <trkpt lat="44.15898" lon="6.7616">
        <ele>1161.5999755859</ele>
        <time>2020-06-06T12:46:03.000Z</time>
      </trkpt>
      <trkpt lat="44.15899" lon="6.76156">
        <ele>1162.1999511719</ele>
        <time>2020-06-06T12:46:06.000Z</time>
      </trkpt>
      <trkpt lat="44.15899" lon="6.76155">
        <ele>1162.4000244141</ele>
        <time>2020-06-06T12:46:07.000Z</time>
      </trkpt>
      <trkpt lat="44.159" lon="6.76153">
        <ele>1162.8000488281</ele>
        <time>2020-06-06T12:46:09.000Z</time>
      </trkpt>
      <trkpt lat="44.15901" lon="6.7615">
        <ele>1163.4000244141</ele>
        <time>2020-06-06T12:46:12.000Z</time>
      </trkpt>
      <trkpt lat="44.15903" lon="6.76146">
        <ele>1164.1999511719</ele>
        <time>2020-06-06T12:46:16.000Z</time>
      </trkpt>
      <trkpt lat="44.15904" lon="6.76146">
        <ele>1164.4000244141</ele>
        <time>2020-06-06T12:46:17.000Z</time>
      </trkpt>
      <trkpt lat="44.15905" lon="6.7614">
        <ele>1165.1999511719</ele>
        <time>2020-06-06T12:46:23.000Z</time>
      </trkpt>
      <trkpt lat="44.15906" lon="6.76139">
        <ele>1165.5999755859</ele>
        <time>2020-06-06T12:46:25.000Z</time>
      </trkpt>
      <trkpt lat="44.15908" lon="6.76136">
        <ele>1166.8000488281</ele>
        <time>2020-06-06T12:46:30.000Z</time>
      </trkpt>
      <trkpt lat="44.15909" lon="6.76135">
        <ele>1167</ele>
        <time>2020-06-06T12:46:31.000Z</time>
      </trkpt>
      <trkpt lat="44.1591" lon="6.76133">
        <ele>1167.8000488281</ele>
        <time>2020-06-06T12:46:36.000Z</time>
      </trkpt>
      <trkpt lat="44.15912" lon="6.7613">
        <ele>1168.1999511719</ele>
        <time>2020-06-06T12:46:39.000Z</time>
      </trkpt>
      <trkpt lat="44.15913" lon="6.76129">
        <ele>1169</ele>
        <time>2020-06-06T12:46:44.000Z</time>
      </trkpt>
      <trkpt lat="44.15915" lon="6.76128">
        <ele>1169.1999511719</ele>
        <time>2020-06-06T12:46:46.000Z</time>
      </trkpt>
      <trkpt lat="44.15916" lon="6.76126">
        <ele>1169.4000244141</ele>
        <time>2020-06-06T12:46:49.000Z</time>
      </trkpt>
      <trkpt lat="44.15917" lon="6.76126">
        <ele>1169.4000244141</ele>
        <time>2020-06-06T12:46:50.000Z</time>
      </trkpt>
      <trkpt lat="44.15918" lon="6.76124">
        <ele>1170</ele>
        <time>2020-06-06T12:46:53.000Z</time>
      </trkpt>
      <trkpt lat="44.1592" lon="6.76122">
        <ele>1170.8000488281</ele>
        <time>2020-06-06T12:46:56.000Z</time>
      </trkpt>
      <trkpt lat="44.15921" lon="6.76121">
        <ele>1171.1999511719</ele>
        <time>2020-06-06T12:46:58.000Z</time>
      </trkpt>
      <trkpt lat="44.15923" lon="6.76118">
        <ele>1172.1999511719</ele>
        <time>2020-06-06T12:47:05.000Z</time>
      </trkpt>
      <trkpt lat="44.15923" lon="6.76118">
        <ele>1172.4000244141</ele>
        <time>2020-06-06T12:47:06.000Z</time>
      </trkpt>
      <trkpt lat="44.15924" lon="6.76117">
        <ele>1173</ele>
        <time>2020-06-06T12:47:15.000Z</time>
      </trkpt>
      <trkpt lat="44.15925" lon="6.76116">
        <ele>1173</ele>
        <time>2020-06-06T12:47:30.000Z</time>
      </trkpt>
      <trkpt lat="44.15926" lon="6.76115">
        <ele>1173</ele>
        <time>2020-06-06T12:47:38.000Z</time>
      </trkpt>
      <trkpt lat="44.15926" lon="6.76115">
        <ele>1173.1999511719</ele>
        <time>2020-06-06T12:47:40.000Z</time>
      </trkpt>
      <trkpt lat="44.15927" lon="6.76113">
        <ele>1173.4000244141</ele>
        <time>2020-06-06T12:47:45.000Z</time>
      </trkpt>
      <trkpt lat="44.15928" lon="6.76113">
        <ele>1173.8000488281</ele>
        <time>2020-06-06T12:47:51.000Z</time>
      </trkpt>
      <trkpt lat="44.15927" lon="6.76114">
        <ele>1173.8000488281</ele>
        <time>2020-06-06T12:47:57.000Z</time>
      </trkpt>
      <trkpt lat="44.15923" lon="6.76117">
        <ele>1172.4000244141</ele>
        <time>2020-06-06T12:48:03.000Z</time>
      </trkpt>
      <trkpt lat="44.15922" lon="6.76118">
        <ele>1172.1999511719</ele>
        <time>2020-06-06T12:48:04.000Z</time>
      </trkpt>
      <trkpt lat="44.1592" lon="6.76119">
        <ele>1171.1999511719</ele>
        <time>2020-06-06T12:48:07.000Z</time>
      </trkpt>
      <trkpt lat="44.1592" lon="6.76119">
        <ele>1170.8000488281</ele>
        <time>2020-06-06T12:48:08.000Z</time>
      </trkpt>
      <trkpt lat="44.15919" lon="6.7612">
        <ele>1170.5999755859</ele>
        <time>2020-06-06T12:48:09.000Z</time>
      </trkpt>
      <trkpt lat="44.15917" lon="6.76122">
        <ele>1169.8000488281</ele>
        <time>2020-06-06T12:48:12.000Z</time>
      </trkpt>
      <trkpt lat="44.15915" lon="6.76125">
        <ele>1168.5999755859</ele>
        <time>2020-06-06T12:48:16.000Z</time>
      </trkpt>
      <trkpt lat="44.15915" lon="6.76126">
        <ele>1168.4000244141</ele>
        <time>2020-06-06T12:48:17.000Z</time>
      </trkpt>
      <trkpt lat="44.15913" lon="6.76127">
        <ele>1167.8000488281</ele>
        <time>2020-06-06T12:48:20.000Z</time>
      </trkpt>
      <trkpt lat="44.15912" lon="6.76128">
        <ele>1167.5999755859</ele>
        <time>2020-06-06T12:48:21.000Z</time>
      </trkpt>
      <trkpt lat="44.15911" lon="6.76131">
        <ele>1167</ele>
        <time>2020-06-06T12:48:23.000Z</time>
      </trkpt>
      <trkpt lat="44.15909" lon="6.76134">
        <ele>1166.1999511719</ele>
        <time>2020-06-06T12:48:26.000Z</time>
      </trkpt>
      <trkpt lat="44.15908" lon="6.76137">
        <ele>1165.5999755859</ele>
        <time>2020-06-06T12:48:29.000Z</time>
      </trkpt>
      <trkpt lat="44.15908" lon="6.76138">
        <ele>1165.1999511719</ele>
        <time>2020-06-06T12:48:30.000Z</time>
      </trkpt>
      <trkpt lat="44.15907" lon="6.76139">
        <ele>1165</ele>
        <time>2020-06-06T12:48:31.000Z</time>
      </trkpt>
      <trkpt lat="44.15906" lon="6.76142">
        <ele>1164.1999511719</ele>
        <time>2020-06-06T12:48:34.000Z</time>
      </trkpt>
      <trkpt lat="44.15905" lon="6.76143">
        <ele>1164</ele>
        <time>2020-06-06T12:48:35.000Z</time>
      </trkpt>
      <trkpt lat="44.15903" lon="6.76148">
        <ele>1163</ele>
        <time>2020-06-06T12:48:39.000Z</time>
      </trkpt>
      <trkpt lat="44.15903" lon="6.7615">
        <ele>1162.8000488281</ele>
        <time>2020-06-06T12:48:40.000Z</time>
      </trkpt>
      <trkpt lat="44.15901" lon="6.76155">
        <ele>1161.8000488281</ele>
        <time>2020-06-06T12:48:44.000Z</time>
      </trkpt>
      <trkpt lat="44.15901" lon="6.76155">
        <ele>1161.5999755859</ele>
        <time>2020-06-06T12:48:45.000Z</time>
      </trkpt>
      <trkpt lat="44.159" lon="6.76157">
        <ele>1161.4000244141</ele>
        <time>2020-06-06T12:48:46.000Z</time>
      </trkpt>
      <trkpt lat="44.15899" lon="6.7616">
        <ele>1160.8000488281</ele>
        <time>2020-06-06T12:48:48.000Z</time>
      </trkpt>
      <trkpt lat="44.15899" lon="6.76162">
        <ele>1160.1999511719</ele>
        <time>2020-06-06T12:48:50.000Z</time>
      </trkpt>
      <trkpt lat="44.15898" lon="6.76164">
        <ele>1159.5999755859</ele>
        <time>2020-06-06T12:48:52.000Z</time>
      </trkpt>
      <trkpt lat="44.15898" lon="6.76166">
        <ele>1159</ele>
        <time>2020-06-06T12:48:56.000Z</time>
      </trkpt>
      <trkpt lat="44.15897" lon="6.76167">
        <ele>1159</ele>
        <time>2020-06-06T12:49:03.000Z</time>
      </trkpt>
      <trkpt lat="44.15897" lon="6.76167">
        <ele>1159.1999511719</ele>
        <time>2020-06-06T12:49:11.000Z</time>
      </trkpt>
      <trkpt lat="44.15896" lon="6.76166">
        <ele>1159</ele>
        <time>2020-06-06T12:49:29.000Z</time>
      </trkpt>
      <trkpt lat="44.15896" lon="6.76165">
        <ele>1159</ele>
        <time>2020-06-06T12:49:38.000Z</time>
      </trkpt>
      <trkpt lat="44.15895" lon="6.76165">
        <ele>1159</ele>
        <time>2020-06-06T12:49:47.000Z</time>
      </trkpt>
      <trkpt lat="44.15897" lon="6.76166">
        <ele>1159.1999511719</ele>
        <time>2020-06-06T12:50:07.000Z</time>
      </trkpt>
      <trkpt lat="44.15897" lon="6.76167">
        <ele>1159</ele>
        <time>2020-06-06T12:50:16.000Z</time>
      </trkpt>
      <trkpt lat="44.15899" lon="6.76172">
        <ele>1158.8000488281</ele>
        <time>2020-06-06T12:50:22.000Z</time>
      </trkpt>
      <trkpt lat="44.15898" lon="6.76171">
        <ele>1159</ele>
        <time>2020-06-06T12:50:28.000Z</time>
      </trkpt>
      <trkpt lat="44.15897" lon="6.76169">
        <ele>1159.4000244141</ele>
        <time>2020-06-06T12:50:34.000Z</time>
      </trkpt>
      <trkpt lat="44.15897" lon="6.76168">
        <ele>1158.8000488281</ele>
        <time>2020-06-06T12:50:41.000Z</time>
      </trkpt>
      <trkpt lat="44.15897" lon="6.76168">
        <ele>1158.8000488281</ele>
        <time>2020-06-06T12:50:47.000Z</time>
      </trkpt>
      <trkpt lat="44.15897" lon="6.76167">
        <ele>1158.8000488281</ele>
        <time>2020-06-06T12:50:54.000Z</time>
      </trkpt>
      <trkpt lat="44.15897" lon="6.76169">
        <ele>1159.4000244141</ele>
        <time>2020-06-06T12:51:03.000Z</time>
      </trkpt>
      <trkpt lat="44.15896" lon="6.76169">
        <ele>1158.8000488281</ele>
        <time>2020-06-06T12:51:12.000Z</time>
      </trkpt>
      <trkpt lat="44.15895" lon="6.76169">
        <ele>1158.5999755859</ele>
        <time>2020-06-06T12:51:14.000Z</time>
      </trkpt>
      <trkpt lat="44.15893" lon="6.76167">
        <ele>1158.8000488281</ele>
        <time>2020-06-06T12:51:20.000Z</time>
      </trkpt>
      <trkpt lat="44.15893" lon="6.76165">
        <ele>1158.8000488281</ele>
        <time>2020-06-06T12:51:30.000Z</time>
      </trkpt>
      <trkpt lat="44.15894" lon="6.7616">
        <ele>1158.4000244141</ele>
        <time>2020-06-06T12:51:35.000Z</time>
      </trkpt>
      <trkpt lat="44.15896" lon="6.76155">
        <ele>1159.5999755859</ele>
        <time>2020-06-06T12:51:42.000Z</time>
      </trkpt>
      <trkpt lat="44.15896" lon="6.76152">
        <ele>1160.5999755859</ele>
        <time>2020-06-06T12:51:47.000Z</time>
      </trkpt>
      <trkpt lat="44.15897" lon="6.76149">
        <ele>1161.4000244141</ele>
        <time>2020-06-06T12:51:50.000Z</time>
      </trkpt>
      <trkpt lat="44.15897" lon="6.76148">
        <ele>1161.5999755859</ele>
        <time>2020-06-06T12:51:51.000Z</time>
      </trkpt>
      <trkpt lat="44.15898" lon="6.76148">
        <ele>1162</ele>
        <time>2020-06-06T12:51:53.000Z</time>
      </trkpt>
      <trkpt lat="44.159" lon="6.76143">
        <ele>1162.8000488281</ele>
        <time>2020-06-06T12:51:57.000Z</time>
      </trkpt>
      <trkpt lat="44.15902" lon="6.7614">
        <ele>1164</ele>
        <time>2020-06-06T12:52:01.000Z</time>
      </trkpt>
      <trkpt lat="44.15903" lon="6.76137">
        <ele>1164.4000244141</ele>
        <time>2020-06-06T12:52:04.000Z</time>
      </trkpt>
      <trkpt lat="44.15907" lon="6.76132">
        <ele>1165.1999511719</ele>
        <time>2020-06-06T12:52:09.000Z</time>
      </trkpt>
      <trkpt lat="44.15907" lon="6.76131">
        <ele>1165.8000488281</ele>
        <time>2020-06-06T12:52:11.000Z</time>
      </trkpt>
      <trkpt lat="44.1591" lon="6.76129">
        <ele>1166.4000244141</ele>
        <time>2020-06-06T12:52:14.000Z</time>
      </trkpt>
      <trkpt lat="44.15912" lon="6.76128">
        <ele>1166.8000488281</ele>
        <time>2020-06-06T12:52:16.000Z</time>
      </trkpt>
      <trkpt lat="44.15914" lon="6.76127">
        <ele>1167.4000244141</ele>
        <time>2020-06-06T12:52:19.000Z</time>
      </trkpt>
      <trkpt lat="44.15915" lon="6.76125">
        <ele>1167.8000488281</ele>
        <time>2020-06-06T12:52:21.000Z</time>
      </trkpt>
      <trkpt lat="44.15916" lon="6.76122">
        <ele>1168.5999755859</ele>
        <time>2020-06-06T12:52:25.000Z</time>
      </trkpt>
      <trkpt lat="44.15917" lon="6.7612">
        <ele>1169.1999511719</ele>
        <time>2020-06-06T12:52:28.000Z</time>
      </trkpt>
      <trkpt lat="44.15917" lon="6.76119">
        <ele>1169.5999755859</ele>
        <time>2020-06-06T12:52:31.000Z</time>
      </trkpt>
      <trkpt lat="44.15918" lon="6.76118">
        <ele>1170</ele>
        <time>2020-06-06T12:52:33.000Z</time>
      </trkpt>
      <trkpt lat="44.15919" lon="6.76116">
        <ele>1170.4000244141</ele>
        <time>2020-06-06T12:52:34.000Z</time>
      </trkpt>
      <trkpt lat="44.1592" lon="6.76116">
        <ele>1170.8000488281</ele>
        <time>2020-06-06T12:52:36.000Z</time>
      </trkpt>
      <trkpt lat="44.1592" lon="6.76112">
        <ele>1171.1999511719</ele>
        <time>2020-06-06T12:52:38.000Z</time>
      </trkpt>
      <trkpt lat="44.15921" lon="6.76112">
        <ele>1172</ele>
        <time>2020-06-06T12:52:42.000Z</time>
      </trkpt>
      <trkpt lat="44.15921" lon="6.76111">
        <ele>1172.4000244141</ele>
        <time>2020-06-06T12:52:43.000Z</time>
      </trkpt>
      <trkpt lat="44.15923" lon="6.76111">
        <ele>1172.8000488281</ele>
        <time>2020-06-06T12:52:49.000Z</time>
      </trkpt>
      <trkpt lat="44.15925" lon="6.76112">
        <ele>1172.8000488281</ele>
        <time>2020-06-06T12:52:57.000Z</time>
      </trkpt>
      <trkpt lat="44.15927" lon="6.76112">
        <ele>1173</ele>
        <time>2020-06-06T12:53:05.000Z</time>
      </trkpt>
      <trkpt lat="44.15927" lon="6.76112">
        <ele>1173.1999511719</ele>
        <time>2020-06-06T12:53:07.000Z</time>
      </trkpt>
      <trkpt lat="44.15929" lon="6.7611">
        <ele>1173.5999755859</ele>
        <time>2020-06-06T12:53:13.000Z</time>
      </trkpt>
      <trkpt lat="44.15932" lon="6.76107">
        <ele>1174.4000244141</ele>
        <time>2020-06-06T12:53:18.000Z</time>
      </trkpt>
      <trkpt lat="44.15933" lon="6.76106">
        <ele>1174.8000488281</ele>
        <time>2020-06-06T12:53:20.000Z</time>
      </trkpt>
      <trkpt lat="44.15936" lon="6.76104">
        <ele>1175.4000244141</ele>
        <time>2020-06-06T12:53:25.000Z</time>
      </trkpt>
      <trkpt lat="44.15937" lon="6.76103">
        <ele>1175.8000488281</ele>
        <time>2020-06-06T12:53:27.000Z</time>
      </trkpt>
      <trkpt lat="44.15938" lon="6.76103">
        <ele>1176.5999755859</ele>
        <time>2020-06-06T12:53:30.000Z</time>
      </trkpt>
      <trkpt lat="44.15939" lon="6.76103">
        <ele>1176.8000488281</ele>
        <time>2020-06-06T12:53:34.000Z</time>
      </trkpt>
      <trkpt lat="44.15938" lon="6.76103">
        <ele>1176.8000488281</ele>
        <time>2020-06-06T12:53:39.000Z</time>
      </trkpt>
      <trkpt lat="44.15941" lon="6.761">
        <ele>1177.4000244141</ele>
        <time>2020-06-06T12:53:46.000Z</time>
      </trkpt>
      <trkpt lat="44.15942" lon="6.761">
        <ele>1177.5999755859</ele>
        <time>2020-06-06T12:53:48.000Z</time>
      </trkpt>
      <trkpt lat="44.15942" lon="6.76099">
        <ele>1178</ele>
        <time>2020-06-06T12:53:54.000Z</time>
      </trkpt>
      <trkpt lat="44.15943" lon="6.76099">
        <ele>1178.1999511719</ele>
        <time>2020-06-06T12:54:10.000Z</time>
      </trkpt>
      <trkpt lat="44.15944" lon="6.76098">
        <ele>1178.1999511719</ele>
        <time>2020-06-06T12:54:33.000Z</time>
      </trkpt>
      <trkpt lat="44.15945" lon="6.76097">
        <ele>1178.1999511719</ele>
        <time>2020-06-06T12:54:56.000Z</time>
      </trkpt>
      <trkpt lat="44.15945" lon="6.76095">
        <ele>1178</ele>
        <time>2020-06-06T12:55:15.000Z</time>
      </trkpt>
      <trkpt lat="44.15945" lon="6.76095">
        <ele>1178.1999511719</ele>
        <time>2020-06-06T12:55:25.000Z</time>
      </trkpt>
      <trkpt lat="44.15944" lon="6.76094">
        <ele>1178.1999511719</ele>
        <time>2020-06-06T12:55:38.000Z</time>
      </trkpt>
      <trkpt lat="44.15944" lon="6.76092">
        <ele>1177.8000488281</ele>
        <time>2020-06-06T12:56:00.000Z</time>
      </trkpt>
      <trkpt lat="44.15945" lon="6.76091">
        <ele>1177.5999755859</ele>
        <time>2020-06-06T12:56:19.000Z</time>
      </trkpt>
      <trkpt lat="44.15945" lon="6.7609">
        <ele>1177.4000244141</ele>
        <time>2020-06-06T12:56:29.000Z</time>
      </trkpt>
      <trkpt lat="44.15948" lon="6.76089">
        <ele>1177.8000488281</ele>
        <time>2020-06-06T12:56:36.000Z</time>
      </trkpt>
      <trkpt lat="44.1595" lon="6.76088">
        <ele>1178.5999755859</ele>
        <time>2020-06-06T12:56:44.000Z</time>
      </trkpt>
      <trkpt lat="44.15951" lon="6.76088">
        <ele>1178.8000488281</ele>
        <time>2020-06-06T12:56:45.000Z</time>
      </trkpt>
      <trkpt lat="44.15954" lon="6.76087">
        <ele>1179.5999755859</ele>
        <time>2020-06-06T12:56:51.000Z</time>
      </trkpt>
      <trkpt lat="44.15956" lon="6.76086">
        <ele>1180.1999511719</ele>
        <time>2020-06-06T12:56:54.000Z</time>
      </trkpt>
      <trkpt lat="44.15957" lon="6.76085">
        <ele>1180.8000488281</ele>
        <time>2020-06-06T12:56:58.000Z</time>
      </trkpt>
      <trkpt lat="44.15958" lon="6.76084">
        <ele>1181</ele>
        <time>2020-06-06T12:57:00.000Z</time>
      </trkpt>
      <trkpt lat="44.1596" lon="6.76081">
        <ele>1181.8000488281</ele>
        <time>2020-06-06T12:57:05.000Z</time>
      </trkpt>
      <trkpt lat="44.15961" lon="6.76081">
        <ele>1182</ele>
        <time>2020-06-06T12:57:07.000Z</time>
      </trkpt>
      <trkpt lat="44.15964" lon="6.76078">
        <ele>1182.8000488281</ele>
        <time>2020-06-06T12:57:13.000Z</time>
      </trkpt>
      <trkpt lat="44.15966" lon="6.76078">
        <ele>1183.1999511719</ele>
        <time>2020-06-06T12:57:15.000Z</time>
      </trkpt>
      <trkpt lat="44.15968" lon="6.76076">
        <ele>1183.8000488281</ele>
        <time>2020-06-06T12:57:19.000Z</time>
      </trkpt>
      <trkpt lat="44.1597" lon="6.76075">
        <ele>1184.4000244141</ele>
        <time>2020-06-06T12:57:23.000Z</time>
      </trkpt>
      <trkpt lat="44.15972" lon="6.76073">
        <ele>1185</ele>
        <time>2020-06-06T12:57:27.000Z</time>
      </trkpt>
      <trkpt lat="44.15975" lon="6.76071">
        <ele>1185.5999755859</ele>
        <time>2020-06-06T12:57:31.000Z</time>
      </trkpt>
      <trkpt lat="44.15976" lon="6.7607">
        <ele>1186</ele>
        <time>2020-06-06T12:57:33.000Z</time>
      </trkpt>
      <trkpt lat="44.1598" lon="6.76069">
        <ele>1187.1999511719</ele>
        <time>2020-06-06T12:57:39.000Z</time>
      </trkpt>
      <trkpt lat="44.1598" lon="6.76069">
        <ele>1187.4000244141</ele>
        <time>2020-06-06T12:57:40.000Z</time>
      </trkpt>
      <trkpt lat="44.15982" lon="6.76068">
        <ele>1187.8000488281</ele>
        <time>2020-06-06T12:57:45.000Z</time>
      </trkpt>
      <trkpt lat="44.15985" lon="6.76068">
        <ele>1188.1999511719</ele>
        <time>2020-06-06T12:57:49.000Z</time>
      </trkpt>
      <trkpt lat="44.15988" lon="6.76067">
        <ele>1189.1999511719</ele>
        <time>2020-06-06T12:57:54.000Z</time>
      </trkpt>
      <trkpt lat="44.15988" lon="6.76067">
        <ele>1189.4000244141</ele>
        <time>2020-06-06T12:57:55.000Z</time>
      </trkpt>
      <trkpt lat="44.15992" lon="6.76065">
        <ele>1190.5999755859</ele>
        <time>2020-06-06T12:58:01.000Z</time>
      </trkpt>
      <trkpt lat="44.15992" lon="6.76065">
        <ele>1191</ele>
        <time>2020-06-06T12:58:03.000Z</time>
      </trkpt>
      <trkpt lat="44.15995" lon="6.76064">
        <ele>1191.5999755859</ele>
        <time>2020-06-06T12:58:07.000Z</time>
      </trkpt>
      <trkpt lat="44.15996" lon="6.76064">
        <ele>1192.1999511719</ele>
        <time>2020-06-06T12:58:10.000Z</time>
      </trkpt>
      <trkpt lat="44.15998" lon="6.76063">
        <ele>1192.8000488281</ele>
        <time>2020-06-06T12:58:13.000Z</time>
      </trkpt>
      <trkpt lat="44.16001" lon="6.76062">
        <ele>1193.8000488281</ele>
        <time>2020-06-06T12:58:18.000Z</time>
      </trkpt>
      <trkpt lat="44.16" lon="6.76062">
        <ele>1193.8000488281</ele>
        <time>2020-06-06T12:58:19.000Z</time>
      </trkpt>
      <trkpt lat="44.16005" lon="6.76061">
        <ele>1194.8000488281</ele>
        <time>2020-06-06T12:58:26.000Z</time>
      </trkpt>
      <trkpt lat="44.16005" lon="6.7606">
        <ele>1194.8000488281</ele>
        <time>2020-06-06T12:58:27.000Z</time>
      </trkpt>
      <trkpt lat="44.16009" lon="6.76058">
        <ele>1196</ele>
        <time>2020-06-06T12:58:34.000Z</time>
      </trkpt>
      <trkpt lat="44.1601" lon="6.76057">
        <ele>1196.1999511719</ele>
        <time>2020-06-06T12:58:36.000Z</time>
      </trkpt>
      <trkpt lat="44.16013" lon="6.76056">
        <ele>1197</ele>
        <time>2020-06-06T12:58:41.000Z</time>
      </trkpt>
      <trkpt lat="44.16016" lon="6.76055">
        <ele>1198</ele>
        <time>2020-06-06T12:58:46.000Z</time>
      </trkpt>
      <trkpt lat="44.16017" lon="6.76055">
        <ele>1198</ele>
        <time>2020-06-06T12:58:47.000Z</time>
      </trkpt>
      <trkpt lat="44.16021" lon="6.76053">
        <ele>1199.1999511719</ele>
        <time>2020-06-06T12:58:53.000Z</time>
      </trkpt>
      <trkpt lat="44.16021" lon="6.76053">
        <ele>1199.4000244141</ele>
        <time>2020-06-06T12:58:54.000Z</time>
      </trkpt>
      <trkpt lat="44.16024" lon="6.76052">
        <ele>1200.4000244141</ele>
        <time>2020-06-06T12:58:58.000Z</time>
      </trkpt>
      <trkpt lat="44.16026" lon="6.76051">
        <ele>1201.4000244141</ele>
        <time>2020-06-06T12:59:04.000Z</time>
      </trkpt>
      <trkpt lat="44.16027" lon="6.7605">
        <ele>1201.5999755859</ele>
        <time>2020-06-06T12:59:05.000Z</time>
      </trkpt>
      <trkpt lat="44.1603" lon="6.76049">
        <ele>1202.5999755859</ele>
        <time>2020-06-06T12:59:10.000Z</time>
      </trkpt>
      <trkpt lat="44.16032" lon="6.76049">
        <ele>1203</ele>
        <time>2020-06-06T12:59:13.000Z</time>
      </trkpt>
      <trkpt lat="44.16034" lon="6.76048">
        <ele>1203.8000488281</ele>
        <time>2020-06-06T12:59:17.000Z</time>
      </trkpt>
      <trkpt lat="44.16038" lon="6.76048">
        <ele>1204.5999755859</ele>
        <time>2020-06-06T12:59:21.000Z</time>
      </trkpt>
      <trkpt lat="44.16039" lon="6.76048">
        <ele>1204.8000488281</ele>
        <time>2020-06-06T12:59:23.000Z</time>
      </trkpt>
      <trkpt lat="44.16042" lon="6.76049">
        <ele>1206</ele>
        <time>2020-06-06T12:59:28.000Z</time>
      </trkpt>
      <trkpt lat="44.16043" lon="6.76049">
        <ele>1206.1999511719</ele>
        <time>2020-06-06T12:59:29.000Z</time>
      </trkpt>
      <trkpt lat="44.16043" lon="6.7605">
        <ele>1206.5999755859</ele>
        <time>2020-06-06T12:59:35.000Z</time>
      </trkpt>
      <trkpt lat="44.16045" lon="6.7605">
        <ele>1206.4000244141</ele>
        <time>2020-06-06T12:59:42.000Z</time>
      </trkpt>
      <trkpt lat="44.16053" lon="6.76052">
        <ele>1207.1999511719</ele>
        <time>2020-06-06T12:59:48.000Z</time>
      </trkpt>
      <trkpt lat="44.16059" lon="6.76054">
        <ele>1208.5999755859</ele>
        <time>2020-06-06T12:59:52.000Z</time>
      </trkpt>
      <trkpt lat="44.16062" lon="6.76052">
        <ele>1209.1999511719</ele>
        <time>2020-06-06T12:59:54.000Z</time>
      </trkpt>
      <trkpt lat="44.16066" lon="6.76047">
        <ele>1209.5999755859</ele>
        <time>2020-06-06T12:59:58.000Z</time>
      </trkpt>
      <trkpt lat="44.16067" lon="6.76045">
        <ele>1209.8000488281</ele>
        <time>2020-06-06T13:00:00.000Z</time>
      </trkpt>
      <trkpt lat="44.16069" lon="6.76042">
        <ele>1210.5999755859</ele>
        <time>2020-06-06T13:00:03.000Z</time>
      </trkpt>
      <trkpt lat="44.16069" lon="6.76041">
        <ele>1210.8000488281</ele>
        <time>2020-06-06T13:00:05.000Z</time>
      </trkpt>
      <trkpt lat="44.16072" lon="6.76038">
        <ele>1211.5999755859</ele>
        <time>2020-06-06T13:00:12.000Z</time>
      </trkpt>
      <trkpt lat="44.16073" lon="6.76037">
        <ele>1211.8000488281</ele>
        <time>2020-06-06T13:00:13.000Z</time>
      </trkpt>
      <trkpt lat="44.16075" lon="6.76033">
        <ele>1212.8000488281</ele>
        <time>2020-06-06T13:00:19.000Z</time>
      </trkpt>
      <trkpt lat="44.16076" lon="6.76033">
        <ele>1213</ele>
        <time>2020-06-06T13:00:21.000Z</time>
      </trkpt>
      <trkpt lat="44.1608" lon="6.76031">
        <ele>1213.8000488281</ele>
        <time>2020-06-06T13:00:27.000Z</time>
      </trkpt>
      <trkpt lat="44.16081" lon="6.7603">
        <ele>1214.1999511719</ele>
        <time>2020-06-06T13:00:29.000Z</time>
      </trkpt>
      <trkpt lat="44.16084" lon="6.76028">
        <ele>1215</ele>
        <time>2020-06-06T13:00:34.000Z</time>
      </trkpt>
      <trkpt lat="44.16084" lon="6.76028">
        <ele>1215.4000244141</ele>
        <time>2020-06-06T13:00:36.000Z</time>
      </trkpt>
      <trkpt lat="44.16087" lon="6.76027">
        <ele>1216</ele>
        <time>2020-06-06T13:00:40.000Z</time>
      </trkpt>
      <trkpt lat="44.16089" lon="6.76025">
        <ele>1216.8000488281</ele>
        <time>2020-06-06T13:00:45.000Z</time>
      </trkpt>
      <trkpt lat="44.16091" lon="6.76024">
        <ele>1217.1999511719</ele>
        <time>2020-06-06T13:00:48.000Z</time>
      </trkpt>
      <trkpt lat="44.16094" lon="6.7602">
        <ele>1218.4000244141</ele>
        <time>2020-06-06T13:00:54.000Z</time>
      </trkpt>
      <trkpt lat="44.16097" lon="6.76016">
        <ele>1219.4000244141</ele>
        <time>2020-06-06T13:01:01.000Z</time>
      </trkpt>
      <trkpt lat="44.16099" lon="6.76016">
        <ele>1219.8000488281</ele>
        <time>2020-06-06T13:01:03.000Z</time>
      </trkpt>
      <trkpt lat="44.16101" lon="6.76014">
        <ele>1220.5999755859</ele>
        <time>2020-06-06T13:01:07.000Z</time>
      </trkpt>
      <trkpt lat="44.16103" lon="6.76013">
        <ele>1221</ele>
        <time>2020-06-06T13:01:10.000Z</time>
      </trkpt>
      <trkpt lat="44.16106" lon="6.76013">
        <ele>1221.5999755859</ele>
        <time>2020-06-06T13:01:14.000Z</time>
      </trkpt>
      <trkpt lat="44.16109" lon="6.76011">
        <ele>1222.5999755859</ele>
        <time>2020-06-06T13:01:20.000Z</time>
      </trkpt>
      <trkpt lat="44.16113" lon="6.76009">
        <ele>1223.5999755859</ele>
        <time>2020-06-06T13:01:27.000Z</time>
      </trkpt>
      <trkpt lat="44.16115" lon="6.76007">
        <ele>1224.1999511719</ele>
        <time>2020-06-06T13:01:30.000Z</time>
      </trkpt>
      <trkpt lat="44.16117" lon="6.76007">
        <ele>1224.5999755859</ele>
        <time>2020-06-06T13:01:33.000Z</time>
      </trkpt>
      <trkpt lat="44.1612" lon="6.76005">
        <ele>1225.4000244141</ele>
        <time>2020-06-06T13:01:38.000Z</time>
      </trkpt>
      <trkpt lat="44.16121" lon="6.76005">
        <ele>1225.5999755859</ele>
        <time>2020-06-06T13:01:40.000Z</time>
      </trkpt>
      <trkpt lat="44.16125" lon="6.76002">
        <ele>1226.5999755859</ele>
        <time>2020-06-06T13:01:46.000Z</time>
      </trkpt>
      <trkpt lat="44.16126" lon="6.76002">
        <ele>1226.8000488281</ele>
        <time>2020-06-06T13:01:47.000Z</time>
      </trkpt>
      <trkpt lat="44.16129" lon="6.75999">
        <ele>1228</ele>
        <time>2020-06-06T13:01:54.000Z</time>
      </trkpt>
      <trkpt lat="44.1613" lon="6.75999">
        <ele>1228</ele>
        <time>2020-06-06T13:01:55.000Z</time>
      </trkpt>
      <trkpt lat="44.16133" lon="6.75996">
        <ele>1229</ele>
        <time>2020-06-06T13:02:01.000Z</time>
      </trkpt>
      <trkpt lat="44.16135" lon="6.75995">
        <ele>1229.5999755859</ele>
        <time>2020-06-06T13:02:04.000Z</time>
      </trkpt>
      <trkpt lat="44.16136" lon="6.75993">
        <ele>1230.1999511719</ele>
        <time>2020-06-06T13:02:07.000Z</time>
      </trkpt>
      <trkpt lat="44.16138" lon="6.75991">
        <ele>1230.8000488281</ele>
        <time>2020-06-06T13:02:11.000Z</time>
      </trkpt>
      <trkpt lat="44.16139" lon="6.7599">
        <ele>1231.1999511719</ele>
        <time>2020-06-06T13:02:14.000Z</time>
      </trkpt>
      <trkpt lat="44.16142" lon="6.75986">
        <ele>1232.1999511719</ele>
        <time>2020-06-06T13:02:20.000Z</time>
      </trkpt>
      <trkpt lat="44.16143" lon="6.75986">
        <ele>1232.1999511719</ele>
        <time>2020-06-06T13:02:21.000Z</time>
      </trkpt>
      <trkpt lat="44.16146" lon="6.75983">
        <ele>1233.4000244141</ele>
        <time>2020-06-06T13:02:27.000Z</time>
      </trkpt>
      <trkpt lat="44.1615" lon="6.75979">
        <ele>1234.4000244141</ele>
        <time>2020-06-06T13:02:34.000Z</time>
      </trkpt>
      <trkpt lat="44.16151" lon="6.75979">
        <ele>1234.5999755859</ele>
        <time>2020-06-06T13:02:35.000Z</time>
      </trkpt>
      <trkpt lat="44.16154" lon="6.75975">
        <ele>1235.4000244141</ele>
        <time>2020-06-06T13:02:40.000Z</time>
      </trkpt>
      <trkpt lat="44.16157" lon="6.75974">
        <ele>1236</ele>
        <time>2020-06-06T13:02:44.000Z</time>
      </trkpt>
      <trkpt lat="44.16158" lon="6.75972">
        <ele>1236.5999755859</ele>
        <time>2020-06-06T13:02:47.000Z</time>
      </trkpt>
      <trkpt lat="44.16162" lon="6.75969">
        <ele>1237.1999511719</ele>
        <time>2020-06-06T13:02:52.000Z</time>
      </trkpt>
      <trkpt lat="44.16165" lon="6.75968">
        <ele>1237.5999755859</ele>
        <time>2020-06-06T13:02:55.000Z</time>
      </trkpt>
      <trkpt lat="44.16169" lon="6.75964">
        <ele>1238.5999755859</ele>
        <time>2020-06-06T13:03:02.000Z</time>
      </trkpt>
      <trkpt lat="44.16173" lon="6.7596">
        <ele>1239.8000488281</ele>
        <time>2020-06-06T13:03:10.000Z</time>
      </trkpt>
      <trkpt lat="44.16174" lon="6.7596">
        <ele>1240.1999511719</ele>
        <time>2020-06-06T13:03:13.000Z</time>
      </trkpt>
      <trkpt lat="44.16175" lon="6.75959">
        <ele>1240.1999511719</ele>
        <time>2020-06-06T13:03:19.000Z</time>
      </trkpt>
      <trkpt lat="44.16177" lon="6.75958">
        <ele>1240.1999511719</ele>
        <time>2020-06-06T13:03:21.000Z</time>
      </trkpt>
      <trkpt lat="44.1618" lon="6.75955">
        <ele>1240.5999755859</ele>
        <time>2020-06-06T13:03:24.000Z</time>
      </trkpt>
      <trkpt lat="44.16181" lon="6.75955">
        <ele>1240.5999755859</ele>
        <time>2020-06-06T13:03:25.000Z</time>
      </trkpt>
      <trkpt lat="44.16184" lon="6.75954">
        <ele>1241</ele>
        <time>2020-06-06T13:03:27.000Z</time>
      </trkpt>
      <trkpt lat="44.16188" lon="6.75953">
        <ele>1241.5999755859</ele>
        <time>2020-06-06T13:03:30.000Z</time>
      </trkpt>
      <trkpt lat="44.16189" lon="6.75952">
        <ele>1242</ele>
        <time>2020-06-06T13:03:31.000Z</time>
      </trkpt>
      <trkpt lat="44.16194" lon="6.7595">
        <ele>1243.1999511719</ele>
        <time>2020-06-06T13:03:35.000Z</time>
      </trkpt>
      <trkpt lat="44.16195" lon="6.75949">
        <ele>1243.5999755859</ele>
        <time>2020-06-06T13:03:36.000Z</time>
      </trkpt>
      <trkpt lat="44.16198" lon="6.75948">
        <ele>1244.1999511719</ele>
        <time>2020-06-06T13:03:39.000Z</time>
      </trkpt>
      <trkpt lat="44.16202" lon="6.75948">
        <ele>1245.1999511719</ele>
        <time>2020-06-06T13:03:43.000Z</time>
      </trkpt>
      <trkpt lat="44.16203" lon="6.75948">
        <ele>1245.4000244141</ele>
        <time>2020-06-06T13:03:44.000Z</time>
      </trkpt>
      <trkpt lat="44.1621" lon="6.75948">
        <ele>1246.1999511719</ele>
        <time>2020-06-06T13:03:49.000Z</time>
      </trkpt>
      <trkpt lat="44.16219" lon="6.75946">
        <ele>1246.4000244141</ele>
        <time>2020-06-06T13:03:55.000Z</time>
      </trkpt>
      <trkpt lat="44.16221" lon="6.75945">
        <ele>1246.4000244141</ele>
        <time>2020-06-06T13:03:56.000Z</time>
      </trkpt>
      <trkpt lat="44.16231" lon="6.75946">
        <ele>1246.4000244141</ele>
        <time>2020-06-06T13:04:02.000Z</time>
      </trkpt>
      <trkpt lat="44.16243" lon="6.75945">
        <ele>1247.1999511719</ele>
        <time>2020-06-06T13:04:09.000Z</time>
      </trkpt>
      <trkpt lat="44.16244" lon="6.75945">
        <ele>1247.1999511719</ele>
        <time>2020-06-06T13:04:10.000Z</time>
      </trkpt>
      <trkpt lat="44.16247" lon="6.75946">
        <ele>1247.5999755859</ele>
        <time>2020-06-06T13:04:12.000Z</time>
      </trkpt>
      <trkpt lat="44.16251" lon="6.75946">
        <ele>1248.4000244141</ele>
        <time>2020-06-06T13:04:15.000Z</time>
      </trkpt>
      <trkpt lat="44.16255" lon="6.75946">
        <ele>1248.8000488281</ele>
        <time>2020-06-06T13:04:17.000Z</time>
      </trkpt>
      <trkpt lat="44.16263" lon="6.75945">
        <ele>1249.5999755859</ele>
        <time>2020-06-06T13:04:22.000Z</time>
      </trkpt>
      <trkpt lat="44.16266" lon="6.75946">
        <ele>1249.8000488281</ele>
        <time>2020-06-06T13:04:24.000Z</time>
      </trkpt>
      <trkpt lat="44.16274" lon="6.75946">
        <ele>1250.1999511719</ele>
        <time>2020-06-06T13:04:29.000Z</time>
      </trkpt>
      <trkpt lat="44.16284" lon="6.75946">
        <ele>1251</ele>
        <time>2020-06-06T13:04:35.000Z</time>
      </trkpt>
      <trkpt lat="44.16286" lon="6.75947">
        <ele>1251</ele>
        <time>2020-06-06T13:04:36.000Z</time>
      </trkpt>
      <trkpt lat="44.16293" lon="6.75948">
        <ele>1252</ele>
        <time>2020-06-06T13:04:41.000Z</time>
      </trkpt>
      <trkpt lat="44.16294" lon="6.75949">
        <ele>1252.1999511719</ele>
        <time>2020-06-06T13:04:42.000Z</time>
      </trkpt>
      <trkpt lat="44.16298" lon="6.7595">
        <ele>1253.1999511719</ele>
        <time>2020-06-06T13:04:47.000Z</time>
      </trkpt>
      <trkpt lat="44.16299" lon="6.7595">
        <ele>1253.1999511719</ele>
        <time>2020-06-06T13:04:48.000Z</time>
      </trkpt>
      <trkpt lat="44.16302" lon="6.7595">
        <ele>1254.1999511719</ele>
        <time>2020-06-06T13:04:54.000Z</time>
      </trkpt>
      <trkpt lat="44.16302" lon="6.75951">
        <ele>1254.1999511719</ele>
        <time>2020-06-06T13:04:55.000Z</time>
      </trkpt>
      <trkpt lat="44.16303" lon="6.75951">
        <ele>1253.8000488281</ele>
        <time>2020-06-06T13:05:02.000Z</time>
      </trkpt>
      <trkpt lat="44.16305" lon="6.7595">
        <ele>1254.5999755859</ele>
        <time>2020-06-06T13:05:07.000Z</time>
      </trkpt>
      <trkpt lat="44.16307" lon="6.7595">
        <ele>1255.1999511719</ele>
        <time>2020-06-06T13:05:12.000Z</time>
      </trkpt>
      <trkpt lat="44.16308" lon="6.7595">
        <ele>1255.4000244141</ele>
        <time>2020-06-06T13:05:13.000Z</time>
      </trkpt>
      <trkpt lat="44.16309" lon="6.75951">
        <ele>1255.4000244141</ele>
        <time>2020-06-06T13:05:14.000Z</time>
      </trkpt>
      <trkpt lat="44.1631" lon="6.75953">
        <ele>1255.5999755859</ele>
        <time>2020-06-06T13:05:17.000Z</time>
      </trkpt>
      <trkpt lat="44.1631" lon="6.75954">
        <ele>1256.4000244141</ele>
        <time>2020-06-06T13:05:20.000Z</time>
      </trkpt>
      <trkpt lat="44.1631" lon="6.75955">
        <ele>1257</ele>
        <time>2020-06-06T13:05:24.000Z</time>
      </trkpt>
      <trkpt lat="44.1631" lon="6.75957">
        <ele>1257.4000244141</ele>
        <time>2020-06-06T13:05:26.000Z</time>
      </trkpt>
      <trkpt lat="44.16313" lon="6.75958">
        <ele>1258.4000244141</ele>
        <time>2020-06-06T13:05:32.000Z</time>
      </trkpt>
      <trkpt lat="44.16314" lon="6.75958">
        <ele>1258.8000488281</ele>
        <time>2020-06-06T13:05:33.000Z</time>
      </trkpt>
      <trkpt lat="44.16316" lon="6.75959">
        <ele>1259.5999755859</ele>
        <time>2020-06-06T13:05:37.000Z</time>
      </trkpt>
      <trkpt lat="44.16318" lon="6.75962">
        <ele>1260.1999511719</ele>
        <time>2020-06-06T13:05:41.000Z</time>
      </trkpt>
      <trkpt lat="44.16319" lon="6.75964">
        <ele>1260.8000488281</ele>
        <time>2020-06-06T13:05:44.000Z</time>
      </trkpt>
      <trkpt lat="44.16321" lon="6.75968">
        <ele>1261.8000488281</ele>
        <time>2020-06-06T13:05:51.000Z</time>
      </trkpt>
      <trkpt lat="44.16323" lon="6.75972">
        <ele>1262.8000488281</ele>
        <time>2020-06-06T13:05:56.000Z</time>
      </trkpt>
      <trkpt lat="44.16326" lon="6.75972">
        <ele>1263.8000488281</ele>
        <time>2020-06-06T13:06:01.000Z</time>
      </trkpt>
      <trkpt lat="44.16326" lon="6.75972">
        <ele>1264</ele>
        <time>2020-06-06T13:06:02.000Z</time>
      </trkpt>
      <trkpt lat="44.1633" lon="6.75969">
        <ele>1265.1999511719</ele>
        <time>2020-06-06T13:06:09.000Z</time>
      </trkpt>
      <trkpt lat="44.16331" lon="6.75968">
        <ele>1265.4000244141</ele>
        <time>2020-06-06T13:06:10.000Z</time>
      </trkpt>
      <trkpt lat="44.16333" lon="6.75966">
        <ele>1266.1999511719</ele>
        <time>2020-06-06T13:06:15.000Z</time>
      </trkpt>
      <trkpt lat="44.16336" lon="6.75966">
        <ele>1266.8000488281</ele>
        <time>2020-06-06T13:06:19.000Z</time>
      </trkpt>
      <trkpt lat="44.16339" lon="6.75967">
        <ele>1267.4000244141</ele>
        <time>2020-06-06T13:06:23.000Z</time>
      </trkpt>
      <trkpt lat="44.16341" lon="6.75968">
        <ele>1267.8000488281</ele>
        <time>2020-06-06T13:06:26.000Z</time>
      </trkpt>
      <trkpt lat="44.16344" lon="6.75969">
        <ele>1268.5999755859</ele>
        <time>2020-06-06T13:06:31.000Z</time>
      </trkpt>
      <trkpt lat="44.16346" lon="6.7597">
        <ele>1268.8000488281</ele>
        <time>2020-06-06T13:06:34.000Z</time>
      </trkpt>
      <trkpt lat="44.16349" lon="6.7597">
        <ele>1269.4000244141</ele>
        <time>2020-06-06T13:06:38.000Z</time>
      </trkpt>
      <trkpt lat="44.1635" lon="6.7597">
        <ele>1269.5999755859</ele>
        <time>2020-06-06T13:06:39.000Z</time>
      </trkpt>
      <trkpt lat="44.16351" lon="6.75971">
        <ele>1269.8000488281</ele>
        <time>2020-06-06T13:06:41.000Z</time>
      </trkpt>
      <trkpt lat="44.16356" lon="6.75972">
        <ele>1270.8000488281</ele>
        <time>2020-06-06T13:06:47.000Z</time>
      </trkpt>
      <trkpt lat="44.16357" lon="6.75973">
        <ele>1271</ele>
        <time>2020-06-06T13:06:49.000Z</time>
      </trkpt>
      <trkpt lat="44.16359" lon="6.75973">
        <ele>1271.8000488281</ele>
        <time>2020-06-06T13:06:53.000Z</time>
      </trkpt>
      <trkpt lat="44.16361" lon="6.75974">
        <ele>1272.1999511719</ele>
        <time>2020-06-06T13:06:56.000Z</time>
      </trkpt>
      <trkpt lat="44.16364" lon="6.75975">
        <ele>1272.8000488281</ele>
        <time>2020-06-06T13:07:01.000Z</time>
      </trkpt>
      <trkpt lat="44.16366" lon="6.75976">
        <ele>1273.4000244141</ele>
        <time>2020-06-06T13:07:04.000Z</time>
      </trkpt>
      <trkpt lat="44.16368" lon="6.75978">
        <ele>1274</ele>
        <time>2020-06-06T13:07:07.000Z</time>
      </trkpt>
      <trkpt lat="44.16369" lon="6.7598">
        <ele>1274.4000244141</ele>
        <time>2020-06-06T13:07:10.000Z</time>
      </trkpt>
      <trkpt lat="44.16371" lon="6.75983">
        <ele>1275</ele>
        <time>2020-06-06T13:07:14.000Z</time>
      </trkpt>
      <trkpt lat="44.16374" lon="6.75986">
        <ele>1275.8000488281</ele>
        <time>2020-06-06T13:07:20.000Z</time>
      </trkpt>
      <trkpt lat="44.16375" lon="6.75986">
        <ele>1276</ele>
        <time>2020-06-06T13:07:21.000Z</time>
      </trkpt>
      <trkpt lat="44.1638" lon="6.75987">
        <ele>1277.1999511719</ele>
        <time>2020-06-06T13:07:28.000Z</time>
      </trkpt>
      <trkpt lat="44.1638" lon="6.75992">
        <ele>1278.4000244141</ele>
        <time>2020-06-06T13:07:34.000Z</time>
      </trkpt>
      <trkpt lat="44.1638" lon="6.75993">
        <ele>1278.5999755859</ele>
        <time>2020-06-06T13:07:35.000Z</time>
      </trkpt>
      <trkpt lat="44.1638" lon="6.75998">
        <ele>1279.4000244141</ele>
        <time>2020-06-06T13:07:40.000Z</time>
      </trkpt>
      <trkpt lat="44.1638" lon="6.76001">
        <ele>1280</ele>
        <time>2020-06-06T13:07:43.000Z</time>
      </trkpt>
      <trkpt lat="44.1638" lon="6.76004">
        <ele>1280.5999755859</ele>
        <time>2020-06-06T13:07:47.000Z</time>
      </trkpt>
      <trkpt lat="44.1638" lon="6.76007">
        <ele>1281</ele>
        <time>2020-06-06T13:07:51.000Z</time>
      </trkpt>
      <trkpt lat="44.1638" lon="6.7601">
        <ele>1281.5999755859</ele>
        <time>2020-06-06T13:07:55.000Z</time>
      </trkpt>
      <trkpt lat="44.1638" lon="6.76013">
        <ele>1282.1999511719</ele>
        <time>2020-06-06T13:07:58.000Z</time>
      </trkpt>
      <trkpt lat="44.16379" lon="6.76015">
        <ele>1282.8000488281</ele>
        <time>2020-06-06T13:08:01.000Z</time>
      </trkpt>
      <trkpt lat="44.16378" lon="6.76018">
        <ele>1283.4000244141</ele>
        <time>2020-06-06T13:08:04.000Z</time>
      </trkpt>
      <trkpt lat="44.16378" lon="6.76021">
        <ele>1283.8000488281</ele>
        <time>2020-06-06T13:08:08.000Z</time>
      </trkpt>
      <trkpt lat="44.16377" lon="6.76023">
        <ele>1284.1999511719</ele>
        <time>2020-06-06T13:08:11.000Z</time>
      </trkpt>
      <trkpt lat="44.16375" lon="6.76027">
        <ele>1285</ele>
        <time>2020-06-06T13:08:16.000Z</time>
      </trkpt>
      <trkpt lat="44.16374" lon="6.76028">
        <ele>1285.5999755859</ele>
        <time>2020-06-06T13:08:19.000Z</time>
      </trkpt>
      <trkpt lat="44.16372" lon="6.76031">
        <ele>1286</ele>
        <time>2020-06-06T13:08:23.000Z</time>
      </trkpt>
      <trkpt lat="44.1637" lon="6.76033">
        <ele>1286.5999755859</ele>
        <time>2020-06-06T13:08:27.000Z</time>
      </trkpt>
      <trkpt lat="44.16369" lon="6.76035">
        <ele>1287.1999511719</ele>
        <time>2020-06-06T13:08:30.000Z</time>
      </trkpt>
      <trkpt lat="44.16368" lon="6.76038">
        <ele>1288.1999511719</ele>
        <time>2020-06-06T13:08:36.000Z</time>
      </trkpt>
      <trkpt lat="44.16364" lon="6.76041">
        <ele>1289.4000244141</ele>
        <time>2020-06-06T13:08:43.000Z</time>
      </trkpt>
      <trkpt lat="44.16364" lon="6.76042">
        <ele>1289.5999755859</ele>
        <time>2020-06-06T13:08:44.000Z</time>
      </trkpt>
      <trkpt lat="44.16365" lon="6.76046">
        <ele>1290.4000244141</ele>
        <time>2020-06-06T13:08:49.000Z</time>
      </trkpt>
      <trkpt lat="44.16366" lon="6.76046">
        <ele>1290.8000488281</ele>
        <time>2020-06-06T13:08:51.000Z</time>
      </trkpt>
      <trkpt lat="44.16367" lon="6.76047">
        <ele>1291.5999755859</ele>
        <time>2020-06-06T13:08:55.000Z</time>
      </trkpt>
      <trkpt lat="44.1637" lon="6.76049">
        <ele>1292.4000244141</ele>
        <time>2020-06-06T13:08:59.000Z</time>
      </trkpt>
      <trkpt lat="44.16371" lon="6.7605">
        <ele>1292.5999755859</ele>
        <time>2020-06-06T13:09:01.000Z</time>
      </trkpt>
      <trkpt lat="44.16374" lon="6.76053">
        <ele>1293.8000488281</ele>
        <time>2020-06-06T13:09:08.000Z</time>
      </trkpt>
      <trkpt lat="44.16376" lon="6.76056">
        <ele>1294.8000488281</ele>
        <time>2020-06-06T13:09:15.000Z</time>
      </trkpt>
      <trkpt lat="44.1638" lon="6.7606">
        <ele>1295.8000488281</ele>
        <time>2020-06-06T13:09:22.000Z</time>
      </trkpt>
      <trkpt lat="44.1638" lon="6.7606">
        <ele>1296.1999511719</ele>
        <time>2020-06-06T13:09:23.000Z</time>
      </trkpt>
      <trkpt lat="44.16382" lon="6.76063">
        <ele>1297</ele>
        <time>2020-06-06T13:09:27.000Z</time>
      </trkpt>
      <trkpt lat="44.16383" lon="6.76066">
        <ele>1297.8000488281</ele>
        <time>2020-06-06T13:09:32.000Z</time>
      </trkpt>
      <trkpt lat="44.16383" lon="6.76067">
        <ele>1298</ele>
        <time>2020-06-06T13:09:34.000Z</time>
      </trkpt>
      <trkpt lat="44.16381" lon="6.7607">
        <ele>1298.8000488281</ele>
        <time>2020-06-06T13:09:39.000Z</time>
      </trkpt>
      <trkpt lat="44.1638" lon="6.76071">
        <ele>1299.1999511719</ele>
        <time>2020-06-06T13:09:41.000Z</time>
      </trkpt>
      <trkpt lat="44.16378" lon="6.76073">
        <ele>1300.1999511719</ele>
        <time>2020-06-06T13:09:46.000Z</time>
      </trkpt>
      <trkpt lat="44.16377" lon="6.76073">
        <ele>1300.4000244141</ele>
        <time>2020-06-06T13:09:47.000Z</time>
      </trkpt>
      <trkpt lat="44.16375" lon="6.76077">
        <ele>1301.4000244141</ele>
        <time>2020-06-06T13:09:54.000Z</time>
      </trkpt>
      <trkpt lat="44.16373" lon="6.7608">
        <ele>1302.4000244141</ele>
        <time>2020-06-06T13:10:00.000Z</time>
      </trkpt>
      <trkpt lat="44.16373" lon="6.76081">
        <ele>1302.5999755859</ele>
        <time>2020-06-06T13:10:01.000Z</time>
      </trkpt>
      <trkpt lat="44.16371" lon="6.76083">
        <ele>1303.4000244141</ele>
        <time>2020-06-06T13:10:07.000Z</time>
      </trkpt>
      <trkpt lat="44.1637" lon="6.76084">
        <ele>1303.5999755859</ele>
        <time>2020-06-06T13:10:08.000Z</time>
      </trkpt>
      <trkpt lat="44.16369" lon="6.76086">
        <ele>1304.4000244141</ele>
        <time>2020-06-06T13:10:13.000Z</time>
      </trkpt>
      <trkpt lat="44.16368" lon="6.76087">
        <ele>1304.5999755859</ele>
        <time>2020-06-06T13:10:15.000Z</time>
      </trkpt>
      <trkpt lat="44.16367" lon="6.7609">
        <ele>1305.4000244141</ele>
        <time>2020-06-06T13:10:20.000Z</time>
      </trkpt>
      <trkpt lat="44.16366" lon="6.76092">
        <ele>1306</ele>
        <time>2020-06-06T13:10:23.000Z</time>
      </trkpt>
      <trkpt lat="44.16365" lon="6.76093">
        <ele>1306.4000244141</ele>
        <time>2020-06-06T13:10:26.000Z</time>
      </trkpt>
      <trkpt lat="44.16364" lon="6.76095">
        <ele>1306.8000488281</ele>
        <time>2020-06-06T13:10:30.000Z</time>
      </trkpt>
      <trkpt lat="44.16361" lon="6.76097">
        <ele>1307.4000244141</ele>
        <time>2020-06-06T13:10:34.000Z</time>
      </trkpt>
      <trkpt lat="44.16359" lon="6.761">
        <ele>1308.4000244141</ele>
        <time>2020-06-06T13:10:39.000Z</time>
      </trkpt>
      <trkpt lat="44.16359" lon="6.76102">
        <ele>1308.5999755859</ele>
        <time>2020-06-06T13:10:41.000Z</time>
      </trkpt>
      <trkpt lat="44.16357" lon="6.76104">
        <ele>1309.5999755859</ele>
        <time>2020-06-06T13:10:47.000Z</time>
      </trkpt>
      <trkpt lat="44.16357" lon="6.76106">
        <ele>1309.8000488281</ele>
        <time>2020-06-06T13:10:48.000Z</time>
      </trkpt>
      <trkpt lat="44.16355" lon="6.76108">
        <ele>1310.5999755859</ele>
        <time>2020-06-06T13:10:54.000Z</time>
      </trkpt>
      <trkpt lat="44.16353" lon="6.7611">
        <ele>1310.8000488281</ele>
        <time>2020-06-06T13:10:56.000Z</time>
      </trkpt>
      <trkpt lat="44.1635" lon="6.76114">
        <ele>1312</ele>
        <time>2020-06-06T13:11:03.000Z</time>
      </trkpt>
      <trkpt lat="44.16346" lon="6.76117">
        <ele>1313.1999511719</ele>
        <time>2020-06-06T13:11:09.000Z</time>
      </trkpt>
      <trkpt lat="44.16345" lon="6.76118">
        <ele>1313.4000244141</ele>
        <time>2020-06-06T13:11:11.000Z</time>
      </trkpt>
      <trkpt lat="44.16343" lon="6.76122">
        <ele>1314.1999511719</ele>
        <time>2020-06-06T13:11:17.000Z</time>
      </trkpt>
      <trkpt lat="44.16343" lon="6.76124">
        <ele>1314.5999755859</ele>
        <time>2020-06-06T13:11:20.000Z</time>
      </trkpt>
      <trkpt lat="44.16345" lon="6.76126">
        <ele>1315.4000244141</ele>
        <time>2020-06-06T13:11:24.000Z</time>
      </trkpt>
      <trkpt lat="44.16346" lon="6.76127">
        <ele>1316.1999511719</ele>
        <time>2020-06-06T13:11:30.000Z</time>
      </trkpt>
      <trkpt lat="44.16346" lon="6.76127">
        <ele>1316.4000244141</ele>
        <time>2020-06-06T13:11:31.000Z</time>
      </trkpt>
      <trkpt lat="44.16346" lon="6.76128">
        <ele>1316.1999511719</ele>
        <time>2020-06-06T13:11:37.000Z</time>
      </trkpt>
      <trkpt lat="44.16348" lon="6.76128">
        <ele>1316.1999511719</ele>
        <time>2020-06-06T13:11:45.000Z</time>
      </trkpt>
      <trkpt lat="44.16353" lon="6.7613">
        <ele>1316.5999755859</ele>
        <time>2020-06-06T13:11:50.000Z</time>
      </trkpt>
      <trkpt lat="44.16354" lon="6.76131">
        <ele>1316.5999755859</ele>
        <time>2020-06-06T13:11:51.000Z</time>
      </trkpt>
      <trkpt lat="44.16357" lon="6.76133">
        <ele>1317.4000244141</ele>
        <time>2020-06-06T13:11:55.000Z</time>
      </trkpt>
      <trkpt lat="44.16359" lon="6.76134">
        <ele>1317.8000488281</ele>
        <time>2020-06-06T13:11:58.000Z</time>
      </trkpt>
      <trkpt lat="44.16363" lon="6.76137">
        <ele>1318.4000244141</ele>
        <time>2020-06-06T13:12:02.000Z</time>
      </trkpt>
      <trkpt lat="44.16363" lon="6.76137">
        <ele>1319</ele>
        <time>2020-06-06T13:12:04.000Z</time>
      </trkpt>
      <trkpt lat="44.16364" lon="6.76138">
        <ele>1319.5999755859</ele>
        <time>2020-06-06T13:12:07.000Z</time>
      </trkpt>
      <trkpt lat="44.16366" lon="6.76139">
        <ele>1320</ele>
        <time>2020-06-06T13:12:11.000Z</time>
      </trkpt>
      <trkpt lat="44.16369" lon="6.7614">
        <ele>1320.5999755859</ele>
        <time>2020-06-06T13:12:15.000Z</time>
      </trkpt>
      <trkpt lat="44.16371" lon="6.76142">
        <ele>1321.1999511719</ele>
        <time>2020-06-06T13:12:19.000Z</time>
      </trkpt>
      <trkpt lat="44.16372" lon="6.76143">
        <ele>1321.8000488281</ele>
        <time>2020-06-06T13:12:21.000Z</time>
      </trkpt>
      <trkpt lat="44.16374" lon="6.76145">
        <ele>1322.8000488281</ele>
        <time>2020-06-06T13:12:27.000Z</time>
      </trkpt>
      <trkpt lat="44.16373" lon="6.76148">
        <ele>1324</ele>
        <time>2020-06-06T13:12:32.000Z</time>
      </trkpt>
      <trkpt lat="44.16372" lon="6.76148">
        <ele>1324.4000244141</ele>
        <time>2020-06-06T13:12:34.000Z</time>
      </trkpt>
      <trkpt lat="44.1637" lon="6.76149">
        <ele>1325</ele>
        <time>2020-06-06T13:12:38.000Z</time>
      </trkpt>
      <trkpt lat="44.16368" lon="6.76151">
        <ele>1325.4000244141</ele>
        <time>2020-06-06T13:12:42.000Z</time>
      </trkpt>
      <trkpt lat="44.16366" lon="6.76153">
        <ele>1326.1999511719</ele>
        <time>2020-06-06T13:12:46.000Z</time>
      </trkpt>
      <trkpt lat="44.16363" lon="6.76155">
        <ele>1326.8000488281</ele>
        <time>2020-06-06T13:12:51.000Z</time>
      </trkpt>
      <trkpt lat="44.16362" lon="6.76156">
        <ele>1327.1999511719</ele>
        <time>2020-06-06T13:12:53.000Z</time>
      </trkpt>
      <trkpt lat="44.1636" lon="6.76158">
        <ele>1328</ele>
        <time>2020-06-06T13:12:59.000Z</time>
      </trkpt>
      <trkpt lat="44.16359" lon="6.76159">
        <ele>1328.4000244141</ele>
        <time>2020-06-06T13:13:00.000Z</time>
      </trkpt>
      <trkpt lat="44.16357" lon="6.76162">
        <ele>1329.4000244141</ele>
        <time>2020-06-06T13:13:08.000Z</time>
      </trkpt>
      <trkpt lat="44.16356" lon="6.76163">
        <ele>1330.1999511719</ele>
        <time>2020-06-06T13:13:15.000Z</time>
      </trkpt>
      <trkpt lat="44.16355" lon="6.76165">
        <ele>1330.4000244141</ele>
        <time>2020-06-06T13:13:26.000Z</time>
      </trkpt>
      <trkpt lat="44.1635" lon="6.76167">
        <ele>1331</ele>
        <time>2020-06-06T13:13:32.000Z</time>
      </trkpt>
      <trkpt lat="44.16346" lon="6.76171">
        <ele>1331.5999755859</ele>
        <time>2020-06-06T13:13:36.000Z</time>
      </trkpt>
      <trkpt lat="44.16345" lon="6.76171">
        <ele>1331.5999755859</ele>
        <time>2020-06-06T13:13:37.000Z</time>
      </trkpt>
      <trkpt lat="44.1634" lon="6.76172">
        <ele>1332.5999755859</ele>
        <time>2020-06-06T13:13:43.000Z</time>
      </trkpt>
      <trkpt lat="44.16333" lon="6.76175">
        <ele>1333.8000488281</ele>
        <time>2020-06-06T13:13:50.000Z</time>
      </trkpt>
      <trkpt lat="44.16332" lon="6.76175">
        <ele>1334</ele>
        <time>2020-06-06T13:13:51.000Z</time>
      </trkpt>
      <trkpt lat="44.16327" lon="6.76176">
        <ele>1335</ele>
        <time>2020-06-06T13:13:56.000Z</time>
      </trkpt>
      <trkpt lat="44.16326" lon="6.76177">
        <ele>1335.4000244141</ele>
        <time>2020-06-06T13:13:58.000Z</time>
      </trkpt>
      <trkpt lat="44.16322" lon="6.76178">
        <ele>1336</ele>
        <time>2020-06-06T13:14:02.000Z</time>
      </trkpt>
      <trkpt lat="44.16321" lon="6.76179">
        <ele>1336.4000244141</ele>
        <time>2020-06-06T13:14:04.000Z</time>
      </trkpt>
      <trkpt lat="44.16318" lon="6.76179">
        <ele>1337.1999511719</ele>
        <time>2020-06-06T13:14:08.000Z</time>
      </trkpt>
      <trkpt lat="44.16318" lon="6.76179">
        <ele>1337.4000244141</ele>
        <time>2020-06-06T13:14:09.000Z</time>
      </trkpt>
      <trkpt lat="44.16312" lon="6.76181">
        <ele>1338.4000244141</ele>
        <time>2020-06-06T13:14:15.000Z</time>
      </trkpt>
      <trkpt lat="44.16306" lon="6.76184">
        <ele>1339.4000244141</ele>
        <time>2020-06-06T13:14:23.000Z</time>
      </trkpt>
      <trkpt lat="44.16305" lon="6.76184">
        <ele>1339.5999755859</ele>
        <time>2020-06-06T13:14:24.000Z</time>
      </trkpt>
      <trkpt lat="44.163" lon="6.76184">
        <ele>1340.4000244141</ele>
        <time>2020-06-06T13:14:29.000Z</time>
      </trkpt>
      <trkpt lat="44.16298" lon="6.76184">
        <ele>1340.5999755859</ele>
        <time>2020-06-06T13:14:31.000Z</time>
      </trkpt>
      <trkpt lat="44.16292" lon="6.76189">
        <ele>1341.5999755859</ele>
        <time>2020-06-06T13:14:38.000Z</time>
      </trkpt>
      <trkpt lat="44.16289" lon="6.76192">
        <ele>1342.4000244141</ele>
        <time>2020-06-06T13:14:43.000Z</time>
      </trkpt>
      <trkpt lat="44.16289" lon="6.76193">
        <ele>1342.8000488281</ele>
        <time>2020-06-06T13:14:45.000Z</time>
      </trkpt>
      <trkpt lat="44.16287" lon="6.76195">
        <ele>1342.8000488281</ele>
        <time>2020-06-06T13:14:50.000Z</time>
      </trkpt>
      <trkpt lat="44.16282" lon="6.762">
        <ele>1343.5999755859</ele>
        <time>2020-06-06T13:14:57.000Z</time>
      </trkpt>
      <trkpt lat="44.16281" lon="6.76201">
        <ele>1344</ele>
        <time>2020-06-06T13:14:59.000Z</time>
      </trkpt>
      <trkpt lat="44.16276" lon="6.76204">
        <ele>1344.8000488281</ele>
        <time>2020-06-06T13:15:05.000Z</time>
      </trkpt>
      <trkpt lat="44.16275" lon="6.76204">
        <ele>1345</ele>
        <time>2020-06-06T13:15:06.000Z</time>
      </trkpt>
      <trkpt lat="44.1627" lon="6.76206">
        <ele>1345.8000488281</ele>
        <time>2020-06-06T13:15:12.000Z</time>
      </trkpt>
      <trkpt lat="44.16269" lon="6.76207">
        <ele>1346.1999511719</ele>
        <time>2020-06-06T13:15:14.000Z</time>
      </trkpt>
      <trkpt lat="44.16265" lon="6.76209">
        <ele>1347.1999511719</ele>
        <time>2020-06-06T13:15:21.000Z</time>
      </trkpt>
      <trkpt lat="44.16261" lon="6.76211">
        <ele>1348</ele>
        <time>2020-06-06T13:15:29.000Z</time>
      </trkpt>
      <trkpt lat="44.16262" lon="6.76212">
        <ele>1348.1999511719</ele>
        <time>2020-06-06T13:15:30.000Z</time>
      </trkpt>
      <trkpt lat="44.16256" lon="6.76214">
        <ele>1348.8000488281</ele>
        <time>2020-06-06T13:15:37.000Z</time>
      </trkpt>
      <trkpt lat="44.16255" lon="6.76216">
        <ele>1349.1999511719</ele>
        <time>2020-06-06T13:15:40.000Z</time>
      </trkpt>
      <trkpt lat="44.16252" lon="6.76217">
        <ele>1349.8000488281</ele>
        <time>2020-06-06T13:15:44.000Z</time>
      </trkpt>
      <trkpt lat="44.16251" lon="6.76218">
        <ele>1350.1999511719</ele>
        <time>2020-06-06T13:15:48.000Z</time>
      </trkpt>
      <trkpt lat="44.16248" lon="6.76218">
        <ele>1350.5999755859</ele>
        <time>2020-06-06T13:15:50.000Z</time>
      </trkpt>
      <trkpt lat="44.16243" lon="6.7622">
        <ele>1351.4000244141</ele>
        <time>2020-06-06T13:15:57.000Z</time>
      </trkpt>
      <trkpt lat="44.16242" lon="6.7622">
        <ele>1351.5999755859</ele>
        <time>2020-06-06T13:15:59.000Z</time>
      </trkpt>
      <trkpt lat="44.16238" lon="6.76221">
        <ele>1352.4000244141</ele>
        <time>2020-06-06T13:16:04.000Z</time>
      </trkpt>
      <trkpt lat="44.16236" lon="6.76222">
        <ele>1352.8000488281</ele>
        <time>2020-06-06T13:16:08.000Z</time>
      </trkpt>
      <trkpt lat="44.16232" lon="6.76223">
        <ele>1353.4000244141</ele>
        <time>2020-06-06T13:16:13.000Z</time>
      </trkpt>
      <trkpt lat="44.16231" lon="6.76223">
        <ele>1353.8000488281</ele>
        <time>2020-06-06T13:16:15.000Z</time>
      </trkpt>
      <trkpt lat="44.16229" lon="6.76223">
        <ele>1354.4000244141</ele>
        <time>2020-06-06T13:16:21.000Z</time>
      </trkpt>
      <trkpt lat="44.16229" lon="6.76223">
        <ele>1354.4000244141</ele>
        <time>2020-06-06T13:16:22.000Z</time>
      </trkpt>
      <trkpt lat="44.16227" lon="6.76224">
        <ele>1353.8000488281</ele>
        <time>2020-06-06T13:16:43.000Z</time>
      </trkpt>
      <trkpt lat="44.16224" lon="6.76224">
        <ele>1354</ele>
        <time>2020-06-06T13:16:50.000Z</time>
      </trkpt>
      <trkpt lat="44.16219" lon="6.76224">
        <ele>1355.4000244141</ele>
        <time>2020-06-06T13:16:56.000Z</time>
      </trkpt>
      <trkpt lat="44.16213" lon="6.76224">
        <ele>1356.5999755859</ele>
        <time>2020-06-06T13:17:02.000Z</time>
      </trkpt>
      <trkpt lat="44.16207" lon="6.76224">
        <ele>1357.1999511719</ele>
        <time>2020-06-06T13:17:08.000Z</time>
      </trkpt>
      <trkpt lat="44.16205" lon="6.76225">
        <ele>1357.5999755859</ele>
        <time>2020-06-06T13:17:10.000Z</time>
      </trkpt>
      <trkpt lat="44.16204" lon="6.76225">
        <ele>1357.8000488281</ele>
        <time>2020-06-06T13:17:11.000Z</time>
      </trkpt>
      <trkpt lat="44.162" lon="6.76226">
        <ele>1358.5999755859</ele>
        <time>2020-06-06T13:17:14.000Z</time>
      </trkpt>
      <trkpt lat="44.162" lon="6.76226">
        <ele>1359</ele>
        <time>2020-06-06T13:17:15.000Z</time>
      </trkpt>
      <trkpt lat="44.16199" lon="6.76227">
        <ele>1360.1999511719</ele>
        <time>2020-06-06T13:17:19.000Z</time>
      </trkpt>
      <trkpt lat="44.16198" lon="6.76227">
        <ele>1360.4000244141</ele>
        <time>2020-06-06T13:17:20.000Z</time>
      </trkpt>
      <trkpt lat="44.16193" lon="6.76231">
        <ele>1361.4000244141</ele>
        <time>2020-06-06T13:17:27.000Z</time>
      </trkpt>
      <trkpt lat="44.16193" lon="6.76231">
        <ele>1361.5999755859</ele>
        <time>2020-06-06T13:17:28.000Z</time>
      </trkpt>
      <trkpt lat="44.1619" lon="6.76234">
        <ele>1362.4000244141</ele>
        <time>2020-06-06T13:17:32.000Z</time>
      </trkpt>
      <trkpt lat="44.16189" lon="6.76237">
        <ele>1363</ele>
        <time>2020-06-06T13:17:36.000Z</time>
      </trkpt>
      <trkpt lat="44.16188" lon="6.76239">
        <ele>1363.4000244141</ele>
        <time>2020-06-06T13:17:39.000Z</time>
      </trkpt>
      <trkpt lat="44.16185" lon="6.76243">
        <ele>1364.5999755859</ele>
        <time>2020-06-06T13:17:45.000Z</time>
      </trkpt>
      <trkpt lat="44.16182" lon="6.76247">
        <ele>1365.8000488281</ele>
        <time>2020-06-06T13:17:51.000Z</time>
      </trkpt>
      <trkpt lat="44.16182" lon="6.76248">
        <ele>1366</ele>
        <time>2020-06-06T13:17:52.000Z</time>
      </trkpt>
      <trkpt lat="44.16185" lon="6.76249">
        <ele>1366.8000488281</ele>
        <time>2020-06-06T13:17:56.000Z</time>
      </trkpt>
      <trkpt lat="44.16185" lon="6.76248">
        <ele>1367.1999511719</ele>
        <time>2020-06-06T13:17:58.000Z</time>
      </trkpt>
      <trkpt lat="44.16189" lon="6.76249">
        <ele>1367.8000488281</ele>
        <time>2020-06-06T13:18:05.000Z</time>
      </trkpt>
      <trkpt lat="44.16193" lon="6.76252">
        <ele>1368.8000488281</ele>
        <time>2020-06-06T13:18:12.000Z</time>
      </trkpt>
      <trkpt lat="44.16193" lon="6.76253">
        <ele>1369</ele>
        <time>2020-06-06T13:18:13.000Z</time>
      </trkpt>
      <trkpt lat="44.16196" lon="6.76256">
        <ele>1370</ele>
        <time>2020-06-06T13:18:19.000Z</time>
      </trkpt>
      <trkpt lat="44.16196" lon="6.76256">
        <ele>1370.1999511719</ele>
        <time>2020-06-06T13:18:20.000Z</time>
      </trkpt>
      <trkpt lat="44.16198" lon="6.76257">
        <ele>1371</ele>
        <time>2020-06-06T13:18:25.000Z</time>
      </trkpt>
      <trkpt lat="44.16198" lon="6.76259">
        <ele>1371.4000244141</ele>
        <time>2020-06-06T13:18:27.000Z</time>
      </trkpt>
      <trkpt lat="44.16197" lon="6.76262">
        <ele>1372.1999511719</ele>
        <time>2020-06-06T13:18:32.000Z</time>
      </trkpt>
      <trkpt lat="44.16195" lon="6.76263">
        <ele>1372.5999755859</ele>
        <time>2020-06-06T13:18:34.000Z</time>
      </trkpt>
      <trkpt lat="44.16193" lon="6.76265">
        <ele>1373.4000244141</ele>
        <time>2020-06-06T13:18:38.000Z</time>
      </trkpt>
      <trkpt lat="44.16191" lon="6.76267">
        <ele>1374.1999511719</ele>
        <time>2020-06-06T13:18:42.000Z</time>
      </trkpt>
      <trkpt lat="44.16189" lon="6.76268">
        <ele>1374.5999755859</ele>
        <time>2020-06-06T13:18:44.000Z</time>
      </trkpt>
      <trkpt lat="44.16187" lon="6.76271">
        <ele>1375.5999755859</ele>
        <time>2020-06-06T13:18:49.000Z</time>
      </trkpt>
      <trkpt lat="44.16186" lon="6.76271">
        <ele>1375.8000488281</ele>
        <time>2020-06-06T13:18:50.000Z</time>
      </trkpt>
      <trkpt lat="44.16185" lon="6.76274">
        <ele>1376.8000488281</ele>
        <time>2020-06-06T13:18:54.000Z</time>
      </trkpt>
      <trkpt lat="44.16183" lon="6.76277">
        <ele>1377.4000244141</ele>
        <time>2020-06-06T13:18:58.000Z</time>
      </trkpt>
      <trkpt lat="44.16183" lon="6.76279">
        <ele>1377.8000488281</ele>
        <time>2020-06-06T13:19:00.000Z</time>
      </trkpt>
      <trkpt lat="44.16184" lon="6.76282">
        <ele>1378.4000244141</ele>
        <time>2020-06-06T13:19:05.000Z</time>
      </trkpt>
      <trkpt lat="44.16184" lon="6.76283">
        <ele>1378.8000488281</ele>
        <time>2020-06-06T13:19:07.000Z</time>
      </trkpt>
      <trkpt lat="44.16188" lon="6.76286">
        <ele>1379.8000488281</ele>
        <time>2020-06-06T13:19:13.000Z</time>
      </trkpt>
      <trkpt lat="44.16188" lon="6.76286">
        <ele>1380</ele>
        <time>2020-06-06T13:19:14.000Z</time>
      </trkpt>
      <trkpt lat="44.1619" lon="6.76289">
        <ele>1381</ele>
        <time>2020-06-06T13:19:20.000Z</time>
      </trkpt>
      <trkpt lat="44.16193" lon="6.7629">
        <ele>1381.4000244141</ele>
        <time>2020-06-06T13:19:23.000Z</time>
      </trkpt>
      <trkpt lat="44.16195" lon="6.76293">
        <ele>1382</ele>
        <time>2020-06-06T13:19:29.000Z</time>
      </trkpt>
      <trkpt lat="44.16195" lon="6.76293">
        <ele>1382.1999511719</ele>
        <time>2020-06-06T13:19:30.000Z</time>
      </trkpt>
      <trkpt lat="44.16199" lon="6.76298">
        <ele>1383.1999511719</ele>
        <time>2020-06-06T13:19:37.000Z</time>
      </trkpt>
      <trkpt lat="44.162" lon="6.76299">
        <ele>1383.4000244141</ele>
        <time>2020-06-06T13:19:39.000Z</time>
      </trkpt>
      <trkpt lat="44.16203" lon="6.76303">
        <ele>1384.4000244141</ele>
        <time>2020-06-06T13:19:46.000Z</time>
      </trkpt>
      <trkpt lat="44.16204" lon="6.76304">
        <ele>1384.8000488281</ele>
        <time>2020-06-06T13:19:48.000Z</time>
      </trkpt>
      <trkpt lat="44.16207" lon="6.76306">
        <ele>1385.4000244141</ele>
        <time>2020-06-06T13:19:53.000Z</time>
      </trkpt>
      <trkpt lat="44.16208" lon="6.76307">
        <ele>1386</ele>
        <time>2020-06-06T13:19:56.000Z</time>
      </trkpt>
      <trkpt lat="44.16211" lon="6.76309">
        <ele>1386.5999755859</ele>
        <time>2020-06-06T13:20:02.000Z</time>
      </trkpt>
      <trkpt lat="44.16212" lon="6.7631">
        <ele>1386.5999755859</ele>
        <time>2020-06-06T13:20:03.000Z</time>
      </trkpt>
      <trkpt lat="44.16215" lon="6.76311">
        <ele>1387.5999755859</ele>
        <time>2020-06-06T13:20:10.000Z</time>
      </trkpt>
      <trkpt lat="44.16217" lon="6.76311">
        <ele>1388.1999511719</ele>
        <time>2020-06-06T13:20:14.000Z</time>
      </trkpt>
      <trkpt lat="44.16219" lon="6.76312">
        <ele>1388.8000488281</ele>
        <time>2020-06-06T13:20:18.000Z</time>
      </trkpt>
      <trkpt lat="44.16222" lon="6.76313">
        <ele>1389.5999755859</ele>
        <time>2020-06-06T13:20:23.000Z</time>
      </trkpt>
      <trkpt lat="44.16224" lon="6.76314">
        <ele>1390</ele>
        <time>2020-06-06T13:20:26.000Z</time>
      </trkpt>
      <trkpt lat="44.16227" lon="6.76317">
        <ele>1390.5999755859</ele>
        <time>2020-06-06T13:20:33.000Z</time>
      </trkpt>
      <trkpt lat="44.16227" lon="6.76319">
        <ele>1391</ele>
        <time>2020-06-06T13:20:36.000Z</time>
      </trkpt>
      <trkpt lat="44.16226" lon="6.76322">
        <ele>1391.8000488281</ele>
        <time>2020-06-06T13:20:40.000Z</time>
      </trkpt>
      <trkpt lat="44.16225" lon="6.76323">
        <ele>1392.1999511719</ele>
        <time>2020-06-06T13:20:42.000Z</time>
      </trkpt>
      <trkpt lat="44.16223" lon="6.76326">
        <ele>1393.1999511719</ele>
        <time>2020-06-06T13:20:47.000Z</time>
      </trkpt>
      <trkpt lat="44.16222" lon="6.7633">
        <ele>1394.1999511719</ele>
        <time>2020-06-06T13:20:52.000Z</time>
      </trkpt>
      <trkpt lat="44.16221" lon="6.76331">
        <ele>1394.5999755859</ele>
        <time>2020-06-06T13:20:54.000Z</time>
      </trkpt>
      <trkpt lat="44.16219" lon="6.76333">
        <ele>1395.1999511719</ele>
        <time>2020-06-06T13:20:59.000Z</time>
      </trkpt>
      <trkpt lat="44.16219" lon="6.76334">
        <ele>1395.5999755859</ele>
        <time>2020-06-06T13:21:01.000Z</time>
      </trkpt>
      <trkpt lat="44.16222" lon="6.76335">
        <ele>1396.4000244141</ele>
        <time>2020-06-06T13:21:05.000Z</time>
      </trkpt>
      <trkpt lat="44.16224" lon="6.76335">
        <ele>1397</ele>
        <time>2020-06-06T13:21:09.000Z</time>
      </trkpt>
      <trkpt lat="44.16227" lon="6.76335">
        <ele>1397.4000244141</ele>
        <time>2020-06-06T13:21:12.000Z</time>
      </trkpt>
      <trkpt lat="44.16229" lon="6.76335">
        <ele>1398.4000244141</ele>
        <time>2020-06-06T13:21:17.000Z</time>
      </trkpt>
      <trkpt lat="44.16233" lon="6.76336">
        <ele>1399.5999755859</ele>
        <time>2020-06-06T13:21:23.000Z</time>
      </trkpt>
      <trkpt lat="44.16234" lon="6.76336">
        <ele>1399.8000488281</ele>
        <time>2020-06-06T13:21:24.000Z</time>
      </trkpt>
      <trkpt lat="44.16237" lon="6.76337">
        <ele>1400.5999755859</ele>
        <time>2020-06-06T13:21:30.000Z</time>
      </trkpt>
      <trkpt lat="44.16239" lon="6.76337">
        <ele>1401.1999511719</ele>
        <time>2020-06-06T13:21:34.000Z</time>
      </trkpt>
      <trkpt lat="44.16241" lon="6.76338">
        <ele>1401.5999755859</ele>
        <time>2020-06-06T13:21:37.000Z</time>
      </trkpt>
      <trkpt lat="44.16243" lon="6.76339">
        <ele>1402.4000244141</ele>
        <time>2020-06-06T13:21:42.000Z</time>
      </trkpt>
      <trkpt lat="44.16244" lon="6.7634">
        <ele>1402.8000488281</ele>
        <time>2020-06-06T13:21:45.000Z</time>
      </trkpt>
      <trkpt lat="44.16247" lon="6.76341">
        <ele>1403.4000244141</ele>
        <time>2020-06-06T13:21:50.000Z</time>
      </trkpt>
      <trkpt lat="44.16248" lon="6.76342">
        <ele>1403.8000488281</ele>
        <time>2020-06-06T13:21:53.000Z</time>
      </trkpt>
      <trkpt lat="44.16249" lon="6.76345">
        <ele>1404.8000488281</ele>
        <time>2020-06-06T13:21:58.000Z</time>
      </trkpt>
      <trkpt lat="44.16249" lon="6.76345">
        <ele>1405</ele>
        <time>2020-06-06T13:21:59.000Z</time>
      </trkpt>
      <trkpt lat="44.16249" lon="6.76347">
        <ele>1405.4000244141</ele>
        <time>2020-06-06T13:22:07.000Z</time>
      </trkpt>
      <trkpt lat="44.16247" lon="6.7635">
        <ele>1406</ele>
        <time>2020-06-06T13:22:12.000Z</time>
      </trkpt>
      <trkpt lat="44.16246" lon="6.76352">
        <ele>1406.5999755859</ele>
        <time>2020-06-06T13:22:15.000Z</time>
      </trkpt>
      <trkpt lat="44.16246" lon="6.76354">
        <ele>1407</ele>
        <time>2020-06-06T13:22:17.000Z</time>
      </trkpt>
      <trkpt lat="44.16245" lon="6.76359">
        <ele>1408</ele>
        <time>2020-06-06T13:22:23.000Z</time>
      </trkpt>
      <trkpt lat="44.16245" lon="6.7636">
        <ele>1408.1999511719</ele>
        <time>2020-06-06T13:22:25.000Z</time>
      </trkpt>
      <trkpt lat="44.16242" lon="6.76364">
        <ele>1409</ele>
        <time>2020-06-06T13:22:31.000Z</time>
      </trkpt>
      <trkpt lat="44.16242" lon="6.76365">
        <ele>1409.1999511719</ele>
        <time>2020-06-06T13:22:32.000Z</time>
      </trkpt>
      <trkpt lat="44.1624" lon="6.76368">
        <ele>1410</ele>
        <time>2020-06-06T13:22:37.000Z</time>
      </trkpt>
      <trkpt lat="44.16239" lon="6.76369">
        <ele>1410.4000244141</ele>
        <time>2020-06-06T13:22:39.000Z</time>
      </trkpt>
      <trkpt lat="44.16238" lon="6.76375">
        <ele>1411.1999511719</ele>
        <time>2020-06-06T13:22:46.000Z</time>
      </trkpt>
      <trkpt lat="44.16239" lon="6.76375">
        <ele>1411.5999755859</ele>
        <time>2020-06-06T13:22:48.000Z</time>
      </trkpt>
      <trkpt lat="44.16239" lon="6.76376">
        <ele>1411.5999755859</ele>
        <time>2020-06-06T13:22:51.000Z</time>
      </trkpt>
      <trkpt lat="44.16239" lon="6.76377">
        <ele>1411.5999755859</ele>
        <time>2020-06-06T13:22:58.000Z</time>
      </trkpt>
      <trkpt lat="44.16239" lon="6.76379">
        <ele>1411.1999511719</ele>
        <time>2020-06-06T13:23:06.000Z</time>
      </trkpt>
      <trkpt lat="44.16239" lon="6.76379">
        <ele>1411.1999511719</ele>
        <time>2020-06-06T13:23:11.000Z</time>
      </trkpt>
      <trkpt lat="44.16239" lon="6.7638">
        <ele>1410.8000488281</ele>
        <time>2020-06-06T13:23:18.000Z</time>
      </trkpt>
      <trkpt lat="44.16238" lon="6.76382">
        <ele>1410.8000488281</ele>
        <time>2020-06-06T13:23:24.000Z</time>
      </trkpt>
      <trkpt lat="44.16237" lon="6.76391">
        <ele>1412</ele>
        <time>2020-06-06T13:23:31.000Z</time>
      </trkpt>
      <trkpt lat="44.16238" lon="6.76392">
        <ele>1412.5999755859</ele>
        <time>2020-06-06T13:23:36.000Z</time>
      </trkpt>
      <trkpt lat="44.16239" lon="6.76392">
        <ele>1412.8000488281</ele>
        <time>2020-06-06T13:23:37.000Z</time>
      </trkpt>
      <trkpt lat="44.1624" lon="6.76389">
        <ele>1413.5999755859</ele>
        <time>2020-06-06T13:23:42.000Z</time>
      </trkpt>
      <trkpt lat="44.1624" lon="6.76389">
        <ele>1414.1999511719</ele>
        <time>2020-06-06T13:23:45.000Z</time>
      </trkpt>
      <trkpt lat="44.1624" lon="6.76388">
        <ele>1414.5999755859</ele>
        <time>2020-06-06T13:23:49.000Z</time>
      </trkpt>
      <trkpt lat="44.16243" lon="6.76385">
        <ele>1415</ele>
        <time>2020-06-06T13:23:55.000Z</time>
      </trkpt>
      <trkpt lat="44.16244" lon="6.76384">
        <ele>1415.8000488281</ele>
        <time>2020-06-06T13:23:59.000Z</time>
      </trkpt>
      <trkpt lat="44.16247" lon="6.76383">
        <ele>1416.5999755859</ele>
        <time>2020-06-06T13:24:03.000Z</time>
      </trkpt>
      <trkpt lat="44.16248" lon="6.76382">
        <ele>1417</ele>
        <time>2020-06-06T13:24:05.000Z</time>
      </trkpt>
      <trkpt lat="44.16253" lon="6.7638">
        <ele>1418</ele>
        <time>2020-06-06T13:24:12.000Z</time>
      </trkpt>
      <trkpt lat="44.16255" lon="6.7638">
        <ele>1418.5999755859</ele>
        <time>2020-06-06T13:24:20.000Z</time>
      </trkpt>
      <trkpt lat="44.16256" lon="6.7638">
        <ele>1418.8000488281</ele>
        <time>2020-06-06T13:24:38.000Z</time>
      </trkpt>
      <trkpt lat="44.16256" lon="6.76381">
        <ele>1417.8000488281</ele>
        <time>2020-06-06T13:24:52.000Z</time>
      </trkpt>
      <trkpt lat="44.16257" lon="6.7638">
        <ele>1418.8000488281</ele>
        <time>2020-06-06T13:25:01.000Z</time>
      </trkpt>
      <trkpt lat="44.16259" lon="6.76379">
        <ele>1419</ele>
        <time>2020-06-06T13:25:18.000Z</time>
      </trkpt>
      <trkpt lat="44.16259" lon="6.76379">
        <ele>1419</ele>
        <time>2020-06-06T13:25:19.000Z</time>
      </trkpt>
      <trkpt lat="44.1626" lon="6.76379">
        <ele>1419</ele>
        <time>2020-06-06T13:25:25.000Z</time>
      </trkpt>
      <trkpt lat="44.16261" lon="6.76379">
        <ele>1419</ele>
        <time>2020-06-06T13:25:26.000Z</time>
      </trkpt>
      <trkpt lat="44.16263" lon="6.76378">
        <ele>1418.8000488281</ele>
        <time>2020-06-06T13:25:29.000Z</time>
      </trkpt>
      <trkpt lat="44.16266" lon="6.76377">
        <ele>1419</ele>
        <time>2020-06-06T13:25:32.000Z</time>
      </trkpt>
      <trkpt lat="44.16269" lon="6.76376">
        <ele>1419.1999511719</ele>
        <time>2020-06-06T13:25:34.000Z</time>
      </trkpt>
      <trkpt lat="44.16272" lon="6.76375">
        <ele>1419.1999511719</ele>
        <time>2020-06-06T13:25:37.000Z</time>
      </trkpt>
      <trkpt lat="44.16277" lon="6.76374">
        <ele>1419.4000244141</ele>
        <time>2020-06-06T13:25:40.000Z</time>
      </trkpt>
      <trkpt lat="44.16285" lon="6.76371">
        <ele>1419.8000488281</ele>
        <time>2020-06-06T13:25:45.000Z</time>
      </trkpt>
      <trkpt lat="44.16287" lon="6.7637">
        <ele>1420</ele>
        <time>2020-06-06T13:25:47.000Z</time>
      </trkpt>
      <trkpt lat="44.16291" lon="6.76368">
        <ele>1421</ele>
        <time>2020-06-06T13:25:52.000Z</time>
      </trkpt>
      <trkpt lat="44.16293" lon="6.76366">
        <ele>1421.1999511719</ele>
        <time>2020-06-06T13:25:54.000Z</time>
      </trkpt>
      <trkpt lat="44.16293" lon="6.76366">
        <ele>1421</ele>
        <time>2020-06-06T13:25:57.000Z</time>
      </trkpt>
      <trkpt lat="44.16296" lon="6.76365">
        <ele>1420.4000244141</ele>
        <time>2020-06-06T13:26:14.000Z</time>
      </trkpt>
      <trkpt lat="44.16298" lon="6.76364">
        <ele>1420.4000244141</ele>
        <time>2020-06-06T13:26:26.000Z</time>
      </trkpt>
      <trkpt lat="44.163" lon="6.76364">
        <ele>1420</ele>
        <time>2020-06-06T13:26:39.000Z</time>
      </trkpt>
      <trkpt lat="44.16301" lon="6.76363">
        <ele>1420</ele>
        <time>2020-06-06T13:26:41.000Z</time>
      </trkpt>
      <trkpt lat="44.16304" lon="6.7636">
        <ele>1420</ele>
        <time>2020-06-06T13:26:43.000Z</time>
      </trkpt>
      <trkpt lat="44.16308" lon="6.76355">
        <ele>1419.4000244141</ele>
        <time>2020-06-06T13:26:46.000Z</time>
      </trkpt>
      <trkpt lat="44.16313" lon="6.76351">
        <ele>1418.8000488281</ele>
        <time>2020-06-06T13:26:48.000Z</time>
      </trkpt>
      <trkpt lat="44.16321" lon="6.76348">
        <ele>1418.1999511719</ele>
        <time>2020-06-06T13:26:50.000Z</time>
      </trkpt>
      <trkpt lat="44.16327" lon="6.76345">
        <ele>1417.4000244141</ele>
        <time>2020-06-06T13:26:52.000Z</time>
      </trkpt>
      <trkpt lat="44.16334" lon="6.76341">
        <ele>1416.5999755859</ele>
        <time>2020-06-06T13:26:54.000Z</time>
      </trkpt>
      <trkpt lat="44.16339" lon="6.76339">
        <ele>1416.1999511719</ele>
        <time>2020-06-06T13:26:55.000Z</time>
      </trkpt>
      <trkpt lat="44.16354" lon="6.76338">
        <ele>1414.8000488281</ele>
        <time>2020-06-06T13:26:58.000Z</time>
      </trkpt>
      <trkpt lat="44.16362" lon="6.76342">
        <ele>1413.4000244141</ele>
        <time>2020-06-06T13:27:00.000Z</time>
      </trkpt>
      <trkpt lat="44.1637" lon="6.76345">
        <ele>1412.5999755859</ele>
        <time>2020-06-06T13:27:02.000Z</time>
      </trkpt>
      <trkpt lat="44.16374" lon="6.76345">
        <ele>1412.5999755859</ele>
        <time>2020-06-06T13:27:03.000Z</time>
      </trkpt>
      <trkpt lat="44.16383" lon="6.76346">
        <ele>1412.8000488281</ele>
        <time>2020-06-06T13:27:05.000Z</time>
      </trkpt>
      <trkpt lat="44.16394" lon="6.76349">
        <ele>1412.4000244141</ele>
        <time>2020-06-06T13:27:07.000Z</time>
      </trkpt>
      <trkpt lat="44.16398" lon="6.76348">
        <ele>1412.1999511719</ele>
        <time>2020-06-06T13:27:08.000Z</time>
      </trkpt>
      <trkpt lat="44.16409" lon="6.76349">
        <ele>1411.5999755859</ele>
        <time>2020-06-06T13:27:11.000Z</time>
      </trkpt>
      <trkpt lat="44.16417" lon="6.7635">
        <ele>1411.1999511719</ele>
        <time>2020-06-06T13:27:13.000Z</time>
      </trkpt>
      <trkpt lat="44.16433" lon="6.76354">
        <ele>1410.1999511719</ele>
        <time>2020-06-06T13:27:17.000Z</time>
      </trkpt>
      <trkpt lat="44.16438" lon="6.76355">
        <ele>1409.5999755859</ele>
        <time>2020-06-06T13:27:18.000Z</time>
      </trkpt>
      <trkpt lat="44.16447" lon="6.76358">
        <ele>1409</ele>
        <time>2020-06-06T13:27:21.000Z</time>
      </trkpt>
      <trkpt lat="44.16457" lon="6.7636">
        <ele>1409</ele>
        <time>2020-06-06T13:27:24.000Z</time>
      </trkpt>
      <trkpt lat="44.1646" lon="6.76361">
        <ele>1408.8000488281</ele>
        <time>2020-06-06T13:27:25.000Z</time>
      </trkpt>
      <trkpt lat="44.16462" lon="6.76359">
        <ele>1408.5999755859</ele>
        <time>2020-06-06T13:27:26.000Z</time>
      </trkpt>
      <trkpt lat="44.16466" lon="6.76356">
        <ele>1407.8000488281</ele>
        <time>2020-06-06T13:27:28.000Z</time>
      </trkpt>
      <trkpt lat="44.16468" lon="6.76355">
        <ele>1407.4000244141</ele>
        <time>2020-06-06T13:27:29.000Z</time>
      </trkpt>
      <trkpt lat="44.16469" lon="6.76355">
        <ele>1407.1999511719</ele>
        <time>2020-06-06T13:27:30.000Z</time>
      </trkpt>
      <trkpt lat="44.16474" lon="6.76352">
        <ele>1407.8000488281</ele>
        <time>2020-06-06T13:27:33.000Z</time>
      </trkpt>
      <trkpt lat="44.16477" lon="6.76351">
        <ele>1408.8000488281</ele>
        <time>2020-06-06T13:27:35.000Z</time>
      </trkpt>
      <trkpt lat="44.16486" lon="6.76341">
        <ele>1409.4000244141</ele>
        <time>2020-06-06T13:27:40.000Z</time>
      </trkpt>
      <trkpt lat="44.16496" lon="6.7633">
        <ele>1409.1999511719</ele>
        <time>2020-06-06T13:27:44.000Z</time>
      </trkpt>
      <trkpt lat="44.16508" lon="6.76321">
        <ele>1409</ele>
        <time>2020-06-06T13:27:50.000Z</time>
      </trkpt>
      <trkpt lat="44.16516" lon="6.76317">
        <ele>1410</ele>
        <time>2020-06-06T13:27:54.000Z</time>
      </trkpt>
      <trkpt lat="44.16522" lon="6.76314">
        <ele>1410.1999511719</ele>
        <time>2020-06-06T13:27:57.000Z</time>
      </trkpt>
      <trkpt lat="44.16531" lon="6.76307">
        <ele>1410.5999755859</ele>
        <time>2020-06-06T13:28:03.000Z</time>
      </trkpt>
      <trkpt lat="44.16538" lon="6.76303">
        <ele>1410.5999755859</ele>
        <time>2020-06-06T13:28:08.000Z</time>
      </trkpt>
      <trkpt lat="44.1654" lon="6.76302">
        <ele>1411</ele>
        <time>2020-06-06T13:28:10.000Z</time>
      </trkpt>
      <trkpt lat="44.16547" lon="6.76301">
        <ele>1411.5999755859</ele>
        <time>2020-06-06T13:28:15.000Z</time>
      </trkpt>
      <trkpt lat="44.16549" lon="6.763">
        <ele>1411.5999755859</ele>
        <time>2020-06-06T13:28:16.000Z</time>
      </trkpt>
      <trkpt lat="44.16551" lon="6.76299">
        <ele>1412.1999511719</ele>
        <time>2020-06-06T13:28:18.000Z</time>
      </trkpt>
      <trkpt lat="44.16554" lon="6.76295">
        <ele>1413</ele>
        <time>2020-06-06T13:28:21.000Z</time>
      </trkpt>
      <trkpt lat="44.16555" lon="6.76294">
        <ele>1413.1999511719</ele>
        <time>2020-06-06T13:28:22.000Z</time>
      </trkpt>
      <trkpt lat="44.16561" lon="6.76289">
        <ele>1414.4000244141</ele>
        <time>2020-06-06T13:28:27.000Z</time>
      </trkpt>
      <trkpt lat="44.16563" lon="6.76288">
        <ele>1415</ele>
        <time>2020-06-06T13:28:29.000Z</time>
      </trkpt>
      <trkpt lat="44.16565" lon="6.76286">
        <ele>1415.4000244141</ele>
        <time>2020-06-06T13:28:31.000Z</time>
      </trkpt>
      <trkpt lat="44.1657" lon="6.76282">
        <ele>1416.1999511719</ele>
        <time>2020-06-06T13:28:35.000Z</time>
      </trkpt>
      <trkpt lat="44.16571" lon="6.76281">
        <ele>1416.5999755859</ele>
        <time>2020-06-06T13:28:36.000Z</time>
      </trkpt>
      <trkpt lat="44.16571" lon="6.76281">
        <ele>1417.5999755859</ele>
        <time>2020-06-06T13:28:39.000Z</time>
      </trkpt>
      <trkpt lat="44.16571" lon="6.76281">
        <ele>1417.8000488281</ele>
        <time>2020-06-06T13:28:40.000Z</time>
      </trkpt>
      <trkpt lat="44.16572" lon="6.7628">
        <ele>1418.1999511719</ele>
        <time>2020-06-06T13:28:47.000Z</time>
      </trkpt>
      <trkpt lat="44.16574" lon="6.76276">
        <ele>1418.4000244141</ele>
        <time>2020-06-06T13:28:52.000Z</time>
      </trkpt>
      <trkpt lat="44.16578" lon="6.76272">
        <ele>1418.8000488281</ele>
        <time>2020-06-06T13:28:56.000Z</time>
      </trkpt>
      <trkpt lat="44.16579" lon="6.76271">
        <ele>1419</ele>
        <time>2020-06-06T13:28:57.000Z</time>
      </trkpt>
      <trkpt lat="44.16584" lon="6.76266">
        <ele>1420</ele>
        <time>2020-06-06T13:29:01.000Z</time>
      </trkpt>
      <trkpt lat="44.16587" lon="6.76262">
        <ele>1420</ele>
        <time>2020-06-06T13:29:04.000Z</time>
      </trkpt>
      <trkpt lat="44.16595" lon="6.76254">
        <ele>1421</ele>
        <time>2020-06-06T13:29:10.000Z</time>
      </trkpt>
      <trkpt lat="44.16603" lon="6.76244">
        <ele>1421.8000488281</ele>
        <time>2020-06-06T13:29:16.000Z</time>
      </trkpt>
      <trkpt lat="44.16612" lon="6.76235">
        <ele>1421.5999755859</ele>
        <time>2020-06-06T13:29:22.000Z</time>
      </trkpt>
      <trkpt lat="44.16615" lon="6.76233">
        <ele>1422</ele>
        <time>2020-06-06T13:29:24.000Z</time>
      </trkpt>
      <trkpt lat="44.1662" lon="6.76229">
        <ele>1422.4000244141</ele>
        <time>2020-06-06T13:29:27.000Z</time>
      </trkpt>
      <trkpt lat="44.16628" lon="6.76224">
        <ele>1422.4000244141</ele>
        <time>2020-06-06T13:29:34.000Z</time>
      </trkpt>
      <trkpt lat="44.1663" lon="6.76222">
        <ele>1422.1999511719</ele>
        <time>2020-06-06T13:29:38.000Z</time>
      </trkpt>
      <trkpt lat="44.16631" lon="6.76222">
        <ele>1422.4000244141</ele>
        <time>2020-06-06T13:29:39.000Z</time>
      </trkpt>
      <trkpt lat="44.16635" lon="6.76221">
        <ele>1422</ele>
        <time>2020-06-06T13:29:44.000Z</time>
      </trkpt>
      <trkpt lat="44.1664" lon="6.76221">
        <ele>1422.4000244141</ele>
        <time>2020-06-06T13:29:49.000Z</time>
      </trkpt>
      <trkpt lat="44.16652" lon="6.7622">
        <ele>1422.5999755859</ele>
        <time>2020-06-06T13:29:55.000Z</time>
      </trkpt>
      <trkpt lat="44.16658" lon="6.76221">
        <ele>1423</ele>
        <time>2020-06-06T13:29:59.000Z</time>
      </trkpt>
      <trkpt lat="44.16662" lon="6.76222">
        <ele>1423.1999511719</ele>
        <time>2020-06-06T13:30:01.000Z</time>
      </trkpt>
      <trkpt lat="44.16678" lon="6.76226">
        <ele>1423.5999755859</ele>
        <time>2020-06-06T13:30:08.000Z</time>
      </trkpt>
      <trkpt lat="44.1669" lon="6.76222">
        <ele>1423.4000244141</ele>
        <time>2020-06-06T13:30:13.000Z</time>
      </trkpt>
      <trkpt lat="44.16697" lon="6.7621">
        <ele>1422</ele>
        <time>2020-06-06T13:30:17.000Z</time>
      </trkpt>
      <trkpt lat="44.16701" lon="6.76209">
        <ele>1421.8000488281</ele>
        <time>2020-06-06T13:30:18.000Z</time>
      </trkpt>
      <trkpt lat="44.16705" lon="6.76207">
        <ele>1421.5999755859</ele>
        <time>2020-06-06T13:30:19.000Z</time>
      </trkpt>
      <trkpt lat="44.16713" lon="6.76203">
        <ele>1421.4000244141</ele>
        <time>2020-06-06T13:30:21.000Z</time>
      </trkpt>
      <trkpt lat="44.16719" lon="6.76197">
        <ele>1421.1999511719</ele>
        <time>2020-06-06T13:30:23.000Z</time>
      </trkpt>
      <trkpt lat="44.16727" lon="6.76192">
        <ele>1421</ele>
        <time>2020-06-06T13:30:25.000Z</time>
      </trkpt>
      <trkpt lat="44.16743" lon="6.76182">
        <ele>1420.1999511719</ele>
        <time>2020-06-06T13:30:29.000Z</time>
      </trkpt>
      <trkpt lat="44.16752" lon="6.76179">
        <ele>1419.8000488281</ele>
        <time>2020-06-06T13:30:31.000Z</time>
      </trkpt>
      <trkpt lat="44.16765" lon="6.76173">
        <ele>1418.8000488281</ele>
        <time>2020-06-06T13:30:34.000Z</time>
      </trkpt>
      <trkpt lat="44.16775" lon="6.76171">
        <ele>1417.4000244141</ele>
        <time>2020-06-06T13:30:37.000Z</time>
      </trkpt>
      <trkpt lat="44.16786" lon="6.7618">
        <ele>1416.5999755859</ele>
        <time>2020-06-06T13:30:41.000Z</time>
      </trkpt>
      <trkpt lat="44.16792" lon="6.76175">
        <ele>1417.1999511719</ele>
        <time>2020-06-06T13:30:44.000Z</time>
      </trkpt>
      <trkpt lat="44.16803" lon="6.76171">
        <ele>1417.1999511719</ele>
        <time>2020-06-06T13:30:48.000Z</time>
      </trkpt>
      <trkpt lat="44.16817" lon="6.76175">
        <ele>1418</ele>
        <time>2020-06-06T13:30:54.000Z</time>
      </trkpt>
      <trkpt lat="44.16822" lon="6.76178">
        <ele>1418.1999511719</ele>
        <time>2020-06-06T13:30:57.000Z</time>
      </trkpt>
      <trkpt lat="44.16825" lon="6.76183">
        <ele>1418.4000244141</ele>
        <time>2020-06-06T13:30:59.000Z</time>
      </trkpt>
      <trkpt lat="44.16828" lon="6.76185">
        <ele>1418.5999755859</ele>
        <time>2020-06-06T13:31:01.000Z</time>
      </trkpt>
      <trkpt lat="44.16831" lon="6.76181">
        <ele>1418.5999755859</ele>
        <time>2020-06-06T13:31:03.000Z</time>
      </trkpt>
      <trkpt lat="44.1684" lon="6.76172">
        <ele>1418.4000244141</ele>
        <time>2020-06-06T13:31:07.000Z</time>
      </trkpt>
      <trkpt lat="44.16853" lon="6.76162">
        <ele>1417.8000488281</ele>
        <time>2020-06-06T13:31:11.000Z</time>
      </trkpt>
      <trkpt lat="44.16861" lon="6.76154">
        <ele>1417.1999511719</ele>
        <time>2020-06-06T13:31:14.000Z</time>
      </trkpt>
      <trkpt lat="44.16863" lon="6.76152">
        <ele>1417</ele>
        <time>2020-06-06T13:31:15.000Z</time>
      </trkpt>
      <trkpt lat="44.16867" lon="6.76149">
        <ele>1416.8000488281</ele>
        <time>2020-06-06T13:31:16.000Z</time>
      </trkpt>
      <trkpt lat="44.16879" lon="6.76142">
        <ele>1417</ele>
        <time>2020-06-06T13:31:20.000Z</time>
      </trkpt>
      <trkpt lat="44.1689" lon="6.76143">
        <ele>1417.1999511719</ele>
        <time>2020-06-06T13:31:23.000Z</time>
      </trkpt>
      <trkpt lat="44.16893" lon="6.76145">
        <ele>1417</ele>
        <time>2020-06-06T13:31:24.000Z</time>
      </trkpt>
      <trkpt lat="44.16899" lon="6.76141">
        <ele>1416.4000244141</ele>
        <time>2020-06-06T13:31:27.000Z</time>
      </trkpt>
      <trkpt lat="44.16908" lon="6.76132">
        <ele>1416.4000244141</ele>
        <time>2020-06-06T13:31:30.000Z</time>
      </trkpt>
      <trkpt lat="44.16912" lon="6.76127">
        <ele>1416.1999511719</ele>
        <time>2020-06-06T13:31:31.000Z</time>
      </trkpt>
      <trkpt lat="44.16922" lon="6.76109">
        <ele>1414.5999755859</ele>
        <time>2020-06-06T13:31:34.000Z</time>
      </trkpt>
      <trkpt lat="44.16925" lon="6.76104">
        <ele>1414</ele>
        <time>2020-06-06T13:31:35.000Z</time>
      </trkpt>
      <trkpt lat="44.16928" lon="6.76099">
        <ele>1413</ele>
        <time>2020-06-06T13:31:36.000Z</time>
      </trkpt>
      <trkpt lat="44.16932" lon="6.76095">
        <ele>1412</ele>
        <time>2020-06-06T13:31:38.000Z</time>
      </trkpt>
      <trkpt lat="44.16941" lon="6.76081">
        <ele>1412.5999755859</ele>
        <time>2020-06-06T13:31:42.000Z</time>
      </trkpt>
      <trkpt lat="44.16951" lon="6.7607">
        <ele>1412</ele>
        <time>2020-06-06T13:31:47.000Z</time>
      </trkpt>
      <trkpt lat="44.16953" lon="6.76066">
        <ele>1413</ele>
        <time>2020-06-06T13:31:50.000Z</time>
      </trkpt>
      <trkpt lat="44.16954" lon="6.76063">
        <ele>1413.8000488281</ele>
        <time>2020-06-06T13:31:53.000Z</time>
      </trkpt>
      <trkpt lat="44.16954" lon="6.76063">
        <ele>1414.1999511719</ele>
        <time>2020-06-06T13:31:54.000Z</time>
      </trkpt>
      <trkpt lat="44.16954" lon="6.76063">
        <ele>1414.1999511719</ele>
        <time>2020-06-06T13:31:58.000Z</time>
      </trkpt>
      <trkpt lat="44.16959" lon="6.76054">
        <ele>1414.4000244141</ele>
        <time>2020-06-06T13:32:04.000Z</time>
      </trkpt>
      <trkpt lat="44.16975" lon="6.76039">
        <ele>1413.8000488281</ele>
        <time>2020-06-06T13:32:08.000Z</time>
      </trkpt>
      <trkpt lat="44.1698" lon="6.76037">
        <ele>1413.1999511719</ele>
        <time>2020-06-06T13:32:09.000Z</time>
      </trkpt>
      <trkpt lat="44.16985" lon="6.76035">
        <ele>1412.4000244141</ele>
        <time>2020-06-06T13:32:10.000Z</time>
      </trkpt>
      <trkpt lat="44.1699" lon="6.76032">
        <ele>1411.5999755859</ele>
        <time>2020-06-06T13:32:11.000Z</time>
      </trkpt>
      <trkpt lat="44.16995" lon="6.7603">
        <ele>1410.8000488281</ele>
        <time>2020-06-06T13:32:12.000Z</time>
      </trkpt>
      <trkpt lat="44.17001" lon="6.76024">
        <ele>1409.8000488281</ele>
        <time>2020-06-06T13:32:14.000Z</time>
      </trkpt>
      <trkpt lat="44.17005" lon="6.76021">
        <ele>1409.4000244141</ele>
        <time>2020-06-06T13:32:15.000Z</time>
      </trkpt>
      <trkpt lat="44.1702" lon="6.76014">
        <ele>1408.1999511719</ele>
        <time>2020-06-06T13:32:18.000Z</time>
      </trkpt>
      <trkpt lat="44.17025" lon="6.76011">
        <ele>1407.8000488281</ele>
        <time>2020-06-06T13:32:19.000Z</time>
      </trkpt>
      <trkpt lat="44.17035" lon="6.76008">
        <ele>1407.1999511719</ele>
        <time>2020-06-06T13:32:21.000Z</time>
      </trkpt>
      <trkpt lat="44.17039" lon="6.76007">
        <ele>1406.8000488281</ele>
        <time>2020-06-06T13:32:22.000Z</time>
      </trkpt>
      <trkpt lat="44.17048" lon="6.76003">
        <ele>1405.8000488281</ele>
        <time>2020-06-06T13:32:24.000Z</time>
      </trkpt>
      <trkpt lat="44.17053" lon="6.76002">
        <ele>1404.8000488281</ele>
        <time>2020-06-06T13:32:25.000Z</time>
      </trkpt>
      <trkpt lat="44.17065" lon="6.76002">
        <ele>1404</ele>
        <time>2020-06-06T13:32:27.000Z</time>
      </trkpt>
      <trkpt lat="44.17069" lon="6.76003">
        <ele>1403.5999755859</ele>
        <time>2020-06-06T13:32:28.000Z</time>
      </trkpt>
      <trkpt lat="44.1708" lon="6.76">
        <ele>1403.5999755859</ele>
        <time>2020-06-06T13:32:30.000Z</time>
      </trkpt>
      <trkpt lat="44.17097" lon="6.75991">
        <ele>1403.8000488281</ele>
        <time>2020-06-06T13:32:33.000Z</time>
      </trkpt>
      <trkpt lat="44.17104" lon="6.75985">
        <ele>1403</ele>
        <time>2020-06-06T13:32:35.000Z</time>
      </trkpt>
      <trkpt lat="44.17121" lon="6.75971">
        <ele>1403.1999511719</ele>
        <time>2020-06-06T13:32:39.000Z</time>
      </trkpt>
      <trkpt lat="44.17125" lon="6.75968">
        <ele>1403.4000244141</ele>
        <time>2020-06-06T13:32:40.000Z</time>
      </trkpt>
      <trkpt lat="44.1713" lon="6.75966">
        <ele>1403.1999511719</ele>
        <time>2020-06-06T13:32:41.000Z</time>
      </trkpt>
      <trkpt lat="44.17139" lon="6.75964">
        <ele>1403.5999755859</ele>
        <time>2020-06-06T13:32:43.000Z</time>
      </trkpt>
      <trkpt lat="44.17156" lon="6.75952">
        <ele>1403.4000244141</ele>
        <time>2020-06-06T13:32:47.000Z</time>
      </trkpt>
      <trkpt lat="44.17167" lon="6.75941">
        <ele>1403</ele>
        <time>2020-06-06T13:32:50.000Z</time>
      </trkpt>
      <trkpt lat="44.17179" lon="6.75928">
        <ele>1402.4000244141</ele>
        <time>2020-06-06T13:32:53.000Z</time>
      </trkpt>
      <trkpt lat="44.17184" lon="6.75925">
        <ele>1402.1999511719</ele>
        <time>2020-06-06T13:32:54.000Z</time>
      </trkpt>
      <trkpt lat="44.17188" lon="6.7592">
        <ele>1401.8000488281</ele>
        <time>2020-06-06T13:32:55.000Z</time>
      </trkpt>
      <trkpt lat="44.17194" lon="6.75909">
        <ele>1401.1999511719</ele>
        <time>2020-06-06T13:32:57.000Z</time>
      </trkpt>
      <trkpt lat="44.17202" lon="6.75898">
        <ele>1400.1999511719</ele>
        <time>2020-06-06T13:32:59.000Z</time>
      </trkpt>
      <trkpt lat="44.17207" lon="6.75896">
        <ele>1399.8000488281</ele>
        <time>2020-06-06T13:33:00.000Z</time>
      </trkpt>
      <trkpt lat="44.17212" lon="6.75893">
        <ele>1399.1999511719</ele>
        <time>2020-06-06T13:33:01.000Z</time>
      </trkpt>
      <trkpt lat="44.17213" lon="6.7589">
        <ele>1398.4000244141</ele>
        <time>2020-06-06T13:33:02.000Z</time>
      </trkpt>
      <trkpt lat="44.17217" lon="6.75888">
        <ele>1397.1999511719</ele>
        <time>2020-06-06T13:33:04.000Z</time>
      </trkpt>
      <trkpt lat="44.17223" lon="6.75885">
        <ele>1396</ele>
        <time>2020-06-06T13:33:07.000Z</time>
      </trkpt>
      <trkpt lat="44.17229" lon="6.75884">
        <ele>1395.8000488281</ele>
        <time>2020-06-06T13:33:09.000Z</time>
      </trkpt>
      <trkpt lat="44.17235" lon="6.75881">
        <ele>1395.8000488281</ele>
        <time>2020-06-06T13:33:11.000Z</time>
      </trkpt>
      <trkpt lat="44.17243" lon="6.75875">
        <ele>1395.8000488281</ele>
        <time>2020-06-06T13:33:13.000Z</time>
      </trkpt>
      <trkpt lat="44.17246" lon="6.75869">
        <ele>1395.8000488281</ele>
        <time>2020-06-06T13:33:14.000Z</time>
      </trkpt>
      <trkpt lat="44.17256" lon="6.75852">
        <ele>1394.4000244141</ele>
        <time>2020-06-06T13:33:17.000Z</time>
      </trkpt>
      <trkpt lat="44.17267" lon="6.75844">
        <ele>1392.4000244141</ele>
        <time>2020-06-06T13:33:19.000Z</time>
      </trkpt>
      <trkpt lat="44.17274" lon="6.7584">
        <ele>1391.1999511719</ele>
        <time>2020-06-06T13:33:20.000Z</time>
      </trkpt>
      <trkpt lat="44.1728" lon="6.75834">
        <ele>1389.8000488281</ele>
        <time>2020-06-06T13:33:21.000Z</time>
      </trkpt>
      <trkpt lat="44.17286" lon="6.7583">
        <ele>1388.8000488281</ele>
        <time>2020-06-06T13:33:22.000Z</time>
      </trkpt>
      <trkpt lat="44.17291" lon="6.75826">
        <ele>1387.5999755859</ele>
        <time>2020-06-06T13:33:23.000Z</time>
      </trkpt>
      <trkpt lat="44.17297" lon="6.75823">
        <ele>1386.4000244141</ele>
        <time>2020-06-06T13:33:24.000Z</time>
      </trkpt>
      <trkpt lat="44.17309" lon="6.75815">
        <ele>1385</ele>
        <time>2020-06-06T13:33:26.000Z</time>
      </trkpt>
      <trkpt lat="44.17314" lon="6.75811">
        <ele>1384</ele>
        <time>2020-06-06T13:33:27.000Z</time>
      </trkpt>
      <trkpt lat="44.17319" lon="6.75805">
        <ele>1383.5999755859</ele>
        <time>2020-06-06T13:33:28.000Z</time>
      </trkpt>
      <trkpt lat="44.17329" lon="6.75794">
        <ele>1382.5999755859</ele>
        <time>2020-06-06T13:33:30.000Z</time>
      </trkpt>
      <trkpt lat="44.17337" lon="6.75787">
        <ele>1381.5999755859</ele>
        <time>2020-06-06T13:33:32.000Z</time>
      </trkpt>
      <trkpt lat="44.17339" lon="6.75784">
        <ele>1381</ele>
        <time>2020-06-06T13:33:33.000Z</time>
      </trkpt>
      <trkpt lat="44.17345" lon="6.75778">
        <ele>1380.8000488281</ele>
        <time>2020-06-06T13:33:36.000Z</time>
      </trkpt>
      <trkpt lat="44.17354" lon="6.75769">
        <ele>1380.4000244141</ele>
        <time>2020-06-06T13:33:39.000Z</time>
      </trkpt>
      <trkpt lat="44.17368" lon="6.75766">
        <ele>1379.5999755859</ele>
        <time>2020-06-06T13:33:42.000Z</time>
      </trkpt>
      <trkpt lat="44.17373" lon="6.75766">
        <ele>1379.1999511719</ele>
        <time>2020-06-06T13:33:43.000Z</time>
      </trkpt>
      <trkpt lat="44.17377" lon="6.75766">
        <ele>1378.1999511719</ele>
        <time>2020-06-06T13:33:44.000Z</time>
      </trkpt>
      <trkpt lat="44.1738" lon="6.75764">
        <ele>1377.5999755859</ele>
        <time>2020-06-06T13:33:45.000Z</time>
      </trkpt>
      <trkpt lat="44.17381" lon="6.75759">
        <ele>1376.4000244141</ele>
        <time>2020-06-06T13:33:46.000Z</time>
      </trkpt>
      <trkpt lat="44.17382" lon="6.75755">
        <ele>1375.1999511719</ele>
        <time>2020-06-06T13:33:47.000Z</time>
      </trkpt>
      <trkpt lat="44.17389" lon="6.75746">
        <ele>1373</ele>
        <time>2020-06-06T13:33:49.000Z</time>
      </trkpt>
      <trkpt lat="44.17393" lon="6.75742">
        <ele>1371.4000244141</ele>
        <time>2020-06-06T13:33:50.000Z</time>
      </trkpt>
      <trkpt lat="44.17404" lon="6.75731">
        <ele>1369.4000244141</ele>
        <time>2020-06-06T13:33:52.000Z</time>
      </trkpt>
      <trkpt lat="44.17409" lon="6.75724">
        <ele>1367.8000488281</ele>
        <time>2020-06-06T13:33:53.000Z</time>
      </trkpt>
      <trkpt lat="44.17414" lon="6.7572">
        <ele>1366</ele>
        <time>2020-06-06T13:33:54.000Z</time>
      </trkpt>
      <trkpt lat="44.1742" lon="6.75716">
        <ele>1364.1999511719</ele>
        <time>2020-06-06T13:33:55.000Z</time>
      </trkpt>
      <trkpt lat="44.17427" lon="6.75712">
        <ele>1362.5999755859</ele>
        <time>2020-06-06T13:33:56.000Z</time>
      </trkpt>
      <trkpt lat="44.17434" lon="6.75707">
        <ele>1361</ele>
        <time>2020-06-06T13:33:57.000Z</time>
      </trkpt>
      <trkpt lat="44.17438" lon="6.75701">
        <ele>1359.8000488281</ele>
        <time>2020-06-06T13:33:58.000Z</time>
      </trkpt>
      <trkpt lat="44.17443" lon="6.75692">
        <ele>1359</ele>
        <time>2020-06-06T13:33:59.000Z</time>
      </trkpt>
      <trkpt lat="44.17447" lon="6.75683">
        <ele>1357.8000488281</ele>
        <time>2020-06-06T13:34:00.000Z</time>
      </trkpt>
      <trkpt lat="44.17452" lon="6.75675">
        <ele>1356.5999755859</ele>
        <time>2020-06-06T13:34:01.000Z</time>
      </trkpt>
      <trkpt lat="44.17457" lon="6.75669">
        <ele>1355.5999755859</ele>
        <time>2020-06-06T13:34:02.000Z</time>
      </trkpt>
      <trkpt lat="44.17462" lon="6.75663">
        <ele>1354.4000244141</ele>
        <time>2020-06-06T13:34:03.000Z</time>
      </trkpt>
      <trkpt lat="44.17467" lon="6.75658">
        <ele>1353</ele>
        <time>2020-06-06T13:34:04.000Z</time>
      </trkpt>
      <trkpt lat="44.1748" lon="6.75653">
        <ele>1351.5999755859</ele>
        <time>2020-06-06T13:34:06.000Z</time>
      </trkpt>
      <trkpt lat="44.17487" lon="6.75651">
        <ele>1350.4000244141</ele>
        <time>2020-06-06T13:34:07.000Z</time>
      </trkpt>
      <trkpt lat="44.17493" lon="6.75649">
        <ele>1349</ele>
        <time>2020-06-06T13:34:08.000Z</time>
      </trkpt>
      <trkpt lat="44.175" lon="6.75646">
        <ele>1347.8000488281</ele>
        <time>2020-06-06T13:34:09.000Z</time>
      </trkpt>
      <trkpt lat="44.17505" lon="6.75642">
        <ele>1346.8000488281</ele>
        <time>2020-06-06T13:34:10.000Z</time>
      </trkpt>
      <trkpt lat="44.17513" lon="6.75636">
        <ele>1345.1999511719</ele>
        <time>2020-06-06T13:34:11.000Z</time>
      </trkpt>
      <trkpt lat="44.17519" lon="6.75633">
        <ele>1343.8000488281</ele>
        <time>2020-06-06T13:34:12.000Z</time>
      </trkpt>
      <trkpt lat="44.17524" lon="6.75629">
        <ele>1342.1999511719</ele>
        <time>2020-06-06T13:34:13.000Z</time>
      </trkpt>
      <trkpt lat="44.17526" lon="6.75624">
        <ele>1340.4000244141</ele>
        <time>2020-06-06T13:34:14.000Z</time>
      </trkpt>
      <trkpt lat="44.17527" lon="6.75617">
        <ele>1339.1999511719</ele>
        <time>2020-06-06T13:34:15.000Z</time>
      </trkpt>
      <trkpt lat="44.17531" lon="6.7561">
        <ele>1337.8000488281</ele>
        <time>2020-06-06T13:34:16.000Z</time>
      </trkpt>
      <trkpt lat="44.17535" lon="6.75603">
        <ele>1336.5999755859</ele>
        <time>2020-06-06T13:34:17.000Z</time>
      </trkpt>
      <trkpt lat="44.17541" lon="6.75597">
        <ele>1335.5999755859</ele>
        <time>2020-06-06T13:34:18.000Z</time>
      </trkpt>
      <trkpt lat="44.17547" lon="6.75593">
        <ele>1334.8000488281</ele>
        <time>2020-06-06T13:34:19.000Z</time>
      </trkpt>
      <trkpt lat="44.17552" lon="6.7559">
        <ele>1334</ele>
        <time>2020-06-06T13:34:20.000Z</time>
      </trkpt>
      <trkpt lat="44.17559" lon="6.75587">
        <ele>1332.8000488281</ele>
        <time>2020-06-06T13:34:21.000Z</time>
      </trkpt>
      <trkpt lat="44.17566" lon="6.75583">
        <ele>1331.5999755859</ele>
        <time>2020-06-06T13:34:22.000Z</time>
      </trkpt>
      <trkpt lat="44.1757" lon="6.75583">
        <ele>1330.5999755859</ele>
        <time>2020-06-06T13:34:23.000Z</time>
      </trkpt>
      <trkpt lat="44.17575" lon="6.75582">
        <ele>1329.1999511719</ele>
        <time>2020-06-06T13:34:24.000Z</time>
      </trkpt>
      <trkpt lat="44.1758" lon="6.75578">
        <ele>1328.1999511719</ele>
        <time>2020-06-06T13:34:25.000Z</time>
      </trkpt>
      <trkpt lat="44.17585" lon="6.75574">
        <ele>1326.1999511719</ele>
        <time>2020-06-06T13:34:26.000Z</time>
      </trkpt>
      <trkpt lat="44.17588" lon="6.7557">
        <ele>1324.5999755859</ele>
        <time>2020-06-06T13:34:27.000Z</time>
      </trkpt>
      <trkpt lat="44.17588" lon="6.75569">
        <ele>1322.5999755859</ele>
        <time>2020-06-06T13:34:28.000Z</time>
      </trkpt>
      <trkpt lat="44.17588" lon="6.75568">
        <ele>1321.4000244141</ele>
        <time>2020-06-06T13:34:29.000Z</time>
      </trkpt>
      <trkpt lat="44.17587" lon="6.75567">
        <ele>1319.4000244141</ele>
        <time>2020-06-06T13:34:31.000Z</time>
      </trkpt>
      <trkpt lat="44.17582" lon="6.75564">
        <ele>1319.4000244141</ele>
        <time>2020-06-06T13:34:34.000Z</time>
      </trkpt>
      <trkpt lat="44.17578" lon="6.75559">
        <ele>1319</ele>
        <time>2020-06-06T13:34:37.000Z</time>
      </trkpt>
      <trkpt lat="44.17578" lon="6.75556">
        <ele>1318.8000488281</ele>
        <time>2020-06-06T13:34:38.000Z</time>
      </trkpt>
      <trkpt lat="44.17581" lon="6.75555">
        <ele>1318.4000244141</ele>
        <time>2020-06-06T13:34:40.000Z</time>
      </trkpt>
      <trkpt lat="44.17583" lon="6.75554">
        <ele>1318</ele>
        <time>2020-06-06T13:34:41.000Z</time>
      </trkpt>
      <trkpt lat="44.17589" lon="6.75551">
        <ele>1317.1999511719</ele>
        <time>2020-06-06T13:34:43.000Z</time>
      </trkpt>
      <trkpt lat="44.17594" lon="6.75553">
        <ele>1316.4000244141</ele>
        <time>2020-06-06T13:34:45.000Z</time>
      </trkpt>
      <trkpt lat="44.17597" lon="6.75554">
        <ele>1316</ele>
        <time>2020-06-06T13:34:46.000Z</time>
      </trkpt>
      <trkpt lat="44.176" lon="6.75555">
        <ele>1315.5999755859</ele>
        <time>2020-06-06T13:34:47.000Z</time>
      </trkpt>
      <trkpt lat="44.17605" lon="6.75557">
        <ele>1314.5999755859</ele>
        <time>2020-06-06T13:34:49.000Z</time>
      </trkpt>
      <trkpt lat="44.17607" lon="6.75557">
        <ele>1314.1999511719</ele>
        <time>2020-06-06T13:34:50.000Z</time>
      </trkpt>
      <trkpt lat="44.17608" lon="6.75555">
        <ele>1313.8000488281</ele>
        <time>2020-06-06T13:34:51.000Z</time>
      </trkpt>
      <trkpt lat="44.17608" lon="6.75554">
        <ele>1313.1999511719</ele>
        <time>2020-06-06T13:34:52.000Z</time>
      </trkpt>
      <trkpt lat="44.17609" lon="6.75549">
        <ele>1312</ele>
        <time>2020-06-06T13:34:55.000Z</time>
      </trkpt>
      <trkpt lat="44.17608" lon="6.75545">
        <ele>1311.8000488281</ele>
        <time>2020-06-06T13:35:00.000Z</time>
      </trkpt>
      <trkpt lat="44.17609" lon="6.7554">
        <ele>1311.5999755859</ele>
        <time>2020-06-06T13:35:05.000Z</time>
      </trkpt>
      <trkpt lat="44.17614" lon="6.75533">
        <ele>1311.4000244141</ele>
        <time>2020-06-06T13:35:10.000Z</time>
      </trkpt>
      <trkpt lat="44.17621" lon="6.75522">
        <ele>1312.1999511719</ele>
        <time>2020-06-06T13:35:15.000Z</time>
      </trkpt>
      <trkpt lat="44.17625" lon="6.75518">
        <ele>1312.4000244141</ele>
        <time>2020-06-06T13:35:16.000Z</time>
      </trkpt>
      <trkpt lat="44.17633" lon="6.75512">
        <ele>1311.8000488281</ele>
        <time>2020-06-06T13:35:18.000Z</time>
      </trkpt>
      <trkpt lat="44.17637" lon="6.75512">
        <ele>1311</ele>
        <time>2020-06-06T13:35:19.000Z</time>
      </trkpt>
      <trkpt lat="44.17643" lon="6.75507">
        <ele>1309.1999511719</ele>
        <time>2020-06-06T13:35:21.000Z</time>
      </trkpt>
      <trkpt lat="44.17649" lon="6.75505">
        <ele>1308.1999511719</ele>
        <time>2020-06-06T13:35:22.000Z</time>
      </trkpt>
      <trkpt lat="44.17656" lon="6.75504">
        <ele>1306.8000488281</ele>
        <time>2020-06-06T13:35:23.000Z</time>
      </trkpt>
      <trkpt lat="44.17662" lon="6.75502">
        <ele>1305.8000488281</ele>
        <time>2020-06-06T13:35:24.000Z</time>
      </trkpt>
      <trkpt lat="44.17667" lon="6.755">
        <ele>1304.5999755859</ele>
        <time>2020-06-06T13:35:25.000Z</time>
      </trkpt>
      <trkpt lat="44.17671" lon="6.75497">
        <ele>1303.4000244141</ele>
        <time>2020-06-06T13:35:26.000Z</time>
      </trkpt>
      <trkpt lat="44.17675" lon="6.75495">
        <ele>1304.4000244141</ele>
        <time>2020-06-06T13:35:27.000Z</time>
      </trkpt>
      <trkpt lat="44.17678" lon="6.75493">
        <ele>1303.8000488281</ele>
        <time>2020-06-06T13:35:28.000Z</time>
      </trkpt>
      <trkpt lat="44.17687" lon="6.75491">
        <ele>1303</ele>
        <time>2020-06-06T13:35:30.000Z</time>
      </trkpt>
      <trkpt lat="44.17697" lon="6.75486">
        <ele>1302.4000244141</ele>
        <time>2020-06-06T13:35:32.000Z</time>
      </trkpt>
      <trkpt lat="44.17702" lon="6.75484">
        <ele>1301.4000244141</ele>
        <time>2020-06-06T13:35:33.000Z</time>
      </trkpt>
      <trkpt lat="44.17707" lon="6.75479">
        <ele>1300.8000488281</ele>
        <time>2020-06-06T13:35:34.000Z</time>
      </trkpt>
      <trkpt lat="44.17715" lon="6.75474">
        <ele>1300.4000244141</ele>
        <time>2020-06-06T13:35:36.000Z</time>
      </trkpt>
      <trkpt lat="44.1772" lon="6.75473">
        <ele>1300.1999511719</ele>
        <time>2020-06-06T13:35:37.000Z</time>
      </trkpt>
      <trkpt lat="44.17725" lon="6.75462">
        <ele>1299.4000244141</ele>
        <time>2020-06-06T13:35:39.000Z</time>
      </trkpt>
      <trkpt lat="44.17729" lon="6.75456">
        <ele>1299</ele>
        <time>2020-06-06T13:35:40.000Z</time>
      </trkpt>
      <trkpt lat="44.17737" lon="6.75442">
        <ele>1297.4000244141</ele>
        <time>2020-06-06T13:35:42.000Z</time>
      </trkpt>
      <trkpt lat="44.1775" lon="6.75423">
        <ele>1296.4000244141</ele>
        <time>2020-06-06T13:35:45.000Z</time>
      </trkpt>
      <trkpt lat="44.17755" lon="6.75417">
        <ele>1295.4000244141</ele>
        <time>2020-06-06T13:35:46.000Z</time>
      </trkpt>
      <trkpt lat="44.17759" lon="6.75413">
        <ele>1295.5999755859</ele>
        <time>2020-06-06T13:35:47.000Z</time>
      </trkpt>
      <trkpt lat="44.17766" lon="6.75414">
        <ele>1294.5999755859</ele>
        <time>2020-06-06T13:35:49.000Z</time>
      </trkpt>
      <trkpt lat="44.1777" lon="6.75413">
        <ele>1293.8000488281</ele>
        <time>2020-06-06T13:35:50.000Z</time>
      </trkpt>
      <trkpt lat="44.17774" lon="6.75413">
        <ele>1293.4000244141</ele>
        <time>2020-06-06T13:35:51.000Z</time>
      </trkpt>
      <trkpt lat="44.17777" lon="6.75413">
        <ele>1292.8000488281</ele>
        <time>2020-06-06T13:35:53.000Z</time>
      </trkpt>
      <trkpt lat="44.1778" lon="6.75412">
        <ele>1291.5999755859</ele>
        <time>2020-06-06T13:35:57.000Z</time>
      </trkpt>
      <trkpt lat="44.17783" lon="6.75413">
        <ele>1291.1999511719</ele>
        <time>2020-06-06T13:35:59.000Z</time>
      </trkpt>
      <trkpt lat="44.17786" lon="6.75413">
        <ele>1290.8000488281</ele>
        <time>2020-06-06T13:36:02.000Z</time>
      </trkpt>
      <trkpt lat="44.17789" lon="6.75413">
        <ele>1290.4000244141</ele>
        <time>2020-06-06T13:36:03.000Z</time>
      </trkpt>
      <trkpt lat="44.17794" lon="6.7541">
        <ele>1289.5999755859</ele>
        <time>2020-06-06T13:36:05.000Z</time>
      </trkpt>
      <trkpt lat="44.17798" lon="6.75407">
        <ele>1289.4000244141</ele>
        <time>2020-06-06T13:36:07.000Z</time>
      </trkpt>
      <trkpt lat="44.17801" lon="6.75404">
        <ele>1289.1999511719</ele>
        <time>2020-06-06T13:36:09.000Z</time>
      </trkpt>
      <trkpt lat="44.17815" lon="6.75391">
        <ele>1289.1999511719</ele>
        <time>2020-06-06T13:36:13.000Z</time>
      </trkpt>
      <trkpt lat="44.1782" lon="6.75388">
        <ele>1288.8000488281</ele>
        <time>2020-06-06T13:36:14.000Z</time>
      </trkpt>
      <trkpt lat="44.17823" lon="6.75385">
        <ele>1288.1999511719</ele>
        <time>2020-06-06T13:36:15.000Z</time>
      </trkpt>
      <trkpt lat="44.17826" lon="6.75382">
        <ele>1287.4000244141</ele>
        <time>2020-06-06T13:36:16.000Z</time>
      </trkpt>
      <trkpt lat="44.17828" lon="6.75379">
        <ele>1286.4000244141</ele>
        <time>2020-06-06T13:36:17.000Z</time>
      </trkpt>
      <trkpt lat="44.17835" lon="6.75374">
        <ele>1284.4000244141</ele>
        <time>2020-06-06T13:36:19.000Z</time>
      </trkpt>
      <trkpt lat="44.17839" lon="6.75373">
        <ele>1283.8000488281</ele>
        <time>2020-06-06T13:36:20.000Z</time>
      </trkpt>
      <trkpt lat="44.17842" lon="6.75372">
        <ele>1283.1999511719</ele>
        <time>2020-06-06T13:36:21.000Z</time>
      </trkpt>
      <trkpt lat="44.17846" lon="6.75368">
        <ele>1282.5999755859</ele>
        <time>2020-06-06T13:36:22.000Z</time>
      </trkpt>
      <trkpt lat="44.17849" lon="6.75364">
        <ele>1282</ele>
        <time>2020-06-06T13:36:23.000Z</time>
      </trkpt>
      <trkpt lat="44.17853" lon="6.75359">
        <ele>1281.8000488281</ele>
        <time>2020-06-06T13:36:24.000Z</time>
      </trkpt>
      <trkpt lat="44.1786" lon="6.75351">
        <ele>1280.5999755859</ele>
        <time>2020-06-06T13:36:26.000Z</time>
      </trkpt>
      <trkpt lat="44.17867" lon="6.75348">
        <ele>1280.4000244141</ele>
        <time>2020-06-06T13:36:28.000Z</time>
      </trkpt>
      <trkpt lat="44.1788" lon="6.75338">
        <ele>1281</ele>
        <time>2020-06-06T13:36:32.000Z</time>
      </trkpt>
      <trkpt lat="44.17883" lon="6.75332">
        <ele>1280.8000488281</ele>
        <time>2020-06-06T13:36:33.000Z</time>
      </trkpt>
      <trkpt lat="44.17891" lon="6.75326">
        <ele>1280.5999755859</ele>
        <time>2020-06-06T13:36:35.000Z</time>
      </trkpt>
      <trkpt lat="44.17905" lon="6.75317">
        <ele>1279.1999511719</ele>
        <time>2020-06-06T13:36:38.000Z</time>
      </trkpt>
      <trkpt lat="44.17909" lon="6.75315">
        <ele>1278.5999755859</ele>
        <time>2020-06-06T13:36:39.000Z</time>
      </trkpt>
      <trkpt lat="44.17912" lon="6.75311">
        <ele>1278</ele>
        <time>2020-06-06T13:36:40.000Z</time>
      </trkpt>
      <trkpt lat="44.17915" lon="6.75305">
        <ele>1277.5999755859</ele>
        <time>2020-06-06T13:36:41.000Z</time>
      </trkpt>
      <trkpt lat="44.17919" lon="6.753">
        <ele>1277</ele>
        <time>2020-06-06T13:36:42.000Z</time>
      </trkpt>
      <trkpt lat="44.17923" lon="6.75295">
        <ele>1276.5999755859</ele>
        <time>2020-06-06T13:36:43.000Z</time>
      </trkpt>
      <trkpt lat="44.17931" lon="6.75285">
        <ele>1275</ele>
        <time>2020-06-06T13:36:45.000Z</time>
      </trkpt>
      <trkpt lat="44.17935" lon="6.75278">
        <ele>1273.5999755859</ele>
        <time>2020-06-06T13:36:46.000Z</time>
      </trkpt>
      <trkpt lat="44.17939" lon="6.75275">
        <ele>1272.4000244141</ele>
        <time>2020-06-06T13:36:47.000Z</time>
      </trkpt>
      <trkpt lat="44.17941" lon="6.75273">
        <ele>1270.4000244141</ele>
        <time>2020-06-06T13:36:48.000Z</time>
      </trkpt>
      <trkpt lat="44.1794" lon="6.75274">
        <ele>1269</ele>
        <time>2020-06-06T13:36:49.000Z</time>
      </trkpt>
      <trkpt lat="44.17941" lon="6.7527">
        <ele>1268</ele>
        <time>2020-06-06T13:36:50.000Z</time>
      </trkpt>
      <trkpt lat="44.17939" lon="6.75269">
        <ele>1266.8000488281</ele>
        <time>2020-06-06T13:36:51.000Z</time>
      </trkpt>
      <trkpt lat="44.17937" lon="6.75268">
        <ele>1266</ele>
        <time>2020-06-06T13:36:52.000Z</time>
      </trkpt>
      <trkpt lat="44.17933" lon="6.75265">
        <ele>1265.1999511719</ele>
        <time>2020-06-06T13:36:53.000Z</time>
      </trkpt>
      <trkpt lat="44.17925" lon="6.75259">
        <ele>1264.1999511719</ele>
        <time>2020-06-06T13:36:55.000Z</time>
      </trkpt>
      <trkpt lat="44.17918" lon="6.7526">
        <ele>1262.8000488281</ele>
        <time>2020-06-06T13:36:57.000Z</time>
      </trkpt>
      <trkpt lat="44.17916" lon="6.75256">
        <ele>1262</ele>
        <time>2020-06-06T13:36:58.000Z</time>
      </trkpt>
      <trkpt lat="44.17917" lon="6.75251">
        <ele>1261.1999511719</ele>
        <time>2020-06-06T13:36:59.000Z</time>
      </trkpt>
      <trkpt lat="44.17918" lon="6.75244">
        <ele>1260.4000244141</ele>
        <time>2020-06-06T13:37:00.000Z</time>
      </trkpt>
      <trkpt lat="44.17921" lon="6.75239">
        <ele>1259.5999755859</ele>
        <time>2020-06-06T13:37:01.000Z</time>
      </trkpt>
      <trkpt lat="44.17928" lon="6.75235">
        <ele>1258</ele>
        <time>2020-06-06T13:37:03.000Z</time>
      </trkpt>
      <trkpt lat="44.17938" lon="6.7523">
        <ele>1256.4000244141</ele>
        <time>2020-06-06T13:37:05.000Z</time>
      </trkpt>
      <trkpt lat="44.17944" lon="6.75227">
        <ele>1254.8000488281</ele>
        <time>2020-06-06T13:37:06.000Z</time>
      </trkpt>
      <trkpt lat="44.1795" lon="6.75225">
        <ele>1253.8000488281</ele>
        <time>2020-06-06T13:37:07.000Z</time>
      </trkpt>
      <trkpt lat="44.17956" lon="6.75223">
        <ele>1252.4000244141</ele>
        <time>2020-06-06T13:37:08.000Z</time>
      </trkpt>
      <trkpt lat="44.17962" lon="6.7522">
        <ele>1251</ele>
        <time>2020-06-06T13:37:09.000Z</time>
      </trkpt>
      <trkpt lat="44.17967" lon="6.75217">
        <ele>1250.1999511719</ele>
        <time>2020-06-06T13:37:10.000Z</time>
      </trkpt>
      <trkpt lat="44.17973" lon="6.75208">
        <ele>1249.1999511719</ele>
        <time>2020-06-06T13:37:11.000Z</time>
      </trkpt>
      <trkpt lat="44.17978" lon="6.75202">
        <ele>1248.4000244141</ele>
        <time>2020-06-06T13:37:12.000Z</time>
      </trkpt>
      <trkpt lat="44.17984" lon="6.75197">
        <ele>1246.8000488281</ele>
        <time>2020-06-06T13:37:13.000Z</time>
      </trkpt>
      <trkpt lat="44.17991" lon="6.75187">
        <ele>1245.1999511719</ele>
        <time>2020-06-06T13:37:15.000Z</time>
      </trkpt>
      <trkpt lat="44.17995" lon="6.75184">
        <ele>1243.8000488281</ele>
        <time>2020-06-06T13:37:16.000Z</time>
      </trkpt>
      <trkpt lat="44.17999" lon="6.75185">
        <ele>1242.1999511719</ele>
        <time>2020-06-06T13:37:17.000Z</time>
      </trkpt>
      <trkpt lat="44.18005" lon="6.75187">
        <ele>1241.1999511719</ele>
        <time>2020-06-06T13:37:18.000Z</time>
      </trkpt>
      <trkpt lat="44.18009" lon="6.75189">
        <ele>1239.4000244141</ele>
        <time>2020-06-06T13:37:19.000Z</time>
      </trkpt>
      <trkpt lat="44.18012" lon="6.75191">
        <ele>1237.5999755859</ele>
        <time>2020-06-06T13:37:20.000Z</time>
      </trkpt>
      <trkpt lat="44.18017" lon="6.75193">
        <ele>1236.8000488281</ele>
        <time>2020-06-06T13:37:21.000Z</time>
      </trkpt>
      <trkpt lat="44.18021" lon="6.75195">
        <ele>1235.8000488281</ele>
        <time>2020-06-06T13:37:22.000Z</time>
      </trkpt>
      <trkpt lat="44.18026" lon="6.75197">
        <ele>1234.5999755859</ele>
        <time>2020-06-06T13:37:23.000Z</time>
      </trkpt>
      <trkpt lat="44.18037" lon="6.75203">
        <ele>1233</ele>
        <time>2020-06-06T13:37:25.000Z</time>
      </trkpt>
      <trkpt lat="44.18042" lon="6.75205">
        <ele>1230.8000488281</ele>
        <time>2020-06-06T13:37:26.000Z</time>
      </trkpt>
      <trkpt lat="44.18047" lon="6.75205">
        <ele>1229.1999511719</ele>
        <time>2020-06-06T13:37:27.000Z</time>
      </trkpt>
      <trkpt lat="44.18051" lon="6.75206">
        <ele>1227.1999511719</ele>
        <time>2020-06-06T13:37:28.000Z</time>
      </trkpt>
      <trkpt lat="44.18054" lon="6.75209">
        <ele>1225.8000488281</ele>
        <time>2020-06-06T13:37:29.000Z</time>
      </trkpt>
      <trkpt lat="44.1806" lon="6.75209">
        <ele>1224.5999755859</ele>
        <time>2020-06-06T13:37:31.000Z</time>
      </trkpt>
      <trkpt lat="44.18063" lon="6.75206">
        <ele>1223.5999755859</ele>
        <time>2020-06-06T13:37:33.000Z</time>
      </trkpt>
      <trkpt lat="44.18066" lon="6.75201">
        <ele>1222.4000244141</ele>
        <time>2020-06-06T13:37:35.000Z</time>
      </trkpt>
      <trkpt lat="44.18068" lon="6.75199">
        <ele>1221.5999755859</ele>
        <time>2020-06-06T13:37:36.000Z</time>
      </trkpt>
      <trkpt lat="44.1807" lon="6.75197">
        <ele>1220.8000488281</ele>
        <time>2020-06-06T13:37:37.000Z</time>
      </trkpt>
      <trkpt lat="44.18069" lon="6.75191">
        <ele>1219.1999511719</ele>
        <time>2020-06-06T13:37:39.000Z</time>
      </trkpt>
      <trkpt lat="44.1807" lon="6.75182">
        <ele>1217.8000488281</ele>
        <time>2020-06-06T13:37:41.000Z</time>
      </trkpt>
      <trkpt lat="44.18069" lon="6.75177">
        <ele>1216.8000488281</ele>
        <time>2020-06-06T13:37:42.000Z</time>
      </trkpt>
      <trkpt lat="44.18067" lon="6.75173">
        <ele>1215.8000488281</ele>
        <time>2020-06-06T13:37:43.000Z</time>
      </trkpt>
      <trkpt lat="44.18065" lon="6.75169">
        <ele>1214.1999511719</ele>
        <time>2020-06-06T13:37:45.000Z</time>
      </trkpt>
      <trkpt lat="44.18064" lon="6.75163">
        <ele>1212.5999755859</ele>
        <time>2020-06-06T13:37:47.000Z</time>
      </trkpt>
      <trkpt lat="44.18063" lon="6.75157">
        <ele>1212</ele>
        <time>2020-06-06T13:37:49.000Z</time>
      </trkpt>
      <trkpt lat="44.18062" lon="6.75151">
        <ele>1211.5999755859</ele>
        <time>2020-06-06T13:37:51.000Z</time>
      </trkpt>
      <trkpt lat="44.18058" lon="6.75141">
        <ele>1211.1999511719</ele>
        <time>2020-06-06T13:37:54.000Z</time>
      </trkpt>
      <trkpt lat="44.18054" lon="6.75133">
        <ele>1210.4000244141</ele>
        <time>2020-06-06T13:37:57.000Z</time>
      </trkpt>
      <trkpt lat="44.18052" lon="6.75131">
        <ele>1210</ele>
        <time>2020-06-06T13:37:59.000Z</time>
      </trkpt>
      <trkpt lat="44.18051" lon="6.75129">
        <ele>1209.4000244141</ele>
        <time>2020-06-06T13:38:02.000Z</time>
      </trkpt>
      <trkpt lat="44.1805" lon="6.75128">
        <ele>1209.1999511719</ele>
        <time>2020-06-06T13:38:04.000Z</time>
      </trkpt>
      <trkpt lat="44.18045" lon="6.75118">
        <ele>1209.1999511719</ele>
        <time>2020-06-06T13:38:14.000Z</time>
      </trkpt>
      <trkpt lat="44.18045" lon="6.75108">
        <ele>1209</ele>
        <time>2020-06-06T13:38:18.000Z</time>
      </trkpt>
      <trkpt lat="44.18046" lon="6.75105">
        <ele>1208.4000244141</ele>
        <time>2020-06-06T13:38:22.000Z</time>
      </trkpt>
      <trkpt lat="44.18046" lon="6.75105">
        <ele>1208.1999511719</ele>
        <time>2020-06-06T13:38:23.000Z</time>
      </trkpt>
      <trkpt lat="44.18045" lon="6.751">
        <ele>1208</ele>
        <time>2020-06-06T13:38:28.000Z</time>
      </trkpt>
      <trkpt lat="44.18045" lon="6.75101">
        <ele>1208</ele>
        <time>2020-06-06T13:38:29.000Z</time>
      </trkpt>
      <trkpt lat="44.18044" lon="6.75098">
        <ele>1207.4000244141</ele>
        <time>2020-06-06T13:38:31.000Z</time>
      </trkpt>
      <trkpt lat="44.18044" lon="6.75095">
        <ele>1206.8000488281</ele>
        <time>2020-06-06T13:38:34.000Z</time>
      </trkpt>
      <trkpt lat="44.18045" lon="6.75091">
        <ele>1206.4000244141</ele>
        <time>2020-06-06T13:38:37.000Z</time>
      </trkpt>
      <trkpt lat="44.18044" lon="6.7509">
        <ele>1206.4000244141</ele>
        <time>2020-06-06T13:38:38.000Z</time>
      </trkpt>
      <trkpt lat="44.18044" lon="6.75089">
        <ele>1206.1999511719</ele>
        <time>2020-06-06T13:38:39.000Z</time>
      </trkpt>
      <trkpt lat="44.18044" lon="6.75082">
        <ele>1207</ele>
        <time>2020-06-06T13:38:43.000Z</time>
      </trkpt>
      <trkpt lat="44.18045" lon="6.7508">
        <ele>1207.1999511719</ele>
        <time>2020-06-06T13:38:44.000Z</time>
      </trkpt>
      <trkpt lat="44.18046" lon="6.75077">
        <ele>1207.4000244141</ele>
        <time>2020-06-06T13:38:45.000Z</time>
      </trkpt>
      <trkpt lat="44.18055" lon="6.75065">
        <ele>1207.4000244141</ele>
        <time>2020-06-06T13:38:48.000Z</time>
      </trkpt>
      <trkpt lat="44.18066" lon="6.75052">
        <ele>1207.1999511719</ele>
        <time>2020-06-06T13:38:51.000Z</time>
      </trkpt>
      <trkpt lat="44.18074" lon="6.75045">
        <ele>1207</ele>
        <time>2020-06-06T13:38:54.000Z</time>
      </trkpt>
      <trkpt lat="44.18087" lon="6.75035">
        <ele>1206.8000488281</ele>
        <time>2020-06-06T13:38:59.000Z</time>
      </trkpt>
      <trkpt lat="44.18099" lon="6.75027">
        <ele>1207.8000488281</ele>
        <time>2020-06-06T13:39:05.000Z</time>
      </trkpt>
      <trkpt lat="44.18106" lon="6.75024">
        <ele>1208.4000244141</ele>
        <time>2020-06-06T13:39:09.000Z</time>
      </trkpt>
      <trkpt lat="44.18113" lon="6.7502">
        <ele>1209.1999511719</ele>
        <time>2020-06-06T13:39:13.000Z</time>
      </trkpt>
      <trkpt lat="44.18116" lon="6.75018">
        <ele>1209.5999755859</ele>
        <time>2020-06-06T13:39:15.000Z</time>
      </trkpt>
      <trkpt lat="44.18128" lon="6.75008">
        <ele>1210.1999511719</ele>
        <time>2020-06-06T13:39:21.000Z</time>
      </trkpt>
      <trkpt lat="44.18137" lon="6.74995">
        <ele>1210.5999755859</ele>
        <time>2020-06-06T13:39:28.000Z</time>
      </trkpt>
      <trkpt lat="44.18139" lon="6.7499">
        <ele>1211</ele>
        <time>2020-06-06T13:39:30.000Z</time>
      </trkpt>
      <trkpt lat="44.18144" lon="6.74983">
        <ele>1211.5999755859</ele>
        <time>2020-06-06T13:39:34.000Z</time>
      </trkpt>
      <trkpt lat="44.18146" lon="6.74981">
        <ele>1211.5999755859</ele>
        <time>2020-06-06T13:39:35.000Z</time>
      </trkpt>
      <trkpt lat="44.18148" lon="6.74978">
        <ele>1211.8000488281</ele>
        <time>2020-06-06T13:39:39.000Z</time>
      </trkpt>
      <trkpt lat="44.1815" lon="6.74969">
        <ele>1211.8000488281</ele>
        <time>2020-06-06T13:39:43.000Z</time>
      </trkpt>
      <trkpt lat="44.18152" lon="6.74968">
        <ele>1211.5999755859</ele>
        <time>2020-06-06T13:39:44.000Z</time>
      </trkpt>
      <trkpt lat="44.18154" lon="6.74967">
        <ele>1211.4000244141</ele>
        <time>2020-06-06T13:39:45.000Z</time>
      </trkpt>
      <trkpt lat="44.18157" lon="6.74967">
        <ele>1211</ele>
        <time>2020-06-06T13:39:47.000Z</time>
      </trkpt>
      <trkpt lat="44.18165" lon="6.74963">
        <ele>1211.5999755859</ele>
        <time>2020-06-06T13:39:52.000Z</time>
      </trkpt>
      <trkpt lat="44.18176" lon="6.7496">
        <ele>1211.4000244141</ele>
        <time>2020-06-06T13:39:57.000Z</time>
      </trkpt>
      <trkpt lat="44.18192" lon="6.74953">
        <ele>1212</ele>
        <time>2020-06-06T13:40:04.000Z</time>
      </trkpt>
      <trkpt lat="44.18202" lon="6.74953">
        <ele>1212.8000488281</ele>
        <time>2020-06-06T13:40:10.000Z</time>
      </trkpt>
      <trkpt lat="44.18205" lon="6.74953">
        <ele>1213.1999511719</ele>
        <time>2020-06-06T13:40:12.000Z</time>
      </trkpt>
      <trkpt lat="44.18207" lon="6.74953">
        <ele>1213.4000244141</ele>
        <time>2020-06-06T13:40:15.000Z</time>
      </trkpt>
      <trkpt lat="44.1821" lon="6.74953">
        <ele>1213.5999755859</ele>
        <time>2020-06-06T13:40:17.000Z</time>
      </trkpt>
      <trkpt lat="44.18211" lon="6.74954">
        <ele>1213.8000488281</ele>
        <time>2020-06-06T13:40:18.000Z</time>
      </trkpt>
      <trkpt lat="44.18212" lon="6.74953">
        <ele>1214</ele>
        <time>2020-06-06T13:40:19.000Z</time>
      </trkpt>
      <trkpt lat="44.18217" lon="6.74953">
        <ele>1214.5999755859</ele>
        <time>2020-06-06T13:40:23.000Z</time>
      </trkpt>
      <trkpt lat="44.18219" lon="6.74953">
        <ele>1214.8000488281</ele>
        <time>2020-06-06T13:40:25.000Z</time>
      </trkpt>
      <trkpt lat="44.18221" lon="6.74952">
        <ele>1215</ele>
        <time>2020-06-06T13:40:26.000Z</time>
      </trkpt>
      <trkpt lat="44.18222" lon="6.74953">
        <ele>1215</ele>
        <time>2020-06-06T13:40:27.000Z</time>
      </trkpt>
      <trkpt lat="44.18226" lon="6.74955">
        <ele>1215.4000244141</ele>
        <time>2020-06-06T13:40:30.000Z</time>
      </trkpt>
      <trkpt lat="44.18227" lon="6.74957">
        <ele>1215.4000244141</ele>
        <time>2020-06-06T13:40:31.000Z</time>
      </trkpt>
      <trkpt lat="44.18233" lon="6.74959">
        <ele>1216</ele>
        <time>2020-06-06T13:40:36.000Z</time>
      </trkpt>
      <trkpt lat="44.18235" lon="6.7496">
        <ele>1216</ele>
        <time>2020-06-06T13:40:37.000Z</time>
      </trkpt>
      <trkpt lat="44.18236" lon="6.7496">
        <ele>1216</ele>
        <time>2020-06-06T13:40:40.000Z</time>
      </trkpt>
      <trkpt lat="44.18239" lon="6.74962">
        <ele>1215.8000488281</ele>
        <time>2020-06-06T13:40:45.000Z</time>
      </trkpt>
      <trkpt lat="44.18247" lon="6.74967">
        <ele>1216.1999511719</ele>
        <time>2020-06-06T13:40:50.000Z</time>
      </trkpt>
      <trkpt lat="44.1825" lon="6.74969">
        <ele>1216.4000244141</ele>
        <time>2020-06-06T13:40:53.000Z</time>
      </trkpt>
      <trkpt lat="44.18253" lon="6.74969">
        <ele>1216.4000244141</ele>
        <time>2020-06-06T13:40:55.000Z</time>
      </trkpt>
      <trkpt lat="44.18257" lon="6.74975">
        <ele>1217</ele>
        <time>2020-06-06T13:40:59.000Z</time>
      </trkpt>
      <trkpt lat="44.18257" lon="6.74977">
        <ele>1217.5999755859</ele>
        <time>2020-06-06T13:41:01.000Z</time>
      </trkpt>
      <trkpt lat="44.18259" lon="6.74979">
        <ele>1217.8000488281</ele>
        <time>2020-06-06T13:41:03.000Z</time>
      </trkpt>
      <trkpt lat="44.1826" lon="6.74977">
        <ele>1217.5999755859</ele>
        <time>2020-06-06T13:41:05.000Z</time>
      </trkpt>
      <trkpt lat="44.18263" lon="6.74974">
        <ele>1217.4000244141</ele>
        <time>2020-06-06T13:41:07.000Z</time>
      </trkpt>
      <trkpt lat="44.18266" lon="6.74968">
        <ele>1218.4000244141</ele>
        <time>2020-06-06T13:41:12.000Z</time>
      </trkpt>
      <trkpt lat="44.18267" lon="6.74968">
        <ele>1218.8000488281</ele>
        <time>2020-06-06T13:41:13.000Z</time>
      </trkpt>
      <trkpt lat="44.18269" lon="6.74966">
        <ele>1219.1999511719</ele>
        <time>2020-06-06T13:41:18.000Z</time>
      </trkpt>
      <trkpt lat="44.18269" lon="6.74965">
        <ele>1219.4000244141</ele>
        <time>2020-06-06T13:41:19.000Z</time>
      </trkpt>
      <trkpt lat="44.1827" lon="6.74965">
        <ele>1219.8000488281</ele>
        <time>2020-06-06T13:41:22.000Z</time>
      </trkpt>
      <trkpt lat="44.18274" lon="6.74963">
        <ele>1219.4000244141</ele>
        <time>2020-06-06T13:41:29.000Z</time>
      </trkpt>
      <trkpt lat="44.18285" lon="6.74958">
        <ele>1220</ele>
        <time>2020-06-06T13:41:36.000Z</time>
      </trkpt>
      <trkpt lat="44.18286" lon="6.74956">
        <ele>1220.1999511719</ele>
        <time>2020-06-06T13:41:37.000Z</time>
      </trkpt>
      <trkpt lat="44.18287" lon="6.74948">
        <ele>1220.4000244141</ele>
        <time>2020-06-06T13:41:41.000Z</time>
      </trkpt>
      <trkpt lat="44.18287" lon="6.74945">
        <ele>1220.5999755859</ele>
        <time>2020-06-06T13:41:42.000Z</time>
      </trkpt>
      <trkpt lat="44.18283" lon="6.74932">
        <ele>1221.5999755859</ele>
        <time>2020-06-06T13:41:48.000Z</time>
      </trkpt>
      <trkpt lat="44.18278" lon="6.7492">
        <ele>1222.4000244141</ele>
        <time>2020-06-06T13:41:54.000Z</time>
      </trkpt>
      <trkpt lat="44.18278" lon="6.74918">
        <ele>1222.5999755859</ele>
        <time>2020-06-06T13:41:55.000Z</time>
      </trkpt>
      <trkpt lat="44.18273" lon="6.74908">
        <ele>1223.5999755859</ele>
        <time>2020-06-06T13:42:00.000Z</time>
      </trkpt>
      <trkpt lat="44.1827" lon="6.74902">
        <ele>1224.4000244141</ele>
        <time>2020-06-06T13:42:03.000Z</time>
      </trkpt>
      <trkpt lat="44.18268" lon="6.749">
        <ele>1224.8000488281</ele>
        <time>2020-06-06T13:42:05.000Z</time>
      </trkpt>
      <trkpt lat="44.18262" lon="6.74891">
        <ele>1225.8000488281</ele>
        <time>2020-06-06T13:42:10.000Z</time>
      </trkpt>
      <trkpt lat="44.18261" lon="6.74888">
        <ele>1226</ele>
        <time>2020-06-06T13:42:12.000Z</time>
      </trkpt>
      <trkpt lat="44.18254" lon="6.74874">
        <ele>1227</ele>
        <time>2020-06-06T13:42:20.000Z</time>
      </trkpt>
      <trkpt lat="44.18252" lon="6.74869">
        <ele>1228</ele>
        <time>2020-06-06T13:42:23.000Z</time>
      </trkpt>
      <trkpt lat="44.1825" lon="6.74868">
        <ele>1228.1999511719</ele>
        <time>2020-06-06T13:42:24.000Z</time>
      </trkpt>
      <trkpt lat="44.18248" lon="6.74865">
        <ele>1228.5999755859</ele>
        <time>2020-06-06T13:42:26.000Z</time>
      </trkpt>
      <trkpt lat="44.18244" lon="6.74861">
        <ele>1229.1999511719</ele>
        <time>2020-06-06T13:42:29.000Z</time>
      </trkpt>
      <trkpt lat="44.18241" lon="6.74858">
        <ele>1229.8000488281</ele>
        <time>2020-06-06T13:42:32.000Z</time>
      </trkpt>
      <trkpt lat="44.18238" lon="6.74856">
        <ele>1230.4000244141</ele>
        <time>2020-06-06T13:42:34.000Z</time>
      </trkpt>
      <trkpt lat="44.18236" lon="6.74854">
        <ele>1231</ele>
        <time>2020-06-06T13:42:36.000Z</time>
      </trkpt>
      <trkpt lat="44.18234" lon="6.74852">
        <ele>1231.4000244141</ele>
        <time>2020-06-06T13:42:38.000Z</time>
      </trkpt>
      <trkpt lat="44.18233" lon="6.7485">
        <ele>1231.5999755859</ele>
        <time>2020-06-06T13:42:39.000Z</time>
      </trkpt>
      <trkpt lat="44.18233" lon="6.74848">
        <ele>1231.8000488281</ele>
        <time>2020-06-06T13:42:40.000Z</time>
      </trkpt>
      <trkpt lat="44.18234" lon="6.74845">
        <ele>1232.1999511719</ele>
        <time>2020-06-06T13:42:42.000Z</time>
      </trkpt>
      <trkpt lat="44.18237" lon="6.74846">
        <ele>1232.5999755859</ele>
        <time>2020-06-06T13:42:44.000Z</time>
      </trkpt>
      <trkpt lat="44.1824" lon="6.74848">
        <ele>1233</ele>
        <time>2020-06-06T13:42:46.000Z</time>
      </trkpt>
      <trkpt lat="44.18241" lon="6.74849">
        <ele>1233</ele>
        <time>2020-06-06T13:42:47.000Z</time>
      </trkpt>
      <trkpt lat="44.18253" lon="6.74857">
        <ele>1233.4000244141</ele>
        <time>2020-06-06T13:42:54.000Z</time>
      </trkpt>
      <trkpt lat="44.18268" lon="6.74868">
        <ele>1233.1999511719</ele>
        <time>2020-06-06T13:43:02.000Z</time>
      </trkpt>
      <trkpt lat="44.18283" lon="6.74879">
        <ele>1233.5999755859</ele>
        <time>2020-06-06T13:43:09.000Z</time>
      </trkpt>
      <trkpt lat="44.18285" lon="6.7488">
        <ele>1233.5999755859</ele>
        <time>2020-06-06T13:43:10.000Z</time>
      </trkpt>
      <trkpt lat="44.18307" lon="6.74895">
        <ele>1234.4000244141</ele>
        <time>2020-06-06T13:43:19.000Z</time>
      </trkpt>
      <trkpt lat="44.18317" lon="6.749">
        <ele>1234.8000488281</ele>
        <time>2020-06-06T13:43:23.000Z</time>
      </trkpt>
      <trkpt lat="44.1833" lon="6.74904">
        <ele>1235.1999511719</ele>
        <time>2020-06-06T13:43:28.000Z</time>
      </trkpt>
      <trkpt lat="44.18342" lon="6.74906">
        <ele>1235.8000488281</ele>
        <time>2020-06-06T13:43:32.000Z</time>
      </trkpt>
      <trkpt lat="44.18358" lon="6.74909">
        <ele>1236.4000244141</ele>
        <time>2020-06-06T13:43:38.000Z</time>
      </trkpt>
      <trkpt lat="44.18366" lon="6.7491">
        <ele>1236.8000488281</ele>
        <time>2020-06-06T13:43:41.000Z</time>
      </trkpt>
      <trkpt lat="44.18385" lon="6.74911">
        <ele>1237.4000244141</ele>
        <time>2020-06-06T13:43:48.000Z</time>
      </trkpt>
      <trkpt lat="44.18394" lon="6.74911">
        <ele>1237.8000488281</ele>
        <time>2020-06-06T13:43:51.000Z</time>
      </trkpt>
      <trkpt lat="44.1841" lon="6.7491">
        <ele>1238.8000488281</ele>
        <time>2020-06-06T13:43:57.000Z</time>
      </trkpt>
      <trkpt lat="44.18415" lon="6.74909">
        <ele>1239</ele>
        <time>2020-06-06T13:43:59.000Z</time>
      </trkpt>
      <trkpt lat="44.18433" lon="6.74904">
        <ele>1240</ele>
        <time>2020-06-06T13:44:06.000Z</time>
      </trkpt>
      <trkpt lat="44.18436" lon="6.74903">
        <ele>1240.1999511719</ele>
        <time>2020-06-06T13:44:07.000Z</time>
      </trkpt>
      <trkpt lat="44.18454" lon="6.74896">
        <ele>1241</ele>
        <time>2020-06-06T13:44:14.000Z</time>
      </trkpt>
      <trkpt lat="44.18459" lon="6.74894">
        <ele>1241.1999511719</ele>
        <time>2020-06-06T13:44:16.000Z</time>
      </trkpt>
      <trkpt lat="44.18475" lon="6.74887">
        <ele>1241.8000488281</ele>
        <time>2020-06-06T13:44:22.000Z</time>
      </trkpt>
      <trkpt lat="44.18485" lon="6.74882">
        <ele>1242.1999511719</ele>
        <time>2020-06-06T13:44:26.000Z</time>
      </trkpt>
      <trkpt lat="44.18506" lon="6.74873">
        <ele>1243</ele>
        <time>2020-06-06T13:44:34.000Z</time>
      </trkpt>
      <trkpt lat="44.18511" lon="6.7487">
        <ele>1243.1999511719</ele>
        <time>2020-06-06T13:44:36.000Z</time>
      </trkpt>
      <trkpt lat="44.18524" lon="6.74866">
        <ele>1243.8000488281</ele>
        <time>2020-06-06T13:44:41.000Z</time>
      </trkpt>
      <trkpt lat="44.18534" lon="6.74861">
        <ele>1244.4000244141</ele>
        <time>2020-06-06T13:44:45.000Z</time>
      </trkpt>
      <trkpt lat="44.18547" lon="6.74856">
        <ele>1244.8000488281</ele>
        <time>2020-06-06T13:44:50.000Z</time>
      </trkpt>
      <trkpt lat="44.18554" lon="6.74853">
        <ele>1245.4000244141</ele>
        <time>2020-06-06T13:44:53.000Z</time>
      </trkpt>
      <trkpt lat="44.18572" lon="6.74845">
        <ele>1246.1999511719</ele>
        <time>2020-06-06T13:45:00.000Z</time>
      </trkpt>
      <trkpt lat="44.18575" lon="6.74844">
        <ele>1246.4000244141</ele>
        <time>2020-06-06T13:45:01.000Z</time>
      </trkpt>
      <trkpt lat="44.1859" lon="6.74837">
        <ele>1247.4000244141</ele>
        <time>2020-06-06T13:45:07.000Z</time>
      </trkpt>
      <trkpt lat="44.18599" lon="6.74833">
        <ele>1248.5999755859</ele>
        <time>2020-06-06T13:45:11.000Z</time>
      </trkpt>
      <trkpt lat="44.18613" lon="6.74825">
        <ele>1249.5999755859</ele>
        <time>2020-06-06T13:45:17.000Z</time>
      </trkpt>
      <trkpt lat="44.18617" lon="6.74824">
        <ele>1249.8000488281</ele>
        <time>2020-06-06T13:45:19.000Z</time>
      </trkpt>
      <trkpt lat="44.18636" lon="6.74817">
        <ele>1250.5999755859</ele>
        <time>2020-06-06T13:45:26.000Z</time>
      </trkpt>
      <trkpt lat="44.18641" lon="6.74814">
        <ele>1250.5999755859</ele>
        <time>2020-06-06T13:45:28.000Z</time>
      </trkpt>
      <trkpt lat="44.18657" lon="6.74806">
        <ele>1251</ele>
        <time>2020-06-06T13:45:34.000Z</time>
      </trkpt>
      <trkpt lat="44.18681" lon="6.7479">
        <ele>1251.8000488281</ele>
        <time>2020-06-06T13:45:43.000Z</time>
      </trkpt>
      <trkpt lat="44.18693" lon="6.74787">
        <ele>1252</ele>
        <time>2020-06-06T13:45:48.000Z</time>
      </trkpt>
      <trkpt lat="44.18699" lon="6.7479">
        <ele>1252</ele>
        <time>2020-06-06T13:45:50.000Z</time>
      </trkpt>
      <trkpt lat="44.18713" lon="6.74797">
        <ele>1252</ele>
        <time>2020-06-06T13:45:57.000Z</time>
      </trkpt>
    </trkseg>
  </trk>
</gpx>